<?xml version='1.0' encoding='UTF-8'?><gpx version="1.1" creator="JPX - https://github.com/jenetics/jpx" xmlns="http://www.topografix.com/GPX/1/1"><trk><trkseg><trkpt lat="45.48636581858053" lon="9.244505481852428"><ele>124.0</ele><time>2026-04-11T07:56:45.999Z</time></trkpt><trkpt lat="45.48621494022441" lon="9.244474473977103"><ele>124.0</ele><time>2026-04-11T07:57:02Z</time></trkpt><trkpt lat="45.486302901882134" lon="9.244488935227388"><ele>124.0</ele><time>2026-04-11T07:57:17Z</time></trkpt><trkpt lat="45.48638944885242" lon="9.244477634744484"><ele>124.0</ele><time>2026-04-11T07:57:22Z</time></trkpt><trkpt lat="45.48645013965544" lon="9.244506441906676"><ele>124.0</ele><time>2026-04-11T07:57:35Z</time></trkpt><trkpt lat="45.486482305597384" lon="9.244585595391198"><ele>124.0</ele><time>2026-04-11T07:57:36Z</time></trkpt><trkpt lat="45.486490702773985" lon="9.244708152929473"><ele>124.0</ele><time>2026-04-11T07:57:37Z</time></trkpt><trkpt lat="45.48648513405356" lon="9.244833214894081"><ele>124.0</ele><time>2026-04-11T07:57:38Z</time></trkpt><trkpt lat="45.48649471419573" lon="9.244978476601654"><ele>124.0</ele><time>2026-04-11T07:57:39Z</time></trkpt><trkpt lat="45.48650426645941" lon="9.245147313628792"><ele>124.0</ele><time>2026-04-11T07:57:40Z</time></trkpt><trkpt lat="45.486519919010775" lon="9.245333152781484"><ele>124.0</ele><time>2026-04-11T07:57:41Z</time></trkpt><trkpt lat="45.48654056098273" lon="9.245507861650761"><ele>124.0</ele><time>2026-04-11T07:57:42Z</time></trkpt><trkpt lat="45.48655984689059" lon="9.245701563829076"><ele>124.0</ele><time>2026-04-11T07:57:43Z</time></trkpt><trkpt lat="45.48658351657508" lon="9.245896530019508"><ele>124.0</ele><time>2026-04-11T07:57:44Z</time></trkpt><trkpt lat="45.48660204422285" lon="9.24609991933856"><ele>123.66666666666667</ele><time>2026-04-11T07:57:45Z</time></trkpt><trkpt lat="45.48662301604458" lon="9.246318004194805"><ele>123.33333333333334</ele><time>2026-04-11T07:57:46Z</time></trkpt><trkpt lat="45.48663918155592" lon="9.246535106034873"><ele>123.0</ele><time>2026-04-11T07:57:47Z</time></trkpt><trkpt lat="45.486658829292836" lon="9.246753570531999"><ele>122.66666666666666</ele><time>2026-04-11T07:57:48Z</time></trkpt><trkpt lat="45.48667497371455" lon="9.24698315573894"><ele>122.33333333333333</ele><time>2026-04-11T07:57:49Z</time></trkpt><trkpt lat="45.48668733527711" lon="9.247220064827678"><ele>122.0</ele><time>2026-04-11T07:57:50Z</time></trkpt><trkpt lat="45.48670023902604" lon="9.247458678675066"><ele>121.33333333333333</ele><time>2026-04-11T07:57:51Z</time></trkpt><trkpt lat="45.48672196355181" lon="9.247694040544957"><ele>120.66666666666666</ele><time>2026-04-11T07:57:52Z</time></trkpt><trkpt lat="45.48674090976296" lon="9.247939297110413"><ele>120.0</ele><time>2026-04-11T07:57:53Z</time></trkpt><trkpt lat="45.48676157114146" lon="9.248176288310802"><ele>119.75</ele><time>2026-04-11T07:57:54Z</time></trkpt><trkpt lat="45.48678149179848" lon="9.24838910124708"><ele>119.5</ele><time>2026-04-11T07:57:55Z</time></trkpt><trkpt lat="45.48679944654824" lon="9.2485814174376"><ele>119.25</ele><time>2026-04-11T07:57:56Z</time></trkpt><trkpt lat="45.48681879601498" lon="9.24876859334104"><ele>119.0</ele><time>2026-04-11T07:57:57Z</time></trkpt><trkpt lat="45.48683806967934" lon="9.248959235957654"><ele>118.5</ele><time>2026-04-11T07:57:58Z</time></trkpt><trkpt lat="45.48686198014702" lon="9.249157058198778"><ele>118.0</ele><time>2026-04-11T07:57:59Z</time></trkpt><trkpt lat="45.486877582188654" lon="9.249354660389638"><ele>117.5</ele><time>2026-04-11T07:58:00Z</time></trkpt><trkpt lat="45.48688648186124" lon="9.249565363494492"><ele>117.0</ele><time>2026-04-11T07:58:01Z</time></trkpt><trkpt lat="45.48690184218354" lon="9.249777623213665"><ele>117.0</ele><time>2026-04-11T07:58:02Z</time></trkpt><trkpt lat="45.486916382003066" lon="9.249988060380451"><ele>117.0</ele><time>2026-04-11T07:58:03Z</time></trkpt><trkpt lat="45.48691720907718" lon="9.250198393329395"><ele>117.0</ele><time>2026-04-11T07:58:04Z</time></trkpt><trkpt lat="45.48689307632786" lon="9.250404644338584"><ele>117.0</ele><time>2026-04-11T07:58:05Z</time></trkpt><trkpt lat="45.48683859464047" lon="9.25059267576066"><ele>116.75</ele><time>2026-04-11T07:58:06Z</time></trkpt><trkpt lat="45.48675421264336" lon="9.250743778321079"><ele>116.5</ele><time>2026-04-11T07:58:07Z</time></trkpt><trkpt lat="45.48665128480337" lon="9.250860043396989"><ele>116.25</ele><time>2026-04-11T07:58:08Z</time></trkpt><trkpt lat="45.48652120786068" lon="9.25092410909104"><ele>116.0</ele><time>2026-04-11T07:58:09Z</time></trkpt><trkpt lat="45.48638250019292" lon="9.250962737446432"><ele>116.5</ele><time>2026-04-11T07:58:10Z</time></trkpt><trkpt lat="45.48624516522269" lon="9.250961743300548"><ele>117.0</ele><time>2026-04-11T07:58:11Z</time></trkpt><trkpt lat="45.48608857358896" lon="9.250933718265204"><ele>117.5</ele><time>2026-04-11T07:58:12Z</time></trkpt><trkpt lat="45.48594747432753" lon="9.250907383413514"><ele>118.0</ele><time>2026-04-11T07:58:13Z</time></trkpt><trkpt lat="45.48580132539216" lon="9.250884816732082"><ele>118.0</ele><time>2026-04-11T07:58:14Z</time></trkpt><trkpt lat="45.48565369716094" lon="9.250861831250253"><ele>118.0</ele><time>2026-04-11T07:58:15Z</time></trkpt><trkpt lat="45.48550178926179" lon="9.250840620181302"><ele>118.0</ele><time>2026-04-11T07:58:16Z</time></trkpt><trkpt lat="45.48534624346321" lon="9.250820552390675"><ele>118.0</ele><time>2026-04-11T07:58:17Z</time></trkpt><trkpt lat="45.48519961196461" lon="9.250797269696093"><ele>118.0</ele><time>2026-04-11T07:58:18Z</time></trkpt><trkpt lat="45.48506822649384" lon="9.250778556604478"><ele>118.0</ele><time>2026-04-11T07:58:19Z</time></trkpt><trkpt lat="45.484952064223016" lon="9.250770524081835"><ele>118.0</ele><time>2026-04-11T07:58:20Z</time></trkpt><trkpt lat="45.484856005144856" lon="9.250766386340045"><ele>118.00000000000001</ele><time>2026-04-11T07:58:21Z</time></trkpt><trkpt lat="45.48475661152083" lon="9.250755354532497"><ele>118.0</ele><time>2026-04-11T07:58:23Z</time></trkpt><trkpt lat="45.484676105808816" lon="9.250744511703848"><ele>118.0</ele><time>2026-04-11T07:58:26Z</time></trkpt><trkpt lat="45.484613004356724" lon="9.250739378717824"><ele>118.0</ele><time>2026-04-11T07:58:27Z</time></trkpt><trkpt lat="45.484531615589006" lon="9.250735058260759"><ele>118.00000000000001</ele><time>2026-04-11T07:58:28Z</time></trkpt><trkpt lat="45.48444857838869" lon="9.25072857626478"><ele>118.0</ele><time>2026-04-11T07:58:29Z</time></trkpt><trkpt lat="45.48436084591058" lon="9.250724714775101"><ele>118.5</ele><time>2026-04-11T07:58:30Z</time></trkpt><trkpt lat="45.48424394472786" lon="9.250732786254437"><ele>119.0</ele><time>2026-04-11T07:58:31Z</time></trkpt><trkpt lat="45.48409965612729" lon="9.250759739527577"><ele>119.5</ele><time>2026-04-11T07:58:32Z</time></trkpt><trkpt lat="45.483958693754914" lon="9.250796670164249"><ele>120.0</ele><time>2026-04-11T07:58:33Z</time></trkpt><trkpt lat="45.48380990192937" lon="9.250834409673553"><ele>119.33333333333334</ele><time>2026-04-11T07:58:34Z</time></trkpt><trkpt lat="45.48365072662741" lon="9.25085943367352"><ele>118.66666666666667</ele><time>2026-04-11T07:58:35Z</time></trkpt><trkpt lat="45.48348962979104" lon="9.250877898737443"><ele>118.0</ele><time>2026-04-11T07:58:36Z</time></trkpt><trkpt lat="45.48332611471727" lon="9.25091411224719"><ele>118.0</ele><time>2026-04-11T07:58:37Z</time></trkpt><trkpt lat="45.48315619391669" lon="9.25096023839655"><ele>118.0</ele><time>2026-04-11T07:58:38Z</time></trkpt><trkpt lat="45.482978523872205" lon="9.251004416906737"><ele>118.0</ele><time>2026-04-11T07:58:39Z</time></trkpt><trkpt lat="45.482803619984544" lon="9.251055366202232"><ele>118.66666666666667</ele><time>2026-04-11T07:58:40Z</time></trkpt><trkpt lat="45.48262906080925" lon="9.251107635761525"><ele>119.33333333333334</ele><time>2026-04-11T07:58:41Z</time></trkpt><trkpt lat="45.482456981223464" lon="9.251163300901464"><ele>120.0</ele><time>2026-04-11T07:58:42Z</time></trkpt><trkpt lat="45.48228845626998" lon="9.251223422113073"><ele>120.0</ele><time>2026-04-11T07:58:43Z</time></trkpt><trkpt lat="45.48212414202844" lon="9.25128935797748"><ele>120.0</ele><time>2026-04-11T07:58:44Z</time></trkpt><trkpt lat="45.48196047339342" lon="9.25135848422775"><ele>120.0</ele><time>2026-04-11T07:58:45Z</time></trkpt><trkpt lat="45.48179598089882" lon="9.25142724107876"><ele>120.33333333333334</ele><time>2026-04-11T07:58:46Z</time></trkpt><trkpt lat="45.48163167113724" lon="9.25149373189336"><ele>120.66666666666667</ele><time>2026-04-11T07:58:47Z</time></trkpt><trkpt lat="45.4814673609525" lon="9.251565818273258"><ele>121.0</ele><time>2026-04-11T07:58:48Z</time></trkpt><trkpt lat="45.48130294476409" lon="9.251638464952702"><ele>121.0</ele><time>2026-04-11T07:58:49Z</time></trkpt><trkpt lat="45.481137395348405" lon="9.251714612786934"><ele>121.0</ele><time>2026-04-11T07:58:50Z</time></trkpt><trkpt lat="45.480970843174056" lon="9.25179291926523"><ele>121.0</ele><time>2026-04-11T07:58:51Z</time></trkpt><trkpt lat="45.48079982883604" lon="9.25187245956874"><ele>121.0</ele><time>2026-04-11T07:58:52Z</time></trkpt><trkpt lat="45.480623828059585" lon="9.25195477861707"><ele>121.0</ele><time>2026-04-11T07:58:53Z</time></trkpt><trkpt lat="45.48045106199675" lon="9.25203407524494"><ele>121.0</ele><time>2026-04-11T07:58:54Z</time></trkpt><trkpt lat="45.48027240029508" lon="9.252115302348104"><ele>119.66666666666667</ele><time>2026-04-11T07:58:55Z</time></trkpt><trkpt lat="45.48009722649006" lon="9.252198043855108"><ele>118.33333333333334</ele><time>2026-04-11T07:58:56Z</time></trkpt><trkpt lat="45.47991827603937" lon="9.252278084531333"><ele>117.0</ele><time>2026-04-11T07:58:57Z</time></trkpt><trkpt lat="45.47974007744528" lon="9.25235794968439"><ele>117.66666666666666</ele><time>2026-04-11T07:58:58Z</time></trkpt><trkpt lat="45.479570080616895" lon="9.252437830864643"><ele>118.33333333333333</ele><time>2026-04-11T07:58:59Z</time></trkpt><trkpt lat="45.47940031981886" lon="9.252516750320995"><ele>119.0</ele><time>2026-04-11T07:59:00Z</time></trkpt><trkpt lat="45.47922644401488" lon="9.252595894125525"><ele>119.0</ele><time>2026-04-11T07:59:01Z</time></trkpt><trkpt lat="45.479054309754616" lon="9.252674820221376"><ele>119.0</ele><time>2026-04-11T07:59:02Z</time></trkpt><trkpt lat="45.47887241428874" lon="9.2527547052048"><ele>119.0</ele><time>2026-04-11T07:59:03Z</time></trkpt><trkpt lat="45.47869288290018" lon="9.252835841074685"><ele>118.0</ele><time>2026-04-11T07:59:04Z</time></trkpt><trkpt lat="45.478518804652985" lon="9.252914036624205"><ele>117.0</ele><time>2026-04-11T07:59:05Z</time></trkpt><trkpt lat="45.47834354073856" lon="9.252992684024258"><ele>116.0</ele><time>2026-04-11T07:59:06Z</time></trkpt><trkpt lat="45.47816654935957" lon="9.253072027770584"><ele>116.33333333333333</ele><time>2026-04-11T07:59:07Z</time></trkpt><trkpt lat="45.47798262179447" lon="9.25314863986086"><ele>116.66666666666666</ele><time>2026-04-11T07:59:08Z</time></trkpt><trkpt lat="45.47779999421665" lon="9.253212973040862"><ele>117.0</ele><time>2026-04-11T07:59:09Z</time></trkpt><trkpt lat="45.47761836005158" lon="9.253274003241577"><ele>117.0</ele><time>2026-04-11T07:59:10Z</time></trkpt><trkpt lat="45.4774262655415" lon="9.253329875443058"><ele>117.0</ele><time>2026-04-11T07:59:11Z</time></trkpt><trkpt lat="45.47723458087117" lon="9.253373486038784"><ele>117.0</ele><time>2026-04-11T07:59:12Z</time></trkpt><trkpt lat="45.47703873987989" lon="9.25340532250772"><ele>117.0</ele><time>2026-04-11T07:59:13Z</time></trkpt><trkpt lat="45.476840265036685" lon="9.253429238187163"><ele>117.0</ele><time>2026-04-11T07:59:14Z</time></trkpt><trkpt lat="45.47664443143096" lon="9.25344252974354"><ele>117.0</ele><time>2026-04-11T07:59:15Z</time></trkpt><trkpt lat="45.47644676662787" lon="9.253447879883318"><ele>117.0</ele><time>2026-04-11T07:59:16Z</time></trkpt><trkpt lat="45.476246900840245" lon="9.253441727310523"><ele>117.0</ele><time>2026-04-11T07:59:17Z</time></trkpt><trkpt lat="45.47605497249007" lon="9.253425216787974"><ele>117.0</ele><time>2026-04-11T07:59:18Z</time></trkpt><trkpt lat="45.47586027520462" lon="9.253400004013523"><ele>117.0</ele><time>2026-04-11T07:59:19Z</time></trkpt><trkpt lat="45.475663221207135" lon="9.253363955638182"><ele>117.0</ele><time>2026-04-11T07:59:20Z</time></trkpt><trkpt lat="45.47547180193614" lon="9.253321274156402"><ele>117.0</ele><time>2026-04-11T07:59:21Z</time></trkpt><trkpt lat="45.475280351211" lon="9.253267205623311"><ele>117.66666666666666</ele><time>2026-04-11T07:59:22Z</time></trkpt><trkpt lat="45.475096008917085" lon="9.253214274418049"><ele>118.33333333333333</ele><time>2026-04-11T07:59:23Z</time></trkpt><trkpt lat="45.4749164842701" lon="9.253157338481873"><ele>119.0</ele><time>2026-04-11T07:59:24Z</time></trkpt><trkpt lat="45.47473924495846" lon="9.253092173283857"><ele>118.33333333333333</ele><time>2026-04-11T07:59:25Z</time></trkpt><trkpt lat="45.47456298692684" lon="9.253033705374241"><ele>117.66666666666666</ele><time>2026-04-11T07:59:26Z</time></trkpt><trkpt lat="45.47439155602481" lon="9.252979109758009"><ele>117.0</ele><time>2026-04-11T07:59:27Z</time></trkpt><trkpt lat="45.47422400380465" lon="9.252926110428636"><ele>117.0</ele><time>2026-04-11T07:59:28Z</time></trkpt><trkpt lat="45.47405459149136" lon="9.252873413498282"><ele>117.0</ele><time>2026-04-11T07:59:29Z</time></trkpt><trkpt lat="45.473885734076866" lon="9.252819676592914"><ele>117.0</ele><time>2026-04-11T07:59:30Z</time></trkpt><trkpt lat="45.473719341026346" lon="9.25275380291211"><ele>117.66666666666666</ele><time>2026-04-11T07:59:31Z</time></trkpt><trkpt lat="45.47355491529252" lon="9.252691941505292"><ele>118.33333333333333</ele><time>2026-04-11T07:59:32Z</time></trkpt><trkpt lat="45.47339477229606" lon="9.252630099445005"><ele>119.0</ele><time>2026-04-11T07:59:33Z</time></trkpt><trkpt lat="45.47323749036581" lon="9.25258331785094"><ele>119.0</ele><time>2026-04-11T07:59:34Z</time></trkpt><trkpt lat="45.473076717139605" lon="9.252527174650629"><ele>119.0</ele><time>2026-04-11T07:59:35Z</time></trkpt><trkpt lat="45.472909148053574" lon="9.25247445031121"><ele>119.0</ele><time>2026-04-11T07:59:36Z</time></trkpt><trkpt lat="45.47273873551187" lon="9.252423329184147"><ele>119.66666666666666</ele><time>2026-04-11T07:59:37Z</time></trkpt><trkpt lat="45.47255940166719" lon="9.252373683067459"><ele>120.33333333333334</ele><time>2026-04-11T07:59:38Z</time></trkpt><trkpt lat="45.47237657341484" lon="9.2523256892064"><ele>121.0</ele><time>2026-04-11T07:59:39Z</time></trkpt><trkpt lat="45.472194260344544" lon="9.252276160373693"><ele>118.66666666666667</ele><time>2026-04-11T07:59:40Z</time></trkpt><trkpt lat="45.4720118334371" lon="9.252227727892288"><ele>116.33333333333334</ele><time>2026-04-11T07:59:41Z</time></trkpt><trkpt lat="45.471832029593436" lon="9.252188787869098"><ele>114.0</ele><time>2026-04-11T07:59:42Z</time></trkpt><trkpt lat="45.47164824783579" lon="9.252151886128196"><ele>114.0</ele><time>2026-04-11T07:59:43Z</time></trkpt><trkpt lat="45.47146587473433" lon="9.252115367918709"><ele>114.0</ele><time>2026-04-11T07:59:44Z</time></trkpt><trkpt lat="45.4712782236896" lon="9.252079346717029"><ele>114.0</ele><time>2026-04-11T07:59:45Z</time></trkpt><trkpt lat="45.471085823457024" lon="9.252047509748964"><ele>113.66666666666666</ele><time>2026-04-11T07:59:46Z</time></trkpt><trkpt lat="45.470883843807144" lon="9.252017726688486"><ele>113.33333333333333</ele><time>2026-04-11T07:59:47Z</time></trkpt><trkpt lat="45.4706746654734" lon="9.251989422973127"><ele>113.0</ele><time>2026-04-11T07:59:48Z</time></trkpt><trkpt lat="45.470460677421464" lon="9.251960073266346"><ele>113.33333333333333</ele><time>2026-04-11T07:59:49Z</time></trkpt><trkpt lat="45.47024891941025" lon="9.25193864663393"><ele>113.66666666666666</ele><time>2026-04-11T07:59:50Z</time></trkpt><trkpt lat="45.47004472279948" lon="9.251919774228156"><ele>114.0</ele><time>2026-04-11T07:59:51Z</time></trkpt><trkpt lat="45.469844440284916" lon="9.25190485466631"><ele>114.0</ele><time>2026-04-11T07:59:52Z</time></trkpt><trkpt lat="45.469638505524905" lon="9.251896011132757"><ele>114.0</ele><time>2026-04-11T07:59:53Z</time></trkpt><trkpt lat="45.46942628259818" lon="9.251888596336501"><ele>114.0</ele><time>2026-04-11T07:59:54Z</time></trkpt><trkpt lat="45.46921349817746" lon="9.25188458491239"><ele>114.33333333333334</ele><time>2026-04-11T07:59:55Z</time></trkpt><trkpt lat="45.46899609912797" lon="9.251881964408511"><ele>114.66666666666667</ele><time>2026-04-11T07:59:56Z</time></trkpt><trkpt lat="45.46877484255529" lon="9.25188352928262"><ele>115.0</ele><time>2026-04-11T07:59:57Z</time></trkpt><trkpt lat="45.468554969951825" lon="9.251888878217482"><ele>115.0</ele><time>2026-04-11T07:59:58Z</time></trkpt><trkpt lat="45.46833171756194" lon="9.251897639712295"><ele>115.0</ele><time>2026-04-11T07:59:59Z</time></trkpt><trkpt lat="45.46811246729733" lon="9.251904386844547"><ele>115.0</ele><time>2026-04-11T08:00:00Z</time></trkpt><trkpt lat="45.467899162775154" lon="9.251912195042959"><ele>115.0</ele><time>2026-04-11T08:00:01Z</time></trkpt><trkpt lat="45.467686259204115" lon="9.251917464917627"><ele>115.0</ele><time>2026-04-11T08:00:02Z</time></trkpt><trkpt lat="45.467475560062745" lon="9.251916109442291"><ele>115.0</ele><time>2026-04-11T08:00:03Z</time></trkpt><trkpt lat="45.467267334765666" lon="9.25190597912866"><ele>115.0</ele><time>2026-04-11T08:00:04Z</time></trkpt><trkpt lat="45.467057939602164" lon="9.251884747982608"><ele>115.0</ele><time>2026-04-11T08:00:05Z</time></trkpt><trkpt lat="45.46684911869798" lon="9.25185270646723"><ele>115.0</ele><time>2026-04-11T08:00:06Z</time></trkpt><trkpt lat="45.46664359222158" lon="9.251813323358157"><ele>115.0</ele><time>2026-04-11T08:00:07Z</time></trkpt><trkpt lat="45.46644345622384" lon="9.251761768411466"><ele>115.0</ele><time>2026-04-11T08:00:08Z</time></trkpt><trkpt lat="45.46625447063572" lon="9.251706695327883"><ele>115.0</ele><time>2026-04-11T08:00:09Z</time></trkpt><trkpt lat="45.46605662808457" lon="9.251644015871713"><ele>114.66666666666667</ele><time>2026-04-11T08:00:10Z</time></trkpt><trkpt lat="45.46586554692571" lon="9.251567717165008"><ele>114.33333333333334</ele><time>2026-04-11T08:00:11Z</time></trkpt><trkpt lat="45.465676298767946" lon="9.251488022540496"><ele>114.0</ele><time>2026-04-11T08:00:12Z</time></trkpt><trkpt lat="45.465484931303294" lon="9.251404763397911"><ele>113.66666666666666</ele><time>2026-04-11T08:00:13Z</time></trkpt><trkpt lat="45.46529426785862" lon="9.251315697881065"><ele>113.33333333333333</ele><time>2026-04-11T08:00:14Z</time></trkpt><trkpt lat="45.465101201505455" lon="9.251228820589677"><ele>113.0</ele><time>2026-04-11T08:00:15Z</time></trkpt><trkpt lat="45.46490617688286" lon="9.251150469834974"><ele>113.0</ele><time>2026-04-11T08:00:16Z</time></trkpt><trkpt lat="45.46471431328305" lon="9.251082076161245"><ele>113.0</ele><time>2026-04-11T08:00:17Z</time></trkpt><trkpt lat="45.464520424963446" lon="9.25102669943564"><ele>113.0</ele><time>2026-04-11T08:00:18Z</time></trkpt><trkpt lat="45.46432555697494" lon="9.250982790015966"><ele>113.66666666666666</ele><time>2026-04-11T08:00:19Z</time></trkpt><trkpt lat="45.46413345321243" lon="9.250949872786613"><ele>114.33333333333334</ele><time>2026-04-11T08:00:20Z</time></trkpt><trkpt lat="45.463937175751006" lon="9.2509347107429"><ele>115.0</ele><time>2026-04-11T08:00:21Z</time></trkpt><trkpt lat="45.4637297714637" lon="9.250929399249621"><ele>115.0</ele><time>2026-04-11T08:00:22Z</time></trkpt><trkpt lat="45.46351725847138" lon="9.25092599878287"><ele>115.0</ele><time>2026-04-11T08:00:23Z</time></trkpt><trkpt lat="45.463300117755544" lon="9.2509232036698"><ele>115.0</ele><time>2026-04-11T08:00:24Z</time></trkpt><trkpt lat="45.463079112413375" lon="9.250927844316367"><ele>112.66666666666667</ele><time>2026-04-11T08:00:25Z</time></trkpt><trkpt lat="45.46285536418429" lon="9.250940291143502"><ele>110.33333333333334</ele><time>2026-04-11T08:00:26Z</time></trkpt><trkpt lat="45.46263057364194" lon="9.250963161192953"><ele>108.0</ele><time>2026-04-11T08:00:27Z</time></trkpt><trkpt lat="45.462401198297684" lon="9.250988091323075"><ele>108.0</ele><time>2026-04-11T08:00:28Z</time></trkpt><trkpt lat="45.46216883919951" lon="9.251007085251139"><ele>108.0</ele><time>2026-04-11T08:00:29Z</time></trkpt><trkpt lat="45.46193620210868" lon="9.251025691957588"><ele>112.0</ele><time>2026-04-11T08:00:30Z</time></trkpt><trkpt lat="45.461704396819975" lon="9.251047316845723"><ele>116.0</ele><time>2026-04-11T08:00:31Z</time></trkpt><trkpt lat="45.4614745687513" lon="9.251070494553264"><ele>116.33333333333333</ele><time>2026-04-11T08:00:32Z</time></trkpt><trkpt lat="45.46124961752062" lon="9.251092201043548"><ele>116.66666666666666</ele><time>2026-04-11T08:00:33Z</time></trkpt><trkpt lat="45.461026827409185" lon="9.251114360622374"><ele>117.0</ele><time>2026-04-11T08:00:34Z</time></trkpt><trkpt lat="45.46080648616475" lon="9.251134447961986"><ele>117.0</ele><time>2026-04-11T08:00:35Z</time></trkpt><trkpt lat="45.4605881889099" lon="9.251155208435133"><ele>117.0</ele><time>2026-04-11T08:00:36Z</time></trkpt><trkpt lat="45.46036688250815" lon="9.251173950241279"><ele>117.0</ele><time>2026-04-11T08:00:37Z</time></trkpt><trkpt lat="45.46013964834642" lon="9.251200971827231"><ele>115.0</ele><time>2026-04-11T08:00:38Z</time></trkpt><trkpt lat="45.45989778996843" lon="9.251242830494482"><ele>113.0</ele><time>2026-04-11T08:00:38.999Z</time></trkpt><trkpt lat="45.45962167210969" lon="9.251306737597845"><ele>112.5</ele><time>2026-04-11T08:00:39.999Z</time></trkpt><trkpt lat="45.45933009770793" lon="9.251374425080412"><ele>112.0</ele><time>2026-04-11T08:00:40.999Z</time></trkpt><trkpt lat="45.45904160995226" lon="9.251448022185345"><ele>113.0</ele><time>2026-04-11T08:00:41.999Z</time></trkpt><trkpt lat="45.4587559682411" lon="9.251535209587187"><ele>114.0</ele><time>2026-04-11T08:00:42.999Z</time></trkpt><trkpt lat="45.45846815263616" lon="9.251633303144123"><ele>114.0</ele><time>2026-04-11T08:00:43.999Z</time></trkpt><trkpt lat="45.45818250305185" lon="9.251741612730953"><ele>114.0</ele><time>2026-04-11T08:00:44.999Z</time></trkpt><trkpt lat="45.45790140130563" lon="9.251864667574932"><ele>112.5</ele><time>2026-04-11T08:00:45.999Z</time></trkpt><trkpt lat="45.45762532505345" lon="9.252000658093442"><ele>111.0</ele><time>2026-04-11T08:00:46.999Z</time></trkpt><trkpt lat="45.45735469050185" lon="9.252146728232724"><ele>111.5</ele><time>2026-04-11T08:00:47.999Z</time></trkpt><trkpt lat="45.45709403816783" lon="9.252301991733095"><ele>112.0</ele><time>2026-04-11T08:00:48.999Z</time></trkpt><trkpt lat="45.45683760387027" lon="9.25246645088856"><ele>112.0</ele><time>2026-04-11T08:00:49.999Z</time></trkpt><trkpt lat="45.4565867976824" lon="9.252639069799342"><ele>112.0</ele><time>2026-04-11T08:00:50.999Z</time></trkpt><trkpt lat="45.45634262094426" lon="9.252820437284733"><ele>111.5</ele><time>2026-04-11T08:00:51.999Z</time></trkpt><trkpt lat="45.45610565751531" lon="9.253010863383592"><ele>111.0</ele><time>2026-04-11T08:00:52.999Z</time></trkpt><trkpt lat="45.45587349131924" lon="9.253207877604488"><ele>111.0</ele><time>2026-04-11T08:00:53.999Z</time></trkpt><trkpt lat="45.45564780725408" lon="9.25339897060325"><ele>111.0</ele><time>2026-04-11T08:00:54.999Z</time></trkpt><trkpt lat="45.455420620861204" lon="9.25358311634684"><ele>110.5</ele><time>2026-04-11T08:00:55.999Z</time></trkpt><trkpt lat="45.455196755196745" lon="9.253769592078678"><ele>110.0</ele><time>2026-04-11T08:00:56.999Z</time></trkpt><trkpt lat="45.454976793265615" lon="9.253954791985565"><ele>109.5</ele><time>2026-04-11T08:00:57.999Z</time></trkpt><trkpt lat="45.45475744635851" lon="9.25413616576594"><ele>109.0</ele><time>2026-04-11T08:00:58.999Z</time></trkpt><trkpt lat="45.45453730745688" lon="9.254314322743094"><ele>109.0</ele><time>2026-04-11T08:00:59.999Z</time></trkpt><trkpt lat="45.454320167575" lon="9.254487657067001"><ele>109.0</ele><time>2026-04-11T08:01:00.999Z</time></trkpt><trkpt lat="45.454103689264926" lon="9.254659250185995"><ele>109.5</ele><time>2026-04-11T08:01:01.999Z</time></trkpt><trkpt lat="45.453889819473325" lon="9.254832096379427"><ele>110.0</ele><time>2026-04-11T08:01:02.999Z</time></trkpt><trkpt lat="45.45367884581663" lon="9.255008991159059"><ele>110.0</ele><time>2026-04-11T08:01:03.999Z</time></trkpt><trkpt lat="45.45347028202793" lon="9.255183843759358"><ele>110.0</ele><time>2026-04-11T08:01:04.999Z</time></trkpt><trkpt lat="45.45326294424558" lon="9.255362205250249"><ele>110.0</ele><time>2026-04-11T08:01:05.999Z</time></trkpt><trkpt lat="45.45305708491751" lon="9.255547603700998"><ele>110.0</ele><time>2026-04-11T08:01:06.999Z</time></trkpt><trkpt lat="45.45284978183594" lon="9.255729266733278"><ele>110.0</ele><time>2026-04-11T08:01:07.999Z</time></trkpt><trkpt lat="45.452640222512365" lon="9.255904688461426"><ele>110.0</ele><time>2026-04-11T08:01:08.999Z</time></trkpt><trkpt lat="45.45242603564082" lon="9.256077683969563"><ele>110.0</ele><time>2026-04-11T08:01:09.999Z</time></trkpt><trkpt lat="45.452210549262404" lon="9.256250190862747"><ele>110.0</ele><time>2026-04-11T08:01:10.999Z</time></trkpt><trkpt lat="45.45199173313006" lon="9.256426010866285"><ele>110.5</ele><time>2026-04-11T08:01:11.999Z</time></trkpt><trkpt lat="45.45177251766324" lon="9.256606606432381"><ele>111.0</ele><time>2026-04-11T08:01:12.999Z</time></trkpt><trkpt lat="45.451550923342154" lon="9.256789617829348"><ele>111.0</ele><time>2026-04-11T08:01:13.999Z</time></trkpt><trkpt lat="45.45132760442476" lon="9.256974133225787"><ele>111.0</ele><time>2026-04-11T08:01:14.999Z</time></trkpt><trkpt lat="45.45110504298742" lon="9.257162154011557"><ele>111.5</ele><time>2026-04-11T08:01:15.999Z</time></trkpt><trkpt lat="45.45088111552405" lon="9.257346594150123"><ele>112.0</ele><time>2026-04-11T08:01:16.999Z</time></trkpt><trkpt lat="45.450658154396244" lon="9.25752492620274"><ele>112.5</ele><time>2026-04-11T08:01:17.999Z</time></trkpt><trkpt lat="45.45043441765391" lon="9.257696957454131"><ele>113.0</ele><time>2026-04-11T08:01:18.999Z</time></trkpt><trkpt lat="45.450206200735984" lon="9.257853012302993"><ele>113.0</ele><time>2026-04-11T08:01:19.999Z</time></trkpt><trkpt lat="45.44997581792579" lon="9.257995600522202"><ele>113.0</ele><time>2026-04-11T08:01:20.999Z</time></trkpt><trkpt lat="45.449742710362884" lon="9.258130854436802"><ele>111.0</ele><time>2026-04-11T08:01:21.999Z</time></trkpt><trkpt lat="45.44950495561604" lon="9.258256118734446"><ele>109.0</ele><time>2026-04-11T08:01:22.999Z</time></trkpt><trkpt lat="45.44926593408092" lon="9.258360210221277"><ele>109.0</ele><time>2026-04-11T08:01:23.999Z</time></trkpt><trkpt lat="45.449026217149644" lon="9.258458785541519"><ele>109.0</ele><time>2026-04-11T08:01:24.999Z</time></trkpt><trkpt lat="45.44878611128385" lon="9.25854264231989"><ele>108.0</ele><time>2026-04-11T08:01:25.999Z</time></trkpt><trkpt lat="45.448545827816275" lon="9.25861498754921"><ele>107.0</ele><time>2026-04-11T08:01:26.999Z</time></trkpt><trkpt lat="45.4483052992154" lon="9.258682994615961"><ele>107.0</ele><time>2026-04-11T08:01:27.999Z</time></trkpt><trkpt lat="45.448061965244186" lon="9.258728152500654"><ele>107.0</ele><time>2026-04-11T08:01:28.999Z</time></trkpt><trkpt lat="45.447816911301025" lon="9.2587469897028"><ele>105.5</ele><time>2026-04-11T08:01:29.999Z</time></trkpt><trkpt lat="45.4475698401044" lon="9.258752384840337"><ele>104.0</ele><time>2026-04-11T08:01:30.999Z</time></trkpt><trkpt lat="45.447324351235395" lon="9.25874085445216"><ele>107.5</ele><time>2026-04-11T08:01:31.999Z</time></trkpt><trkpt lat="45.447079810881185" lon="9.2587143562011"><ele>111.0</ele><time>2026-04-11T08:01:32.999Z</time></trkpt><trkpt lat="45.44683327217085" lon="9.258672635286482"><ele>111.0</ele><time>2026-04-11T08:01:33.999Z</time></trkpt><trkpt lat="45.44659011401603" lon="9.258619036124523"><ele>111.0</ele><time>2026-04-11T08:01:34.999Z</time></trkpt><trkpt lat="45.4463450169203" lon="9.2585578480281"><ele>106.0</ele><time>2026-04-11T08:01:35.999Z</time></trkpt><trkpt lat="45.44609868369012" lon="9.258494982748596"><ele>101.0</ele><time>2026-04-11T08:01:36.999Z</time></trkpt><trkpt lat="45.44585286924703" lon="9.258427021031347"><ele>101.0</ele><time>2026-04-11T08:01:37.999Z</time></trkpt><trkpt lat="45.445610700286444" lon="9.258355820023356"><ele>101.0</ele><time>2026-04-11T08:01:38.999Z</time></trkpt><trkpt lat="45.44536766804897" lon="9.258284599998962"><ele>96.0</ele><time>2026-04-11T08:01:39.999Z</time></trkpt><trkpt lat="45.445124106943204" lon="9.25821191093408"><ele>91.0</ele><time>2026-04-11T08:01:40.999Z</time></trkpt><trkpt lat="45.44488161918998" lon="9.258140740173188"><ele>92.5</ele><time>2026-04-11T08:01:41.999Z</time></trkpt><trkpt lat="45.444640131203926" lon="9.25807259813313"><ele>94.0</ele><time>2026-04-11T08:01:42.999Z</time></trkpt><trkpt lat="45.44440154832794" lon="9.258004707029713"><ele>94.0</ele><time>2026-04-11T08:01:43.999Z</time></trkpt><trkpt lat="45.4441661076641" lon="9.257932880399105"><ele>94.0</ele><time>2026-04-11T08:01:44.999Z</time></trkpt><trkpt lat="45.443935902265004" lon="9.257865718094331"><ele>95.5</ele><time>2026-04-11T08:01:45.999Z</time></trkpt><trkpt lat="45.443708961529794" lon="9.257797796561027"><ele>97.0</ele><time>2026-04-11T08:01:46.999Z</time></trkpt><trkpt lat="45.443486070613304" lon="9.25772863742297"><ele>97.0</ele><time>2026-04-11T08:01:47.999Z</time></trkpt><trkpt lat="45.443257988544225" lon="9.257659754279937"><ele>97.0</ele><time>2026-04-11T08:01:48.999Z</time></trkpt><trkpt lat="45.443027395723135" lon="9.257593271314205"><ele>100.5</ele><time>2026-04-11T08:01:49.999Z</time></trkpt><trkpt lat="45.44279282927374" lon="9.257526059983777"><ele>104.0</ele><time>2026-04-11T08:01:50.999Z</time></trkpt><trkpt lat="45.44255598376553" lon="9.257458469479442"><ele>104.0</ele><time>2026-04-11T08:01:51.999Z</time></trkpt><trkpt lat="45.442315828773445" lon="9.257393383461206"><ele>104.0</ele><time>2026-04-11T08:01:52.999Z</time></trkpt><trkpt lat="45.442075294366404" lon="9.257324938732669"><ele>104.0</ele><time>2026-04-11T08:01:53.999Z</time></trkpt><trkpt lat="45.44183104428139" lon="9.257250266306388"><ele>104.0</ele><time>2026-04-11T08:01:54.999Z</time></trkpt><trkpt lat="45.44159002403954" lon="9.257169902771434"><ele>104.0</ele><time>2026-04-11T08:01:55.999Z</time></trkpt><trkpt lat="45.441350708933484" lon="9.25708102609141"><ele>104.0</ele><time>2026-04-11T08:01:56.999Z</time></trkpt><trkpt lat="45.44111430243617" lon="9.256993513304453"><ele>104.0</ele><time>2026-04-11T08:01:57.999Z</time></trkpt><trkpt lat="45.44088506073578" lon="9.25691681024046"><ele>104.0</ele><time>2026-04-11T08:01:58.999Z</time></trkpt><trkpt lat="45.440664018692665" lon="9.256844980359464"><ele>104.33333333333333</ele><time>2026-04-11T08:01:59.999Z</time></trkpt><trkpt lat="45.44044760801242" lon="9.256779744491158"><ele>104.66666666666666</ele><time>2026-04-11T08:02:00.999Z</time></trkpt><trkpt lat="45.4402362148194" lon="9.256714922129401"><ele>105.0</ele><time>2026-04-11T08:02:01.999Z</time></trkpt><trkpt lat="45.440021791148055" lon="9.256649138232193"><ele>105.0</ele><time>2026-04-11T08:02:02.999Z</time></trkpt><trkpt lat="45.43980535770217" lon="9.25658342388223"><ele>105.0</ele><time>2026-04-11T08:02:03.999Z</time></trkpt><trkpt lat="45.43958593900896" lon="9.256518629112021"><ele>105.0</ele><time>2026-04-11T08:02:04.999Z</time></trkpt><trkpt lat="45.43936852019848" lon="9.256454145673382"><ele>105.0</ele><time>2026-04-11T08:02:05.999Z</time></trkpt><trkpt lat="45.43915450283355" lon="9.25641455454069"><ele>105.0</ele><time>2026-04-11T08:02:06.999Z</time></trkpt><trkpt lat="45.438956622273814" lon="9.256359899785304"><ele>105.0</ele><time>2026-04-11T08:02:07.999Z</time></trkpt><trkpt lat="45.43876928897896" lon="9.256308330648379"><ele>105.0</ele><time>2026-04-11T08:02:08.999Z</time></trkpt><trkpt lat="45.438602815215965" lon="9.25620429353159"><ele>105.0</ele><time>2026-04-11T08:02:09.999Z</time></trkpt><trkpt lat="45.43845622170936" lon="9.256145447525556"><ele>105.0</ele><time>2026-04-11T08:02:10.999Z</time></trkpt><trkpt lat="45.43832592149743" lon="9.256083327727577"><ele>105.0</ele><time>2026-04-11T08:02:11.999Z</time></trkpt><trkpt lat="45.438207073124204" lon="9.256024358905798"><ele>105.0</ele><time>2026-04-11T08:02:12.999Z</time></trkpt><trkpt lat="45.43810714336285" lon="9.255970299397369"><ele>105.0</ele><time>2026-04-11T08:02:13.999Z</time></trkpt><trkpt lat="45.43800395530937" lon="9.25590330836926"><ele>105.0</ele><time>2026-04-11T08:02:14.999Z</time></trkpt><trkpt lat="45.437904936507636" lon="9.255826111271391"><ele>105.4</ele><time>2026-04-11T08:02:15.999Z</time></trkpt><trkpt lat="45.43781791355808" lon="9.255739169850074"><ele>105.8</ele><time>2026-04-11T08:02:16.999Z</time></trkpt><trkpt lat="45.43773880772755" lon="9.255643505340101"><ele>106.19999999999999</ele><time>2026-04-11T08:02:17.999Z</time></trkpt><trkpt lat="45.437664405766405" lon="9.255535400677015"><ele>106.6</ele><time>2026-04-11T08:02:18.999Z</time></trkpt><trkpt lat="45.437595921289926" lon="9.255409325602809"><ele>107.0</ele><time>2026-04-11T08:02:19.999Z</time></trkpt><trkpt lat="45.437533045269596" lon="9.255268781633385"><ele>107.0</ele><time>2026-04-11T08:02:20.999Z</time></trkpt><trkpt lat="45.43747500290535" lon="9.255122104144093"><ele>107.0</ele><time>2026-04-11T08:02:21.999Z</time></trkpt><trkpt lat="45.437422723348895" lon="9.254972545360019"><ele>107.0</ele><time>2026-04-11T08:02:22.999Z</time></trkpt><trkpt lat="45.43737155246699" lon="9.254819149778582"><ele>107.0</ele><time>2026-04-11T08:02:23.999Z</time></trkpt><trkpt lat="45.43731569807941" lon="9.254659286275395"><ele>106.25</ele><time>2026-04-11T08:02:24.999Z</time></trkpt><trkpt lat="45.4372589465451" lon="9.254502351751961"><ele>105.5</ele><time>2026-04-11T08:02:25.999Z</time></trkpt><trkpt lat="45.43720602183527" lon="9.25434540593673"><ele>104.75</ele><time>2026-04-11T08:02:26.999Z</time></trkpt><trkpt lat="45.43715460297691" lon="9.254188007852088"><ele>104.0</ele><time>2026-04-11T08:02:27.999Z</time></trkpt><trkpt lat="45.43710467045906" lon="9.254029069800113"><ele>103.5</ele><time>2026-04-11T08:02:28.999Z</time></trkpt><trkpt lat="45.437062423713954" lon="9.2538736458577"><ele>103.0</ele><time>2026-04-11T08:02:29.999Z</time></trkpt><trkpt lat="45.43701750410613" lon="9.253721934496816"><ele>102.5</ele><time>2026-04-11T08:02:30.999Z</time></trkpt><trkpt lat="45.436977868369034" lon="9.253566367523005"><ele>102.0</ele><time>2026-04-11T08:02:31.999Z</time></trkpt><trkpt lat="45.436942144121176" lon="9.253409064516001"><ele>102.0</ele><time>2026-04-11T08:02:32.999Z</time></trkpt><trkpt lat="45.436915562216264" lon="9.253247064170992"><ele>102.0</ele><time>2026-04-11T08:02:33.999Z</time></trkpt><trkpt lat="45.4368951260759" lon="9.253082910585839"><ele>102.0</ele><time>2026-04-11T08:02:34.999Z</time></trkpt><trkpt lat="45.436878727925304" lon="9.252909857221306"><ele>102.0</ele><time>2026-04-11T08:02:35.999Z</time></trkpt><trkpt lat="45.436868802027625" lon="9.252720955039631"><ele>102.0</ele><time>2026-04-11T08:02:36.999Z</time></trkpt><trkpt lat="45.436865047810606" lon="9.252522607074754"><ele>102.0</ele><time>2026-04-11T08:02:37.999Z</time></trkpt><trkpt lat="45.436871678571855" lon="9.252319895000896"><ele>102.0</ele><time>2026-04-11T08:02:38.999Z</time></trkpt><trkpt lat="45.43688838895481" lon="9.252120561377676"><ele>102.0</ele><time>2026-04-11T08:02:39.999Z</time></trkpt><trkpt lat="45.43691137855234" lon="9.251944084544306"><ele>102.0</ele><time>2026-04-11T08:02:40.999Z</time></trkpt><trkpt lat="45.43693388635226" lon="9.251778918119745"><ele>102.0</ele><time>2026-04-11T08:02:41.999Z</time></trkpt><trkpt lat="45.43695470958774" lon="9.251611815719283"><ele>102.0</ele><time>2026-04-11T08:02:42.999Z</time></trkpt><trkpt lat="45.4369733934991" lon="9.251427418178045"><ele>102.0</ele><time>2026-04-11T08:02:43.999Z</time></trkpt><trkpt lat="45.43699413545097" lon="9.251233932129072"><ele>102.0</ele><time>2026-04-11T08:02:44.999Z</time></trkpt><trkpt lat="45.437014649654664" lon="9.251041320413956"><ele>102.0</ele><time>2026-04-11T08:02:45.999Z</time></trkpt><trkpt lat="45.43703610090245" lon="9.250853992872232"><ele>102.0</ele><time>2026-04-11T08:02:46.999Z</time></trkpt><trkpt lat="45.43706382046046" lon="9.250666821084321"><ele>102.0</ele><time>2026-04-11T08:02:48Z</time></trkpt><trkpt lat="45.43709753676457" lon="9.250485051337055"><ele>103.0</ele><time>2026-04-11T08:02:49Z</time></trkpt><trkpt lat="45.43713274408052" lon="9.250312754821213"><ele>104.0</ele><time>2026-04-11T08:02:50Z</time></trkpt><trkpt lat="45.43717188344776" lon="9.250136560895111"><ele>105.0</ele><time>2026-04-11T08:02:51Z</time></trkpt><trkpt lat="45.43721298732656" lon="9.249970545752031"><ele>106.0</ele><time>2026-04-11T08:02:52Z</time></trkpt><trkpt lat="45.43725945236744" lon="9.249828781790056"><ele>106.33333333333334</ele><time>2026-04-11T08:02:53Z</time></trkpt><trkpt lat="45.43730439400315" lon="9.249709447766524"><ele>106.66666666666667</ele><time>2026-04-11T08:02:54Z</time></trkpt><trkpt lat="45.437343363252424" lon="9.249605499695035"><ele>107.0</ele><time>2026-04-11T08:02:55Z</time></trkpt><trkpt lat="45.43737760155479" lon="9.24951477261803"><ele>107.33333333333334</ele><time>2026-04-11T08:02:56Z</time></trkpt><trkpt lat="45.437404739043096" lon="9.24943222124583"><ele>107.66666666666667</ele><time>2026-04-11T08:02:57Z</time></trkpt><trkpt lat="45.43745730691683" lon="9.249301181473085"><ele>108.0</ele><time>2026-04-11T08:02:58.999Z</time></trkpt><trkpt lat="45.43756544159306" lon="9.24920000831104"><ele>108.0</ele><time>2026-04-11T08:03:00.999Z</time></trkpt><trkpt lat="45.4376229511582" lon="9.24915806107264"><ele>108.0</ele><time>2026-04-11T08:03:01.999Z</time></trkpt><trkpt lat="45.43767715558081" lon="9.249099068535802"><ele>108.0</ele><time>2026-04-11T08:03:02.999Z</time></trkpt><trkpt lat="45.43772676097374" lon="9.249025606603427"><ele>108.0</ele><time>2026-04-11T08:03:03.999Z</time></trkpt><trkpt lat="45.437763495328966" lon="9.248919950874464"><ele>108.0</ele><time>2026-04-11T08:03:04.999Z</time></trkpt><trkpt lat="45.43778582024566" lon="9.248769637872353"><ele>108.0</ele><time>2026-04-11T08:03:05.999Z</time></trkpt><trkpt lat="45.43777431786508" lon="9.248594794911716"><ele>108.0</ele><time>2026-04-11T08:03:06.999Z</time></trkpt><trkpt lat="45.43772347532243" lon="9.248443096278722"><ele>108.0</ele><time>2026-04-11T08:03:07.999Z</time></trkpt><trkpt lat="45.43763543967412" lon="9.24833248748788"><ele>108.0</ele><time>2026-04-11T08:03:08.999Z</time></trkpt><trkpt lat="45.43753487244721" lon="9.248253276775106"><ele>108.0</ele><time>2026-04-11T08:03:09.999Z</time></trkpt><trkpt lat="45.43741837951246" lon="9.248211042010002"><ele>108.0</ele><time>2026-04-11T08:03:10.999Z</time></trkpt><trkpt lat="45.43730976068751" lon="9.248167166034388"><ele>108.0</ele><time>2026-04-11T08:03:11.999Z</time></trkpt><trkpt lat="45.43722784243214" lon="9.248067051177053"><ele>108.0</ele><time>2026-04-11T08:03:12.999Z</time></trkpt><trkpt lat="45.43716126608306" lon="9.247919454584329"><ele>108.0</ele><time>2026-04-11T08:03:13.999Z</time></trkpt><trkpt lat="45.4371044325766" lon="9.247757227935617"><ele>108.25</ele><time>2026-04-11T08:03:14.999Z</time></trkpt><trkpt lat="45.43704993491799" lon="9.247601863209395"><ele>108.5</ele><time>2026-04-11T08:03:15.999Z</time></trkpt><trkpt lat="45.43699275851527" lon="9.24744803257653"><ele>108.75</ele><time>2026-04-11T08:03:16.999Z</time></trkpt><trkpt lat="45.43693645824574" lon="9.247289867029373"><ele>109.0</ele><time>2026-04-11T08:03:18Z</time></trkpt><trkpt lat="45.436879593964655" lon="9.247128826913556"><ele>109.0</ele><time>2026-04-11T08:03:19Z</time></trkpt><trkpt lat="45.436831007926074" lon="9.246973889964094"><ele>109.0</ele><time>2026-04-11T08:03:20Z</time></trkpt><trkpt lat="45.436781486221726" lon="9.246826858027912"><ele>109.0</ele><time>2026-04-11T08:03:21Z</time></trkpt><trkpt lat="45.436722091420755" lon="9.246683910553823"><ele>109.0</ele><time>2026-04-11T08:03:22Z</time></trkpt><trkpt lat="45.43666271283238" lon="9.246532327660466"><ele>108.75</ele><time>2026-04-11T08:03:23Z</time></trkpt><trkpt lat="45.436601705598015" lon="9.246379357648067"><ele>108.5</ele><time>2026-04-11T08:03:24Z</time></trkpt><trkpt lat="45.4365401190354" lon="9.246222548355687"><ele>108.25</ele><time>2026-04-11T08:03:25Z</time></trkpt><trkpt lat="45.43648507421716" lon="9.24607127122733"><ele>108.0</ele><time>2026-04-11T08:03:26Z</time></trkpt><trkpt lat="45.43642896762823" lon="9.245917151906465"><ele>108.0</ele><time>2026-04-11T08:03:27Z</time></trkpt><trkpt lat="45.43636532210165" lon="9.245751832573639"><ele>108.0</ele><time>2026-04-11T08:03:28Z</time></trkpt><trkpt lat="45.43629914263252" lon="9.24557692567051"><ele>108.0</ele><time>2026-04-11T08:03:29Z</time></trkpt><trkpt lat="45.43623041359255" lon="9.245398738485576"><ele>108.0</ele><time>2026-04-11T08:03:30Z</time></trkpt><trkpt lat="45.436160927076195" lon="9.245218244788969"><ele>108.0</ele><time>2026-04-11T08:03:31Z</time></trkpt><trkpt lat="45.436088841523464" lon="9.245039483337148"><ele>108.0</ele><time>2026-04-11T08:03:32Z</time></trkpt><trkpt lat="45.436018957531715" lon="9.2448631329541"><ele>108.0</ele><time>2026-04-11T08:03:33Z</time></trkpt><trkpt lat="45.43595590121218" lon="9.244695149560028"><ele>108.0</ele><time>2026-04-11T08:03:34Z</time></trkpt><trkpt lat="45.43589617204325" lon="9.244539639913656"><ele>107.80000000000001</ele><time>2026-04-11T08:03:35Z</time></trkpt><trkpt lat="45.435839978714405" lon="9.244399184966367"><ele>107.60000000000001</ele><time>2026-04-11T08:03:36Z</time></trkpt><trkpt lat="45.435790970089464" lon="9.244269420814424"><ele>107.39999999999999</ele><time>2026-04-11T08:03:37Z</time></trkpt><trkpt lat="45.435741114577" lon="9.244137522052986"><ele>107.19999999999999</ele><time>2026-04-11T08:03:38Z</time></trkpt><trkpt lat="45.435688798709" lon="9.243991745789927"><ele>107.0</ele><time>2026-04-11T08:03:39Z</time></trkpt><trkpt lat="45.43561915760916" lon="9.243845782482374"><ele>107.0</ele><time>2026-04-11T08:03:40Z</time></trkpt><trkpt lat="45.43555589008879" lon="9.243701066148846"><ele>107.0</ele><time>2026-04-11T08:03:41Z</time></trkpt><trkpt lat="45.43549284700888" lon="9.243546962327772"><ele>107.0</ele><time>2026-04-11T08:03:42Z</time></trkpt><trkpt lat="45.43544307506703" lon="9.243382711239082"><ele>107.0</ele><time>2026-04-11T08:03:43Z</time></trkpt><trkpt lat="45.43537518917286" lon="9.243213032186976"><ele>107.25</ele><time>2026-04-11T08:03:44Z</time></trkpt><trkpt lat="45.435311032877024" lon="9.243046264021602"><ele>107.5</ele><time>2026-04-11T08:03:45Z</time></trkpt><trkpt lat="45.435245930964655" lon="9.24288593020457"><ele>107.75</ele><time>2026-04-11T08:03:46Z</time></trkpt><trkpt lat="45.435188653217374" lon="9.24272934083953"><ele>108.0</ele><time>2026-04-11T08:03:47Z</time></trkpt><trkpt lat="45.435133216793034" lon="9.24259088905031"><ele>108.0</ele><time>2026-04-11T08:03:48Z</time></trkpt><trkpt lat="45.435084056522165" lon="9.242460838084622"><ele>108.00000000000001</ele><time>2026-04-11T08:03:49Z</time></trkpt><trkpt lat="45.435039840332905" lon="9.242340936474461"><ele>108.00000000000001</ele><time>2026-04-11T08:03:50Z</time></trkpt><trkpt lat="45.43500218182625" lon="9.242243361185915"><ele>108.0</ele><time>2026-04-11T08:03:51Z</time></trkpt><trkpt lat="45.43496784425984" lon="9.242154698879633"><ele>108.0</ele><time>2026-04-11T08:03:52Z</time></trkpt><trkpt lat="45.434911987170715" lon="9.242014203119666"><ele>108.0</ele><time>2026-04-11T08:03:54Z</time></trkpt><trkpt lat="45.434884465798405" lon="9.241927985590289"><ele>108.00000000000001</ele><time>2026-04-11T08:03:57Z</time></trkpt><trkpt lat="45.43481727197626" lon="9.241763207909592"><ele>108.00000000000001</ele><time>2026-04-11T08:04:16Z</time></trkpt><trkpt lat="45.43478057856145" lon="9.241649072998742"><ele>108.0</ele><time>2026-04-11T08:04:17Z</time></trkpt><trkpt lat="45.43473226837021" lon="9.241508135589601"><ele>108.0</ele><time>2026-04-11T08:04:18Z</time></trkpt><trkpt lat="45.434676857344236" lon="9.241362724861865"><ele>106.75</ele><time>2026-04-11T08:04:19Z</time></trkpt><trkpt lat="45.43461941064946" lon="9.241208804602985"><ele>105.5</ele><time>2026-04-11T08:04:20Z</time></trkpt><trkpt lat="45.434558204277266" lon="9.241052056172876"><ele>104.25</ele><time>2026-04-11T08:04:21Z</time></trkpt><trkpt lat="45.43448484965175" lon="9.240901749024333"><ele>103.0</ele><time>2026-04-11T08:04:22Z</time></trkpt><trkpt lat="45.434384488377404" lon="9.240786404495626"><ele>103.0</ele><time>2026-04-11T08:04:23Z</time></trkpt><trkpt lat="45.43425962359528" lon="9.240722660547055"><ele>103.0</ele><time>2026-04-11T08:04:24Z</time></trkpt><trkpt lat="45.43412547820724" lon="9.240674943035527"><ele>103.0</ele><time>2026-04-11T08:04:25Z</time></trkpt><trkpt lat="45.433989420557396" lon="9.24063376373089"><ele>103.0</ele><time>2026-04-11T08:04:26Z</time></trkpt><trkpt lat="45.43385173421039" lon="9.240586403960103"><ele>103.5</ele><time>2026-04-11T08:04:27Z</time></trkpt><trkpt lat="45.433714278786674" lon="9.2405366597036"><ele>104.0</ele><time>2026-04-11T08:04:28Z</time></trkpt><trkpt lat="45.43357605956388" lon="9.24048888735292"><ele>104.5</ele><time>2026-04-11T08:04:29Z</time></trkpt><trkpt lat="45.4334360403124" lon="9.240442124159905"><ele>105.0</ele><time>2026-04-11T08:04:30Z</time></trkpt><trkpt lat="45.43329730634943" lon="9.240394233621522"><ele>105.0</ele><time>2026-04-11T08:04:31Z</time></trkpt><trkpt lat="45.43316127630672" lon="9.240345473860183"><ele>105.0</ele><time>2026-04-11T08:04:32Z</time></trkpt><trkpt lat="45.43302884993962" lon="9.24029874747554"><ele>105.0</ele><time>2026-04-11T08:04:33Z</time></trkpt><trkpt lat="45.432937654024606" lon="9.240268097044135"><ele>105.0</ele><time>2026-04-11T08:04:34Z</time></trkpt><trkpt lat="45.43286913831064" lon="9.240243189861078"><ele>105.0</ele><time>2026-04-11T08:04:36Z</time></trkpt><trkpt lat="45.43277866258661" lon="9.240211788447963"><ele>105.4</ele><time>2026-04-11T08:04:42Z</time></trkpt><trkpt lat="45.43265004917681" lon="9.2401571297805"><ele>105.8</ele><time>2026-04-11T08:04:44Z</time></trkpt><trkpt lat="45.43258608865105" lon="9.24017293648789"><ele>106.19999999999999</ele><time>2026-04-11T08:04:45Z</time></trkpt><trkpt lat="45.432493420200906" lon="9.240288375010035"><ele>106.6</ele><time>2026-04-11T08:04:47Z</time></trkpt><trkpt lat="45.43244690999576" lon="9.240377449824456"><ele>107.0</ele><time>2026-04-11T08:04:48Z</time></trkpt><trkpt lat="45.43240906400051" lon="9.240483105906767"><ele>106.99999999999999</ele><time>2026-04-11T08:04:49Z</time></trkpt><trkpt lat="45.43238106023924" lon="9.240594114097648"><ele>107.0</ele><time>2026-04-11T08:04:50Z</time></trkpt><trkpt lat="45.43236108993445" lon="9.240706982773755"><ele>107.0</ele><time>2026-04-11T08:04:51Z</time></trkpt><trkpt lat="45.43234531717402" lon="9.240822782741102"><ele>107.0</ele><time>2026-04-11T08:04:52Z</time></trkpt><trkpt lat="45.43232059949946" lon="9.240937596551047"><ele>106.99999999999999</ele><time>2026-04-11T08:04:53Z</time></trkpt><trkpt lat="45.432281860472344" lon="9.241045316274137"><ele>107.0</ele><time>2026-04-11T08:04:54Z</time></trkpt><trkpt lat="45.43223005823839" lon="9.2411457232405"><ele>106.8</ele><time>2026-04-11T08:04:55Z</time></trkpt><trkpt lat="45.43218270093531" lon="9.241248493419398"><ele>106.6</ele><time>2026-04-11T08:04:56Z</time></trkpt><trkpt lat="45.432131812139644" lon="9.24135777346736"><ele>106.39999999999999</ele><time>2026-04-11T08:04:57Z</time></trkpt><trkpt lat="45.432078132612716" lon="9.241473126444465"><ele>106.19999999999999</ele><time>2026-04-11T08:04:58Z</time></trkpt><trkpt lat="45.43202031033449" lon="9.24159243510603"><ele>106.0</ele><time>2026-04-11T08:04:59Z</time></trkpt><trkpt lat="45.43196262353352" lon="9.24171656269946"><ele>106.4</ele><time>2026-04-11T08:05:00Z</time></trkpt><trkpt lat="45.43190479344313" lon="9.24184419969112"><ele>106.8</ele><time>2026-04-11T08:05:01Z</time></trkpt><trkpt lat="45.431845680357085" lon="9.24197106019866"><ele>107.20000000000002</ele><time>2026-04-11T08:05:02Z</time></trkpt><trkpt lat="45.431784549310386" lon="9.242094399586938"><ele>107.60000000000001</ele><time>2026-04-11T08:05:02.999Z</time></trkpt><trkpt lat="45.43172372702896" lon="9.242220002208521"><ele>108.0</ele><time>2026-04-11T08:05:03.999Z</time></trkpt><trkpt lat="45.431667058222295" lon="9.242339981996013"><ele>108.0</ele><time>2026-04-11T08:05:04.999Z</time></trkpt><trkpt lat="45.431614340721296" lon="9.24245668537653"><ele>108.00000000000001</ele><time>2026-04-11T08:05:05.999Z</time></trkpt><trkpt lat="45.43156256786523" lon="9.242570320059274"><ele>108.00000000000001</ele><time>2026-04-11T08:05:06.999Z</time></trkpt><trkpt lat="45.43150686109545" lon="9.242690043423709"><ele>108.0</ele><time>2026-04-11T08:05:07.999Z</time></trkpt><trkpt lat="45.431454472684926" lon="9.242810218375183"><ele>108.0</ele><time>2026-04-11T08:05:08.999Z</time></trkpt><trkpt lat="45.431404070609744" lon="9.242936618606048"><ele>108.0</ele><time>2026-04-11T08:05:09.999Z</time></trkpt><trkpt lat="45.43135100456729" lon="9.24306323766619"><ele>108.00000000000001</ele><time>2026-04-11T08:05:10.999Z</time></trkpt><trkpt lat="45.43128212834882" lon="9.243171075534404"><ele>108.00000000000001</ele><time>2026-04-11T08:05:11.999Z</time></trkpt><trkpt lat="45.43124139719183" lon="9.243297513692342"><ele>108.0</ele><time>2026-04-11T08:05:12.999Z</time></trkpt><trkpt lat="45.43117413815953" lon="9.243396492514163"><ele>108.0</ele><time>2026-04-11T08:05:13.999Z</time></trkpt><trkpt lat="45.4311204749402" lon="9.243509151408897"><ele>108.5</ele><time>2026-04-11T08:05:14.999Z</time></trkpt><trkpt lat="45.431065118817884" lon="9.243625364130667"><ele>109.0</ele><time>2026-04-11T08:05:15.999Z</time></trkpt><trkpt lat="45.43101171001542" lon="9.243737488977693"><ele>109.5</ele><time>2026-04-11T08:05:16.999Z</time></trkpt><trkpt lat="45.430962708502484" lon="9.243840361209891"><ele>110.0</ele><time>2026-04-11T08:05:17.999Z</time></trkpt><trkpt lat="45.43091706790136" lon="9.24393617761166"><ele>110.5</ele><time>2026-04-11T08:05:18.999Z</time></trkpt><trkpt lat="45.430874492778145" lon="9.244025558399576"><ele>111.0</ele><time>2026-04-11T08:05:19.999Z</time></trkpt><trkpt lat="45.430836484005084" lon="9.244105349720131"><ele>111.16666666666667</ele><time>2026-04-11T08:05:20.999Z</time></trkpt><trkpt lat="45.43076918926383" lon="9.24424840449949"><ele>111.33333333333334</ele><time>2026-04-11T08:05:22.999Z</time></trkpt><trkpt lat="45.43073206535383" lon="9.244326576201455"><ele>111.5</ele><time>2026-04-11T08:05:23.999Z</time></trkpt><trkpt lat="45.430693902005075" lon="9.24440693655218"><ele>111.66666666666667</ele><time>2026-04-11T08:05:24.999Z</time></trkpt><trkpt lat="45.430653255817724" lon="9.244492525041254"><ele>111.83333333333334</ele><time>2026-04-11T08:05:25.999Z</time></trkpt><trkpt lat="45.430609664806816" lon="9.244584314414858"><ele>112.0</ele><time>2026-04-11T08:05:26.999Z</time></trkpt><trkpt lat="45.43056277588008" lon="9.244682764643644"><ele>112.0</ele><time>2026-04-11T08:05:27.999Z</time></trkpt><trkpt lat="45.43051183705415" lon="9.244789646423156"><ele>111.99999999999999</ele><time>2026-04-11T08:05:28.999Z</time></trkpt><trkpt lat="45.43045960040576" lon="9.24489925133388"><ele>111.99999999999999</ele><time>2026-04-11T08:05:29.999Z</time></trkpt><trkpt lat="45.430405130258585" lon="9.245013561156096"><ele>112.0</ele><time>2026-04-11T08:05:30.999Z</time></trkpt><trkpt lat="45.43034912464495" lon="9.24513119775575"><ele>112.0</ele><time>2026-04-11T08:05:31.999Z</time></trkpt><trkpt lat="45.43029074002601" lon="9.245253267639079"><ele>111.39999999999999</ele><time>2026-04-11T08:05:32.999Z</time></trkpt><trkpt lat="45.43024048553696" lon="9.245385637327573"><ele>110.79999999999998</ele><time>2026-04-11T08:05:33.999Z</time></trkpt><trkpt lat="45.43017715315631" lon="9.245505386615841"><ele>110.2</ele><time>2026-04-11T08:05:34.999Z</time></trkpt><trkpt lat="45.4301153042098" lon="9.245628421215171"><ele>109.6</ele><time>2026-04-11T08:05:35.999Z</time></trkpt><trkpt lat="45.43005786850257" lon="9.2457471695023"><ele>109.0</ele><time>2026-04-11T08:05:36.999Z</time></trkpt><trkpt lat="45.43000376089032" lon="9.245855893819167"><ele>108.83333333333334</ele><time>2026-04-11T08:05:37.999Z</time></trkpt><trkpt lat="45.429951349117935" lon="9.245955753118096"><ele>108.66666666666667</ele><time>2026-04-11T08:05:38.999Z</time></trkpt><trkpt lat="45.42989337779009" lon="9.24603262257042"><ele>108.5</ele><time>2026-04-11T08:05:39.999Z</time></trkpt><trkpt lat="45.429823894851" lon="9.246078942313417"><ele>108.33333333333334</ele><time>2026-04-11T08:05:40.999Z</time></trkpt><trkpt lat="45.42973957999716" lon="9.246093314369249"><ele>108.16666666666667</ele><time>2026-04-11T08:05:41.999Z</time></trkpt><trkpt lat="45.42965819396953" lon="9.246028160611969"><ele>108.0</ele><time>2026-04-11T08:05:42.999Z</time></trkpt><trkpt lat="45.429613103579136" lon="9.24591269608841"><ele>108.0</ele><time>2026-04-11T08:05:43.999Z</time></trkpt><trkpt lat="45.429603349761685" lon="9.245773376325863"><ele>108.00000000000001</ele><time>2026-04-11T08:05:44.999Z</time></trkpt><trkpt lat="45.429587595456866" lon="9.24563030207777"><ele>108.00000000000001</ele><time>2026-04-11T08:05:45.999Z</time></trkpt><trkpt lat="45.429531871514946" lon="9.245494828490356"><ele>108.0</ele><time>2026-04-11T08:05:46.999Z</time></trkpt><trkpt lat="45.429466059890025" lon="9.245384811570213"><ele>108.0</ele><time>2026-04-11T08:05:47.999Z</time></trkpt><trkpt lat="45.42940559654732" lon="9.245290017310259"><ele>108.2</ele><time>2026-04-11T08:05:48.999Z</time></trkpt><trkpt lat="45.42936975120319" lon="9.245179681554069"><ele>108.4</ele><time>2026-04-11T08:05:49.999Z</time></trkpt><trkpt lat="45.42936858071132" lon="9.24504203521205"><ele>108.60000000000001</ele><time>2026-04-11T08:05:50.999Z</time></trkpt><trkpt lat="45.42939117870904" lon="9.2448940349926"><ele>108.80000000000001</ele><time>2026-04-11T08:05:51.999Z</time></trkpt><trkpt lat="45.42944301865989" lon="9.244764818848138"><ele>109.0</ele><time>2026-04-11T08:05:52.999Z</time></trkpt><trkpt lat="45.42953271950155" lon="9.244663473224593"><ele>109.0</ele><time>2026-04-11T08:05:53.999Z</time></trkpt><trkpt lat="45.42963589634749" lon="9.244580762434497"><ele>109.0</ele><time>2026-04-11T08:05:54.999Z</time></trkpt><trkpt lat="45.42974064890499" lon="9.244513737428168"><ele>109.0</ele><time>2026-04-11T08:05:55.999Z</time></trkpt><trkpt lat="45.42983693103612" lon="9.24443346166046"><ele>109.0</ele><time>2026-04-11T08:05:56.999Z</time></trkpt><trkpt lat="45.429932538202834" lon="9.244347491435722"><ele>109.0</ele><time>2026-04-11T08:05:57.999Z</time></trkpt><trkpt lat="45.43002190672452" lon="9.244247205212885"><ele>109.0</ele><time>2026-04-11T08:05:58.999Z</time></trkpt><trkpt lat="45.43010921577907" lon="9.24413739238486"><ele>109.0</ele><time>2026-04-11T08:05:59.999Z</time></trkpt><trkpt lat="45.43019248365336" lon="9.244009481991077"><ele>109.0</ele><time>2026-04-11T08:06:00.999Z</time></trkpt><trkpt lat="45.430268504568176" lon="9.243864553633303"><ele>108.75</ele><time>2026-04-11T08:06:01.999Z</time></trkpt><trkpt lat="45.43034163327728" lon="9.243708615125081"><ele>108.5</ele><time>2026-04-11T08:06:02.999Z</time></trkpt><trkpt lat="45.430413614927694" lon="9.243544757407292"><ele>108.25</ele><time>2026-04-11T08:06:03.999Z</time></trkpt><trkpt lat="45.43048958179012" lon="9.243381947784844"><ele>108.0</ele><time>2026-04-11T08:06:04.999Z</time></trkpt><trkpt lat="45.43057033319314" lon="9.243218893147352"><ele>108.0</ele><time>2026-04-11T08:06:05.999Z</time></trkpt><trkpt lat="45.430648330714675" lon="9.243059398328693"><ele>108.0</ele><time>2026-04-11T08:06:06.999Z</time></trkpt><trkpt lat="45.43072518208715" lon="9.242900903779889"><ele>108.0</ele><time>2026-04-11T08:06:07.999Z</time></trkpt><trkpt lat="45.43079859007626" lon="9.242738977525425"><ele>108.0</ele><time>2026-04-11T08:06:08.999Z</time></trkpt><trkpt lat="45.4308683350279" lon="9.24257619025411"><ele>108.0</ele><time>2026-04-11T08:06:09.999Z</time></trkpt><trkpt lat="45.430935076495025" lon="9.242408936771913"><ele>108.0</ele><time>2026-04-11T08:06:10.999Z</time></trkpt><trkpt lat="45.43099515636497" lon="9.242235638518123"><ele>108.0</ele><time>2026-04-11T08:06:11.999Z</time></trkpt><trkpt lat="45.431048904799425" lon="9.242058000904782"><ele>108.0</ele><time>2026-04-11T08:06:12.999Z</time></trkpt><trkpt lat="45.43109679647699" lon="9.241877455959305"><ele>108.5</ele><time>2026-04-11T08:06:13.999Z</time></trkpt><trkpt lat="45.43113196881654" lon="9.241691483811161"><ele>109.0</ele><time>2026-04-11T08:06:14.999Z</time></trkpt><trkpt lat="45.4311641731708" lon="9.241505027955753"><ele>109.5</ele><time>2026-04-11T08:06:15.999Z</time></trkpt><trkpt lat="45.4311945550518" lon="9.241319340420535"><ele>110.0</ele><time>2026-04-11T08:06:16.999Z</time></trkpt><trkpt lat="45.431223473476486" lon="9.241132189077502"><ele>110.0</ele><time>2026-04-11T08:06:17.999Z</time></trkpt><trkpt lat="45.43125049915028" lon="9.240943945492152"><ele>110.0</ele><time>2026-04-11T08:06:18.999Z</time></trkpt><trkpt lat="45.43127752867759" lon="9.240753420150305"><ele>110.0</ele><time>2026-04-11T08:06:19.999Z</time></trkpt><trkpt lat="45.43130531874991" lon="9.240566622467838"><ele>110.0</ele><time>2026-04-11T08:06:21Z</time></trkpt><trkpt lat="45.43133731365235" lon="9.240380539140148"><ele>109.75</ele><time>2026-04-11T08:06:22Z</time></trkpt><trkpt lat="45.43137203323607" lon="9.240192882724518"><ele>109.5</ele><time>2026-04-11T08:06:23Z</time></trkpt><trkpt lat="45.43140943261452" lon="9.240007051722412"><ele>109.25</ele><time>2026-04-11T08:06:24Z</time></trkpt><trkpt lat="45.43144673104883" lon="9.239823422049193"><ele>109.0</ele><time>2026-04-11T08:06:25Z</time></trkpt><trkpt lat="45.431485208388914" lon="9.23963830910819"><ele>109.5</ele><time>2026-04-11T08:06:26Z</time></trkpt><trkpt lat="45.43152358931313" lon="9.239453794774853"><ele>110.0</ele><time>2026-04-11T08:06:27Z</time></trkpt><trkpt lat="45.43156806743606" lon="9.239272022292832"><ele>110.5</ele><time>2026-04-11T08:06:28Z</time></trkpt><trkpt lat="45.431622450965584" lon="9.239091891489862"><ele>111.0</ele><time>2026-04-11T08:06:29Z</time></trkpt><trkpt lat="45.4316855957697" lon="9.238910708419342"><ele>111.0</ele><time>2026-04-11T08:06:30Z</time></trkpt><trkpt lat="45.43176892658628" lon="9.238704160863763"><ele>111.0</ele><time>2026-04-11T08:06:31Z</time></trkpt><trkpt lat="45.43188208674751" lon="9.238482015233407"><ele>111.0</ele><time>2026-04-11T08:06:32Z</time></trkpt><trkpt lat="45.432020104623334" lon="9.238261038480662"><ele>110.66666666666666</ele><time>2026-04-11T08:06:33Z</time></trkpt><trkpt lat="45.43217044990016" lon="9.238055159197451"><ele>110.33333333333333</ele><time>2026-04-11T08:06:34Z</time></trkpt><trkpt lat="45.432328451973326" lon="9.237875816099008"><ele>110.0</ele><time>2026-04-11T08:06:35Z</time></trkpt><trkpt lat="45.43250002115779" lon="9.237737530150847"><ele>110.0</ele><time>2026-04-11T08:06:36Z</time></trkpt><trkpt lat="45.43266029737949" lon="9.237578932815644"><ele>110.0</ele><time>2026-04-11T08:06:37Z</time></trkpt><trkpt lat="45.43282421660376" lon="9.237449334401076"><ele>110.0</ele><time>2026-04-11T08:06:38Z</time></trkpt><trkpt lat="45.4329786940746" lon="9.23731943240851"><ele>110.0</ele><time>2026-04-11T08:06:39Z</time></trkpt><trkpt lat="45.433118965365026" lon="9.2371986040022"><ele>110.0</ele><time>2026-04-11T08:06:40Z</time></trkpt><trkpt lat="45.43324760357625" lon="9.237087981352738"><ele>110.0</ele><time>2026-04-11T08:06:41Z</time></trkpt><trkpt lat="45.43336951199573" lon="9.236980616363304"><ele>110.0</ele><time>2026-04-11T08:06:42Z</time></trkpt><trkpt lat="45.4334849124743" lon="9.23687743535581"><ele>110.0</ele><time>2026-04-11T08:06:43Z</time></trkpt><trkpt lat="45.43360257630713" lon="9.236797677319434"><ele>110.0</ele><time>2026-04-11T08:06:44Z</time></trkpt><trkpt lat="45.433703769894656" lon="9.236677605618594"><ele>110.0</ele><time>2026-04-11T08:06:45Z</time></trkpt><trkpt lat="45.433817799682785" lon="9.236579913850079"><ele>110.0</ele><time>2026-04-11T08:06:46Z</time></trkpt><trkpt lat="45.433935246009945" lon="9.236480803388202"><ele>110.0</ele><time>2026-04-11T08:06:47Z</time></trkpt><trkpt lat="45.43405574548987" lon="9.236384711190338"><ele>110.0</ele><time>2026-04-11T08:06:48Z</time></trkpt><trkpt lat="45.434172147809406" lon="9.236296932983777"><ele>110.0</ele><time>2026-04-11T08:06:49Z</time></trkpt><trkpt lat="45.43428952302372" lon="9.236234749183165"><ele>110.0</ele><time>2026-04-11T08:06:50Z</time></trkpt><trkpt lat="45.43439439486981" lon="9.236166480737568"><ele>110.0</ele><time>2026-04-11T08:06:51Z</time></trkpt><trkpt lat="45.43448999414628" lon="9.236106370980572"><ele>110.0</ele><time>2026-04-11T08:06:52Z</time></trkpt><trkpt lat="45.43458445075803" lon="9.236015923918679"><ele>110.0</ele><time>2026-04-11T08:06:53Z</time></trkpt><trkpt lat="45.434648138241286" lon="9.235903414326161"><ele>110.0</ele><time>2026-04-11T08:06:54Z</time></trkpt><trkpt lat="45.43469895609518" lon="9.235789269012097"><ele>109.83333333333333</ele><time>2026-04-11T08:06:55Z</time></trkpt><trkpt lat="45.43474607220088" lon="9.235684806578254"><ele>109.66666666666666</ele><time>2026-04-11T08:06:56Z</time></trkpt><trkpt lat="45.43479108571284" lon="9.235590399895118"><ele>109.5</ele><time>2026-04-11T08:06:57Z</time></trkpt><trkpt lat="45.43483385903238" lon="9.235500829630938"><ele>109.33333333333334</ele><time>2026-04-11T08:06:58Z</time></trkpt><trkpt lat="45.43484582903504" lon="9.235388846686025"><ele>109.16666666666667</ele><time>2026-04-11T08:06:59Z</time></trkpt><trkpt lat="45.43488811679241" lon="9.235305960697326"><ele>109.0</ele><time>2026-04-11T08:07:00Z</time></trkpt><trkpt lat="45.434934597519174" lon="9.235223518934403"><ele>109.0</ele><time>2026-04-11T08:07:01Z</time></trkpt><trkpt lat="45.434986230799055" lon="9.235127526582042"><ele>109.0</ele><time>2026-04-11T08:07:02Z</time></trkpt><trkpt lat="45.43504098420133" lon="9.235009485382113"><ele>109.0</ele><time>2026-04-11T08:07:03Z</time></trkpt><trkpt lat="45.435100930277606" lon="9.234879425671064"><ele>109.0</ele><time>2026-04-11T08:07:04Z</time></trkpt><trkpt lat="45.4351633389784" lon="9.234737339646655"><ele>109.0</ele><time>2026-04-11T08:07:05Z</time></trkpt><trkpt lat="45.43523131606373" lon="9.234584981698562"><ele>108.75</ele><time>2026-04-11T08:07:06Z</time></trkpt><trkpt lat="45.4352996897083" lon="9.234431540028973"><ele>108.5</ele><time>2026-04-11T08:07:07Z</time></trkpt><trkpt lat="45.435366878287056" lon="9.234275373632135"><ele>108.25</ele><time>2026-04-11T08:07:08Z</time></trkpt><trkpt lat="45.435433077531094" lon="9.234125354053594"><ele>108.0</ele><time>2026-04-11T08:07:09Z</time></trkpt><trkpt lat="45.43550032097526" lon="9.233978692797644"><ele>108.0</ele><time>2026-04-11T08:07:10Z</time></trkpt><trkpt lat="45.435564993905096" lon="9.233834450205114"><ele>108.0</ele><time>2026-04-11T08:07:10.999Z</time></trkpt><trkpt lat="45.43562884133931" lon="9.23368453460027"><ele>108.0</ele><time>2026-04-11T08:07:11.999Z</time></trkpt><trkpt lat="45.435693203931784" lon="9.233537880646873"><ele>108.0</ele><time>2026-04-11T08:07:12.999Z</time></trkpt><trkpt lat="45.43575861230115" lon="9.233396330315847"><ele>108.0</ele><time>2026-04-11T08:07:13.999Z</time></trkpt><trkpt lat="45.43583410733231" lon="9.233235445351585"><ele>108.0</ele><time>2026-04-11T08:07:14.999Z</time></trkpt><trkpt lat="45.435920097350376" lon="9.233053588287586"><ele>108.0</ele><time>2026-04-11T08:07:15.999Z</time></trkpt><trkpt lat="45.436015996352744" lon="9.232861362213429"><ele>109.0</ele><time>2026-04-11T08:07:16.999Z</time></trkpt><trkpt lat="45.436115652222476" lon="9.232659230379534"><ele>110.0</ele><time>2026-04-11T08:07:17.999Z</time></trkpt><trkpt lat="45.436214329879" lon="9.232453325404848"><ele>111.0</ele><time>2026-04-11T08:07:19Z</time></trkpt><trkpt lat="45.436311997364115" lon="9.232240235909739"><ele>111.0</ele><time>2026-04-11T08:07:20Z</time></trkpt><trkpt lat="45.4363998621779" lon="9.232043948743259"><ele>111.0</ele><time>2026-04-11T08:07:21Z</time></trkpt><trkpt lat="45.436480541903954" lon="9.231859667161148"><ele>111.0</ele><time>2026-04-11T08:07:22Z</time></trkpt><trkpt lat="45.436555363565404" lon="9.231685006766433"><ele>111.0</ele><time>2026-04-11T08:07:23Z</time></trkpt><trkpt lat="45.436622721564355" lon="9.231511580453576"><ele>111.0</ele><time>2026-04-11T08:07:24Z</time></trkpt><trkpt lat="45.43668520229058" lon="9.231322751804095"><ele>111.0</ele><time>2026-04-11T08:07:25Z</time></trkpt><trkpt lat="45.436762548055675" lon="9.231092238240652"><ele>110.66666666666666</ele><time>2026-04-11T08:07:26Z</time></trkpt><trkpt lat="45.43685390799114" lon="9.230872428437575"><ele>110.33333333333333</ele><time>2026-04-11T08:07:27Z</time></trkpt><trkpt lat="45.43694169373605" lon="9.230689690433907"><ele>110.0</ele><time>2026-04-11T08:07:28Z</time></trkpt><trkpt lat="45.43702430424038" lon="9.230516737750945"><ele>110.0</ele><time>2026-04-11T08:07:29Z</time></trkpt><trkpt lat="45.43711935218097" lon="9.230319698314043"><ele>110.0</ele><time>2026-04-11T08:07:30Z</time></trkpt><trkpt lat="45.43723398567245" lon="9.230104496273185"><ele>110.0</ele><time>2026-04-11T08:07:31Z</time></trkpt><trkpt lat="45.43734282568053" lon="9.229870546320932"><ele>110.66666666666666</ele><time>2026-04-11T08:07:32Z</time></trkpt><trkpt lat="45.43744059945524" lon="9.229646652460483"><ele>111.33333333333334</ele><time>2026-04-11T08:07:33Z</time></trkpt><trkpt lat="45.437529550714785" lon="9.229446287351387"><ele>112.0</ele><time>2026-04-11T08:07:34Z</time></trkpt><trkpt lat="45.437613492084054" lon="9.22926343475258"><ele>112.0</ele><time>2026-04-11T08:07:35Z</time></trkpt><trkpt lat="45.43769580005936" lon="9.22908173669837"><ele>112.0</ele><time>2026-04-11T08:07:36Z</time></trkpt><trkpt lat="45.43777854032402" lon="9.228899004533266"><ele>112.0</ele><time>2026-04-11T08:07:37Z</time></trkpt><trkpt lat="45.43785511154869" lon="9.228722013830012"><ele>112.5</ele><time>2026-04-11T08:07:38Z</time></trkpt><trkpt lat="45.4379256995111" lon="9.228561468615684"><ele>113.0</ele><time>2026-04-11T08:07:39Z</time></trkpt><trkpt lat="45.437994948269676" lon="9.228405949802461"><ele>113.5</ele><time>2026-04-11T08:07:40Z</time></trkpt><trkpt lat="45.4380639824692" lon="9.228254741312943"><ele>114.0</ele><time>2026-04-11T08:07:41Z</time></trkpt><trkpt lat="45.43813196732736" lon="9.228112662685666"><ele>114.2</ele><time>2026-04-11T08:07:42Z</time></trkpt><trkpt lat="45.43819763060151" lon="9.227981423035622"><ele>114.4</ele><time>2026-04-11T08:07:43Z</time></trkpt><trkpt lat="45.43826137035596" lon="9.227855296644728"><ele>114.6</ele><time>2026-04-11T08:07:44Z</time></trkpt><trkpt lat="45.438325674309716" lon="9.227734747746624"><ele>114.8</ele><time>2026-04-11T08:07:45Z</time></trkpt><trkpt lat="45.43838756639951" lon="9.227616930278566"><ele>115.0</ele><time>2026-04-11T08:07:46Z</time></trkpt><trkpt lat="45.43844807925456" lon="9.227500157390917"><ele>115.0</ele><time>2026-04-11T08:07:47Z</time></trkpt><trkpt lat="45.43851670154295" lon="9.227373418052167"><ele>115.0</ele><time>2026-04-11T08:07:48Z</time></trkpt><trkpt lat="45.43859604816603" lon="9.22723310122605"><ele>115.0</ele><time>2026-04-11T08:07:49Z</time></trkpt><trkpt lat="45.43867361843139" lon="9.227080553851268"><ele>115.0</ele><time>2026-04-11T08:07:50Z</time></trkpt><trkpt lat="45.43874211185789" lon="9.226935238950666"><ele>115.2</ele><time>2026-04-11T08:07:51Z</time></trkpt><trkpt lat="45.438800870461236" lon="9.22680706593133"><ele>115.4</ele><time>2026-04-11T08:07:52Z</time></trkpt><trkpt lat="45.4388675507022" lon="9.226702665598083"><ele>115.6</ele><time>2026-04-11T08:07:53Z</time></trkpt><trkpt lat="45.43894283874525" lon="9.226581273802942"><ele>115.8</ele><time>2026-04-11T08:07:54Z</time></trkpt><trkpt lat="45.43901148594564" lon="9.226440190628013"><ele>116.0</ele><time>2026-04-11T08:07:55Z</time></trkpt><trkpt lat="45.43905386457492" lon="9.226343118347408"><ele>116.19999999999999</ele><time>2026-04-11T08:07:56Z</time></trkpt><trkpt lat="45.43909658935413" lon="9.226257810019579"><ele>116.39999999999999</ele><time>2026-04-11T08:07:58Z</time></trkpt><trkpt lat="45.439137059790276" lon="9.226138767487232"><ele>116.6</ele><time>2026-04-11T08:08:00Z</time></trkpt><trkpt lat="45.439189216204085" lon="9.226020943491193"><ele>116.8</ele><time>2026-04-11T08:08:01Z</time></trkpt><trkpt lat="45.43925574999232" lon="9.225902895658175"><ele>117.0</ele><time>2026-04-11T08:08:02Z</time></trkpt><trkpt lat="45.43932367094952" lon="9.225761973471762"><ele>116.6</ele><time>2026-04-11T08:08:03Z</time></trkpt><trkpt lat="45.4393893798874" lon="9.225626164936836"><ele>116.19999999999999</ele><time>2026-04-11T08:08:04Z</time></trkpt><trkpt lat="45.439447066674575" lon="9.225509314139838"><ele>115.8</ele><time>2026-04-11T08:08:05Z</time></trkpt><trkpt lat="45.43949834625494" lon="9.225401086849269"><ele>115.4</ele><time>2026-04-11T08:08:06Z</time></trkpt><trkpt lat="45.43954654031489" lon="9.225304582544757"><ele>115.0</ele><time>2026-04-11T08:08:07Z</time></trkpt><trkpt lat="45.43958884007293" lon="9.225215350206525"><ele>115.00000000000001</ele><time>2026-04-11T08:08:08Z</time></trkpt><trkpt lat="45.439629846452426" lon="9.22513176966461"><ele>115.0</ele><time>2026-04-11T08:08:09Z</time></trkpt><trkpt lat="45.439665986004385" lon="9.225057613108923"><ele>115.0</ele><time>2026-04-11T08:08:10Z</time></trkpt><trkpt lat="45.43970310741074" lon="9.224962162107714"><ele>115.0</ele><time>2026-04-11T08:08:12Z</time></trkpt><trkpt lat="45.439754805210576" lon="9.22486782511071"><ele>115.00000000000001</ele><time>2026-04-11T08:08:15Z</time></trkpt><trkpt lat="45.43981818002933" lon="9.224775482951305"><ele>115.0</ele><time>2026-04-11T08:08:17Z</time></trkpt><trkpt lat="45.43987830186453" lon="9.224735150515967"><ele>115.00000000000001</ele><time>2026-04-11T08:08:18Z</time></trkpt><trkpt lat="45.43995091437611" lon="9.224707430005164"><ele>115.0</ele><time>2026-04-11T08:08:19Z</time></trkpt><trkpt lat="45.44002187956251" lon="9.224688433036679"><ele>115.0</ele><time>2026-04-11T08:08:20Z</time></trkpt><trkpt lat="45.440098204039536" lon="9.224658034643404"><ele>115.0</ele><time>2026-04-11T08:08:21Z</time></trkpt><trkpt lat="45.44017489841475" lon="9.224597420903315"><ele>115.00000000000001</ele><time>2026-04-11T08:08:22Z</time></trkpt><trkpt lat="45.440226275457995" lon="9.224507592575893"><ele>115.0</ele><time>2026-04-11T08:08:23Z</time></trkpt><trkpt lat="45.440262065656974" lon="9.224419014442622"><ele>115.00000000000001</ele><time>2026-04-11T08:08:24Z</time></trkpt><trkpt lat="45.44028718389575" lon="9.224334870625505"><ele>115.0</ele><time>2026-04-11T08:08:25Z</time></trkpt><trkpt lat="45.440259438740945" lon="9.224179421088163"><ele>115.0</ele><time>2026-04-11T08:08:27Z</time></trkpt><trkpt lat="45.44018084222361" lon="9.224059484402211"><ele>115.0</ele><time>2026-04-11T08:08:29Z</time></trkpt><trkpt lat="45.4401304336556" lon="9.22412204204081"><ele>115.00000000000001</ele><time>2026-04-11T08:08:30Z</time></trkpt><trkpt lat="45.44005619104897" lon="9.22411902927599"><ele>115.0</ele><time>2026-04-11T08:08:32Z</time></trkpt><trkpt lat="45.44001220625" lon="9.223991238540368"><ele>115.0</ele><time>2026-04-11T08:08:35Z</time></trkpt><trkpt lat="45.43996124345101" lon="9.22411650999472"><ele>115.0</ele><time>2026-04-11T08:08:36Z</time></trkpt><trkpt lat="45.43997208205481" lon="9.223962591857973"><ele>115.0</ele><time>2026-04-11T08:08:55Z</time></trkpt><trkpt lat="45.43986886281388" lon="9.224109374587362"><ele>115.0</ele><time>2026-04-11T08:08:56Z</time></trkpt><trkpt lat="45.43980042384" lon="9.224114597055895"><ele>115.0</ele><time>2026-04-11T08:08:57Z</time></trkpt><trkpt lat="45.439724664534616" lon="9.224119753189804"><ele>115.0</ele><time>2026-04-11T08:08:58Z</time></trkpt><trkpt lat="45.43964019195352" lon="9.224127120977649"><ele>115.0</ele><time>2026-04-11T08:08:59Z</time></trkpt><trkpt lat="45.439545847578536" lon="9.22413578056289"><ele>115.0</ele><time>2026-04-11T08:09:00Z</time></trkpt><trkpt lat="45.4394577770995" lon="9.224189584191924"><ele>115.0</ele><time>2026-04-11T08:09:01Z</time></trkpt><trkpt lat="45.43935332858747" lon="9.224154383005633"><ele>115.0</ele><time>2026-04-11T08:09:02Z</time></trkpt><trkpt lat="45.43925456240213" lon="9.224165211685722"><ele>114.75</ele><time>2026-04-11T08:09:03Z</time></trkpt><trkpt lat="45.43913913358848" lon="9.224162557208384"><ele>114.5</ele><time>2026-04-11T08:09:04Z</time></trkpt><trkpt lat="45.43901881913027" lon="9.224163745078483"><ele>114.25</ele><time>2026-04-11T08:09:05Z</time></trkpt><trkpt lat="45.438898361724355" lon="9.224170810409243"><ele>114.0</ele><time>2026-04-11T08:09:06Z</time></trkpt><trkpt lat="45.43877158313619" lon="9.224189464787171"><ele>114.0</ele><time>2026-04-11T08:09:07Z</time></trkpt><trkpt lat="45.438636220383174" lon="9.224201481963325"><ele>114.0</ele><time>2026-04-11T08:09:08Z</time></trkpt><trkpt lat="45.43850930862701" lon="9.22419602949249"><ele>114.0</ele><time>2026-04-11T08:09:09.001Z</time></trkpt><trkpt lat="45.43839335295329" lon="9.22418899441063"><ele>114.0</ele><time>2026-04-11T08:09:10.001Z</time></trkpt><trkpt lat="45.438285336065185" lon="9.224187957510614"><ele>114.0</ele><time>2026-04-11T08:09:11.001Z</time></trkpt><trkpt lat="45.43818727099021" lon="9.224183575087688"><ele>114.0</ele><time>2026-04-11T08:09:12.001Z</time></trkpt><trkpt lat="45.43810084879176" lon="9.224164879574074"><ele>114.0</ele><time>2026-04-11T08:09:13.001Z</time></trkpt><trkpt lat="45.43803228892976" lon="9.224181668139114"><ele>114.0</ele><time>2026-04-11T08:09:14.001Z</time></trkpt><trkpt lat="45.437990233995585" lon="9.223990233614883"><ele>114.0</ele><time>2026-04-11T08:09:15.001Z</time></trkpt><trkpt lat="45.43795841623955" lon="9.223857792621091"><ele>114.0</ele><time>2026-04-11T08:09:16.001Z</time></trkpt><trkpt lat="45.437902633606924" lon="9.223730088721268"><ele>114.0</ele><time>2026-04-11T08:09:17Z</time></trkpt><trkpt lat="45.437824900804074" lon="9.22361875414226"><ele>114.0</ele><time>2026-04-11T08:09:18.001Z</time></trkpt><trkpt lat="45.437733357761694" lon="9.223526185736635"><ele>114.0</ele><time>2026-04-11T08:09:19.001Z</time></trkpt><trkpt lat="45.43763302604934" lon="9.223468260246003"><ele>114.0</ele><time>2026-04-11T08:09:20.001Z</time></trkpt><trkpt lat="45.43752274999502" lon="9.223450390937847"><ele>114.0</ele><time>2026-04-11T08:09:21.001Z</time></trkpt><trkpt lat="45.437417871537946" lon="9.223472666521216"><ele>114.0</ele><time>2026-04-11T08:09:22.001Z</time></trkpt><trkpt lat="45.43732733292943" lon="9.223518696511436"><ele>114.0</ele><time>2026-04-11T08:09:23.001Z</time></trkpt><trkpt lat="45.43725093175042" lon="9.223588746721864"><ele>114.0</ele><time>2026-04-11T08:09:24.001Z</time></trkpt><trkpt lat="45.437183950083835" lon="9.223665924731842"><ele>114.0</ele><time>2026-04-11T08:09:25.001Z</time></trkpt><trkpt lat="45.437118125194445" lon="9.223752389087924"><ele>113.83333333333333</ele><time>2026-04-11T08:09:26.001Z</time></trkpt><trkpt lat="45.43706655813857" lon="9.223848997664083"><ele>113.66666666666666</ele><time>2026-04-11T08:09:27.001Z</time></trkpt><trkpt lat="45.437023596827814" lon="9.223938689026818"><ele>113.5</ele><time>2026-04-11T08:09:28.001Z</time></trkpt><trkpt lat="45.436994663650886" lon="9.224026648874283"><ele>113.33333333333333</ele><time>2026-04-11T08:09:29Z</time></trkpt><trkpt lat="45.436890371785545" lon="9.224038161695713"><ele>113.16666666666666</ele><time>2026-04-11T08:09:30Z</time></trkpt><trkpt lat="45.436796858803746" lon="9.224035366520695"><ele>113.0</ele><time>2026-04-11T08:09:31Z</time></trkpt><trkpt lat="45.43669844724609" lon="9.224031728853078"><ele>113.0</ele><time>2026-04-11T08:09:32Z</time></trkpt><trkpt lat="45.436590382387664" lon="9.224031925845981"><ele>113.0</ele><time>2026-04-11T08:09:33Z</time></trkpt><trkpt lat="45.43647128092359" lon="9.224031179618192"><ele>113.0</ele><time>2026-04-11T08:09:34Z</time></trkpt><trkpt lat="45.436347371158256" lon="9.224055250057356"><ele>113.0</ele><time>2026-04-11T08:09:35Z</time></trkpt><trkpt lat="45.436220635938014" lon="9.224057229531748"><ele>112.25</ele><time>2026-04-11T08:09:36Z</time></trkpt><trkpt lat="45.43609051938499" lon="9.224036209811182"><ele>111.5</ele><time>2026-04-11T08:09:37Z</time></trkpt><trkpt lat="45.43596090818253" lon="9.224038979143069"><ele>110.75</ele><time>2026-04-11T08:09:38Z</time></trkpt><trkpt lat="45.435830407734855" lon="9.22404727345597"><ele>110.0</ele><time>2026-04-11T08:09:39Z</time></trkpt><trkpt lat="45.4356999962655" lon="9.224050404443135"><ele>110.0</ele><time>2026-04-11T08:09:40Z</time></trkpt><trkpt lat="45.43557701247016" lon="9.224054139539097"><ele>110.0</ele><time>2026-04-11T08:09:41Z</time></trkpt><trkpt lat="45.435454226651174" lon="9.224056519801211"><ele>110.0</ele><time>2026-04-11T08:09:42Z</time></trkpt><trkpt lat="45.43533961889444" lon="9.224057455990689"><ele>110.0</ele><time>2026-04-11T08:09:43Z</time></trkpt><trkpt lat="45.43522516288468" lon="9.224058275544781"><ele>110.4</ele><time>2026-04-11T08:09:44Z</time></trkpt><trkpt lat="45.43511259147034" lon="9.224059390336338"><ele>110.8</ele><time>2026-04-11T08:09:45Z</time></trkpt><trkpt lat="45.43499956905396" lon="9.224062464881028"><ele>111.19999999999999</ele><time>2026-04-11T08:09:46Z</time></trkpt><trkpt lat="45.434885921884" lon="9.224065492828624"><ele>111.6</ele><time>2026-04-11T08:09:47Z</time></trkpt><trkpt lat="45.43477647495499" lon="9.22406460513199"><ele>112.0</ele><time>2026-04-11T08:09:48Z</time></trkpt><trkpt lat="45.43467552783746" lon="9.224067304639737"><ele>112.0</ele><time>2026-04-11T08:09:49Z</time></trkpt><trkpt lat="45.434459422758756" lon="9.224074483263928"><ele>112.0</ele><time>2026-04-11T08:09:51Z</time></trkpt><trkpt lat="45.43434957395766" lon="9.224076809152027"><ele>112.0</ele><time>2026-04-11T08:09:52Z</time></trkpt><trkpt lat="45.434236076754246" lon="9.224074315556859"><ele>112.0</ele><time>2026-04-11T08:09:53Z</time></trkpt><trkpt lat="45.43412335098948" lon="9.224095698623465"><ele>112.0</ele><time>2026-04-11T08:09:54Z</time></trkpt><trkpt lat="45.43396865168804" lon="9.224089802287317"><ele>112.0</ele><time>2026-04-11T08:09:55Z</time></trkpt><trkpt lat="45.433856629204286" lon="9.224081111240977"><ele>112.0</ele><time>2026-04-11T08:09:56Z</time></trkpt><trkpt lat="45.43372979936999" lon="9.22408573552329"><ele>112.0</ele><time>2026-04-11T08:09:57Z</time></trkpt><trkpt lat="45.43361002522797" lon="9.224082623382364"><ele>112.19999999999999</ele><time>2026-04-11T08:09:58Z</time></trkpt><trkpt lat="45.433496385338714" lon="9.2241039310225"><ele>112.39999999999999</ele><time>2026-04-11T08:09:59Z</time></trkpt><trkpt lat="45.43339358162387" lon="9.224105044840512"><ele>112.60000000000001</ele><time>2026-04-11T08:10:00Z</time></trkpt><trkpt lat="45.43329200474727" lon="9.224106145366372"><ele>112.80000000000001</ele><time>2026-04-11T08:10:01Z</time></trkpt><trkpt lat="45.433194291312766" lon="9.224107149617689"><ele>113.0</ele><time>2026-04-11T08:10:02Z</time></trkpt><trkpt lat="45.43310600673568" lon="9.224107690512225"><ele>112.99999999999999</ele><time>2026-04-11T08:10:03Z</time></trkpt><trkpt lat="45.433027391404295" lon="9.224108172166744"><ele>113.0</ele><time>2026-04-11T08:10:04Z</time></trkpt><trkpt lat="45.432961839821076" lon="9.2241085737838"><ele>113.0</ele><time>2026-04-11T08:10:05Z</time></trkpt><trkpt lat="45.43289162685396" lon="9.224109003958548"><ele>113.0</ele><time>2026-04-11T08:10:06Z</time></trkpt><trkpt lat="45.43281847242093" lon="9.224109452155988"><ele>112.99999999999999</ele><time>2026-04-11T08:10:07Z</time></trkpt><trkpt lat="45.43269734579538" lon="9.224099614618671"><ele>113.0</ele><time>2026-04-11T08:10:09Z</time></trkpt><trkpt lat="45.432587136808856" lon="9.224092300256707"><ele>112.80000000000001</ele><time>2026-04-11T08:10:11Z</time></trkpt><trkpt lat="45.432473385938614" lon="9.224112249524982"><ele>112.60000000000001</ele><time>2026-04-11T08:10:13Z</time></trkpt><trkpt lat="45.4323650796587" lon="9.22409182548155"><ele>112.39999999999999</ele><time>2026-04-11T08:10:15Z</time></trkpt><trkpt lat="45.432290721725565" lon="9.22409711591197"><ele>112.19999999999999</ele><time>2026-04-11T08:10:17Z</time></trkpt><trkpt lat="45.43222525398533" lon="9.224095962585272"><ele>112.0</ele><time>2026-04-11T08:10:23Z</time></trkpt><trkpt lat="45.43213906596662" lon="9.224118438155525"><ele>111.0</ele><time>2026-04-11T08:10:27Z</time></trkpt><trkpt lat="45.43207184935569" lon="9.22411975429534"><ele>109.99999999999999</ele><time>2026-04-11T08:10:31Z</time></trkpt><trkpt lat="45.43204324329792" lon="9.223955153338023"><ele>108.99999999999999</ele><time>2026-04-11T08:10:32Z</time></trkpt><trkpt lat="45.43196348050424" lon="9.223850890660845"><ele>108.0</ele><time>2026-04-11T08:10:34Z</time></trkpt><trkpt lat="45.43184609470865" lon="9.223844353309213"><ele>107.0</ele><time>2026-04-11T08:10:36Z</time></trkpt><trkpt lat="45.431778596162566" lon="9.223881127433613"><ele>106.99999999999999</ele><time>2026-04-11T08:10:37Z</time></trkpt><trkpt lat="45.431728862759144" lon="9.223953166312434"><ele>107.0</ele><time>2026-04-11T08:10:38Z</time></trkpt><trkpt lat="45.431699396535805" lon="9.22405009547079"><ele>107.0</ele><time>2026-04-11T08:10:39Z</time></trkpt><trkpt lat="45.43170504461668" lon="9.22415661512983"><ele>107.0</ele><time>2026-04-11T08:10:40Z</time></trkpt><trkpt lat="45.43174220909218" lon="9.224254053878624"><ele>106.99999999999999</ele><time>2026-04-11T08:10:41Z</time></trkpt><trkpt lat="45.43180528759482" lon="9.224328563504068"><ele>107.0</ele><time>2026-04-11T08:10:42Z</time></trkpt><trkpt lat="45.43187904396139" lon="9.224391306734905"><ele>106.8</ele><time>2026-04-11T08:10:43Z</time></trkpt><trkpt lat="45.43195295831291" lon="9.224461384273642"><ele>106.6</ele><time>2026-04-11T08:10:44Z</time></trkpt><trkpt lat="45.43202446223379" lon="9.224528956314755"><ele>106.39999999999999</ele><time>2026-04-11T08:10:45Z</time></trkpt><trkpt lat="45.43209527952404" lon="9.224595568680984"><ele>106.19999999999999</ele><time>2026-04-11T08:10:46Z</time></trkpt><trkpt lat="45.432171061640744" lon="9.224669058409527"><ele>106.0</ele><time>2026-04-11T08:10:47Z</time></trkpt><trkpt lat="45.432254967372835" lon="9.224745239196237"><ele>106.4</ele><time>2026-04-11T08:10:48Z</time></trkpt><trkpt lat="45.43234480578122" lon="9.224831533317415"><ele>106.8</ele><time>2026-04-11T08:10:49Z</time></trkpt><trkpt lat="45.432436219138204" lon="9.224923619343413"><ele>107.20000000000002</ele><time>2026-04-11T08:10:50Z</time></trkpt><trkpt lat="45.43253483304995" lon="9.225000488212787"><ele>107.60000000000001</ele><time>2026-04-11T08:10:51Z</time></trkpt><trkpt lat="45.43263699407532" lon="9.225080309070655"><ele>108.0</ele><time>2026-04-11T08:10:52Z</time></trkpt><trkpt lat="45.43273786977291" lon="9.225157225004075"><ele>108.0</ele><time>2026-04-11T08:10:53Z</time></trkpt><trkpt lat="45.43283732745816" lon="9.225234544240115"><ele>108.00000000000001</ele><time>2026-04-11T08:10:54Z</time></trkpt><trkpt lat="45.432935352784106" lon="9.225317503595742"><ele>108.00000000000001</ele><time>2026-04-11T08:10:55Z</time></trkpt><trkpt lat="45.433024152294564" lon="9.225411548731369"><ele>108.0</ele><time>2026-04-11T08:10:56Z</time></trkpt><trkpt lat="45.433109454910344" lon="9.225509974674305"><ele>108.0</ele><time>2026-04-11T08:10:57Z</time></trkpt><trkpt lat="45.4331927011014" lon="9.225617474652337"><ele>108.0</ele><time>2026-04-11T08:10:58Z</time></trkpt><trkpt lat="45.43327433221597" lon="9.225723336602517"><ele>108.00000000000001</ele><time>2026-04-11T08:10:59Z</time></trkpt><trkpt lat="45.43335972051389" lon="9.225822777897122"><ele>108.00000000000001</ele><time>2026-04-11T08:11:00Z</time></trkpt><trkpt lat="45.433442709167615" lon="9.225929730827627"><ele>108.0</ele><time>2026-04-11T08:11:01Z</time></trkpt><trkpt lat="45.433528040403644" lon="9.226036988758201"><ele>108.0</ele><time>2026-04-11T08:11:02Z</time></trkpt><trkpt lat="45.433615263356465" lon="9.226141792502473"><ele>108.0</ele><time>2026-04-11T08:11:03Z</time></trkpt><trkpt lat="45.43370617652265" lon="9.226243849615697"><ele>108.0</ele><time>2026-04-11T08:11:04Z</time></trkpt><trkpt lat="45.43379481717279" lon="9.226346484785173"><ele>108.0</ele><time>2026-04-11T08:11:05Z</time></trkpt><trkpt lat="45.43388518587591" lon="9.226455276934516"><ele>108.0</ele><time>2026-04-11T08:11:06Z</time></trkpt><trkpt lat="45.43397457585872" lon="9.226560091793006"><ele>108.25</ele><time>2026-04-11T08:11:07Z</time></trkpt><trkpt lat="45.43406407322766" lon="9.226665183395248"><ele>108.5</ele><time>2026-04-11T08:11:08Z</time></trkpt><trkpt lat="45.43415940587196" lon="9.226768064399845"><ele>108.75</ele><time>2026-04-11T08:11:09Z</time></trkpt><trkpt lat="45.43425665931369" lon="9.226876003842268"><ele>109.0</ele><time>2026-04-11T08:11:10Z</time></trkpt><trkpt lat="45.434355721993406" lon="9.226981712674037"><ele>109.0</ele><time>2026-04-11T08:11:11Z</time></trkpt><trkpt lat="45.43445464733108" lon="9.22709218206157"><ele>109.0</ele><time>2026-04-11T08:11:12Z</time></trkpt><trkpt lat="45.434549169842896" lon="9.227194659441736"><ele>109.0</ele><time>2026-04-11T08:11:13Z</time></trkpt><trkpt lat="45.43463105556484" lon="9.227288687679186"><ele>109.0</ele><time>2026-04-11T08:11:14Z</time></trkpt><trkpt lat="45.434708472245084" lon="9.227381718033136"><ele>108.80000000000001</ele><time>2026-04-11T08:11:15Z</time></trkpt><trkpt lat="45.434789933329995" lon="9.227476797672313"><ele>108.60000000000001</ele><time>2026-04-11T08:11:16Z</time></trkpt><trkpt lat="45.434877071659585" lon="9.227582595923261"><ele>108.4</ele><time>2026-04-11T08:11:17Z</time></trkpt><trkpt lat="45.43497092507744" lon="9.227683226874486"><ele>108.2</ele><time>2026-04-11T08:11:18Z</time></trkpt><trkpt lat="45.435049477589544" lon="9.227771377213367"><ele>108.0</ele><time>2026-04-11T08:11:19Z</time></trkpt><trkpt lat="45.4351037554038" lon="9.227837380877805"><ele>108.0</ele><time>2026-04-11T08:11:20Z</time></trkpt><trkpt lat="45.43515316237536" lon="9.227895225073699"><ele>108.00000000000001</ele><time>2026-04-11T08:11:23Z</time></trkpt><trkpt lat="45.43509315500284" lon="9.22804181222166"><ele>108.00000000000001</ele><time>2026-04-11T08:11:25Z</time></trkpt><trkpt lat="45.43504999137869" lon="9.228133251534064"><ele>108.0</ele><time>2026-04-11T08:11:26Z</time></trkpt><trkpt lat="45.43498398855219" lon="9.228225570131475"><ele>108.0</ele><time>2026-04-11T08:11:27Z</time></trkpt><trkpt lat="45.43491274121852" lon="9.228337363840073"><ele>107.60000000000001</ele><time>2026-04-11T08:11:28Z</time></trkpt><trkpt lat="45.434847560043714" lon="9.22845328903357"><ele>107.20000000000002</ele><time>2026-04-11T08:11:29Z</time></trkpt><trkpt lat="45.43478983801031" lon="9.228562347177414"><ele>106.8</ele><time>2026-04-11T08:11:30Z</time></trkpt><trkpt lat="45.43473194680182" lon="9.228675171361443"><ele>106.4</ele><time>2026-04-11T08:11:31Z</time></trkpt><trkpt lat="45.43466582134081" lon="9.228804432489962"><ele>106.0</ele><time>2026-04-11T08:11:32Z</time></trkpt><trkpt lat="45.43459450832542" lon="9.228940308731447"><ele>105.75</ele><time>2026-04-11T08:11:33Z</time></trkpt><trkpt lat="45.43451993662955" lon="9.22908265037032"><ele>105.5</ele><time>2026-04-11T08:11:34Z</time></trkpt><trkpt lat="45.43444283349793" lon="9.229232984657756"><ele>105.25</ele><time>2026-04-11T08:11:35Z</time></trkpt><trkpt lat="45.4343633597984" lon="9.229388047474378"><ele>105.0</ele><time>2026-04-11T08:11:36Z</time></trkpt><trkpt lat="45.43428029044202" lon="9.229544739847668"><ele>105.0</ele><time>2026-04-11T08:11:37Z</time></trkpt><trkpt lat="45.43418960175196" lon="9.229694358808665"><ele>105.0</ele><time>2026-04-11T08:11:38Z</time></trkpt><trkpt lat="45.4341008003326" lon="9.229843520680651"><ele>105.0</ele><time>2026-04-11T08:11:39Z</time></trkpt><trkpt lat="45.434010846243964" lon="9.229988685918352"><ele>105.0</ele><time>2026-04-11T08:11:40Z</time></trkpt><trkpt lat="45.43392921697627" lon="9.230142053325023"><ele>104.8</ele><time>2026-04-11T08:11:41Z</time></trkpt><trkpt lat="45.433853232894954" lon="9.230290216095906"><ele>104.6</ele><time>2026-04-11T08:11:42Z</time></trkpt><trkpt lat="45.433780459692194" lon="9.230428654741415"><ele>104.4</ele><time>2026-04-11T08:11:43Z</time></trkpt><trkpt lat="45.43371666378274" lon="9.230548518864266"><ele>104.2</ele><time>2026-04-11T08:11:44Z</time></trkpt><trkpt lat="45.433674026317455" lon="9.230626377352287"><ele>104.0</ele><time>2026-04-11T08:11:45Z</time></trkpt><trkpt lat="45.43361861448241" lon="9.230711867882443"><ele>103.75</ele><time>2026-04-11T08:11:47Z</time></trkpt><trkpt lat="45.433693763134585" lon="9.230911988305964"><ele>103.5</ele><time>2026-04-11T08:11:49Z</time></trkpt><trkpt lat="45.4337357685181" lon="9.230988987367814"><ele>103.25</ele><time>2026-04-11T08:11:50Z</time></trkpt><trkpt lat="45.43384838333206" lon="9.231116419326113"><ele>103.0</ele><time>2026-04-11T08:11:51Z</time></trkpt><trkpt lat="45.43388733354421" lon="9.231302715489548"><ele>103.75</ele><time>2026-04-11T08:11:52Z</time></trkpt><trkpt lat="45.43385585733928" lon="9.231548784691213"><ele>104.5</ele><time>2026-04-11T08:11:53Z</time></trkpt><trkpt lat="45.43380515444888" lon="9.231702012620145"><ele>105.25</ele><time>2026-04-11T08:11:54Z</time></trkpt><trkpt lat="45.43377022401295" lon="9.231815511257784"><ele>106.0</ele><time>2026-04-11T08:11:55Z</time></trkpt><trkpt lat="45.433739260689144" lon="9.231916563832263"><ele>106.00000000000001</ele><time>2026-04-11T08:11:56Z</time></trkpt><trkpt lat="45.43369462208416" lon="9.232048203308363"><ele>106.0</ele><time>2026-04-11T08:11:58Z</time></trkpt><trkpt lat="45.4336562514001" lon="9.232136335029864"><ele>106.0</ele><time>2026-04-11T08:12:00Z</time></trkpt><trkpt lat="45.433629036399" lon="9.232221262287364"><ele>106.0</ele><time>2026-04-11T08:12:05Z</time></trkpt><trkpt lat="45.43359108659827" lon="9.23232103913702"><ele>106.00000000000001</ele><time>2026-04-11T08:12:26Z</time></trkpt><trkpt lat="45.43361405106851" lon="9.232235007649132"><ele>106.0</ele><time>2026-04-11T08:12:41Z</time></trkpt><trkpt lat="45.43366963230943" lon="9.232095596850334"><ele>106.0</ele><time>2026-04-11T08:12:43Z</time></trkpt><trkpt lat="45.433706510631204" lon="9.231970734924055"><ele>106.0</ele><time>2026-04-11T08:12:45Z</time></trkpt><trkpt lat="45.433749710383815" lon="9.231878567865463"><ele>106.0</ele><time>2026-04-11T08:12:48.001Z</time></trkpt><trkpt lat="45.43389386590423" lon="9.23195807660749"><ele>106.0</ele><time>2026-04-11T08:12:57.001Z</time></trkpt><trkpt lat="45.43393729606712" lon="9.232075274320469"><ele>106.0</ele><time>2026-04-11T08:13:08.001Z</time></trkpt><trkpt lat="45.433926518958515" lon="9.23216496980306"><ele>106.0</ele><time>2026-04-11T08:13:09.001Z</time></trkpt><trkpt lat="45.43386991314952" lon="9.232267220824811"><ele>106.0</ele><time>2026-04-11T08:13:11.001Z</time></trkpt><trkpt lat="45.43381273391126" lon="9.23237941463978"><ele>106.0</ele><time>2026-04-11T08:13:13.001Z</time></trkpt><trkpt lat="45.43359804942726" lon="9.232302732611611"><ele>106.0</ele><time>2026-04-11T08:13:14.001Z</time></trkpt><trkpt lat="45.43356328811267" lon="9.232394127295532"><ele>106.0</ele><time>2026-04-11T08:13:16.001Z</time></trkpt><trkpt lat="45.433529219578894" lon="9.232505869614808"><ele>106.0</ele><time>2026-04-11T08:13:25.001Z</time></trkpt><trkpt lat="45.433405241932284" lon="9.232423141307523"><ele>106.0</ele><time>2026-04-11T08:13:28.001Z</time></trkpt><trkpt lat="45.43331950835688" lon="9.232394149452578"><ele>106.0</ele><time>2026-04-11T08:13:29Z</time></trkpt><trkpt lat="45.433231601804714" lon="9.232378731194084"><ele>106.0</ele><time>2026-04-11T08:13:30Z</time></trkpt><trkpt lat="45.433138520029196" lon="9.23236774275016"><ele>106.00000000000001</ele><time>2026-04-11T08:13:31Z</time></trkpt><trkpt lat="45.43304974805499" lon="9.232351355541393"><ele>106.0</ele><time>2026-04-11T08:13:32Z</time></trkpt><trkpt lat="45.432971952841214" lon="9.232326929084218"><ele>106.0</ele><time>2026-04-11T08:13:33Z</time></trkpt><trkpt lat="45.43289595140505" lon="9.232299059208447"><ele>106.0</ele><time>2026-04-11T08:13:34Z</time></trkpt><trkpt lat="45.43281670888878" lon="9.232286329939274"><ele>106.00000000000001</ele><time>2026-04-11T08:13:35Z</time></trkpt><trkpt lat="45.43274058332333" lon="9.232269475463106"><ele>106.0</ele><time>2026-04-11T08:13:36Z</time></trkpt><trkpt lat="45.43266642180356" lon="9.232240293699377"><ele>105.33333333333334</ele><time>2026-04-11T08:13:37Z</time></trkpt><trkpt lat="45.43258902341097" lon="9.232208272282444"><ele>104.66666666666667</ele><time>2026-04-11T08:13:38Z</time></trkpt><trkpt lat="45.432507462108966" lon="9.232183348024396"><ele>104.0</ele><time>2026-04-11T08:13:39Z</time></trkpt><trkpt lat="45.432424753365346" lon="9.232170842682493"><ele>103.33333333333334</ele><time>2026-04-11T08:13:40Z</time></trkpt><trkpt lat="45.432337410875796" lon="9.232163843821416"><ele>102.66666666666667</ele><time>2026-04-11T08:13:41Z</time></trkpt><trkpt lat="45.432247656855324" lon="9.232167348355974"><ele>102.0</ele><time>2026-04-11T08:13:42Z</time></trkpt><trkpt lat="45.43215434904452" lon="9.232175593576855"><ele>101.5</ele><time>2026-04-11T08:13:43Z</time></trkpt><trkpt lat="45.43206238298249" lon="9.23216857750536"><ele>101.0</ele><time>2026-04-11T08:13:44Z</time></trkpt><trkpt lat="45.43197778707551" lon="9.232150074564094"><ele>100.5</ele><time>2026-04-11T08:13:45Z</time></trkpt><trkpt lat="45.43189184647095" lon="9.23212720095359"><ele>100.0</ele><time>2026-04-11T08:13:46Z</time></trkpt><trkpt lat="45.43180365196799" lon="9.232108321643492"><ele>99.5</ele><time>2026-04-11T08:13:47Z</time></trkpt><trkpt lat="45.43171628341599" lon="9.232098765683592"><ele>99.0</ele><time>2026-04-11T08:13:48Z</time></trkpt><trkpt lat="45.4316268584865" lon="9.23209030555619"><ele>99.0</ele><time>2026-04-11T08:13:49Z</time></trkpt><trkpt lat="45.43154113125592" lon="9.232069118345496"><ele>99.0</ele><time>2026-04-11T08:13:50Z</time></trkpt><trkpt lat="45.431453119955926" lon="9.232033625173699"><ele>99.0</ele><time>2026-04-11T08:13:51Z</time></trkpt><trkpt lat="45.43136721248508" lon="9.232022233949069"><ele>99.0</ele><time>2026-04-11T08:13:52Z</time></trkpt><trkpt lat="45.43128980255896" lon="9.232034682461641"><ele>99.0</ele><time>2026-04-11T08:13:52.999Z</time></trkpt><trkpt lat="45.431223322888485" lon="9.232043424717094"><ele>99.0</ele><time>2026-04-11T08:13:53.999Z</time></trkpt><trkpt lat="45.431123689437506" lon="9.232031139930376"><ele>100.75</ele><time>2026-04-11T08:13:54.999Z</time></trkpt><trkpt lat="45.4310226490363" lon="9.231982840721882"><ele>102.5</ele><time>2026-04-11T08:13:55.999Z</time></trkpt><trkpt lat="45.430900296261186" lon="9.231914023124277"><ele>104.25</ele><time>2026-04-11T08:13:56.999Z</time></trkpt><trkpt lat="45.43077430048052" lon="9.231851106425673"><ele>106.0</ele><time>2026-04-11T08:13:57.999Z</time></trkpt><trkpt lat="45.43063085411866" lon="9.231788516769106"><ele>106.0</ele><time>2026-04-11T08:13:58.999Z</time></trkpt><trkpt lat="45.43048232973446" lon="9.231725534028884"><ele>106.0</ele><time>2026-04-11T08:14:00Z</time></trkpt><trkpt lat="45.43033294133779" lon="9.231660540700243"><ele>106.0</ele><time>2026-04-11T08:14:01Z</time></trkpt><trkpt lat="45.43019607905003" lon="9.231599060900557"><ele>105.5</ele><time>2026-04-11T08:14:02Z</time></trkpt><trkpt lat="45.43007053918091" lon="9.231547208568808"><ele>105.0</ele><time>2026-04-11T08:14:03Z</time></trkpt><trkpt lat="45.42995260612157" lon="9.231491075559441"><ele>104.5</ele><time>2026-04-11T08:14:04Z</time></trkpt><trkpt lat="45.42982187822733" lon="9.231428887976252"><ele>104.0</ele><time>2026-04-11T08:14:05Z</time></trkpt><trkpt lat="45.4296800547058" lon="9.231368934077237"><ele>103.75</ele><time>2026-04-11T08:14:06Z</time></trkpt><trkpt lat="45.42954206741791" lon="9.23130819168192"><ele>103.5</ele><time>2026-04-11T08:14:07Z</time></trkpt><trkpt lat="45.42941660930892" lon="9.231251753944349"><ele>103.25</ele><time>2026-04-11T08:14:08Z</time></trkpt><trkpt lat="45.42929788957854" lon="9.231215109093213"><ele>103.0</ele><time>2026-04-11T08:14:09Z</time></trkpt><trkpt lat="45.4291808529912" lon="9.231195525519968"><ele>103.0</ele><time>2026-04-11T08:14:10Z</time></trkpt><trkpt lat="45.42905124614518" lon="9.231197085903139"><ele>103.0</ele><time>2026-04-11T08:14:11Z</time></trkpt><trkpt lat="45.42892101565072" lon="9.231210909363663"><ele>103.0</ele><time>2026-04-11T08:14:12Z</time></trkpt><trkpt lat="45.42880596655821" lon="9.23122668153486"><ele>103.0</ele><time>2026-04-11T08:14:13Z</time></trkpt><trkpt lat="45.42869932101312" lon="9.231255592016133"><ele>102.80000000000001</ele><time>2026-04-11T08:14:14Z</time></trkpt><trkpt lat="45.42859651235234" lon="9.231297122650279"><ele>102.6</ele><time>2026-04-11T08:14:15Z</time></trkpt><trkpt lat="45.428501996996125" lon="9.231355593483089"><ele>102.4</ele><time>2026-04-11T08:14:16Z</time></trkpt><trkpt lat="45.42842371675188" lon="9.231428986864078"><ele>102.19999999999999</ele><time>2026-04-11T08:14:17Z</time></trkpt><trkpt lat="45.42835875737384" lon="9.231507792499235"><ele>102.0</ele><time>2026-04-11T08:14:18Z</time></trkpt><trkpt lat="45.428246139399484" lon="9.231660624121698"><ele>101.0</ele><time>2026-04-11T08:14:20Z</time></trkpt><trkpt lat="45.428159286569716" lon="9.231757826279523"><ele>100.0</ele><time>2026-04-11T08:14:22Z</time></trkpt><trkpt lat="45.42812859516815" lon="9.231858385434805"><ele>99.0</ele><time>2026-04-11T08:14:25Z</time></trkpt><trkpt lat="45.42822791773543" lon="9.231947122258642"><ele>98.0</ele><time>2026-04-11T08:14:28Z</time></trkpt><trkpt lat="45.428311666890224" lon="9.232000014627415"><ele>97.0</ele><time>2026-04-11T08:14:30Z</time></trkpt><trkpt lat="45.42838254503469" lon="9.232090987419465"><ele>97.0</ele><time>2026-04-11T08:14:33Z</time></trkpt><trkpt lat="45.42838604662114" lon="9.232298082631626"><ele>97.0</ele><time>2026-04-11T08:14:35Z</time></trkpt><trkpt lat="45.428392033765135" lon="9.232418887470816"><ele>97.0</ele><time>2026-04-11T08:14:36Z</time></trkpt><trkpt lat="45.42842075439156" lon="9.232562279000486"><ele>97.0</ele><time>2026-04-11T08:14:37Z</time></trkpt><trkpt lat="45.42846069626937" lon="9.232747199328628"><ele>97.25</ele><time>2026-04-11T08:14:38Z</time></trkpt><trkpt lat="45.42850929438171" lon="9.232969553751255"><ele>97.5</ele><time>2026-04-11T08:14:39Z</time></trkpt><trkpt lat="45.428552792478996" lon="9.23314361513328"><ele>97.75</ele><time>2026-04-11T08:14:40Z</time></trkpt><trkpt lat="45.42859553910704" lon="9.233275535788179"><ele>98.0</ele><time>2026-04-11T08:14:41Z</time></trkpt><trkpt lat="45.42862958662566" lon="9.233382425837542"><ele>98.60000000000001</ele><time>2026-04-11T08:14:42Z</time></trkpt><trkpt lat="45.428583272085866" lon="9.233474197055198"><ele>99.2</ele><time>2026-04-11T08:14:43Z</time></trkpt><trkpt lat="45.428478688418124" lon="9.233615510285247"><ele>99.8</ele><time>2026-04-11T08:14:45Z</time></trkpt><trkpt lat="45.428384912424654" lon="9.233703034599465"><ele>100.4</ele><time>2026-04-11T08:14:46Z</time></trkpt><trkpt lat="45.42830294189356" lon="9.23379420531166"><ele>101.0</ele><time>2026-04-11T08:14:47Z</time></trkpt><trkpt lat="45.428230425621635" lon="9.23385943806726"><ele>101.0</ele><time>2026-04-11T08:14:48Z</time></trkpt><trkpt lat="45.428151896085026" lon="9.233902022328838"><ele>101.0</ele><time>2026-04-11T08:14:49Z</time></trkpt><trkpt lat="45.42808415011715" lon="9.233932065388986"><ele>101.0</ele><time>2026-04-11T08:14:50Z</time></trkpt><trkpt lat="45.42803520733787" lon="9.23399532390545"><ele>101.0</ele><time>2026-04-11T08:14:51Z</time></trkpt><trkpt lat="45.428008442148716" lon="9.234082198965961"><ele>101.0</ele><time>2026-04-11T08:14:52Z</time></trkpt><trkpt lat="45.4279933612082" lon="9.23417400541481"><ele>101.0</ele><time>2026-04-11T08:14:53Z</time></trkpt><trkpt lat="45.427983252611895" lon="9.234285411891406"><ele>101.0</ele><time>2026-04-11T08:14:54Z</time></trkpt><trkpt lat="45.42797646265506" lon="9.234412959970742"><ele>101.16666666666666</ele><time>2026-04-11T08:14:55Z</time></trkpt><trkpt lat="45.42796689939408" lon="9.234547564163433"><ele>101.33333333333333</ele><time>2026-04-11T08:14:56Z</time></trkpt><trkpt lat="45.42795726207671" lon="9.234666091370324"><ele>101.5</ele><time>2026-04-11T08:14:57Z</time></trkpt><trkpt lat="45.4279512036733" lon="9.234758542506503"><ele>101.66666666666666</ele><time>2026-04-11T08:14:58Z</time></trkpt><trkpt lat="45.42794343486659" lon="9.234897035731365"><ele>101.83333333333333</ele><time>2026-04-11T08:15:00Z</time></trkpt><trkpt lat="45.42790446036521" lon="9.235008410756532"><ele>102.0</ele><time>2026-04-11T08:15:02Z</time></trkpt><trkpt lat="45.427774670070605" lon="9.23507478511603"><ele>102.8</ele><time>2026-04-11T08:15:04Z</time></trkpt><trkpt lat="45.427699122162885" lon="9.235095799450907"><ele>103.6</ele><time>2026-04-11T08:15:05Z</time></trkpt><trkpt lat="45.42761993827315" lon="9.235109507233567"><ele>104.39999999999999</ele><time>2026-04-11T08:15:06Z</time></trkpt><trkpt lat="45.427539553837725" lon="9.235127432021612"><ele>105.19999999999999</ele><time>2026-04-11T08:15:07Z</time></trkpt><trkpt lat="45.42744526632937" lon="9.23511101327192"><ele>106.0</ele><time>2026-04-11T08:15:09Z</time></trkpt><trkpt lat="45.42733447253388" lon="9.235049263917722"><ele>106.0</ele><time>2026-04-11T08:15:11Z</time></trkpt><trkpt lat="45.42726694366132" lon="9.234991847728063"><ele>106.0</ele><time>2026-04-11T08:15:12Z</time></trkpt><trkpt lat="45.42717719271442" lon="9.234923405588402"><ele>106.0</ele><time>2026-04-11T08:15:13Z</time></trkpt><trkpt lat="45.427082189495025" lon="9.234850796804825"><ele>106.0</ele><time>2026-04-11T08:15:14Z</time></trkpt><trkpt lat="45.427004721323236" lon="9.234799426822924"><ele>106.0</ele><time>2026-04-11T08:15:15Z</time></trkpt><trkpt lat="45.426907563238835" lon="9.234774155677414"><ele>105.4</ele><time>2026-04-11T08:15:17Z</time></trkpt><trkpt lat="45.426827367401" lon="9.23478817878272"><ele>104.8</ele><time>2026-04-11T08:15:19Z</time></trkpt><trkpt lat="45.42679610347299" lon="9.234894473747993"><ele>104.2</ele><time>2026-04-11T08:15:22Z</time></trkpt><trkpt lat="45.426824852782524" lon="9.235006486110649"><ele>103.60000000000001</ele><time>2026-04-11T08:15:24Z</time></trkpt><trkpt lat="45.426889495114274" lon="9.235137091113762"><ele>103.0</ele><time>2026-04-11T08:15:26Z</time></trkpt><trkpt lat="45.42697432452457" lon="9.235278498726716"><ele>104.00000000000001</ele><time>2026-04-11T08:15:28Z</time></trkpt><trkpt lat="45.42701350241102" lon="9.235361864773587"><ele>105.0</ele><time>2026-04-11T08:15:29Z</time></trkpt><trkpt lat="45.4270556242453" lon="9.23545055069276"><ele>106.0</ele><time>2026-04-11T08:15:30Z</time></trkpt><trkpt lat="45.42708685553489" lon="9.23560673627868"><ele>107.0</ele><time>2026-04-11T08:15:32Z</time></trkpt><trkpt lat="45.427083789204445" lon="9.235697121794246"><ele>108.00000000000001</ele><time>2026-04-11T08:15:33Z</time></trkpt><trkpt lat="45.427051510648774" lon="9.23582537189048"><ele>109.0</ele><time>2026-04-11T08:15:35Z</time></trkpt><trkpt lat="45.426990464980065" lon="9.235964510619441"><ele>109.00000000000001</ele><time>2026-04-11T08:15:37Z</time></trkpt><trkpt lat="45.42694775356261" lon="9.2360575757517"><ele>109.0</ele><time>2026-04-11T08:15:38Z</time></trkpt><trkpt lat="45.42689494029651" lon="9.2361596959682"><ele>109.0</ele><time>2026-04-11T08:15:39Z</time></trkpt><trkpt lat="45.426841240721295" lon="9.236263538427393"><ele>109.0</ele><time>2026-04-11T08:15:40Z</time></trkpt><trkpt lat="45.426795826881126" lon="9.236368300178182"><ele>109.00000000000001</ele><time>2026-04-11T08:15:41Z</time></trkpt><trkpt lat="45.42675806679304" lon="9.236483453411548"><ele>109.0</ele><time>2026-04-11T08:15:42Z</time></trkpt><trkpt lat="45.4267243545557" lon="9.236604801596101"><ele>109.16666666666667</ele><time>2026-04-11T08:15:43Z</time></trkpt><trkpt lat="45.42669599769934" lon="9.236724918789745"><ele>109.33333333333334</ele><time>2026-04-11T08:15:44Z</time></trkpt><trkpt lat="45.426672556490004" lon="9.236847453913615"><ele>109.5</ele><time>2026-04-11T08:15:45Z</time></trkpt><trkpt lat="45.42665975766965" lon="9.236963145724914"><ele>109.66666666666666</ele><time>2026-04-11T08:15:46Z</time></trkpt><trkpt lat="45.42665459311611" lon="9.237078132929943"><ele>109.83333333333333</ele><time>2026-04-11T08:15:47Z</time></trkpt><trkpt lat="45.42664806742295" lon="9.237199246569116"><ele>110.0</ele><time>2026-04-11T08:15:48Z</time></trkpt><trkpt lat="45.42663927686835" lon="9.237329893054344"><ele>109.49999999999999</ele><time>2026-04-11T08:15:49Z</time></trkpt><trkpt lat="45.426632154189555" lon="9.237468166865716"><ele>109.0</ele><time>2026-04-11T08:15:50Z</time></trkpt><trkpt lat="45.426629421579264" lon="9.237601679406392"><ele>108.5</ele><time>2026-04-11T08:15:51Z</time></trkpt><trkpt lat="45.42661650966737" lon="9.237722146074876"><ele>108.0</ele><time>2026-04-11T08:15:52Z</time></trkpt><trkpt lat="45.426587728243675" lon="9.237831492961183"><ele>107.49999999999999</ele><time>2026-04-11T08:15:53Z</time></trkpt><trkpt lat="45.426545496969894" lon="9.237926668774632"><ele>107.0</ele><time>2026-04-11T08:15:54Z</time></trkpt><trkpt lat="45.42648940930816" lon="9.238006771241752"><ele>106.99999999999999</ele><time>2026-04-11T08:15:55Z</time></trkpt><trkpt lat="45.426422028085746" lon="9.238072847760042"><ele>107.0</ele><time>2026-04-11T08:15:56Z</time></trkpt><trkpt lat="45.42634634271119" lon="9.238126469110648"><ele>107.0</ele><time>2026-04-11T08:15:57Z</time></trkpt><trkpt lat="45.42626878676139" lon="9.23816583279285"><ele>107.0</ele><time>2026-04-11T08:15:58Z</time></trkpt><trkpt lat="45.4261975708461" lon="9.238168251005956"><ele>106.99999999999999</ele><time>2026-04-11T08:15:59Z</time></trkpt><trkpt lat="45.42612228377508" lon="9.23814929755485"><ele>107.0</ele><time>2026-04-11T08:16:00Z</time></trkpt><trkpt lat="45.42603130264113" lon="9.238113139362605"><ele>106.83333333333333</ele><time>2026-04-11T08:16:01Z</time></trkpt><trkpt lat="45.42592530373216" lon="9.238076788804431"><ele>106.66666666666666</ele><time>2026-04-11T08:16:02Z</time></trkpt><trkpt lat="45.42582517703171" lon="9.238048310817481"><ele>106.5</ele><time>2026-04-11T08:16:03Z</time></trkpt><trkpt lat="45.42573850695577" lon="9.238024489730233"><ele>106.33333333333334</ele><time>2026-04-11T08:16:04Z</time></trkpt><trkpt lat="45.42566207207088" lon="9.238017800256312"><ele>106.16666666666667</ele><time>2026-04-11T08:16:05Z</time></trkpt><trkpt lat="45.42559064705143" lon="9.238032445736192"><ele>106.0</ele><time>2026-04-11T08:16:06Z</time></trkpt><trkpt lat="45.42552500647504" lon="9.238070873595179"><ele>105.83333333333334</ele><time>2026-04-11T08:16:07Z</time></trkpt><trkpt lat="45.42546688559382" lon="9.23812445730624"><ele>105.66666666666667</ele><time>2026-04-11T08:16:08Z</time></trkpt><trkpt lat="45.42542099696553" lon="9.23819037463942"><ele>105.5</ele><time>2026-04-11T08:16:09Z</time></trkpt><trkpt lat="45.42536372065921" lon="9.238353518495158"><ele>105.33333333333334</ele><time>2026-04-11T08:16:11Z</time></trkpt><trkpt lat="45.425345525326264" lon="9.238445760143716"><ele>105.16666666666667</ele><time>2026-04-11T08:16:12Z</time></trkpt><trkpt lat="45.42533621718116" lon="9.238541600967807"><ele>105.0</ele><time>2026-04-11T08:16:13Z</time></trkpt><trkpt lat="45.425340397775365" lon="9.238661976933283"><ele>105.0</ele><time>2026-04-11T08:16:14Z</time></trkpt><trkpt lat="45.42534653662253" lon="9.23880287588225"><ele>105.0</ele><time>2026-04-11T08:16:15Z</time></trkpt><trkpt lat="45.425344210738935" lon="9.238967505780195"><ele>105.0</ele><time>2026-04-11T08:16:16Z</time></trkpt><trkpt lat="45.42532651849186" lon="9.23912898667752"><ele>105.0</ele><time>2026-04-11T08:16:17Z</time></trkpt><trkpt lat="45.42530350009676" lon="9.23927335260208"><ele>105.0</ele><time>2026-04-11T08:16:18Z</time></trkpt><trkpt lat="45.42528280404487" lon="9.239395298297167"><ele>104.66666666666667</ele><time>2026-04-11T08:16:19Z</time></trkpt><trkpt lat="45.42526924213704" lon="9.23949702744468"><ele>104.33333333333334</ele><time>2026-04-11T08:16:20Z</time></trkpt><trkpt lat="45.42521994589074" lon="9.239641036855936"><ele>104.0</ele><time>2026-04-11T08:16:22Z</time></trkpt><trkpt lat="45.425177696508506" lon="9.239715487964164"><ele>103.66666666666667</ele><time>2026-04-11T08:16:24Z</time></trkpt><trkpt lat="45.42521003542655" lon="9.239824227898213"><ele>103.33333333333334</ele><time>2026-04-11T08:16:29Z</time></trkpt><trkpt lat="45.42525138821092" lon="9.239896388490603"><ele>103.0</ele><time>2026-04-11T08:16:32Z</time></trkpt><trkpt lat="45.425220478402565" lon="9.239980607436824"><ele>103.0</ele><time>2026-04-11T08:16:41Z</time></trkpt><trkpt lat="45.42511989959346" lon="9.239985179999069"><ele>103.0</ele><time>2026-04-11T08:16:43Z</time></trkpt><trkpt lat="45.425047619090854" lon="9.239964811535714"><ele>103.0</ele><time>2026-04-11T08:16:44Z</time></trkpt><trkpt lat="45.42495419418603" lon="9.239936567888412"><ele>103.0</ele><time>2026-04-11T08:16:45Z</time></trkpt><trkpt lat="45.42485822869305" lon="9.239911766551577"><ele>103.0</ele><time>2026-04-11T08:16:46Z</time></trkpt><trkpt lat="45.424743458929804" lon="9.239885210469236"><ele>103.25</ele><time>2026-04-11T08:16:47Z</time></trkpt><trkpt lat="45.42462409200451" lon="9.23985607900233"><ele>103.5</ele><time>2026-04-11T08:16:48Z</time></trkpt><trkpt lat="45.42450224022215" lon="9.239823871192025"><ele>103.75</ele><time>2026-04-11T08:16:49Z</time></trkpt><trkpt lat="45.42437477380353" lon="9.239795224074152"><ele>104.0</ele><time>2026-04-11T08:16:50Z</time></trkpt><trkpt lat="45.424238349309164" lon="9.23976337600866"><ele>104.0</ele><time>2026-04-11T08:16:51Z</time></trkpt><trkpt lat="45.42408966643232" lon="9.239725479031502"><ele>104.0</ele><time>2026-04-11T08:16:52Z</time></trkpt><trkpt lat="45.423936162872806" lon="9.239686833366564"><ele>104.0</ele><time>2026-04-11T08:16:53Z</time></trkpt><trkpt lat="45.42378353876542" lon="9.23964893213669"><ele>104.66666666666666</ele><time>2026-04-11T08:16:54Z</time></trkpt><trkpt lat="45.423630126785945" lon="9.239613761819381"><ele>105.33333333333334</ele><time>2026-04-11T08:16:55Z</time></trkpt><trkpt lat="45.423471834192185" lon="9.239577879223482"><ele>106.0</ele><time>2026-04-11T08:16:56Z</time></trkpt><trkpt lat="45.423310650581776" lon="9.239541663887753"><ele>106.0</ele><time>2026-04-11T08:16:57Z</time></trkpt><trkpt lat="45.42314850676233" lon="9.239502788957347"><ele>106.0</ele><time>2026-04-11T08:16:58Z</time></trkpt><trkpt lat="45.42298712858969" lon="9.239462253390657"><ele>106.0</ele><time>2026-04-11T08:16:59Z</time></trkpt><trkpt lat="45.42282319032263" lon="9.239422592860171"><ele>105.0</ele><time>2026-04-11T08:17:00Z</time></trkpt><trkpt lat="45.42265479031677" lon="9.239380153260768"><ele>104.0</ele><time>2026-04-11T08:17:01Z</time></trkpt><trkpt lat="45.4224842599525" lon="9.239337080057831"><ele>103.0</ele><time>2026-04-11T08:17:02Z</time></trkpt><trkpt lat="45.42231274125739" lon="9.239294578237216"><ele>103.66666666666667</ele><time>2026-04-11T08:17:03Z</time></trkpt><trkpt lat="45.42214182867576" lon="9.239252706422818"><ele>104.33333333333334</ele><time>2026-04-11T08:17:04Z</time></trkpt><trkpt lat="45.42196898384805" lon="9.239211449366715"><ele>105.0</ele><time>2026-04-11T08:17:05Z</time></trkpt><trkpt lat="45.42179392916638" lon="9.239172547695937"><ele>105.0</ele><time>2026-04-11T08:17:06Z</time></trkpt><trkpt lat="45.421624402463486" lon="9.239132518499519"><ele>105.0</ele><time>2026-04-11T08:17:07Z</time></trkpt><trkpt lat="45.42146480188846" lon="9.23909463771083"><ele>105.0</ele><time>2026-04-11T08:17:08Z</time></trkpt><trkpt lat="45.42131610732758" lon="9.239056843745123"><ele>104.5</ele><time>2026-04-11T08:17:09Z</time></trkpt><trkpt lat="45.42117877196593" lon="9.239021236451153"><ele>104.0</ele><time>2026-04-11T08:17:10Z</time></trkpt><trkpt lat="45.4210485931604" lon="9.238993405174947"><ele>103.5</ele><time>2026-04-11T08:17:11.001Z</time></trkpt><trkpt lat="45.420929669209116" lon="9.238964016872393"><ele>103.0</ele><time>2026-04-11T08:17:12.001Z</time></trkpt><trkpt lat="45.42080876179953" lon="9.238933845533216"><ele>103.00000000000001</ele><time>2026-04-11T08:17:13.001Z</time></trkpt><trkpt lat="45.420699643090785" lon="9.238906417306906"><ele>103.0</ele><time>2026-04-11T08:17:14.001Z</time></trkpt><trkpt lat="45.42060475624246" lon="9.238882396007877"><ele>103.0</ele><time>2026-04-11T08:17:15.001Z</time></trkpt><trkpt lat="45.420520777960434" lon="9.238841144761878"><ele>103.0</ele><time>2026-04-11T08:17:16.001Z</time></trkpt><trkpt lat="45.42046956381773" lon="9.238781776535168"><ele>103.00000000000001</ele><time>2026-04-11T08:17:17.001Z</time></trkpt><trkpt lat="45.42042551100473" lon="9.238710686678498"><ele>103.0</ele><time>2026-04-11T08:17:18.001Z</time></trkpt><trkpt lat="45.42038037184048" lon="9.238647740373107"><ele>103.0</ele><time>2026-04-11T08:17:19.001Z</time></trkpt><trkpt lat="45.42026290781025" lon="9.238699675650604"><ele>103.0</ele><time>2026-04-11T08:17:21.001Z</time></trkpt><trkpt lat="45.42014715999189" lon="9.238750323995719"><ele>103.0</ele><time>2026-04-11T08:17:23.001Z</time></trkpt><trkpt lat="45.4200520012205" lon="9.23873680928168"><ele>103.0</ele><time>2026-04-11T08:17:24.001Z</time></trkpt><trkpt lat="45.41994674419628" lon="9.23868629173464"><ele>103.0</ele><time>2026-04-11T08:17:25.001Z</time></trkpt><trkpt lat="45.4198346882356" lon="9.238620274830447"><ele>103.0</ele><time>2026-04-11T08:17:26.001Z</time></trkpt><trkpt lat="45.419713398568824" lon="9.238542515010305"><ele>103.0</ele><time>2026-04-11T08:17:27.001Z</time></trkpt><trkpt lat="45.41959136921077" lon="9.23844316152045"><ele>103.0</ele><time>2026-04-11T08:17:28.001Z</time></trkpt><trkpt lat="45.41947364334137" lon="9.238331267290022"><ele>103.0</ele><time>2026-04-11T08:17:29.001Z</time></trkpt><trkpt lat="45.419356015046795" lon="9.238223123191263"><ele>103.0</ele><time>2026-04-11T08:17:30.001Z</time></trkpt><trkpt lat="45.41923683754763" lon="9.238112670165837"><ele>103.0</ele><time>2026-04-11T08:17:31.001Z</time></trkpt><trkpt lat="45.41911874157708" lon="9.238002845537727"><ele>103.0</ele><time>2026-04-11T08:17:32.001Z</time></trkpt><trkpt lat="45.41900553300914" lon="9.237892760797036"><ele>103.0</ele><time>2026-04-11T08:17:33.001Z</time></trkpt><trkpt lat="45.41889704555874" lon="9.237787367034084"><ele>103.0</ele><time>2026-04-11T08:17:34.001Z</time></trkpt><trkpt lat="45.41878760872069" lon="9.237684602527322"><ele>103.0</ele><time>2026-04-11T08:17:35.001Z</time></trkpt><trkpt lat="45.41867486588861" lon="9.237578204820592"><ele>103.0</ele><time>2026-04-11T08:17:36.001Z</time></trkpt><trkpt lat="45.41856799016897" lon="9.237481505797547"><ele>103.0</ele><time>2026-04-11T08:17:37.001Z</time></trkpt><trkpt lat="45.41846776482672" lon="9.237390657684761"><ele>103.0</ele><time>2026-04-11T08:17:38.001Z</time></trkpt><trkpt lat="45.41837454679212" lon="9.23729972837934"><ele>103.0</ele><time>2026-04-11T08:17:39.001Z</time></trkpt><trkpt lat="45.41828477889595" lon="9.237211488191221"><ele>103.0</ele><time>2026-04-11T08:17:40.001Z</time></trkpt><trkpt lat="45.41820017093456" lon="9.237128037676396"><ele>103.0</ele><time>2026-04-11T08:17:41Z</time></trkpt><trkpt lat="45.41811978494249" lon="9.237047725285779"><ele>102.60000000000001</ele><time>2026-04-11T08:17:42Z</time></trkpt><trkpt lat="45.418036459582574" lon="9.236961398609015"><ele>102.2</ele><time>2026-04-11T08:17:43Z</time></trkpt><trkpt lat="45.4179511426334" lon="9.236871742799826"><ele>101.8</ele><time>2026-04-11T08:17:44Z</time></trkpt><trkpt lat="45.4178621165641" lon="9.236787272830208"><ele>101.4</ele><time>2026-04-11T08:17:45Z</time></trkpt><trkpt lat="45.41776667039917" lon="9.236700996198381"><ele>101.0</ele><time>2026-04-11T08:17:46Z</time></trkpt><trkpt lat="45.41766845895889" lon="9.236609536065878"><ele>101.0</ele><time>2026-04-11T08:17:47Z</time></trkpt><trkpt lat="45.41756748024778" lon="9.236513697358486"><ele>101.0</ele><time>2026-04-11T08:17:48Z</time></trkpt><trkpt lat="45.4174674751213" lon="9.23641628344526"><ele>101.0</ele><time>2026-04-11T08:17:49Z</time></trkpt><trkpt lat="45.41736940579282" lon="9.236317243872602"><ele>101.0</ele><time>2026-04-11T08:17:50Z</time></trkpt><trkpt lat="45.4172690910411" lon="9.236218595858713"><ele>101.0</ele><time>2026-04-11T08:17:51Z</time></trkpt><trkpt lat="45.41716633399978" lon="9.236122296580977"><ele>101.0</ele><time>2026-04-11T08:17:52Z</time></trkpt><trkpt lat="45.417064611730126" lon="9.236024025425642"><ele>101.0</ele><time>2026-04-11T08:17:53Z</time></trkpt><trkpt lat="45.41696390110252" lon="9.235923138634174"><ele>101.0</ele><time>2026-04-11T08:17:54Z</time></trkpt><trkpt lat="45.41686976166922" lon="9.235827644292646"><ele>101.0</ele><time>2026-04-11T08:17:55Z</time></trkpt><trkpt lat="45.41677653043751" lon="9.23573477811056"><ele>101.0</ele><time>2026-04-11T08:17:56Z</time></trkpt><trkpt lat="45.4166815378756" lon="9.235638125117703"><ele>101.0</ele><time>2026-04-11T08:17:57Z</time></trkpt><trkpt lat="45.41658626912748" lon="9.235547656560533"><ele>101.0</ele><time>2026-04-11T08:17:58Z</time></trkpt><trkpt lat="45.41649392288061" lon="9.235457724815308"><ele>101.0</ele><time>2026-04-11T08:17:59Z</time></trkpt><trkpt lat="45.416400042501756" lon="9.235364395953603"><ele>101.0</ele><time>2026-04-11T08:18:00Z</time></trkpt><trkpt lat="45.416307506902754" lon="9.235270131134522"><ele>101.0</ele><time>2026-04-11T08:18:01Z</time></trkpt><trkpt lat="45.41621574555795" lon="9.235171466014128"><ele>101.0</ele><time>2026-04-11T08:18:02Z</time></trkpt><trkpt lat="45.41612318888556" lon="9.235066555325231"><ele>101.25</ele><time>2026-04-11T08:18:03Z</time></trkpt><trkpt lat="45.416031303143676" lon="9.23495785994573"><ele>101.5</ele><time>2026-04-11T08:18:04Z</time></trkpt><trkpt lat="45.41593776889192" lon="9.23484370917154"><ele>101.75</ele><time>2026-04-11T08:18:05Z</time></trkpt><trkpt lat="45.415845639299434" lon="9.234727259497141"><ele>102.0</ele><time>2026-04-11T08:18:06Z</time></trkpt><trkpt lat="45.415752144464854" lon="9.234607378437865"><ele>102.0</ele><time>2026-04-11T08:18:07Z</time></trkpt><trkpt lat="45.415654615667755" lon="9.234486783636584"><ele>102.0</ele><time>2026-04-11T08:18:08Z</time></trkpt><trkpt lat="45.41555496762154" lon="9.234367172665218"><ele>102.0</ele><time>2026-04-11T08:18:09Z</time></trkpt><trkpt lat="45.415458162293135" lon="9.234245057345333"><ele>102.0</ele><time>2026-04-11T08:18:10.001Z</time></trkpt><trkpt lat="45.41535810513952" lon="9.234119387745015"><ele>102.0</ele><time>2026-04-11T08:18:11.001Z</time></trkpt><trkpt lat="45.41525802506301" lon="9.233992992756923"><ele>102.0</ele><time>2026-04-11T08:18:12.001Z</time></trkpt><trkpt lat="45.4151617243214" lon="9.233868166699482"><ele>102.0</ele><time>2026-04-11T08:18:13.001Z</time></trkpt><trkpt lat="45.41507019213555" lon="9.233735796932185"><ele>102.0</ele><time>2026-04-11T08:18:14.001Z</time></trkpt><trkpt lat="45.414989668350906" lon="9.233593271213477"><ele>102.75</ele><time>2026-04-11T08:18:15.001Z</time></trkpt><trkpt lat="45.414916298853576" lon="9.23344123004506"><ele>103.5</ele><time>2026-04-11T08:18:16.001Z</time></trkpt><trkpt lat="45.41484194010317" lon="9.233293701155791"><ele>104.25</ele><time>2026-04-11T08:18:17Z</time></trkpt><trkpt lat="45.414766590607314" lon="9.233154419628631"><ele>105.0</ele><time>2026-04-11T08:18:18Z</time></trkpt><trkpt lat="45.41468574644062" lon="9.233017161272873"><ele>104.75</ele><time>2026-04-11T08:18:19Z</time></trkpt><trkpt lat="45.41460253458211" lon="9.232880200715716"><ele>104.5</ele><time>2026-04-11T08:18:20Z</time></trkpt><trkpt lat="45.41451732672053" lon="9.232743777473425"><ele>104.25</ele><time>2026-04-11T08:18:21Z</time></trkpt><trkpt lat="45.41443065623409" lon="9.232603868816694"><ele>104.0</ele><time>2026-04-11T08:18:22Z</time></trkpt><trkpt lat="45.414342494040845" lon="9.232459561406413"><ele>102.66666666666666</ele><time>2026-04-11T08:18:23Z</time></trkpt><trkpt lat="45.41424811616004" lon="9.232305207979335"><ele>101.33333333333334</ele><time>2026-04-11T08:18:24Z</time></trkpt><trkpt lat="45.41415065160475" lon="9.232139027052767"><ele>100.0</ele><time>2026-04-11T08:18:25Z</time></trkpt><trkpt lat="45.41404882878879" lon="9.231968760169242"><ele>100.0</ele><time>2026-04-11T08:18:26Z</time></trkpt><trkpt lat="45.413945273750194" lon="9.231800132711369"><ele>100.0</ele><time>2026-04-11T08:18:27Z</time></trkpt><trkpt lat="45.41385238557524" lon="9.231645081288589"><ele>100.0</ele><time>2026-04-11T08:18:28Z</time></trkpt><trkpt lat="45.41377309077914" lon="9.231513547066058"><ele>100.0</ele><time>2026-04-11T08:18:29Z</time></trkpt><trkpt lat="45.41371216880688" lon="9.231414229970582"><ele>100.4</ele><time>2026-04-11T08:18:30Z</time></trkpt><trkpt lat="45.41365620082439" lon="9.23132622499527"><ele>100.8</ele><time>2026-04-11T08:18:31Z</time></trkpt><trkpt lat="45.41359634249611" lon="9.231239683986614"><ele>101.19999999999999</ele><time>2026-04-11T08:18:32Z</time></trkpt><trkpt lat="45.41352949388493" lon="9.231147762831593"><ele>101.6</ele><time>2026-04-11T08:18:33Z</time></trkpt><trkpt lat="45.41345631404703" lon="9.231050504038869"><ele>102.0</ele><time>2026-04-11T08:18:34Z</time></trkpt><trkpt lat="45.4133769344802" lon="9.230942720640435"><ele>102.0</ele><time>2026-04-11T08:18:35Z</time></trkpt><trkpt lat="45.41329503206789" lon="9.230826992076938"><ele>102.0</ele><time>2026-04-11T08:18:36Z</time></trkpt><trkpt lat="45.413209966668035" lon="9.230706878944632"><ele>102.0</ele><time>2026-04-11T08:18:37Z</time></trkpt><trkpt lat="45.4131258688591" lon="9.2305782499412"><ele>102.0</ele><time>2026-04-11T08:18:38Z</time></trkpt><trkpt lat="45.41304502452036" lon="9.230441560901795"><ele>102.25</ele><time>2026-04-11T08:18:39Z</time></trkpt><trkpt lat="45.41296650214904" lon="9.230294195925094"><ele>102.5</ele><time>2026-04-11T08:18:40Z</time></trkpt><trkpt lat="45.41289037785293" lon="9.230141087725688"><ele>102.75</ele><time>2026-04-11T08:18:41Z</time></trkpt><trkpt lat="45.41281630162874" lon="9.229985644954096"><ele>103.0</ele><time>2026-04-11T08:18:42Z</time></trkpt><trkpt lat="45.4127408759448" lon="9.229828536329359"><ele>102.5</ele><time>2026-04-11T08:18:43Z</time></trkpt><trkpt lat="45.412662530237384" lon="9.229666982172931"><ele>102.0</ele><time>2026-04-11T08:18:44Z</time></trkpt><trkpt lat="45.412580926980255" lon="9.22950053686891"><ele>101.5</ele><time>2026-04-11T08:18:45Z</time></trkpt><trkpt lat="45.412499524862454" lon="9.229327385676582"><ele>101.0</ele><time>2026-04-11T08:18:46Z</time></trkpt><trkpt lat="45.41241879435608" lon="9.229149538103533"><ele>101.25</ele><time>2026-04-11T08:18:47Z</time></trkpt><trkpt lat="45.41234311721388" lon="9.228967296216961"><ele>101.5</ele><time>2026-04-11T08:18:48Z</time></trkpt><trkpt lat="45.412288705995785" lon="9.228787176257331"><ele>101.75</ele><time>2026-04-11T08:18:49Z</time></trkpt><trkpt lat="45.412209353093175" lon="9.228631794487807"><ele>102.0</ele><time>2026-04-11T08:18:50Z</time></trkpt><trkpt lat="45.41211693739543" lon="9.228473274251924"><ele>101.66666666666666</ele><time>2026-04-11T08:18:51Z</time></trkpt><trkpt lat="45.41203049653936" lon="9.228291267142936"><ele>101.33333333333333</ele><time>2026-04-11T08:18:52Z</time></trkpt><trkpt lat="45.41193734465708" lon="9.22810054311551"><ele>101.0</ele><time>2026-04-11T08:18:53Z</time></trkpt><trkpt lat="45.4118392360238" lon="9.227907752843343"><ele>101.0</ele><time>2026-04-11T08:18:54Z</time></trkpt><trkpt lat="45.41173797122627" lon="9.227703023318426"><ele>101.0</ele><time>2026-04-11T08:18:55Z</time></trkpt><trkpt lat="45.411638943305526" lon="9.227489697231897"><ele>101.0</ele><time>2026-04-11T08:18:56Z</time></trkpt><trkpt lat="45.41154747363058" lon="9.227266277024315"><ele>101.0</ele><time>2026-04-11T08:18:57Z</time></trkpt><trkpt lat="45.4114591684825" lon="9.227041620730297"><ele>101.0</ele><time>2026-04-11T08:18:58Z</time></trkpt><trkpt lat="45.41136629533531" lon="9.226819931081762"><ele>101.0</ele><time>2026-04-11T08:18:59Z</time></trkpt><trkpt lat="45.41126827360698" lon="9.226602445932114"><ele>101.66666666666666</ele><time>2026-04-11T08:19:00Z</time></trkpt><trkpt lat="45.41116360260142" lon="9.226393910572154"><ele>102.33333333333334</ele><time>2026-04-11T08:19:01Z</time></trkpt><trkpt lat="45.41106105014976" lon="9.226192401853037"><ele>103.0</ele><time>2026-04-11T08:19:02Z</time></trkpt><trkpt lat="45.410964132786425" lon="9.225987367471397"><ele>103.0</ele><time>2026-04-11T08:19:03Z</time></trkpt><trkpt lat="45.4108708390196" lon="9.225776962928366"><ele>103.0</ele><time>2026-04-11T08:19:04Z</time></trkpt><trkpt lat="45.410785257235595" lon="9.225564507069938"><ele>103.0</ele><time>2026-04-11T08:19:05Z</time></trkpt><trkpt lat="45.41069666595219" lon="9.225355710678777"><ele>103.0</ele><time>2026-04-11T08:19:06Z</time></trkpt><trkpt lat="45.41060434378606" lon="9.22515053853825"><ele>103.0</ele><time>2026-04-11T08:19:07Z</time></trkpt><trkpt lat="45.41050547074258" lon="9.224950293700038"><ele>103.0</ele><time>2026-04-11T08:19:08Z</time></trkpt><trkpt lat="45.41040478997526" lon="9.224751160148982"><ele>103.33333333333334</ele><time>2026-04-11T08:19:09Z</time></trkpt><trkpt lat="45.410304883876094" lon="9.224548980672719"><ele>103.66666666666666</ele><time>2026-04-11T08:19:10Z</time></trkpt><trkpt lat="45.4102042266335" lon="9.224343134319984"><ele>104.0</ele><time>2026-04-11T08:19:11Z</time></trkpt><trkpt lat="45.41010328863374" lon="9.22413901725689"><ele>104.0</ele><time>2026-04-11T08:19:12Z</time></trkpt><trkpt lat="45.41000746711034" lon="9.223941371243445"><ele>104.0</ele><time>2026-04-11T08:19:13Z</time></trkpt><trkpt lat="45.40992334408317" lon="9.223759501725198"><ele>104.0</ele><time>2026-04-11T08:19:14Z</time></trkpt><trkpt lat="45.40984529811274" lon="9.22358555260538"><ele>104.0</ele><time>2026-04-11T08:19:15Z</time></trkpt><trkpt lat="45.40978014396484" lon="9.223430749012374"><ele>104.0</ele><time>2026-04-11T08:19:16Z</time></trkpt><trkpt lat="45.4097208484464" lon="9.223299824291558"><ele>104.0</ele><time>2026-04-11T08:19:17Z</time></trkpt><trkpt lat="45.40966533865869" lon="9.223198531972297"><ele>104.0</ele><time>2026-04-11T08:19:18Z</time></trkpt><trkpt lat="45.40959009854635" lon="9.223155596783224"><ele>104.0</ele><time>2026-04-11T08:19:19Z</time></trkpt><trkpt lat="45.40950771850621" lon="9.223175673039801"><ele>104.4</ele><time>2026-04-11T08:19:20Z</time></trkpt><trkpt lat="45.40943190038103" lon="9.223259773360303"><ele>104.80000000000001</ele><time>2026-04-11T08:19:21Z</time></trkpt><trkpt lat="45.40937209926712" lon="9.22338104007147"><ele>105.19999999999999</ele><time>2026-04-11T08:19:22Z</time></trkpt><trkpt lat="45.409313615936256" lon="9.223522620875755"><ele>105.6</ele><time>2026-04-11T08:19:23Z</time></trkpt><trkpt lat="45.40924326556457" lon="9.2236737454452"><ele>106.0</ele><time>2026-04-11T08:19:24Z</time></trkpt><trkpt lat="45.4091674690575" lon="9.223835674684068"><ele>105.66666666666667</ele><time>2026-04-11T08:19:25Z</time></trkpt><trkpt lat="45.409084479470486" lon="9.224002885838631"><ele>105.33333333333334</ele><time>2026-04-11T08:19:26Z</time></trkpt><trkpt lat="45.408985005483174" lon="9.22416833035779"><ele>105.0</ele><time>2026-04-11T08:19:27Z</time></trkpt><trkpt lat="45.40887612539332" lon="9.22433207979474"><ele>104.66666666666666</ele><time>2026-04-11T08:19:28Z</time></trkpt><trkpt lat="45.408765991181276" lon="9.224496183413688"><ele>104.33333333333333</ele><time>2026-04-11T08:19:29Z</time></trkpt><trkpt lat="45.40865657400722" lon="9.22466567760944"><ele>104.0</ele><time>2026-04-11T08:19:30Z</time></trkpt><trkpt lat="45.40854188251856" lon="9.224840014588782"><ele>104.0</ele><time>2026-04-11T08:19:31Z</time></trkpt><trkpt lat="45.408419445339405" lon="9.22501506902654"><ele>104.0</ele><time>2026-04-11T08:19:32Z</time></trkpt><trkpt lat="45.408287300409604" lon="9.22518861135816"><ele>104.0</ele><time>2026-04-11T08:19:33Z</time></trkpt><trkpt lat="45.40814285406187" lon="9.22535187314809"><ele>103.33333333333333</ele><time>2026-04-11T08:19:34Z</time></trkpt><trkpt lat="45.40798273501592" lon="9.225499220430592"><ele>102.66666666666666</ele><time>2026-04-11T08:19:35Z</time></trkpt><trkpt lat="45.407818251046656" lon="9.225654990641615"><ele>102.0</ele><time>2026-04-11T08:19:36Z</time></trkpt><trkpt lat="45.40766269765664" lon="9.225839101443302"><ele>102.33333333333334</ele><time>2026-04-11T08:19:37Z</time></trkpt><trkpt lat="45.40752370272013" lon="9.226050861790707"><ele>102.66666666666667</ele><time>2026-04-11T08:19:38Z</time></trkpt><trkpt lat="45.40739636964895" lon="9.226280164024065"><ele>103.0</ele><time>2026-04-11T08:19:39Z</time></trkpt><trkpt lat="45.407285550868345" lon="9.226516257869449"><ele>103.33333333333334</ele><time>2026-04-11T08:19:40Z</time></trkpt><trkpt lat="45.40716013823086" lon="9.226734564604183"><ele>103.66666666666666</ele><time>2026-04-11T08:19:41Z</time></trkpt><trkpt lat="45.4070110782925" lon="9.226923470140825"><ele>104.0</ele><time>2026-04-11T08:19:42Z</time></trkpt><trkpt lat="45.40685525261248" lon="9.227098809923872"><ele>104.0</ele><time>2026-04-11T08:19:43Z</time></trkpt><trkpt lat="45.406708835344794" lon="9.227260199002252"><ele>104.0</ele><time>2026-04-11T08:19:44Z</time></trkpt><trkpt lat="45.40656756393683" lon="9.227411473688608"><ele>104.0</ele><time>2026-04-11T08:19:45Z</time></trkpt><trkpt lat="45.40643093892944" lon="9.227568659118788"><ele>104.33333333333333</ele><time>2026-04-11T08:19:46Z</time></trkpt><trkpt lat="45.40629924518322" lon="9.227734751419012"><ele>104.66666666666666</ele><time>2026-04-11T08:19:47Z</time></trkpt><trkpt lat="45.40617550527866" lon="9.227915273995754"><ele>105.0</ele><time>2026-04-11T08:19:48Z</time></trkpt><trkpt lat="45.406049753057054" lon="9.22811001730937"><ele>104.33333333333334</ele><time>2026-04-11T08:19:49Z</time></trkpt><trkpt lat="45.40592644088349" lon="9.228299690729143"><ele>103.66666666666667</ele><time>2026-04-11T08:19:50Z</time></trkpt><trkpt lat="45.40578800030281" lon="9.228472731407518"><ele>103.0</ele><time>2026-04-11T08:19:51Z</time></trkpt><trkpt lat="45.405639641391" lon="9.228629470864524"><ele>104.66666666666667</ele><time>2026-04-11T08:19:52Z</time></trkpt><trkpt lat="45.40548631149521" lon="9.228773158527847"><ele>106.33333333333334</ele><time>2026-04-11T08:19:53Z</time></trkpt><trkpt lat="45.405321750526696" lon="9.228883686572996"><ele>108.0</ele><time>2026-04-11T08:19:54Z</time></trkpt><trkpt lat="45.40516082161633" lon="9.22893936849335"><ele>107.0</ele><time>2026-04-11T08:19:55Z</time></trkpt><trkpt lat="45.405009801188875" lon="9.22897613032823"><ele>106.0</ele><time>2026-04-11T08:19:56Z</time></trkpt><trkpt lat="45.404868112294814" lon="9.228994049274236"><ele>105.0</ele><time>2026-04-11T08:19:57Z</time></trkpt><trkpt lat="45.40471809584866" lon="9.228995808159473"><ele>104.0</ele><time>2026-04-11T08:19:58Z</time></trkpt><trkpt lat="45.404561780219204" lon="9.229014414961247"><ele>103.66666666666666</ele><time>2026-04-11T08:19:59Z</time></trkpt><trkpt lat="45.40440307432944" lon="9.229043272729196"><ele>103.33333333333334</ele><time>2026-04-11T08:20:00Z</time></trkpt><trkpt lat="45.4042435480849" lon="9.229097948318481"><ele>103.0</ele><time>2026-04-11T08:20:01Z</time></trkpt><trkpt lat="45.40410510775975" lon="9.229180764219784"><ele>103.0</ele><time>2026-04-11T08:20:02Z</time></trkpt><trkpt lat="45.403974576932924" lon="9.229286789029002"><ele>103.0</ele><time>2026-04-11T08:20:03Z</time></trkpt><trkpt lat="45.40384403278129" lon="9.22940797094901"><ele>103.0</ele><time>2026-04-11T08:20:04Z</time></trkpt><trkpt lat="45.403709533379555" lon="9.229529361817727"><ele>103.0</ele><time>2026-04-11T08:20:05Z</time></trkpt><trkpt lat="45.403572886799225" lon="9.229664123697233"><ele>103.0</ele><time>2026-04-11T08:20:06Z</time></trkpt><trkpt lat="45.4034370382245" lon="9.22979485415061"><ele>103.0</ele><time>2026-04-11T08:20:07Z</time></trkpt><trkpt lat="45.40328051349063" lon="9.229889636960477"><ele>103.0</ele><time>2026-04-11T08:20:08Z</time></trkpt><trkpt lat="45.40313094849871" lon="9.229968387031372"><ele>103.0</ele><time>2026-04-11T08:20:09Z</time></trkpt><trkpt lat="45.40298149001756" lon="9.230023962009847"><ele>103.0</ele><time>2026-04-11T08:20:10Z</time></trkpt><trkpt lat="45.402824444893696" lon="9.230069414803577"><ele>103.33333333333334</ele><time>2026-04-11T08:20:11Z</time></trkpt><trkpt lat="45.40266772403691" lon="9.230127294461278"><ele>103.66666666666666</ele><time>2026-04-11T08:20:12Z</time></trkpt><trkpt lat="45.402508306552214" lon="9.230189529153614"><ele>104.0</ele><time>2026-04-11T08:20:13Z</time></trkpt><trkpt lat="45.402346218025805" lon="9.230250366035953"><ele>104.0</ele><time>2026-04-11T08:20:14Z</time></trkpt><trkpt lat="45.40216972697375" lon="9.230312197695723"><ele>104.0</ele><time>2026-04-11T08:20:15Z</time></trkpt><trkpt lat="45.40197907954268" lon="9.230382116693804"><ele>104.0</ele><time>2026-04-11T08:20:16Z</time></trkpt><trkpt lat="45.401808034817684" lon="9.23044548029502"><ele>103.75</ele><time>2026-04-11T08:20:17Z</time></trkpt><trkpt lat="45.40166015867597" lon="9.230517609881987"><ele>103.5</ele><time>2026-04-11T08:20:18Z</time></trkpt><trkpt lat="45.40152706866193" lon="9.230606509556347"><ele>103.25</ele><time>2026-04-11T08:20:19Z</time></trkpt><trkpt lat="45.401416190867266" lon="9.230716314806477"><ele>103.0</ele><time>2026-04-11T08:20:20Z</time></trkpt><trkpt lat="45.40131902258513" lon="9.230846990463524"><ele>103.0</ele><time>2026-04-11T08:20:21Z</time></trkpt><trkpt lat="45.40123318837615" lon="9.23097261930549"><ele>103.0</ele><time>2026-04-11T08:20:22Z</time></trkpt><trkpt lat="45.401143111536136" lon="9.231082849531164"><ele>103.0</ele><time>2026-04-11T08:20:23Z</time></trkpt><trkpt lat="45.40104003783376" lon="9.231168355025234"><ele>103.0</ele><time>2026-04-11T08:20:24Z</time></trkpt><trkpt lat="45.40093548217203" lon="9.231266738806733"><ele>103.0</ele><time>2026-04-11T08:20:25Z</time></trkpt><trkpt lat="45.40083106744531" lon="9.231366976436274"><ele>103.0</ele><time>2026-04-11T08:20:26Z</time></trkpt><trkpt lat="45.40072509455875" lon="9.231466902422852"><ele>103.0</ele><time>2026-04-11T08:20:27Z</time></trkpt><trkpt lat="45.40061666428921" lon="9.23157514664726"><ele>103.0</ele><time>2026-04-11T08:20:28Z</time></trkpt><trkpt lat="45.40049787277811" lon="9.231686821731907"><ele>103.2</ele><time>2026-04-11T08:20:29Z</time></trkpt><trkpt lat="45.400389517655654" lon="9.231791801130592"><ele>103.4</ele><time>2026-04-11T08:20:30Z</time></trkpt><trkpt lat="45.40029793549962" lon="9.231880100240096"><ele>103.60000000000001</ele><time>2026-04-11T08:20:31Z</time></trkpt><trkpt lat="45.400236506892945" lon="9.231935857462462"><ele>103.80000000000001</ele><time>2026-04-11T08:20:32Z</time></trkpt><trkpt lat="45.40020068896964" lon="9.23177079586108"><ele>104.0</ele><time>2026-04-11T08:20:37Z</time></trkpt><trkpt lat="45.40016919546583" lon="9.231689419887688"><ele>103.99999999999999</ele><time>2026-04-11T08:20:38Z</time></trkpt><trkpt lat="45.400160137905104" lon="9.23159551683793"><ele>104.0</ele><time>2026-04-11T08:20:39Z</time></trkpt><trkpt lat="45.40014239678129" lon="9.231498394480003"><ele>104.0</ele><time>2026-04-11T08:20:40Z</time></trkpt><trkpt lat="45.40012529820869" lon="9.231388106896143"><ele>104.0</ele><time>2026-04-11T08:20:41Z</time></trkpt><trkpt lat="45.40010428439278" lon="9.231266236727063"><ele>103.99999999999999</ele><time>2026-04-11T08:20:42Z</time></trkpt><trkpt lat="45.40007941986828" lon="9.2311413160252"><ele>104.0</ele><time>2026-04-11T08:20:43Z</time></trkpt><trkpt lat="45.40005359663875" lon="9.23101616366509"><ele>104.0</ele><time>2026-04-11T08:20:44Z</time></trkpt><trkpt lat="45.40002965560757" lon="9.230889461405411"><ele>104.0</ele><time>2026-04-11T08:20:45Z</time></trkpt><trkpt lat="45.40000590523532" lon="9.230758163014132"><ele>104.0</ele><time>2026-04-11T08:20:46Z</time></trkpt><trkpt lat="45.39998300923462" lon="9.230624931347979"><ele>104.0</ele><time>2026-04-11T08:20:47Z</time></trkpt><trkpt lat="45.399960604231005" lon="9.230486645093913"><ele>104.0</ele><time>2026-04-11T08:20:48Z</time></trkpt><trkpt lat="45.39993271407613" lon="9.230346280632647"><ele>103.99999999999999</ele><time>2026-04-11T08:20:49Z</time></trkpt><trkpt lat="45.39990416835988" lon="9.230209045799397"><ele>104.0</ele><time>2026-04-11T08:20:50Z</time></trkpt><trkpt lat="45.399872667174776" lon="9.230079508216187"><ele>104.0</ele><time>2026-04-11T08:20:51Z</time></trkpt><trkpt lat="45.39984277102086" lon="9.229960093648911"><ele>104.0</ele><time>2026-04-11T08:20:52Z</time></trkpt><trkpt lat="45.39981611105357" lon="9.229850969941255"><ele>103.99999999999999</ele><time>2026-04-11T08:20:53Z</time></trkpt><trkpt lat="45.39979116093173" lon="9.229762994598364"><ele>104.0</ele><time>2026-04-11T08:20:54Z</time></trkpt><trkpt lat="45.39976380250073" lon="9.229618825436715"><ele>103.75</ele><time>2026-04-11T08:20:56Z</time></trkpt><trkpt lat="45.399559669315785" lon="9.229655090969201"><ele>103.5</ele><time>2026-04-11T08:20:58Z</time></trkpt><trkpt lat="45.39947293561987" lon="9.229684626708362"><ele>103.25</ele><time>2026-04-11T08:20:59Z</time></trkpt><trkpt lat="45.399380346588856" lon="9.229724114184204"><ele>103.0</ele><time>2026-04-11T08:21:00Z</time></trkpt><trkpt lat="45.39927978333344" lon="9.229768134436615"><ele>103.25</ele><time>2026-04-11T08:21:01Z</time></trkpt><trkpt lat="45.39916947622796" lon="9.229814467553924"><ele>103.5</ele><time>2026-04-11T08:21:02Z</time></trkpt><trkpt lat="45.39904973705883" lon="9.22986347937862"><ele>103.75</ele><time>2026-04-11T08:21:03Z</time></trkpt><trkpt lat="45.39893234550863" lon="9.22990711476629"><ele>104.0</ele><time>2026-04-11T08:21:04Z</time></trkpt><trkpt lat="45.398825629851615" lon="9.229946247964639"><ele>103.49999999999999</ele><time>2026-04-11T08:21:05Z</time></trkpt><trkpt lat="45.39872691831227" lon="9.229985415405451"><ele>103.0</ele><time>2026-04-11T08:21:06Z</time></trkpt><trkpt lat="45.39863226184341" lon="9.230031215942233"><ele>102.5</ele><time>2026-04-11T08:21:07Z</time></trkpt><trkpt lat="45.398554009616745" lon="9.230068280845828"><ele>102.0</ele><time>2026-04-11T08:21:08Z</time></trkpt><trkpt lat="45.398491510896775" lon="9.230094356689149"><ele>101.49999999999999</ele><time>2026-04-11T08:21:09Z</time></trkpt><trkpt lat="45.39842720811368" lon="9.230113556203847"><ele>101.0</ele><time>2026-04-11T08:21:10Z</time></trkpt><trkpt lat="45.3983049216888" lon="9.230100424955626"><ele>100.99999999999999</ele><time>2026-04-11T08:21:12Z</time></trkpt><trkpt lat="45.3982216810803" lon="9.229987325569143"><ele>101.0</ele><time>2026-04-11T08:21:14.001Z</time></trkpt><trkpt lat="45.39818871951488" lon="9.229868533329865"><ele>101.0</ele><time>2026-04-11T08:21:16.001Z</time></trkpt><trkpt lat="45.39816447777146" lon="9.229769984234451"><ele>101.0</ele><time>2026-04-11T08:21:18.001Z</time></trkpt><trkpt lat="45.39813218190117" lon="9.229673079527343"><ele>100.99999999999999</ele><time>2026-04-11T08:21:20.001Z</time></trkpt><trkpt lat="45.39810175401822" lon="9.229575956481748"><ele>101.0</ele><time>2026-04-11T08:21:22.001Z</time></trkpt><trkpt lat="45.39807087157566" lon="9.229478805711611"><ele>101.14285714285714</ele><time>2026-04-11T08:21:24.001Z</time></trkpt><trkpt lat="45.39804155183708" lon="9.229380675286265"><ele>101.28571428571428</ele><time>2026-04-11T08:21:26.001Z</time></trkpt><trkpt lat="45.3980142183462" lon="9.229292672609546"><ele>101.42857142857143</ele><time>2026-04-11T08:21:28.001Z</time></trkpt><trkpt lat="45.3979865552151" lon="9.22920703858473"><ele>101.57142857142857</ele><time>2026-04-11T08:21:30.001Z</time></trkpt><trkpt lat="45.39796019485014" lon="9.229109925241522"><ele>101.71428571428572</ele><time>2026-04-11T08:21:32.001Z</time></trkpt><trkpt lat="45.39792417426492" lon="9.229016253773366"><ele>101.85714285714286</ele><time>2026-04-11T08:21:34.001Z</time></trkpt><trkpt lat="45.397895375320836" lon="9.228920135289533"><ele>102.0</ele><time>2026-04-11T08:21:36.001Z</time></trkpt><trkpt lat="45.39786617802729" lon="9.22882414125331"><ele>102.0</ele><time>2026-04-11T08:21:38.001Z</time></trkpt><trkpt lat="45.397834104229176" lon="9.228718412778873"><ele>102.0</ele><time>2026-04-11T08:21:40.001Z</time></trkpt><trkpt lat="45.397779888568195" lon="9.228552038673012"><ele>102.0</ele><time>2026-04-11T08:21:42.001Z</time></trkpt><trkpt lat="45.39773907452145" lon="9.228426049430922"><ele>102.0</ele><time>2026-04-11T08:21:43.001Z</time></trkpt><trkpt lat="45.39769066031802" lon="9.228275654171938"><ele>102.0</ele><time>2026-04-11T08:21:44.001Z</time></trkpt><trkpt lat="45.39763330607575" lon="9.228098232314053"><ele>101.5</ele><time>2026-04-11T08:21:45.001Z</time></trkpt><trkpt lat="45.397573644466505" lon="9.227910364020861"><ele>101.0</ele><time>2026-04-11T08:21:46.001Z</time></trkpt><trkpt lat="45.39751945179037" lon="9.227726730263"><ele>100.5</ele><time>2026-04-11T08:21:47.001Z</time></trkpt><trkpt lat="45.397466118777565" lon="9.227542498700847"><ele>100.0</ele><time>2026-04-11T08:21:48.001Z</time></trkpt><trkpt lat="45.39741689327166" lon="9.22737228824563"><ele>99.5</ele><time>2026-04-11T08:21:49.001Z</time></trkpt><trkpt lat="45.397367110437415" lon="9.227213744966834"><ele>99.0</ele><time>2026-04-11T08:21:50.001Z</time></trkpt><trkpt lat="45.39731030390635" lon="9.227050906303843"><ele>98.5</ele><time>2026-04-11T08:21:51.001Z</time></trkpt><trkpt lat="45.39726176902427" lon="9.226897351960124"><ele>98.0</ele><time>2026-04-11T08:21:52Z</time></trkpt><trkpt lat="45.3972250103923" lon="9.226765071631924"><ele>98.0</ele><time>2026-04-11T08:21:53Z</time></trkpt><trkpt lat="45.39718382718687" lon="9.226626269490676"><ele>98.0</ele><time>2026-04-11T08:21:54Z</time></trkpt><trkpt lat="45.39713386344498" lon="9.22645515401292"><ele>98.0</ele><time>2026-04-11T08:21:55Z</time></trkpt><trkpt lat="45.397078908188114" lon="9.226267697162353"><ele>98.0</ele><time>2026-04-11T08:21:56Z</time></trkpt><trkpt lat="45.39701812615471" lon="9.226070028909788"><ele>98.0</ele><time>2026-04-11T08:21:57Z</time></trkpt><trkpt lat="45.396956743517016" lon="9.225864489679864"><ele>98.0</ele><time>2026-04-11T08:21:58Z</time></trkpt><trkpt lat="45.39688674906303" lon="9.225656346732181"><ele>98.0</ele><time>2026-04-11T08:21:59Z</time></trkpt><trkpt lat="45.39681526843018" lon="9.225451457324612"><ele>98.66666666666666</ele><time>2026-04-11T08:22:00Z</time></trkpt><trkpt lat="45.396743870120446" lon="9.225230925241151"><ele>99.33333333333334</ele><time>2026-04-11T08:22:01Z</time></trkpt><trkpt lat="45.39667583930815" lon="9.225024437773355"><ele>100.0</ele><time>2026-04-11T08:22:02Z</time></trkpt><trkpt lat="45.396610375212525" lon="9.224821270207807"><ele>100.0</ele><time>2026-04-11T08:22:03Z</time></trkpt><trkpt lat="45.39655276894484" lon="9.224631535386736"><ele>100.0</ele><time>2026-04-11T08:22:04Z</time></trkpt><trkpt lat="45.39650025132579" lon="9.224459676557554"><ele>100.0</ele><time>2026-04-11T08:22:05Z</time></trkpt><trkpt lat="45.39645427270929" lon="9.224310085466369"><ele>100.0</ele><time>2026-04-11T08:22:06Z</time></trkpt><trkpt lat="45.39641177974911" lon="9.224182617676103"><ele>100.0</ele><time>2026-04-11T08:22:07Z</time></trkpt><trkpt lat="45.39635022393179" lon="9.223977632626415"><ele>100.0</ele><time>2026-04-11T08:22:09Z</time></trkpt><trkpt lat="45.39630566533467" lon="9.223860751014596"><ele>100.0</ele><time>2026-04-11T08:22:11Z</time></trkpt><trkpt lat="45.39624034724832" lon="9.223851113615725"><ele>100.0</ele><time>2026-04-11T08:22:13.001Z</time></trkpt><trkpt lat="45.39614506798901" lon="9.22392857913961"><ele>100.0</ele><time>2026-04-11T08:22:15.001Z</time></trkpt><trkpt lat="45.39608018989654" lon="9.223977985435384"><ele>99.8</ele><time>2026-04-11T08:22:16.001Z</time></trkpt><trkpt lat="45.39600778521987" lon="9.22403759838698"><ele>99.6</ele><time>2026-04-11T08:22:17.001Z</time></trkpt><trkpt lat="45.39591778507559" lon="9.224099668222594"><ele>99.4</ele><time>2026-04-11T08:22:18.001Z</time></trkpt><trkpt lat="45.39581208298739" lon="9.22417205745167"><ele>99.2</ele><time>2026-04-11T08:22:19.001Z</time></trkpt><trkpt lat="45.39569991480008" lon="9.224250881598568"><ele>99.0</ele><time>2026-04-11T08:22:20.001Z</time></trkpt><trkpt lat="45.39558019546442" lon="9.224330288422196"><ele>99.0</ele><time>2026-04-11T08:22:21.001Z</time></trkpt><trkpt lat="45.39545497938235" lon="9.224415504995209"><ele>99.0</ele><time>2026-04-11T08:22:22.001Z</time></trkpt><trkpt lat="45.395310591629695" lon="9.224515867907243"><ele>99.0</ele><time>2026-04-11T08:22:23.001Z</time></trkpt><trkpt lat="45.39516495120112" lon="9.224617643747473"><ele>99.0</ele><time>2026-04-11T08:22:24.001Z</time></trkpt><trkpt lat="45.39501991648561" lon="9.224720962441994"><ele>99.0</ele><time>2026-04-11T08:22:25.001Z</time></trkpt><trkpt lat="45.3948771745613" lon="9.224821245407714"><ele>99.0</ele><time>2026-04-11T08:22:26.001Z</time></trkpt><trkpt lat="45.39473399281219" lon="9.224919300305237"><ele>99.0</ele><time>2026-04-11T08:22:27.001Z</time></trkpt><trkpt lat="45.394586316058685" lon="9.22501826141445"><ele>99.0</ele><time>2026-04-11T08:22:28.001Z</time></trkpt><trkpt lat="45.394441752631444" lon="9.22511512674698"><ele>99.0</ele><time>2026-04-11T08:22:29.001Z</time></trkpt><trkpt lat="45.3942940187213" lon="9.225217257279843"><ele>99.0</ele><time>2026-04-11T08:22:30.001Z</time></trkpt><trkpt lat="45.3941479709001" lon="9.225318113933417"><ele>99.0</ele><time>2026-04-11T08:22:31.001Z</time></trkpt><trkpt lat="45.39400214652056" lon="9.22541772986436"><ele>99.0</ele><time>2026-04-11T08:22:32.001Z</time></trkpt><trkpt lat="45.39385485885953" lon="9.225519388615368"><ele>99.0</ele><time>2026-04-11T08:22:33.001Z</time></trkpt><trkpt lat="45.39370736361842" lon="9.225617735662718"><ele>99.0</ele><time>2026-04-11T08:22:34.001Z</time></trkpt><trkpt lat="45.393560168648165" lon="9.225714563295915"><ele>99.0</ele><time>2026-04-11T08:22:35.001Z</time></trkpt><trkpt lat="45.39341700435502" lon="9.225810922107932"><ele>99.0</ele><time>2026-04-11T08:22:36.001Z</time></trkpt><trkpt lat="45.39327939902397" lon="9.225906458226826"><ele>99.0</ele><time>2026-04-11T08:22:37.001Z</time></trkpt><trkpt lat="45.39316232211863" lon="9.225986790267132"><ele>99.0</ele><time>2026-04-11T08:22:38.001Z</time></trkpt><trkpt lat="45.39306724025525" lon="9.226053982572267"><ele>99.0</ele><time>2026-04-11T08:22:39.001Z</time></trkpt><trkpt lat="45.39299280545544" lon="9.226106321047789"><ele>99.0</ele><time>2026-04-11T08:22:40.001Z</time></trkpt><trkpt lat="45.39290555327491" lon="9.22615644189119"><ele>99.0</ele><time>2026-04-11T08:22:42Z</time></trkpt><trkpt lat="45.39285458705594" lon="9.226100165369195"><ele>99.0</ele><time>2026-04-11T08:22:44Z</time></trkpt><trkpt lat="45.3927951209106" lon="9.225955714670837"><ele>99.0</ele><time>2026-04-11T08:22:46Z</time></trkpt><trkpt lat="45.39275584697407" lon="9.225849522495201"><ele>99.0</ele><time>2026-04-11T08:22:47Z</time></trkpt><trkpt lat="45.39271608083124" lon="9.225752838691113"><ele>99.0</ele><time>2026-04-11T08:22:48Z</time></trkpt><trkpt lat="45.392672162110586" lon="9.225647864617926"><ele>99.0</ele><time>2026-04-11T08:22:49Z</time></trkpt><trkpt lat="45.392624518044215" lon="9.225535801583694"><ele>99.0</ele><time>2026-04-11T08:22:50Z</time></trkpt><trkpt lat="45.39257119520591" lon="9.225417858842055"><ele>99.0</ele><time>2026-04-11T08:22:51Z</time></trkpt><trkpt lat="45.392517818344054" lon="9.22529196217456"><ele>99.0</ele><time>2026-04-11T08:22:52Z</time></trkpt><trkpt lat="45.39246401981721" lon="9.225163474676208"><ele>99.0</ele><time>2026-04-11T08:22:53Z</time></trkpt><trkpt lat="45.39241484621996" lon="9.225050459830882"><ele>99.0</ele><time>2026-04-11T08:22:54Z</time></trkpt><trkpt lat="45.39237387509759" lon="9.224952555376776"><ele>99.0</ele><time>2026-04-11T08:22:55Z</time></trkpt><trkpt lat="45.392320602217715" lon="9.224827206876682"><ele>99.0</ele><time>2026-04-11T08:22:56Z</time></trkpt><trkpt lat="45.39226204120603" lon="9.224691230773555"><ele>99.0</ele><time>2026-04-11T08:22:57Z</time></trkpt><trkpt lat="45.39219941074034" lon="9.224541973440084"><ele>99.0</ele><time>2026-04-11T08:22:58Z</time></trkpt><trkpt lat="45.39213401750244" lon="9.2243897338779"><ele>99.4</ele><time>2026-04-11T08:22:59Z</time></trkpt><trkpt lat="45.39207754656569" lon="9.224255024803277"><ele>99.80000000000001</ele><time>2026-04-11T08:23:00Z</time></trkpt><trkpt lat="45.3920260334773" lon="9.224137317321054"><ele>100.19999999999999</ele><time>2026-04-11T08:23:01Z</time></trkpt><trkpt lat="45.391985567463294" lon="9.224019487401932"><ele>100.6</ele><time>2026-04-11T08:23:02Z</time></trkpt><trkpt lat="45.39195789133408" lon="9.223891299810507"><ele>101.0</ele><time>2026-04-11T08:23:03Z</time></trkpt><trkpt lat="45.39194450180147" lon="9.223754424534505"><ele>101.0</ele><time>2026-04-11T08:23:04Z</time></trkpt><trkpt lat="45.391925181112555" lon="9.223595251544525"><ele>101.0</ele><time>2026-04-11T08:23:05Z</time></trkpt><trkpt lat="45.391901315919846" lon="9.22343125607279"><ele>101.0</ele><time>2026-04-11T08:23:06Z</time></trkpt><trkpt lat="45.39187645821931" lon="9.223258836511839"><ele>101.0</ele><time>2026-04-11T08:23:07Z</time></trkpt><trkpt lat="45.39185116917593" lon="9.223092413764585"><ele>101.0</ele><time>2026-04-11T08:23:08Z</time></trkpt><trkpt lat="45.3918257104989" lon="9.222910982996298"><ele>101.0</ele><time>2026-04-11T08:23:09Z</time></trkpt><trkpt lat="45.39179698029317" lon="9.222725526734195"><ele>101.0</ele><time>2026-04-11T08:23:10Z</time></trkpt><trkpt lat="45.391769699766336" lon="9.222540880661652"><ele>101.0</ele><time>2026-04-11T08:23:11Z</time></trkpt><trkpt lat="45.39174424561568" lon="9.222365051820097"><ele>102.19999999999999</ele><time>2026-04-11T08:23:12Z</time></trkpt><trkpt lat="45.39172077870592" lon="9.222214199236612"><ele>103.39999999999999</ele><time>2026-04-11T08:23:13Z</time></trkpt><trkpt lat="45.39170040922866" lon="9.222081742802608"><ele>104.6</ele><time>2026-04-11T08:23:14Z</time></trkpt><trkpt lat="45.39168138178065" lon="9.2219553838815"><ele>105.8</ele><time>2026-04-11T08:23:15Z</time></trkpt><trkpt lat="45.391663856771515" lon="9.221853383346836"><ele>107.0</ele><time>2026-04-11T08:23:16Z</time></trkpt><trkpt lat="45.39163283353666" lon="9.221726584548673"><ele>106.99999999999999</ele><time>2026-04-11T08:23:18Z</time></trkpt><trkpt lat="45.39156473681879" lon="9.22172992664977"><ele>107.0</ele><time>2026-04-11T08:23:20Z</time></trkpt><trkpt lat="45.39144377838011" lon="9.221801661761221"><ele>107.0</ele><time>2026-04-11T08:23:22Z</time></trkpt><trkpt lat="45.391366550967575" lon="9.221833806718056"><ele>107.0</ele><time>2026-04-11T08:23:23Z</time></trkpt><trkpt lat="45.391292072646564" lon="9.221862520513689"><ele>106.99999999999999</ele><time>2026-04-11T08:23:24Z</time></trkpt><trkpt lat="45.39123100982433" lon="9.22188623968448"><ele>107.0</ele><time>2026-04-11T08:23:25Z</time></trkpt><trkpt lat="45.391173589743005" lon="9.221926573480491"><ele>106.33333333333333</ele><time>2026-04-11T08:23:26Z</time></trkpt><trkpt lat="45.39110612693602" lon="9.221981378007397"><ele>105.66666666666666</ele><time>2026-04-11T08:23:27Z</time></trkpt><trkpt lat="45.391036289005406" lon="9.222039200786586"><ele>105.0</ele><time>2026-04-11T08:23:28Z</time></trkpt><trkpt lat="45.390973780203005" lon="9.222095435792871"><ele>104.33333333333334</ele><time>2026-04-11T08:23:29Z</time></trkpt><trkpt lat="45.3909086391827" lon="9.222165902418471"><ele>103.66666666666667</ele><time>2026-04-11T08:23:30Z</time></trkpt><trkpt lat="45.39083943510537" lon="9.222263478782141"><ele>103.0</ele><time>2026-04-11T08:23:31Z</time></trkpt><trkpt lat="45.39076205849655" lon="9.222371718904899"><ele>102.60000000000001</ele><time>2026-04-11T08:23:32Z</time></trkpt><trkpt lat="45.390675338681596" lon="9.2224864705175"><ele>102.2</ele><time>2026-04-11T08:23:33Z</time></trkpt><trkpt lat="45.3905891164556" lon="9.222595004877018"><ele>101.8</ele><time>2026-04-11T08:23:34Z</time></trkpt><trkpt lat="45.390522244291994" lon="9.222676874271531"><ele>101.4</ele><time>2026-04-11T08:23:35Z</time></trkpt><trkpt lat="45.39045226272757" lon="9.222748497498824"><ele>101.0</ele><time>2026-04-11T08:23:36Z</time></trkpt><trkpt lat="45.3903604101989" lon="9.22284847026965"><ele>101.0</ele><time>2026-04-11T08:23:38Z</time></trkpt><trkpt lat="45.39027169537683" lon="9.222968248706092"><ele>101.0</ele><time>2026-04-11T08:23:40Z</time></trkpt><trkpt lat="45.39021707599576" lon="9.223032257524036"><ele>101.0</ele><time>2026-04-11T08:23:41Z</time></trkpt><trkpt lat="45.39012029635822" lon="9.223149832066127"><ele>101.0</ele><time>2026-04-11T08:23:43Z</time></trkpt><trkpt lat="45.39005119301812" lon="9.22323776822494"><ele>101.0</ele><time>2026-04-11T08:23:44Z</time></trkpt><trkpt lat="45.38999112967428" lon="9.223318011468866"><ele>100.83333333333333</ele><time>2026-04-11T08:23:45Z</time></trkpt><trkpt lat="45.38993968970022" lon="9.2233872447345"><ele>100.66666666666666</ele><time>2026-04-11T08:23:46Z</time></trkpt><trkpt lat="45.389866796456964" lon="9.223474715262935"><ele>100.5</ele><time>2026-04-11T08:23:48Z</time></trkpt><trkpt lat="45.38978721094874" lon="9.223490366438897"><ele>100.33333333333334</ele><time>2026-04-11T08:23:50Z</time></trkpt><trkpt lat="45.389719542984864" lon="9.223433416379265"><ele>100.16666666666667</ele><time>2026-04-11T08:23:52Z</time></trkpt><trkpt lat="45.389682681697984" lon="9.223342069547268"><ele>100.0</ele><time>2026-04-11T08:24:01Z</time></trkpt><trkpt lat="45.389651894929905" lon="9.223247092671158"><ele>100.00000000000001</ele><time>2026-04-11T08:24:03Z</time></trkpt><trkpt lat="45.38961038225267" lon="9.223121552734494"><ele>100.0</ele><time>2026-04-11T08:24:05Z</time></trkpt><trkpt lat="45.38955296793471" lon="9.222983242975564"><ele>100.0</ele><time>2026-04-11T08:24:07Z</time></trkpt><trkpt lat="45.38951487888385" lon="9.222905622618363"><ele>100.0</ele><time>2026-04-11T08:24:08Z</time></trkpt><trkpt lat="45.389472951368305" lon="9.222832184411827"><ele>100.00000000000001</ele><time>2026-04-11T08:24:09Z</time></trkpt><trkpt lat="45.38943138851569" lon="9.222761240205724"><ele>100.0</ele><time>2026-04-11T08:24:10Z</time></trkpt><trkpt lat="45.389388536647616" lon="9.22269208981497"><ele>100.00000000000001</ele><time>2026-04-11T08:24:11Z</time></trkpt><trkpt lat="45.389344274321964" lon="9.222619734565903"><ele>100.0</ele><time>2026-04-11T08:24:12Z</time></trkpt><trkpt lat="45.389295794327325" lon="9.222539088875415"><ele>100.0</ele><time>2026-04-11T08:24:13Z</time></trkpt><trkpt lat="45.38924873171169" lon="9.222452600097633"><ele>100.0</ele><time>2026-04-11T08:24:14Z</time></trkpt><trkpt lat="45.38919823854959" lon="9.222366121533067"><ele>100.00000000000001</ele><time>2026-04-11T08:24:15Z</time></trkpt><trkpt lat="45.389151901280826" lon="9.222286586289478"><ele>100.0</ele><time>2026-04-11T08:24:16Z</time></trkpt><trkpt lat="45.38907372316903" lon="9.222123844948115"><ele>100.0</ele><time>2026-04-11T08:24:18Z</time></trkpt><trkpt lat="45.38903216643876" lon="9.222026696849762"><ele>100.0</ele><time>2026-04-11T08:24:19Z</time></trkpt><trkpt lat="45.38898053186808" lon="9.22190900756941"><ele>100.0</ele><time>2026-04-11T08:24:20Z</time></trkpt><trkpt lat="45.388928330898956" lon="9.22179270510135"><ele>100.0</ele><time>2026-04-11T08:24:21Z</time></trkpt><trkpt lat="45.38888013055768" lon="9.221674653053638"><ele>100.0</ele><time>2026-04-11T08:24:22Z</time></trkpt><trkpt lat="45.388839750306985" lon="9.221567025187822"><ele>100.2</ele><time>2026-04-11T08:24:23Z</time></trkpt><trkpt lat="45.38879737629537" lon="9.221479562442072"><ele>100.4</ele><time>2026-04-11T08:24:24Z</time></trkpt><trkpt lat="45.38875586526236" lon="9.221403769491019"><ele>100.6</ele><time>2026-04-11T08:24:25Z</time></trkpt><trkpt lat="45.388704118145064" lon="9.221297366845983"><ele>100.8</ele><time>2026-04-11T08:24:27Z</time></trkpt><trkpt lat="45.3886406685465" lon="9.221297460132684"><ele>101.0</ele><time>2026-04-11T08:24:30Z</time></trkpt><trkpt lat="45.38868072496779" lon="9.221077364979203"><ele>101.0</ele><time>2026-04-11T08:25:09Z</time></trkpt><trkpt lat="45.388719076878644" lon="9.220956950879911"><ele>101.0</ele><time>2026-04-11T08:25:10Z</time></trkpt><trkpt lat="45.38866092015208" lon="9.22078025587857"><ele>101.0</ele><time>2026-04-11T08:25:11Z</time></trkpt><trkpt lat="45.38870166457844" lon="9.220612699933639"><ele>101.0</ele><time>2026-04-11T08:25:12Z</time></trkpt><trkpt lat="45.3887457344382" lon="9.220433569097112"><ele>100.75</ele><time>2026-04-11T08:25:13Z</time></trkpt><trkpt lat="45.3887930063875" lon="9.220242908061419"><ele>100.5</ele><time>2026-04-11T08:25:14Z</time></trkpt><trkpt lat="45.38883606742149" lon="9.220069230850237"><ele>100.25</ele><time>2026-04-11T08:25:15Z</time></trkpt><trkpt lat="45.388875271180545" lon="9.21991111106877"><ele>100.0</ele><time>2026-04-11T08:25:16Z</time></trkpt><trkpt lat="45.38891055907767" lon="9.219768785083154"><ele>100.66666666666667</ele><time>2026-04-11T08:25:17Z</time></trkpt><trkpt lat="45.38894433320578" lon="9.219632564542213"><ele>101.33333333333334</ele><time>2026-04-11T08:25:18Z</time></trkpt><trkpt lat="45.38897424108061" lon="9.219512017017333"><ele>102.0</ele><time>2026-04-11T08:25:19Z</time></trkpt><trkpt lat="45.38900249654556" lon="9.219398866706198"><ele>102.66666666666666</ele><time>2026-04-11T08:25:20Z</time></trkpt><trkpt lat="45.38902745142606" lon="9.219298933759871"><ele>103.33333333333333</ele><time>2026-04-11T08:25:21.001Z</time></trkpt><trkpt lat="45.38905021806374" lon="9.219207045838962"><ele>104.0</ele><time>2026-04-11T08:25:22.001Z</time></trkpt><trkpt lat="45.38907641493311" lon="9.219100659879269"><ele>103.6</ele><time>2026-04-11T08:25:23.001Z</time></trkpt><trkpt lat="45.3891061446073" lon="9.218979927211985"><ele>103.2</ele><time>2026-04-11T08:25:24.001Z</time></trkpt><trkpt lat="45.3891373391629" lon="9.218852351206404"><ele>102.8</ele><time>2026-04-11T08:25:25.001Z</time></trkpt><trkpt lat="45.389171143021564" lon="9.218712264434158"><ele>102.39999999999999</ele><time>2026-04-11T08:25:26.001Z</time></trkpt><trkpt lat="45.38920968339546" lon="9.21855169091618"><ele>102.0</ele><time>2026-04-11T08:25:27.001Z</time></trkpt><trkpt lat="45.38925094165347" lon="9.218379793684498"><ele>102.0</ele><time>2026-04-11T08:25:28.001Z</time></trkpt><trkpt lat="45.38929547087417" lon="9.218196980398316"><ele>102.0</ele><time>2026-04-11T08:25:29.001Z</time></trkpt><trkpt lat="45.38934229308882" lon="9.21800989568162"><ele>102.0</ele><time>2026-04-11T08:25:30.001Z</time></trkpt><trkpt lat="45.3893891057213" lon="9.21781530682013"><ele>102.0</ele><time>2026-04-11T08:25:31.001Z</time></trkpt><trkpt lat="45.38943843644123" lon="9.217609058899468"><ele>102.0</ele><time>2026-04-11T08:25:32.001Z</time></trkpt><trkpt lat="45.389484205154076" lon="9.217412470947163"><ele>102.0</ele><time>2026-04-11T08:25:33.001Z</time></trkpt><trkpt lat="45.389528317147324" lon="9.217221221466133"><ele>102.0</ele><time>2026-04-11T08:25:34.001Z</time></trkpt><trkpt lat="45.38956656759219" lon="9.217053222906442"><ele>102.0</ele><time>2026-04-11T08:25:35.001Z</time></trkpt><trkpt lat="45.38960191868044" lon="9.216892642518856"><ele>102.19999999999999</ele><time>2026-04-11T08:25:36.001Z</time></trkpt><trkpt lat="45.38963512151447" lon="9.216741820444032"><ele>102.4</ele><time>2026-04-11T08:25:37.001Z</time></trkpt><trkpt lat="45.3896677950418" lon="9.216593402820129"><ele>102.6</ele><time>2026-04-11T08:25:38.001Z</time></trkpt><trkpt lat="45.3897002095498" lon="9.216445325831549"><ele>102.80000000000001</ele><time>2026-04-11T08:25:39.001Z</time></trkpt><trkpt lat="45.38973358021812" lon="9.216292674301844"><ele>103.0</ele><time>2026-04-11T08:25:40.001Z</time></trkpt><trkpt lat="45.38976535718307" lon="9.216147313110426"><ele>103.0</ele><time>2026-04-11T08:25:41.001Z</time></trkpt><trkpt lat="45.38979320857367" lon="9.216019909099707"><ele>103.0</ele><time>2026-04-11T08:25:42.001Z</time></trkpt><trkpt lat="45.389814360565005" lon="9.215923150912241"><ele>103.0</ele><time>2026-04-11T08:25:43.001Z</time></trkpt><trkpt lat="45.38988604489044" lon="9.215865487658293"><ele>103.0</ele><time>2026-04-11T08:25:44.001Z</time></trkpt><trkpt lat="45.39005502252823" lon="9.21583955370458"><ele>103.0</ele><time>2026-04-11T08:25:46.001Z</time></trkpt><trkpt lat="45.39004666684085" lon="9.215746112188812"><ele>103.00000000000001</ele><time>2026-04-11T08:26:02.001Z</time></trkpt><trkpt lat="45.38996806218385" lon="9.215694549881817"><ele>103.0</ele><time>2026-04-11T08:26:04Z</time></trkpt><trkpt lat="45.389890054236645" lon="9.215681481696578"><ele>103.0</ele><time>2026-04-11T08:26:05Z</time></trkpt><trkpt lat="45.389759918392194" lon="9.215671014810988"><ele>103.0</ele><time>2026-04-11T08:26:07Z</time></trkpt><trkpt lat="45.38968764370766" lon="9.215662943659378"><ele>103.00000000000001</ele><time>2026-04-11T08:26:08Z</time></trkpt><trkpt lat="45.38962027371213" lon="9.215654894673191"><ele>103.0</ele><time>2026-04-11T08:26:09Z</time></trkpt><trkpt lat="45.38955111568833" lon="9.215657990902017"><ele>102.4</ele><time>2026-04-11T08:26:10Z</time></trkpt><trkpt lat="45.389445744160085" lon="9.215588465411612"><ele>101.80000000000001</ele><time>2026-04-11T08:26:11Z</time></trkpt><trkpt lat="45.389365552990924" lon="9.215595543924493"><ele>101.2</ele><time>2026-04-11T08:26:13Z</time></trkpt><trkpt lat="45.38930936494029" lon="9.215734367236188"><ele>100.6</ele><time>2026-04-11T08:26:15Z</time></trkpt><trkpt lat="45.38928904940406" lon="9.215858595182874"><ele>100.0</ele><time>2026-04-11T08:26:16Z</time></trkpt><trkpt lat="45.389259597292146" lon="9.21600267460004"><ele>99.75</ele><time>2026-04-11T08:26:17Z</time></trkpt><trkpt lat="45.38922484070906" lon="9.216167902029918"><ele>99.5</ele><time>2026-04-11T08:26:18Z</time></trkpt><trkpt lat="45.38919468039384" lon="9.216347288166647"><ele>99.25</ele><time>2026-04-11T08:26:19Z</time></trkpt><trkpt lat="45.38916557578012" lon="9.216523760043922"><ele>99.0</ele><time>2026-04-11T08:26:20Z</time></trkpt><trkpt lat="45.38913608571234" lon="9.216727320552405"><ele>99.0</ele><time>2026-04-11T08:26:21.001Z</time></trkpt><trkpt lat="45.38909871493527" lon="9.216951612049208"><ele>99.0</ele><time>2026-04-11T08:26:22.001Z</time></trkpt><trkpt lat="45.38906484708652" lon="9.217179865240936"><ele>99.0</ele><time>2026-04-11T08:26:23.001Z</time></trkpt><trkpt lat="45.38919689294569" lon="9.217479225870841"><ele>99.75</ele><time>2026-04-11T08:26:24.001Z</time></trkpt><trkpt lat="45.38914671363247" lon="9.21768799282128"><ele>100.5</ele><time>2026-04-11T08:26:25.001Z</time></trkpt><trkpt lat="45.389101378372466" lon="9.217875806761619"><ele>101.25</ele><time>2026-04-11T08:26:26.001Z</time></trkpt><trkpt lat="45.38905963019484" lon="9.218048760206145"><ele>102.0</ele><time>2026-04-11T08:26:27.001Z</time></trkpt><trkpt lat="45.389022152643385" lon="9.218204021354714"><ele>102.0</ele><time>2026-04-11T08:26:28.001Z</time></trkpt><trkpt lat="45.38898647306422" lon="9.21835037747978"><ele>102.0</ele><time>2026-04-11T08:26:29.001Z</time></trkpt><trkpt lat="45.38895241871619" lon="9.218489548462342"><ele>102.0</ele><time>2026-04-11T08:26:30.001Z</time></trkpt><trkpt lat="45.3889210751073" lon="9.218617641272205"><ele>102.0</ele><time>2026-04-11T08:26:31.001Z</time></trkpt><trkpt lat="45.388891116594216" lon="9.218740073660454"><ele>102.0</ele><time>2026-04-11T08:26:32.001Z</time></trkpt><trkpt lat="45.388863267264185" lon="9.21885388628301"><ele>101.83333333333333</ele><time>2026-04-11T08:26:33.001Z</time></trkpt><trkpt lat="45.388838113110886" lon="9.218956684493483"><ele>101.66666666666666</ele><time>2026-04-11T08:26:34.001Z</time></trkpt><trkpt lat="45.38881527741531" lon="9.219050007763157"><ele>101.5</ele><time>2026-04-11T08:26:35.001Z</time></trkpt><trkpt lat="45.38878596954103" lon="9.219169781107455"><ele>101.33333333333333</ele><time>2026-04-11T08:26:37.001Z</time></trkpt><trkpt lat="45.38874395832879" lon="9.219341469628668"><ele>101.16666666666666</ele><time>2026-04-11T08:26:39.001Z</time></trkpt><trkpt lat="45.38871641581609" lon="9.219455976025202"><ele>101.0</ele><time>2026-04-11T08:26:40.001Z</time></trkpt><trkpt lat="45.388683996065204" lon="9.219589015307324"><ele>101.0</ele><time>2026-04-11T08:26:41.001Z</time></trkpt><trkpt lat="45.388644488323045" lon="9.219751141133623"><ele>101.0</ele><time>2026-04-11T08:26:42.001Z</time></trkpt><trkpt lat="45.38861064064102" lon="9.21989004013465"><ele>101.0</ele><time>2026-04-11T08:26:43.001Z</time></trkpt><trkpt lat="45.388578615258886" lon="9.220020234998954"><ele>101.0</ele><time>2026-04-11T08:26:44.001Z</time></trkpt><trkpt lat="45.388549510906394" lon="9.220138069460896"><ele>101.0</ele><time>2026-04-11T08:26:45.001Z</time></trkpt><trkpt lat="45.38852241226903" lon="9.22024778334399"><ele>100.99999999999999</ele><time>2026-04-11T08:26:46.001Z</time></trkpt><trkpt lat="45.388500213510675" lon="9.220337659154577"><ele>101.0</ele><time>2026-04-11T08:26:47.001Z</time></trkpt><trkpt lat="45.38847194715" lon="9.220450315192382"><ele>101.0</ele><time>2026-04-11T08:26:49.001Z</time></trkpt><trkpt lat="45.3884420369027" lon="9.220569387747336"><ele>101.0</ele><time>2026-04-11T08:26:52.001Z</time></trkpt><trkpt lat="45.38841803170877" lon="9.22066495231096"><ele>100.99999999999999</ele><time>2026-04-11T08:26:56.001Z</time></trkpt><trkpt lat="45.388391333110015" lon="9.220771239296239"><ele>101.0</ele><time>2026-04-11T08:26:59.001Z</time></trkpt><trkpt lat="45.38836854598272" lon="9.220861954762714"><ele>101.0</ele><time>2026-04-11T08:27:00.001Z</time></trkpt><trkpt lat="45.38833741575161" lon="9.220985884012793"><ele>101.0</ele><time>2026-04-11T08:27:01.001Z</time></trkpt><trkpt lat="45.38830440209158" lon="9.221118235016265"><ele>101.0</ele><time>2026-04-11T08:27:02.001Z</time></trkpt><trkpt lat="45.3882721486695" lon="9.22124861835747"><ele>101.0</ele><time>2026-04-11T08:27:03.001Z</time></trkpt><trkpt lat="45.38823981296201" lon="9.221379334388322"><ele>101.0</ele><time>2026-04-11T08:27:04.001Z</time></trkpt><trkpt lat="45.38821077529323" lon="9.221496718106549"><ele>100.83333333333333</ele><time>2026-04-11T08:27:05.001Z</time></trkpt><trkpt lat="45.38818447558479" lon="9.221603033799857"><ele>100.66666666666666</ele><time>2026-04-11T08:27:06Z</time></trkpt><trkpt lat="45.388162252299196" lon="9.22169315685497"><ele>100.5</ele><time>2026-04-11T08:27:07Z</time></trkpt><trkpt lat="45.38812853878318" lon="9.221790445830328"><ele>100.33333333333334</ele><time>2026-04-11T08:27:08Z</time></trkpt><trkpt lat="45.38808652313037" lon="9.221901548129628"><ele>100.16666666666667</ele><time>2026-04-11T08:27:09Z</time></trkpt><trkpt lat="45.38803628980406" lon="9.222029023288417"><ele>100.0</ele><time>2026-04-11T08:27:10Z</time></trkpt><trkpt lat="45.387446423944226" lon="9.221892961117655"><ele>99.75</ele><time>2026-04-11T08:27:11Z</time></trkpt><trkpt lat="45.387330097526245" lon="9.221997556511612"><ele>99.5</ele><time>2026-04-11T08:27:12Z</time></trkpt><trkpt lat="45.38721230666185" lon="9.222096910294365"><ele>99.25</ele><time>2026-04-11T08:27:13Z</time></trkpt><trkpt lat="45.38709563571912" lon="9.222194865538654"><ele>99.0</ele><time>2026-04-11T08:27:14Z</time></trkpt><trkpt lat="45.386982847914446" lon="9.222288685696498"><ele>99.0</ele><time>2026-04-11T08:27:15Z</time></trkpt><trkpt lat="45.386877972379246" lon="9.222375860226318"><ele>99.0</ele><time>2026-04-11T08:27:16Z</time></trkpt><trkpt lat="45.3867855274534" lon="9.222450335196752"><ele>99.0</ele><time>2026-04-11T08:27:17Z</time></trkpt><trkpt lat="45.38669982713909" lon="9.222519507613262"><ele>99.0</ele><time>2026-04-11T08:27:18Z</time></trkpt><trkpt lat="45.38662003268311" lon="9.222583339388919"><ele>99.0</ele><time>2026-04-11T08:27:19Z</time></trkpt><trkpt lat="45.38654316008275" lon="9.222646465983685"><ele>99.0</ele><time>2026-04-11T08:27:20Z</time></trkpt><trkpt lat="45.38646837253474" lon="9.222704641383576"><ele>99.0</ele><time>2026-04-11T08:27:21Z</time></trkpt><trkpt lat="45.38639576973734" lon="9.222773565006648"><ele>99.0</ele><time>2026-04-11T08:27:22Z</time></trkpt><trkpt lat="45.38632156375863" lon="9.222841374034536"><ele>99.0</ele><time>2026-04-11T08:27:23Z</time></trkpt><trkpt lat="45.38624162481088" lon="9.222903900072549"><ele>99.0</ele><time>2026-04-11T08:27:24Z</time></trkpt><trkpt lat="45.3861560080284" lon="9.22296985397728"><ele>99.0</ele><time>2026-04-11T08:27:25Z</time></trkpt><trkpt lat="45.38606747988736" lon="9.223040694210194"><ele>98.75</ele><time>2026-04-11T08:27:26Z</time></trkpt><trkpt lat="45.38597174750545" lon="9.223118623410354"><ele>98.5</ele><time>2026-04-11T08:27:27Z</time></trkpt><trkpt lat="45.38587350919242" lon="9.223205669331469"><ele>98.25</ele><time>2026-04-11T08:27:28Z</time></trkpt><trkpt lat="45.3857698624556" lon="9.223296323015306"><ele>98.0</ele><time>2026-04-11T08:27:29Z</time></trkpt><trkpt lat="45.385661168166784" lon="9.223387105960517"><ele>98.0</ele><time>2026-04-11T08:27:30Z</time></trkpt><trkpt lat="45.385549677490054" lon="9.22348232121326"><ele>98.0</ele><time>2026-04-11T08:27:31Z</time></trkpt><trkpt lat="45.38543443958766" lon="9.223581716657687"><ele>98.0</ele><time>2026-04-11T08:27:32Z</time></trkpt><trkpt lat="45.38531815102742" lon="9.223680571935772"><ele>98.0</ele><time>2026-04-11T08:27:33Z</time></trkpt><trkpt lat="45.38520413359755" lon="9.223778380038956"><ele>97.80000000000001</ele><time>2026-04-11T08:27:34Z</time></trkpt><trkpt lat="45.3850969928634" lon="9.223868336700193"><ele>97.6</ele><time>2026-04-11T08:27:35Z</time></trkpt><trkpt lat="45.38500054052249" lon="9.223951828791439"><ele>97.4</ele><time>2026-04-11T08:27:36Z</time></trkpt><trkpt lat="45.38491197116511" lon="9.224028544367165"><ele>97.19999999999999</ele><time>2026-04-11T08:27:37Z</time></trkpt><trkpt lat="45.38483520596225" lon="9.224093593417459"><ele>97.0</ele><time>2026-04-11T08:27:38Z</time></trkpt><trkpt lat="45.384772683146764" lon="9.22414663264471"><ele>97.0</ele><time>2026-04-11T08:27:39Z</time></trkpt><trkpt lat="45.38471575609794" lon="9.224197842417077"><ele>97.0</ele><time>2026-04-11T08:27:40Z</time></trkpt><trkpt lat="45.384655227253056" lon="9.224257384851782"><ele>97.0</ele><time>2026-04-11T08:27:41Z</time></trkpt><trkpt lat="45.38456690622011" lon="9.224341891212937"><ele>97.0</ele><time>2026-04-11T08:27:42Z</time></trkpt><trkpt lat="45.384460189077274" lon="9.224424851967639"><ele>97.0</ele><time>2026-04-11T08:27:43Z</time></trkpt><trkpt lat="45.38436514336127" lon="9.224487460844347"><ele>97.0</ele><time>2026-04-11T08:27:44Z</time></trkpt><trkpt lat="45.38428400696538" lon="9.224556128294484"><ele>97.0</ele><time>2026-04-11T08:27:45Z</time></trkpt><trkpt lat="45.384211407273426" lon="9.224622700796779"><ele>97.0</ele><time>2026-04-11T08:27:46Z</time></trkpt><trkpt lat="45.38413305692" lon="9.224686038951214"><ele>97.0</ele><time>2026-04-11T08:27:47Z</time></trkpt><trkpt lat="45.3840457729169" lon="9.224757119702426"><ele>97.0</ele><time>2026-04-11T08:27:48Z</time></trkpt><trkpt lat="45.383949763040604" lon="9.224824441035334"><ele>97.5</ele><time>2026-04-11T08:27:49Z</time></trkpt><trkpt lat="45.38384523006257" lon="9.224882689357027"><ele>98.0</ele><time>2026-04-11T08:27:50Z</time></trkpt><trkpt lat="45.383735734804645" lon="9.224938376322454"><ele>98.5</ele><time>2026-04-11T08:27:51Z</time></trkpt><trkpt lat="45.38361558701005" lon="9.22499587693585"><ele>99.0</ele><time>2026-04-11T08:27:52Z</time></trkpt><trkpt lat="45.38348607194668" lon="9.225058653477996"><ele>99.0</ele><time>2026-04-11T08:27:53Z</time></trkpt><trkpt lat="45.38335029133235" lon="9.225116737047605"><ele>99.0</ele><time>2026-04-11T08:27:54Z</time></trkpt><trkpt lat="45.383209239647535" lon="9.225172282201045"><ele>99.0</ele><time>2026-04-11T08:27:55Z</time></trkpt><trkpt lat="45.38306949840032" lon="9.225231011124091"><ele>99.0</ele><time>2026-04-11T08:27:56Z</time></trkpt><trkpt lat="45.382936756145575" lon="9.225290176154672"><ele>98.75</ele><time>2026-04-11T08:27:57Z</time></trkpt><trkpt lat="45.38281902550313" lon="9.22534627002768"><ele>98.5</ele><time>2026-04-11T08:27:58Z</time></trkpt><trkpt lat="45.3827221085236" lon="9.225396454054705"><ele>98.25</ele><time>2026-04-11T08:27:59Z</time></trkpt><trkpt lat="45.38264571002593" lon="9.225440794890492"><ele>98.0</ele><time>2026-04-11T08:28:00Z</time></trkpt><trkpt lat="45.38249917565218" lon="9.225505566980917"><ele>97.99999999999999</ele><time>2026-04-11T08:28:02Z</time></trkpt><trkpt lat="45.382411033577675" lon="9.225514483768315"><ele>98.0</ele><time>2026-04-11T08:28:04Z</time></trkpt><trkpt lat="45.38248541296685" lon="9.22551089752276"><ele>98.0</ele><time>2026-04-11T08:28:23Z</time></trkpt><trkpt lat="45.38254967789234" lon="9.225490176224689"><ele>98.0</ele><time>2026-04-11T08:28:32Z</time></trkpt><trkpt lat="45.38261149828311" lon="9.225457848782105"><ele>97.99999999999999</ele><time>2026-04-11T08:28:40Z</time></trkpt><trkpt lat="45.38264403831207" lon="9.225558402712853"><ele>98.0</ele><time>2026-04-11T08:28:48Z</time></trkpt><trkpt lat="45.38256640756048" lon="9.225599010241003"><ele>97.99999999999999</ele><time>2026-04-11T08:28:50Z</time></trkpt><trkpt lat="45.382490774522346" lon="9.225603357202234"><ele>98.0</ele><time>2026-04-11T08:28:51Z</time></trkpt><trkpt lat="45.382411548802665" lon="9.225609399250969"><ele>98.0</ele><time>2026-04-11T08:28:52Z</time></trkpt><trkpt lat="45.38233184738045" lon="9.225610394123594"><ele>98.0</ele><time>2026-04-11T08:28:53Z</time></trkpt><trkpt lat="45.38225768530687" lon="9.22562627829988"><ele>97.99999999999999</ele><time>2026-04-11T08:28:54Z</time></trkpt><trkpt lat="45.382182596782584" lon="9.225622476938273"><ele>98.0</ele><time>2026-04-11T08:28:55Z</time></trkpt><trkpt lat="45.382114379335064" lon="9.225616730687378"><ele>97.99999999999999</ele><time>2026-04-11T08:28:56Z</time></trkpt><trkpt lat="45.38204853452775" lon="9.225619415768634"><ele>98.0</ele><time>2026-04-11T08:28:57Z</time></trkpt><trkpt lat="45.38198105005404" lon="9.225621496426875"><ele>98.0</ele><time>2026-04-11T08:28:58Z</time></trkpt><trkpt lat="45.38191171988636" lon="9.225622199436534"><ele>98.0</ele><time>2026-04-11T08:28:59Z</time></trkpt><trkpt lat="45.38184562006773" lon="9.225622364585368"><ele>97.99999999999999</ele><time>2026-04-11T08:29:00Z</time></trkpt><trkpt lat="45.38174301604597" lon="9.225633845344277"><ele>98.0</ele><time>2026-04-11T08:29:02Z</time></trkpt><trkpt lat="45.38166279953761" lon="9.225632756075544"><ele>97.99999999999999</ele><time>2026-04-11T08:29:04Z</time></trkpt><trkpt lat="45.381594080271256" lon="9.22564433184782"><ele>98.0</ele><time>2026-04-11T08:29:06Z</time></trkpt><trkpt lat="45.38152225956826" lon="9.225671775555659"><ele>98.0</ele><time>2026-04-11T08:29:08Z</time></trkpt><trkpt lat="45.38141673998394" lon="9.225707814413024"><ele>98.0</ele><time>2026-04-11T08:29:10Z</time></trkpt><trkpt lat="45.381331605976456" lon="9.225740870260218"><ele>97.99999999999999</ele><time>2026-04-11T08:29:12Z</time></trkpt><trkpt lat="45.381243371802135" lon="9.225779299381925"><ele>98.0</ele><time>2026-04-11T08:29:57.001Z</time></trkpt><trkpt lat="45.38116754985419" lon="9.22581262821951"><ele>97.99999999999999</ele><time>2026-04-11T08:29:58.001Z</time></trkpt><trkpt lat="45.3810879978885" lon="9.225844376790578"><ele>98.0</ele><time>2026-04-11T08:29:59.001Z</time></trkpt><trkpt lat="45.38100345932874" lon="9.225879678463897"><ele>98.0</ele><time>2026-04-11T08:30:00.001Z</time></trkpt><trkpt lat="45.380925514059854" lon="9.225912487741802"><ele>98.0</ele><time>2026-04-11T08:30:01.001Z</time></trkpt><trkpt lat="45.38085419542578" lon="9.225942337755402"><ele>97.99999999999999</ele><time>2026-04-11T08:30:02.001Z</time></trkpt><trkpt lat="45.38079162798375" lon="9.225968301045958"><ele>98.0</ele><time>2026-04-11T08:30:03.001Z</time></trkpt><trkpt lat="45.38068505880404" lon="9.22610102503326"><ele>97.99999999999999</ele><time>2026-04-11T08:30:05.001Z</time></trkpt><trkpt lat="45.380596605689796" lon="9.226062700827308"><ele>98.0</ele><time>2026-04-11T08:30:07.001Z</time></trkpt><trkpt lat="45.380481779528424" lon="9.226100261526886"><ele>98.0</ele><time>2026-04-11T08:30:09.001Z</time></trkpt><trkpt lat="45.38041536528533" lon="9.22612638282568"><ele>98.0</ele><time>2026-04-11T08:30:10.001Z</time></trkpt><trkpt lat="45.38033733170998" lon="9.226156539751484"><ele>97.99999999999999</ele><time>2026-04-11T08:30:11.001Z</time></trkpt><trkpt lat="45.380257488751354" lon="9.226202530367802"><ele>98.0</ele><time>2026-04-11T08:30:12.001Z</time></trkpt><trkpt lat="45.38017274310914" lon="9.226225234785037"><ele>98.16666666666666</ele><time>2026-04-11T08:30:13.001Z</time></trkpt><trkpt lat="45.38009370162684" lon="9.226256567290905"><ele>98.33333333333333</ele><time>2026-04-11T08:30:14.001Z</time></trkpt><trkpt lat="45.380015677839694" lon="9.22628686899779"><ele>98.5</ele><time>2026-04-11T08:30:15.001Z</time></trkpt><trkpt lat="45.379936064581564" lon="9.226320196371889"><ele>98.66666666666666</ele><time>2026-04-11T08:30:16Z</time></trkpt><trkpt lat="45.37985791910605" lon="9.226354061875094"><ele>98.83333333333333</ele><time>2026-04-11T08:30:17.001Z</time></trkpt><trkpt lat="45.37977581136227" lon="9.226384157581656"><ele>99.0</ele><time>2026-04-11T08:30:18.001Z</time></trkpt><trkpt lat="45.379697562066326" lon="9.226377974118428"><ele>99.0</ele><time>2026-04-11T08:30:19.001Z</time></trkpt><trkpt lat="45.37961869391466" lon="9.22639791668556"><ele>99.0</ele><time>2026-04-11T08:30:20.001Z</time></trkpt><trkpt lat="45.37954917695637" lon="9.226417524898412"><ele>99.0</ele><time>2026-04-11T08:30:21.001Z</time></trkpt><trkpt lat="45.37946799693111" lon="9.226417785383699"><ele>99.0</ele><time>2026-04-11T08:30:22.001Z</time></trkpt><trkpt lat="45.379378012177796" lon="9.22641790369249"><ele>99.0</ele><time>2026-04-11T08:30:23.001Z</time></trkpt><trkpt lat="45.37928215668317" lon="9.226425128493988"><ele>99.0</ele><time>2026-04-11T08:30:24.001Z</time></trkpt><trkpt lat="45.37919468569619" lon="9.226427913938567"><ele>99.0</ele><time>2026-04-11T08:30:25.001Z</time></trkpt><trkpt lat="45.37910892104458" lon="9.226440179039535"><ele>99.0</ele><time>2026-04-11T08:30:26.001Z</time></trkpt><trkpt lat="45.379028015843986" lon="9.226452102034525"><ele>99.0</ele><time>2026-04-11T08:30:27.001Z</time></trkpt><trkpt lat="45.37895127742024" lon="9.22646233347634"><ele>99.0</ele><time>2026-04-11T08:30:28.001Z</time></trkpt><trkpt lat="45.37888024630575" lon="9.226509295704647"><ele>99.0</ele><time>2026-04-11T08:30:29.001Z</time></trkpt><trkpt lat="45.37881442421703" lon="9.226559834476497"><ele>99.0</ele><time>2026-04-11T08:30:30.001Z</time></trkpt><trkpt lat="45.378733156269035" lon="9.226629830625162"><ele>98.5</ele><time>2026-04-11T08:30:31.001Z</time></trkpt><trkpt lat="45.37863387945154" lon="9.226700054446603"><ele>98.0</ele><time>2026-04-11T08:30:32.001Z</time></trkpt><trkpt lat="45.37852798108842" lon="9.226776377035746"><ele>97.5</ele><time>2026-04-11T08:30:33Z</time></trkpt><trkpt lat="45.378413766273816" lon="9.226832687037374"><ele>97.0</ele><time>2026-04-11T08:30:34Z</time></trkpt><trkpt lat="45.378301793012405" lon="9.226900397356037"><ele>97.0</ele><time>2026-04-11T08:30:35Z</time></trkpt><trkpt lat="45.3781893397801" lon="9.226987205807305"><ele>97.0</ele><time>2026-04-11T08:30:36Z</time></trkpt><trkpt lat="45.37806418961344" lon="9.227050803740521"><ele>97.0</ele><time>2026-04-11T08:30:37Z</time></trkpt><trkpt lat="45.37793742651739" lon="9.227117159154796"><ele>97.0</ele><time>2026-04-11T08:30:38Z</time></trkpt><trkpt lat="45.3778032473659" lon="9.227155733868432"><ele>97.0</ele><time>2026-04-11T08:30:39Z</time></trkpt><trkpt lat="45.37767488301153" lon="9.227209535497034"><ele>97.0</ele><time>2026-04-11T08:30:40Z</time></trkpt><trkpt lat="45.37755289291001" lon="9.227278458086184"><ele>97.0</ele><time>2026-04-11T08:30:41Z</time></trkpt><trkpt lat="45.37743114114348" lon="9.227296344843401"><ele>97.0</ele><time>2026-04-11T08:30:42Z</time></trkpt><trkpt lat="45.377330439759646" lon="9.227352021939618"><ele>97.00000000000001</ele><time>2026-04-11T08:30:43Z</time></trkpt><trkpt lat="45.37724095435135" lon="9.227377749261644"><ele>97.0</ele><time>2026-04-11T08:30:44Z</time></trkpt><trkpt lat="45.37716836013659" lon="9.227377085763559"><ele>97.0</ele><time>2026-04-11T08:30:45Z</time></trkpt><trkpt lat="45.37710637100649" lon="9.227413496742653"><ele>97.0</ele><time>2026-04-11T08:30:46Z</time></trkpt><trkpt lat="45.37700642025008" lon="9.227386945691524"><ele>97.00000000000001</ele><time>2026-04-11T08:30:48Z</time></trkpt><trkpt lat="45.376947925195786" lon="9.227279329501497"><ele>97.0</ele><time>2026-04-11T08:30:50Z</time></trkpt><trkpt lat="45.37694148567976" lon="9.227112945893513"><ele>97.75</ele><time>2026-04-11T08:30:52Z</time></trkpt><trkpt lat="45.37692181118938" lon="9.226939653748367"><ele>98.5</ele><time>2026-04-11T08:30:54Z</time></trkpt><trkpt lat="45.3769101693773" lon="9.2267722456464"><ele>99.25</ele><time>2026-04-11T08:30:56Z</time></trkpt><trkpt lat="45.37690397054535" lon="9.226605039051842"><ele>100.0</ele><time>2026-04-11T08:30:58Z</time></trkpt><trkpt lat="45.37689755067935" lon="9.226426963498742"><ele>100.00000000000001</ele><time>2026-04-11T08:31:00.001Z</time></trkpt><trkpt lat="45.37689069018081" lon="9.226322863471957"><ele>100.0</ele><time>2026-04-11T08:31:01.001Z</time></trkpt><trkpt lat="45.37688058224978" lon="9.226220727278578"><ele>100.0</ele><time>2026-04-11T08:31:02.001Z</time></trkpt><trkpt lat="45.376871991439366" lon="9.226104017551918"><ele>100.0</ele><time>2026-04-11T08:31:03.001Z</time></trkpt><trkpt lat="45.37686718632341" lon="9.225982358687201"><ele>100.00000000000001</ele><time>2026-04-11T08:31:04.001Z</time></trkpt><trkpt lat="45.37685973013036" lon="9.225862165181447"><ele>100.0</ele><time>2026-04-11T08:31:05.001Z</time></trkpt><trkpt lat="45.37685350464824" lon="9.225739995954076"><ele>99.6</ele><time>2026-04-11T08:31:06.001Z</time></trkpt><trkpt lat="45.37684797293794" lon="9.225613455335493"><ele>99.2</ele><time>2026-04-11T08:31:07.001Z</time></trkpt><trkpt lat="45.376836932163826" lon="9.22548730129998"><ele>98.80000000000001</ele><time>2026-04-11T08:31:08.001Z</time></trkpt><trkpt lat="45.376827714530904" lon="9.22535882106536"><ele>98.4</ele><time>2026-04-11T08:31:09.001Z</time></trkpt><trkpt lat="45.3768186617068" lon="9.225225821583233"><ele>98.0</ele><time>2026-04-11T08:31:10.001Z</time></trkpt><trkpt lat="45.37680974471886" lon="9.225086321274667"><ele>98.0</ele><time>2026-04-11T08:31:11.001Z</time></trkpt><trkpt lat="45.37680413548394" lon="9.224945431210191"><ele>98.0</ele><time>2026-04-11T08:31:12.001Z</time></trkpt><trkpt lat="45.37679596276871" lon="9.224799769741782"><ele>98.0</ele><time>2026-04-11T08:31:13.001Z</time></trkpt><trkpt lat="45.37678532805412" lon="9.224654718801254"><ele>98.0</ele><time>2026-04-11T08:31:14.001Z</time></trkpt><trkpt lat="45.37677425530777" lon="9.224502131313185"><ele>98.0</ele><time>2026-04-11T08:31:15.001Z</time></trkpt><trkpt lat="45.37676518809979" lon="9.224352821864647"><ele>98.0</ele><time>2026-04-11T08:31:16.001Z</time></trkpt><trkpt lat="45.37675523327919" lon="9.224205315635198"><ele>98.0</ele><time>2026-04-11T08:31:17.001Z</time></trkpt><trkpt lat="45.37674563333953" lon="9.224055130172768"><ele>98.0</ele><time>2026-04-11T08:31:18.001Z</time></trkpt><trkpt lat="45.376734865649574" lon="9.223902363533544"><ele>98.0</ele><time>2026-04-11T08:31:19.001Z</time></trkpt><trkpt lat="45.376724256195" lon="9.223747412186164"><ele>98.0</ele><time>2026-04-11T08:31:20.001Z</time></trkpt><trkpt lat="45.37671425391774" lon="9.223590244038478"><ele>98.25</ele><time>2026-04-11T08:31:21.001Z</time></trkpt><trkpt lat="45.37670560184907" lon="9.223426052121276"><ele>98.5</ele><time>2026-04-11T08:31:22.001Z</time></trkpt><trkpt lat="45.37669533950137" lon="9.223258296156022"><ele>98.75</ele><time>2026-04-11T08:31:23.001Z</time></trkpt><trkpt lat="45.376683080840024" lon="9.223086452232922"><ele>99.0</ele><time>2026-04-11T08:31:24.001Z</time></trkpt><trkpt lat="45.37666916064691" lon="9.222922049696997"><ele>99.16666666666667</ele><time>2026-04-11T08:31:25.001Z</time></trkpt><trkpt lat="45.37665987939234" lon="9.22277174794654"><ele>99.33333333333334</ele><time>2026-04-11T08:31:26.001Z</time></trkpt><trkpt lat="45.37666780911375" lon="9.222641333453442"><ele>99.5</ele><time>2026-04-11T08:31:27.001Z</time></trkpt><trkpt lat="45.37666141680239" lon="9.222539345124996"><ele>99.66666666666667</ele><time>2026-04-11T08:31:28.001Z</time></trkpt><trkpt lat="45.37667895742632" lon="9.222437853033604"><ele>99.83333333333334</ele><time>2026-04-11T08:31:30.001Z</time></trkpt><trkpt lat="45.376776985191505" lon="9.22244487439259"><ele>100.0</ele><time>2026-04-11T08:31:32Z</time></trkpt><trkpt lat="45.37688153030933" lon="9.222430441378897"><ele>100.0</ele><time>2026-04-11T08:31:34Z</time></trkpt><trkpt lat="45.37698857018948" lon="9.222416503575614"><ele>100.0</ele><time>2026-04-11T08:31:36Z</time></trkpt><trkpt lat="45.37708483318454" lon="9.222406836689537"><ele>100.0</ele><time>2026-04-11T08:31:38Z</time></trkpt><trkpt lat="45.37717134434742" lon="9.22239084701463"><ele>100.0</ele><time>2026-04-11T08:31:40Z</time></trkpt><trkpt lat="45.37727282103289" lon="9.22237400096897"><ele>100.0</ele><time>2026-04-11T08:31:43Z</time></trkpt><trkpt lat="45.37738944816772" lon="9.222387118353774"><ele>99.83333333333334</ele><time>2026-04-11T08:31:45Z</time></trkpt><trkpt lat="45.377521724663225" lon="9.222346477329513"><ele>99.66666666666667</ele><time>2026-04-11T08:31:47Z</time></trkpt><trkpt lat="45.37760057177229" lon="9.222359667307366"><ele>99.5</ele><time>2026-04-11T08:31:48Z</time></trkpt><trkpt lat="45.37767955408992" lon="9.222349397729838"><ele>99.33333333333334</ele><time>2026-04-11T08:31:49Z</time></trkpt><trkpt lat="45.37775520382715" lon="9.222340510737585"><ele>99.16666666666667</ele><time>2026-04-11T08:31:50Z</time></trkpt><trkpt lat="45.37782208419737" lon="9.222332668481714"><ele>99.0</ele><time>2026-04-11T08:31:51Z</time></trkpt><trkpt lat="45.37793109633237" lon="9.22230171153989"><ele>99.0</ele><time>2026-04-11T08:31:53Z</time></trkpt><trkpt lat="45.37799701459658" lon="9.22231215652781"><ele>99.0</ele><time>2026-04-11T08:31:55Z</time></trkpt><trkpt lat="45.37806058613541" lon="9.22230470226444"><ele>99.0</ele><time>2026-04-11T08:31:58Z</time></trkpt><trkpt lat="45.37805740743817" lon="9.22212834778682"><ele>99.0</ele><time>2026-04-11T08:31:59Z</time></trkpt><trkpt lat="45.37805699400067" lon="9.222016028282514"><ele>99.0</ele><time>2026-04-11T08:32:00Z</time></trkpt><trkpt lat="45.37805047463646" lon="9.221913775773489"><ele>99.0</ele><time>2026-04-11T08:32:01Z</time></trkpt><trkpt lat="45.378028589573056" lon="9.221793151658815"><ele>98.80000000000001</ele><time>2026-04-11T08:32:02Z</time></trkpt><trkpt lat="45.37801839936713" lon="9.221658175265608"><ele>98.60000000000001</ele><time>2026-04-11T08:32:03Z</time></trkpt><trkpt lat="45.37801181063799" lon="9.221516656517936"><ele>98.4</ele><time>2026-04-11T08:32:04Z</time></trkpt><trkpt lat="45.37800376661441" lon="9.221371843411001"><ele>98.2</ele><time>2026-04-11T08:32:05Z</time></trkpt><trkpt lat="45.378001621988375" lon="9.221238446436216"><ele>98.0</ele><time>2026-04-11T08:32:06Z</time></trkpt><trkpt lat="45.378002948188005" lon="9.221119455667015"><ele>98.14285714285714</ele><time>2026-04-11T08:32:07Z</time></trkpt><trkpt lat="45.37798099967057" lon="9.221012965715227"><ele>98.28571428571428</ele><time>2026-04-11T08:32:08Z</time></trkpt><trkpt lat="45.37797424164142" lon="9.220909204283597"><ele>98.42857142857143</ele><time>2026-04-11T08:32:09Z</time></trkpt><trkpt lat="45.37798423946498" lon="9.220802371199825"><ele>98.57142857142857</ele><time>2026-04-11T08:32:10Z</time></trkpt><trkpt lat="45.37797797033172" lon="9.220699079312158"><ele>98.71428571428571</ele><time>2026-04-11T08:32:11Z</time></trkpt><trkpt lat="45.37795823763078" lon="9.220607422409284"><ele>98.85714285714286</ele><time>2026-04-11T08:32:12Z</time></trkpt><trkpt lat="45.37795529292197" lon="9.220511467192122"><ele>99.0</ele><time>2026-04-11T08:32:13Z</time></trkpt><trkpt lat="45.37794538612468" lon="9.220349952204547"><ele>99.0</ele><time>2026-04-11T08:32:15Z</time></trkpt><trkpt lat="45.377951289167626" lon="9.22023027811131"><ele>99.0</ele><time>2026-04-11T08:32:17Z</time></trkpt><trkpt lat="45.378014418058996" lon="9.220215062257463"><ele>99.0</ele><time>2026-04-11T08:32:20Z</time></trkpt><trkpt lat="45.378133475126326" lon="9.220214219755036"><ele>99.0</ele><time>2026-04-11T08:32:22Z</time></trkpt><trkpt lat="45.37819936673414" lon="9.22022517240615"><ele>99.0</ele><time>2026-04-11T08:32:23Z</time></trkpt><trkpt lat="45.37827493741807" lon="9.220234884622382"><ele>99.0</ele><time>2026-04-11T08:32:24Z</time></trkpt><trkpt lat="45.37835111653624" lon="9.22024056404904"><ele>98.83333333333333</ele><time>2026-04-11T08:32:25Z</time></trkpt><trkpt lat="45.37843174043569" lon="9.22023086833906"><ele>98.66666666666666</ele><time>2026-04-11T08:32:26Z</time></trkpt><trkpt lat="45.37851340502562" lon="9.220222049626573"><ele>98.5</ele><time>2026-04-11T08:32:27Z</time></trkpt><trkpt lat="45.378598256116604" lon="9.220215508080381"><ele>98.33333333333333</ele><time>2026-04-11T08:32:28Z</time></trkpt><trkpt lat="45.37868200329235" lon="9.220208908683121"><ele>98.16666666666666</ele><time>2026-04-11T08:32:29Z</time></trkpt><trkpt lat="45.37876204960625" lon="9.220198007053744"><ele>98.0</ele><time>2026-04-11T08:32:30Z</time></trkpt><trkpt lat="45.378838475024075" lon="9.22018507923223"><ele>98.0</ele><time>2026-04-11T08:32:31Z</time></trkpt><trkpt lat="45.37890944207493" lon="9.220178427805623"><ele>98.0</ele><time>2026-04-11T08:32:32Z</time></trkpt><trkpt lat="45.37897210266367" lon="9.220169565465675"><ele>98.0</ele><time>2026-04-11T08:32:33Z</time></trkpt><trkpt lat="45.3790544904996" lon="9.220154276989277"><ele>98.0</ele><time>2026-04-11T08:32:35Z</time></trkpt><trkpt lat="45.37912153052545" lon="9.220154397075659"><ele>98.0</ele><time>2026-04-11T08:32:37Z</time></trkpt><trkpt lat="45.37920142074072" lon="9.22015531435994"><ele>98.0</ele><time>2026-04-11T08:32:40Z</time></trkpt><trkpt lat="45.37926398910974" lon="9.220124382503492"><ele>98.0</ele><time>2026-04-11T08:32:43Z</time></trkpt><trkpt lat="45.379330932213804" lon="9.22014041970679"><ele>97.99999999999999</ele><time>2026-04-11T08:32:46Z</time></trkpt><trkpt lat="45.37940228106933" lon="9.220268317478828"><ele>98.0</ele><time>2026-04-11T08:32:48Z</time></trkpt><trkpt lat="45.37944510283274" lon="9.220348187654222"><ele>98.0</ele><time>2026-04-11T08:32:49Z</time></trkpt><trkpt lat="45.37949372111792" lon="9.220416213264484"><ele>98.0</ele><time>2026-04-11T08:32:50Z</time></trkpt><trkpt lat="45.37955952578962" lon="9.220460648647345"><ele>97.99999999999999</ele><time>2026-04-11T08:32:51Z</time></trkpt><trkpt lat="45.37962509443638" lon="9.220464210960944"><ele>98.0</ele><time>2026-04-11T08:32:52Z</time></trkpt><trkpt lat="45.37966618347063" lon="9.220317252105268"><ele>97.99999999999999</ele><time>2026-04-11T08:32:54Z</time></trkpt><trkpt lat="45.37964171836205" lon="9.22023288275837"><ele>98.0</ele><time>2026-04-11T08:32:55Z</time></trkpt><trkpt lat="45.379602853942835" lon="9.22014404000904"><ele>98.0</ele><time>2026-04-11T08:32:56Z</time></trkpt><trkpt lat="45.37956227992874" lon="9.220041707952655"><ele>98.0</ele><time>2026-04-11T08:32:57Z</time></trkpt><trkpt lat="45.3795198336292" lon="9.219928927816014"><ele>97.99999999999999</ele><time>2026-04-11T08:32:58Z</time></trkpt><trkpt lat="45.37947763548129" lon="9.219812990424966"><ele>98.0</ele><time>2026-04-11T08:32:59Z</time></trkpt><trkpt lat="45.37943735499659" lon="9.219698758115369"><ele>98.2</ele><time>2026-04-11T08:33:00Z</time></trkpt><trkpt lat="45.379395720199454" lon="9.219573594530642"><ele>98.4</ele><time>2026-04-11T08:33:01Z</time></trkpt><trkpt lat="45.37935883593078" lon="9.219439352803823"><ele>98.60000000000001</ele><time>2026-04-11T08:33:02Z</time></trkpt><trkpt lat="45.37932463438511" lon="9.219297391236111"><ele>98.80000000000001</ele><time>2026-04-11T08:33:03Z</time></trkpt><trkpt lat="45.379294341889704" lon="9.219155955108413"><ele>99.0</ele><time>2026-04-11T08:33:04Z</time></trkpt><trkpt lat="45.37926921871744" lon="9.219018548716615"><ele>99.0</ele><time>2026-04-11T08:33:05Z</time></trkpt><trkpt lat="45.37924577953236" lon="9.218880746421043"><ele>99.0</ele><time>2026-04-11T08:33:06Z</time></trkpt><trkpt lat="45.37922250176502" lon="9.21874418451042"><ele>99.0</ele><time>2026-04-11T08:33:07Z</time></trkpt><trkpt lat="45.379199047724164" lon="9.21861033088039"><ele>99.0</ele><time>2026-04-11T08:33:08Z</time></trkpt><trkpt lat="45.37917723964441" lon="9.218478833589007"><ele>99.0</ele><time>2026-04-11T08:33:09Z</time></trkpt><trkpt lat="45.379155261309286" lon="9.21834731905377"><ele>99.0</ele><time>2026-04-11T08:33:10Z</time></trkpt><trkpt lat="45.37913178405108" lon="9.218216195747331"><ele>99.0</ele><time>2026-04-11T08:33:11Z</time></trkpt><trkpt lat="45.379110163906105" lon="9.218084141296412"><ele>99.0</ele><time>2026-04-11T08:33:12Z</time></trkpt><trkpt lat="45.37909035678936" lon="9.217966607467279"><ele>99.0</ele><time>2026-04-11T08:33:13Z</time></trkpt><trkpt lat="45.379066302814124" lon="9.2178407013096"><ele>99.0</ele><time>2026-04-11T08:33:15Z</time></trkpt><trkpt lat="45.37904068594732" lon="9.217713703925202"><ele>99.0</ele><time>2026-04-11T08:33:17Z</time></trkpt><trkpt lat="45.379025349559534" lon="9.21762465946828"><ele>99.0</ele><time>2026-04-11T08:33:18Z</time></trkpt><trkpt lat="45.37901415520515" lon="9.21752584084912"><ele>99.0</ele><time>2026-04-11T08:33:19Z</time></trkpt><trkpt lat="45.37900124686891" lon="9.217410368360877"><ele>99.0</ele><time>2026-04-11T08:33:20Z</time></trkpt><trkpt lat="45.3789805602509" lon="9.217308987551037"><ele>99.0</ele><time>2026-04-11T08:33:21Z</time></trkpt><trkpt lat="45.37896462640149" lon="9.217215186976723"><ele>99.0</ele><time>2026-04-11T08:33:22Z</time></trkpt><trkpt lat="45.378948302844506" lon="9.217108527071874"><ele>99.0</ele><time>2026-04-11T08:33:23Z</time></trkpt><trkpt lat="45.378925587311734" lon="9.216986956937118"><ele>99.0</ele><time>2026-04-11T08:33:24Z</time></trkpt><trkpt lat="45.378904011641815" lon="9.216854525901002"><ele>99.0</ele><time>2026-04-11T08:33:25Z</time></trkpt><trkpt lat="45.378879098759626" lon="9.216714889228172"><ele>99.0</ele><time>2026-04-11T08:33:26Z</time></trkpt><trkpt lat="45.37885999907447" lon="9.216576151691449"><ele>99.0</ele><time>2026-04-11T08:33:27Z</time></trkpt><trkpt lat="45.37884248605155" lon="9.216443557064332"><ele>99.0</ele><time>2026-04-11T08:33:28Z</time></trkpt><trkpt lat="45.37882856697982" lon="9.21631178573404"><ele>99.33333333333333</ele><time>2026-04-11T08:33:29Z</time></trkpt><trkpt lat="45.3788203684119" lon="9.216177498565907"><ele>99.66666666666666</ele><time>2026-04-11T08:33:30Z</time></trkpt><trkpt lat="45.3788209950601" lon="9.21604911252369"><ele>100.0</ele><time>2026-04-11T08:33:31Z</time></trkpt><trkpt lat="45.378829097564754" lon="9.215933227642589"><ele>100.33333333333333</ele><time>2026-04-11T08:33:32Z</time></trkpt><trkpt lat="45.378837631746805" lon="9.215825584851684"><ele>100.66666666666666</ele><time>2026-04-11T08:33:33Z</time></trkpt><trkpt lat="45.37884360429473" lon="9.21572547837804"><ele>101.0</ele><time>2026-04-11T08:33:34Z</time></trkpt><trkpt lat="45.37885008749088" lon="9.215567430911017"><ele>101.19999999999999</ele><time>2026-04-11T08:33:36Z</time></trkpt><trkpt lat="45.37886709587403" lon="9.215339542397954"><ele>101.39999999999999</ele><time>2026-04-11T08:33:39Z</time></trkpt><trkpt lat="45.378869428649914" lon="9.215239372919159"><ele>101.6</ele><time>2026-04-11T08:33:40Z</time></trkpt><trkpt lat="45.37886029201211" lon="9.215133592118569"><ele>101.8</ele><time>2026-04-11T08:33:41Z</time></trkpt><trkpt lat="45.37884261053812" lon="9.215043442045486"><ele>102.0</ele><time>2026-04-11T08:33:42Z</time></trkpt><trkpt lat="45.37881923678178" lon="9.214933229032223"><ele>102.0</ele><time>2026-04-11T08:33:45Z</time></trkpt><trkpt lat="45.37876313830916" lon="9.214843077904273"><ele>102.0</ele><time>2026-04-11T08:33:49Z</time></trkpt><trkpt lat="45.37882007607243" lon="9.214740599999285"><ele>102.0</ele><time>2026-04-11T08:33:50Z</time></trkpt><trkpt lat="45.37887613172667" lon="9.214668650412833"><ele>102.0</ele><time>2026-04-11T08:33:51Z</time></trkpt><trkpt lat="45.37893332967629" lon="9.214615097857648"><ele>102.0</ele><time>2026-04-11T08:33:52Z</time></trkpt><trkpt lat="45.37899694034411" lon="9.214550766843173"><ele>102.0</ele><time>2026-04-11T08:33:53Z</time></trkpt><trkpt lat="45.37907114056366" lon="9.214474767742939"><ele>101.5</ele><time>2026-04-11T08:33:54Z</time></trkpt><trkpt lat="45.37914543533746" lon="9.214396300101162"><ele>101.0</ele><time>2026-04-11T08:33:55Z</time></trkpt><trkpt lat="45.37921182653158" lon="9.214325815634776"><ele>100.5</ele><time>2026-04-11T08:33:56Z</time></trkpt><trkpt lat="45.37926772349838" lon="9.214261807716342"><ele>100.0</ele><time>2026-04-11T08:33:57Z</time></trkpt><trkpt lat="45.379327986243446" lon="9.214188975044605"><ele>99.5</ele><time>2026-04-11T08:33:58Z</time></trkpt><trkpt lat="45.379373797330544" lon="9.214097194677636"><ele>99.0</ele><time>2026-04-11T08:33:59Z</time></trkpt><trkpt lat="45.37940587606494" lon="9.213982644573191"><ele>99.0</ele><time>2026-04-11T08:34:00Z</time></trkpt><trkpt lat="45.37942657112984" lon="9.213844375921267"><ele>99.0</ele><time>2026-04-11T08:34:01Z</time></trkpt><trkpt lat="45.37944055431211" lon="9.21369359638348"><ele>99.0</ele><time>2026-04-11T08:34:02Z</time></trkpt><trkpt lat="45.379452708752396" lon="9.213538957152815"><ele>99.0</ele><time>2026-04-11T08:34:03Z</time></trkpt><trkpt lat="45.37946164452542" lon="9.213406213918805"><ele>99.0</ele><time>2026-04-11T08:34:04Z</time></trkpt><trkpt lat="45.379472882566965" lon="9.213287778503064"><ele>99.0</ele><time>2026-04-11T08:34:05Z</time></trkpt><trkpt lat="45.3794936093508" lon="9.213189590696546"><ele>99.0</ele><time>2026-04-11T08:34:06Z</time></trkpt><trkpt lat="45.37954007198571" lon="9.213052267744409"><ele>99.0</ele><time>2026-04-11T08:34:08Z</time></trkpt><trkpt lat="45.37957174749654" lon="9.212949220990886"><ele>99.0</ele><time>2026-04-11T08:34:11.001Z</time></trkpt><trkpt lat="45.37965184307475" lon="9.212860294382772"><ele>99.0</ele><time>2026-04-11T08:34:19.001Z</time></trkpt><trkpt lat="45.379716493894605" lon="9.212738765275967"><ele>99.0</ele><time>2026-04-11T08:34:21.001Z</time></trkpt><trkpt lat="45.379707471380016" lon="9.212612236081014"><ele>99.0</ele><time>2026-04-11T08:34:22.001Z</time></trkpt><trkpt lat="45.37969654921933" lon="9.212484199651879"><ele>99.0</ele><time>2026-04-11T08:34:23.001Z</time></trkpt><trkpt lat="45.37969696924887" lon="9.212332620430203"><ele>99.0</ele><time>2026-04-11T08:34:24.001Z</time></trkpt><trkpt lat="45.37969559383033" lon="9.212166055014725"><ele>99.0</ele><time>2026-04-11T08:34:25.001Z</time></trkpt><trkpt lat="45.37969950268149" lon="9.212002812844341"><ele>99.0</ele><time>2026-04-11T08:34:26.001Z</time></trkpt><trkpt lat="45.37969641039576" lon="9.211838245843474"><ele>99.0</ele><time>2026-04-11T08:34:27.001Z</time></trkpt><trkpt lat="45.37968849007451" lon="9.21167309344682"><ele>99.0</ele><time>2026-04-11T08:34:28Z</time></trkpt><trkpt lat="45.379679208175155" lon="9.211518720656896"><ele>99.0</ele><time>2026-04-11T08:34:29Z</time></trkpt><trkpt lat="45.379670082627655" lon="9.211376850424575"><ele>99.0</ele><time>2026-04-11T08:34:30Z</time></trkpt><trkpt lat="45.37966174939289" lon="9.211245012478392"><ele>99.0</ele><time>2026-04-11T08:34:31Z</time></trkpt><trkpt lat="45.379654408653955" lon="9.211122477263698"><ele>99.0</ele><time>2026-04-11T08:34:32Z</time></trkpt><trkpt lat="45.37964723267261" lon="9.211007790096737"><ele>99.0</ele><time>2026-04-11T08:34:33Z</time></trkpt><trkpt lat="45.37963960832326" lon="9.210893931511738"><ele>99.0</ele><time>2026-04-11T08:34:34Z</time></trkpt><trkpt lat="45.37962956841062" lon="9.210773474976596"><ele>99.0</ele><time>2026-04-11T08:34:35Z</time></trkpt><trkpt lat="45.37962230813346" lon="9.210655995616271"><ele>99.0</ele><time>2026-04-11T08:34:36Z</time></trkpt><trkpt lat="45.37961606436419" lon="9.210544561712238"><ele>99.66666666666667</ele><time>2026-04-11T08:34:37Z</time></trkpt><trkpt lat="45.37961702160404" lon="9.210434131644758"><ele>100.33333333333334</ele><time>2026-04-11T08:34:38Z</time></trkpt><trkpt lat="45.37962318216161" lon="9.21032177164216"><ele>101.0</ele><time>2026-04-11T08:34:39Z</time></trkpt><trkpt lat="45.3796264813939" lon="9.210204373174287"><ele>101.66666666666667</ele><time>2026-04-11T08:34:40Z</time></trkpt><trkpt lat="45.37964876314646" lon="9.210104082935107"><ele>102.33333333333334</ele><time>2026-04-11T08:34:41Z</time></trkpt><trkpt lat="45.37965778547405" lon="9.209952712083217"><ele>103.0</ele><time>2026-04-11T08:34:43Z</time></trkpt><trkpt lat="45.379662799939105" lon="9.20983617586953"><ele>103.0</ele><time>2026-04-11T08:34:45Z</time></trkpt><trkpt lat="45.379494179767" lon="9.209804971293291"><ele>103.0</ele><time>2026-04-11T08:34:48Z</time></trkpt><trkpt lat="45.37939086492499" lon="9.209854417137922"><ele>103.0</ele><time>2026-04-11T08:34:50Z</time></trkpt><trkpt lat="45.379291266111025" lon="9.209900077696085"><ele>103.0</ele><time>2026-04-11T08:34:51Z</time></trkpt><trkpt lat="45.37917426411722" lon="9.209951042184489"><ele>103.0</ele><time>2026-04-11T08:34:52Z</time></trkpt><trkpt lat="45.37904763225082" lon="9.20999588052735"><ele>103.0</ele><time>2026-04-11T08:34:53Z</time></trkpt><trkpt lat="45.378920372193534" lon="9.210041840809774"><ele>103.0</ele><time>2026-04-11T08:34:54Z</time></trkpt><trkpt lat="45.37878904809284" lon="9.21008999186356"><ele>103.0</ele><time>2026-04-11T08:34:55Z</time></trkpt><trkpt lat="45.37865324167786" lon="9.210142837676546"><ele>102.5</ele><time>2026-04-11T08:34:56Z</time></trkpt><trkpt lat="45.378523273923946" lon="9.210193745792965"><ele>102.0</ele><time>2026-04-11T08:34:57Z</time></trkpt><trkpt lat="45.378407876792" lon="9.210251933038943"><ele>101.5</ele><time>2026-04-11T08:34:58Z</time></trkpt><trkpt lat="45.378279349790084" lon="9.210283911903227"><ele>101.0</ele><time>2026-04-11T08:34:59Z</time></trkpt><trkpt lat="45.378151957494495" lon="9.210328129405854"><ele>101.0</ele><time>2026-04-11T08:35:00Z</time></trkpt><trkpt lat="45.37801138776423" lon="9.210373764870758"><ele>101.0</ele><time>2026-04-11T08:35:01Z</time></trkpt><trkpt lat="45.37787393687602" lon="9.210417175547086"><ele>101.0</ele><time>2026-04-11T08:35:02Z</time></trkpt><trkpt lat="45.37775968722611" lon="9.21045750472772"><ele>101.0</ele><time>2026-04-11T08:35:03Z</time></trkpt><trkpt lat="45.37766461995946" lon="9.210489995471955"><ele>101.0</ele><time>2026-04-11T08:35:04Z</time></trkpt><trkpt lat="45.377588444952515" lon="9.210524004293164"><ele>101.0</ele><time>2026-04-11T08:35:05Z</time></trkpt><trkpt lat="45.37752874794418" lon="9.21055726656687"><ele>101.0</ele><time>2026-04-11T08:35:06Z</time></trkpt><trkpt lat="45.377453323818436" lon="9.210609534191217"><ele>101.0</ele><time>2026-04-11T08:35:08Z</time></trkpt><trkpt lat="45.377437371456594" lon="9.210380644217512"><ele>101.0</ele><time>2026-04-11T08:35:10Z</time></trkpt><trkpt lat="45.377412922283256" lon="9.210279229752867"><ele>100.99999999999999</ele><time>2026-04-11T08:35:11Z</time></trkpt><trkpt lat="45.37738897407705" lon="9.210179893279108"><ele>101.0</ele><time>2026-04-11T08:35:12Z</time></trkpt><trkpt lat="45.377358328946855" lon="9.210079360931015"><ele>101.0</ele><time>2026-04-11T08:35:13Z</time></trkpt><trkpt lat="45.37733091379436" lon="9.209959119205795"><ele>101.0</ele><time>2026-04-11T08:35:14Z</time></trkpt><trkpt lat="45.37730536808319" lon="9.209842831359763"><ele>100.99999999999999</ele><time>2026-04-11T08:35:15Z</time></trkpt><trkpt lat="45.377281042325215" lon="9.209750601728175"><ele>101.0</ele><time>2026-04-11T08:35:16Z</time></trkpt><trkpt lat="45.3772530016512" lon="9.209615880480134"><ele>100.4</ele><time>2026-04-11T08:35:20Z</time></trkpt><trkpt lat="45.37709157677038" lon="9.209623828858582"><ele>99.8</ele><time>2026-04-11T08:35:21Z</time></trkpt><trkpt lat="45.37701262799897" lon="9.209617733642022"><ele>99.2</ele><time>2026-04-11T08:35:22Z</time></trkpt><trkpt lat="45.37692736381366" lon="9.209613210674872"><ele>98.60000000000001</ele><time>2026-04-11T08:35:23Z</time></trkpt><trkpt lat="45.37684030425804" lon="9.209612222239523"><ele>98.0</ele><time>2026-04-11T08:35:24Z</time></trkpt><trkpt lat="45.376765473179766" lon="9.209604399607475"><ele>97.99999999999999</ele><time>2026-04-11T08:35:25Z</time></trkpt><trkpt lat="45.37669395798088" lon="9.209590032228238"><ele>98.0</ele><time>2026-04-11T08:35:26Z</time></trkpt><trkpt lat="45.37661687669542" lon="9.20957155891879"><ele>98.0</ele><time>2026-04-11T08:35:27Z</time></trkpt><trkpt lat="45.37653684453861" lon="9.209558363014965"><ele>98.0</ele><time>2026-04-11T08:35:28Z</time></trkpt><trkpt lat="45.376451934225926" lon="9.209532762830516"><ele>97.99999999999999</ele><time>2026-04-11T08:35:29Z</time></trkpt><trkpt lat="45.3763600419016" lon="9.209513400406363"><ele>98.0</ele><time>2026-04-11T08:35:30Z</time></trkpt><trkpt lat="45.37627235847831" lon="9.209496141305289"><ele>98.0</ele><time>2026-04-11T08:35:31Z</time></trkpt><trkpt lat="45.37618079455955" lon="9.20947241554645"><ele>98.0</ele><time>2026-04-11T08:35:32Z</time></trkpt><trkpt lat="45.37608588954867" lon="9.20945684007197"><ele>98.0</ele><time>2026-04-11T08:35:33Z</time></trkpt><trkpt lat="45.375986459705175" lon="9.209439621372875"><ele>98.0</ele><time>2026-04-11T08:35:34Z</time></trkpt><trkpt lat="45.3758860885203" lon="9.209417375658514"><ele>98.0</ele><time>2026-04-11T08:35:35Z</time></trkpt><trkpt lat="45.37579594502406" lon="9.209390617788223"><ele>98.0</ele><time>2026-04-11T08:35:36Z</time></trkpt><trkpt lat="45.37570363078697" lon="9.209353802000521"><ele>98.0</ele><time>2026-04-11T08:35:37Z</time></trkpt><trkpt lat="45.375599053404855" lon="9.209312375991955"><ele>98.0</ele><time>2026-04-11T08:35:38Z</time></trkpt><trkpt lat="45.37549088492494" lon="9.209291823164673"><ele>98.0</ele><time>2026-04-11T08:35:39Z</time></trkpt><trkpt lat="45.37538835262715" lon="9.209287534005277"><ele>98.0</ele><time>2026-04-11T08:35:40.001Z</time></trkpt><trkpt lat="45.37530786035791" lon="9.209281158333448"><ele>98.4</ele><time>2026-04-11T08:35:41.001Z</time></trkpt><trkpt lat="45.37523432654146" lon="9.20928365462988"><ele>98.80000000000001</ele><time>2026-04-11T08:35:42.001Z</time></trkpt><trkpt lat="45.37515040432738" lon="9.209288996441238"><ele>99.2</ele><time>2026-04-11T08:35:43.001Z</time></trkpt><trkpt lat="45.37505085662617" lon="9.209286266651192"><ele>99.6</ele><time>2026-04-11T08:35:44.001Z</time></trkpt><trkpt lat="45.37494530008288" lon="9.209273769111268"><ele>100.0</ele><time>2026-04-11T08:35:45.001Z</time></trkpt><trkpt lat="45.374848503988034" lon="9.20926451759337"><ele>100.0</ele><time>2026-04-11T08:35:46.001Z</time></trkpt><trkpt lat="45.374761958271165" lon="9.20925662992827"><ele>100.0</ele><time>2026-04-11T08:35:47.001Z</time></trkpt><trkpt lat="45.37467941484343" lon="9.209243812450765"><ele>100.0</ele><time>2026-04-11T08:35:48.001Z</time></trkpt><trkpt lat="45.374590033861324" lon="9.20923867862978"><ele>100.0</ele><time>2026-04-11T08:35:49.001Z</time></trkpt><trkpt lat="45.37449011022347" lon="9.209233040515702"><ele>100.0</ele><time>2026-04-11T08:35:50.001Z</time></trkpt><trkpt lat="45.3743806352892" lon="9.209223488184339"><ele>100.0</ele><time>2026-04-11T08:35:51.001Z</time></trkpt><trkpt lat="45.374273358941004" lon="9.209216021568295"><ele>100.0</ele><time>2026-04-11T08:35:52.001Z</time></trkpt><trkpt lat="45.374164953554626" lon="9.20920409623878"><ele>100.0</ele><time>2026-04-11T08:35:53.001Z</time></trkpt><trkpt lat="45.37405408593072" lon="9.2091923783279"><ele>100.0</ele><time>2026-04-11T08:35:54.001Z</time></trkpt><trkpt lat="45.37394317037455" lon="9.209182452836378"><ele>100.0</ele><time>2026-04-11T08:35:55Z</time></trkpt><trkpt lat="45.37383134846552" lon="9.209174195874844"><ele>99.6</ele><time>2026-04-11T08:35:56Z</time></trkpt><trkpt lat="45.37372197905862" lon="9.209166039514288"><ele>99.2</ele><time>2026-04-11T08:35:57Z</time></trkpt><trkpt lat="45.37361384607566" lon="9.209153818374931"><ele>98.80000000000001</ele><time>2026-04-11T08:35:58Z</time></trkpt><trkpt lat="45.373503724666165" lon="9.209143129486975"><ele>98.4</ele><time>2026-04-11T08:35:59Z</time></trkpt><trkpt lat="45.3733962664581" lon="9.209135140328344"><ele>98.0</ele><time>2026-04-11T08:36:00Z</time></trkpt><trkpt lat="45.37329226057627" lon="9.209122468692467"><ele>97.99999999999999</ele><time>2026-04-11T08:36:01Z</time></trkpt><trkpt lat="45.37319899874926" lon="9.209111384765642"><ele>98.0</ele><time>2026-04-11T08:36:02Z</time></trkpt><trkpt lat="45.373113747196385" lon="9.209108702908711"><ele>98.0</ele><time>2026-04-11T08:36:03Z</time></trkpt><trkpt lat="45.37303101134276" lon="9.2091045011826"><ele>98.0</ele><time>2026-04-11T08:36:04Z</time></trkpt><trkpt lat="45.37294878990462" lon="9.209090116724122"><ele>97.99999999999999</ele><time>2026-04-11T08:36:05Z</time></trkpt><trkpt lat="45.37285665301321" lon="9.209058719028326"><ele>98.0</ele><time>2026-04-11T08:36:06Z</time></trkpt><trkpt lat="45.372751831736714" lon="9.209022085853178"><ele>98.2</ele><time>2026-04-11T08:36:07Z</time></trkpt><trkpt lat="45.37264874950771" lon="9.208983867073691"><ele>98.4</ele><time>2026-04-11T08:36:08Z</time></trkpt><trkpt lat="45.37255784293046" lon="9.208954769253252"><ele>98.60000000000001</ele><time>2026-04-11T08:36:09Z</time></trkpt><trkpt lat="45.37246886997629" lon="9.20893603472171"><ele>98.80000000000001</ele><time>2026-04-11T08:36:10Z</time></trkpt><trkpt lat="45.372372379858604" lon="9.208916774425775"><ele>99.0</ele><time>2026-04-11T08:36:11Z</time></trkpt><trkpt lat="45.37226331029304" lon="9.208891569703919"><ele>98.75</ele><time>2026-04-11T08:36:12Z</time></trkpt><trkpt lat="45.37214322582693" lon="9.208861076381798"><ele>98.5</ele><time>2026-04-11T08:36:13Z</time></trkpt><trkpt lat="45.37201750458219" lon="9.208830576444512"><ele>98.25</ele><time>2026-04-11T08:36:14Z</time></trkpt><trkpt lat="45.37188841829575" lon="9.208798578183144"><ele>98.0</ele><time>2026-04-11T08:36:15Z</time></trkpt><trkpt lat="45.37175843123476" lon="9.20876685771853"><ele>98.0</ele><time>2026-04-11T08:36:16Z</time></trkpt><trkpt lat="45.37162923616269" lon="9.208736311287655"><ele>98.0</ele><time>2026-04-11T08:36:17Z</time></trkpt><trkpt lat="45.371504185610675" lon="9.208708964343645"><ele>98.0</ele><time>2026-04-11T08:36:18Z</time></trkpt><trkpt lat="45.37138209140388" lon="9.20867622814159"><ele>98.0</ele><time>2026-04-11T08:36:19Z</time></trkpt><trkpt lat="45.371258988984295" lon="9.208644933527562"><ele>98.0</ele><time>2026-04-11T08:36:20Z</time></trkpt><trkpt lat="45.37113741568374" lon="9.208618903478358"><ele>98.0</ele><time>2026-04-11T08:36:21Z</time></trkpt><trkpt lat="45.371014068247355" lon="9.208598467116452"><ele>98.0</ele><time>2026-04-11T08:36:22Z</time></trkpt><trkpt lat="45.37088892717476" lon="9.208567729667042"><ele>98.0</ele><time>2026-04-11T08:36:23Z</time></trkpt><trkpt lat="45.37076213198949" lon="9.208535200918131"><ele>98.0</ele><time>2026-04-11T08:36:24Z</time></trkpt><trkpt lat="45.37063343889766" lon="9.208503300080354"><ele>98.0</ele><time>2026-04-11T08:36:25Z</time></trkpt><trkpt lat="45.37051069880293" lon="9.208469537636882"><ele>98.0</ele><time>2026-04-11T08:36:26Z</time></trkpt><trkpt lat="45.37039691254105" lon="9.208436359410735"><ele>98.0</ele><time>2026-04-11T08:36:27Z</time></trkpt><trkpt lat="45.37029636250809" lon="9.208411280644023"><ele>98.2</ele><time>2026-04-11T08:36:28Z</time></trkpt><trkpt lat="45.37019992066586" lon="9.208372803587864"><ele>98.4</ele><time>2026-04-11T08:36:29Z</time></trkpt><trkpt lat="45.37011672711895" lon="9.208351610826933"><ele>98.60000000000001</ele><time>2026-04-11T08:36:30Z</time></trkpt><trkpt lat="45.370012105018816" lon="9.208327643534158"><ele>98.80000000000001</ele><time>2026-04-11T08:36:32Z</time></trkpt><trkpt lat="45.36994305766446" lon="9.208328209418305"><ele>99.0</ele><time>2026-04-11T08:36:34.999Z</time></trkpt><trkpt lat="45.36993366137145" lon="9.208472426032214"><ele>99.0</ele><time>2026-04-11T08:36:36.999Z</time></trkpt><trkpt lat="45.36996312104169" lon="9.208584610228472"><ele>99.0</ele><time>2026-04-11T08:36:37.999Z</time></trkpt><trkpt lat="45.369984012311484" lon="9.208705204351999"><ele>99.0</ele><time>2026-04-11T08:36:38.999Z</time></trkpt><trkpt lat="45.37000273601027" lon="9.20882761079356"><ele>99.0</ele><time>2026-04-11T08:36:39.999Z</time></trkpt><trkpt lat="45.37002587940262" lon="9.208966907877961"><ele>99.0</ele><time>2026-04-11T08:36:40.999Z</time></trkpt><trkpt lat="45.37003277648707" lon="9.20912023645331"><ele>99.0</ele><time>2026-04-11T08:36:41.999Z</time></trkpt><trkpt lat="45.37000392365864" lon="9.209274864078793"><ele>99.0</ele><time>2026-04-11T08:36:42.999Z</time></trkpt><trkpt lat="45.36996483940071" lon="9.209436066623276"><ele>99.0</ele><time>2026-04-11T08:36:43.999Z</time></trkpt><trkpt lat="45.36993849144521" lon="9.209592114815841"><ele>99.0</ele><time>2026-04-11T08:36:44.999Z</time></trkpt><trkpt lat="45.369919264786745" lon="9.209727412340762"><ele>99.0</ele><time>2026-04-11T08:36:45.999Z</time></trkpt><trkpt lat="45.3698949446555" lon="9.209844705089512"><ele>99.2</ele><time>2026-04-11T08:36:46.999Z</time></trkpt><trkpt lat="45.369860694329425" lon="9.209923620292212"><ele>99.4</ele><time>2026-04-11T08:36:47.999Z</time></trkpt><trkpt lat="45.36974112184094" lon="9.210015511978392"><ele>99.6</ele><time>2026-04-11T08:36:49.999Z</time></trkpt><trkpt lat="45.36966932540074" lon="9.210048757166277"><ele>99.8</ele><time>2026-04-11T08:36:50.999Z</time></trkpt><trkpt lat="45.36956190742499" lon="9.210076289830269"><ele>100.0</ele><time>2026-04-11T08:36:52.999Z</time></trkpt><trkpt lat="45.36953948844691" lon="9.210186091549692"><ele>100.0</ele><time>2026-04-11T08:36:57Z</time></trkpt><trkpt lat="45.36943933732948" lon="9.210186091549279"><ele>100.0</ele><time>2026-04-11T08:37:00Z</time></trkpt><trkpt lat="45.369359244709145" lon="9.210023862114731"><ele>100.0</ele><time>2026-04-11T08:37:01Z</time></trkpt><trkpt lat="45.36927768026362" lon="9.210007015651362"><ele>100.0</ele><time>2026-04-11T08:37:02Z</time></trkpt><trkpt lat="45.36919188051448" lon="9.209980682127155"><ele>100.0</ele><time>2026-04-11T08:37:03Z</time></trkpt><trkpt lat="45.36909175678224" lon="9.209945843300003"><ele>100.0</ele><time>2026-04-11T08:37:04Z</time></trkpt><trkpt lat="45.368981600114424" lon="9.209909728687176"><ele>100.0</ele><time>2026-04-11T08:37:05Z</time></trkpt><trkpt lat="45.36886557932582" lon="9.209871633889696"><ele>100.0</ele><time>2026-04-11T08:37:06Z</time></trkpt><trkpt lat="45.36874667352374" lon="9.209832794626863"><ele>100.0</ele><time>2026-04-11T08:37:07Z</time></trkpt><trkpt lat="45.36861966398702" lon="9.209788289646639"><ele>100.25</ele><time>2026-04-11T08:37:08Z</time></trkpt><trkpt lat="45.36848231676024" lon="9.209740661732194"><ele>100.5</ele><time>2026-04-11T08:37:09Z</time></trkpt><trkpt lat="45.36834172109227" lon="9.209693938214938"><ele>100.75</ele><time>2026-04-11T08:37:10Z</time></trkpt><trkpt lat="45.36820439332228" lon="9.209647666408662"><ele>101.0</ele><time>2026-04-11T08:37:11Z</time></trkpt><trkpt lat="45.36807260226422" lon="9.209601615785601"><ele>100.5</ele><time>2026-04-11T08:37:12Z</time></trkpt><trkpt lat="45.36795031045458" lon="9.209561131390837"><ele>100.0</ele><time>2026-04-11T08:37:13Z</time></trkpt><trkpt lat="45.36783854794428" lon="9.209521597124647"><ele>99.5</ele><time>2026-04-11T08:37:14Z</time></trkpt><trkpt lat="45.367734949463895" lon="9.209483511088832"><ele>99.0</ele><time>2026-04-11T08:37:15Z</time></trkpt><trkpt lat="45.36763554599549" lon="9.209445051237855"><ele>99.0</ele><time>2026-04-11T08:37:16Z</time></trkpt><trkpt lat="45.36754345556508" lon="9.20939852298505"><ele>99.0</ele><time>2026-04-11T08:37:17Z</time></trkpt><trkpt lat="45.36745744274318" lon="9.209319949038344"><ele>99.0</ele><time>2026-04-11T08:37:18Z</time></trkpt><trkpt lat="45.36740291803489" lon="9.209190747840035"><ele>99.0</ele><time>2026-04-11T08:37:19Z</time></trkpt><trkpt lat="45.36736321044384" lon="9.20906768634026"><ele>99.0</ele><time>2026-04-11T08:37:20Z</time></trkpt><trkpt lat="45.36729706083701" lon="9.209009580964539"><ele>99.0</ele><time>2026-04-11T08:37:21Z</time></trkpt><trkpt lat="45.36722062003592" lon="9.209011222193595"><ele>99.0</ele><time>2026-04-11T08:37:22Z</time></trkpt><trkpt lat="45.36715263972226" lon="9.20907655952991"><ele>99.0</ele><time>2026-04-11T08:37:23Z</time></trkpt><trkpt lat="45.36708396018742" lon="9.20917143532395"><ele>99.0</ele><time>2026-04-11T08:37:24Z</time></trkpt><trkpt lat="45.36697957048886" lon="9.209230746429057"><ele>99.0</ele><time>2026-04-11T08:37:25Z</time></trkpt><trkpt lat="45.36685003426813" lon="9.209217483886995"><ele>98.5</ele><time>2026-04-11T08:37:26Z</time></trkpt><trkpt lat="45.36673081268729" lon="9.209167218054475"><ele>98.0</ele><time>2026-04-11T08:37:27Z</time></trkpt><trkpt lat="45.366620343718616" lon="9.209118854695806"><ele>97.5</ele><time>2026-04-11T08:37:28Z</time></trkpt><trkpt lat="45.36651030278966" lon="9.209078201619482"><ele>97.0</ele><time>2026-04-11T08:37:29Z</time></trkpt><trkpt lat="45.36640226542125" lon="9.2090408593888"><ele>97.0</ele><time>2026-04-11T08:37:30Z</time></trkpt><trkpt lat="45.36629889980153" lon="9.20900496039571"><ele>97.0</ele><time>2026-04-11T08:37:31Z</time></trkpt><trkpt lat="45.36619965909431" lon="9.20897233862223"><ele>97.0</ele><time>2026-04-11T08:37:32Z</time></trkpt><trkpt lat="45.36610558238869" lon="9.20894274320181"><ele>97.0</ele><time>2026-04-11T08:37:33Z</time></trkpt><trkpt lat="45.36601729658415" lon="9.208914528447092"><ele>97.0</ele><time>2026-04-11T08:37:34Z</time></trkpt><trkpt lat="45.365928925497286" lon="9.208885014432395"><ele>97.16666666666667</ele><time>2026-04-11T08:37:35Z</time></trkpt><trkpt lat="45.36584189778756" lon="9.208854639898401"><ele>97.33333333333334</ele><time>2026-04-11T08:37:36Z</time></trkpt><trkpt lat="45.3657555314486" lon="9.208829214856602"><ele>97.5</ele><time>2026-04-11T08:37:37Z</time></trkpt><trkpt lat="45.36566981007278" lon="9.208814276594092"><ele>97.66666666666666</ele><time>2026-04-11T08:37:38Z</time></trkpt><trkpt lat="45.3655919107299" lon="9.208805768710365"><ele>97.83333333333333</ele><time>2026-04-11T08:37:39Z</time></trkpt><trkpt lat="45.36551799696716" lon="9.208794946304478"><ele>98.0</ele><time>2026-04-11T08:37:40Z</time></trkpt><trkpt lat="45.36544297743358" lon="9.208774141477305"><ele>98.16666666666666</ele><time>2026-04-11T08:37:41Z</time></trkpt><trkpt lat="45.36536640507344" lon="9.208745579256496"><ele>98.33333333333333</ele><time>2026-04-11T08:37:42Z</time></trkpt><trkpt lat="45.365299039612886" lon="9.208733783394548"><ele>98.5</ele><time>2026-04-11T08:37:43Z</time></trkpt><trkpt lat="45.365231821899094" lon="9.208756714889637"><ele>98.66666666666666</ele><time>2026-04-11T08:37:44Z</time></trkpt><trkpt lat="45.36515444054687" lon="9.208839344523577"><ele>98.83333333333333</ele><time>2026-04-11T08:37:46Z</time></trkpt><trkpt lat="45.36519731152088" lon="9.209015365746804"><ele>99.0</ele><time>2026-04-11T08:37:47Z</time></trkpt><trkpt lat="45.365236525873755" lon="9.209125886060162"><ele>99.0</ele><time>2026-04-11T08:37:48Z</time></trkpt><trkpt lat="45.36524679713018" lon="9.209261583280743"><ele>99.0</ele><time>2026-04-11T08:37:49Z</time></trkpt><trkpt lat="45.36520723175508" lon="9.209406637669204"><ele>99.0</ele><time>2026-04-11T08:37:50Z</time></trkpt><trkpt lat="45.36512571170135" lon="9.209525991240659"><ele>99.0</ele><time>2026-04-11T08:37:51Z</time></trkpt><trkpt lat="45.364999967602266" lon="9.209629602769503"><ele>99.0</ele><time>2026-04-11T08:37:52Z</time></trkpt><trkpt lat="45.36481755850615" lon="9.209725412822218"><ele>99.0</ele><time>2026-04-11T08:37:53Z</time></trkpt><trkpt lat="45.364587298053856" lon="9.209821045537945"><ele>99.0</ele><time>2026-04-11T08:37:54Z</time></trkpt><trkpt lat="45.364318619118734" lon="9.209923475603285"><ele>97.0</ele><time>2026-04-11T08:37:55Z</time></trkpt><trkpt lat="45.36408498469921" lon="9.210012952824274"><ele>95.0</ele><time>2026-04-11T08:37:56Z</time></trkpt><trkpt lat="45.36386798894243" lon="9.210106386404115"><ele>95.33333333333334</ele><time>2026-04-11T08:37:57Z</time></trkpt><trkpt lat="45.3636651964569" lon="9.210189689190523"><ele>95.66666666666667</ele><time>2026-04-11T08:37:58Z</time></trkpt><trkpt lat="45.36348687770132" lon="9.210258968365372"><ele>96.0</ele><time>2026-04-11T08:37:59Z</time></trkpt><trkpt lat="45.363341139703294" lon="9.21031872977363"><ele>96.0</ele><time>2026-04-11T08:38:00Z</time></trkpt><trkpt lat="45.36321159312008" lon="9.210374270871121"><ele>96.0</ele><time>2026-04-11T08:38:01Z</time></trkpt><trkpt lat="45.36309670233969" lon="9.210430730422368"><ele>96.0</ele><time>2026-04-11T08:38:02Z</time></trkpt><trkpt lat="45.36299332895366" lon="9.210495666645803"><ele>96.0</ele><time>2026-04-11T08:38:03Z</time></trkpt><trkpt lat="45.362890930040386" lon="9.21055630998558"><ele>96.0</ele><time>2026-04-11T08:38:04Z</time></trkpt><trkpt lat="45.36277752451234" lon="9.210595315370794"><ele>96.0</ele><time>2026-04-11T08:38:05Z</time></trkpt><trkpt lat="45.36265093261842" lon="9.210638998360448"><ele>96.0</ele><time>2026-04-11T08:38:06Z</time></trkpt><trkpt lat="45.36251849344663" lon="9.210691533331"><ele>96.0</ele><time>2026-04-11T08:38:07Z</time></trkpt><trkpt lat="45.36237647605681" lon="9.210731506155959"><ele>96.0</ele><time>2026-04-11T08:38:08Z</time></trkpt><trkpt lat="45.36222824518711" lon="9.210775651689485"><ele>96.0</ele><time>2026-04-11T08:38:09Z</time></trkpt><trkpt lat="45.36207741072379" lon="9.210836805313278"><ele>96.0</ele><time>2026-04-11T08:38:10Z</time></trkpt><trkpt lat="45.361926477992945" lon="9.210904158748933"><ele>97.0</ele><time>2026-04-11T08:38:11Z</time></trkpt><trkpt lat="45.36177309042533" lon="9.210966519749821"><ele>98.0</ele><time>2026-04-11T08:38:12Z</time></trkpt><trkpt lat="45.36162534992281" lon="9.211026414079669"><ele>99.0</ele><time>2026-04-11T08:38:13Z</time></trkpt><trkpt lat="45.36149449625668" lon="9.211077933219023"><ele>100.0</ele><time>2026-04-11T08:38:14Z</time></trkpt><trkpt lat="45.36137983905093" lon="9.211125360737622"><ele>99.6</ele><time>2026-04-11T08:38:15Z</time></trkpt><trkpt lat="45.36127068071498" lon="9.211180986840091"><ele>99.2</ele><time>2026-04-11T08:38:16Z</time></trkpt><trkpt lat="45.361182132098484" lon="9.211261240806426"><ele>98.80000000000001</ele><time>2026-04-11T08:38:17Z</time></trkpt><trkpt lat="45.3611175273112" lon="9.211374124773284"><ele>98.4</ele><time>2026-04-11T08:38:18Z</time></trkpt><trkpt lat="45.36104086276331" lon="9.211459368444824"><ele>98.0</ele><time>2026-04-11T08:38:19Z</time></trkpt><trkpt lat="45.36093683381275" lon="9.211492238030866"><ele>97.75</ele><time>2026-04-11T08:38:20Z</time></trkpt><trkpt lat="45.360825010138335" lon="9.211496692258278"><ele>97.5</ele><time>2026-04-11T08:38:21Z</time></trkpt><trkpt lat="45.36070553244622" lon="9.211495974556808"><ele>97.25</ele><time>2026-04-11T08:38:22Z</time></trkpt><trkpt lat="45.36057683435642" lon="9.211515819985337"><ele>97.0</ele><time>2026-04-11T08:38:23Z</time></trkpt><trkpt lat="45.36044398302666" lon="9.211553604115231"><ele>96.33333333333334</ele><time>2026-04-11T08:38:24Z</time></trkpt><trkpt lat="45.36031268444677" lon="9.211593169974938"><ele>95.66666666666667</ele><time>2026-04-11T08:38:25Z</time></trkpt><trkpt lat="45.3601565782734" lon="9.211623269408246"><ele>95.0</ele><time>2026-04-11T08:38:26Z</time></trkpt><trkpt lat="45.35995717958533" lon="9.211648936280271"><ele>95.0</ele><time>2026-04-11T08:38:27Z</time></trkpt><trkpt lat="45.35978082490673" lon="9.211673174874152"><ele>95.0</ele><time>2026-04-11T08:38:28Z</time></trkpt><trkpt lat="45.35962667287027" lon="9.211690322446639"><ele>95.0</ele><time>2026-04-11T08:38:29Z</time></trkpt><trkpt lat="45.3594998164703" lon="9.211707614764489"><ele>94.6</ele><time>2026-04-11T08:38:30Z</time></trkpt><trkpt lat="45.35939345142564" lon="9.211726375214187"><ele>94.2</ele><time>2026-04-11T08:38:31Z</time></trkpt><trkpt lat="45.359305201885824" lon="9.211740022554643"><ele>93.80000000000001</ele><time>2026-04-11T08:38:32Z</time></trkpt><trkpt lat="45.359200609313135" lon="9.211740003979157"><ele>93.4</ele><time>2026-04-11T08:38:34Z</time></trkpt><trkpt lat="45.35908259566229" lon="9.211768394656243"><ele>93.0</ele><time>2026-04-11T08:38:36Z</time></trkpt><trkpt lat="45.35900498402588" lon="9.211804313647086"><ele>93.0</ele><time>2026-04-11T08:38:37Z</time></trkpt><trkpt lat="45.35892214729652" lon="9.211846072141743"><ele>93.0</ele><time>2026-04-11T08:38:38Z</time></trkpt><trkpt lat="45.35882975289126" lon="9.211894676290264"><ele>93.0</ele><time>2026-04-11T08:38:39Z</time></trkpt><trkpt lat="45.35873237179806" lon="9.211952255942625"><ele>93.0</ele><time>2026-04-11T08:38:40Z</time></trkpt><trkpt lat="45.35863201681101" lon="9.2120243454566"><ele>93.0</ele><time>2026-04-11T08:38:41Z</time></trkpt><trkpt lat="45.35852831366863" lon="9.212106149927825"><ele>92.75</ele><time>2026-04-11T08:38:42Z</time></trkpt><trkpt lat="45.358420164170646" lon="9.212192596588396"><ele>92.5</ele><time>2026-04-11T08:38:43Z</time></trkpt><trkpt lat="45.358309645168404" lon="9.21228121865848"><ele>92.25</ele><time>2026-04-11T08:38:44Z</time></trkpt><trkpt lat="45.35819219214439" lon="9.212368618100792"><ele>92.0</ele><time>2026-04-11T08:38:45Z</time></trkpt><trkpt lat="45.35807492972438" lon="9.212456824788864"><ele>92.25</ele><time>2026-04-11T08:38:46Z</time></trkpt><trkpt lat="45.35795974616997" lon="9.212548613338983"><ele>92.5</ele><time>2026-04-11T08:38:47Z</time></trkpt><trkpt lat="45.35784295418031" lon="9.212640990204722"><ele>92.75</ele><time>2026-04-11T08:38:48Z</time></trkpt><trkpt lat="45.35772561019133" lon="9.212733888936224"><ele>93.0</ele><time>2026-04-11T08:38:49Z</time></trkpt><trkpt lat="45.357608304562746" lon="9.21282112753303"><ele>93.0</ele><time>2026-04-11T08:38:50Z</time></trkpt><trkpt lat="45.35738696603018" lon="9.212975503259882"><ele>93.0</ele><time>2026-04-11T08:38:52Z</time></trkpt><trkpt lat="45.35728482486324" lon="9.213056110625825"><ele>93.0</ele><time>2026-04-11T08:38:53Z</time></trkpt><trkpt lat="45.357183749962346" lon="9.213136262756903"><ele>92.25</ele><time>2026-04-11T08:38:54Z</time></trkpt><trkpt lat="45.35707926023191" lon="9.213219550368688"><ele>91.5</ele><time>2026-04-11T08:38:55Z</time></trkpt><trkpt lat="45.35697096788312" lon="9.213303005943702"><ele>90.75</ele><time>2026-04-11T08:38:56Z</time></trkpt><trkpt lat="45.356859211859714" lon="9.213386776271152"><ele>90.0</ele><time>2026-04-11T08:38:57Z</time></trkpt><trkpt lat="45.35675033445207" lon="9.213479088744627"><ele>90.0</ele><time>2026-04-11T08:38:58Z</time></trkpt><trkpt lat="45.35664241665258" lon="9.213580380843062"><ele>90.0</ele><time>2026-04-11T08:38:59Z</time></trkpt><trkpt lat="45.356535263423204" lon="9.21368739001252"><ele>90.0</ele><time>2026-04-11T08:39:00Z</time></trkpt><trkpt lat="45.356429635227926" lon="9.213798317675124"><ele>90.0</ele><time>2026-04-11T08:39:01Z</time></trkpt><trkpt lat="45.35632399828683" lon="9.213909505537567"><ele>91.2</ele><time>2026-04-11T08:39:02Z</time></trkpt><trkpt lat="45.35622549489773" lon="9.214009948096194"><ele>92.4</ele><time>2026-04-11T08:39:03Z</time></trkpt><trkpt lat="45.356134658450934" lon="9.214097870411072"><ele>93.6</ele><time>2026-04-11T08:39:04Z</time></trkpt><trkpt lat="45.35605103667367" lon="9.214172311506584"><ele>94.8</ele><time>2026-04-11T08:39:05Z</time></trkpt><trkpt lat="45.35597126490035" lon="9.214253030563967"><ele>96.0</ele><time>2026-04-11T08:39:06Z</time></trkpt><trkpt lat="45.35592224027202" lon="9.214366645325958"><ele>96.0</ele><time>2026-04-11T08:39:07Z</time></trkpt><trkpt lat="45.35590631211076" lon="9.214506492290743"><ele>96.0</ele><time>2026-04-11T08:39:08Z</time></trkpt><trkpt lat="45.35591681336849" lon="9.214655301721015"><ele>96.0</ele><time>2026-04-11T08:39:09Z</time></trkpt><trkpt lat="45.35593631141357" lon="9.214804015773382"><ele>96.0</ele><time>2026-04-11T08:39:10Z</time></trkpt><trkpt lat="45.35597151531254" lon="9.214959950532597"><ele>96.0</ele><time>2026-04-11T08:39:11Z</time></trkpt><trkpt lat="45.35600817394465" lon="9.215125368529598"><ele>96.0</ele><time>2026-04-11T08:39:12Z</time></trkpt><trkpt lat="45.35604233501752" lon="9.215295760629836"><ele>96.0</ele><time>2026-04-11T08:39:13Z</time></trkpt><trkpt lat="45.356076934286286" lon="9.21545550135538"><ele>96.0</ele><time>2026-04-11T08:39:14Z</time></trkpt><trkpt lat="45.35611030894553" lon="9.215601275865392"><ele>96.0</ele><time>2026-04-11T08:39:15Z</time></trkpt><trkpt lat="45.35614091857868" lon="9.215738404738719"><ele>95.83333333333333</ele><time>2026-04-11T08:39:16Z</time></trkpt><trkpt lat="45.35616937416059" lon="9.215872597770403"><ele>95.66666666666667</ele><time>2026-04-11T08:39:17Z</time></trkpt><trkpt lat="45.356198359758416" lon="9.216010556968493"><ele>95.5</ele><time>2026-04-11T08:39:18Z</time></trkpt><trkpt lat="45.35622651123929" lon="9.216137573387337"><ele>95.33333333333334</ele><time>2026-04-11T08:39:19Z</time></trkpt><trkpt lat="45.35625236970958" lon="9.216244746004945"><ele>95.16666666666667</ele><time>2026-04-11T08:39:20Z</time></trkpt><trkpt lat="45.3562719128315" lon="9.216331689638626"><ele>95.0</ele><time>2026-04-11T08:39:21Z</time></trkpt><trkpt lat="45.356280749987725" lon="9.216445234842164"><ele>95.16666666666667</ele><time>2026-04-11T08:39:23Z</time></trkpt><trkpt lat="45.356301893238125" lon="9.216534006927924"><ele>95.33333333333334</ele><time>2026-04-11T08:39:26Z</time></trkpt><trkpt lat="45.35632997245381" lon="9.216635871771368"><ele>95.5</ele><time>2026-04-11T08:39:29Z</time></trkpt><trkpt lat="45.35635062261794" lon="9.21672321360268"><ele>95.66666666666667</ele><time>2026-04-11T08:39:32Z</time></trkpt><trkpt lat="45.35637672267972" lon="9.216850605978196"><ele>95.83333333333333</ele><time>2026-04-11T08:39:35Z</time></trkpt><trkpt lat="45.35640882885501" lon="9.216997454523154"><ele>96.0</ele><time>2026-04-11T08:39:37Z</time></trkpt><trkpt lat="45.35642617012133" lon="9.217095371930256"><ele>96.0</ele><time>2026-04-11T08:39:38Z</time></trkpt><trkpt lat="45.35644559397442" lon="9.217191828207332"><ele>96.0</ele><time>2026-04-11T08:39:39Z</time></trkpt><trkpt lat="45.356466345439905" lon="9.217300260328054"><ele>96.0</ele><time>2026-04-11T08:39:40Z</time></trkpt><trkpt lat="45.35648915608979" lon="9.21741167774677"><ele>96.0</ele><time>2026-04-11T08:39:41Z</time></trkpt><trkpt lat="45.35651184857624" lon="9.217514615070673"><ele>96.0</ele><time>2026-04-11T08:39:42Z</time></trkpt><trkpt lat="45.35653266114056" lon="9.217605402539602"><ele>96.0</ele><time>2026-04-11T08:39:43Z</time></trkpt><trkpt lat="45.35656007405609" lon="9.217738814229186"><ele>96.0</ele><time>2026-04-11T08:39:45.001Z</time></trkpt><trkpt lat="45.35657984627143" lon="9.21784701171946"><ele>96.0</ele><time>2026-04-11T08:39:48.001Z</time></trkpt><trkpt lat="45.35661252092191" lon="9.217969344460702"><ele>96.0</ele><time>2026-04-11T08:40:12.001Z</time></trkpt><trkpt lat="45.35664132033659" lon="9.21809869571447"><ele>96.0</ele><time>2026-04-11T08:40:14.001Z</time></trkpt><trkpt lat="45.35664761238676" lon="9.218205833387286"><ele>96.0</ele><time>2026-04-11T08:40:16.001Z</time></trkpt><trkpt lat="45.356682284850585" lon="9.218288657475298"><ele>96.0</ele><time>2026-04-11T08:40:18Z</time></trkpt><trkpt lat="45.35669416648425" lon="9.218386408921296"><ele>96.33333333333333</ele><time>2026-04-11T08:40:21Z</time></trkpt><trkpt lat="45.35668518742736" lon="9.218495045655523"><ele>96.66666666666666</ele><time>2026-04-11T08:40:25Z</time></trkpt><trkpt lat="45.3566961021787" lon="9.218593890945149"><ele>97.0</ele><time>2026-04-11T08:40:30Z</time></trkpt><trkpt lat="45.35673999189881" lon="9.218712930497789"><ele>97.33333333333333</ele><time>2026-04-11T08:40:34Z</time></trkpt><trkpt lat="45.35676035710318" lon="9.218806992361362"><ele>97.66666666666666</ele><time>2026-04-11T08:40:35Z</time></trkpt><trkpt lat="45.3567984659991" lon="9.218930128785807"><ele>98.0</ele><time>2026-04-11T08:40:37Z</time></trkpt><trkpt lat="45.35676212066045" lon="9.219079200049606"><ele>97.99999999999999</ele><time>2026-04-11T08:40:39Z</time></trkpt><trkpt lat="45.35679629307029" lon="9.219156655196654"><ele>98.0</ele><time>2026-04-11T08:40:41Z</time></trkpt><trkpt lat="45.356761939936106" lon="9.219078842887503"><ele>98.0</ele><time>2026-04-11T08:40:48Z</time></trkpt><trkpt lat="45.35670957839759" lon="9.218962196141554"><ele>98.0</ele><time>2026-04-11T08:40:51Z</time></trkpt><trkpt lat="45.35663308746011" lon="9.21888623620385"><ele>97.99999999999999</ele><time>2026-04-11T08:40:53Z</time></trkpt><trkpt lat="45.35656093551852" lon="9.218832564027483"><ele>98.0</ele><time>2026-04-11T08:40:55Z</time></trkpt><trkpt lat="45.35648957863081" lon="9.218775942638905"><ele>98.0</ele><time>2026-04-11T08:40:57Z</time></trkpt><trkpt lat="45.35640667106677" lon="9.218699514631194"><ele>98.0</ele><time>2026-04-11T08:41:02Z</time></trkpt><trkpt lat="45.35630282060721" lon="9.218623172162582"><ele>98.0</ele><time>2026-04-11T08:41:04Z</time></trkpt><trkpt lat="45.35621174446644" lon="9.218537439147354"><ele>98.0</ele><time>2026-04-11T08:41:06Z</time></trkpt><trkpt lat="45.35614717664773" lon="9.218477680250082"><ele>98.0</ele><time>2026-04-11T08:41:08Z</time></trkpt><trkpt lat="45.35607030145205" lon="9.21845838525172"><ele>97.57142857142857</ele><time>2026-04-11T08:41:11Z</time></trkpt><trkpt lat="45.35601058953992" lon="9.218494915484873"><ele>97.14285714285714</ele><time>2026-04-11T08:41:14Z</time></trkpt><trkpt lat="45.35594992624261" lon="9.218528610500002"><ele>96.71428571428572</ele><time>2026-04-11T08:41:16Z</time></trkpt><trkpt lat="45.35587734089228" lon="9.21852878504572"><ele>96.28571428571428</ele><time>2026-04-11T08:41:19Z</time></trkpt><trkpt lat="45.35579458459377" lon="9.218576180119893"><ele>95.85714285714286</ele><time>2026-04-11T08:41:22Z</time></trkpt><trkpt lat="45.35571651600655" lon="9.218557190884264"><ele>95.42857142857143</ele><time>2026-04-11T08:41:25Z</time></trkpt><trkpt lat="45.35569120696186" lon="9.218457054440346"><ele>95.0</ele><time>2026-04-11T08:41:28Z</time></trkpt><trkpt lat="45.35568674459015" lon="9.218558691339295"><ele>95.0</ele><time>2026-04-11T08:41:33Z</time></trkpt><trkpt lat="45.355782118332314" lon="9.218600771928934"><ele>95.0</ele><time>2026-04-11T08:41:35Z</time></trkpt><trkpt lat="45.355857188836154" lon="9.21857850857712"><ele>95.0</ele><time>2026-04-11T08:41:38Z</time></trkpt><trkpt lat="45.355940303120036" lon="9.218537887712662"><ele>95.0</ele><time>2026-04-11T08:41:41Z</time></trkpt><trkpt lat="45.356019051833194" lon="9.218510574136394"><ele>95.0</ele><time>2026-04-11T08:41:45Z</time></trkpt><trkpt lat="45.356086040224454" lon="9.218478142612314"><ele>95.0</ele><time>2026-04-11T08:42:09Z</time></trkpt><trkpt lat="45.35614944932844" lon="9.218466233787533"><ele>95.0</ele><time>2026-04-11T08:42:11Z</time></trkpt><trkpt lat="45.356239611299166" lon="9.218553864442073"><ele>95.0</ele><time>2026-04-11T08:42:13Z</time></trkpt><trkpt lat="45.3563533053688" lon="9.21863452593228"><ele>95.0</ele><time>2026-04-11T08:42:15Z</time></trkpt><trkpt lat="45.356408528755004" lon="9.218715420004786"><ele>95.0</ele><time>2026-04-11T08:42:16Z</time></trkpt><trkpt lat="45.356487407460634" lon="9.218763954091916"><ele>95.0</ele><time>2026-04-11T08:42:17Z</time></trkpt><trkpt lat="45.35656184298424" lon="9.218835236719446"><ele>95.42857142857143</ele><time>2026-04-11T08:42:18Z</time></trkpt><trkpt lat="45.35663636356881" lon="9.218897269798257"><ele>95.85714285714286</ele><time>2026-04-11T08:42:19Z</time></trkpt><trkpt lat="45.35669789064936" lon="9.21895996560591"><ele>96.28571428571428</ele><time>2026-04-11T08:42:20Z</time></trkpt><trkpt lat="45.35675255586907" lon="9.219035922229253"><ele>96.71428571428572</ele><time>2026-04-11T08:42:21Z</time></trkpt><trkpt lat="45.35679460434645" lon="9.219116550197016"><ele>97.14285714285714</ele><time>2026-04-11T08:42:22Z</time></trkpt><trkpt lat="45.356825134330116" lon="9.219196607863005"><ele>97.57142857142857</ele><time>2026-04-11T08:42:23Z</time></trkpt><trkpt lat="45.356840307823894" lon="9.219286659770512"><ele>98.0</ele><time>2026-04-11T08:42:24Z</time></trkpt><trkpt lat="45.35687602330229" lon="9.219422097965467"><ele>98.0</ele><time>2026-04-11T08:42:26Z</time></trkpt><trkpt lat="45.35690907251735" lon="9.219549759450832"><ele>98.0</ele><time>2026-04-11T08:42:28.001Z</time></trkpt><trkpt lat="45.35695625750411" lon="9.219732028496688"><ele>98.0</ele><time>2026-04-11T08:42:30.001Z</time></trkpt><trkpt lat="45.35698818735048" lon="9.21984487538364"><ele>98.0</ele><time>2026-04-11T08:42:31.001Z</time></trkpt><trkpt lat="45.35700852553119" lon="9.219973030538059"><ele>98.0</ele><time>2026-04-11T08:42:32.001Z</time></trkpt><trkpt lat="45.3570314146243" lon="9.220083049731423"><ele>97.99999999999999</ele><time>2026-04-11T08:42:33.001Z</time></trkpt><trkpt lat="45.35705109594703" lon="9.220176120973633"><ele>98.0</ele><time>2026-04-11T08:42:34.001Z</time></trkpt><trkpt lat="45.35707484565896" lon="9.22028765128736"><ele>98.0</ele><time>2026-04-11T08:42:36.001Z</time></trkpt><trkpt lat="45.35700698995009" lon="9.220379593781647"><ele>98.0</ele><time>2026-04-11T08:42:38.001Z</time></trkpt><trkpt lat="45.35691415147725" lon="9.22045052963088"><ele>97.99999999999999</ele><time>2026-04-11T08:42:40.001Z</time></trkpt><trkpt lat="45.35684673248818" lon="9.220481721568447"><ele>98.0</ele><time>2026-04-11T08:42:41.001Z</time></trkpt><trkpt lat="45.356782909810256" lon="9.220509636877308"><ele>98.0</ele><time>2026-04-11T08:42:42.001Z</time></trkpt><trkpt lat="45.356684945440996" lon="9.220552166402292"><ele>98.0</ele><time>2026-04-11T08:42:44.001Z</time></trkpt><trkpt lat="45.35661881031594" lon="9.220589026910169"><ele>98.0</ele><time>2026-04-11T08:42:47.001Z</time></trkpt><trkpt lat="45.35665045531396" lon="9.22078304349973"><ele>98.0</ele><time>2026-04-11T08:42:51Z</time></trkpt><trkpt lat="45.356658803564265" lon="9.220877468161145"><ele>98.0</ele><time>2026-04-11T08:42:52Z</time></trkpt><trkpt lat="45.35668114384188" lon="9.220991336022296"><ele>97.83333333333333</ele><time>2026-04-11T08:42:53Z</time></trkpt><trkpt lat="45.35669959651588" lon="9.22109162769494"><ele>97.66666666666666</ele><time>2026-04-11T08:42:54Z</time></trkpt><trkpt lat="45.35671619541225" lon="9.221182597663823"><ele>97.5</ele><time>2026-04-11T08:42:55Z</time></trkpt><trkpt lat="45.356747536781604" lon="9.221266111307196"><ele>97.33333333333334</ele><time>2026-04-11T08:42:56Z</time></trkpt><trkpt lat="45.35675039433187" lon="9.22135923265836"><ele>97.16666666666667</ele><time>2026-04-11T08:42:57Z</time></trkpt><trkpt lat="45.3567835197097" lon="9.221522662070843"><ele>97.0</ele><time>2026-04-11T08:42:59Z</time></trkpt><trkpt lat="45.3568172968148" lon="9.221666318510168"><ele>97.33333333333334</ele><time>2026-04-11T08:43:01Z</time></trkpt><trkpt lat="45.356831927265524" lon="9.221760178985514"><ele>97.66666666666667</ele><time>2026-04-11T08:43:03Z</time></trkpt><trkpt lat="45.3568526856435" lon="9.22184709879598"><ele>98.0</ele><time>2026-04-11T08:43:05Z</time></trkpt><trkpt lat="45.356891167037844" lon="9.221978682488542"><ele>98.33333333333334</ele><time>2026-04-11T08:43:08Z</time></trkpt><trkpt lat="45.35690982703195" lon="9.222068477295608"><ele>98.66666666666667</ele><time>2026-04-11T08:43:09Z</time></trkpt><trkpt lat="45.35694035328885" lon="9.222167875256961"><ele>99.0</ele><time>2026-04-11T08:43:10Z</time></trkpt><trkpt lat="45.35697842916679" lon="9.222268950106248"><ele>99.0</ele><time>2026-04-11T08:43:11Z</time></trkpt><trkpt lat="45.35701211510222" lon="9.222356202110914"><ele>99.0</ele><time>2026-04-11T08:43:12Z</time></trkpt><trkpt lat="45.35705439462249" lon="9.222498091912085"><ele>99.0</ele><time>2026-04-11T08:43:14Z</time></trkpt><trkpt lat="45.35709622819552" lon="9.222594195273977"><ele>99.0</ele><time>2026-04-11T08:43:17Z</time></trkpt><trkpt lat="45.35695999623851" lon="9.222704080632482"><ele>99.0</ele><time>2026-04-11T08:43:19.001Z</time></trkpt><trkpt lat="45.35685859626682" lon="9.222810423892689"><ele>99.0</ele><time>2026-04-11T08:43:21.001Z</time></trkpt><trkpt lat="45.356786379649506" lon="9.222876273749502"><ele>99.0</ele><time>2026-04-11T08:43:22.001Z</time></trkpt><trkpt lat="45.35670555873103" lon="9.222947781842407"><ele>99.0</ele><time>2026-04-11T08:43:23.001Z</time></trkpt><trkpt lat="45.35661804670513" lon="9.223021784596938"><ele>99.0</ele><time>2026-04-11T08:43:24.001Z</time></trkpt><trkpt lat="45.356524229857364" lon="9.223099851953034"><ele>99.0</ele><time>2026-04-11T08:43:25.001Z</time></trkpt><trkpt lat="45.356430289477636" lon="9.22317234751455"><ele>97.75</ele><time>2026-04-11T08:43:26.001Z</time></trkpt><trkpt lat="45.35633275199523" lon="9.223249098298082"><ele>96.5</ele><time>2026-04-11T08:43:27.001Z</time></trkpt><trkpt lat="45.35623480706374" lon="9.223328174249474"><ele>95.25</ele><time>2026-04-11T08:43:28.001Z</time></trkpt><trkpt lat="45.35613780075477" lon="9.22340735441429"><ele>94.0</ele><time>2026-04-11T08:43:29.001Z</time></trkpt><trkpt lat="45.356038915625945" lon="9.223491343238152"><ele>94.0</ele><time>2026-04-11T08:43:30.001Z</time></trkpt><trkpt lat="45.355937604528165" lon="9.223575843688963"><ele>94.0</ele><time>2026-04-11T08:43:31.001Z</time></trkpt><trkpt lat="45.35583710796644" lon="9.223660626912979"><ele>94.0</ele><time>2026-04-11T08:43:32.001Z</time></trkpt><trkpt lat="45.355736492008475" lon="9.223742959590753"><ele>94.0</ele><time>2026-04-11T08:43:33.001Z</time></trkpt><trkpt lat="45.35563419401061" lon="9.223823507365141"><ele>94.2</ele><time>2026-04-11T08:43:34.001Z</time></trkpt><trkpt lat="45.3555313091614" lon="9.223900706764747"><ele>94.4</ele><time>2026-04-11T08:43:35.001Z</time></trkpt><trkpt lat="45.35543116509736" lon="9.223977193123037"><ele>94.6</ele><time>2026-04-11T08:43:36.001Z</time></trkpt><trkpt lat="45.35533961953904" lon="9.224048191032383"><ele>94.8</ele><time>2026-04-11T08:43:37.001Z</time></trkpt><trkpt lat="45.355255910418094" lon="9.224111582125868"><ele>95.0</ele><time>2026-04-11T08:43:38.001Z</time></trkpt><trkpt lat="45.35518196764421" lon="9.224171605645534"><ele>95.0</ele><time>2026-04-11T08:43:39.001Z</time></trkpt><trkpt lat="45.35511147445804" lon="9.224230905009767"><ele>95.0</ele><time>2026-04-11T08:43:40.001Z</time></trkpt><trkpt lat="45.35503874861873" lon="9.224290953344502"><ele>95.0</ele><time>2026-04-11T08:43:41.001Z</time></trkpt><trkpt lat="45.354964329378056" lon="9.22435229861099"><ele>95.0</ele><time>2026-04-11T08:43:42.001Z</time></trkpt><trkpt lat="45.354887827831085" lon="9.224419317835052"><ele>95.0</ele><time>2026-04-11T08:43:43.001Z</time></trkpt><trkpt lat="45.35481495576916" lon="9.224484814016881"><ele>95.0</ele><time>2026-04-11T08:43:44.001Z</time></trkpt><trkpt lat="45.35473447336883" lon="9.224549261267905"><ele>95.2</ele><time>2026-04-11T08:43:45.001Z</time></trkpt><trkpt lat="45.35464928026463" lon="9.224617710688335"><ele>95.4</ele><time>2026-04-11T08:43:46.001Z</time></trkpt><trkpt lat="45.354561586341376" lon="9.224693394128124"><ele>95.6</ele><time>2026-04-11T08:43:47.001Z</time></trkpt><trkpt lat="45.35446730975692" lon="9.22477129579688"><ele>95.8</ele><time>2026-04-11T08:43:48.001Z</time></trkpt><trkpt lat="45.35436706624214" lon="9.224854741596225"><ele>96.0</ele><time>2026-04-11T08:43:49.001Z</time></trkpt><trkpt lat="45.35426396361296" lon="9.22493864288365"><ele>96.0</ele><time>2026-04-11T08:43:50.001Z</time></trkpt><trkpt lat="45.35415810186152" lon="9.225022340892291"><ele>96.0</ele><time>2026-04-11T08:43:51.001Z</time></trkpt><trkpt lat="45.35404965545332" lon="9.22510762908703"><ele>96.0</ele><time>2026-04-11T08:43:52.001Z</time></trkpt><trkpt lat="45.35394336243625" lon="9.225195592457807"><ele>96.0</ele><time>2026-04-11T08:43:53.001Z</time></trkpt><trkpt lat="45.35383487596842" lon="9.22528833101261"><ele>96.0</ele><time>2026-04-11T08:43:54.001Z</time></trkpt><trkpt lat="45.35373628189493" lon="9.22538041301717"><ele>96.0</ele><time>2026-04-11T08:43:55.001Z</time></trkpt><trkpt lat="45.35364606094162" lon="9.225465699409085"><ele>96.0</ele><time>2026-04-11T08:43:56.001Z</time></trkpt><trkpt lat="45.353571154962225" lon="9.225537246290749"><ele>96.0</ele><time>2026-04-11T08:43:57.001Z</time></trkpt><trkpt lat="45.35351301818574" lon="9.225593829468023"><ele>96.0</ele><time>2026-04-11T08:43:58.001Z</time></trkpt><trkpt lat="45.35341969000017" lon="9.225657993206667"><ele>96.0</ele><time>2026-04-11T08:44:00.001Z</time></trkpt><trkpt lat="45.35332408822073" lon="9.225741214658308"><ele>96.0</ele><time>2026-04-11T08:44:02.001Z</time></trkpt><trkpt lat="45.353224135651125" lon="9.225717690718028"><ele>96.0</ele><time>2026-04-11T08:44:03.001Z</time></trkpt><trkpt lat="45.35314951372254" lon="9.225808392323996"><ele>96.0</ele><time>2026-04-11T08:44:04.001Z</time></trkpt><trkpt lat="45.35309843351761" lon="9.225930449502414"><ele>96.0</ele><time>2026-04-11T08:44:05.001Z</time></trkpt><trkpt lat="45.35301802809655" lon="9.226036452476963"><ele>96.0</ele><time>2026-04-11T08:44:06.001Z</time></trkpt><trkpt lat="45.35293391296237" lon="9.226137432963611"><ele>96.0</ele><time>2026-04-11T08:44:07.001Z</time></trkpt><trkpt lat="45.35282901904721" lon="9.226220311238396"><ele>96.0</ele><time>2026-04-11T08:44:08.001Z</time></trkpt><trkpt lat="45.35272196140006" lon="9.226305249485025"><ele>96.0</ele><time>2026-04-11T08:44:09.001Z</time></trkpt><trkpt lat="45.35261531000696" lon="9.226391584678566"><ele>96.0</ele><time>2026-04-11T08:44:10.001Z</time></trkpt><trkpt lat="45.35251603313165" lon="9.226471585634892"><ele>96.0</ele><time>2026-04-11T08:44:11.001Z</time></trkpt><trkpt lat="45.352426670198454" lon="9.226557325853326"><ele>96.0</ele><time>2026-04-11T08:44:12.001Z</time></trkpt><trkpt lat="45.352320478139255" lon="9.226664065903499"><ele>96.0</ele><time>2026-04-11T08:44:13.001Z</time></trkpt><trkpt lat="45.352195262230424" lon="9.22677830238041"><ele>95.66666666666667</ele><time>2026-04-11T08:44:14.001Z</time></trkpt><trkpt lat="45.352042644038995" lon="9.226918130532175"><ele>95.33333333333334</ele><time>2026-04-11T08:44:15.001Z</time></trkpt><trkpt lat="45.3518518470618" lon="9.2270781311864"><ele>95.0</ele><time>2026-04-11T08:44:16.001Z</time></trkpt><trkpt lat="45.3516922765127" lon="9.227213087753448"><ele>95.0</ele><time>2026-04-11T08:44:17.001Z</time></trkpt><trkpt lat="45.351549737824264" lon="9.227350364563387"><ele>95.0</ele><time>2026-04-11T08:44:18.001Z</time></trkpt><trkpt lat="45.35141413009302" lon="9.227472991722125"><ele>95.0</ele><time>2026-04-11T08:44:19.001Z</time></trkpt><trkpt lat="45.35128022393613" lon="9.227595841644291"><ele>95.0</ele><time>2026-04-11T08:44:20.001Z</time></trkpt><trkpt lat="45.35113874407521" lon="9.22772521300256"><ele>95.0</ele><time>2026-04-11T08:44:21.001Z</time></trkpt><trkpt lat="45.35100770766648" lon="9.227850729699007"><ele>95.0</ele><time>2026-04-11T08:44:22.001Z</time></trkpt><trkpt lat="45.35088847191696" lon="9.22796578212203"><ele>95.0</ele><time>2026-04-11T08:44:23.001Z</time></trkpt><trkpt lat="45.3507777971668" lon="9.228071940695909"><ele>95.0</ele><time>2026-04-11T08:44:24.001Z</time></trkpt><trkpt lat="45.35067442557203" lon="9.22816971819439"><ele>95.0</ele><time>2026-04-11T08:44:25.001Z</time></trkpt><trkpt lat="45.35057866590128" lon="9.228261621031866"><ele>95.0</ele><time>2026-04-11T08:44:26.001Z</time></trkpt><trkpt lat="45.35049081808807" lon="9.228348341152671"><ele>95.0</ele><time>2026-04-11T08:44:27.001Z</time></trkpt><trkpt lat="45.350410358534404" lon="9.22843092689225"><ele>95.0</ele><time>2026-04-11T08:44:28.001Z</time></trkpt><trkpt lat="45.350336585158004" lon="9.22851121924394"><ele>95.0</ele><time>2026-04-11T08:44:29.001Z</time></trkpt><trkpt lat="45.35026707495671" lon="9.228592980425535"><ele>95.0</ele><time>2026-04-11T08:44:30.001Z</time></trkpt><trkpt lat="45.35020423064112" lon="9.22869714443342"><ele>95.0</ele><time>2026-04-11T08:44:31.001Z</time></trkpt><trkpt lat="45.35011479975565" lon="9.22878051591534"><ele>95.0</ele><time>2026-04-11T08:44:32.001Z</time></trkpt><trkpt lat="45.35000761721972" lon="9.228829695028884"><ele>95.0</ele><time>2026-04-11T08:44:33.001Z</time></trkpt><trkpt lat="45.34990720590684" lon="9.228915608790338"><ele>95.0</ele><time>2026-04-11T08:44:34.001Z</time></trkpt><trkpt lat="45.349804727939926" lon="9.22900691890174"><ele>95.0</ele><time>2026-04-11T08:44:35.001Z</time></trkpt><trkpt lat="45.349704348483634" lon="9.22910403823628"><ele>94.4</ele><time>2026-04-11T08:44:36.001Z</time></trkpt><trkpt lat="45.34963584319762" lon="9.229232346691457"><ele>93.8</ele><time>2026-04-11T08:44:37.001Z</time></trkpt><trkpt lat="45.34952153574445" lon="9.229274420569656"><ele>93.19999999999999</ele><time>2026-04-11T08:44:38.001Z</time></trkpt><trkpt lat="45.349452528683756" lon="9.229340611255513"><ele>92.6</ele><time>2026-04-11T08:44:39.001Z</time></trkpt><trkpt lat="45.34938872280806" lon="9.22939920418209"><ele>92.0</ele><time>2026-04-11T08:44:40.001Z</time></trkpt><trkpt lat="45.34928346028617" lon="9.229485006541886"><ele>92.0</ele><time>2026-04-11T08:44:42.001Z</time></trkpt><trkpt lat="45.349212998834574" lon="9.229539414335587"><ele>92.0</ele><time>2026-04-11T08:44:44Z</time></trkpt><trkpt lat="45.349150774789834" lon="9.229579825161728"><ele>92.0</ele><time>2026-04-11T08:44:46Z</time></trkpt><trkpt lat="45.349073778460884" lon="9.229634629921685"><ele>92.0</ele><time>2026-04-11T08:44:48Z</time></trkpt><trkpt lat="45.34896606898241" lon="9.229714578324892"><ele>92.0</ele><time>2026-04-11T08:44:50Z</time></trkpt><trkpt lat="45.348902193134876" lon="9.229759885138309"><ele>92.0</ele><time>2026-04-11T08:44:51Z</time></trkpt><trkpt lat="45.348830727320326" lon="9.229808884085339"><ele>92.19999999999999</ele><time>2026-04-11T08:44:52Z</time></trkpt><trkpt lat="45.34875058093347" lon="9.229864314708761"><ele>92.4</ele><time>2026-04-11T08:44:53Z</time></trkpt><trkpt lat="45.34866562294722" lon="9.229924464738968"><ele>92.6</ele><time>2026-04-11T08:44:54Z</time></trkpt><trkpt lat="45.34857429849216" lon="9.229993124840341"><ele>92.80000000000001</ele><time>2026-04-11T08:44:55Z</time></trkpt><trkpt lat="45.348475599474796" lon="9.230063898466783"><ele>93.0</ele><time>2026-04-11T08:44:56Z</time></trkpt><trkpt lat="45.348370515749295" lon="9.230137768146157"><ele>93.0</ele><time>2026-04-11T08:44:57Z</time></trkpt><trkpt lat="45.3482638483743" lon="9.230217214974765"><ele>93.0</ele><time>2026-04-11T08:44:58Z</time></trkpt><trkpt lat="45.348153473108944" lon="9.230301504957804"><ele>93.0</ele><time>2026-04-11T08:44:59Z</time></trkpt><trkpt lat="45.34803863427161" lon="9.23038911067164"><ele>93.0</ele><time>2026-04-11T08:45:00Z</time></trkpt><trkpt lat="45.34791662566833" lon="9.230481492187357"><ele>93.0</ele><time>2026-04-11T08:45:01Z</time></trkpt><trkpt lat="45.347792616576676" lon="9.230582178681301"><ele>93.0</ele><time>2026-04-11T08:45:02Z</time></trkpt><trkpt lat="45.34767074859072" lon="9.230686431107904"><ele>93.0</ele><time>2026-04-11T08:45:03Z</time></trkpt><trkpt lat="45.347542075600714" lon="9.2307995140638"><ele>93.0</ele><time>2026-04-11T08:45:04Z</time></trkpt><trkpt lat="45.34740830857523" lon="9.230914957477683"><ele>93.0</ele><time>2026-04-11T08:45:05Z</time></trkpt><trkpt lat="45.347271111613296" lon="9.231031676043576"><ele>93.0</ele><time>2026-04-11T08:45:06Z</time></trkpt><trkpt lat="45.347133353104645" lon="9.231150117634558"><ele>93.0</ele><time>2026-04-11T08:45:07Z</time></trkpt><trkpt lat="45.34700267167758" lon="9.23126190112006"><ele>93.0</ele><time>2026-04-11T08:45:08Z</time></trkpt><trkpt lat="45.34688509113227" lon="9.231364545614383"><ele>93.0</ele><time>2026-04-11T08:45:09Z</time></trkpt><trkpt lat="45.34676803708454" lon="9.231465312167506"><ele>93.0</ele><time>2026-04-11T08:45:10Z</time></trkpt><trkpt lat="45.3466519495889" lon="9.231568507579187"><ele>93.0</ele><time>2026-04-11T08:45:11Z</time></trkpt><trkpt lat="45.34653705247873" lon="9.231675486350262"><ele>93.0</ele><time>2026-04-11T08:45:12Z</time></trkpt><trkpt lat="45.346422315413434" lon="9.231789191446916"><ele>93.0</ele><time>2026-04-11T08:45:13Z</time></trkpt><trkpt lat="45.346302683877795" lon="9.231902165073429"><ele>93.0</ele><time>2026-04-11T08:45:14Z</time></trkpt><trkpt lat="45.346155477661775" lon="9.232032207782684"><ele>93.0</ele><time>2026-04-11T08:45:15Z</time></trkpt><trkpt lat="45.345974905846695" lon="9.232184698328222"><ele>93.0</ele><time>2026-04-11T08:45:16Z</time></trkpt><trkpt lat="45.3457830810756" lon="9.23233482929448"><ele>93.0</ele><time>2026-04-11T08:45:17Z</time></trkpt><trkpt lat="45.345588940065845" lon="9.232486938699742"><ele>93.0</ele><time>2026-04-11T08:45:18Z</time></trkpt><trkpt lat="45.34539747769771" lon="9.23263820691609"><ele>93.0</ele><time>2026-04-11T08:45:19Z</time></trkpt><trkpt lat="45.34521230862014" lon="9.232781637479173"><ele>93.0</ele><time>2026-04-11T08:45:20Z</time></trkpt><trkpt lat="45.34504557361093" lon="9.232915341746027"><ele>93.0</ele><time>2026-04-11T08:45:21Z</time></trkpt><trkpt lat="45.34488828605431" lon="9.23304028578192"><ele>93.0</ele><time>2026-04-11T08:45:22Z</time></trkpt><trkpt lat="45.34474418168921" lon="9.233157569837413"><ele>93.0</ele><time>2026-04-11T08:45:23Z</time></trkpt><trkpt lat="45.34460882904538" lon="9.233271471841796"><ele>92.75</ele><time>2026-04-11T08:45:24Z</time></trkpt><trkpt lat="45.344475939428875" lon="9.233383965208693"><ele>92.5</ele><time>2026-04-11T08:45:25Z</time></trkpt><trkpt lat="45.344351510843445" lon="9.233492706857286"><ele>92.25</ele><time>2026-04-11T08:45:26Z</time></trkpt><trkpt lat="45.34423885958891" lon="9.233596843896377"><ele>92.0</ele><time>2026-04-11T08:45:27Z</time></trkpt><trkpt lat="45.344132436272865" lon="9.233700978632088"><ele>92.0</ele><time>2026-04-11T08:45:28Z</time></trkpt><trkpt lat="45.34402783827691" lon="9.233809259887696"><ele>92.0</ele><time>2026-04-11T08:45:29Z</time></trkpt><trkpt lat="45.34392072857743" lon="9.23392014875083"><ele>92.0</ele><time>2026-04-11T08:45:30Z</time></trkpt><trkpt lat="45.34380995541423" lon="9.234029662435729"><ele>92.0</ele><time>2026-04-11T08:45:31Z</time></trkpt><trkpt lat="45.34369923625775" lon="9.234134520651821"><ele>92.5</ele><time>2026-04-11T08:45:32Z</time></trkpt><trkpt lat="45.3435864432356" lon="9.234236470292846"><ele>93.0</ele><time>2026-04-11T08:45:33Z</time></trkpt><trkpt lat="45.3434724036165" lon="9.234330982108835"><ele>93.5</ele><time>2026-04-11T08:45:34Z</time></trkpt><trkpt lat="45.343350897633854" lon="9.23441638905274"><ele>94.0</ele><time>2026-04-11T08:45:35Z</time></trkpt><trkpt lat="45.34322365111949" lon="9.234498233055083"><ele>94.0</ele><time>2026-04-11T08:45:36Z</time></trkpt><trkpt lat="45.3430951417574" lon="9.234580348161316"><ele>94.0</ele><time>2026-04-11T08:45:37Z</time></trkpt><trkpt lat="45.34297090728315" lon="9.234657327789167"><ele>94.0</ele><time>2026-04-11T08:45:38Z</time></trkpt><trkpt lat="45.34284397776863" lon="9.234730914108505"><ele>94.0</ele><time>2026-04-11T08:45:39Z</time></trkpt><trkpt lat="45.342715279450466" lon="9.234806728458455"><ele>93.5</ele><time>2026-04-11T08:45:40Z</time></trkpt><trkpt lat="45.34258754811937" lon="9.234889125041724"><ele>93.0</ele><time>2026-04-11T08:45:41Z</time></trkpt><trkpt lat="45.342465479100305" lon="9.234984436599637"><ele>92.5</ele><time>2026-04-11T08:45:42Z</time></trkpt><trkpt lat="45.342347984552674" lon="9.235090621636484"><ele>92.0</ele><time>2026-04-11T08:45:43Z</time></trkpt><trkpt lat="45.34223069311691" lon="9.235198180016225"><ele>91.75</ele><time>2026-04-11T08:45:44Z</time></trkpt><trkpt lat="45.342111294580775" lon="9.23529981578377"><ele>91.5</ele><time>2026-04-11T08:45:45Z</time></trkpt><trkpt lat="45.34198983262339" lon="9.235392732305804"><ele>91.25</ele><time>2026-04-11T08:45:46Z</time></trkpt><trkpt lat="45.34187176334537" lon="9.235492777170913"><ele>91.0</ele><time>2026-04-11T08:45:47Z</time></trkpt><trkpt lat="45.34175603369365" lon="9.2355971906269"><ele>90.75</ele><time>2026-04-11T08:45:48Z</time></trkpt><trkpt lat="45.3416410104517" lon="9.235701770820297"><ele>90.5</ele><time>2026-04-11T08:45:49Z</time></trkpt><trkpt lat="45.34152486070228" lon="9.235809123792157"><ele>90.25</ele><time>2026-04-11T08:45:50Z</time></trkpt><trkpt lat="45.341407999415466" lon="9.2359173140493"><ele>90.0</ele><time>2026-04-11T08:45:51Z</time></trkpt><trkpt lat="45.3412901275719" lon="9.236027638606444"><ele>89.5</ele><time>2026-04-11T08:45:52Z</time></trkpt><trkpt lat="45.341169423263565" lon="9.23613776015109"><ele>89.0</ele><time>2026-04-11T08:45:53Z</time></trkpt><trkpt lat="45.341047566744066" lon="9.23624735696711"><ele>88.5</ele><time>2026-04-11T08:45:54Z</time></trkpt><trkpt lat="45.34092319489702" lon="9.236356846103462"><ele>88.0</ele><time>2026-04-11T08:45:55Z</time></trkpt><trkpt lat="45.34079822318319" lon="9.236466072921043"><ele>88.33333333333333</ele><time>2026-04-11T08:45:56Z</time></trkpt><trkpt lat="45.3406712903889" lon="9.236573882367784"><ele>88.66666666666667</ele><time>2026-04-11T08:45:57Z</time></trkpt><trkpt lat="45.3405435231383" lon="9.236685060076837"><ele>89.0</ele><time>2026-04-11T08:45:58Z</time></trkpt><trkpt lat="45.34041333162188" lon="9.236797195577973"><ele>89.0</ele><time>2026-04-11T08:45:59Z</time></trkpt><trkpt lat="45.340284513786756" lon="9.236911195215425"><ele>89.0</ele><time>2026-04-11T08:46:00Z</time></trkpt><trkpt lat="45.3401549164512" lon="9.237024001814213"><ele>89.0</ele><time>2026-04-11T08:46:01Z</time></trkpt><trkpt lat="45.340024851307305" lon="9.237138070259652"><ele>89.0</ele><time>2026-04-11T08:46:02Z</time></trkpt><trkpt lat="45.33989828819893" lon="9.237249678848336"><ele>89.0</ele><time>2026-04-11T08:46:03Z</time></trkpt><trkpt lat="45.33977810823812" lon="9.237358209837947"><ele>89.0</ele><time>2026-04-11T08:46:04Z</time></trkpt><trkpt lat="45.3396683470938" lon="9.237461878215322"><ele>89.0</ele><time>2026-04-11T08:46:05Z</time></trkpt><trkpt lat="45.33956434992461" lon="9.237562639165876"><ele>89.5</ele><time>2026-04-11T08:46:06Z</time></trkpt><trkpt lat="45.339466472272335" lon="9.237655997936205"><ele>90.0</ele><time>2026-04-11T08:46:07Z</time></trkpt><trkpt lat="45.33936694125146" lon="9.237748082410425"><ele>90.5</ele><time>2026-04-11T08:46:08Z</time></trkpt><trkpt lat="45.33925774019619" lon="9.237844617124122"><ele>91.0</ele><time>2026-04-11T08:46:09Z</time></trkpt><trkpt lat="45.33914101284834" lon="9.23794436600802"><ele>91.0</ele><time>2026-04-11T08:46:10Z</time></trkpt><trkpt lat="45.33901736421835" lon="9.23804894476506"><ele>91.0</ele><time>2026-04-11T08:46:11Z</time></trkpt><trkpt lat="45.338886630435596" lon="9.238157718118382"><ele>91.0</ele><time>2026-04-11T08:46:12Z</time></trkpt><trkpt lat="45.33875053863746" lon="9.238270883275408"><ele>91.0</ele><time>2026-04-11T08:46:13Z</time></trkpt><trkpt lat="45.338611120235576" lon="9.238387032424148"><ele>91.0</ele><time>2026-04-11T08:46:14Z</time></trkpt><trkpt lat="45.33846494515945" lon="9.23850808770774"><ele>91.0</ele><time>2026-04-11T08:46:15Z</time></trkpt><trkpt lat="45.338316075011264" lon="9.238630387752146"><ele>91.0</ele><time>2026-04-11T08:46:16Z</time></trkpt><trkpt lat="45.33816359764559" lon="9.23875541766716"><ele>91.0</ele><time>2026-04-11T08:46:17Z</time></trkpt><trkpt lat="45.33800753006024" lon="9.23888325024518"><ele>91.0</ele><time>2026-04-11T08:46:18Z</time></trkpt><trkpt lat="45.33784702190858" lon="9.239011731766672"><ele>91.0</ele><time>2026-04-11T08:46:19Z</time></trkpt><trkpt lat="45.337682659865195" lon="9.239147415336031"><ele>91.0</ele><time>2026-04-11T08:46:20Z</time></trkpt><trkpt lat="45.33751644516879" lon="9.239278086044227"><ele>91.0</ele><time>2026-04-11T08:46:21Z</time></trkpt><trkpt lat="45.33734675420591" lon="9.239411727163624"><ele>91.0</ele><time>2026-04-11T08:46:22Z</time></trkpt><trkpt lat="45.33717629637109" lon="9.239548891910838"><ele>91.0</ele><time>2026-04-11T08:46:23Z</time></trkpt><trkpt lat="45.33700570154078" lon="9.239689187901437"><ele>91.0</ele><time>2026-04-11T08:46:24Z</time></trkpt><trkpt lat="45.336833750273755" lon="9.23983325342048"><ele>91.0</ele><time>2026-04-11T08:46:25Z</time></trkpt><trkpt lat="45.336660630807835" lon="9.23997854330614"><ele>91.0</ele><time>2026-04-11T08:46:26Z</time></trkpt><trkpt lat="45.33648511876155" lon="9.240121386081828"><ele>91.0</ele><time>2026-04-11T08:46:27Z</time></trkpt><trkpt lat="45.33630885741867" lon="9.240256383598483"><ele>91.0</ele><time>2026-04-11T08:46:28Z</time></trkpt><trkpt lat="45.33613547029724" lon="9.24038930701973"><ele>91.0</ele><time>2026-04-11T08:46:29Z</time></trkpt><trkpt lat="45.33597264856902" lon="9.240520495040439"><ele>91.0</ele><time>2026-04-11T08:46:30Z</time></trkpt><trkpt lat="45.335820357095386" lon="9.240643496643962"><ele>90.66666666666666</ele><time>2026-04-11T08:46:31Z</time></trkpt><trkpt lat="45.33567798918315" lon="9.240760320834402"><ele>90.33333333333333</ele><time>2026-04-11T08:46:32Z</time></trkpt><trkpt lat="45.33554447209165" lon="9.240870229407781"><ele>90.0</ele><time>2026-04-11T08:46:33Z</time></trkpt><trkpt lat="45.335418983570165" lon="9.240972045116399"><ele>90.0</ele><time>2026-04-11T08:46:34Z</time></trkpt><trkpt lat="45.33530406676019" lon="9.241067040354038"><ele>90.0</ele><time>2026-04-11T08:46:35Z</time></trkpt><trkpt lat="45.335199007710756" lon="9.241151578992007"><ele>90.0</ele><time>2026-04-11T08:46:36Z</time></trkpt><trkpt lat="45.335104880661454" lon="9.241227371369158"><ele>90.0</ele><time>2026-04-11T08:46:37Z</time></trkpt><trkpt lat="45.33496949216979" lon="9.241346773241656"><ele>90.0</ele><time>2026-04-11T08:46:39Z</time></trkpt><trkpt lat="45.334955974034635" lon="9.241450871536639"><ele>90.0</ele><time>2026-04-11T08:46:41Z</time></trkpt><trkpt lat="45.33501749368964" lon="9.241568244964647"><ele>90.0</ele><time>2026-04-11T08:46:43Z</time></trkpt><trkpt lat="45.33505664928926" lon="9.241638799726104"><ele>90.0</ele><time>2026-04-11T08:46:44Z</time></trkpt><trkpt lat="45.33509519290349" lon="9.241731193636385"><ele>90.0</ele><time>2026-04-11T08:46:45Z</time></trkpt><trkpt lat="45.3351457679407" lon="9.241828376904598"><ele>90.0</ele><time>2026-04-11T08:46:46.001Z</time></trkpt><trkpt lat="45.335195420086606" lon="9.241922500936228"><ele>90.0</ele><time>2026-04-11T08:46:47.001Z</time></trkpt><trkpt lat="45.335238786656284" lon="9.242010313646155"><ele>90.0</ele><time>2026-04-11T08:46:48.001Z</time></trkpt><trkpt lat="45.33527678279195" lon="9.242086646168378"><ele>90.0</ele><time>2026-04-11T08:46:49.001Z</time></trkpt><trkpt lat="45.335347337308605" lon="9.242227137915986"><ele>90.0</ele><time>2026-04-11T08:46:51.001Z</time></trkpt><trkpt lat="45.33538732246193" lon="9.24229946368293"><ele>90.0</ele><time>2026-04-11T08:46:52.001Z</time></trkpt><trkpt lat="45.33543176884351" lon="9.242377705405087"><ele>90.0</ele><time>2026-04-11T08:46:53.001Z</time></trkpt><trkpt lat="45.33547651283758" lon="9.242462208875564"><ele>90.0</ele><time>2026-04-11T08:46:54.001Z</time></trkpt><trkpt lat="45.33552375534182" lon="9.242553061083905"><ele>90.0</ele><time>2026-04-11T08:46:55.001Z</time></trkpt><trkpt lat="45.33557104258333" lon="9.242648825336987"><ele>90.0</ele><time>2026-04-11T08:46:56.001Z</time></trkpt><trkpt lat="45.33561597906005" lon="9.242735017453546"><ele>90.0</ele><time>2026-04-11T08:46:57.001Z</time></trkpt><trkpt lat="45.33565546620049" lon="9.24280998856264"><ele>90.0</ele><time>2026-04-11T08:46:58.001Z</time></trkpt><trkpt lat="45.335698548210424" lon="9.242889092271787"><ele>90.0</ele><time>2026-04-11T08:46:59.001Z</time></trkpt><trkpt lat="45.33573005121005" lon="9.242989403379138"><ele>90.0</ele><time>2026-04-11T08:47:00.001Z</time></trkpt><trkpt lat="45.335781400684716" lon="9.243096151259216"><ele>90.0</ele><time>2026-04-11T08:47:01.001Z</time></trkpt><trkpt lat="45.33583349074167" lon="9.24320234003443"><ele>90.0</ele><time>2026-04-11T08:47:02.001Z</time></trkpt><trkpt lat="45.33589076649516" lon="9.243318565372672"><ele>90.0</ele><time>2026-04-11T08:47:03.001Z</time></trkpt><trkpt lat="45.3359415405548" lon="9.24342159751751"><ele>90.0</ele><time>2026-04-11T08:47:04.001Z</time></trkpt><trkpt lat="45.33598936045528" lon="9.243518634950192"><ele>90.2</ele><time>2026-04-11T08:47:05.001Z</time></trkpt><trkpt lat="45.33603167874513" lon="9.243604511749032"><ele>90.4</ele><time>2026-04-11T08:47:06.001Z</time></trkpt><trkpt lat="45.336073114206066" lon="9.243686360293111"><ele>90.6</ele><time>2026-04-11T08:47:07.001Z</time></trkpt><trkpt lat="45.33615990570768" lon="9.24386105811446"><ele>90.8</ele><time>2026-04-11T08:47:09.001Z</time></trkpt><trkpt lat="45.33620712518866" lon="9.243955822932282"><ele>91.0</ele><time>2026-04-11T08:47:10.001Z</time></trkpt><trkpt lat="45.336266666622656" lon="9.244047150838469"><ele>91.0</ele><time>2026-04-11T08:47:11.001Z</time></trkpt><trkpt lat="45.33630761158934" lon="9.244156458250938"><ele>91.0</ele><time>2026-04-11T08:47:12.001Z</time></trkpt><trkpt lat="45.336359789735795" lon="9.24426244409029"><ele>91.0</ele><time>2026-04-11T08:47:13.001Z</time></trkpt><trkpt lat="45.33641874747191" lon="9.244354487712798"><ele>91.0</ele><time>2026-04-11T08:47:14.001Z</time></trkpt><trkpt lat="45.33646025745798" lon="9.244443125088615"><ele>91.0</ele><time>2026-04-11T08:47:15.001Z</time></trkpt><trkpt lat="45.33650211369138" lon="9.244530981308984"><ele>91.0</ele><time>2026-04-11T08:47:16.001Z</time></trkpt><trkpt lat="45.33655120633767" lon="9.244616730161722"><ele>91.0</ele><time>2026-04-11T08:47:17.001Z</time></trkpt><trkpt lat="45.33659560265421" lon="9.244707575623664"><ele>91.0</ele><time>2026-04-11T08:47:18.001Z</time></trkpt><trkpt lat="45.33664786537961" lon="9.244790611674793"><ele>91.0</ele><time>2026-04-11T08:47:19Z</time></trkpt><trkpt lat="45.33669883749347" lon="9.244879212034249"><ele>91.0</ele><time>2026-04-11T08:47:20Z</time></trkpt><trkpt lat="45.33674809294566" lon="9.244969623461538"><ele>91.0</ele><time>2026-04-11T08:47:21Z</time></trkpt><trkpt lat="45.33679475396766" lon="9.245066904255706"><ele>91.0</ele><time>2026-04-11T08:47:22Z</time></trkpt><trkpt lat="45.336839049752236" lon="9.245155760429457"><ele>91.16666666666666</ele><time>2026-04-11T08:47:23Z</time></trkpt><trkpt lat="45.33686679361156" lon="9.245245140997397"><ele>91.33333333333333</ele><time>2026-04-11T08:47:24Z</time></trkpt><trkpt lat="45.336882495096035" lon="9.245358646199515"><ele>91.5</ele><time>2026-04-11T08:47:26Z</time></trkpt><trkpt lat="45.33693706309656" lon="9.24544411856443"><ele>91.66666666666667</ele><time>2026-04-11T08:47:28Z</time></trkpt><trkpt lat="45.33698087577316" lon="9.24554815193"><ele>91.83333333333334</ele><time>2026-04-11T08:47:31Z</time></trkpt><trkpt lat="45.33693348855937" lon="9.2454339378239"><ele>92.0</ele><time>2026-04-11T08:47:41.001Z</time></trkpt><trkpt lat="45.33689268312853" lon="9.245349029740355"><ele>92.0</ele><time>2026-04-11T08:47:44.001Z</time></trkpt><trkpt lat="45.33678234158829" lon="9.245388896319975"><ele>92.0</ele><time>2026-04-11T08:47:48.001Z</time></trkpt><trkpt lat="45.336714685933316" lon="9.245482715453004"><ele>92.0</ele><time>2026-04-11T08:47:50.001Z</time></trkpt><trkpt lat="45.336632541571674" lon="9.245577749445065"><ele>92.0</ele><time>2026-04-11T08:47:52.001Z</time></trkpt><trkpt lat="45.33654348768166" lon="9.24567622869077"><ele>92.0</ele><time>2026-04-11T08:47:54.001Z</time></trkpt><trkpt lat="45.33648230405703" lon="9.2457519181677"><ele>92.19999999999999</ele><time>2026-04-11T08:47:56.001Z</time></trkpt><trkpt lat="45.33643918505211" lon="9.245850587942758"><ele>92.4</ele><time>2026-04-11T08:47:58.001Z</time></trkpt><trkpt lat="45.336465991365856" lon="9.24597267840441"><ele>92.6</ele><time>2026-04-11T08:48:00.001Z</time></trkpt><trkpt lat="45.33653241350107" lon="9.246102820116667"><ele>92.80000000000001</ele><time>2026-04-11T08:48:02.001Z</time></trkpt><trkpt lat="45.33660869426482" lon="9.246243204414839"><ele>93.0</ele><time>2026-04-11T08:48:04.001Z</time></trkpt><trkpt lat="45.33665461801358" lon="9.246324373795474"><ele>93.0</ele><time>2026-04-11T08:48:05.001Z</time></trkpt><trkpt lat="45.33671396089582" lon="9.246399071392386"><ele>93.0</ele><time>2026-04-11T08:48:06.001Z</time></trkpt><trkpt lat="45.33675981185889" lon="9.246491551591845"><ele>93.0</ele><time>2026-04-11T08:48:07.001Z</time></trkpt><trkpt lat="45.33680783373994" lon="9.246579880349936"><ele>93.0</ele><time>2026-04-11T08:48:08.001Z</time></trkpt><trkpt lat="45.33685144875389" lon="9.246679185467814"><ele>93.0</ele><time>2026-04-11T08:48:09.001Z</time></trkpt><trkpt lat="45.336899249897655" lon="9.24677880701834"><ele>93.0</ele><time>2026-04-11T08:48:10.001Z</time></trkpt><trkpt lat="45.33694548768746" lon="9.246873502513695"><ele>93.0</ele><time>2026-04-11T08:48:11.001Z</time></trkpt><trkpt lat="45.33699240187288" lon="9.246963904103039"><ele>93.0</ele><time>2026-04-11T08:48:12.001Z</time></trkpt><trkpt lat="45.337027612974865" lon="9.247066140635892"><ele>93.0</ele><time>2026-04-11T08:48:13.001Z</time></trkpt><trkpt lat="45.337088753034486" lon="9.24713794560036"><ele>93.0</ele><time>2026-04-11T08:48:14.001Z</time></trkpt><trkpt lat="45.33712392036026" lon="9.247237384147358"><ele>93.0</ele><time>2026-04-11T08:48:15.001Z</time></trkpt><trkpt lat="45.33716972500467" lon="9.247318828741706"><ele>93.0</ele><time>2026-04-11T08:48:16.001Z</time></trkpt><trkpt lat="45.33722676756002" lon="9.24739505229668"><ele>93.0</ele><time>2026-04-11T08:48:17.001Z</time></trkpt><trkpt lat="45.33729801317208" lon="9.247530650770056"><ele>93.0</ele><time>2026-04-11T08:48:19.001Z</time></trkpt><trkpt lat="45.337345163411584" lon="9.247638669864523"><ele>93.0</ele><time>2026-04-11T08:48:21.001Z</time></trkpt><trkpt lat="45.33737740549844" lon="9.247719602409104"><ele>93.0</ele><time>2026-04-11T08:48:23.001Z</time></trkpt><trkpt lat="45.33741456550479" lon="9.247802447816188"><ele>93.0</ele><time>2026-04-11T08:48:28.001Z</time></trkpt><trkpt lat="45.33729731230445" lon="9.247921634411654"><ele>93.0</ele><time>2026-04-11T08:48:30.001Z</time></trkpt><trkpt lat="45.33723865594584" lon="9.247969819414015"><ele>93.0</ele><time>2026-04-11T08:48:31.001Z</time></trkpt><trkpt lat="45.337172123265425" lon="9.248033569971453"><ele>93.0</ele><time>2026-04-11T08:48:32.001Z</time></trkpt><trkpt lat="45.33710143306251" lon="9.248111720402724"><ele>93.0</ele><time>2026-04-11T08:48:33.001Z</time></trkpt><trkpt lat="45.33702813181977" lon="9.248190088011127"><ele>93.0</ele><time>2026-04-11T08:48:34.001Z</time></trkpt><trkpt lat="45.336940167162226" lon="9.248290926938221"><ele>93.0</ele><time>2026-04-11T08:48:35.001Z</time></trkpt><trkpt lat="45.33684298055196" lon="9.248412525144278"><ele>93.0</ele><time>2026-04-11T08:48:36.001Z</time></trkpt><trkpt lat="45.33676729848195" lon="9.248519683843087"><ele>93.0</ele><time>2026-04-11T08:48:37.001Z</time></trkpt><trkpt lat="45.336695635536195" lon="9.248606851624448"><ele>93.0</ele><time>2026-04-11T08:48:38.001Z</time></trkpt><trkpt lat="45.336639606258174" lon="9.248684385177558"><ele>93.0</ele><time>2026-04-11T08:48:39.001Z</time></trkpt><trkpt lat="45.33657565181587" lon="9.24876497531322"><ele>93.0</ele><time>2026-04-11T08:48:41.001Z</time></trkpt><trkpt lat="45.33651062916926" lon="9.248825765785975"><ele>93.0</ele><time>2026-04-11T08:48:48.001Z</time></trkpt><trkpt lat="45.33644328034072" lon="9.248833441965282"><ele>92.83333333333333</ele><time>2026-04-11T08:48:51.001Z</time></trkpt><trkpt lat="45.33634383736639" lon="9.248874659744923"><ele>92.66666666666667</ele><time>2026-04-11T08:48:54.001Z</time></trkpt><trkpt lat="45.33627570201336" lon="9.248848604284714"><ele>92.5</ele><time>2026-04-11T08:48:55.001Z</time></trkpt><trkpt lat="45.33621283702718" lon="9.248860857757974"><ele>92.33333333333334</ele><time>2026-04-11T08:48:56.001Z</time></trkpt><trkpt lat="45.336152493892975" lon="9.248891973515812"><ele>92.16666666666667</ele><time>2026-04-11T08:48:57.001Z</time></trkpt><trkpt lat="45.33608556218966" lon="9.248949598305154"><ele>92.0</ele><time>2026-04-11T08:48:58.001Z</time></trkpt><trkpt lat="45.336031393757814" lon="9.249054774764405"><ele>92.39999999999999</ele><time>2026-04-11T08:48:59.001Z</time></trkpt><trkpt lat="45.335999550104326" lon="9.249183128918036"><ele>92.8</ele><time>2026-04-11T08:49:00.001Z</time></trkpt><trkpt lat="45.33599632513595" lon="9.24931236925167"><ele>93.2</ele><time>2026-04-11T08:49:01.001Z</time></trkpt><trkpt lat="45.336018661609444" lon="9.249439289529633"><ele>93.6</ele><time>2026-04-11T08:49:02.001Z</time></trkpt><trkpt lat="45.33605615418717" lon="9.249556369033662"><ele>94.0</ele><time>2026-04-11T08:49:03.001Z</time></trkpt><trkpt lat="45.33609717867897" lon="9.249657846225384"><ele>94.0</ele><time>2026-04-11T08:49:04.001Z</time></trkpt><trkpt lat="45.33615609154795" lon="9.249764463265722"><ele>94.0</ele><time>2026-04-11T08:49:05.001Z</time></trkpt><trkpt lat="45.33621852991222" lon="9.249850947303562"><ele>94.0</ele><time>2026-04-11T08:49:06.001Z</time></trkpt><trkpt lat="45.33629428089706" lon="9.249939385748103"><ele>94.0</ele><time>2026-04-11T08:49:07.001Z</time></trkpt><trkpt lat="45.33637299700211" lon="9.25002845227228"><ele>94.0</ele><time>2026-04-11T08:49:08.001Z</time></trkpt><trkpt lat="45.33645247506623" lon="9.250126608024928"><ele>93.5</ele><time>2026-04-11T08:49:09Z</time></trkpt><trkpt lat="45.3365309052329" lon="9.250243651274557"><ele>93.0</ele><time>2026-04-11T08:49:10Z</time></trkpt><trkpt lat="45.3365956752829" lon="9.250377229475339"><ele>92.5</ele><time>2026-04-11T08:49:11Z</time></trkpt><trkpt lat="45.3366585058061" lon="9.25051987679293"><ele>92.0</ele><time>2026-04-11T08:49:12Z</time></trkpt><trkpt lat="45.336720695823054" lon="9.250665478372893"><ele>91.5</ele><time>2026-04-11T08:49:13Z</time></trkpt><trkpt lat="45.33677800320049" lon="9.250820421841196"><ele>91.0</ele><time>2026-04-11T08:49:14Z</time></trkpt><trkpt lat="45.336829296812745" lon="9.250980583018286"><ele>90.5</ele><time>2026-04-11T08:49:15Z</time></trkpt><trkpt lat="45.33688190351692" lon="9.251142614590071"><ele>90.0</ele><time>2026-04-11T08:49:16Z</time></trkpt><trkpt lat="45.33694029370943" lon="9.251319431602706"><ele>89.75</ele><time>2026-04-11T08:49:17Z</time></trkpt><trkpt lat="45.33700591934758" lon="9.2515045952447"><ele>89.5</ele><time>2026-04-11T08:49:18Z</time></trkpt><trkpt lat="45.33707377143425" lon="9.251689369787787"><ele>89.25</ele><time>2026-04-11T08:49:19Z</time></trkpt><trkpt lat="45.337137080896916" lon="9.25187763174352"><ele>89.0</ele><time>2026-04-11T08:49:20Z</time></trkpt><trkpt lat="45.33720110431533" lon="9.252062383764121"><ele>89.25</ele><time>2026-04-11T08:49:21Z</time></trkpt><trkpt lat="45.33726314785559" lon="9.252241970344278"><ele>89.5</ele><time>2026-04-11T08:49:22Z</time></trkpt><trkpt lat="45.33732383610523" lon="9.25241903671421"><ele>89.75</ele><time>2026-04-11T08:49:23Z</time></trkpt><trkpt lat="45.33738822025835" lon="9.252603587191038"><ele>90.0</ele><time>2026-04-11T08:49:24Z</time></trkpt><trkpt lat="45.33745301532872" lon="9.252787023188036"><ele>90.0</ele><time>2026-04-11T08:49:25Z</time></trkpt><trkpt lat="45.33751370735232" lon="9.252975983645475"><ele>90.0</ele><time>2026-04-11T08:49:26Z</time></trkpt><trkpt lat="45.33757464018736" lon="9.253153435439659"><ele>90.0</ele><time>2026-04-11T08:49:27Z</time></trkpt><trkpt lat="45.3376372426155" lon="9.253330471078744"><ele>90.0</ele><time>2026-04-11T08:49:28Z</time></trkpt><trkpt lat="45.33769953667257" lon="9.253515141932695"><ele>90.0</ele><time>2026-04-11T08:49:29Z</time></trkpt><trkpt lat="45.3377642743518" lon="9.253700414242672"><ele>90.0</ele><time>2026-04-11T08:49:30Z</time></trkpt><trkpt lat="45.337829766956744" lon="9.253880707251536"><ele>90.0</ele><time>2026-04-11T08:49:31Z</time></trkpt><trkpt lat="45.33789359975128" lon="9.254060752531284"><ele>90.0</ele><time>2026-04-11T08:49:32Z</time></trkpt><trkpt lat="45.33795498684865" lon="9.254235792337143"><ele>90.0</ele><time>2026-04-11T08:49:33Z</time></trkpt><trkpt lat="45.338015198253764" lon="9.254405201409993"><ele>90.0</ele><time>2026-04-11T08:49:34Z</time></trkpt><trkpt lat="45.3380743134813" lon="9.254576300520416"><ele>90.0</ele><time>2026-04-11T08:49:35Z</time></trkpt><trkpt lat="45.33813388514423" lon="9.254748267179671"><ele>90.0</ele><time>2026-04-11T08:49:36Z</time></trkpt><trkpt lat="45.33819574361293" lon="9.254921086505318"><ele>90.0</ele><time>2026-04-11T08:49:37Z</time></trkpt><trkpt lat="45.33825233864036" lon="9.255080388050006"><ele>90.0</ele><time>2026-04-11T08:49:38Z</time></trkpt><trkpt lat="45.33830914352278" lon="9.25524220784733"><ele>90.0</ele><time>2026-04-11T08:49:39Z</time></trkpt><trkpt lat="45.338367392075384" lon="9.25541378206755"><ele>90.0</ele><time>2026-04-11T08:49:40Z</time></trkpt><trkpt lat="45.33842631967188" lon="9.255590906542816"><ele>90.25</ele><time>2026-04-11T08:49:41Z</time></trkpt><trkpt lat="45.338488442918866" lon="9.255773716164528"><ele>90.5</ele><time>2026-04-11T08:49:42Z</time></trkpt><trkpt lat="45.33855206458387" lon="9.255964478735981"><ele>90.75</ele><time>2026-04-11T08:49:43Z</time></trkpt><trkpt lat="45.33861981391194" lon="9.256158807877814"><ele>91.0</ele><time>2026-04-11T08:49:44Z</time></trkpt><trkpt lat="45.33868384768367" lon="9.256340340185007"><ele>90.66666666666666</ele><time>2026-04-11T08:49:45Z</time></trkpt><trkpt lat="45.338802336293455" lon="9.256680550157858"><ele>90.33333333333333</ele><time>2026-04-11T08:49:47Z</time></trkpt><trkpt lat="45.33886460014889" lon="9.256855492229258"><ele>90.0</ele><time>2026-04-11T08:49:48Z</time></trkpt><trkpt lat="45.338927345197796" lon="9.257032250198826"><ele>89.75</ele><time>2026-04-11T08:49:49Z</time></trkpt><trkpt lat="45.33899032571422" lon="9.257211920822993"><ele>89.5</ele><time>2026-04-11T08:49:50Z</time></trkpt><trkpt lat="45.339053941714496" lon="9.257391832622488"><ele>89.25</ele><time>2026-04-11T08:49:51Z</time></trkpt><trkpt lat="45.339115995022375" lon="9.257571167845008"><ele>89.0</ele><time>2026-04-11T08:49:52Z</time></trkpt><trkpt lat="45.33917711064731" lon="9.257752806244225"><ele>89.0</ele><time>2026-04-11T08:49:53Z</time></trkpt><trkpt lat="45.33923925954183" lon="9.257937305237846"><ele>89.0</ele><time>2026-04-11T08:49:54Z</time></trkpt><trkpt lat="45.339301601123914" lon="9.258114496551611"><ele>89.0</ele><time>2026-04-11T08:49:55Z</time></trkpt><trkpt lat="45.339365893073435" lon="9.258292571378849"><ele>89.0</ele><time>2026-04-11T08:49:56Z</time></trkpt><trkpt lat="45.33942934427262" lon="9.25847043075379"><ele>89.0</ele><time>2026-04-11T08:49:57Z</time></trkpt><trkpt lat="45.3394923634349" lon="9.258646876205285"><ele>89.0</ele><time>2026-04-11T08:49:58Z</time></trkpt><trkpt lat="45.3395534692053" lon="9.258823295725321"><ele>89.0</ele><time>2026-04-11T08:49:59Z</time></trkpt><trkpt lat="45.339613893585124" lon="9.259000092046293"><ele>89.0</ele><time>2026-04-11T08:50:00Z</time></trkpt><trkpt lat="45.3396748886536" lon="9.259176391380766"><ele>89.25</ele><time>2026-04-11T08:50:01Z</time></trkpt><trkpt lat="45.33973582285945" lon="9.259352790132874"><ele>89.5</ele><time>2026-04-11T08:50:02Z</time></trkpt><trkpt lat="45.33979685400526" lon="9.25952869225632"><ele>89.75</ele><time>2026-04-11T08:50:03Z</time></trkpt><trkpt lat="45.33985735242236" lon="9.25970620297026"><ele>90.0</ele><time>2026-04-11T08:50:04Z</time></trkpt><trkpt lat="45.3399191019302" lon="9.25988037664346"><ele>90.0</ele><time>2026-04-11T08:50:05Z</time></trkpt><trkpt lat="45.3399804817405" lon="9.260054011455761"><ele>90.0</ele><time>2026-04-11T08:50:06Z</time></trkpt><trkpt lat="45.34004021953181" lon="9.260228223908314"><ele>90.0</ele><time>2026-04-11T08:50:07Z</time></trkpt><trkpt lat="45.34010044081362" lon="9.260400613982037"><ele>90.0</ele><time>2026-04-11T08:50:08Z</time></trkpt><trkpt lat="45.340160983284804" lon="9.260575097631792"><ele>89.75</ele><time>2026-04-11T08:50:09Z</time></trkpt><trkpt lat="45.34022142122365" lon="9.260747526590416"><ele>89.5</ele><time>2026-04-11T08:50:10Z</time></trkpt><trkpt lat="45.340281885997875" lon="9.260920805718305"><ele>89.25</ele><time>2026-04-11T08:50:11Z</time></trkpt><trkpt lat="45.34034064841127" lon="9.261090625022769"><ele>89.0</ele><time>2026-04-11T08:50:12Z</time></trkpt><trkpt lat="45.34039421734781" lon="9.26125290862324"><ele>89.0</ele><time>2026-04-11T08:50:13Z</time></trkpt><trkpt lat="45.34044786685252" lon="9.261413399254614"><ele>89.0</ele><time>2026-04-11T08:50:14Z</time></trkpt><trkpt lat="45.340502997183215" lon="9.26156983954308"><ele>89.0</ele><time>2026-04-11T08:50:15Z</time></trkpt><trkpt lat="45.34055736017538" lon="9.261725370890204"><ele>89.0</ele><time>2026-04-11T08:50:16Z</time></trkpt><trkpt lat="45.340612338514546" lon="9.261874817241681"><ele>89.0</ele><time>2026-04-11T08:50:17Z</time></trkpt><trkpt lat="45.340663390731486" lon="9.26202858806934"><ele>89.0</ele><time>2026-04-11T08:50:18Z</time></trkpt><trkpt lat="45.340716512771735" lon="9.262184088869853"><ele>89.0</ele><time>2026-04-11T08:50:19Z</time></trkpt><trkpt lat="45.34077101485236" lon="9.262341045320143"><ele>89.0</ele><time>2026-04-11T08:50:20Z</time></trkpt><trkpt lat="45.34082637539944" lon="9.262499556836136"><ele>89.0</ele><time>2026-04-11T08:50:21Z</time></trkpt><trkpt lat="45.34088298346919" lon="9.262664939503745"><ele>89.0</ele><time>2026-04-11T08:50:22Z</time></trkpt><trkpt lat="45.340940137628905" lon="9.26283445468131"><ele>89.0</ele><time>2026-04-11T08:50:23Z</time></trkpt><trkpt lat="45.34099974423817" lon="9.263005972178759"><ele>89.0</ele><time>2026-04-11T08:50:24Z</time></trkpt><trkpt lat="45.34106099468593" lon="9.263179301274164"><ele>89.25</ele><time>2026-04-11T08:50:25Z</time></trkpt><trkpt lat="45.34112490064309" lon="9.263358387270635"><ele>89.5</ele><time>2026-04-11T08:50:26Z</time></trkpt><trkpt lat="45.34118775733884" lon="9.263539020424394"><ele>89.75</ele><time>2026-04-11T08:50:27Z</time></trkpt><trkpt lat="45.341250735929954" lon="9.263718407292911"><ele>90.0</ele><time>2026-04-11T08:50:28Z</time></trkpt><trkpt lat="45.34130693300116" lon="9.26388142846713"><ele>90.0</ele><time>2026-04-11T08:50:29Z</time></trkpt><trkpt lat="45.34135951461695" lon="9.264033008058712"><ele>90.0</ele><time>2026-04-11T08:50:30Z</time></trkpt><trkpt lat="45.34140564706817" lon="9.264160760064392"><ele>90.0</ele><time>2026-04-11T08:50:31Z</time></trkpt><trkpt lat="45.341410989588475" lon="9.264252926511666"><ele>90.0</ele><time>2026-04-11T08:50:33Z</time></trkpt><trkpt lat="45.34126462299244" lon="9.264450160227506"><ele>90.0</ele><time>2026-04-11T08:50:37Z</time></trkpt><trkpt lat="45.341217733328065" lon="9.264531300215687"><ele>90.0</ele><time>2026-04-11T08:50:38Z</time></trkpt><trkpt lat="45.34116280513824" lon="9.264624039466662"><ele>90.0</ele><time>2026-04-11T08:50:39Z</time></trkpt><trkpt lat="45.34110679663784" lon="9.264714467802163"><ele>90.0</ele><time>2026-04-11T08:50:40Z</time></trkpt><trkpt lat="45.341046051801285" lon="9.264813085270092"><ele>90.0</ele><time>2026-04-11T08:50:41Z</time></trkpt><trkpt lat="45.34098170194601" lon="9.264919687059539"><ele>90.0</ele><time>2026-04-11T08:50:42Z</time></trkpt><trkpt lat="45.34091620268664" lon="9.265024724879916"><ele>90.0</ele><time>2026-04-11T08:50:43Z</time></trkpt><trkpt lat="45.3408555615228" lon="9.265121975164226"><ele>90.0</ele><time>2026-04-11T08:50:44Z</time></trkpt><trkpt lat="45.34080258976206" lon="9.26520959882315"><ele>90.0</ele><time>2026-04-11T08:50:45Z</time></trkpt><trkpt lat="45.34074970995585" lon="9.265300077258367"><ele>90.0</ele><time>2026-04-11T08:50:46Z</time></trkpt><trkpt lat="45.34069320478795" lon="9.265399474270426"><ele>90.0</ele><time>2026-04-11T08:50:47Z</time></trkpt><trkpt lat="45.340631964188574" lon="9.26549799568731"><ele>90.0</ele><time>2026-04-11T08:50:48Z</time></trkpt><trkpt lat="45.34057214178756" lon="9.265592515710738"><ele>89.4</ele><time>2026-04-11T08:50:49Z</time></trkpt><trkpt lat="45.340507783242835" lon="9.26568424595026"><ele>88.8</ele><time>2026-04-11T08:50:50Z</time></trkpt><trkpt lat="45.34044272167373" lon="9.26578284130125"><ele>88.19999999999999</ele><time>2026-04-11T08:50:51Z</time></trkpt><trkpt lat="45.34038421372858" lon="9.265879017767803"><ele>87.6</ele><time>2026-04-11T08:50:52Z</time></trkpt><trkpt lat="45.3403220808343" lon="9.265975747619075"><ele>87.0</ele><time>2026-04-11T08:50:53Z</time></trkpt><trkpt lat="45.340261271675146" lon="9.26606930029863"><ele>87.0</ele><time>2026-04-11T08:50:54Z</time></trkpt><trkpt lat="45.34020039175201" lon="9.266169207027874"><ele>87.0</ele><time>2026-04-11T08:50:55Z</time></trkpt><trkpt lat="45.34013909632354" lon="9.266272662650541"><ele>87.0</ele><time>2026-04-11T08:50:56Z</time></trkpt><trkpt lat="45.340079955240284" lon="9.266375223360745"><ele>87.0</ele><time>2026-04-11T08:50:57Z</time></trkpt><trkpt lat="45.34002946420769" lon="9.266473939845834"><ele>87.0</ele><time>2026-04-11T08:50:58Z</time></trkpt><trkpt lat="45.33997927174477" lon="9.266552343541429"><ele>87.0</ele><time>2026-04-11T08:50:59Z</time></trkpt><trkpt lat="45.33989897024522" lon="9.2666714384466"><ele>87.19999999999999</ele><time>2026-04-11T08:51:01Z</time></trkpt><trkpt lat="45.33987924602107" lon="9.26682809753314"><ele>87.4</ele><time>2026-04-11T08:51:03Z</time></trkpt><trkpt lat="45.33990182658462" lon="9.266913591510042"><ele>87.6</ele><time>2026-04-11T08:51:04Z</time></trkpt><trkpt lat="45.33995274438088" lon="9.267090846281958"><ele>87.80000000000001</ele><time>2026-04-11T08:51:06Z</time></trkpt><trkpt lat="45.33998285169832" lon="9.267219700491928"><ele>88.0</ele><time>2026-04-11T08:51:07Z</time></trkpt><trkpt lat="45.34002692335487" lon="9.26735419044919"><ele>88.0</ele><time>2026-04-11T08:51:08Z</time></trkpt><trkpt lat="45.3400817615429" lon="9.267474258152989"><ele>88.0</ele><time>2026-04-11T08:51:09Z</time></trkpt><trkpt lat="45.340144377037504" lon="9.267592817876883"><ele>88.0</ele><time>2026-04-11T08:51:10Z</time></trkpt><trkpt lat="45.34021710168449" lon="9.267711424796051"><ele>88.0</ele><time>2026-04-11T08:51:11Z</time></trkpt><trkpt lat="45.340299368072344" lon="9.2678335205222"><ele>88.0</ele><time>2026-04-11T08:51:12Z</time></trkpt><trkpt lat="45.34037742354808" lon="9.267958084276502"><ele>88.0</ele><time>2026-04-11T08:51:13Z</time></trkpt><trkpt lat="45.340453614220095" lon="9.268076566748611"><ele>88.0</ele><time>2026-04-11T08:51:14Z</time></trkpt><trkpt lat="45.34052305998163" lon="9.268185174081244"><ele>88.0</ele><time>2026-04-11T08:51:15Z</time></trkpt><trkpt lat="45.34057789519994" lon="9.268288350881086"><ele>88.0</ele><time>2026-04-11T08:51:16Z</time></trkpt><trkpt lat="45.34061812028729" lon="9.268391125178232"><ele>88.0</ele><time>2026-04-11T08:51:17Z</time></trkpt><trkpt lat="45.34064501844138" lon="9.268490756991103"><ele>88.33333333333333</ele><time>2026-04-11T08:51:18Z</time></trkpt><trkpt lat="45.340661386629776" lon="9.268600741502341"><ele>88.66666666666666</ele><time>2026-04-11T08:51:19Z</time></trkpt><trkpt lat="45.34067409748794" lon="9.268712761658167"><ele>89.0</ele><time>2026-04-11T08:51:20Z</time></trkpt><trkpt lat="45.340686754625025" lon="9.268835962959471"><ele>89.33333333333333</ele><time>2026-04-11T08:51:21Z</time></trkpt><trkpt lat="45.34069966583364" lon="9.268947540042621"><ele>89.66666666666667</ele><time>2026-04-11T08:51:22Z</time></trkpt><trkpt lat="45.34071310517511" lon="9.269061317815714"><ele>90.0</ele><time>2026-04-11T08:51:23Z</time></trkpt><trkpt lat="45.34072711793345" lon="9.269182096782563"><ele>90.0</ele><time>2026-04-11T08:51:24Z</time></trkpt><trkpt lat="45.340740894487816" lon="9.26929199731871"><ele>90.0</ele><time>2026-04-11T08:51:25Z</time></trkpt><trkpt lat="45.34075252959044" lon="9.269390126450796"><ele>90.0</ele><time>2026-04-11T08:51:26Z</time></trkpt><trkpt lat="45.34077074503723" lon="9.269528652605262"><ele>90.0</ele><time>2026-04-11T08:51:28Z</time></trkpt><trkpt lat="45.34073775501867" lon="9.26963855138986"><ele>90.0</ele><time>2026-04-11T08:51:31Z</time></trkpt><trkpt lat="45.34064168816413" lon="9.269667530765354"><ele>90.0</ele><time>2026-04-11T08:51:33Z</time></trkpt><trkpt lat="45.340523549147896" lon="9.269688230006693"><ele>90.0</ele><time>2026-04-11T08:51:35Z</time></trkpt><trkpt lat="45.34041302417156" lon="9.269709283527977"><ele>90.0</ele><time>2026-04-11T08:51:37Z</time></trkpt><trkpt lat="45.34031055612733" lon="9.269732488501694"><ele>90.0</ele><time>2026-04-11T08:51:39Z</time></trkpt><trkpt lat="45.340243800650086" lon="9.269749857786142"><ele>90.0</ele><time>2026-04-11T08:51:40Z</time></trkpt><trkpt lat="45.34016167417481" lon="9.269768191622392"><ele>90.0</ele><time>2026-04-11T08:51:41Z</time></trkpt><trkpt lat="45.34006802500548" lon="9.269791030823253"><ele>90.0</ele><time>2026-04-11T08:51:42Z</time></trkpt><trkpt lat="45.33996822765722" lon="9.269836129410217"><ele>90.0</ele><time>2026-04-11T08:51:43Z</time></trkpt><trkpt lat="45.339867293565625" lon="9.2698996896769"><ele>90.0</ele><time>2026-04-11T08:51:44Z</time></trkpt><trkpt lat="45.339768107845174" lon="9.269962771384666"><ele>90.0</ele><time>2026-04-11T08:51:45Z</time></trkpt><trkpt lat="45.3396706981339" lon="9.270023333435457"><ele>90.0</ele><time>2026-04-11T08:51:46Z</time></trkpt><trkpt lat="45.339569067831086" lon="9.270086984200624"><ele>90.2</ele><time>2026-04-11T08:51:47Z</time></trkpt><trkpt lat="45.33946525455272" lon="9.270153660574652"><ele>90.4</ele><time>2026-04-11T08:51:48Z</time></trkpt><trkpt lat="45.33936312296172" lon="9.270219963685015"><ele>90.6</ele><time>2026-04-11T08:51:49Z</time></trkpt><trkpt lat="45.339271071014" lon="9.270281725444312"><ele>90.8</ele><time>2026-04-11T08:51:50Z</time></trkpt><trkpt lat="45.33917832804924" lon="9.270344093576467"><ele>91.0</ele><time>2026-04-11T08:51:51Z</time></trkpt><trkpt lat="45.33908467390517" lon="9.270405395875267"><ele>91.0</ele><time>2026-04-11T08:51:52Z</time></trkpt><trkpt lat="45.33898543974261" lon="9.270466746243727"><ele>91.0</ele><time>2026-04-11T08:51:53Z</time></trkpt><trkpt lat="45.33889217032202" lon="9.270527859544792"><ele>91.0</ele><time>2026-04-11T08:51:54Z</time></trkpt><trkpt lat="45.33880801376804" lon="9.270584647211336"><ele>91.0</ele><time>2026-04-11T08:51:55Z</time></trkpt><trkpt lat="45.338729396498735" lon="9.270635446927145"><ele>91.0</ele><time>2026-04-11T08:51:56Z</time></trkpt><trkpt lat="45.33865742873179" lon="9.270683526239335"><ele>91.0</ele><time>2026-04-11T08:51:57Z</time></trkpt><trkpt lat="45.33859270816886" lon="9.270725464241753"><ele>91.0</ele><time>2026-04-11T08:51:58Z</time></trkpt><trkpt lat="45.33853440596797" lon="9.270764249430911"><ele>91.0</ele><time>2026-04-11T08:51:59Z</time></trkpt><trkpt lat="45.33847147990647" lon="9.270804501943175"><ele>91.0</ele><time>2026-04-11T08:52:00Z</time></trkpt><trkpt lat="45.338397936062684" lon="9.270857504073833"><ele>91.0</ele><time>2026-04-11T08:52:01Z</time></trkpt><trkpt lat="45.33830841975799" lon="9.27091837963222"><ele>91.0</ele><time>2026-04-11T08:52:02Z</time></trkpt><trkpt lat="45.338212495599215" lon="9.270981617163715"><ele>91.0</ele><time>2026-04-11T08:52:03Z</time></trkpt><trkpt lat="45.338110233604574" lon="9.271049785369541"><ele>91.0</ele><time>2026-04-11T08:52:04Z</time></trkpt><trkpt lat="45.3380101957692" lon="9.27111482574754"><ele>91.0</ele><time>2026-04-11T08:52:05Z</time></trkpt><trkpt lat="45.337903161629676" lon="9.271183512604349"><ele>91.0</ele><time>2026-04-11T08:52:06Z</time></trkpt><trkpt lat="45.33779612822008" lon="9.271253796186775"><ele>90.75</ele><time>2026-04-11T08:52:07Z</time></trkpt><trkpt lat="45.33768904825192" lon="9.271323461934164"><ele>90.5</ele><time>2026-04-11T08:52:08Z</time></trkpt><trkpt lat="45.337590437202216" lon="9.271388677532297"><ele>90.25</ele><time>2026-04-11T08:52:09Z</time></trkpt><trkpt lat="45.337487054265615" lon="9.27145746060322"><ele>90.0</ele><time>2026-04-11T08:52:10Z</time></trkpt><trkpt lat="45.33737769197687" lon="9.271528208199095"><ele>90.0</ele><time>2026-04-11T08:52:11Z</time></trkpt><trkpt lat="45.33726889372294" lon="9.271597558504364"><ele>90.0</ele><time>2026-04-11T08:52:12Z</time></trkpt><trkpt lat="45.337161956853606" lon="9.271666728949223"><ele>90.0</ele><time>2026-04-11T08:52:13Z</time></trkpt><trkpt lat="45.33705463928624" lon="9.27173540489747"><ele>90.0</ele><time>2026-04-11T08:52:14Z</time></trkpt><trkpt lat="45.33694715089671" lon="9.271802137334442"><ele>90.0</ele><time>2026-04-11T08:52:15Z</time></trkpt><trkpt lat="45.33684722274296" lon="9.271867010957779"><ele>90.0</ele><time>2026-04-11T08:52:16Z</time></trkpt><trkpt lat="45.33675629993639" lon="9.271927877016838"><ele>90.0</ele><time>2026-04-11T08:52:17Z</time></trkpt><trkpt lat="45.336668848008664" lon="9.27198193018328"><ele>90.0</ele><time>2026-04-11T08:52:18Z</time></trkpt><trkpt lat="45.33658452034595" lon="9.27203205695424"><ele>90.0</ele><time>2026-04-11T08:52:19Z</time></trkpt><trkpt lat="45.336498620968335" lon="9.272082780940648"><ele>90.0</ele><time>2026-04-11T08:52:20Z</time></trkpt><trkpt lat="45.33642114574922" lon="9.272130175549625"><ele>90.0</ele><time>2026-04-11T08:52:21Z</time></trkpt><trkpt lat="45.33635142039549" lon="9.272173103662594"><ele>90.0</ele><time>2026-04-11T08:52:22Z</time></trkpt><trkpt lat="45.336288345640945" lon="9.272212544845024"><ele>90.0</ele><time>2026-04-11T08:52:23Z</time></trkpt><trkpt lat="45.3362292830039" lon="9.272244537510748"><ele>90.0</ele><time>2026-04-11T08:52:24Z</time></trkpt><trkpt lat="45.33610052674731" lon="9.272244385954268"><ele>90.0</ele><time>2026-04-11T08:52:26Z</time></trkpt><trkpt lat="45.33599190350302" lon="9.272258141287034"><ele>89.5</ele><time>2026-04-11T08:52:28Z</time></trkpt><trkpt lat="45.33591014834618" lon="9.27238807123781"><ele>89.0</ele><time>2026-04-11T08:52:30Z</time></trkpt><trkpt lat="45.335836155534345" lon="9.272482621121856"><ele>88.5</ele><time>2026-04-11T08:52:31Z</time></trkpt><trkpt lat="45.335727528228084" lon="9.27255548327518"><ele>88.0</ele><time>2026-04-11T08:52:32Z</time></trkpt><trkpt lat="45.33560442820743" lon="9.272623846448111"><ele>88.25</ele><time>2026-04-11T08:52:33.001Z</time></trkpt><trkpt lat="45.3354932783709" lon="9.272693364499304"><ele>88.5</ele><time>2026-04-11T08:52:34.001Z</time></trkpt><trkpt lat="45.33539441427354" lon="9.272775850782837"><ele>88.75</ele><time>2026-04-11T08:52:35.001Z</time></trkpt><trkpt lat="45.335300312530535" lon="9.272877250584877"><ele>89.0</ele><time>2026-04-11T08:52:36.001Z</time></trkpt><trkpt lat="45.33521119700271" lon="9.272980669054038"><ele>89.0</ele><time>2026-04-11T08:52:37.001Z</time></trkpt><trkpt lat="45.33512346414315" lon="9.27306434605088"><ele>89.0</ele><time>2026-04-11T08:52:38.001Z</time></trkpt><trkpt lat="45.33503753222429" lon="9.273092926427378"><ele>89.0</ele><time>2026-04-11T08:52:39.001Z</time></trkpt><trkpt lat="45.33498201701236" lon="9.273135182854379"><ele>89.0</ele><time>2026-04-11T08:52:40.001Z</time></trkpt><trkpt lat="45.334916060331615" lon="9.273181646838182"><ele>89.0</ele><time>2026-04-11T08:52:41.001Z</time></trkpt><trkpt lat="45.33481828696706" lon="9.273250844375646"><ele>89.0</ele><time>2026-04-11T08:52:42.001Z</time></trkpt><trkpt lat="45.33466500560629" lon="9.273387075652845"><ele>89.0</ele><time>2026-04-11T08:52:43.001Z</time></trkpt><trkpt lat="45.33447770202082" lon="9.27351189121614"><ele>89.0</ele><time>2026-04-11T08:52:44.001Z</time></trkpt><trkpt lat="45.33429393461854" lon="9.273652050636274"><ele>89.0</ele><time>2026-04-11T08:52:45.001Z</time></trkpt><trkpt lat="45.33411472807069" lon="9.273803271582125"><ele>88.66666666666667</ele><time>2026-04-11T08:52:46.001Z</time></trkpt><trkpt lat="45.33394277628057" lon="9.273953157452038"><ele>88.33333333333333</ele><time>2026-04-11T08:52:47.001Z</time></trkpt><trkpt lat="45.333790378063796" lon="9.274089257764675"><ele>88.0</ele><time>2026-04-11T08:52:48.001Z</time></trkpt><trkpt lat="45.333648178369174" lon="9.2742152269085"><ele>88.66666666666666</ele><time>2026-04-11T08:52:49.001Z</time></trkpt><trkpt lat="45.33350698495465" lon="9.274338079369253"><ele>89.33333333333333</ele><time>2026-04-11T08:52:50.001Z</time></trkpt><trkpt lat="45.333364792998076" lon="9.274464161984103"><ele>90.0</ele><time>2026-04-11T08:52:51.001Z</time></trkpt><trkpt lat="45.33322315471714" lon="9.274603430688101"><ele>90.0</ele><time>2026-04-11T08:52:52.001Z</time></trkpt><trkpt lat="45.333091317273045" lon="9.274734222021493"><ele>90.0</ele><time>2026-04-11T08:52:53.001Z</time></trkpt><trkpt lat="45.33300556491198" lon="9.27481867687435"><ele>90.0</ele><time>2026-04-11T08:52:54.001Z</time></trkpt><trkpt lat="45.3329423103526" lon="9.274825318515067"><ele>90.0</ele><time>2026-04-11T08:52:59.001Z</time></trkpt><trkpt lat="45.33287574835301" lon="9.274667232037928"><ele>89.8</ele><time>2026-04-11T08:53:00.001Z</time></trkpt><trkpt lat="45.33281861091088" lon="9.274516950518908"><ele>89.6</ele><time>2026-04-11T08:53:02.001Z</time></trkpt><trkpt lat="45.33277774387094" lon="9.27440320463465"><ele>89.4</ele><time>2026-04-11T08:53:03.001Z</time></trkpt><trkpt lat="45.33273246470584" lon="9.274276600753787"><ele>89.2</ele><time>2026-04-11T08:53:04.001Z</time></trkpt><trkpt lat="45.33268327753682" lon="9.274131835718904"><ele>89.0</ele><time>2026-04-11T08:53:05.001Z</time></trkpt><trkpt lat="45.33262081696442" lon="9.273968889034368"><ele>88.5</ele><time>2026-04-11T08:53:06.001Z</time></trkpt><trkpt lat="45.33255231701334" lon="9.273791127731956"><ele>88.0</ele><time>2026-04-11T08:53:07.001Z</time></trkpt><trkpt lat="45.3324993335386" lon="9.273600857183125"><ele>87.5</ele><time>2026-04-11T08:53:08.001Z</time></trkpt><trkpt lat="45.33243144141029" lon="9.273418519083183"><ele>87.0</ele><time>2026-04-11T08:53:09.001Z</time></trkpt><trkpt lat="45.332349082493835" lon="9.273245995501151"><ele>87.0</ele><time>2026-04-11T08:53:10.001Z</time></trkpt><trkpt lat="45.332281304052906" lon="9.273063873250518"><ele>87.0</ele><time>2026-04-11T08:53:11.001Z</time></trkpt><trkpt lat="45.33223687351049" lon="9.272889781649322"><ele>87.0</ele><time>2026-04-11T08:53:12.001Z</time></trkpt><trkpt lat="45.33217796728453" lon="9.272715062764938"><ele>87.0</ele><time>2026-04-11T08:53:13.001Z</time></trkpt><trkpt lat="45.33211478476377" lon="9.272534400295598"><ele>87.0</ele><time>2026-04-11T08:53:14.001Z</time></trkpt><trkpt lat="45.332048498311956" lon="9.272347287019585"><ele>87.0</ele><time>2026-04-11T08:53:15.001Z</time></trkpt><trkpt lat="45.33198370572684" lon="9.27216628012427"><ele>87.0</ele><time>2026-04-11T08:53:16.001Z</time></trkpt><trkpt lat="45.331917564871645" lon="9.271987482040538"><ele>87.0</ele><time>2026-04-11T08:53:17.001Z</time></trkpt><trkpt lat="45.331852044562645" lon="9.271810556974936"><ele>87.0</ele><time>2026-04-11T08:53:18.001Z</time></trkpt><trkpt lat="45.33178666222017" lon="9.271633959704555"><ele>87.0</ele><time>2026-04-11T08:53:19.001Z</time></trkpt><trkpt lat="45.331721525200784" lon="9.271453976659242"><ele>87.0</ele><time>2026-04-11T08:53:20.001Z</time></trkpt><trkpt lat="45.331655261703325" lon="9.271270880150349"><ele>87.0</ele><time>2026-04-11T08:53:21Z</time></trkpt><trkpt lat="45.33158413180431" lon="9.271086950975018"><ele>87.0</ele><time>2026-04-11T08:53:22Z</time></trkpt><trkpt lat="45.33149887044869" lon="9.27091496853316"><ele>87.0</ele><time>2026-04-11T08:53:23Z</time></trkpt><trkpt lat="45.331431984263396" lon="9.270736759945523"><ele>87.0</ele><time>2026-04-11T08:53:24Z</time></trkpt><trkpt lat="45.33137962127828" lon="9.270541458300729"><ele>87.0</ele><time>2026-04-11T08:53:25Z</time></trkpt><trkpt lat="45.331317370437155" lon="9.27035141542134"><ele>87.25</ele><time>2026-04-11T08:53:26Z</time></trkpt><trkpt lat="45.3312532272902" lon="9.270165325970389"><ele>87.5</ele><time>2026-04-11T08:53:27Z</time></trkpt><trkpt lat="45.33118572003727" lon="9.2699765750232"><ele>87.75</ele><time>2026-04-11T08:53:28Z</time></trkpt><trkpt lat="45.331115054516104" lon="9.269797666447477"><ele>88.0</ele><time>2026-04-11T08:53:29Z</time></trkpt><trkpt lat="45.331041125533105" lon="9.269624252787386"><ele>88.5</ele><time>2026-04-11T08:53:30.001Z</time></trkpt><trkpt lat="45.33097935254963" lon="9.269464188821779"><ele>89.0</ele><time>2026-04-11T08:53:31.001Z</time></trkpt><trkpt lat="45.330911047623914" lon="9.269329790870877"><ele>89.5</ele><time>2026-04-11T08:53:32.001Z</time></trkpt><trkpt lat="45.330859136211" lon="9.269176840221885"><ele>90.0</ele><time>2026-04-11T08:53:33.001Z</time></trkpt><trkpt lat="45.3308066116207" lon="9.269026705912756"><ele>90.0</ele><time>2026-04-11T08:53:34Z</time></trkpt><trkpt lat="45.33071215149561" lon="9.268916501377541"><ele>90.0</ele><time>2026-04-11T08:53:35Z</time></trkpt><trkpt lat="45.33062103166475" lon="9.268796787035551"><ele>90.0</ele><time>2026-04-11T08:53:36Z</time></trkpt><trkpt lat="45.33051913186435" lon="9.26868115115286"><ele>90.0</ele><time>2026-04-11T08:53:37Z</time></trkpt><trkpt lat="45.330415002645694" lon="9.268544635839165"><ele>90.0</ele><time>2026-04-11T08:53:38Z</time></trkpt><trkpt lat="45.33030943268247" lon="9.268408522624672"><ele>90.0</ele><time>2026-04-11T08:53:39Z</time></trkpt><trkpt lat="45.33020673899509" lon="9.268251438141649"><ele>90.0</ele><time>2026-04-11T08:53:40Z</time></trkpt><trkpt lat="45.330087432921985" lon="9.268129814142913"><ele>90.0</ele><time>2026-04-11T08:53:41Z</time></trkpt><trkpt lat="45.329987062835464" lon="9.26800054435895"><ele>89.75</ele><time>2026-04-11T08:53:42Z</time></trkpt><trkpt lat="45.32989734265409" lon="9.267880321365244"><ele>89.5</ele><time>2026-04-11T08:53:43Z</time></trkpt><trkpt lat="45.329827937268625" lon="9.267753857203614"><ele>89.25</ele><time>2026-04-11T08:53:44Z</time></trkpt><trkpt lat="45.32974389993253" lon="9.26762790985033"><ele>89.0</ele><time>2026-04-11T08:53:45Z</time></trkpt><trkpt lat="45.329639745817786" lon="9.267496866999236"><ele>89.0</ele><time>2026-04-11T08:53:46Z</time></trkpt><trkpt lat="45.329530043099844" lon="9.267388872701785"><ele>89.0</ele><time>2026-04-11T08:53:47Z</time></trkpt><trkpt lat="45.329451466795696" lon="9.267278362770835"><ele>89.0</ele><time>2026-04-11T08:53:48Z</time></trkpt><trkpt lat="45.32936267754484" lon="9.267204285718773"><ele>89.0</ele><time>2026-04-11T08:53:49Z</time></trkpt><trkpt lat="45.329296160580576" lon="9.267122668564136"><ele>89.0</ele><time>2026-04-11T08:53:50Z</time></trkpt><trkpt lat="45.32925638723735" lon="9.26703764978837"><ele>89.0</ele><time>2026-04-11T08:53:51Z</time></trkpt><trkpt lat="45.329211832594936" lon="9.266968352550885"><ele>89.0</ele><time>2026-04-11T08:53:52Z</time></trkpt><trkpt lat="45.3291829619299" lon="9.266875027230455"><ele>89.0</ele><time>2026-04-11T08:53:53Z</time></trkpt><trkpt lat="45.32920316858576" lon="9.266755089655147"><ele>89.0</ele><time>2026-04-11T08:53:54Z</time></trkpt><trkpt lat="45.32920664201705" lon="9.266639981989913"><ele>89.0</ele><time>2026-04-11T08:53:55Z</time></trkpt><trkpt lat="45.32919751561237" lon="9.266499722183733"><ele>89.0</ele><time>2026-04-11T08:53:56Z</time></trkpt><trkpt lat="45.329216781316504" lon="9.266342398600319"><ele>89.0</ele><time>2026-04-11T08:53:57Z</time></trkpt><trkpt lat="45.32922446689497" lon="9.266168250363704"><ele>89.0</ele><time>2026-04-11T08:53:58Z</time></trkpt><trkpt lat="45.3292338432478" lon="9.265986486185419"><ele>89.0</ele><time>2026-04-11T08:53:59Z</time></trkpt><trkpt lat="45.32924362960759" lon="9.265796970400618"><ele>89.0</ele><time>2026-04-11T08:54:00Z</time></trkpt><trkpt lat="45.329252446611584" lon="9.265624595384025"><ele>88.80000000000001</ele><time>2026-04-11T08:54:01Z</time></trkpt><trkpt lat="45.32926060495177" lon="9.265464848468277"><ele>88.60000000000001</ele><time>2026-04-11T08:54:02Z</time></trkpt><trkpt lat="45.329250273529986" lon="9.265324802723763"><ele>88.4</ele><time>2026-04-11T08:54:03Z</time></trkpt><trkpt lat="45.329257327321486" lon="9.265195722184899"><ele>88.2</ele><time>2026-04-11T08:54:04Z</time></trkpt><trkpt lat="45.329237898461756" lon="9.26507639505626"><ele>88.0</ele><time>2026-04-11T08:54:05Z</time></trkpt><trkpt lat="45.32919863973953" lon="9.264965948978032"><ele>88.0</ele><time>2026-04-11T08:54:06Z</time></trkpt><trkpt lat="45.32914427920999" lon="9.26486425282174"><ele>88.0</ele><time>2026-04-11T08:54:07Z</time></trkpt><trkpt lat="45.32907316113678" lon="9.264760659831966"><ele>88.0</ele><time>2026-04-11T08:54:08Z</time></trkpt><trkpt lat="45.328991573045876" lon="9.26463352413718"><ele>88.0</ele><time>2026-04-11T08:54:09Z</time></trkpt><trkpt lat="45.32890256253989" lon="9.264492678622984"><ele>88.0</ele><time>2026-04-11T08:54:10Z</time></trkpt><trkpt lat="45.32881119053374" lon="9.264339728640246"><ele>88.25</ele><time>2026-04-11T08:54:11Z</time></trkpt><trkpt lat="45.32871859116661" lon="9.264191593688155"><ele>88.5</ele><time>2026-04-11T08:54:12Z</time></trkpt><trkpt lat="45.328625773210035" lon="9.264045176613504"><ele>88.75</ele><time>2026-04-11T08:54:13Z</time></trkpt><trkpt lat="45.32855962734538" lon="9.263899753579278"><ele>89.0</ele><time>2026-04-11T08:54:14Z</time></trkpt><trkpt lat="45.32849061102666" lon="9.263777722947998"><ele>89.16666666666667</ele><time>2026-04-11T08:54:15Z</time></trkpt><trkpt lat="45.32842702144558" lon="9.263663691823057"><ele>89.33333333333334</ele><time>2026-04-11T08:54:16Z</time></trkpt><trkpt lat="45.32835860057664" lon="9.263568922839182"><ele>89.5</ele><time>2026-04-11T08:54:17Z</time></trkpt><trkpt lat="45.32833454366769" lon="9.26344526039137"><ele>89.66666666666667</ele><time>2026-04-11T08:54:18Z</time></trkpt><trkpt lat="45.32831457826412" lon="9.263337416322107"><ele>89.83333333333333</ele><time>2026-04-11T08:54:19Z</time></trkpt><trkpt lat="45.32830670341931" lon="9.263235025170781"><ele>90.0</ele><time>2026-04-11T08:54:20Z</time></trkpt><trkpt lat="45.328314821905785" lon="9.263138896185774"><ele>89.8</ele><time>2026-04-11T08:54:21Z</time></trkpt><trkpt lat="45.32832180964929" lon="9.26301448030332"><ele>89.6</ele><time>2026-04-11T08:54:22Z</time></trkpt><trkpt lat="45.32832109566327" lon="9.26287803105698"><ele>89.4</ele><time>2026-04-11T08:54:23Z</time></trkpt><trkpt lat="45.328308656587204" lon="9.262736522178018"><ele>89.2</ele><time>2026-04-11T08:54:24Z</time></trkpt><trkpt lat="45.328262862762706" lon="9.262593560851629"><ele>89.0</ele><time>2026-04-11T08:54:25Z</time></trkpt><trkpt lat="45.328210079383666" lon="9.262454713995572"><ele>89.0</ele><time>2026-04-11T08:54:26Z</time></trkpt><trkpt lat="45.3281300528302" lon="9.262314241742994"><ele>89.0</ele><time>2026-04-11T08:54:27Z</time></trkpt><trkpt lat="45.32803888427831" lon="9.262175654022842"><ele>89.0</ele><time>2026-04-11T08:54:28Z</time></trkpt><trkpt lat="45.32793204918064" lon="9.262028868482558"><ele>89.0</ele><time>2026-04-11T08:54:29Z</time></trkpt><trkpt lat="45.32783146984591" lon="9.261852689785943"><ele>89.33333333333334</ele><time>2026-04-11T08:54:30Z</time></trkpt><trkpt lat="45.327720240226064" lon="9.261675833247752"><ele>89.66666666666667</ele><time>2026-04-11T08:54:31Z</time></trkpt><trkpt lat="45.32761001942047" lon="9.261496354595039"><ele>90.0</ele><time>2026-04-11T08:54:32Z</time></trkpt><trkpt lat="45.32749851543137" lon="9.261312661106768"><ele>90.33333333333333</ele><time>2026-04-11T08:54:33Z</time></trkpt><trkpt lat="45.32738424523713" lon="9.26112387329797"><ele>90.66666666666666</ele><time>2026-04-11T08:54:34Z</time></trkpt><trkpt lat="45.32727397201953" lon="9.260941767134238"><ele>91.0</ele><time>2026-04-11T08:54:35Z</time></trkpt><trkpt lat="45.32717544840356" lon="9.260780955405687"><ele>90.0</ele><time>2026-04-11T08:54:36Z</time></trkpt><trkpt lat="45.327072450048256" lon="9.26061283999579"><ele>89.0</ele><time>2026-04-11T08:54:37Z</time></trkpt><trkpt lat="45.32696509500126" lon="9.260429765985206"><ele>88.0</ele><time>2026-04-11T08:54:38Z</time></trkpt><trkpt lat="45.32686992715811" lon="9.26026607902054"><ele>88.0</ele><time>2026-04-11T08:54:39Z</time></trkpt><trkpt lat="45.32678385049112" lon="9.26012033535767"><ele>88.0</ele><time>2026-04-11T08:54:40Z</time></trkpt><trkpt lat="45.32669272852553" lon="9.259991751336297"><ele>88.0</ele><time>2026-04-11T08:54:41Z</time></trkpt><trkpt lat="45.32662573752108" lon="9.259862520751891"><ele>88.0</ele><time>2026-04-11T08:54:42Z</time></trkpt><trkpt lat="45.32656638611294" lon="9.2597707615257"><ele>88.2</ele><time>2026-04-11T08:54:43Z</time></trkpt><trkpt lat="45.32650561593937" lon="9.259680194762133"><ele>88.4</ele><time>2026-04-11T08:54:45Z</time></trkpt><trkpt lat="45.326363731946294" lon="9.259774705152234"><ele>88.60000000000001</ele><time>2026-04-11T08:54:48Z</time></trkpt><trkpt lat="45.32626779425954" lon="9.259851325812024"><ele>88.80000000000001</ele><time>2026-04-11T08:54:50Z</time></trkpt><trkpt lat="45.32621016281848" lon="9.25989178313156"><ele>89.0</ele><time>2026-04-11T08:54:51Z</time></trkpt><trkpt lat="45.3261511141773" lon="9.259944021338628"><ele>89.16666666666667</ele><time>2026-04-11T08:54:52Z</time></trkpt><trkpt lat="45.326089314695935" lon="9.260002666862874"><ele>89.33333333333334</ele><time>2026-04-11T08:54:53Z</time></trkpt><trkpt lat="45.32602567263806" lon="9.260070019722615"><ele>89.5</ele><time>2026-04-11T08:54:54Z</time></trkpt><trkpt lat="45.325953010378164" lon="9.260132064443011"><ele>89.66666666666667</ele><time>2026-04-11T08:54:55Z</time></trkpt><trkpt lat="45.325874019717716" lon="9.260198747026504"><ele>89.83333333333333</ele><time>2026-04-11T08:54:56Z</time></trkpt><trkpt lat="45.32579301694525" lon="9.260271164678185"><ele>90.0</ele><time>2026-04-11T08:54:57Z</time></trkpt><trkpt lat="45.32570262478558" lon="9.260345783430834"><ele>90.0</ele><time>2026-04-11T08:54:58Z</time></trkpt><trkpt lat="45.32560848528617" lon="9.260424868595468"><ele>90.0</ele><time>2026-04-11T08:54:59Z</time></trkpt><trkpt lat="45.325510499267544" lon="9.260505391002146"><ele>90.0</ele><time>2026-04-11T08:55:00Z</time></trkpt><trkpt lat="45.32541590447999" lon="9.260596765738628"><ele>90.0</ele><time>2026-04-11T08:55:01Z</time></trkpt><trkpt lat="45.32531717579508" lon="9.260684461662024"><ele>89.8</ele><time>2026-04-11T08:55:02Z</time></trkpt><trkpt lat="45.32521810042258" lon="9.260773869937687"><ele>89.6</ele><time>2026-04-11T08:55:03Z</time></trkpt><trkpt lat="45.3251259109398" lon="9.260857735405967"><ele>89.4</ele><time>2026-04-11T08:55:04Z</time></trkpt><trkpt lat="45.32504103101888" lon="9.260930050220878"><ele>89.2</ele><time>2026-04-11T08:55:05Z</time></trkpt><trkpt lat="45.32496648933301" lon="9.260998491656425"><ele>89.0</ele><time>2026-04-11T08:55:06Z</time></trkpt><trkpt lat="45.32490488794316" lon="9.261052607577701"><ele>89.0</ele><time>2026-04-11T08:55:07Z</time></trkpt><trkpt lat="45.32479151183051" lon="9.261097109544584"><ele>89.0</ele><time>2026-04-11T08:55:09Z</time></trkpt><trkpt lat="45.324691078844516" lon="9.26101924420701"><ele>89.0</ele><time>2026-04-11T08:55:11Z</time></trkpt><trkpt lat="45.324668186778275" lon="9.260905040525081"><ele>89.0</ele><time>2026-04-11T08:55:12Z</time></trkpt><trkpt lat="45.32461418389072" lon="9.26077422188913"><ele>89.0</ele><time>2026-04-11T08:55:13Z</time></trkpt><trkpt lat="45.32454028733606" lon="9.26063903902615"><ele>89.16666666666667</ele><time>2026-04-11T08:55:14Z</time></trkpt><trkpt lat="45.32449131240264" lon="9.260506573321333"><ele>89.33333333333334</ele><time>2026-04-11T08:55:15Z</time></trkpt><trkpt lat="45.32444725259699" lon="9.260396951904779"><ele>89.5</ele><time>2026-04-11T08:55:16Z</time></trkpt><trkpt lat="45.324406860525215" lon="9.260298362393671"><ele>89.66666666666667</ele><time>2026-04-11T08:55:17Z</time></trkpt><trkpt lat="45.324366431078566" lon="9.260199625531474"><ele>89.83333333333333</ele><time>2026-04-11T08:55:18Z</time></trkpt><trkpt lat="45.32432608689857" lon="9.260104476748028"><ele>90.0</ele><time>2026-04-11T08:55:19Z</time></trkpt><trkpt lat="45.32429099279638" lon="9.26001946597467"><ele>90.0</ele><time>2026-04-11T08:55:20Z</time></trkpt><trkpt lat="45.32420479324193" lon="9.259903246808623"><ele>90.0</ele><time>2026-04-11T08:55:22Z</time></trkpt><trkpt lat="45.324143377758766" lon="9.259851086910745"><ele>90.0</ele><time>2026-04-11T08:55:23Z</time></trkpt><trkpt lat="45.324076169412805" lon="9.259794309456954"><ele>90.0</ele><time>2026-04-11T08:55:24Z</time></trkpt><trkpt lat="45.32401246674988" lon="9.25971560677761"><ele>90.0</ele><time>2026-04-11T08:55:25Z</time></trkpt><trkpt lat="45.32397465856675" lon="9.259606858762655"><ele>90.0</ele><time>2026-04-11T08:55:26Z</time></trkpt><trkpt lat="45.32392382915047" lon="9.259496198657791"><ele>90.5</ele><time>2026-04-11T08:55:27Z</time></trkpt><trkpt lat="45.323851147722614" lon="9.259376247436386"><ele>91.0</ele><time>2026-04-11T08:55:28Z</time></trkpt><trkpt lat="45.32377056563364" lon="9.259220877243056"><ele>91.5</ele><time>2026-04-11T08:55:29Z</time></trkpt><trkpt lat="45.32367074093831" lon="9.25904692512279"><ele>92.0</ele><time>2026-04-11T08:55:30Z</time></trkpt><trkpt lat="45.32357774027588" lon="9.25889630741844"><ele>92.0</ele><time>2026-04-11T08:55:31Z</time></trkpt><trkpt lat="45.32351696541317" lon="9.258804342088874"><ele>92.0</ele><time>2026-04-11T08:55:32Z</time></trkpt><trkpt lat="45.32347253161638" lon="9.258724215502761"><ele>92.0</ele><time>2026-04-11T08:55:33Z</time></trkpt><trkpt lat="45.32341624609697" lon="9.258661100142234"><ele>92.0</ele><time>2026-04-11T08:55:34Z</time></trkpt><trkpt lat="45.32336870512109" lon="9.258593778159005"><ele>92.0</ele><time>2026-04-11T08:55:35Z</time></trkpt><trkpt lat="45.32329892872579" lon="9.258467918450517"><ele>92.0</ele><time>2026-04-11T08:55:37Z</time></trkpt><trkpt lat="45.323258025740415" lon="9.258389794386845"><ele>92.0</ele><time>2026-04-11T08:55:38Z</time></trkpt><trkpt lat="45.32321437882705" lon="9.258268336183223"><ele>92.0</ele><time>2026-04-11T08:55:39Z</time></trkpt><trkpt lat="45.3231769861149" lon="9.258137472276655"><ele>92.0</ele><time>2026-04-11T08:55:40Z</time></trkpt><trkpt lat="45.323129445813606" lon="9.258020884505184"><ele>92.0</ele><time>2026-04-11T08:55:41Z</time></trkpt><trkpt lat="45.32310138392577" lon="9.25790669603748"><ele>92.0</ele><time>2026-04-11T08:55:42Z</time></trkpt><trkpt lat="45.323075930607004" lon="9.25781257299571"><ele>92.0</ele><time>2026-04-11T08:55:43Z</time></trkpt><trkpt lat="45.32305542767062" lon="9.257708109586469"><ele>91.42857142857143</ele><time>2026-04-11T08:55:44Z</time></trkpt><trkpt lat="45.32302620402746" lon="9.257603820051784"><ele>90.85714285714285</ele><time>2026-04-11T08:55:45Z</time></trkpt><trkpt lat="45.32299737707667" lon="9.25749800965429"><ele>90.28571428571428</ele><time>2026-04-11T08:55:46Z</time></trkpt><trkpt lat="45.32296695419009" lon="9.257394767957363"><ele>89.71428571428572</ele><time>2026-04-11T08:55:47Z</time></trkpt><trkpt lat="45.3229380077585" lon="9.257297050343896"><ele>89.14285714285714</ele><time>2026-04-11T08:55:48Z</time></trkpt><trkpt lat="45.3229043880183" lon="9.257207891092726"><ele>88.57142857142857</ele><time>2026-04-11T08:55:49Z</time></trkpt><trkpt lat="45.32286816040579" lon="9.257133465078375"><ele>88.0</ele><time>2026-04-11T08:55:50Z</time></trkpt><trkpt lat="45.322826315870735" lon="9.257014483616189"><ele>88.0</ele><time>2026-04-11T08:55:52Z</time></trkpt><trkpt lat="45.3228037185919" lon="9.256925747359313"><ele>88.0</ele><time>2026-04-11T08:59:29Z</time></trkpt><trkpt lat="45.322743357175284" lon="9.25687776038289"><ele>88.0</ele><time>2026-04-11T09:01:51.999Z</time></trkpt><trkpt lat="45.32271429896367" lon="9.25678913029074"><ele>88.0</ele><time>2026-04-11T09:01:53.999Z</time></trkpt><trkpt lat="45.32267566992909" lon="9.256645442095463"><ele>88.0</ele><time>2026-04-11T09:01:55.999Z</time></trkpt><trkpt lat="45.32261472736893" lon="9.256499447717934"><ele>88.0</ele><time>2026-04-11T09:01:57.999Z</time></trkpt><trkpt lat="45.32256148364246" lon="9.256372840703047"><ele>88.0</ele><time>2026-04-11T09:01:59.999Z</time></trkpt><trkpt lat="45.32252621999475" lon="9.256237871788931"><ele>88.0</ele><time>2026-04-11T09:02:02Z</time></trkpt><trkpt lat="45.322468134006456" lon="9.256093717349021"><ele>88.0</ele><time>2026-04-11T09:02:04Z</time></trkpt><trkpt lat="45.32242063605169" lon="9.255973195075851"><ele>88.0</ele><time>2026-04-11T09:02:06Z</time></trkpt><trkpt lat="45.32237929589014" lon="9.255867325477166"><ele>88.0</ele><time>2026-04-11T09:02:08Z</time></trkpt><trkpt lat="45.32234005701727" lon="9.255746893265902"><ele>88.0</ele><time>2026-04-11T09:02:10Z</time></trkpt><trkpt lat="45.32231369369184" lon="9.255605837127124"><ele>88.0</ele><time>2026-04-11T09:02:12Z</time></trkpt><trkpt lat="45.3222972736541" lon="9.255455487187538"><ele>88.0</ele><time>2026-04-11T09:02:14Z</time></trkpt><trkpt lat="45.322286817145" lon="9.255320799013687"><ele>88.0</ele><time>2026-04-11T09:02:16Z</time></trkpt><trkpt lat="45.322271908181655" lon="9.25519621889557"><ele>88.0</ele><time>2026-04-11T09:02:18Z</time></trkpt><trkpt lat="45.32225268219752" lon="9.255103012282422"><ele>88.5</ele><time>2026-04-11T09:02:20Z</time></trkpt><trkpt lat="45.32206426400544" lon="9.255185888918998"><ele>89.0</ele><time>2026-04-11T09:02:26.999Z</time></trkpt><trkpt lat="45.32198574421568" lon="9.255257487295506"><ele>89.5</ele><time>2026-04-11T09:02:29.999Z</time></trkpt><trkpt lat="45.321902292926005" lon="9.25532320989461"><ele>90.0</ele><time>2026-04-11T09:02:31.999Z</time></trkpt><trkpt lat="45.32179854237816" lon="9.255408393095651"><ele>90.0</ele><time>2026-04-11T09:02:33.999Z</time></trkpt><trkpt lat="45.321686838165064" lon="9.255495155203267"><ele>90.0</ele><time>2026-04-11T09:02:35.999Z</time></trkpt><trkpt lat="45.32162686573531" lon="9.255543223654785"><ele>90.0</ele><time>2026-04-11T09:02:36.999Z</time></trkpt><trkpt lat="45.3215627278559" lon="9.255593598002143"><ele>90.0</ele><time>2026-04-11T09:02:37.999Z</time></trkpt><trkpt lat="45.32149849368059" lon="9.255645356059095"><ele>90.0</ele><time>2026-04-11T09:02:38.999Z</time></trkpt><trkpt lat="45.321433017325774" lon="9.255698669043312"><ele>90.0</ele><time>2026-04-11T09:02:39.999Z</time></trkpt><trkpt lat="45.32136567340997" lon="9.255754015978084"><ele>89.71428571428571</ele><time>2026-04-11T09:02:40.999Z</time></trkpt><trkpt lat="45.321298485448146" lon="9.255805961860391"><ele>89.42857142857143</ele><time>2026-04-11T09:02:41.999Z</time></trkpt><trkpt lat="45.32123438060654" lon="9.25585566780495"><ele>89.14285714285714</ele><time>2026-04-11T09:02:42.999Z</time></trkpt><trkpt lat="45.32116708650371" lon="9.255912801363415"><ele>88.85714285714286</ele><time>2026-04-11T09:02:43.999Z</time></trkpt><trkpt lat="45.32109943288829" lon="9.25596811551355"><ele>88.57142857142857</ele><time>2026-04-11T09:02:44.999Z</time></trkpt><trkpt lat="45.321034133102266" lon="9.256014395152057"><ele>88.28571428571429</ele><time>2026-04-11T09:02:45.999Z</time></trkpt><trkpt lat="45.32097544503908" lon="9.256063581966634"><ele>88.0</ele><time>2026-04-11T09:02:46.999Z</time></trkpt><trkpt lat="45.32091616254802" lon="9.256107714205452"><ele>88.0</ele><time>2026-04-11T09:02:47.999Z</time></trkpt><trkpt lat="45.320807226491894" lon="9.256204537655009"><ele>88.0</ele><time>2026-04-11T09:02:49.999Z</time></trkpt><trkpt lat="45.32074615652116" lon="9.256256623569717"><ele>88.0</ele><time>2026-04-11T09:02:50.999Z</time></trkpt><trkpt lat="45.32068487183511" lon="9.256306025315373"><ele>88.0</ele><time>2026-04-11T09:02:51.999Z</time></trkpt><trkpt lat="45.32061454602424" lon="9.256361234571015"><ele>88.0</ele><time>2026-04-11T09:02:52.999Z</time></trkpt><trkpt lat="45.320548094186115" lon="9.25640974935925"><ele>88.0</ele><time>2026-04-11T09:02:53.999Z</time></trkpt><trkpt lat="45.32047908169502" lon="9.25646288804965"><ele>88.16666666666666</ele><time>2026-04-11T09:02:54.999Z</time></trkpt><trkpt lat="45.320410554232176" lon="9.256521329226493"><ele>88.33333333333333</ele><time>2026-04-11T09:02:55.999Z</time></trkpt><trkpt lat="45.320347440769744" lon="9.256569945720612"><ele>88.5</ele><time>2026-04-11T09:02:56.999Z</time></trkpt><trkpt lat="45.32028507902587" lon="9.256617792683592"><ele>88.66666666666667</ele><time>2026-04-11T09:02:57.999Z</time></trkpt><trkpt lat="45.32022239340277" lon="9.25668096840279"><ele>88.83333333333334</ele><time>2026-04-11T09:02:58.999Z</time></trkpt><trkpt lat="45.32016030167151" lon="9.256746130311122"><ele>89.0</ele><time>2026-04-11T09:02:59.999Z</time></trkpt><trkpt lat="45.32008264610606" lon="9.256807306313135"><ele>89.0</ele><time>2026-04-11T09:03:00.999Z</time></trkpt><trkpt lat="45.319995172766106" lon="9.256870263046821"><ele>89.0</ele><time>2026-04-11T09:03:01.999Z</time></trkpt><trkpt lat="45.319903599507114" lon="9.256942919692463"><ele>89.0</ele><time>2026-04-11T09:03:02.999Z</time></trkpt><trkpt lat="45.319809430718074" lon="9.25702005285997"><ele>89.0</ele><time>2026-04-11T09:03:03.999Z</time></trkpt><trkpt lat="45.3197048180529" lon="9.257104809402078"><ele>89.0</ele><time>2026-04-11T09:03:04.999Z</time></trkpt><trkpt lat="45.31959656767537" lon="9.25719490144129"><ele>89.0</ele><time>2026-04-11T09:03:06Z</time></trkpt><trkpt lat="45.31948744400978" lon="9.257282903242883"><ele>89.0</ele><time>2026-04-11T09:03:07Z</time></trkpt><trkpt lat="45.3193836338873" lon="9.257364566491336"><ele>89.0</ele><time>2026-04-11T09:03:08Z</time></trkpt><trkpt lat="45.31929258416384" lon="9.257433522885016"><ele>89.0</ele><time>2026-04-11T09:03:09Z</time></trkpt><trkpt lat="45.3191361345165" lon="9.257554826980588"><ele>88.85714285714285</ele><time>2026-04-11T09:03:11Z</time></trkpt><trkpt lat="45.319070909185925" lon="9.257610075471748"><ele>88.71428571428571</ele><time>2026-04-11T09:03:12Z</time></trkpt><trkpt lat="45.31900868381173" lon="9.257662148324522"><ele>88.57142857142857</ele><time>2026-04-11T09:03:13Z</time></trkpt><trkpt lat="45.31894353692862" lon="9.25771586253513"><ele>88.42857142857142</ele><time>2026-04-11T09:03:14Z</time></trkpt><trkpt lat="45.3188778365496" lon="9.257771144826755"><ele>88.28571428571428</ele><time>2026-04-11T09:03:15Z</time></trkpt><trkpt lat="45.31881165396197" lon="9.257825000936597"><ele>88.14285714285714</ele><time>2026-04-11T09:03:16Z</time></trkpt><trkpt lat="45.318751151744536" lon="9.257874619542031"><ele>88.0</ele><time>2026-04-11T09:03:17Z</time></trkpt><trkpt lat="45.31868982637218" lon="9.257925829268249"><ele>88.0</ele><time>2026-04-11T09:03:18Z</time></trkpt><trkpt lat="45.31862891379272" lon="9.257977027014368"><ele>88.0</ele><time>2026-04-11T09:03:19Z</time></trkpt><trkpt lat="45.31856545675557" lon="9.258030015743772"><ele>88.0</ele><time>2026-04-11T09:03:20Z</time></trkpt><trkpt lat="45.318502265942506" lon="9.258082277276054"><ele>88.0</ele><time>2026-04-11T09:03:21Z</time></trkpt><trkpt lat="45.318438262599194" lon="9.258136027474738"><ele>88.0</ele><time>2026-04-11T09:03:22Z</time></trkpt><trkpt lat="45.31837434234642" lon="9.25818664188354"><ele>88.0</ele><time>2026-04-11T09:03:23Z</time></trkpt><trkpt lat="45.31831470749591" lon="9.258233781106165"><ele>88.0</ele><time>2026-04-11T09:03:24Z</time></trkpt><trkpt lat="45.31825166293658" lon="9.258284650434922"><ele>88.0</ele><time>2026-04-11T09:03:25Z</time></trkpt><trkpt lat="45.31818591195545" lon="9.258337030865555"><ele>88.0</ele><time>2026-04-11T09:03:26Z</time></trkpt><trkpt lat="45.31812389155277" lon="9.258385390425024"><ele>88.0</ele><time>2026-04-11T09:03:27Z</time></trkpt><trkpt lat="45.31806631629389" lon="9.25843304863834"><ele>88.0</ele><time>2026-04-11T09:03:28Z</time></trkpt><trkpt lat="45.318004853920804" lon="9.258484839707666"><ele>88.0</ele><time>2026-04-11T09:03:29Z</time></trkpt><trkpt lat="45.31793998179648" lon="9.25853450378605"><ele>88.0</ele><time>2026-04-11T09:03:30Z</time></trkpt><trkpt lat="45.31788068172459" lon="9.25858342295374"><ele>88.0</ele><time>2026-04-11T09:03:31Z</time></trkpt><trkpt lat="45.317797239178304" lon="9.25865341178097"><ele>87.83333333333333</ele><time>2026-04-11T09:03:33Z</time></trkpt><trkpt lat="45.31770128793563" lon="9.258731248911642"><ele>87.66666666666666</ele><time>2026-04-11T09:03:35Z</time></trkpt><trkpt lat="45.31764325557209" lon="9.258779435423778"><ele>87.5</ele><time>2026-04-11T09:03:36Z</time></trkpt><trkpt lat="45.31758063039066" lon="9.258832023630047"><ele>87.33333333333333</ele><time>2026-04-11T09:03:37Z</time></trkpt><trkpt lat="45.317515000478345" lon="9.25889152310775"><ele>87.16666666666667</ele><time>2026-04-11T09:03:38Z</time></trkpt><trkpt lat="45.31744157089989" lon="9.258952478340266"><ele>87.0</ele><time>2026-04-11T09:03:39Z</time></trkpt><trkpt lat="45.31736861016099" lon="9.259011396123459"><ele>87.0</ele><time>2026-04-11T09:03:40Z</time></trkpt><trkpt lat="45.3172984142889" lon="9.259070513863032"><ele>87.0</ele><time>2026-04-11T09:03:41Z</time></trkpt><trkpt lat="45.31722419154536" lon="9.25913330065836"><ele>87.0</ele><time>2026-04-11T09:03:42Z</time></trkpt><trkpt lat="45.317148677288706" lon="9.259193811139822"><ele>87.0</ele><time>2026-04-11T09:03:43Z</time></trkpt><trkpt lat="45.31707207629883" lon="9.259255506507504"><ele>87.0</ele><time>2026-04-11T09:03:44Z</time></trkpt><trkpt lat="45.31699567261456" lon="9.259319735345022"><ele>87.0</ele><time>2026-04-11T09:03:45Z</time></trkpt><trkpt lat="45.3169169482984" lon="9.259386008417845"><ele>87.0</ele><time>2026-04-11T09:03:46Z</time></trkpt><trkpt lat="45.31684001109866" lon="9.259449101602204"><ele>87.0</ele><time>2026-04-11T09:03:47Z</time></trkpt><trkpt lat="45.31676390600943" lon="9.259511110580675"><ele>87.0</ele><time>2026-04-11T09:03:48Z</time></trkpt><trkpt lat="45.31669286343942" lon="9.259570080412427"><ele>87.0</ele><time>2026-04-11T09:03:49Z</time></trkpt><trkpt lat="45.31662438432518" lon="9.259625858488988"><ele>87.0</ele><time>2026-04-11T09:03:50Z</time></trkpt><trkpt lat="45.31656237185594" lon="9.25967722527005"><ele>87.0</ele><time>2026-04-11T09:03:50.999Z</time></trkpt><trkpt lat="45.3165019997955" lon="9.259726503250226"><ele>87.6</ele><time>2026-04-11T09:03:51.999Z</time></trkpt><trkpt lat="45.31640239829305" lon="9.25980276536633"><ele>88.19999999999999</ele><time>2026-04-11T09:03:53.999Z</time></trkpt><trkpt lat="45.316325760277685" lon="9.259858884983847"><ele>88.8</ele><time>2026-04-11T09:03:55.999Z</time></trkpt><trkpt lat="45.31627271858903" lon="9.25991634467705"><ele>89.4</ele><time>2026-04-11T09:03:57.999Z</time></trkpt><trkpt lat="45.316233273528375" lon="9.25998667134243"><ele>90.0</ele><time>2026-04-11T09:04:00.999Z</time></trkpt><trkpt lat="45.31636716729185" lon="9.260333646662692"><ele>89.6</ele><time>2026-04-11T09:04:03.999Z</time></trkpt><trkpt lat="45.31640736069117" lon="9.260442008966878"><ele>89.2</ele><time>2026-04-11T09:04:04.999Z</time></trkpt><trkpt lat="45.31645301926967" lon="9.260562404660703"><ele>88.80000000000001</ele><time>2026-04-11T09:04:05.999Z</time></trkpt><trkpt lat="45.31650066772016" lon="9.260689328292612"><ele>88.4</ele><time>2026-04-11T09:04:06.999Z</time></trkpt><trkpt lat="45.31654714960316" lon="9.260823432540992"><ele>88.0</ele><time>2026-04-11T09:04:07.999Z</time></trkpt><trkpt lat="45.316599058000556" lon="9.260973597420305"><ele>88.0</ele><time>2026-04-11T09:04:08.999Z</time></trkpt><trkpt lat="45.31665499324516" lon="9.261132169123417"><ele>88.0</ele><time>2026-04-11T09:04:09.999Z</time></trkpt><trkpt lat="45.31671424900552" lon="9.26129704628769"><ele>88.0</ele><time>2026-04-11T09:04:10.999Z</time></trkpt><trkpt lat="45.31677682181204" lon="9.261462679044264"><ele>88.0</ele><time>2026-04-11T09:04:11.999Z</time></trkpt><trkpt lat="45.31683980784932" lon="9.261632684464903"><ele>88.25</ele><time>2026-04-11T09:04:12.999Z</time></trkpt><trkpt lat="45.31689633464367" lon="9.261803420304302"><ele>88.5</ele><time>2026-04-11T09:04:13.999Z</time></trkpt><trkpt lat="45.316950312034166" lon="9.261971445497695"><ele>88.75</ele><time>2026-04-11T09:04:14.999Z</time></trkpt><trkpt lat="45.31700521631537" lon="9.26212965155501"><ele>89.0</ele><time>2026-04-11T09:04:15.999Z</time></trkpt><trkpt lat="45.317061813917114" lon="9.26228412011514"><ele>89.2</ele><time>2026-04-11T09:04:16.999Z</time></trkpt><trkpt lat="45.31711529111991" lon="9.262431918066593"><ele>89.4</ele><time>2026-04-11T09:04:17.999Z</time></trkpt><trkpt lat="45.31716403023395" lon="9.262572069783124"><ele>89.6</ele><time>2026-04-11T09:04:18.999Z</time></trkpt><trkpt lat="45.317213173288934" lon="9.262697848641444"><ele>89.8</ele><time>2026-04-11T09:04:19.999Z</time></trkpt><trkpt lat="45.31725309816803" lon="9.262819387257846"><ele>90.0</ele><time>2026-04-11T09:04:20.999Z</time></trkpt><trkpt lat="45.31729050661815" lon="9.262928867132066"><ele>89.83333333333333</ele><time>2026-04-11T09:04:21.999Z</time></trkpt><trkpt lat="45.317323205054265" lon="9.263027957854435"><ele>89.66666666666667</ele><time>2026-04-11T09:04:22.999Z</time></trkpt><trkpt lat="45.31733719923184" lon="9.26311822322115"><ele>89.5</ele><time>2026-04-11T09:04:23.999Z</time></trkpt><trkpt lat="45.31726210039764" lon="9.263250110350514"><ele>89.33333333333334</ele><time>2026-04-11T09:04:26Z</time></trkpt><trkpt lat="45.31719126984092" lon="9.263303612657083"><ele>89.16666666666667</ele><time>2026-04-11T09:04:27Z</time></trkpt><trkpt lat="45.31711446079892" lon="9.263376015098443"><ele>89.0</ele><time>2026-04-11T09:04:28Z</time></trkpt><trkpt lat="45.31703099730392" lon="9.263457178169983"><ele>89.0</ele><time>2026-04-11T09:04:29Z</time></trkpt><trkpt lat="45.31694096219991" lon="9.263545418863094"><ele>89.0</ele><time>2026-04-11T09:04:30Z</time></trkpt><trkpt lat="45.316847650635054" lon="9.26363356076591"><ele>89.0</ele><time>2026-04-11T09:04:31Z</time></trkpt><trkpt lat="45.3167521974106" lon="9.263723161324073"><ele>89.0</ele><time>2026-04-11T09:04:32Z</time></trkpt><trkpt lat="45.31664659175486" lon="9.263823141315969"><ele>89.0</ele><time>2026-04-11T09:04:33Z</time></trkpt><trkpt lat="45.31653876450328" lon="9.263930047609362"><ele>89.0</ele><time>2026-04-11T09:04:34Z</time></trkpt><trkpt lat="45.31643661005945" lon="9.264032537970076"><ele>89.0</ele><time>2026-04-11T09:04:35Z</time></trkpt><trkpt lat="45.31633515648507" lon="9.264131662523356"><ele>89.0</ele><time>2026-04-11T09:04:36Z</time></trkpt><trkpt lat="45.31623088008632" lon="9.264230664935262"><ele>89.0</ele><time>2026-04-11T09:04:37Z</time></trkpt><trkpt lat="45.31612872181175" lon="9.264327876813349"><ele>89.0</ele><time>2026-04-11T09:04:38Z</time></trkpt><trkpt lat="45.31603267917219" lon="9.264420318555171"><ele>89.0</ele><time>2026-04-11T09:04:39Z</time></trkpt><trkpt lat="45.31594470794974" lon="9.2645091118739"><ele>89.0</ele><time>2026-04-11T09:04:40Z</time></trkpt><trkpt lat="45.31586158190674" lon="9.264589408807717"><ele>89.0</ele><time>2026-04-11T09:04:41Z</time></trkpt><trkpt lat="45.31578687559221" lon="9.264668967977215"><ele>89.0</ele><time>2026-04-11T09:04:42Z</time></trkpt><trkpt lat="45.315713857237135" lon="9.264746716373615"><ele>89.0</ele><time>2026-04-11T09:04:43Z</time></trkpt><trkpt lat="45.31562991290529" lon="9.264813757592842"><ele>89.0</ele><time>2026-04-11T09:04:44Z</time></trkpt><trkpt lat="45.31554816185827" lon="9.264894459593341"><ele>89.0</ele><time>2026-04-11T09:04:45Z</time></trkpt><trkpt lat="45.31546468038535" lon="9.26497391793826"><ele>89.0</ele><time>2026-04-11T09:04:46Z</time></trkpt><trkpt lat="45.31538045756478" lon="9.265054522348926"><ele>89.0</ele><time>2026-04-11T09:04:47Z</time></trkpt><trkpt lat="45.31529592370467" lon="9.26513748128772"><ele>89.0</ele><time>2026-04-11T09:04:48Z</time></trkpt><trkpt lat="45.3152102877088" lon="9.265220985147566"><ele>89.0</ele><time>2026-04-11T09:04:49Z</time></trkpt><trkpt lat="45.31512685968879" lon="9.265304672971617"><ele>89.0</ele><time>2026-04-11T09:04:50Z</time></trkpt><trkpt lat="45.31504483534966" lon="9.265388793346265"><ele>89.0</ele><time>2026-04-11T09:04:51Z</time></trkpt><trkpt lat="45.31496092280414" lon="9.265469144756958"><ele>89.0</ele><time>2026-04-11T09:04:52Z</time></trkpt><trkpt lat="45.31487480193582" lon="9.26554985595382"><ele>89.0</ele><time>2026-04-11T09:04:53Z</time></trkpt><trkpt lat="45.31478304500743" lon="9.265638655772134"><ele>89.0</ele><time>2026-04-11T09:04:54Z</time></trkpt><trkpt lat="45.31468842602888" lon="9.265728890531797"><ele>89.0</ele><time>2026-04-11T09:04:55Z</time></trkpt><trkpt lat="45.31458647647289" lon="9.265824786390727"><ele>88.75</ele><time>2026-04-11T09:04:56Z</time></trkpt><trkpt lat="45.314481598042654" lon="9.265927844547406"><ele>88.5</ele><time>2026-04-11T09:04:57Z</time></trkpt><trkpt lat="45.31437436025168" lon="9.266032570199577"><ele>88.25</ele><time>2026-04-11T09:04:58Z</time></trkpt><trkpt lat="45.314269170480515" lon="9.266133900122057"><ele>88.0</ele><time>2026-04-11T09:04:59Z</time></trkpt><trkpt lat="45.31417237537049" lon="9.266226622658804"><ele>88.0</ele><time>2026-04-11T09:05:00Z</time></trkpt><trkpt lat="45.31408276767388" lon="9.266312549637496"><ele>88.0</ele><time>2026-04-11T09:05:01Z</time></trkpt><trkpt lat="45.31400053036709" lon="9.266396155982516"><ele>88.0</ele><time>2026-04-11T09:05:02Z</time></trkpt><trkpt lat="45.3139241355992" lon="9.266475026484466"><ele>88.0</ele><time>2026-04-11T09:05:03Z</time></trkpt><trkpt lat="45.313852540614526" lon="9.266547411881207"><ele>88.0</ele><time>2026-04-11T09:05:04Z</time></trkpt><trkpt lat="45.31378102270382" lon="9.266614495052066"><ele>88.2</ele><time>2026-04-11T09:05:05Z</time></trkpt><trkpt lat="45.31371007086" lon="9.266676364721219"><ele>88.4</ele><time>2026-04-11T09:05:06Z</time></trkpt><trkpt lat="45.3136483356601" lon="9.266727591516526"><ele>88.60000000000001</ele><time>2026-04-11T09:05:07Z</time></trkpt><trkpt lat="45.31353887561176" lon="9.266840795175954"><ele>88.80000000000001</ele><time>2026-04-11T09:05:09Z</time></trkpt><trkpt lat="45.31346817202103" lon="9.266915715890917"><ele>89.0</ele><time>2026-04-11T09:05:10Z</time></trkpt><trkpt lat="45.313392296528576" lon="9.266958687546046"><ele>89.0</ele><time>2026-04-11T09:05:11Z</time></trkpt><trkpt lat="45.313280360452694" lon="9.266858076812039"><ele>89.0</ele><time>2026-04-11T09:05:13Z</time></trkpt><trkpt lat="45.31320894218929" lon="9.266794702174861"><ele>89.0</ele><time>2026-04-11T09:05:14Z</time></trkpt><trkpt lat="45.31315057473559" lon="9.266698633206614"><ele>89.0</ele><time>2026-04-11T09:05:15Z</time></trkpt><trkpt lat="45.313088698474836" lon="9.266602204027896"><ele>89.0</ele><time>2026-04-11T09:05:16Z</time></trkpt><trkpt lat="45.313026787699705" lon="9.266532687305862"><ele>88.4</ele><time>2026-04-11T09:05:17Z</time></trkpt><trkpt lat="45.3129495232413" lon="9.266517380886082"><ele>87.80000000000001</ele><time>2026-04-11T09:05:18Z</time></trkpt><trkpt lat="45.312866455066086" lon="9.266564209880498"><ele>87.19999999999999</ele><time>2026-04-11T09:05:19Z</time></trkpt><trkpt lat="45.312776067255356" lon="9.266636082015633"><ele>86.6</ele><time>2026-04-11T09:05:20Z</time></trkpt><trkpt lat="45.312678114261594" lon="9.266708120040793"><ele>86.0</ele><time>2026-04-11T09:05:21Z</time></trkpt><trkpt lat="45.312571236153296" lon="9.26678061167025"><ele>86.0</ele><time>2026-04-11T09:05:22Z</time></trkpt><trkpt lat="45.31246465211549" lon="9.266852346795442"><ele>86.0</ele><time>2026-04-11T09:05:23Z</time></trkpt><trkpt lat="45.31234833104264" lon="9.266934197466327"><ele>86.0</ele><time>2026-04-11T09:05:24Z</time></trkpt><trkpt lat="45.31222284271215" lon="9.267027189108408"><ele>86.0</ele><time>2026-04-11T09:05:25Z</time></trkpt><trkpt lat="45.31210615426176" lon="9.267111974681077"><ele>86.5</ele><time>2026-04-11T09:05:26Z</time></trkpt><trkpt lat="45.31198700131533" lon="9.267188011678703"><ele>87.0</ele><time>2026-04-11T09:05:27Z</time></trkpt><trkpt lat="45.31186066834881" lon="9.26726897298573"><ele>87.5</ele><time>2026-04-11T09:05:28Z</time></trkpt><trkpt lat="45.311732873158135" lon="9.267362764811317"><ele>88.0</ele><time>2026-04-11T09:05:29Z</time></trkpt><trkpt lat="45.31159786784255" lon="9.267460267062585"><ele>88.0</ele><time>2026-04-11T09:05:30Z</time></trkpt><trkpt lat="45.311458751222894" lon="9.26755711490505"><ele>88.0</ele><time>2026-04-11T09:05:31Z</time></trkpt><trkpt lat="45.31131863550633" lon="9.267657016385195"><ele>88.0</ele><time>2026-04-11T09:05:32Z</time></trkpt><trkpt lat="45.311176526471975" lon="9.267757186211293"><ele>87.66666666666666</ele><time>2026-04-11T09:05:33Z</time></trkpt><trkpt lat="45.31103340378559" lon="9.267857361660473"><ele>87.33333333333333</ele><time>2026-04-11T09:05:34Z</time></trkpt><trkpt lat="45.31089177210002" lon="9.26795333441865"><ele>87.0</ele><time>2026-04-11T09:05:35Z</time></trkpt><trkpt lat="45.31075040861796" lon="9.268045891832092"><ele>86.66666666666667</ele><time>2026-04-11T09:05:36Z</time></trkpt><trkpt lat="45.31060884356777" lon="9.26813951078741"><ele>86.33333333333334</ele><time>2026-04-11T09:05:37Z</time></trkpt><trkpt lat="45.3104677791481" lon="9.268217767689476"><ele>86.0</ele><time>2026-04-11T09:05:38Z</time></trkpt><trkpt lat="45.31032812261716" lon="9.26828563788848"><ele>86.0</ele><time>2026-04-11T09:05:39Z</time></trkpt><trkpt lat="45.31019096475187" lon="9.268354125761071"><ele>86.0</ele><time>2026-04-11T09:05:40Z</time></trkpt><trkpt lat="45.310053967307" lon="9.268407959277562"><ele>86.0</ele><time>2026-04-11T09:05:41Z</time></trkpt><trkpt lat="45.309930102842166" lon="9.268449339725553"><ele>86.0</ele><time>2026-04-11T09:05:42Z</time></trkpt><trkpt lat="45.30982797019936" lon="9.268473063273447"><ele>86.0</ele><time>2026-04-11T09:05:43Z</time></trkpt><trkpt lat="45.30972963954763" lon="9.268492463403058"><ele>86.0</ele><time>2026-04-11T09:05:44.001Z</time></trkpt><trkpt lat="45.309627571516295" lon="9.268503865993281"><ele>86.0</ele><time>2026-04-11T09:05:45.001Z</time></trkpt><trkpt lat="45.3095237228401" lon="9.268500772633333"><ele>86.0</ele><time>2026-04-11T09:05:46.001Z</time></trkpt><trkpt lat="45.309427574299605" lon="9.268476664901494"><ele>86.0</ele><time>2026-04-11T09:05:47.001Z</time></trkpt><trkpt lat="45.30932717056346" lon="9.268439355223162"><ele>86.0</ele><time>2026-04-11T09:05:48.001Z</time></trkpt><trkpt lat="45.30921384740156" lon="9.268381932080633"><ele>86.0</ele><time>2026-04-11T09:05:49.001Z</time></trkpt><trkpt lat="45.30908065468608" lon="9.268317430647809"><ele>86.0</ele><time>2026-04-11T09:05:50.001Z</time></trkpt><trkpt lat="45.308947291901305" lon="9.268274318796436"><ele>86.0</ele><time>2026-04-11T09:05:51.001Z</time></trkpt><trkpt lat="45.30881708827862" lon="9.268247912353875"><ele>86.0</ele><time>2026-04-11T09:05:52.001Z</time></trkpt><trkpt lat="45.30869510198362" lon="9.268223139282291"><ele>86.0</ele><time>2026-04-11T09:05:53.001Z</time></trkpt><trkpt lat="45.30856989744665" lon="9.268224803858756"><ele>86.0</ele><time>2026-04-11T09:05:54.001Z</time></trkpt><trkpt lat="45.3084392833691" lon="9.268241226558791"><ele>86.0</ele><time>2026-04-11T09:05:55.001Z</time></trkpt><trkpt lat="45.3083044321474" lon="9.268274263776693"><ele>86.0</ele><time>2026-04-11T09:05:56Z</time></trkpt><trkpt lat="45.308181642727156" lon="9.268317239836753"><ele>86.0</ele><time>2026-04-11T09:05:57Z</time></trkpt><trkpt lat="45.30807833266511" lon="9.268362686175157"><ele>86.0</ele><time>2026-04-11T09:05:58Z</time></trkpt><trkpt lat="45.30800050632613" lon="9.268396456403135"><ele>86.0</ele><time>2026-04-11T09:05:59Z</time></trkpt><trkpt lat="45.30793664869237" lon="9.268406167758625"><ele>86.0</ele><time>2026-04-11T09:06:00Z</time></trkpt><trkpt lat="45.30782602635168" lon="9.268382249790895"><ele>86.0</ele><time>2026-04-11T09:06:04Z</time></trkpt><trkpt lat="45.30770876673974" lon="9.268281173362698"><ele>86.0</ele><time>2026-04-11T09:06:06Z</time></trkpt><trkpt lat="45.307625766005096" lon="9.268241534855331"><ele>86.0</ele><time>2026-04-11T09:06:07Z</time></trkpt><trkpt lat="45.30754431532208" lon="9.268206086304515"><ele>86.0</ele><time>2026-04-11T09:06:08Z</time></trkpt><trkpt lat="45.30746471612168" lon="9.268145333092106"><ele>86.0</ele><time>2026-04-11T09:06:09Z</time></trkpt><trkpt lat="45.30738571169046" lon="9.268099434617232"><ele>86.0</ele><time>2026-04-11T09:06:10Z</time></trkpt><trkpt lat="45.30732540272864" lon="9.267974695306235"><ele>86.0</ele><time>2026-04-11T09:06:11Z</time></trkpt><trkpt lat="45.30725750672173" lon="9.267868392316222"><ele>86.0</ele><time>2026-04-11T09:06:12Z</time></trkpt><trkpt lat="45.30718701731766" lon="9.267753979784402"><ele>86.0</ele><time>2026-04-11T09:06:13Z</time></trkpt><trkpt lat="45.307119082222634" lon="9.267639775581658"><ele>86.0</ele><time>2026-04-11T09:06:14Z</time></trkpt><trkpt lat="45.30704982587529" lon="9.267516739664092"><ele>86.0</ele><time>2026-04-11T09:06:15Z</time></trkpt><trkpt lat="45.30697793374631" lon="9.26739278712421"><ele>86.0</ele><time>2026-04-11T09:06:16Z</time></trkpt><trkpt lat="45.30690609929189" lon="9.267267831145542"><ele>86.0</ele><time>2026-04-11T09:06:17Z</time></trkpt><trkpt lat="45.30682746099914" lon="9.267130502148081"><ele>86.0</ele><time>2026-04-11T09:06:18Z</time></trkpt><trkpt lat="45.30674937599073" lon="9.26699919428916"><ele>86.25</ele><time>2026-04-11T09:06:19Z</time></trkpt><trkpt lat="45.306672106101445" lon="9.266871508957815"><ele>86.5</ele><time>2026-04-11T09:06:20Z</time></trkpt><trkpt lat="45.30658177372089" lon="9.266728987680601"><ele>86.75</ele><time>2026-04-11T09:06:21Z</time></trkpt><trkpt lat="45.30646332966499" lon="9.266516240114745"><ele>87.0</ele><time>2026-04-11T09:06:22Z</time></trkpt><trkpt lat="45.30631953490039" lon="9.266272135162712"><ele>86.33333333333333</ele><time>2026-04-11T09:06:23Z</time></trkpt><trkpt lat="45.30616557561392" lon="9.266041819891903"><ele>85.66666666666666</ele><time>2026-04-11T09:06:24Z</time></trkpt><trkpt lat="45.30603504064488" lon="9.265815633149094"><ele>85.0</ele><time>2026-04-11T09:06:25Z</time></trkpt><trkpt lat="45.30591105601169" lon="9.265600488353035"><ele>85.0</ele><time>2026-04-11T09:06:26Z</time></trkpt><trkpt lat="45.30578920760219" lon="9.265390599652584"><ele>85.0</ele><time>2026-04-11T09:06:27Z</time></trkpt><trkpt lat="45.30570325988051" lon="9.265236492507405"><ele>85.0</ele><time>2026-04-11T09:06:29Z</time></trkpt><trkpt lat="45.30564684596321" lon="9.265141457066019"><ele>85.0</ele><time>2026-04-11T09:06:30Z</time></trkpt><trkpt lat="45.305590853893726" lon="9.265052392762689"><ele>84.83333333333333</ele><time>2026-04-11T09:06:31Z</time></trkpt><trkpt lat="45.30553963461991" lon="9.264968191854559"><ele>84.66666666666666</ele><time>2026-04-11T09:06:32Z</time></trkpt><trkpt lat="45.3054933243248" lon="9.264894560421196"><ele>84.5</ele><time>2026-04-11T09:06:33Z</time></trkpt><trkpt lat="45.30544773784403" lon="9.264808986490653"><ele>84.33333333333333</ele><time>2026-04-11T09:06:34Z</time></trkpt><trkpt lat="45.30539259601117" lon="9.264715393643893"><ele>84.16666666666667</ele><time>2026-04-11T09:06:35Z</time></trkpt><trkpt lat="45.30533287360934" lon="9.264610093512477"><ele>84.0</ele><time>2026-04-11T09:06:36Z</time></trkpt><trkpt lat="45.30526440576477" lon="9.264495144224991"><ele>84.0</ele><time>2026-04-11T09:06:37Z</time></trkpt><trkpt lat="45.30518147194451" lon="9.264354625378756"><ele>84.0</ele><time>2026-04-11T09:06:38Z</time></trkpt><trkpt lat="45.3050838096091" lon="9.264194285876602"><ele>84.0</ele><time>2026-04-11T09:06:39Z</time></trkpt><trkpt lat="45.30498104249247" lon="9.264016981805076"><ele>84.0</ele><time>2026-04-11T09:06:40Z</time></trkpt><trkpt lat="45.3048739132999" lon="9.263828345103828"><ele>83.33333333333333</ele><time>2026-04-11T09:06:41Z</time></trkpt><trkpt lat="45.30476817132407" lon="9.263637480525363"><ele>82.66666666666666</ele><time>2026-04-11T09:06:41.999Z</time></trkpt><trkpt lat="45.304659096911784" lon="9.263458559440659"><ele>82.0</ele><time>2026-04-11T09:06:43Z</time></trkpt><trkpt lat="45.30455457013779" lon="9.263276000144035"><ele>81.33333333333333</ele><time>2026-04-11T09:06:44Z</time></trkpt><trkpt lat="45.3044489064169" lon="9.2630928193899"><ele>80.66666666666667</ele><time>2026-04-11T09:06:45Z</time></trkpt><trkpt lat="45.30434206146605" lon="9.262911137447086"><ele>80.0</ele><time>2026-04-11T09:06:46Z</time></trkpt><trkpt lat="45.304230024751064" lon="9.26272789517878"><ele>80.0</ele><time>2026-04-11T09:06:47Z</time></trkpt><trkpt lat="45.304123292260456" lon="9.262546407239256"><ele>80.0</ele><time>2026-04-11T09:06:48Z</time></trkpt><trkpt lat="45.30401127878774" lon="9.262363124774401"><ele>80.0</ele><time>2026-04-11T09:06:49Z</time></trkpt><trkpt lat="45.303899315320926" lon="9.262173010584371"><ele>81.33333333333334</ele><time>2026-04-11T09:06:50Z</time></trkpt><trkpt lat="45.30379013451998" lon="9.261982829773599"><ele>82.66666666666667</ele><time>2026-04-11T09:06:51Z</time></trkpt><trkpt lat="45.303677167974705" lon="9.261788826253108"><ele>84.0</ele><time>2026-04-11T09:06:52Z</time></trkpt><trkpt lat="45.30356232404555" lon="9.261594451355096"><ele>84.33333333333333</ele><time>2026-04-11T09:06:53Z</time></trkpt><trkpt lat="45.303447578557765" lon="9.261404752612265"><ele>84.66666666666666</ele><time>2026-04-11T09:06:54Z</time></trkpt><trkpt lat="45.30333993540332" lon="9.26122341833841"><ele>85.0</ele><time>2026-04-11T09:06:55Z</time></trkpt><trkpt lat="45.30323203775027" lon="9.261041899765015"><ele>85.0</ele><time>2026-04-11T09:06:56Z</time></trkpt><trkpt lat="45.30312599925587" lon="9.26086163201114"><ele>85.0</ele><time>2026-04-11T09:06:57Z</time></trkpt><trkpt lat="45.30301919709322" lon="9.260680850714886"><ele>85.0</ele><time>2026-04-11T09:06:58Z</time></trkpt><trkpt lat="45.302915516835526" lon="9.260499077630213"><ele>85.0</ele><time>2026-04-11T09:06:59Z</time></trkpt><trkpt lat="45.30280716273958" lon="9.260315804843087"><ele>85.0</ele><time>2026-04-11T09:07:00Z</time></trkpt><trkpt lat="45.30269821438456" lon="9.260132533492525"><ele>85.0</ele><time>2026-04-11T09:07:01Z</time></trkpt><trkpt lat="45.30258771616266" lon="9.259950120839493"><ele>85.33333333333333</ele><time>2026-04-11T09:07:02Z</time></trkpt><trkpt lat="45.30247782210917" lon="9.259762933175317"><ele>85.66666666666667</ele><time>2026-04-11T09:07:03Z</time></trkpt><trkpt lat="45.3023707723768" lon="9.259579304828613"><ele>86.0</ele><time>2026-04-11T09:07:04Z</time></trkpt><trkpt lat="45.30226263559027" lon="9.259391447475153"><ele>85.33333333333334</ele><time>2026-04-11T09:07:05Z</time></trkpt><trkpt lat="45.30215671026475" lon="9.259213895367877"><ele>84.66666666666667</ele><time>2026-04-11T09:07:06Z</time></trkpt><trkpt lat="45.30205437822939" lon="9.259039728612949"><ele>84.0</ele><time>2026-04-11T09:07:07Z</time></trkpt><trkpt lat="45.3019618612633" lon="9.258879648529398"><ele>84.0</ele><time>2026-04-11T09:07:08Z</time></trkpt><trkpt lat="45.3018768071245" lon="9.258734656958852"><ele>84.0</ele><time>2026-04-11T09:07:09Z</time></trkpt><trkpt lat="45.301800108759856" lon="9.258603069390505"><ele>84.0</ele><time>2026-04-11T09:07:10Z</time></trkpt><trkpt lat="45.30173999616209" lon="9.258502199614949"><ele>84.0</ele><time>2026-04-11T09:07:11Z</time></trkpt><trkpt lat="45.3016945334067" lon="9.258421269569427"><ele>84.0</ele><time>2026-04-11T09:07:12Z</time></trkpt><trkpt lat="45.301671443214346" lon="9.258315851823797"><ele>84.0</ele><time>2026-04-11T09:07:14Z</time></trkpt><trkpt lat="45.30171169886844" lon="9.258531443356043"><ele>84.0</ele><time>2026-04-11T09:07:53Z</time></trkpt><trkpt lat="45.301791180192645" lon="9.258664962003545"><ele>84.0</ele><time>2026-04-11T09:07:54Z</time></trkpt><trkpt lat="45.30187777096636" lon="9.258811607175486"><ele>84.0</ele><time>2026-04-11T09:07:55Z</time></trkpt><trkpt lat="45.30198569522609" lon="9.258990953033528"><ele>83.66666666666667</ele><time>2026-04-11T09:07:56Z</time></trkpt><trkpt lat="45.30209678882836" lon="9.25918041694959"><ele>83.33333333333334</ele><time>2026-04-11T09:07:57Z</time></trkpt><trkpt lat="45.302217603060484" lon="9.259391696968608"><ele>83.0</ele><time>2026-04-11T09:07:58Z</time></trkpt><trkpt lat="45.30234402821298" lon="9.25960906339113"><ele>83.66666666666667</ele><time>2026-04-11T09:07:59Z</time></trkpt><trkpt lat="45.30247610944587" lon="9.259831357030373"><ele>84.33333333333333</ele><time>2026-04-11T09:08:00Z</time></trkpt><trkpt lat="45.30260898272732" lon="9.26005469358422"><ele>85.0</ele><time>2026-04-11T09:08:01Z</time></trkpt><trkpt lat="45.30273555587311" lon="9.260274775365374"><ele>85.0</ele><time>2026-04-11T09:08:02Z</time></trkpt><trkpt lat="45.30286333066752" lon="9.260493516153852"><ele>85.0</ele><time>2026-04-11T09:08:03Z</time></trkpt><trkpt lat="45.30299139637068" lon="9.260708067594862"><ele>85.0</ele><time>2026-04-11T09:08:04Z</time></trkpt><trkpt lat="45.30311636948163" lon="9.260917881525087"><ele>85.0</ele><time>2026-04-11T09:08:05Z</time></trkpt><trkpt lat="45.30324056427712" lon="9.261124636377117"><ele>85.0</ele><time>2026-04-11T09:08:06Z</time></trkpt><trkpt lat="45.30336345080477" lon="9.261326425242155"><ele>85.0</ele><time>2026-04-11T09:08:07Z</time></trkpt><trkpt lat="45.30348055174372" lon="9.261521213718472"><ele>84.66666666666666</ele><time>2026-04-11T09:08:08Z</time></trkpt><trkpt lat="45.30358626131463" lon="9.26170148778037"><ele>84.33333333333333</ele><time>2026-04-11T09:08:09Z</time></trkpt><trkpt lat="45.30368450889752" lon="9.261869902950435"><ele>84.0</ele><time>2026-04-11T09:08:10Z</time></trkpt><trkpt lat="45.303773832743765" lon="9.262022334794915"><ele>84.0</ele><time>2026-04-11T09:08:11Z</time></trkpt><trkpt lat="45.30384790429526" lon="9.262146284346596"><ele>84.0</ele><time>2026-04-11T09:08:12Z</time></trkpt><trkpt lat="45.30391592459266" lon="9.262260539801298"><ele>84.0</ele><time>2026-04-11T09:08:13Z</time></trkpt><trkpt lat="45.30398506427747" lon="9.262373612895955"><ele>84.0</ele><time>2026-04-11T09:08:14Z</time></trkpt><trkpt lat="45.30405756952088" lon="9.262491362345152"><ele>84.0</ele><time>2026-04-11T09:08:15Z</time></trkpt><trkpt lat="45.30413386655145" lon="9.26262207998035"><ele>83.5</ele><time>2026-04-11T09:08:16Z</time></trkpt><trkpt lat="45.30421362983274" lon="9.262766937970177"><ele>83.0</ele><time>2026-04-11T09:08:17Z</time></trkpt><trkpt lat="45.30429823632143" lon="9.262913266216943"><ele>82.5</ele><time>2026-04-11T09:08:18Z</time></trkpt><trkpt lat="45.30437955310542" lon="9.263051706522376"><ele>82.0</ele><time>2026-04-11T09:08:19Z</time></trkpt><trkpt lat="45.304457602094125" lon="9.263182660774081"><ele>82.0</ele><time>2026-04-11T09:08:20Z</time></trkpt><trkpt lat="45.30453384105947" lon="9.263312838367877"><ele>82.0</ele><time>2026-04-11T09:08:21Z</time></trkpt><trkpt lat="45.304615375605806" lon="9.263455909193716"><ele>82.0</ele><time>2026-04-11T09:08:22Z</time></trkpt><trkpt lat="45.304694830677924" lon="9.263595487021947"><ele>82.0</ele><time>2026-04-11T09:08:23Z</time></trkpt><trkpt lat="45.30476840689089" lon="9.26372644794786"><ele>82.0</ele><time>2026-04-11T09:08:24Z</time></trkpt><trkpt lat="45.3048391951718" lon="9.263850579613083"><ele>82.0</ele><time>2026-04-11T09:08:25Z</time></trkpt><trkpt lat="45.30490458587804" lon="9.26396614773643"><ele>82.0</ele><time>2026-04-11T09:08:26Z</time></trkpt><trkpt lat="45.304972856403616" lon="9.264084368516023"><ele>82.0</ele><time>2026-04-11T09:08:27Z</time></trkpt><trkpt lat="45.30504179968327" lon="9.26421339710634"><ele>82.0</ele><time>2026-04-11T09:08:28Z</time></trkpt><trkpt lat="45.30511743959869" lon="9.264350729266395"><ele>82.0</ele><time>2026-04-11T09:08:29Z</time></trkpt><trkpt lat="45.30519279001391" lon="9.264488655222012"><ele>82.0</ele><time>2026-04-11T09:08:30Z</time></trkpt><trkpt lat="45.30525491430504" lon="9.264629259740827"><ele>82.0</ele><time>2026-04-11T09:08:31Z</time></trkpt><trkpt lat="45.30532417989417" lon="9.264742975273329"><ele>82.0</ele><time>2026-04-11T09:08:32Z</time></trkpt><trkpt lat="45.30529823664848" lon="9.264930453853461"><ele>82.0</ele><time>2026-04-11T09:08:33Z</time></trkpt><trkpt lat="45.30528565766925" lon="9.265074897159467"><ele>82.0</ele><time>2026-04-11T09:08:34Z</time></trkpt><trkpt lat="45.30526249591323" lon="9.26520660421907"><ele>82.0</ele><time>2026-04-11T09:08:35Z</time></trkpt><trkpt lat="45.3052594212105" lon="9.265331667682364"><ele>82.0</ele><time>2026-04-11T09:08:36Z</time></trkpt><trkpt lat="45.30511798649016" lon="9.265503582255697"><ele>82.0</ele><time>2026-04-11T09:08:38Z</time></trkpt><trkpt lat="45.305051402203915" lon="9.265566296816097"><ele>82.0</ele><time>2026-04-11T09:08:39Z</time></trkpt><trkpt lat="45.30497796566046" lon="9.265617169531293"><ele>82.0</ele><time>2026-04-11T09:08:40Z</time></trkpt><trkpt lat="45.304898718511346" lon="9.265661220623652"><ele>82.0</ele><time>2026-04-11T09:08:41Z</time></trkpt><trkpt lat="45.3048125919607" lon="9.265699736350953"><ele>82.0</ele><time>2026-04-11T09:08:42Z</time></trkpt><trkpt lat="45.304721837319335" lon="9.265741175495753"><ele>82.0</ele><time>2026-04-11T09:08:43Z</time></trkpt><trkpt lat="45.30462845960862" lon="9.265787251550746"><ele>82.75</ele><time>2026-04-11T09:08:44Z</time></trkpt><trkpt lat="45.30452701215845" lon="9.265836294854916"><ele>83.5</ele><time>2026-04-11T09:08:45Z</time></trkpt><trkpt lat="45.30442157268674" lon="9.265887698929152"><ele>84.25</ele><time>2026-04-11T09:08:46Z</time></trkpt><trkpt lat="45.30431058662915" lon="9.265942788202452"><ele>85.0</ele><time>2026-04-11T09:08:47Z</time></trkpt><trkpt lat="45.30419372070704" lon="9.265998937680044"><ele>85.0</ele><time>2026-04-11T09:08:48Z</time></trkpt><trkpt lat="45.304069119281564" lon="9.266056479364668"><ele>85.0</ele><time>2026-04-11T09:08:49Z</time></trkpt><trkpt lat="45.30394276222044" lon="9.266117293149625"><ele>85.0</ele><time>2026-04-11T09:08:50Z</time></trkpt><trkpt lat="45.303822075993686" lon="9.266165626700024"><ele>85.0</ele><time>2026-04-11T09:08:51Z</time></trkpt><trkpt lat="45.303713532392244" lon="9.26620339381928"><ele>84.75</ele><time>2026-04-11T09:08:52Z</time></trkpt><trkpt lat="45.30360978698358" lon="9.266246512415071"><ele>84.5</ele><time>2026-04-11T09:08:53Z</time></trkpt><trkpt lat="45.30349625381474" lon="9.26629209195582"><ele>84.25</ele><time>2026-04-11T09:08:54Z</time></trkpt><trkpt lat="45.30336543852319" lon="9.266332735099526"><ele>84.0</ele><time>2026-04-11T09:08:55Z</time></trkpt><trkpt lat="45.30323009704202" lon="9.266377955821003"><ele>84.0</ele><time>2026-04-11T09:08:56Z</time></trkpt><trkpt lat="45.303094139016515" lon="9.266419355642087"><ele>84.0</ele><time>2026-04-11T09:08:57Z</time></trkpt><trkpt lat="45.30296305895782" lon="9.266462804351987"><ele>84.0</ele><time>2026-04-11T09:08:58Z</time></trkpt><trkpt lat="45.302836676006244" lon="9.266516863062245"><ele>84.0</ele><time>2026-04-11T09:08:59Z</time></trkpt><trkpt lat="45.30270703809752" lon="9.266575193691631"><ele>84.0</ele><time>2026-04-11T09:09:00Z</time></trkpt><trkpt lat="45.30258329397392" lon="9.266638559338034"><ele>84.0</ele><time>2026-04-11T09:09:01Z</time></trkpt><trkpt lat="45.30245894092515" lon="9.26669481665675"><ele>84.0</ele><time>2026-04-11T09:09:02Z</time></trkpt><trkpt lat="45.302328517618726" lon="9.266763011489756"><ele>84.0</ele><time>2026-04-11T09:09:03Z</time></trkpt><trkpt lat="45.3021832372538" lon="9.266839890507686"><ele>84.0</ele><time>2026-04-11T09:09:04Z</time></trkpt><trkpt lat="45.30203013153288" lon="9.266916140380685"><ele>84.0</ele><time>2026-04-11T09:09:05Z</time></trkpt><trkpt lat="45.30187226707131" lon="9.266994172847955"><ele>84.0</ele><time>2026-04-11T09:09:06.001Z</time></trkpt><trkpt lat="45.30170760398801" lon="9.267050949590809"><ele>84.0</ele><time>2026-04-11T09:09:07.001Z</time></trkpt><trkpt lat="45.301540428775084" lon="9.26711271069964"><ele>84.0</ele><time>2026-04-11T09:09:08.001Z</time></trkpt><trkpt lat="45.30137321232487" lon="9.267173538265288"><ele>84.0</ele><time>2026-04-11T09:09:09.001Z</time></trkpt><trkpt lat="45.301203991299694" lon="9.267232835828215"><ele>84.33333333333333</ele><time>2026-04-11T09:09:10.001Z</time></trkpt><trkpt lat="45.30103275115738" lon="9.26728780321094"><ele>84.66666666666666</ele><time>2026-04-11T09:09:11.001Z</time></trkpt><trkpt lat="45.30085954151136" lon="9.26734323092876"><ele>85.0</ele><time>2026-04-11T09:09:12.001Z</time></trkpt><trkpt lat="45.30068877589856" lon="9.267395887653963"><ele>84.33333333333333</ele><time>2026-04-11T09:09:13.001Z</time></trkpt><trkpt lat="45.30052155482795" lon="9.267446401480711"><ele>83.66666666666667</ele><time>2026-04-11T09:09:14.001Z</time></trkpt><trkpt lat="45.300357405570125" lon="9.267494108648075"><ele>83.0</ele><time>2026-04-11T09:09:15.001Z</time></trkpt><trkpt lat="45.30019677212064" lon="9.267544975297273"><ele>83.0</ele><time>2026-04-11T09:09:16.001Z</time></trkpt><trkpt lat="45.30003867499089" lon="9.26760067760717"><ele>83.0</ele><time>2026-04-11T09:09:17.001Z</time></trkpt><trkpt lat="45.299882261323624" lon="9.267662626782304"><ele>83.0</ele><time>2026-04-11T09:09:18.001Z</time></trkpt><trkpt lat="45.2997207641291" lon="9.267717690615639"><ele>83.33333333333334</ele><time>2026-04-11T09:09:19.001Z</time></trkpt><trkpt lat="45.29955430308712" lon="9.267755956615568"><ele>83.66666666666667</ele><time>2026-04-11T09:09:20.001Z</time></trkpt><trkpt lat="45.29938516768236" lon="9.267792247735294"><ele>84.0</ele><time>2026-04-11T09:09:21.001Z</time></trkpt><trkpt lat="45.29921559481236" lon="9.267832630251714"><ele>84.0</ele><time>2026-04-11T09:09:22.001Z</time></trkpt><trkpt lat="45.29904178088823" lon="9.267869505417519"><ele>84.0</ele><time>2026-04-11T09:09:23.001Z</time></trkpt><trkpt lat="45.298869531802495" lon="9.267910886424815"><ele>84.0</ele><time>2026-04-11T09:09:24.001Z</time></trkpt><trkpt lat="45.29869800655195" lon="9.26795153447164"><ele>84.0</ele><time>2026-04-11T09:09:25.001Z</time></trkpt><trkpt lat="45.29852367039387" lon="9.267992612105742"><ele>84.0</ele><time>2026-04-11T09:09:26.001Z</time></trkpt><trkpt lat="45.29835112897106" lon="9.268033242066533"><ele>84.0</ele><time>2026-04-11T09:09:27.001Z</time></trkpt><trkpt lat="45.29817772336086" lon="9.268078280688531"><ele>84.0</ele><time>2026-04-11T09:09:28.001Z</time></trkpt><trkpt lat="45.29800581103662" lon="9.268118185938786"><ele>84.0</ele><time>2026-04-11T09:09:29.001Z</time></trkpt><trkpt lat="45.29782904879579" lon="9.26816316333238"><ele>84.0</ele><time>2026-04-11T09:09:30.001Z</time></trkpt><trkpt lat="45.297659370346906" lon="9.268202133580546"><ele>84.0</ele><time>2026-04-11T09:09:31.001Z</time></trkpt><trkpt lat="45.297482670751506" lon="9.268241640169473"><ele>84.0</ele><time>2026-04-11T09:09:32.001Z</time></trkpt><trkpt lat="45.29730731709551" lon="9.26827726284492"><ele>84.0</ele><time>2026-04-11T09:09:33.001Z</time></trkpt><trkpt lat="45.297126585405564" lon="9.268317852680989"><ele>84.0</ele><time>2026-04-11T09:09:34.001Z</time></trkpt><trkpt lat="45.29695088972851" lon="9.268359616046004"><ele>84.0</ele><time>2026-04-11T09:09:35.001Z</time></trkpt><trkpt lat="45.29677601494339" lon="9.268399845231563"><ele>84.0</ele><time>2026-04-11T09:09:36.001Z</time></trkpt><trkpt lat="45.29662018158885" lon="9.268432074839659"><ele>84.0</ele><time>2026-04-11T09:09:37.001Z</time></trkpt><trkpt lat="45.29647392780901" lon="9.268462561181407"><ele>84.0</ele><time>2026-04-11T09:09:38.001Z</time></trkpt><trkpt lat="45.29632182604916" lon="9.268485335274184"><ele>84.0</ele><time>2026-04-11T09:09:39.001Z</time></trkpt><trkpt lat="45.29617183596313" lon="9.268508235704108"><ele>84.0</ele><time>2026-04-11T09:09:40.001Z</time></trkpt><trkpt lat="45.29603961019663" lon="9.268524215159353"><ele>84.0</ele><time>2026-04-11T09:09:41.001Z</time></trkpt><trkpt lat="45.29591445277914" lon="9.268541360079068"><ele>84.0</ele><time>2026-04-11T09:09:42.001Z</time></trkpt><trkpt lat="45.295799053806554" lon="9.268557871773366"><ele>84.0</ele><time>2026-04-11T09:09:43.001Z</time></trkpt><trkpt lat="45.29569050090902" lon="9.26857141064408"><ele>84.0</ele><time>2026-04-11T09:09:44.001Z</time></trkpt><trkpt lat="45.295588122402904" lon="9.268585133920082"><ele>84.0</ele><time>2026-04-11T09:09:45.001Z</time></trkpt><trkpt lat="45.295495366718264" lon="9.268602054047019"><ele>84.0</ele><time>2026-04-11T09:09:46.001Z</time></trkpt><trkpt lat="45.29539697301139" lon="9.268620306710895"><ele>84.0</ele><time>2026-04-11T09:09:47.001Z</time></trkpt><trkpt lat="45.295302019776386" lon="9.268634172001844"><ele>84.0</ele><time>2026-04-11T09:09:48.001Z</time></trkpt><trkpt lat="45.295214274833306" lon="9.268645392897024"><ele>84.0</ele><time>2026-04-11T09:09:49.001Z</time></trkpt><trkpt lat="45.29513046372428" lon="9.268661888054938"><ele>84.0</ele><time>2026-04-11T09:09:50.001Z</time></trkpt><trkpt lat="45.295046040885524" lon="9.268675257727072"><ele>84.0</ele><time>2026-04-11T09:09:51.001Z</time></trkpt><trkpt lat="45.29495923817863" lon="9.26868055043689"><ele>84.0</ele><time>2026-04-11T09:09:52.001Z</time></trkpt><trkpt lat="45.29486705697824" lon="9.268676828304393"><ele>84.0</ele><time>2026-04-11T09:09:53.001Z</time></trkpt><trkpt lat="45.294772844611835" lon="9.268674533558702"><ele>84.0</ele><time>2026-04-11T09:09:54.001Z</time></trkpt><trkpt lat="45.2946793547592" lon="9.26865713099936"><ele>84.0</ele><time>2026-04-11T09:09:55.001Z</time></trkpt><trkpt lat="45.29458248601546" lon="9.26863226794976"><ele>84.0</ele><time>2026-04-11T09:09:56.001Z</time></trkpt><trkpt lat="45.29448793498414" lon="9.268604120775294"><ele>84.0</ele><time>2026-04-11T09:09:57.001Z</time></trkpt><trkpt lat="45.29440288056993" lon="9.268578245911439"><ele>84.0</ele><time>2026-04-11T09:09:58.001Z</time></trkpt><trkpt lat="45.294333505986344" lon="9.268523993324246"><ele>84.0</ele><time>2026-04-11T09:09:59.001Z</time></trkpt><trkpt lat="45.29426293980897" lon="9.268495894037075"><ele>84.0</ele><time>2026-04-11T09:10:00.001Z</time></trkpt><trkpt lat="45.2942126284307" lon="9.268430083656662"><ele>84.0</ele><time>2026-04-11T09:10:01.001Z</time></trkpt><trkpt lat="45.294188805222454" lon="9.268321781654786"><ele>84.0</ele><time>2026-04-11T09:10:02.001Z</time></trkpt><trkpt lat="45.294165137489614" lon="9.26820826984408"><ele>84.0</ele><time>2026-04-11T09:10:03.001Z</time></trkpt><trkpt lat="45.29413139430498" lon="9.268076540525756"><ele>84.0</ele><time>2026-04-11T09:10:04.001Z</time></trkpt><trkpt lat="45.29409416510506" lon="9.267915044559656"><ele>84.0</ele><time>2026-04-11T09:10:05.001Z</time></trkpt><trkpt lat="45.294050077053676" lon="9.267722997767182"><ele>84.0</ele><time>2026-04-11T09:10:06.001Z</time></trkpt><trkpt lat="45.293998497468195" lon="9.267498317996287"><ele>84.0</ele><time>2026-04-11T09:10:07.001Z</time></trkpt><trkpt lat="45.29394689243332" lon="9.267273527469694"><ele>84.0</ele><time>2026-04-11T09:10:08.001Z</time></trkpt><trkpt lat="45.29390356922244" lon="9.267084811996146"><ele>84.0</ele><time>2026-04-11T09:10:09.001Z</time></trkpt><trkpt lat="45.29385774140002" lon="9.266953141805944"><ele>84.0</ele><time>2026-04-11T09:10:10.001Z</time></trkpt><trkpt lat="45.29383966802691" lon="9.266840739718882"><ele>84.0</ele><time>2026-04-11T09:10:11.001Z</time></trkpt><trkpt lat="45.29381577773708" lon="9.266751440670415"><ele>84.0</ele><time>2026-04-11T09:10:12.001Z</time></trkpt><trkpt lat="45.29377452314476" lon="9.266665759619794"><ele>84.0</ele><time>2026-04-11T09:10:13.001Z</time></trkpt><trkpt lat="45.29371014835425" lon="9.266595706679697"><ele>84.0</ele><time>2026-04-11T09:10:14.001Z</time></trkpt><trkpt lat="45.293634898974744" lon="9.266561997359345"><ele>84.0</ele><time>2026-04-11T09:10:15.001Z</time></trkpt><trkpt lat="45.29355035171735" lon="9.26655659093597"><ele>84.0</ele><time>2026-04-11T09:10:16.001Z</time></trkpt><trkpt lat="45.29346500472575" lon="9.266569673356372"><ele>84.0</ele><time>2026-04-11T09:10:17.001Z</time></trkpt><trkpt lat="45.29337222351486" lon="9.266617351245214"><ele>84.0</ele><time>2026-04-11T09:10:18.001Z</time></trkpt><trkpt lat="45.293265061238884" lon="9.266669506310915"><ele>84.0</ele><time>2026-04-11T09:10:19.001Z</time></trkpt><trkpt lat="45.29313661517868" lon="9.266723622060207"><ele>84.33333333333333</ele><time>2026-04-11T09:10:20.001Z</time></trkpt><trkpt lat="45.29298987649866" lon="9.26678674671304"><ele>84.66666666666666</ele><time>2026-04-11T09:10:21.001Z</time></trkpt><trkpt lat="45.2928352622827" lon="9.266847538451046"><ele>85.0</ele><time>2026-04-11T09:10:22.001Z</time></trkpt><trkpt lat="45.29269395854309" lon="9.266900323528992"><ele>85.0</ele><time>2026-04-11T09:10:23.001Z</time></trkpt><trkpt lat="45.29256818303247" lon="9.26694649818971"><ele>85.0</ele><time>2026-04-11T09:10:24.001Z</time></trkpt><trkpt lat="45.29246072781207" lon="9.266985543584205"><ele>85.0</ele><time>2026-04-11T09:10:25.001Z</time></trkpt><trkpt lat="45.29236035856744" lon="9.267013347321864"><ele>85.0</ele><time>2026-04-11T09:10:26.001Z</time></trkpt><trkpt lat="45.292270256629806" lon="9.26699197504124"><ele>85.0</ele><time>2026-04-11T09:10:27.001Z</time></trkpt><trkpt lat="45.29219737866035" lon="9.26701148200577"><ele>84.6</ele><time>2026-04-11T09:10:28.001Z</time></trkpt><trkpt lat="45.292119779753754" lon="9.267083095270104"><ele>84.2</ele><time>2026-04-11T09:10:29.001Z</time></trkpt><trkpt lat="45.29202234508831" lon="9.267131312652925"><ele>83.80000000000001</ele><time>2026-04-11T09:10:30.001Z</time></trkpt><trkpt lat="45.291911364665985" lon="9.267186722615092"><ele>83.4</ele><time>2026-04-11T09:10:31.001Z</time></trkpt><trkpt lat="45.29178588281593" lon="9.267247734993967"><ele>83.0</ele><time>2026-04-11T09:10:32.001Z</time></trkpt><trkpt lat="45.29165037368134" lon="9.267326364851343"><ele>83.0</ele><time>2026-04-11T09:10:33.001Z</time></trkpt><trkpt lat="45.291508495185724" lon="9.267404529895963"><ele>83.0</ele><time>2026-04-11T09:10:34.001Z</time></trkpt><trkpt lat="45.291360822278875" lon="9.267487637270225"><ele>83.0</ele><time>2026-04-11T09:10:35.001Z</time></trkpt><trkpt lat="45.291212698449975" lon="9.267568371043708"><ele>83.0</ele><time>2026-04-11T09:10:36.001Z</time></trkpt><trkpt lat="45.2910660280956" lon="9.26764999113052"><ele>83.0</ele><time>2026-04-11T09:10:37.001Z</time></trkpt><trkpt lat="45.290926596393746" lon="9.267728696524625"><ele>83.0</ele><time>2026-04-11T09:10:38.001Z</time></trkpt><trkpt lat="45.29079354095797" lon="9.267810192559807"><ele>83.0</ele><time>2026-04-11T09:10:39.001Z</time></trkpt><trkpt lat="45.290663505954385" lon="9.267897608664606"><ele>83.0</ele><time>2026-04-11T09:10:40.001Z</time></trkpt><trkpt lat="45.29054148407371" lon="9.267995186551873"><ele>83.0</ele><time>2026-04-11T09:10:41.001Z</time></trkpt><trkpt lat="45.29042010904211" lon="9.268084900803862"><ele>83.0</ele><time>2026-04-11T09:10:42.001Z</time></trkpt><trkpt lat="45.29030122665955" lon="9.26816973332487"><ele>82.80000000000001</ele><time>2026-04-11T09:10:43.001Z</time></trkpt><trkpt lat="45.29019498623424" lon="9.268250666273055"><ele>82.6</ele><time>2026-04-11T09:10:44.001Z</time></trkpt><trkpt lat="45.29009838578353" lon="9.268323492990636"><ele>82.4</ele><time>2026-04-11T09:10:45.001Z</time></trkpt><trkpt lat="45.290006347999004" lon="9.268391302000229"><ele>82.19999999999999</ele><time>2026-04-11T09:10:46.001Z</time></trkpt><trkpt lat="45.289909134422686" lon="9.268465607177081"><ele>82.0</ele><time>2026-04-11T09:10:47.001Z</time></trkpt><trkpt lat="45.28980952743338" lon="9.268550826522281"><ele>82.0</ele><time>2026-04-11T09:10:48.001Z</time></trkpt><trkpt lat="45.28971166294555" lon="9.268646668854869"><ele>82.0</ele><time>2026-04-11T09:10:49.001Z</time></trkpt><trkpt lat="45.289613511654785" lon="9.2687502336495"><ele>82.0</ele><time>2026-04-11T09:10:50.001Z</time></trkpt><trkpt lat="45.28951283543378" lon="9.268859102735817"><ele>82.0</ele><time>2026-04-11T09:10:51.001Z</time></trkpt><trkpt lat="45.28941407243578" lon="9.268982181072573"><ele>82.0</ele><time>2026-04-11T09:10:52.001Z</time></trkpt><trkpt lat="45.289308420434445" lon="9.269110409814122"><ele>82.0</ele><time>2026-04-11T09:10:53.001Z</time></trkpt><trkpt lat="45.289200096017304" lon="9.269236213688327"><ele>82.0</ele><time>2026-04-11T09:10:54.001Z</time></trkpt><trkpt lat="45.289086028786855" lon="9.269371501028989"><ele>82.0</ele><time>2026-04-11T09:10:55.001Z</time></trkpt><trkpt lat="45.28897513835356" lon="9.269505348406057"><ele>81.75</ele><time>2026-04-11T09:10:56.001Z</time></trkpt><trkpt lat="45.28886426502993" lon="9.269638645499167"><ele>81.5</ele><time>2026-04-11T09:10:57.001Z</time></trkpt><trkpt lat="45.288755494270184" lon="9.269769237354785"><ele>81.25</ele><time>2026-04-11T09:10:58.001Z</time></trkpt><trkpt lat="45.28864562333813" lon="9.269905577523824"><ele>81.0</ele><time>2026-04-11T09:10:59.001Z</time></trkpt><trkpt lat="45.2885305109645" lon="9.270044717789377"><ele>81.0</ele><time>2026-04-11T09:11:00.001Z</time></trkpt><trkpt lat="45.28841323461951" lon="9.27018614164465"><ele>81.0</ele><time>2026-04-11T09:11:01.001Z</time></trkpt><trkpt lat="45.288295344374504" lon="9.270330115956357"><ele>81.0</ele><time>2026-04-11T09:11:02.001Z</time></trkpt><trkpt lat="45.288182480664624" lon="9.27047535581883"><ele>81.0</ele><time>2026-04-11T09:11:03.001Z</time></trkpt><trkpt lat="45.28806562595046" lon="9.270625732342562"><ele>81.0</ele><time>2026-04-11T09:11:04.001Z</time></trkpt><trkpt lat="45.287955155426786" lon="9.270769625991614"><ele>81.0</ele><time>2026-04-11T09:11:05.001Z</time></trkpt><trkpt lat="45.28785806491007" lon="9.270901505055162"><ele>81.0</ele><time>2026-04-11T09:11:06Z</time></trkpt><trkpt lat="45.28776415012657" lon="9.27102772390723"><ele>81.0</ele><time>2026-04-11T09:11:07Z</time></trkpt><trkpt lat="45.28767128162658" lon="9.271171069823426"><ele>81.0</ele><time>2026-04-11T09:11:08Z</time></trkpt><trkpt lat="45.28758348841837" lon="9.271326426572562"><ele>81.0</ele><time>2026-04-11T09:11:09Z</time></trkpt><trkpt lat="45.2875033064933" lon="9.271500002584574"><ele>81.0</ele><time>2026-04-11T09:11:10Z</time></trkpt><trkpt lat="45.28743099931041" lon="9.271677712958164"><ele>81.0</ele><time>2026-04-11T09:11:11Z</time></trkpt><trkpt lat="45.28735701022451" lon="9.271854268286573"><ele>81.0</ele><time>2026-04-11T09:11:12Z</time></trkpt><trkpt lat="45.28727962396467" lon="9.272035598947967"><ele>81.0</ele><time>2026-04-11T09:11:13Z</time></trkpt><trkpt lat="45.28720173016947" lon="9.2722227217813"><ele>81.0</ele><time>2026-04-11T09:11:14Z</time></trkpt><trkpt lat="45.28713350146053" lon="9.272391151780495"><ele>80.8</ele><time>2026-04-11T09:11:15Z</time></trkpt><trkpt lat="45.28707645553752" lon="9.272540614689309"><ele>80.6</ele><time>2026-04-11T09:11:16Z</time></trkpt><trkpt lat="45.28702602394053" lon="9.272671121985402"><ele>80.4</ele><time>2026-04-11T09:11:17Z</time></trkpt><trkpt lat="45.28697658828091" lon="9.272783216628133"><ele>80.2</ele><time>2026-04-11T09:11:18Z</time></trkpt><trkpt lat="45.28691865240696" lon="9.272881528833373"><ele>80.0</ele><time>2026-04-11T09:11:19Z</time></trkpt><trkpt lat="45.2868523727492" lon="9.272966053606943"><ele>80.0</ele><time>2026-04-11T09:11:20Z</time></trkpt><trkpt lat="45.286774367295465" lon="9.273020385023505"><ele>80.0</ele><time>2026-04-11T09:11:21Z</time></trkpt><trkpt lat="45.2866765344924" lon="9.273056648328538"><ele>80.0</ele><time>2026-04-11T09:11:22Z</time></trkpt><trkpt lat="45.286553398047175" lon="9.27307882246368"><ele>80.0</ele><time>2026-04-11T09:11:23Z</time></trkpt><trkpt lat="45.286422437667284" lon="9.273106592020415"><ele>80.0</ele><time>2026-04-11T09:11:24Z</time></trkpt><trkpt lat="45.286286515008186" lon="9.273156204329402"><ele>79.5</ele><time>2026-04-11T09:11:25Z</time></trkpt><trkpt lat="45.28615568207364" lon="9.273222585084294"><ele>79.0</ele><time>2026-04-11T09:11:26Z</time></trkpt><trkpt lat="45.28601919821527" lon="9.273290074618709"><ele>78.5</ele><time>2026-04-11T09:11:27Z</time></trkpt><trkpt lat="45.28589336138384" lon="9.273361562548828"><ele>78.0</ele><time>2026-04-11T09:11:28Z</time></trkpt><trkpt lat="45.28578818473546" lon="9.273430145970481"><ele>78.0</ele><time>2026-04-11T09:11:29Z</time></trkpt><trkpt lat="45.28569673301175" lon="9.27349791102114"><ele>78.0</ele><time>2026-04-11T09:11:30Z</time></trkpt><trkpt lat="45.28561961028421" lon="9.273577460812565"><ele>78.0</ele><time>2026-04-11T09:11:31Z</time></trkpt><trkpt lat="45.28555664188856" lon="9.273681603811951"><ele>78.0</ele><time>2026-04-11T09:11:32.001Z</time></trkpt><trkpt lat="45.285509967331656" lon="9.27380356305946"><ele>78.0</ele><time>2026-04-11T09:11:33.001Z</time></trkpt><trkpt lat="45.285482398375365" lon="9.273934355784935"><ele>78.0</ele><time>2026-04-11T09:11:34.001Z</time></trkpt><trkpt lat="45.285471122172964" lon="9.274081100709978"><ele>78.0</ele><time>2026-04-11T09:11:35.001Z</time></trkpt><trkpt lat="45.28546561086761" lon="9.274254049289597"><ele>78.0</ele><time>2026-04-11T09:11:36.001Z</time></trkpt><trkpt lat="45.2854674844699" lon="9.274443311466783"><ele>78.0</ele><time>2026-04-11T09:11:37.001Z</time></trkpt><trkpt lat="45.28547323213376" lon="9.274629655153394"><ele>78.2</ele><time>2026-04-11T09:11:38.001Z</time></trkpt><trkpt lat="45.28546850343251" lon="9.274788738659808"><ele>78.4</ele><time>2026-04-11T09:11:39.001Z</time></trkpt><trkpt lat="45.285450640585644" lon="9.274922189649288"><ele>78.60000000000001</ele><time>2026-04-11T09:11:40.001Z</time></trkpt><trkpt lat="45.28541521687479" lon="9.275037181567798"><ele>78.8</ele><time>2026-04-11T09:11:41.001Z</time></trkpt><trkpt lat="45.285349562005955" lon="9.275140437177983"><ele>79.0</ele><time>2026-04-11T09:11:42.001Z</time></trkpt><trkpt lat="45.28526813817952" lon="9.275245478365388"><ele>79.0</ele><time>2026-04-11T09:11:43.001Z</time></trkpt><trkpt lat="45.285174420020844" lon="9.275344797062678"><ele>79.0</ele><time>2026-04-11T09:11:44.001Z</time></trkpt><trkpt lat="45.285069793341364" lon="9.275451817060905"><ele>79.0</ele><time>2026-04-11T09:11:45.001Z</time></trkpt><trkpt lat="45.28495784931941" lon="9.275570505265396"><ele>79.0</ele><time>2026-04-11T09:11:46.001Z</time></trkpt><trkpt lat="45.284842075118014" lon="9.275692477790193"><ele>78.25</ele><time>2026-04-11T09:11:47.001Z</time></trkpt><trkpt lat="45.284726966711155" lon="9.275816445491492"><ele>77.5</ele><time>2026-04-11T09:11:48.001Z</time></trkpt><trkpt lat="45.28461694099886" lon="9.275938604916162"><ele>76.75</ele><time>2026-04-11T09:11:49.001Z</time></trkpt><trkpt lat="45.284520206508475" lon="9.276044269622794"><ele>76.0</ele><time>2026-04-11T09:11:50.001Z</time></trkpt><trkpt lat="45.28441818897792" lon="9.276166546193457"><ele>76.0</ele><time>2026-04-11T09:11:51.001Z</time></trkpt><trkpt lat="45.28430577658665" lon="9.276301590573093"><ele>76.0</ele><time>2026-04-11T09:11:52.001Z</time></trkpt><trkpt lat="45.284188329967606" lon="9.27642179360611"><ele>76.0</ele><time>2026-04-11T09:11:53.001Z</time></trkpt><trkpt lat="45.28407158862518" lon="9.276550568982168"><ele>76.0</ele><time>2026-04-11T09:11:54.001Z</time></trkpt><trkpt lat="45.283954251192185" lon="9.27667326920728"><ele>75.75</ele><time>2026-04-11T09:11:55.001Z</time></trkpt><trkpt lat="45.28383713984217" lon="9.27678815988246"><ele>75.5</ele><time>2026-04-11T09:11:56.001Z</time></trkpt><trkpt lat="45.28372002490252" lon="9.27687848332441"><ele>75.25</ele><time>2026-04-11T09:11:57.001Z</time></trkpt><trkpt lat="45.28359253341386" lon="9.276947716183871"><ele>75.0</ele><time>2026-04-11T09:11:58.001Z</time></trkpt><trkpt lat="45.28346258015128" lon="9.277009368535921"><ele>75.0</ele><time>2026-04-11T09:11:59.001Z</time></trkpt><trkpt lat="45.283344291666346" lon="9.277060071870201"><ele>75.0</ele><time>2026-04-11T09:12:00.001Z</time></trkpt><trkpt lat="45.28324076868066" lon="9.277138601490554"><ele>75.0</ele><time>2026-04-11T09:12:01.001Z</time></trkpt><trkpt lat="45.28315174134265" lon="9.277237316057741"><ele>75.0</ele><time>2026-04-11T09:12:02.001Z</time></trkpt><trkpt lat="45.28305501830557" lon="9.277316385360782"><ele>75.5</ele><time>2026-04-11T09:12:03.001Z</time></trkpt><trkpt lat="45.28296633278804" lon="9.277388566881237"><ele>76.0</ele><time>2026-04-11T09:12:04.001Z</time></trkpt><trkpt lat="45.28288157012273" lon="9.277449058425724"><ele>76.5</ele><time>2026-04-11T09:12:05.001Z</time></trkpt><trkpt lat="45.2828039315084" lon="9.277495731271317"><ele>77.0</ele><time>2026-04-11T09:12:06.001Z</time></trkpt><trkpt lat="45.28272782633758" lon="9.277521324703557"><ele>77.5</ele><time>2026-04-11T09:12:07.001Z</time></trkpt><trkpt lat="45.282658594958654" lon="9.277537380409441"><ele>78.0</ele><time>2026-04-11T09:12:08.001Z</time></trkpt><trkpt lat="45.28259468096431" lon="9.27754434869779"><ele>78.0</ele><time>2026-04-11T09:12:09.001Z</time></trkpt><trkpt lat="45.28249729657894" lon="9.277539115008159"><ele>78.0</ele><time>2026-04-11T09:12:11.001Z</time></trkpt><trkpt lat="45.282425750044446" lon="9.277547809693955"><ele>78.0</ele><time>2026-04-11T09:12:15.001Z</time></trkpt><trkpt lat="45.28243287337243" lon="9.277722313007583"><ele>78.0</ele><time>2026-04-11T09:12:16.001Z</time></trkpt><trkpt lat="45.282448260168366" lon="9.277821375956583"><ele>78.0</ele><time>2026-04-11T09:12:17.001Z</time></trkpt><trkpt lat="45.28246707334169" lon="9.277932693903201"><ele>78.0</ele><time>2026-04-11T09:12:18.001Z</time></trkpt><trkpt lat="45.28248172705166" lon="9.278045652825357"><ele>78.0</ele><time>2026-04-11T09:12:19.001Z</time></trkpt><trkpt lat="45.28250101633204" lon="9.278182015291494"><ele>78.0</ele><time>2026-04-11T09:12:20.001Z</time></trkpt><trkpt lat="45.28252456355428" lon="9.278341425303706"><ele>78.0</ele><time>2026-04-11T09:12:21.001Z</time></trkpt><trkpt lat="45.2825486545703" lon="9.27851134779725"><ele>78.0</ele><time>2026-04-11T09:12:22.001Z</time></trkpt><trkpt lat="45.2825692670173" lon="9.278674551834627"><ele>78.0</ele><time>2026-04-11T09:12:23.001Z</time></trkpt><trkpt lat="45.28258305949128" lon="9.27882827082633"><ele>78.0</ele><time>2026-04-11T09:12:24.001Z</time></trkpt><trkpt lat="45.28257180953017" lon="9.278962889988422"><ele>78.0</ele><time>2026-04-11T09:12:25.001Z</time></trkpt><trkpt lat="45.28252180556854" lon="9.27907322749898"><ele>78.0</ele><time>2026-04-11T09:12:26.001Z</time></trkpt><trkpt lat="45.282424859439274" lon="9.279146638883901"><ele>78.0</ele><time>2026-04-11T09:12:27.001Z</time></trkpt><trkpt lat="45.28228349345966" lon="9.279221375491472"><ele>79.0</ele><time>2026-04-11T09:12:28.001Z</time></trkpt><trkpt lat="45.28209702529239" lon="9.279311338415303"><ele>80.0</ele><time>2026-04-11T09:12:29.001Z</time></trkpt><trkpt lat="45.281899412866025" lon="9.279426033143766"><ele>81.0</ele><time>2026-04-11T09:12:30.001Z</time></trkpt><trkpt lat="45.28174183203636" lon="9.279532715214136"><ele>81.0</ele><time>2026-04-11T09:12:31.001Z</time></trkpt><trkpt lat="45.2815879973172" lon="9.279634835851617"><ele>81.0</ele><time>2026-04-11T09:12:32.001Z</time></trkpt><trkpt lat="45.28142612923426" lon="9.279741648186556"><ele>81.0</ele><time>2026-04-11T09:12:33.001Z</time></trkpt><trkpt lat="45.28126982218052" lon="9.279848005716154"><ele>81.25</ele><time>2026-04-11T09:12:34.001Z</time></trkpt><trkpt lat="45.28112094049509" lon="9.279946979652735"><ele>81.5</ele><time>2026-04-11T09:12:35.001Z</time></trkpt><trkpt lat="45.28098578772485" lon="9.280036039599013"><ele>81.75</ele><time>2026-04-11T09:12:36.001Z</time></trkpt><trkpt lat="45.280872840416286" lon="9.2801115018327"><ele>82.0</ele><time>2026-04-11T09:12:37.001Z</time></trkpt><trkpt lat="45.280771318209794" lon="9.28018208216722"><ele>82.0</ele><time>2026-04-11T09:12:38.001Z</time></trkpt><trkpt lat="45.2806754881138" lon="9.28025962273762"><ele>82.0</ele><time>2026-04-11T09:12:39.001Z</time></trkpt><trkpt lat="45.280562758997654" lon="9.280332622328444"><ele>82.0</ele><time>2026-04-11T09:12:40.001Z</time></trkpt><trkpt lat="45.28044118845397" lon="9.280402004295185"><ele>82.0</ele><time>2026-04-11T09:12:41.001Z</time></trkpt><trkpt lat="45.2803188981474" lon="9.280480873058082"><ele>82.25</ele><time>2026-04-11T09:12:42.001Z</time></trkpt><trkpt lat="45.28019267156026" lon="9.280562725788002"><ele>82.5</ele><time>2026-04-11T09:12:43.001Z</time></trkpt><trkpt lat="45.280061851797946" lon="9.280648067693187"><ele>82.75</ele><time>2026-04-11T09:12:44.001Z</time></trkpt><trkpt lat="45.279927000218095" lon="9.280741717045439"><ele>83.0</ele><time>2026-04-11T09:12:45.001Z</time></trkpt><trkpt lat="45.27978603476388" lon="9.280837409060778"><ele>82.66666666666667</ele><time>2026-04-11T09:12:46.001Z</time></trkpt><trkpt lat="45.279640854840956" lon="9.280940925278665"><ele>82.33333333333333</ele><time>2026-04-11T09:12:47.001Z</time></trkpt><trkpt lat="45.27949713920222" lon="9.281042296609025"><ele>82.0</ele><time>2026-04-11T09:12:48.001Z</time></trkpt><trkpt lat="45.27935700711263" lon="9.281130160604086"><ele>82.0</ele><time>2026-04-11T09:12:49.001Z</time></trkpt><trkpt lat="45.27922152898305" lon="9.281211465366782"><ele>82.0</ele><time>2026-04-11T09:12:50.001Z</time></trkpt><trkpt lat="45.279089961203994" lon="9.281303298387565"><ele>82.0</ele><time>2026-04-11T09:12:51.001Z</time></trkpt><trkpt lat="45.278965724077686" lon="9.281394040846871"><ele>82.0</ele><time>2026-04-11T09:12:52.001Z</time></trkpt><trkpt lat="45.27885575267761" lon="9.28148839470925"><ele>81.5</ele><time>2026-04-11T09:12:53.001Z</time></trkpt><trkpt lat="45.27875896030828" lon="9.28158665775686"><ele>81.0</ele><time>2026-04-11T09:12:54.001Z</time></trkpt><trkpt lat="45.27868640439493" lon="9.281717221581888"><ele>80.5</ele><time>2026-04-11T09:12:55.001Z</time></trkpt><trkpt lat="45.27863918616045" lon="9.281897805925363"><ele>80.0</ele><time>2026-04-11T09:12:56.001Z</time></trkpt><trkpt lat="45.2786205741914" lon="9.282108573029394"><ele>80.66666666666667</ele><time>2026-04-11T09:12:57.001Z</time></trkpt><trkpt lat="45.278611202992984" lon="9.282344200666767"><ele>81.33333333333333</ele><time>2026-04-11T09:12:58.001Z</time></trkpt><trkpt lat="45.278592745645604" lon="9.282570972060617"><ele>82.0</ele><time>2026-04-11T09:12:59.001Z</time></trkpt><trkpt lat="45.27857518670739" lon="9.282771788011901"><ele>82.0</ele><time>2026-04-11T09:13:00.001Z</time></trkpt><trkpt lat="45.27855873991567" lon="9.282959166613459"><ele>82.0</ele><time>2026-04-11T09:13:01.001Z</time></trkpt><trkpt lat="45.278548355245874" lon="9.283140116187994"><ele>82.0</ele><time>2026-04-11T09:13:02.001Z</time></trkpt><trkpt lat="45.27855525957193" lon="9.283333897699936"><ele>82.0</ele><time>2026-04-11T09:13:03.001Z</time></trkpt><trkpt lat="45.27858490133878" lon="9.28353826249227"><ele>82.0</ele><time>2026-04-11T09:13:04.001Z</time></trkpt><trkpt lat="45.27862462158751" lon="9.283751154195308"><ele>82.0</ele><time>2026-04-11T09:13:05.001Z</time></trkpt><trkpt lat="45.27866652581587" lon="9.28396757499505"><ele>82.0</ele><time>2026-04-11T09:13:06.001Z</time></trkpt><trkpt lat="45.27871095004603" lon="9.284186767124618"><ele>82.0</ele><time>2026-04-11T09:13:07.001Z</time></trkpt><trkpt lat="45.278755453598635" lon="9.2844038309321"><ele>82.0</ele><time>2026-04-11T09:13:08.001Z</time></trkpt><trkpt lat="45.27879860883688" lon="9.28461915710872"><ele>82.0</ele><time>2026-04-11T09:13:09.001Z</time></trkpt><trkpt lat="45.27883968138011" lon="9.284829037759266"><ele>82.33333333333333</ele><time>2026-04-11T09:13:10.001Z</time></trkpt><trkpt lat="45.27887682444767" lon="9.285031230366219"><ele>82.66666666666667</ele><time>2026-04-11T09:13:11.001Z</time></trkpt><trkpt lat="45.278910114732994" lon="9.285216852100996"><ele>83.0</ele><time>2026-04-11T09:13:12.001Z</time></trkpt><trkpt lat="45.27897739527638" lon="9.285591962771164"><ele>82.33333333333334</ele><time>2026-04-11T09:13:14.001Z</time></trkpt><trkpt lat="45.27901897418298" lon="9.285801027670022"><ele>81.66666666666667</ele><time>2026-04-11T09:13:15.001Z</time></trkpt><trkpt lat="45.27905866479098" lon="9.286016010171009"><ele>81.0</ele><time>2026-04-11T09:13:16.001Z</time></trkpt><trkpt lat="45.279099208335765" lon="9.286241737609181"><ele>81.0</ele><time>2026-04-11T09:13:17.001Z</time></trkpt><trkpt lat="45.27914067340578" lon="9.286468978019146"><ele>81.0</ele><time>2026-04-11T09:13:18.001Z</time></trkpt><trkpt lat="45.2791828601142" lon="9.28669314298688"><ele>81.0</ele><time>2026-04-11T09:13:19.001Z</time></trkpt><trkpt lat="45.279225680645425" lon="9.286916348741723"><ele>81.0</ele><time>2026-04-11T09:13:20.001Z</time></trkpt><trkpt lat="45.27926773846104" lon="9.287137533848114"><ele>81.0</ele><time>2026-04-11T09:13:21.001Z</time></trkpt><trkpt lat="45.27930872793574" lon="9.287358966942401"><ele>81.0</ele><time>2026-04-11T09:13:22.001Z</time></trkpt><trkpt lat="45.27935111565491" lon="9.287578917514052"><ele>81.25</ele><time>2026-04-11T09:13:23.001Z</time></trkpt><trkpt lat="45.279394493951855" lon="9.287793727897947"><ele>81.5</ele><time>2026-04-11T09:13:24.001Z</time></trkpt><trkpt lat="45.2794346829235" lon="9.288003150434582"><ele>81.75</ele><time>2026-04-11T09:13:25.001Z</time></trkpt><trkpt lat="45.27947056795749" lon="9.288192475549954"><ele>82.0</ele><time>2026-04-11T09:13:26.001Z</time></trkpt><trkpt lat="45.27950523960666" lon="9.288370050432691"><ele>82.0</ele><time>2026-04-11T09:13:27.001Z</time></trkpt><trkpt lat="45.27954166837302" lon="9.288538333943858"><ele>82.0</ele><time>2026-04-11T09:13:28.001Z</time></trkpt><trkpt lat="45.27957902990033" lon="9.288696689530049"><ele>82.0</ele><time>2026-04-11T09:13:29.001Z</time></trkpt><trkpt lat="45.27961150731011" lon="9.288840200360278"><ele>82.0</ele><time>2026-04-11T09:13:30.001Z</time></trkpt><trkpt lat="45.27963038146704" lon="9.288972352453095"><ele>82.0</ele><time>2026-04-11T09:13:31.001Z</time></trkpt><trkpt lat="45.27965149363361" lon="9.289081577242532"><ele>82.0</ele><time>2026-04-11T09:13:32.001Z</time></trkpt><trkpt lat="45.27958894715266" lon="9.289247101424285"><ele>82.0</ele><time>2026-04-11T09:13:33.001Z</time></trkpt><trkpt lat="45.27954778470672" lon="9.289409999858407"><ele>82.0</ele><time>2026-04-11T09:13:34.001Z</time></trkpt><trkpt lat="45.27952900057644" lon="9.289557305782468"><ele>82.0</ele><time>2026-04-11T09:13:35.001Z</time></trkpt><trkpt lat="45.27937357012524" lon="9.289622740288976"><ele>82.0</ele><time>2026-04-11T09:13:36.001Z</time></trkpt><trkpt lat="45.279244499948106" lon="9.28968152384278"><ele>82.0</ele><time>2026-04-11T09:13:37.001Z</time></trkpt><trkpt lat="45.27910366514254" lon="9.289734578448938"><ele>82.0</ele><time>2026-04-11T09:13:38.001Z</time></trkpt><trkpt lat="45.278962394545104" lon="9.289796032794877"><ele>82.0</ele><time>2026-04-11T09:13:39.001Z</time></trkpt><trkpt lat="45.27881441096793" lon="9.289863670880122"><ele>82.0</ele><time>2026-04-11T09:13:40.001Z</time></trkpt><trkpt lat="45.278659749747966" lon="9.289931324283842"><ele>82.0</ele><time>2026-04-11T09:13:41.001Z</time></trkpt><trkpt lat="45.278502020545325" lon="9.290001018923842"><ele>82.0</ele><time>2026-04-11T09:13:42.001Z</time></trkpt><trkpt lat="45.27834290445197" lon="9.2900647285179"><ele>82.0</ele><time>2026-04-11T09:13:43.001Z</time></trkpt><trkpt lat="45.278176819157125" lon="9.290129944295538"><ele>82.0</ele><time>2026-04-11T09:13:44.001Z</time></trkpt><trkpt lat="45.27800836554218" lon="9.290209953671098"><ele>82.0</ele><time>2026-04-11T09:13:45.001Z</time></trkpt><trkpt lat="45.27783523404486" lon="9.290292936606397"><ele>82.33333333333333</ele><time>2026-04-11T09:13:46.001Z</time></trkpt><trkpt lat="45.277665370148796" lon="9.290372755981185"><ele>82.66666666666667</ele><time>2026-04-11T09:13:47.001Z</time></trkpt><trkpt lat="45.27749006080462" lon="9.290452460239424"><ele>83.0</ele><time>2026-04-11T09:13:48.001Z</time></trkpt><trkpt lat="45.27731417297969" lon="9.2905334935159"><ele>82.66666666666667</ele><time>2026-04-11T09:13:49.001Z</time></trkpt><trkpt lat="45.277137742831364" lon="9.290620870380357"><ele>82.33333333333333</ele><time>2026-04-11T09:13:50.001Z</time></trkpt><trkpt lat="45.2769565117483" lon="9.290696756805218"><ele>82.0</ele><time>2026-04-11T09:13:51.001Z</time></trkpt><trkpt lat="45.27677248621592" lon="9.290775110666726"><ele>82.0</ele><time>2026-04-11T09:13:52.001Z</time></trkpt><trkpt lat="45.27658932151561" lon="9.290860426260032"><ele>82.0</ele><time>2026-04-11T09:13:53.001Z</time></trkpt><trkpt lat="45.276400221863504" lon="9.290945236724173"><ele>82.0</ele><time>2026-04-11T09:13:54.001Z</time></trkpt><trkpt lat="45.27620279527917" lon="9.29103081509696"><ele>82.0</ele><time>2026-04-11T09:13:55.001Z</time></trkpt><trkpt lat="45.27600472060214" lon="9.291117246667609"><ele>82.0</ele><time>2026-04-11T09:13:56.001Z</time></trkpt><trkpt lat="45.27580739523023" lon="9.2912094147966"><ele>82.0</ele><time>2026-04-11T09:13:57.001Z</time></trkpt><trkpt lat="45.275612676449285" lon="9.291305919065028"><ele>81.66666666666666</ele><time>2026-04-11T09:13:58.001Z</time></trkpt><trkpt lat="45.275415823226815" lon="9.291410426941383"><ele>81.33333333333333</ele><time>2026-04-11T09:13:59.001Z</time></trkpt><trkpt lat="45.27522486281932" lon="9.291520687329866"><ele>81.0</ele><time>2026-04-11T09:14:00.001Z</time></trkpt><trkpt lat="45.275027184224356" lon="9.291640806934765"><ele>81.0</ele><time>2026-04-11T09:14:01.001Z</time></trkpt><trkpt lat="45.27483655276054" lon="9.291766103612662"><ele>81.0</ele><time>2026-04-11T09:14:02.001Z</time></trkpt><trkpt lat="45.274647418852254" lon="9.29189545525227"><ele>81.0</ele><time>2026-04-11T09:14:03.001Z</time></trkpt><trkpt lat="45.27445270533522" lon="9.292033277046576"><ele>81.0</ele><time>2026-04-11T09:14:04.001Z</time></trkpt><trkpt lat="45.27426226762769" lon="9.29216960853116"><ele>81.0</ele><time>2026-04-11T09:14:05.001Z</time></trkpt><trkpt lat="45.27406840019305" lon="9.292304618622907"><ele>81.0</ele><time>2026-04-11T09:14:06.001Z</time></trkpt><trkpt lat="45.27387063027574" lon="9.292439040761911"><ele>81.33333333333333</ele><time>2026-04-11T09:14:07.001Z</time></trkpt><trkpt lat="45.27367890891495" lon="9.292566582593617"><ele>81.66666666666666</ele><time>2026-04-11T09:14:08.001Z</time></trkpt><trkpt lat="45.27348522571882" lon="9.292699680376986"><ele>82.0</ele><time>2026-04-11T09:14:09.001Z</time></trkpt><trkpt lat="45.273291345452314" lon="9.292841242108969"><ele>82.0</ele><time>2026-04-11T09:14:10.001Z</time></trkpt><trkpt lat="45.27309867280289" lon="9.292982552078605"><ele>82.0</ele><time>2026-04-11T09:14:11.001Z</time></trkpt><trkpt lat="45.27290750447425" lon="9.29312192983794"><ele>82.0</ele><time>2026-04-11T09:14:12.001Z</time></trkpt><trkpt lat="45.2727170172897" lon="9.293260781582516"><ele>82.0</ele><time>2026-04-11T09:14:13.001Z</time></trkpt><trkpt lat="45.272525261322485" lon="9.293399489073346"><ele>82.0</ele><time>2026-04-11T09:14:14.001Z</time></trkpt><trkpt lat="45.272335020769084" lon="9.293535981193761"><ele>82.0</ele><time>2026-04-11T09:14:15.001Z</time></trkpt><trkpt lat="45.27214444195996" lon="9.293673877939636"><ele>82.0</ele><time>2026-04-11T09:14:16.001Z</time></trkpt><trkpt lat="45.271956837044286" lon="9.293810655890256"><ele>82.0</ele><time>2026-04-11T09:14:17.001Z</time></trkpt><trkpt lat="45.271767160579216" lon="9.293948203608823"><ele>82.0</ele><time>2026-04-11T09:14:18.001Z</time></trkpt><trkpt lat="45.27158074579806" lon="9.294084947943814"><ele>82.0</ele><time>2026-04-11T09:14:19.001Z</time></trkpt><trkpt lat="45.271390525427016" lon="9.294224239909436"><ele>82.0</ele><time>2026-04-11T09:14:20.001Z</time></trkpt><trkpt lat="45.27120141473363" lon="9.294363943984662"><ele>82.0</ele><time>2026-04-11T09:14:21.001Z</time></trkpt><trkpt lat="45.27101270967188" lon="9.294500562049311"><ele>82.0</ele><time>2026-04-11T09:14:22.001Z</time></trkpt><trkpt lat="45.27082462834042" lon="9.294633848663114"><ele>82.0</ele><time>2026-04-11T09:14:23.001Z</time></trkpt><trkpt lat="45.270632865577404" lon="9.294766617977734"><ele>82.0</ele><time>2026-04-11T09:14:24.001Z</time></trkpt><trkpt lat="45.270440324275185" lon="9.294898273407071"><ele>81.33333333333333</ele><time>2026-04-11T09:14:25.001Z</time></trkpt><trkpt lat="45.27024122494941" lon="9.295023946709463"><ele>80.66666666666667</ele><time>2026-04-11T09:14:26.001Z</time></trkpt><trkpt lat="45.27004115807213" lon="9.295149014413921"><ele>80.0</ele><time>2026-04-11T09:14:27.001Z</time></trkpt><trkpt lat="45.26984070903688" lon="9.295273576627324"><ele>80.5</ele><time>2026-04-11T09:14:28.001Z</time></trkpt><trkpt lat="45.26963930110296" lon="9.29539932814427"><ele>81.0</ele><time>2026-04-11T09:14:29.001Z</time></trkpt><trkpt lat="45.269234790585145" lon="9.295656083414798"><ele>81.0</ele><time>2026-04-11T09:14:31.001Z</time></trkpt><trkpt lat="45.26903113238016" lon="9.295784088061477"><ele>81.0</ele><time>2026-04-11T09:14:32.001Z</time></trkpt><trkpt lat="45.268826446190246" lon="9.295911966453863"><ele>81.0</ele><time>2026-04-11T09:14:33.001Z</time></trkpt><trkpt lat="45.268622309992864" lon="9.296042713867235"><ele>81.0</ele><time>2026-04-11T09:14:34.001Z</time></trkpt><trkpt lat="45.26842777728954" lon="9.296172367537503"><ele>81.0</ele><time>2026-04-11T09:14:35.001Z</time></trkpt><trkpt lat="45.26824044489602" lon="9.296289868485434"><ele>81.0</ele><time>2026-04-11T09:14:36.001Z</time></trkpt><trkpt lat="45.268066463051035" lon="9.296402378663217"><ele>80.66666666666667</ele><time>2026-04-11T09:14:37.001Z</time></trkpt><trkpt lat="45.26791083268183" lon="9.296503758406722"><ele>80.33333333333334</ele><time>2026-04-11T09:14:38.001Z</time></trkpt><trkpt lat="45.26776996525003" lon="9.296596103052755"><ele>80.0</ele><time>2026-04-11T09:14:39.001Z</time></trkpt><trkpt lat="45.26764184123178" lon="9.296683109370898"><ele>80.0</ele><time>2026-04-11T09:14:40.001Z</time></trkpt><trkpt lat="45.26752755889217" lon="9.296756483416287"><ele>80.0</ele><time>2026-04-11T09:14:41.001Z</time></trkpt><trkpt lat="45.26742644665136" lon="9.29681067194312"><ele>80.0</ele><time>2026-04-11T09:14:42.001Z</time></trkpt><trkpt lat="45.26732396048956" lon="9.29684573961782"><ele>80.0</ele><time>2026-04-11T09:14:43.001Z</time></trkpt><trkpt lat="45.26723781606791" lon="9.296903325952696"><ele>80.0</ele><time>2026-04-11T09:14:44.001Z</time></trkpt><trkpt lat="45.26715735565693" lon="9.29695740820541"><ele>80.0</ele><time>2026-04-11T09:14:45.001Z</time></trkpt><trkpt lat="45.266987178632455" lon="9.29675163217776"><ele>80.0</ele><time>2026-04-11T09:14:46.001Z</time></trkpt><trkpt lat="45.26687619696428" lon="9.296731586504261"><ele>80.0</ele><time>2026-04-11T09:14:47.001Z</time></trkpt><trkpt lat="45.266770930268486" lon="9.296680809687302"><ele>80.0</ele><time>2026-04-11T09:14:48.001Z</time></trkpt><trkpt lat="45.26667462590425" lon="9.296587524110032"><ele>80.0</ele><time>2026-04-11T09:14:49.001Z</time></trkpt><trkpt lat="45.266569930082966" lon="9.296489102449542"><ele>80.0</ele><time>2026-04-11T09:14:50.001Z</time></trkpt><trkpt lat="45.266429212953625" lon="9.296400090194194"><ele>80.0</ele><time>2026-04-11T09:14:51.001Z</time></trkpt><trkpt lat="45.266249316547736" lon="9.296326194246898"><ele>80.0</ele><time>2026-04-11T09:14:52.001Z</time></trkpt><trkpt lat="45.26606633429713" lon="9.29628560192379"><ele>80.0</ele><time>2026-04-11T09:14:53.001Z</time></trkpt><trkpt lat="45.2658832478066" lon="9.296292972522249"><ele>80.0</ele><time>2026-04-11T09:14:54.001Z</time></trkpt><trkpt lat="45.26569407249656" lon="9.296339528288538"><ele>80.0</ele><time>2026-04-11T09:14:55.001Z</time></trkpt><trkpt lat="45.2654972093502" lon="9.296398729949454"><ele>80.0</ele><time>2026-04-11T09:14:56.001Z</time></trkpt><trkpt lat="45.265296893606205" lon="9.296454020538008"><ele>80.0</ele><time>2026-04-11T09:14:57.001Z</time></trkpt><trkpt lat="45.26509165902089" lon="9.296505462231266"><ele>80.0</ele><time>2026-04-11T09:14:58.001Z</time></trkpt><trkpt lat="45.26488490393081" lon="9.296558057265242"><ele>80.0</ele><time>2026-04-11T09:14:59.001Z</time></trkpt><trkpt lat="45.264676467880804" lon="9.296611798936953"><ele>80.0</ele><time>2026-04-11T09:15:00.001Z</time></trkpt><trkpt lat="45.26446870323632" lon="9.296662329208806"><ele>80.0</ele><time>2026-04-11T09:15:01.001Z</time></trkpt><trkpt lat="45.26425533058777" lon="9.296701523298951"><ele>80.0</ele><time>2026-04-11T09:15:02.001Z</time></trkpt><trkpt lat="45.264039039743736" lon="9.296717041942184"><ele>80.0</ele><time>2026-04-11T09:15:03.001Z</time></trkpt><trkpt lat="45.263820284390924" lon="9.296700510859988"><ele>79.33333333333334</ele><time>2026-04-11T09:15:04.001Z</time></trkpt><trkpt lat="45.26360179306325" lon="9.296681274663127"><ele>78.66666666666667</ele><time>2026-04-11T09:15:05.001Z</time></trkpt><trkpt lat="45.263384213449164" lon="9.296673830557923"><ele>78.0</ele><time>2026-04-11T09:15:06.001Z</time></trkpt><trkpt lat="45.263163748574165" lon="9.296680057043156"><ele>77.66666666666667</ele><time>2026-04-11T09:15:07.001Z</time></trkpt><trkpt lat="45.26294641266237" lon="9.296694441627375"><ele>77.33333333333334</ele><time>2026-04-11T09:15:08.001Z</time></trkpt><trkpt lat="45.26272938623316" lon="9.296723134147177"><ele>77.0</ele><time>2026-04-11T09:15:09.001Z</time></trkpt><trkpt lat="45.26251595573044" lon="9.29676371268625"><ele>77.0</ele><time>2026-04-11T09:15:10.001Z</time></trkpt><trkpt lat="45.26229879349091" lon="9.296803956983007"><ele>77.0</ele><time>2026-04-11T09:15:11.001Z</time></trkpt><trkpt lat="45.26208171031393" lon="9.296850512784985"><ele>77.0</ele><time>2026-04-11T09:15:12.001Z</time></trkpt><trkpt lat="45.261868109462284" lon="9.296903294708702"><ele>77.66666666666667</ele><time>2026-04-11T09:15:13.001Z</time></trkpt><trkpt lat="45.26166017451399" lon="9.296965125849276"><ele>78.33333333333333</ele><time>2026-04-11T09:15:14.001Z</time></trkpt><trkpt lat="45.26145538957478" lon="9.297028710793677"><ele>79.0</ele><time>2026-04-11T09:15:15.001Z</time></trkpt><trkpt lat="45.261253028035995" lon="9.297097662350707"><ele>79.0</ele><time>2026-04-11T09:15:16.001Z</time></trkpt><trkpt lat="45.26104973989345" lon="9.29717100853866"><ele>79.0</ele><time>2026-04-11T09:15:17.001Z</time></trkpt><trkpt lat="45.260846364291915" lon="9.297247519833126"><ele>79.0</ele><time>2026-04-11T09:15:18.001Z</time></trkpt><trkpt lat="45.26064077219617" lon="9.297325716250398"><ele>78.66666666666666</ele><time>2026-04-11T09:15:19.001Z</time></trkpt><trkpt lat="45.26043624380437" lon="9.297410360905836"><ele>78.33333333333333</ele><time>2026-04-11T09:15:20.001Z</time></trkpt><trkpt lat="45.260235830023014" lon="9.297514965582643"><ele>78.0</ele><time>2026-04-11T09:15:21.001Z</time></trkpt><trkpt lat="45.26003813902918" lon="9.297636704728534"><ele>78.0</ele><time>2026-04-11T09:15:22.001Z</time></trkpt><trkpt lat="45.25984600355199" lon="9.297765655919534"><ele>78.0</ele><time>2026-04-11T09:15:23.001Z</time></trkpt><trkpt lat="45.259652031176294" lon="9.297896752275086"><ele>78.0</ele><time>2026-04-11T09:15:24.001Z</time></trkpt><trkpt lat="45.25945390059476" lon="9.298032138817687"><ele>78.33333333333333</ele><time>2026-04-11T09:15:25.001Z</time></trkpt><trkpt lat="45.25925517847271" lon="9.298170737737115"><ele>78.66666666666666</ele><time>2026-04-11T09:15:26.001Z</time></trkpt><trkpt lat="45.259054118296326" lon="9.298310684468026"><ele>79.0</ele><time>2026-04-11T09:15:27.001Z</time></trkpt><trkpt lat="45.25884966283743" lon="9.29845114709822"><ele>79.0</ele><time>2026-04-11T09:15:28.001Z</time></trkpt><trkpt lat="45.258644482257196" lon="9.29859281089656"><ele>79.0</ele><time>2026-04-11T09:15:29.001Z</time></trkpt><trkpt lat="45.25843684605438" lon="9.298736935045357"><ele>79.0</ele><time>2026-04-11T09:15:30.001Z</time></trkpt><trkpt lat="45.25822906997736" lon="9.298881569386769"><ele>79.0</ele><time>2026-04-11T09:15:31Z</time></trkpt><trkpt lat="45.25802017032293" lon="9.299027806185332"><ele>78.5</ele><time>2026-04-11T09:15:32Z</time></trkpt><trkpt lat="45.25781185787723" lon="9.29917491160213"><ele>78.0</ele><time>2026-04-11T09:15:33Z</time></trkpt><trkpt lat="45.25760347917141" lon="9.299323489422747"><ele>78.0</ele><time>2026-04-11T09:15:34Z</time></trkpt><trkpt lat="45.25740067513922" lon="9.29947021304359"><ele>78.0</ele><time>2026-04-11T09:15:35Z</time></trkpt><trkpt lat="45.25717640892353" lon="9.299627583620824"><ele>77.5</ele><time>2026-04-11T09:15:36Z</time></trkpt><trkpt lat="45.25696455916168" lon="9.299777234014067"><ele>77.0</ele><time>2026-04-11T09:15:37Z</time></trkpt><trkpt lat="45.256748871375024" lon="9.29992470864508"><ele>77.0</ele><time>2026-04-11T09:15:38Z</time></trkpt><trkpt lat="45.25653459635002" lon="9.300072031749508"><ele>77.0</ele><time>2026-04-11T09:15:39Z</time></trkpt><trkpt lat="45.25631910570914" lon="9.300219097925769"><ele>77.0</ele><time>2026-04-11T09:15:40Z</time></trkpt><trkpt lat="45.256104948388426" lon="9.300367438533165"><ele>77.0</ele><time>2026-04-11T09:15:41Z</time></trkpt><trkpt lat="45.2558909387247" lon="9.30051627638881"><ele>77.5</ele><time>2026-04-11T09:15:42Z</time></trkpt><trkpt lat="45.25567883197307" lon="9.30066551150903"><ele>78.0</ele><time>2026-04-11T09:15:43Z</time></trkpt><trkpt lat="45.25546586469953" lon="9.300817262288051"><ele>78.0</ele><time>2026-04-11T09:15:44Z</time></trkpt><trkpt lat="45.25525395729751" lon="9.30096826229087"><ele>78.0</ele><time>2026-04-11T09:15:45Z</time></trkpt><trkpt lat="45.25504388518009" lon="9.301117188654118"><ele>78.0</ele><time>2026-04-11T09:15:46Z</time></trkpt><trkpt lat="45.25483471648102" lon="9.301265717965958"><ele>78.0</ele><time>2026-04-11T09:15:47Z</time></trkpt><trkpt lat="45.25463376618431" lon="9.30140951508971"><ele>78.0</ele><time>2026-04-11T09:15:48Z</time></trkpt><trkpt lat="45.25445248567827" lon="9.30153962765161"><ele>78.0</ele><time>2026-04-11T09:15:49Z</time></trkpt><trkpt lat="45.254279472303566" lon="9.301665229189451"><ele>78.0</ele><time>2026-04-11T09:15:50Z</time></trkpt><trkpt lat="45.2541281784734" lon="9.301780581849833"><ele>78.0</ele><time>2026-04-11T09:15:51Z</time></trkpt><trkpt lat="45.25398770335694" lon="9.301884082714803"><ele>78.0</ele><time>2026-04-11T09:15:52Z</time></trkpt><trkpt lat="45.25385624781745" lon="9.301978786889737"><ele>78.0</ele><time>2026-04-11T09:15:53Z</time></trkpt><trkpt lat="45.253727579263625" lon="9.302059973085825"><ele>78.0</ele><time>2026-04-11T09:15:54Z</time></trkpt><trkpt lat="45.253598747004546" lon="9.302089920695053"><ele>78.0</ele><time>2026-04-11T09:15:55Z</time></trkpt><trkpt lat="45.253469609523414" lon="9.302053138329747"><ele>78.0</ele><time>2026-04-11T09:15:56Z</time></trkpt><trkpt lat="45.25333358452815" lon="9.301974092833833"><ele>78.0</ele><time>2026-04-11T09:15:57Z</time></trkpt><trkpt lat="45.253202249260625" lon="9.30184273283727"><ele>78.0</ele><time>2026-04-11T09:15:58Z</time></trkpt><trkpt lat="45.253089527311076" lon="9.30166877441621"><ele>78.0</ele><time>2026-04-11T09:15:59Z</time></trkpt><trkpt lat="45.252999130558216" lon="9.30146817084751"><ele>78.0</ele><time>2026-04-11T09:16:00Z</time></trkpt><trkpt lat="45.25292251336121" lon="9.30127646308494"><ele>78.0</ele><time>2026-04-11T09:16:01Z</time></trkpt><trkpt lat="45.25284373195786" lon="9.301106900626447"><ele>78.5</ele><time>2026-04-11T09:16:02Z</time></trkpt><trkpt lat="45.2527528379124" lon="9.300963769885012"><ele>79.0</ele><time>2026-04-11T09:16:03Z</time></trkpt><trkpt lat="45.25263281628538" lon="9.300856811543236"><ele>79.5</ele><time>2026-04-11T09:16:04.001Z</time></trkpt><trkpt lat="45.25249026898918" lon="9.300769162455426"><ele>80.0</ele><time>2026-04-11T09:16:05.001Z</time></trkpt><trkpt lat="45.25234827570282" lon="9.300664404011071"><ele>80.0</ele><time>2026-04-11T09:16:06.001Z</time></trkpt><trkpt lat="45.2522205228824" lon="9.30056004422021"><ele>80.0</ele><time>2026-04-11T09:16:07.001Z</time></trkpt><trkpt lat="45.25210092957053" lon="9.300465809469376"><ele>80.0</ele><time>2026-04-11T09:16:08.001Z</time></trkpt><trkpt lat="45.25198826416394" lon="9.300383729069054"><ele>80.0</ele><time>2026-04-11T09:16:09.001Z</time></trkpt><trkpt lat="45.251877101374895" lon="9.300315285061945"><ele>80.0</ele><time>2026-04-11T09:16:10.001Z</time></trkpt><trkpt lat="45.251775878455376" lon="9.300252821544822"><ele>80.0</ele><time>2026-04-11T09:16:11.001Z</time></trkpt><trkpt lat="45.251686312383484" lon="9.300194252212895"><ele>80.0</ele><time>2026-04-11T09:16:12.001Z</time></trkpt><trkpt lat="45.25161173029278" lon="9.30014355817647"><ele>80.0</ele><time>2026-04-11T09:16:13.001Z</time></trkpt><trkpt lat="45.251548830661" lon="9.300099700935236"><ele>80.0</ele><time>2026-04-11T09:16:14.001Z</time></trkpt><trkpt lat="45.251490094558314" lon="9.30005769682355"><ele>80.0</ele><time>2026-04-11T09:16:15.001Z</time></trkpt><trkpt lat="45.25143222708416" lon="9.300013740263452"><ele>79.8</ele><time>2026-04-11T09:16:16.001Z</time></trkpt><trkpt lat="45.25137541439872" lon="9.299974460433415"><ele>79.6</ele><time>2026-04-11T09:16:17.001Z</time></trkpt><trkpt lat="45.25126479403483" lon="9.29990029395452"><ele>79.4</ele><time>2026-04-11T09:16:19.001Z</time></trkpt><trkpt lat="45.25116756410803" lon="9.299826204262505"><ele>79.2</ele><time>2026-04-11T09:16:21.001Z</time></trkpt><trkpt lat="45.25107746341375" lon="9.299759618721387"><ele>79.0</ele><time>2026-04-11T09:16:23.001Z</time></trkpt><trkpt lat="45.2509947735268" lon="9.299697748922089"><ele>79.0</ele><time>2026-04-11T09:16:25.001Z</time></trkpt><trkpt lat="45.25092528506998" lon="9.299613577288373"><ele>79.0</ele><time>2026-04-11T09:16:27.001Z</time></trkpt><trkpt lat="45.250884096686995" lon="9.299537055622057"><ele>79.0</ele><time>2026-04-11T09:16:29.001Z</time></trkpt><trkpt lat="45.25091377968547" lon="9.29966450708731"><ele>79.0</ele><time>2026-04-11T09:16:36.001Z</time></trkpt><trkpt lat="45.25101907266442" lon="9.299753460619689"><ele>79.0</ele><time>2026-04-11T09:16:38Z</time></trkpt><trkpt lat="45.251073994968195" lon="9.299799700330423"><ele>79.0</ele><time>2026-04-11T09:16:39Z</time></trkpt><trkpt lat="45.25114430973137" lon="9.299844508706105"><ele>79.0</ele><time>2026-04-11T09:16:40Z</time></trkpt><trkpt lat="45.25122659904909" lon="9.2999024700865"><ele>79.0</ele><time>2026-04-11T09:16:41Z</time></trkpt><trkpt lat="45.25131774359182" lon="9.299962632607944"><ele>79.0</ele><time>2026-04-11T09:16:42Z</time></trkpt><trkpt lat="45.25140649880581" lon="9.300029216265072"><ele>79.0</ele><time>2026-04-11T09:16:43Z</time></trkpt><trkpt lat="45.251505489984034" lon="9.300098280998766"><ele>79.0</ele><time>2026-04-11T09:16:44Z</time></trkpt><trkpt lat="45.25161150583674" lon="9.30017070236059"><ele>79.25</ele><time>2026-04-11T09:16:45Z</time></trkpt><trkpt lat="45.2517215268673" lon="9.300251248630815"><ele>79.5</ele><time>2026-04-11T09:16:46Z</time></trkpt><trkpt lat="45.25184155087675" lon="9.30032778807002"><ele>79.75</ele><time>2026-04-11T09:16:47Z</time></trkpt><trkpt lat="45.25195864499067" lon="9.300406092635388"><ele>80.0</ele><time>2026-04-11T09:16:48Z</time></trkpt><trkpt lat="45.252073734869036" lon="9.300489160127452"><ele>80.0</ele><time>2026-04-11T09:16:49Z</time></trkpt><trkpt lat="45.25219229443914" lon="9.300574851500174"><ele>80.0</ele><time>2026-04-11T09:16:50Z</time></trkpt><trkpt lat="45.25230917011796" lon="9.300660599651136"><ele>80.0</ele><time>2026-04-11T09:16:51Z</time></trkpt><trkpt lat="45.252414476233334" lon="9.300742461281912"><ele>80.0</ele><time>2026-04-11T09:16:52Z</time></trkpt><trkpt lat="45.25251409362691" lon="9.30081554409723"><ele>80.0</ele><time>2026-04-11T09:16:53Z</time></trkpt><trkpt lat="45.25260540118681" lon="9.300886173557702"><ele>80.0</ele><time>2026-04-11T09:16:54Z</time></trkpt><trkpt lat="45.252689470595115" lon="9.300960717288167"><ele>80.0</ele><time>2026-04-11T09:16:55Z</time></trkpt><trkpt lat="45.25276818164481" lon="9.301042543630835"><ele>80.0</ele><time>2026-04-11T09:16:56Z</time></trkpt><trkpt lat="45.252830322837525" lon="9.301149845371977"><ele>80.0</ele><time>2026-04-11T09:16:57Z</time></trkpt><trkpt lat="45.252884046342686" lon="9.301268465229274"><ele>80.0</ele><time>2026-04-11T09:16:58Z</time></trkpt><trkpt lat="45.25294014155703" lon="9.3013907977093"><ele>80.0</ele><time>2026-04-11T09:16:59Z</time></trkpt><trkpt lat="45.25299759759181" lon="9.30151202068987"><ele>80.0</ele><time>2026-04-11T09:17:00Z</time></trkpt><trkpt lat="45.2530522699468" lon="9.301631381027935"><ele>80.0</ele><time>2026-04-11T09:17:01Z</time></trkpt><trkpt lat="45.25310758609511" lon="9.3017316419404"><ele>80.0</ele><time>2026-04-11T09:17:02Z</time></trkpt><trkpt lat="45.25315623583986" lon="9.301819767936452"><ele>79.66666666666667</ele><time>2026-04-11T09:17:03Z</time></trkpt><trkpt lat="45.25320363027872" lon="9.301898068371491"><ele>79.33333333333334</ele><time>2026-04-11T09:17:04Z</time></trkpt><trkpt lat="45.25324707483613" lon="9.301964103846752"><ele>79.0</ele><time>2026-04-11T09:17:05Z</time></trkpt><trkpt lat="45.25328065809421" lon="9.302109138418972"><ele>78.66666666666667</ele><time>2026-04-11T09:17:07Z</time></trkpt><trkpt lat="45.2533707474564" lon="9.302189778335906"><ele>78.33333333333333</ele><time>2026-04-11T09:17:09Z</time></trkpt><trkpt lat="45.25338240215644" lon="9.30228618901759"><ele>78.0</ele><time>2026-04-11T09:17:12Z</time></trkpt><trkpt lat="45.2534985893689" lon="9.302349932099162"><ele>78.0</ele><time>2026-04-11T09:17:40.001Z</time></trkpt><trkpt lat="45.25362305729675" lon="9.302221362241333"><ele>78.0</ele><time>2026-04-11T09:17:42.001Z</time></trkpt><trkpt lat="45.25393583815181" lon="9.30314031957095"><ele>78.0</ele><time>2026-04-11T09:17:46.001Z</time></trkpt><trkpt lat="45.2540334173566" lon="9.303321844539939"><ele>78.0</ele><time>2026-04-11T09:17:47.001Z</time></trkpt><trkpt lat="45.2541270433023" lon="9.303491261253312"><ele>78.0</ele><time>2026-04-11T09:17:48.001Z</time></trkpt><trkpt lat="45.254221593451696" lon="9.303668520926214"><ele>78.0</ele><time>2026-04-11T09:17:49.001Z</time></trkpt><trkpt lat="45.25432345500323" lon="9.303853157856695"><ele>78.0</ele><time>2026-04-11T09:17:50.001Z</time></trkpt><trkpt lat="45.254502691187945" lon="9.304182500418834"><ele>78.0</ele><time>2026-04-11T09:17:52.001Z</time></trkpt><trkpt lat="45.25458651900032" lon="9.304337632038326"><ele>78.0</ele><time>2026-04-11T09:17:53.001Z</time></trkpt><trkpt lat="45.254674243173994" lon="9.304498440091505"><ele>78.0</ele><time>2026-04-11T09:17:54.001Z</time></trkpt><trkpt lat="45.254766142414155" lon="9.304669854370731"><ele>78.0</ele><time>2026-04-11T09:17:55.001Z</time></trkpt><trkpt lat="45.25486673786081" lon="9.30485299967527"><ele>78.33333333333333</ele><time>2026-04-11T09:17:56.001Z</time></trkpt><trkpt lat="45.25496804612593" lon="9.305040943928317"><ele>78.66666666666666</ele><time>2026-04-11T09:17:57.001Z</time></trkpt><trkpt lat="45.25505917601157" lon="9.305206294501014"><ele>79.0</ele><time>2026-04-11T09:17:58.001Z</time></trkpt><trkpt lat="45.25514428655976" lon="9.305366008116057"><ele>79.0</ele><time>2026-04-11T09:17:59.001Z</time></trkpt><trkpt lat="45.25522815202109" lon="9.305519342101936"><ele>79.0</ele><time>2026-04-11T09:18:00.001Z</time></trkpt><trkpt lat="45.25530760477056" lon="9.305659971586254"><ele>79.0</ele><time>2026-04-11T09:18:01.001Z</time></trkpt><trkpt lat="45.25537679528916" lon="9.305786913720508"><ele>79.0</ele><time>2026-04-11T09:18:02.001Z</time></trkpt><trkpt lat="45.25543739413533" lon="9.305905170442516"><ele>79.2</ele><time>2026-04-11T09:18:03.001Z</time></trkpt><trkpt lat="45.25549538606261" lon="9.30601867333375"><ele>79.4</ele><time>2026-04-11T09:18:04.001Z</time></trkpt><trkpt lat="45.25555556977127" lon="9.306146711505889"><ele>79.6</ele><time>2026-04-11T09:18:05.001Z</time></trkpt><trkpt lat="45.255617592583704" lon="9.30628244866181"><ele>79.8</ele><time>2026-04-11T09:18:06.001Z</time></trkpt><trkpt lat="45.25568856797077" lon="9.30642670221162"><ele>80.0</ele><time>2026-04-11T09:18:07.001Z</time></trkpt><trkpt lat="45.255773642218955" lon="9.3065675648725"><ele>79.5</ele><time>2026-04-11T09:18:08.001Z</time></trkpt><trkpt lat="45.25586016091345" lon="9.306718492143496"><ele>79.0</ele><time>2026-04-11T09:18:09.001Z</time></trkpt><trkpt lat="45.25594170238067" lon="9.306860091659757"><ele>78.5</ele><time>2026-04-11T09:18:10.001Z</time></trkpt><trkpt lat="45.25601608024599" lon="9.306984197200661"><ele>78.0</ele><time>2026-04-11T09:18:11.001Z</time></trkpt><trkpt lat="45.25608393279819" lon="9.307112516329633"><ele>78.0</ele><time>2026-04-11T09:18:12.001Z</time></trkpt><trkpt lat="45.25614529756405" lon="9.307236506674496"><ele>78.0</ele><time>2026-04-11T09:18:13.001Z</time></trkpt><trkpt lat="45.2562042269702" lon="9.307364634730904"><ele>78.0</ele><time>2026-04-11T09:18:14.001Z</time></trkpt><trkpt lat="45.25625934478942" lon="9.307481749095713"><ele>78.0</ele><time>2026-04-11T09:18:15.001Z</time></trkpt><trkpt lat="45.25631719080086" lon="9.307603528201692"><ele>78.0</ele><time>2026-04-11T09:18:16.001Z</time></trkpt><trkpt lat="45.25637980013022" lon="9.307730968769206"><ele>78.0</ele><time>2026-04-11T09:18:17.001Z</time></trkpt><trkpt lat="45.256447072362896" lon="9.307866892801831"><ele>78.0</ele><time>2026-04-11T09:18:18.001Z</time></trkpt><trkpt lat="45.256525414815336" lon="9.308013099487857"><ele>78.0</ele><time>2026-04-11T09:18:19.001Z</time></trkpt><trkpt lat="45.25661275985446" lon="9.30816856434242"><ele>78.0</ele><time>2026-04-11T09:18:20.001Z</time></trkpt><trkpt lat="45.25669560161734" lon="9.30831047578059"><ele>78.0</ele><time>2026-04-11T09:18:21.001Z</time></trkpt><trkpt lat="45.25676404234206" lon="9.30843955737185"><ele>78.0</ele><time>2026-04-11T09:18:22.001Z</time></trkpt><trkpt lat="45.25682179782456" lon="9.308560614644545"><ele>78.0</ele><time>2026-04-11T09:18:23.001Z</time></trkpt><trkpt lat="45.25687557368978" lon="9.308673796441706"><ele>78.0</ele><time>2026-04-11T09:18:24.001Z</time></trkpt><trkpt lat="45.25692429311267" lon="9.308777973076637"><ele>78.0</ele><time>2026-04-11T09:18:25.001Z</time></trkpt><trkpt lat="45.25697200878231" lon="9.308878381587318"><ele>78.0</ele><time>2026-04-11T09:18:26.001Z</time></trkpt><trkpt lat="45.257023811255955" lon="9.308985830428448"><ele>78.0</ele><time>2026-04-11T09:18:27.001Z</time></trkpt><trkpt lat="45.257088597040976" lon="9.309095952115308"><ele>78.0</ele><time>2026-04-11T09:18:28.001Z</time></trkpt><trkpt lat="45.2571709946658" lon="9.309216177209723"><ele>78.0</ele><time>2026-04-11T09:18:29.001Z</time></trkpt><trkpt lat="45.257259948696785" lon="9.309354447878563"><ele>78.0</ele><time>2026-04-11T09:18:30.001Z</time></trkpt><trkpt lat="45.257347461531985" lon="9.30949876883292"><ele>78.0</ele><time>2026-04-11T09:18:31.001Z</time></trkpt><trkpt lat="45.25742555604937" lon="9.309626253210467"><ele>78.0</ele><time>2026-04-11T09:18:32.001Z</time></trkpt><trkpt lat="45.25749430826844" lon="9.309745227545092"><ele>78.0</ele><time>2026-04-11T09:18:33.001Z</time></trkpt><trkpt lat="45.25755943825577" lon="9.309862861764877"><ele>78.0</ele><time>2026-04-11T09:18:34.001Z</time></trkpt><trkpt lat="45.25759893539292" lon="9.309956386608976"><ele>78.0</ele><time>2026-04-11T09:18:35.001Z</time></trkpt><trkpt lat="45.257629603772095" lon="9.310051295022932"><ele>78.0</ele><time>2026-04-11T09:18:36.001Z</time></trkpt><trkpt lat="45.25766925947215" lon="9.310177764685527"><ele>78.0</ele><time>2026-04-11T09:18:37.001Z</time></trkpt><trkpt lat="45.25771503732699" lon="9.310321237220165"><ele>78.0</ele><time>2026-04-11T09:18:38.001Z</time></trkpt><trkpt lat="45.257769604317986" lon="9.31047523179056"><ele>78.0</ele><time>2026-04-11T09:18:39.001Z</time></trkpt><trkpt lat="45.25782467861431" lon="9.310641982589921"><ele>78.0</ele><time>2026-04-11T09:18:40.001Z</time></trkpt><trkpt lat="45.257884214899555" lon="9.310822045665128"><ele>78.0</ele><time>2026-04-11T09:18:41.001Z</time></trkpt><trkpt lat="45.257942852359605" lon="9.310994003053978"><ele>78.0</ele><time>2026-04-11T09:18:42.001Z</time></trkpt><trkpt lat="45.25799143141435" lon="9.311143192779767"><ele>78.0</ele><time>2026-04-11T09:18:43.001Z</time></trkpt><trkpt lat="45.25803839220942" lon="9.311281511970769"><ele>78.0</ele><time>2026-04-11T09:18:44.001Z</time></trkpt><trkpt lat="45.258081032291116" lon="9.311411554191745"><ele>78.0</ele><time>2026-04-11T09:18:45.001Z</time></trkpt><trkpt lat="45.2581267883709" lon="9.31154788210935"><ele>78.0</ele><time>2026-04-11T09:18:46.001Z</time></trkpt><trkpt lat="45.25816837209026" lon="9.311665512727407"><ele>78.0</ele><time>2026-04-11T09:18:47.001Z</time></trkpt><trkpt lat="45.258202456918184" lon="9.31175677056978"><ele>78.0</ele><time>2026-04-11T09:18:48.001Z</time></trkpt><trkpt lat="45.25822775127503" lon="9.31187724611748"><ele>78.0</ele><time>2026-04-11T09:18:50.001Z</time></trkpt><trkpt lat="45.25817504489192" lon="9.311967182904084"><ele>78.0</ele><time>2026-04-11T09:18:52Z</time></trkpt><trkpt lat="45.25807617229706" lon="9.31208316078019"><ele>78.0</ele><time>2026-04-11T09:18:54Z</time></trkpt><trkpt lat="45.25799305711137" lon="9.312170681151347"><ele>78.0</ele><time>2026-04-11T09:18:55Z</time></trkpt><trkpt lat="45.257890559054324" lon="9.312284379358157"><ele>78.0</ele><time>2026-04-11T09:18:56Z</time></trkpt><trkpt lat="45.25778619597149" lon="9.31240004728979"><ele>78.0</ele><time>2026-04-11T09:18:57Z</time></trkpt><trkpt lat="45.25769578624824" lon="9.31249956198657"><ele>78.0</ele><time>2026-04-11T09:18:58Z</time></trkpt><trkpt lat="45.25760329066754" lon="9.31259951219194"><ele>78.0</ele><time>2026-04-11T09:18:59Z</time></trkpt><trkpt lat="45.257523541508036" lon="9.312689914924869"><ele>78.0</ele><time>2026-04-11T09:19:00Z</time></trkpt><trkpt lat="45.25745317720762" lon="9.31276857386537"><ele>78.0</ele><time>2026-04-11T09:19:01Z</time></trkpt><trkpt lat="45.25739766253917" lon="9.312836813155084"><ele>78.0</ele><time>2026-04-11T09:19:02Z</time></trkpt><trkpt lat="45.257325144219784" lon="9.312939295719627"><ele>78.0</ele><time>2026-04-11T09:19:04Z</time></trkpt><trkpt lat="45.25726424478027" lon="9.313002462556613"><ele>78.0</ele><time>2026-04-11T09:19:06Z</time></trkpt><trkpt lat="45.257205427354776" lon="9.313061055742173"><ele>78.0</ele><time>2026-04-11T09:19:08Z</time></trkpt><trkpt lat="45.25714059644842" lon="9.313104628155132"><ele>78.0</ele><time>2026-04-11T09:19:12Z</time></trkpt><trkpt lat="45.25705153525365" lon="9.312968278723712"><ele>78.83333333333333</ele><time>2026-04-11T09:19:15Z</time></trkpt><trkpt lat="45.25700293359171" lon="9.312864016071618"><ele>79.66666666666667</ele><time>2026-04-11T09:19:16Z</time></trkpt><trkpt lat="45.25694923952168" lon="9.31278081951966"><ele>80.5</ele><time>2026-04-11T09:19:17Z</time></trkpt><trkpt lat="45.25689259185319" lon="9.312694151778935"><ele>81.33333333333334</ele><time>2026-04-11T09:19:18Z</time></trkpt><trkpt lat="45.25683402454755" lon="9.312595250797653"><ele>82.16666666666667</ele><time>2026-04-11T09:19:19Z</time></trkpt><trkpt lat="45.25677303527367" lon="9.312492437246751"><ele>83.0</ele><time>2026-04-11T09:19:20Z</time></trkpt><trkpt lat="45.25670835534849" lon="9.3123893889758"><ele>83.0</ele><time>2026-04-11T09:19:21Z</time></trkpt><trkpt lat="45.25664396489618" lon="9.312284467242243"><ele>83.0</ele><time>2026-04-11T09:19:22Z</time></trkpt><trkpt lat="45.25657682511272" lon="9.312171433388508"><ele>83.0</ele><time>2026-04-11T09:19:23Z</time></trkpt><trkpt lat="45.25651059668307" lon="9.312059948763059"><ele>83.0</ele><time>2026-04-11T09:19:24Z</time></trkpt><trkpt lat="45.25644124017237" lon="9.311943632031225"><ele>83.0</ele><time>2026-04-11T09:19:25Z</time></trkpt><trkpt lat="45.256371825221954" lon="9.311827109213095"><ele>83.2</ele><time>2026-04-11T09:19:26Z</time></trkpt><trkpt lat="45.2563033595086" lon="9.311708150904312"><ele>83.4</ele><time>2026-04-11T09:19:27Z</time></trkpt><trkpt lat="45.256237351724735" lon="9.311596533601303"><ele>83.60000000000001</ele><time>2026-04-11T09:19:28Z</time></trkpt><trkpt lat="45.25617358199801" lon="9.311488292979716"><ele>83.80000000000001</ele><time>2026-04-11T09:19:29Z</time></trkpt><trkpt lat="45.256112970753115" lon="9.311380984898886"><ele>84.0</ele><time>2026-04-11T09:19:30Z</time></trkpt><trkpt lat="45.25605323961759" lon="9.311268679651041"><ele>83.6</ele><time>2026-04-11T09:19:31Z</time></trkpt><trkpt lat="45.25598964172298" lon="9.311160404168866"><ele>83.2</ele><time>2026-04-11T09:19:32Z</time></trkpt><trkpt lat="45.25592510675424" lon="9.311053899075485"><ele>82.8</ele><time>2026-04-11T09:19:33Z</time></trkpt><trkpt lat="45.25586448722589" lon="9.310959448057284"><ele>82.39999999999999</ele><time>2026-04-11T09:19:34Z</time></trkpt><trkpt lat="45.25579967910267" lon="9.310887226340553"><ele>82.0</ele><time>2026-04-11T09:19:35Z</time></trkpt><trkpt lat="45.255710693343076" lon="9.310827620252843"><ele>82.5</ele><time>2026-04-11T09:19:36Z</time></trkpt><trkpt lat="45.255609010741914" lon="9.310767739854986"><ele>83.0</ele><time>2026-04-11T09:19:37Z</time></trkpt><trkpt lat="45.2555050801549" lon="9.310716563087194"><ele>83.5</ele><time>2026-04-11T09:19:38Z</time></trkpt><trkpt lat="45.25539542642171" lon="9.310655513583185"><ele>84.0</ele><time>2026-04-11T09:19:39Z</time></trkpt><trkpt lat="45.25528488693451" lon="9.310596202473741"><ele>82.75</ele><time>2026-04-11T09:19:40Z</time></trkpt><trkpt lat="45.255176065505445" lon="9.31053874553075"><ele>81.5</ele><time>2026-04-11T09:19:41Z</time></trkpt><trkpt lat="45.255067975627405" lon="9.31047750394158"><ele>80.25</ele><time>2026-04-11T09:19:42Z</time></trkpt><trkpt lat="45.25495732224213" lon="9.310415146150417"><ele>79.0</ele><time>2026-04-11T09:19:43Z</time></trkpt><trkpt lat="45.25484518615148" lon="9.310352109642192"><ele>79.25</ele><time>2026-04-11T09:19:44Z</time></trkpt><trkpt lat="45.25472929432075" lon="9.310287991654489"><ele>79.5</ele><time>2026-04-11T09:19:45.001Z</time></trkpt><trkpt lat="45.25460838299159" lon="9.310221477904427"><ele>79.75</ele><time>2026-04-11T09:19:46.001Z</time></trkpt><trkpt lat="45.25448562039913" lon="9.31015580421607"><ele>80.0</ele><time>2026-04-11T09:19:47.001Z</time></trkpt><trkpt lat="45.25436660630052" lon="9.310089669407935"><ele>80.0</ele><time>2026-04-11T09:19:48.001Z</time></trkpt><trkpt lat="45.25425007153413" lon="9.31002369247451"><ele>80.0</ele><time>2026-04-11T09:19:49.001Z</time></trkpt><trkpt lat="45.25413196336819" lon="9.309957107606797"><ele>80.0</ele><time>2026-04-11T09:19:50.001Z</time></trkpt><trkpt lat="45.254008916241254" lon="9.309889484079267"><ele>80.0</ele><time>2026-04-11T09:19:51.001Z</time></trkpt><trkpt lat="45.25388808067009" lon="9.30981885022797"><ele>80.5</ele><time>2026-04-11T09:19:52.001Z</time></trkpt><trkpt lat="45.253768917390936" lon="9.309752892670323"><ele>81.0</ele><time>2026-04-11T09:19:53.001Z</time></trkpt><trkpt lat="45.25365390222683" lon="9.309687359889011"><ele>81.5</ele><time>2026-04-11T09:19:54.001Z</time></trkpt><trkpt lat="45.253540673542254" lon="9.309621998476315"><ele>82.0</ele><time>2026-04-11T09:19:55.001Z</time></trkpt><trkpt lat="45.25343264802425" lon="9.309555053923257"><ele>82.39999999999999</ele><time>2026-04-11T09:19:56Z</time></trkpt><trkpt lat="45.25333516300151" lon="9.309501157921753"><ele>82.8</ele><time>2026-04-11T09:19:57Z</time></trkpt><trkpt lat="45.25324440964432" lon="9.309446054275487"><ele>83.2</ele><time>2026-04-11T09:19:58Z</time></trkpt><trkpt lat="45.25315200422961" lon="9.309397707670117"><ele>83.6</ele><time>2026-04-11T09:19:59Z</time></trkpt><trkpt lat="45.25306896103953" lon="9.309347801419994"><ele>84.0</ele><time>2026-04-11T09:20:00Z</time></trkpt><trkpt lat="45.25299202749992" lon="9.309270406368508"><ele>84.0</ele><time>2026-04-11T09:20:01Z</time></trkpt><trkpt lat="45.25291278931805" lon="9.309177126986096"><ele>84.0</ele><time>2026-04-11T09:20:02Z</time></trkpt><trkpt lat="45.25281920412514" lon="9.309087810849894"><ele>84.0</ele><time>2026-04-11T09:20:03Z</time></trkpt><trkpt lat="45.25272375706858" lon="9.308999540212238"><ele>84.0</ele><time>2026-04-11T09:20:04Z</time></trkpt><trkpt lat="45.252629678035" lon="9.30891497167894"><ele>84.0</ele><time>2026-04-11T09:20:05Z</time></trkpt><trkpt lat="45.252534787788804" lon="9.308823673385358"><ele>83.75</ele><time>2026-04-11T09:20:06Z</time></trkpt><trkpt lat="45.2524349207974" lon="9.308731078911942"><ele>83.5</ele><time>2026-04-11T09:20:07Z</time></trkpt><trkpt lat="45.25232768742406" lon="9.308635560416226"><ele>83.25</ele><time>2026-04-11T09:20:08Z</time></trkpt><trkpt lat="45.2522221516772" lon="9.308541181588591"><ele>83.0</ele><time>2026-04-11T09:20:09Z</time></trkpt><trkpt lat="45.252123954778284" lon="9.308457253193215"><ele>83.0</ele><time>2026-04-11T09:20:10Z</time></trkpt><trkpt lat="45.25202692308398" lon="9.30837486453339"><ele>83.0</ele><time>2026-04-11T09:20:11Z</time></trkpt><trkpt lat="45.25193019525615" lon="9.308287255632738"><ele>83.0</ele><time>2026-04-11T09:20:12Z</time></trkpt><trkpt lat="45.251832812084785" lon="9.308197625619103"><ele>83.0</ele><time>2026-04-11T09:20:13Z</time></trkpt><trkpt lat="45.25174464900482" lon="9.308114768830048"><ele>83.0</ele><time>2026-04-11T09:20:14Z</time></trkpt><trkpt lat="45.25165493552009" lon="9.308031150922268"><ele>82.80000000000001</ele><time>2026-04-11T09:20:15Z</time></trkpt><trkpt lat="45.25156125051721" lon="9.307948512942193"><ele>82.6</ele><time>2026-04-11T09:20:16Z</time></trkpt><trkpt lat="45.251467546042825" lon="9.307863864312527"><ele>82.4</ele><time>2026-04-11T09:20:17Z</time></trkpt><trkpt lat="45.2513831915927" lon="9.307788184363709"><ele>82.19999999999999</ele><time>2026-04-11T09:20:18Z</time></trkpt><trkpt lat="45.25131058074462" lon="9.307723264306196"><ele>82.0</ele><time>2026-04-11T09:20:19Z</time></trkpt><trkpt lat="45.25125346523045" lon="9.307673731185172"><ele>82.0</ele><time>2026-04-11T09:20:20Z</time></trkpt><trkpt lat="45.25118965452976" lon="9.307617607686021"><ele>82.0</ele><time>2026-04-11T09:20:22Z</time></trkpt><trkpt lat="45.25111809768809" lon="9.307643214716059"><ele>82.0</ele><time>2026-04-11T09:20:26Z</time></trkpt><trkpt lat="45.251104841340215" lon="9.307769282632389"><ele>82.0</ele><time>2026-04-11T09:20:28Z</time></trkpt><trkpt lat="45.25108849329881" lon="9.307920973225741"><ele>82.0</ele><time>2026-04-11T09:20:31Z</time></trkpt><trkpt lat="45.2510690507591" lon="9.308043726990174"><ele>82.0</ele><time>2026-04-11T09:20:32Z</time></trkpt><trkpt lat="45.25105854693891" lon="9.308184543485643"><ele>82.0</ele><time>2026-04-11T09:20:33Z</time></trkpt><trkpt lat="45.25105888312798" lon="9.30833656064843"><ele>82.0</ele><time>2026-04-11T09:20:34Z</time></trkpt><trkpt lat="45.25106232004295" lon="9.308498260449289"><ele>82.0</ele><time>2026-04-11T09:20:35Z</time></trkpt><trkpt lat="45.251071989518046" lon="9.308665313587733"><ele>82.0</ele><time>2026-04-11T09:20:36Z</time></trkpt><trkpt lat="45.251063827775766" lon="9.308823652242522"><ele>81.66666666666666</ele><time>2026-04-11T09:20:36.999Z</time></trkpt><trkpt lat="45.251070523005865" lon="9.308965197892112"><ele>81.33333333333333</ele><time>2026-04-11T09:20:37.999Z</time></trkpt><trkpt lat="45.25107304047719" lon="9.309093964925943"><ele>81.0</ele><time>2026-04-11T09:20:38.999Z</time></trkpt><trkpt lat="45.25107828326528" lon="9.309211845815625"><ele>80.66666666666667</ele><time>2026-04-11T09:20:40Z</time></trkpt><trkpt lat="45.251076807309914" lon="9.309318593530465"><ele>80.33333333333334</ele><time>2026-04-11T09:20:41Z</time></trkpt><trkpt lat="45.25108170330858" lon="9.309408749680381"><ele>80.0</ele><time>2026-04-11T09:20:42Z</time></trkpt><trkpt lat="45.2510856206854" lon="9.309541805518124"><ele>80.0</ele><time>2026-04-11T09:20:44Z</time></trkpt><trkpt lat="45.2510838051774" lon="9.30966997754849"><ele>80.0</ele><time>2026-04-11T09:20:47Z</time></trkpt><trkpt lat="45.251065717978314" lon="9.309756623635206"><ele>80.0</ele><time>2026-04-11T09:21:43Z</time></trkpt><trkpt lat="45.25107046866497" lon="9.30964183358019"><ele>80.0</ele><time>2026-04-11T09:22:05Z</time></trkpt><trkpt lat="45.251072054040925" lon="9.309533725993267"><ele>80.0</ele><time>2026-04-11T09:22:08Z</time></trkpt><trkpt lat="45.251085507006586" lon="9.309424035158184"><ele>80.0</ele><time>2026-04-11T09:22:12Z</time></trkpt><trkpt lat="45.25107747707367" lon="9.309243627521566"><ele>80.0</ele><time>2026-04-11T09:22:14Z</time></trkpt><trkpt lat="45.25107589741495" lon="9.309117482203247"><ele>80.0</ele><time>2026-04-11T09:22:15Z</time></trkpt><trkpt lat="45.25107354010776" lon="9.308988174825949"><ele>80.0</ele><time>2026-04-11T09:22:16Z</time></trkpt><trkpt lat="45.251072687278125" lon="9.308846667967932"><ele>80.0</ele><time>2026-04-11T09:22:17Z</time></trkpt><trkpt lat="45.251070678787556" lon="9.3087015261955"><ele>80.0</ele><time>2026-04-11T09:22:18Z</time></trkpt><trkpt lat="45.25106870331634" lon="9.308559597069369"><ele>80.33333333333334</ele><time>2026-04-11T09:22:19Z</time></trkpt><trkpt lat="45.25106891773868" lon="9.308433307182153"><ele>80.66666666666667</ele><time>2026-04-11T09:22:20Z</time></trkpt><trkpt lat="45.251095069905844" lon="9.308323002239133"><ele>81.0</ele><time>2026-04-11T09:22:21Z</time></trkpt><trkpt lat="45.25109772528146" lon="9.30821236159555"><ele>81.33333333333333</ele><time>2026-04-11T09:22:22Z</time></trkpt><trkpt lat="45.251101625868436" lon="9.308112401650352"><ele>81.66666666666666</ele><time>2026-04-11T09:22:23Z</time></trkpt><trkpt lat="45.25110607241402" lon="9.308016051233805"><ele>82.0</ele><time>2026-04-11T09:22:24Z</time></trkpt><trkpt lat="45.25112151269712" lon="9.307860179632181"><ele>82.0</ele><time>2026-04-11T09:22:26Z</time></trkpt><trkpt lat="45.25112932940715" lon="9.30770851451449"><ele>82.0</ele><time>2026-04-11T09:22:28Z</time></trkpt><trkpt lat="45.25116153824398" lon="9.307619861242785"><ele>82.0</ele><time>2026-04-11T09:22:30Z</time></trkpt><trkpt lat="45.25092196585073" lon="9.307561852401374"><ele>82.0</ele><time>2026-04-11T09:23:02Z</time></trkpt><trkpt lat="45.25078665421617" lon="9.307523985133287"><ele>82.0</ele><time>2026-04-11T09:23:04Z</time></trkpt><trkpt lat="45.2507073014306" lon="9.307503708119246"><ele>82.0</ele><time>2026-04-11T09:23:05Z</time></trkpt><trkpt lat="45.25062545486325" lon="9.307481012182087"><ele>82.0</ele><time>2026-04-11T09:23:06Z</time></trkpt><trkpt lat="45.250550033912035" lon="9.307460866000316"><ele>82.0</ele><time>2026-04-11T09:23:07Z</time></trkpt><trkpt lat="45.25047601744824" lon="9.307444022346637"><ele>82.0</ele><time>2026-04-11T09:23:08Z</time></trkpt><trkpt lat="45.25040481633768" lon="9.30742392074668"><ele>82.0</ele><time>2026-04-11T09:23:09Z</time></trkpt><trkpt lat="45.25029079752452" lon="9.307395621488904"><ele>81.0</ele><time>2026-04-11T09:23:11Z</time></trkpt><trkpt lat="45.250217271966704" lon="9.307372211609843"><ele>80.0</ele><time>2026-04-11T09:23:13Z</time></trkpt><trkpt lat="45.25015351140043" lon="9.307347558368571"><ele>79.0</ele><time>2026-04-11T09:23:15Z</time></trkpt><trkpt lat="45.25007547544853" lon="9.307326173362357"><ele>78.0</ele><time>2026-04-11T09:23:17Z</time></trkpt><trkpt lat="45.2500094119975" lon="9.307296335352575"><ele>77.0</ele><time>2026-04-11T09:23:21Z</time></trkpt><trkpt lat="45.24993103351023" lon="9.307279024777136"><ele>76.0</ele><time>2026-04-11T09:23:27Z</time></trkpt><trkpt lat="45.25001269194026" lon="9.307298180735213"><ele>76.0</ele><time>2026-04-11T09:24:01Z</time></trkpt><trkpt lat="45.250107159491705" lon="9.307333670024574"><ele>76.0</ele><time>2026-04-11T09:24:03Z</time></trkpt><trkpt lat="45.25019453065294" lon="9.307362300252176"><ele>76.0</ele><time>2026-04-11T09:24:05Z</time></trkpt><trkpt lat="45.250298601134766" lon="9.30739416355779"><ele>76.0</ele><time>2026-04-11T09:24:07Z</time></trkpt><trkpt lat="45.250416771509826" lon="9.307423653650192"><ele>76.0</ele><time>2026-04-11T09:24:09.001Z</time></trkpt><trkpt lat="45.25048507126204" lon="9.307442346009367"><ele>76.0</ele><time>2026-04-11T09:24:10.001Z</time></trkpt><trkpt lat="45.2505569421116" lon="9.307462681495224"><ele>76.0</ele><time>2026-04-11T09:24:11.001Z</time></trkpt><trkpt lat="45.25062984778173" lon="9.307484366311066"><ele>76.0</ele><time>2026-04-11T09:24:12.001Z</time></trkpt><trkpt lat="45.250714505835774" lon="9.307504486671572"><ele>76.0</ele><time>2026-04-11T09:24:13.001Z</time></trkpt><trkpt lat="45.25081576177209" lon="9.30753271092218"><ele>76.0</ele><time>2026-04-11T09:24:14.001Z</time></trkpt><trkpt lat="45.25090712836206" lon="9.307558652535322"><ele>76.0</ele><time>2026-04-11T09:24:15.001Z</time></trkpt><trkpt lat="45.25098081546194" lon="9.307578519057236"><ele>77.19999999999999</ele><time>2026-04-11T09:24:16.001Z</time></trkpt><trkpt lat="45.25104808002831" lon="9.307593266635728"><ele>78.39999999999999</ele><time>2026-04-11T09:24:17.001Z</time></trkpt><trkpt lat="45.251133777632" lon="9.307608394473904"><ele>79.6</ele><time>2026-04-11T09:24:19Z</time></trkpt><trkpt lat="45.25124921565906" lon="9.307679418526341"><ele>80.8</ele><time>2026-04-11T09:24:21Z</time></trkpt><trkpt lat="45.25131146530151" lon="9.307741541090893"><ele>82.0</ele><time>2026-04-11T09:24:22Z</time></trkpt><trkpt lat="45.25139375408742" lon="9.307815413701404"><ele>82.19999999999999</ele><time>2026-04-11T09:24:23Z</time></trkpt><trkpt lat="45.25147856263826" lon="9.307891336450277"><ele>82.4</ele><time>2026-04-11T09:24:24Z</time></trkpt><trkpt lat="45.25156520427454" lon="9.307970032635525"><ele>82.6</ele><time>2026-04-11T09:24:25Z</time></trkpt><trkpt lat="45.251647381703265" lon="9.308044149969009"><ele>82.80000000000001</ele><time>2026-04-11T09:24:26Z</time></trkpt><trkpt lat="45.251732275829184" lon="9.308122871847367"><ele>83.0</ele><time>2026-04-11T09:24:27Z</time></trkpt><trkpt lat="45.25182056543933" lon="9.308203961146663"><ele>83.0</ele><time>2026-04-11T09:24:28Z</time></trkpt><trkpt lat="45.25190972384157" lon="9.308282826906556"><ele>83.0</ele><time>2026-04-11T09:24:29Z</time></trkpt><trkpt lat="45.25199273383518" lon="9.308359883864942"><ele>83.0</ele><time>2026-04-11T09:24:30Z</time></trkpt><trkpt lat="45.25207270407781" lon="9.308433863748714"><ele>83.0</ele><time>2026-04-11T09:24:31Z</time></trkpt><trkpt lat="45.25215610716826" lon="9.30850540956025"><ele>83.0</ele><time>2026-04-11T09:24:32Z</time></trkpt><trkpt lat="45.252235165716115" lon="9.30857432480487"><ele>83.2</ele><time>2026-04-11T09:24:33Z</time></trkpt><trkpt lat="45.252321641546445" lon="9.308650156280677"><ele>83.4</ele><time>2026-04-11T09:24:34Z</time></trkpt><trkpt lat="45.252408606336296" lon="9.30872794620907"><ele>83.60000000000001</ele><time>2026-04-11T09:24:35Z</time></trkpt><trkpt lat="45.25249730680099" lon="9.308807765836892"><ele>83.80000000000001</ele><time>2026-04-11T09:24:36Z</time></trkpt><trkpt lat="45.252584623834764" lon="9.30888750073264"><ele>84.0</ele><time>2026-04-11T09:24:37Z</time></trkpt><trkpt lat="45.25267586849903" lon="9.308974840191745"><ele>84.0</ele><time>2026-04-11T09:24:38Z</time></trkpt><trkpt lat="45.25276189508421" lon="9.309055913855778"><ele>84.0</ele><time>2026-04-11T09:24:39Z</time></trkpt><trkpt lat="45.25284772267794" lon="9.309138646698226"><ele>84.0</ele><time>2026-04-11T09:24:40Z</time></trkpt><trkpt lat="45.25293846292769" lon="9.309223330339986"><ele>84.0</ele><time>2026-04-11T09:24:41Z</time></trkpt><trkpt lat="45.253021612859854" lon="9.309300097403003"><ele>84.0</ele><time>2026-04-11T09:24:42Z</time></trkpt><trkpt lat="45.2530971189292" lon="9.309375377832785"><ele>82.8</ele><time>2026-04-11T09:24:43Z</time></trkpt><trkpt lat="45.25317388052616" lon="9.30944153019136"><ele>81.60000000000001</ele><time>2026-04-11T09:24:44Z</time></trkpt><trkpt lat="45.25326073936191" lon="9.30948566313265"><ele>80.4</ele><time>2026-04-11T09:24:45Z</time></trkpt><trkpt lat="45.25335158051175" lon="9.30952383302499"><ele>79.2</ele><time>2026-04-11T09:24:46Z</time></trkpt><trkpt lat="45.25344046798592" lon="9.309572949741899"><ele>78.0</ele><time>2026-04-11T09:24:47Z</time></trkpt><trkpt lat="45.253529848705284" lon="9.3096284711124"><ele>78.0</ele><time>2026-04-11T09:24:47.999Z</time></trkpt><trkpt lat="45.25362689120009" lon="9.309694501318535"><ele>78.0</ele><time>2026-04-11T09:24:48.999Z</time></trkpt><trkpt lat="45.25372436878488" lon="9.309748694399959"><ele>78.0</ele><time>2026-04-11T09:24:49.999Z</time></trkpt><trkpt lat="45.25382329876212" lon="9.309803338827725"><ele>78.0</ele><time>2026-04-11T09:24:50.999Z</time></trkpt><trkpt lat="45.25392315889659" lon="9.30985948050241"><ele>78.0</ele><time>2026-04-11T09:24:51.999Z</time></trkpt><trkpt lat="45.25402606504787" lon="9.309916636666383"><ele>78.5</ele><time>2026-04-11T09:24:52.999Z</time></trkpt><trkpt lat="45.254128101152965" lon="9.309973422869925"><ele>79.0</ele><time>2026-04-11T09:24:53.999Z</time></trkpt><trkpt lat="45.25424420221076" lon="9.310038928771831"><ele>79.5</ele><time>2026-04-11T09:24:54.999Z</time></trkpt><trkpt lat="45.254367480611165" lon="9.310107436958107"><ele>80.0</ele><time>2026-04-11T09:24:55.999Z</time></trkpt><trkpt lat="45.254492006104016" lon="9.310177204491858"><ele>80.0</ele><time>2026-04-11T09:24:56.999Z</time></trkpt><trkpt lat="45.254605961366835" lon="9.31024139873559"><ele>80.0</ele><time>2026-04-11T09:24:57.999Z</time></trkpt><trkpt lat="45.254711948949485" lon="9.310297897221364"><ele>80.0</ele><time>2026-04-11T09:24:58.999Z</time></trkpt><trkpt lat="45.25481600008711" lon="9.31035562776724"><ele>80.0</ele><time>2026-04-11T09:24:59.999Z</time></trkpt><trkpt lat="45.254919939921606" lon="9.31041137587157"><ele>79.75</ele><time>2026-04-11T09:25:00.999Z</time></trkpt><trkpt lat="45.25502629248578" lon="9.310473300064938"><ele>79.5</ele><time>2026-04-11T09:25:01.999Z</time></trkpt><trkpt lat="45.255136277324816" lon="9.310534613076925"><ele>79.25</ele><time>2026-04-11T09:25:02.999Z</time></trkpt><trkpt lat="45.2552487309799" lon="9.31059351583695"><ele>79.0</ele><time>2026-04-11T09:25:03.999Z</time></trkpt><trkpt lat="45.25535732103784" lon="9.310653849658486"><ele>79.6</ele><time>2026-04-11T09:25:04.999Z</time></trkpt><trkpt lat="45.25545534811591" lon="9.310704733300335"><ele>80.2</ele><time>2026-04-11T09:25:05.999Z</time></trkpt><trkpt lat="45.255548117931205" lon="9.3107573241789"><ele>80.8</ele><time>2026-04-11T09:25:06.999Z</time></trkpt><trkpt lat="45.25564191773954" lon="9.310812864341022"><ele>81.39999999999999</ele><time>2026-04-11T09:25:07.999Z</time></trkpt><trkpt lat="45.25572826026873" lon="9.31086259332146"><ele>82.0</ele><time>2026-04-11T09:25:08.999Z</time></trkpt><trkpt lat="45.25581323491645" lon="9.310927445805932"><ele>82.0</ele><time>2026-04-11T09:25:09.999Z</time></trkpt><trkpt lat="45.255897441596154" lon="9.311011387574654"><ele>82.0</ele><time>2026-04-11T09:25:10.999Z</time></trkpt><trkpt lat="45.25597033756211" lon="9.311114799751033"><ele>82.0</ele><time>2026-04-11T09:25:11.999Z</time></trkpt><trkpt lat="45.2560366616153" lon="9.311250778933537"><ele>82.0</ele><time>2026-04-11T09:25:12.999Z</time></trkpt><trkpt lat="45.25610923418521" lon="9.311392634803996"><ele>82.0</ele><time>2026-04-11T09:25:13.999Z</time></trkpt><trkpt lat="45.25619078985335" lon="9.311535587317753"><ele>82.5</ele><time>2026-04-11T09:25:14.999Z</time></trkpt><trkpt lat="45.256274954878556" lon="9.311684287584228"><ele>83.0</ele><time>2026-04-11T09:25:15.999Z</time></trkpt><trkpt lat="45.256358182764785" lon="9.311827689990409"><ele>83.5</ele><time>2026-04-11T09:25:16.999Z</time></trkpt><trkpt lat="45.25644556291441" lon="9.311974918158755"><ele>84.0</ele><time>2026-04-11T09:25:17.999Z</time></trkpt><trkpt lat="45.256533086218376" lon="9.312122395840888"><ele>83.75</ele><time>2026-04-11T09:25:18.999Z</time></trkpt><trkpt lat="45.25661821835129" lon="9.312263600575216"><ele>83.5</ele><time>2026-04-11T09:25:19.999Z</time></trkpt><trkpt lat="45.25669377255149" lon="9.312391260482494"><ele>83.25</ele><time>2026-04-11T09:25:20.999Z</time></trkpt><trkpt lat="45.25676830772477" lon="9.312514684277884"><ele>83.0</ele><time>2026-04-11T09:25:21.999Z</time></trkpt><trkpt lat="45.25684062249855" lon="9.312632316542528"><ele>83.0</ele><time>2026-04-11T09:25:22.999Z</time></trkpt><trkpt lat="45.25690651129046" lon="9.312740199516922"><ele>83.0</ele><time>2026-04-11T09:25:23.999Z</time></trkpt><trkpt lat="45.25696757523124" lon="9.312843708115048"><ele>83.0</ele><time>2026-04-11T09:25:24.999Z</time></trkpt><trkpt lat="45.25702720104357" lon="9.312936852775332"><ele>83.0</ele><time>2026-04-11T09:25:25.999Z</time></trkpt><trkpt lat="45.25707944479512" lon="9.313017143286876"><ele>83.0</ele><time>2026-04-11T09:25:26.999Z</time></trkpt><trkpt lat="45.25713474064294" lon="9.313108368399606"><ele>83.0</ele><time>2026-04-11T09:25:28.999Z</time></trkpt><trkpt lat="45.257218610351444" lon="9.313054597570098"><ele>83.0</ele><time>2026-04-11T09:25:33Z</time></trkpt><trkpt lat="45.257269701971424" lon="9.3129853320791"><ele>83.0</ele><time>2026-04-11T09:25:34Z</time></trkpt><trkpt lat="45.257331968007826" lon="9.31291148830905"><ele>83.0</ele><time>2026-04-11T09:25:35Z</time></trkpt><trkpt lat="45.257403683044586" lon="9.31282873034632"><ele>83.0</ele><time>2026-04-11T09:25:36Z</time></trkpt><trkpt lat="45.25748439583268" lon="9.312731799897232"><ele>83.0</ele><time>2026-04-11T09:25:37Z</time></trkpt><trkpt lat="45.25757133803565" lon="9.312636373302068"><ele>81.75</ele><time>2026-04-11T09:25:38Z</time></trkpt><trkpt lat="45.25766326245482" lon="9.312532741762361"><ele>80.5</ele><time>2026-04-11T09:25:39Z</time></trkpt><trkpt lat="45.25776195849469" lon="9.312423835341857"><ele>79.25</ele><time>2026-04-11T09:25:40Z</time></trkpt><trkpt lat="45.25786891076673" lon="9.312307293212685"><ele>78.0</ele><time>2026-04-11T09:25:41Z</time></trkpt><trkpt lat="45.25796565311936" lon="9.312200327081436"><ele>78.0</ele><time>2026-04-11T09:25:42Z</time></trkpt><trkpt lat="45.25804403060079" lon="9.312114195989283"><ele>78.0</ele><time>2026-04-11T09:25:43Z</time></trkpt><trkpt lat="45.25810877326077" lon="9.312039982998375"><ele>78.0</ele><time>2026-04-11T09:25:44Z</time></trkpt><trkpt lat="45.25816378842021" lon="9.311979985876041"><ele>78.0</ele><time>2026-04-11T09:25:45Z</time></trkpt><trkpt lat="45.25822925384178" lon="9.311899818184243"><ele>78.0</ele><time>2026-04-11T09:25:47Z</time></trkpt><trkpt lat="45.25823379402685" lon="9.311804596696179"><ele>78.0</ele><time>2026-04-11T09:25:49Z</time></trkpt><trkpt lat="45.25819585071826" lon="9.311686949334877"><ele>78.0</ele><time>2026-04-11T09:25:51Z</time></trkpt><trkpt lat="45.258120891792835" lon="9.311533876061768"><ele>78.0</ele><time>2026-04-11T09:25:53Z</time></trkpt><trkpt lat="45.25808413879343" lon="9.311432685923588"><ele>78.0</ele><time>2026-04-11T09:25:54Z</time></trkpt><trkpt lat="45.25804398462585" lon="9.311298366235265"><ele>78.0</ele><time>2026-04-11T09:25:55Z</time></trkpt><trkpt lat="45.25799181477747" lon="9.311136006490672"><ele>78.0</ele><time>2026-04-11T09:25:56Z</time></trkpt><trkpt lat="45.257929293610545" lon="9.31095128461954"><ele>78.0</ele><time>2026-04-11T09:25:57Z</time></trkpt><trkpt lat="45.2578640055284" lon="9.310755451059423"><ele>78.0</ele><time>2026-04-11T09:25:58Z</time></trkpt><trkpt lat="45.25779640755612" lon="9.310555918572657"><ele>78.0</ele><time>2026-04-11T09:25:59Z</time></trkpt><trkpt lat="45.25773614073971" lon="9.310376735139085"><ele>78.0</ele><time>2026-04-11T09:26:00Z</time></trkpt><trkpt lat="45.25767972536438" lon="9.310213661287532"><ele>78.0</ele><time>2026-04-11T09:26:01Z</time></trkpt><trkpt lat="45.2576236364934" lon="9.310047024279175"><ele>78.0</ele><time>2026-04-11T09:26:02Z</time></trkpt><trkpt lat="45.25756189884023" lon="9.309876753989549"><ele>78.0</ele><time>2026-04-11T09:26:03Z</time></trkpt><trkpt lat="45.257491151247336" lon="9.30971981958431"><ele>78.0</ele><time>2026-04-11T09:26:04Z</time></trkpt><trkpt lat="45.257404851752554" lon="9.30957138979472"><ele>78.0</ele><time>2026-04-11T09:26:05Z</time></trkpt><trkpt lat="45.257314575791185" lon="9.309424338478722"><ele>78.0</ele><time>2026-04-11T09:26:06Z</time></trkpt><trkpt lat="45.257230132795506" lon="9.30927741529555"><ele>78.0</ele><time>2026-04-11T09:26:07Z</time></trkpt><trkpt lat="45.25714482985203" lon="9.309136458320962"><ele>78.0</ele><time>2026-04-11T09:26:08Z</time></trkpt><trkpt lat="45.25705927653574" lon="9.30899996778715"><ele>78.0</ele><time>2026-04-11T09:26:09Z</time></trkpt><trkpt lat="45.25697321269892" lon="9.308858903709915"><ele>78.0</ele><time>2026-04-11T09:26:10Z</time></trkpt><trkpt lat="45.2568946700401" lon="9.308696535541362"><ele>78.0</ele><time>2026-04-11T09:26:11Z</time></trkpt><trkpt lat="45.256820071111065" lon="9.30851688979321"><ele>78.0</ele><time>2026-04-11T09:26:12Z</time></trkpt><trkpt lat="45.25673227455234" lon="9.30833904262997"><ele>78.0</ele><time>2026-04-11T09:26:13Z</time></trkpt><trkpt lat="45.25663429597143" lon="9.308157542123215"><ele>78.0</ele><time>2026-04-11T09:26:14Z</time></trkpt><trkpt lat="45.25652967788208" lon="9.307978657668128"><ele>78.0</ele><time>2026-04-11T09:26:15Z</time></trkpt><trkpt lat="45.2564253318829" lon="9.307787984503896"><ele>78.0</ele><time>2026-04-11T09:26:16Z</time></trkpt><trkpt lat="45.25633034142635" lon="9.30760110787752"><ele>78.0</ele><time>2026-04-11T09:26:17Z</time></trkpt><trkpt lat="45.25623818599162" lon="9.30740645406358"><ele>78.0</ele><time>2026-04-11T09:26:18Z</time></trkpt><trkpt lat="45.256149612431564" lon="9.307214301718266"><ele>78.0</ele><time>2026-04-11T09:26:19Z</time></trkpt><trkpt lat="45.2560671352617" lon="9.307043107977128"><ele>78.0</ele><time>2026-04-11T09:26:20Z</time></trkpt><trkpt lat="45.255978685763175" lon="9.306878089989237"><ele>78.0</ele><time>2026-04-11T09:26:21Z</time></trkpt><trkpt lat="45.25588061274398" lon="9.30671208811296"><ele>78.0</ele><time>2026-04-11T09:26:22Z</time></trkpt><trkpt lat="45.25579603422484" lon="9.306560180242634"><ele>78.0</ele><time>2026-04-11T09:26:23Z</time></trkpt><trkpt lat="45.25571468658347" lon="9.306419198188616"><ele>78.0</ele><time>2026-04-11T09:26:24Z</time></trkpt><trkpt lat="45.255627391211185" lon="9.306273813356189"><ele>78.0</ele><time>2026-04-11T09:26:25Z</time></trkpt><trkpt lat="45.25554049485347" lon="9.306113492673044"><ele>78.0</ele><time>2026-04-11T09:26:26Z</time></trkpt><trkpt lat="45.255454798264985" lon="9.305946910431674"><ele>78.33333333333333</ele><time>2026-04-11T09:26:27Z</time></trkpt><trkpt lat="45.2553719502594" lon="9.305779436421643"><ele>78.66666666666666</ele><time>2026-04-11T09:26:28Z</time></trkpt><trkpt lat="45.25528054259113" lon="9.305602489206331"><ele>79.0</ele><time>2026-04-11T09:26:29Z</time></trkpt><trkpt lat="45.2551813688321" lon="9.305425189988684"><ele>79.0</ele><time>2026-04-11T09:26:30Z</time></trkpt><trkpt lat="45.255083142684185" lon="9.305244161892343"><ele>79.0</ele><time>2026-04-11T09:26:31Z</time></trkpt><trkpt lat="45.25498154313244" lon="9.30505842458684"><ele>79.0</ele><time>2026-04-11T09:26:32Z</time></trkpt><trkpt lat="45.254876930962624" lon="9.304870873073796"><ele>78.66666666666666</ele><time>2026-04-11T09:26:33Z</time></trkpt><trkpt lat="45.25477594421594" lon="9.304683844059072"><ele>78.33333333333333</ele><time>2026-04-11T09:26:34Z</time></trkpt><trkpt lat="45.2546746985759" lon="9.304496088724239"><ele>78.0</ele><time>2026-04-11T09:26:35Z</time></trkpt><trkpt lat="45.25456736744235" lon="9.304299024645683"><ele>78.0</ele><time>2026-04-11T09:26:36Z</time></trkpt><trkpt lat="45.254458691180325" lon="9.304100803620921"><ele>78.0</ele><time>2026-04-11T09:26:37Z</time></trkpt><trkpt lat="45.25434982404897" lon="9.30390004729648"><ele>78.0</ele><time>2026-04-11T09:26:38Z</time></trkpt><trkpt lat="45.25424558863075" lon="9.30370827003067"><ele>78.0</ele><time>2026-04-11T09:26:39Z</time></trkpt><trkpt lat="45.254149441469224" lon="9.303527024310348"><ele>78.0</ele><time>2026-04-11T09:26:40Z</time></trkpt><trkpt lat="45.254051995267176" lon="9.30335128656239"><ele>78.0</ele><time>2026-04-11T09:26:41Z</time></trkpt><trkpt lat="45.25396228076621" lon="9.30319131969761"><ele>78.0</ele><time>2026-04-11T09:26:42Z</time></trkpt><trkpt lat="45.253881191661215" lon="9.303038546165899"><ele>78.0</ele><time>2026-04-11T09:26:43Z</time></trkpt><trkpt lat="45.253796124934" lon="9.302878597850532"><ele>78.0</ele><time>2026-04-11T09:26:44Z</time></trkpt><trkpt lat="45.25371635739381" lon="9.302734239846675"><ele>78.0</ele><time>2026-04-11T09:26:45Z</time></trkpt><trkpt lat="45.25364177300767" lon="9.302602914361708"><ele>78.0</ele><time>2026-04-11T09:26:46Z</time></trkpt><trkpt lat="45.2535790015195" lon="9.302487819358813"><ele>78.0</ele><time>2026-04-11T09:26:47Z</time></trkpt><trkpt lat="45.25352757437715" lon="9.302393916295241"><ele>78.0</ele><time>2026-04-11T09:26:48Z</time></trkpt><trkpt lat="45.2534791458132" lon="9.302320943396278"><ele>78.0</ele><time>2026-04-11T09:26:49Z</time></trkpt><trkpt lat="45.25340400257855" lon="9.302275052713245"><ele>78.0</ele><time>2026-04-11T09:26:50Z</time></trkpt><trkpt lat="45.253360012557025" lon="9.302178959904913"><ele>78.0</ele><time>2026-04-11T09:26:51Z</time></trkpt><trkpt lat="45.25330572527655" lon="9.30209555214257"><ele>78.0</ele><time>2026-04-11T09:26:52Z</time></trkpt><trkpt lat="45.25327810492262" lon="9.301984570296558"><ele>78.0</ele><time>2026-04-11T09:26:52.999Z</time></trkpt><trkpt lat="45.25320440469694" lon="9.301860944181788"><ele>78.0</ele><time>2026-04-11T09:26:53.999Z</time></trkpt><trkpt lat="45.253131217107914" lon="9.301706885514731"><ele>78.0</ele><time>2026-04-11T09:26:54.999Z</time></trkpt><trkpt lat="45.253047140502815" lon="9.301549115457902"><ele>78.5</ele><time>2026-04-11T09:26:55.999Z</time></trkpt><trkpt lat="45.25296778775631" lon="9.301380803843106"><ele>79.0</ele><time>2026-04-11T09:26:56.999Z</time></trkpt><trkpt lat="45.25288880166465" lon="9.301203971720662"><ele>79.5</ele><time>2026-04-11T09:26:57.999Z</time></trkpt><trkpt lat="45.252806683536384" lon="9.301031696342529"><ele>80.0</ele><time>2026-04-11T09:26:58.999Z</time></trkpt><trkpt lat="45.2526972969315" lon="9.300888288069007"><ele>80.0</ele><time>2026-04-11T09:26:59.999Z</time></trkpt><trkpt lat="45.25239338954848" lon="9.300699438317695"><ele>80.0</ele><time>2026-04-11T09:27:01.999Z</time></trkpt><trkpt lat="45.252255913848614" lon="9.300589489922093"><ele>80.0</ele><time>2026-04-11T09:27:02.999Z</time></trkpt><trkpt lat="45.25212138775959" lon="9.300485615882069"><ele>80.0</ele><time>2026-04-11T09:27:03.999Z</time></trkpt><trkpt lat="45.25198189535256" lon="9.300386426287853"><ele>80.0</ele><time>2026-04-11T09:27:04.999Z</time></trkpt><trkpt lat="45.25184309718056" lon="9.300288624722088"><ele>80.0</ele><time>2026-04-11T09:27:05.999Z</time></trkpt><trkpt lat="45.25157014868885" lon="9.300106899352777"><ele>80.0</ele><time>2026-04-11T09:27:08Z</time></trkpt><trkpt lat="45.251438187088745" lon="9.300016941081195"><ele>80.0</ele><time>2026-04-11T09:27:09Z</time></trkpt><trkpt lat="45.25131167768687" lon="9.299928492375171"><ele>79.75</ele><time>2026-04-11T09:27:10Z</time></trkpt><trkpt lat="45.25119507453983" lon="9.299848761665181"><ele>79.5</ele><time>2026-04-11T09:27:11Z</time></trkpt><trkpt lat="45.25108753968333" lon="9.29976846440099"><ele>79.25</ele><time>2026-04-11T09:27:12Z</time></trkpt><trkpt lat="45.2509873631193" lon="9.29968537717517"><ele>79.0</ele><time>2026-04-11T09:27:13Z</time></trkpt><trkpt lat="45.25089835285943" lon="9.299579657400974"><ele>79.5</ele><time>2026-04-11T09:27:14Z</time></trkpt><trkpt lat="45.250793714988966" lon="9.299484345342956"><ele>80.0</ele><time>2026-04-11T09:27:15Z</time></trkpt><trkpt lat="45.250667579723" lon="9.299435657935785"><ele>80.5</ele><time>2026-04-11T09:27:16Z</time></trkpt><trkpt lat="45.2505391355849" lon="9.299419200891867"><ele>81.0</ele><time>2026-04-11T09:27:17Z</time></trkpt><trkpt lat="45.25042300195004" lon="9.299400628975311"><ele>80.0</ele><time>2026-04-11T09:27:18Z</time></trkpt><trkpt lat="45.25031679930533" lon="9.29935949071625"><ele>79.0</ele><time>2026-04-11T09:27:19Z</time></trkpt><trkpt lat="45.25022298273223" lon="9.299299921546233"><ele>78.0</ele><time>2026-04-11T09:27:20Z</time></trkpt><trkpt lat="45.25014372104607" lon="9.299213297683316"><ele>77.0</ele><time>2026-04-11T09:27:21Z</time></trkpt><trkpt lat="45.250079412047356" lon="9.299102069911749"><ele>76.0</ele><time>2026-04-11T09:27:22Z</time></trkpt><trkpt lat="45.25004760575853" lon="9.298976925731527"><ele>76.16666666666666</ele><time>2026-04-11T09:27:23Z</time></trkpt><trkpt lat="45.25003812277552" lon="9.298888119418297"><ele>76.33333333333333</ele><time>2026-04-11T09:27:24Z</time></trkpt><trkpt lat="45.250013709080186" lon="9.298731065675783"><ele>76.5</ele><time>2026-04-11T09:27:26Z</time></trkpt><trkpt lat="45.24999328297611" lon="9.298627251916722"><ele>76.66666666666667</ele><time>2026-04-11T09:27:27Z</time></trkpt><trkpt lat="45.249968641468236" lon="9.298503737046547"><ele>76.83333333333334</ele><time>2026-04-11T09:27:28Z</time></trkpt><trkpt lat="45.24994071256688" lon="9.298364839458241"><ele>77.0</ele><time>2026-04-11T09:27:29Z</time></trkpt><trkpt lat="45.249910781033705" lon="9.298224633701869"><ele>76.8</ele><time>2026-04-11T09:27:30Z</time></trkpt><trkpt lat="45.2498823448603" lon="9.298082371869281"><ele>76.6</ele><time>2026-04-11T09:27:31Z</time></trkpt><trkpt lat="45.249853169901485" lon="9.297938669331517"><ele>76.39999999999999</ele><time>2026-04-11T09:27:32Z</time></trkpt><trkpt lat="45.2498233626437" lon="9.297792745994506"><ele>76.2</ele><time>2026-04-11T09:27:33Z</time></trkpt><trkpt lat="45.24979575513832" lon="9.297647465288636"><ele>76.0</ele><time>2026-04-11T09:27:34Z</time></trkpt><trkpt lat="45.24977267772971" lon="9.297496742381655"><ele>75.6</ele><time>2026-04-11T09:27:35Z</time></trkpt><trkpt lat="45.249747787599674" lon="9.297345527240491"><ele>75.19999999999999</ele><time>2026-04-11T09:27:36Z</time></trkpt><trkpt lat="45.249723223157716" lon="9.297193713434515"><ele>74.80000000000001</ele><time>2026-04-11T09:27:37Z</time></trkpt><trkpt lat="45.249695081514744" lon="9.29704089606737"><ele>74.4</ele><time>2026-04-11T09:27:38Z</time></trkpt><trkpt lat="45.2496559487265" lon="9.29688962031311"><ele>74.0</ele><time>2026-04-11T09:27:39Z</time></trkpt><trkpt lat="45.24958578165729" lon="9.29674753834586"><ele>73.75</ele><time>2026-04-11T09:27:40Z</time></trkpt><trkpt lat="45.249495611322075" lon="9.29662085853061"><ele>73.5</ele><time>2026-04-11T09:27:41Z</time></trkpt><trkpt lat="45.24941531147145" lon="9.296515922480229"><ele>73.25</ele><time>2026-04-11T09:27:42Z</time></trkpt><trkpt lat="45.2493335946032" lon="9.29642190732422"><ele>73.0</ele><time>2026-04-11T09:27:43Z</time></trkpt><trkpt lat="45.24924078091927" lon="9.29632648542722"><ele>73.5</ele><time>2026-04-11T09:27:44Z</time></trkpt><trkpt lat="45.24914165802996" lon="9.296223248453838"><ele>74.0</ele><time>2026-04-11T09:27:45Z</time></trkpt><trkpt lat="45.24904168677431" lon="9.296112919927312"><ele>74.5</ele><time>2026-04-11T09:27:46Z</time></trkpt><trkpt lat="45.248947017941184" lon="9.296000678878269"><ele>75.0</ele><time>2026-04-11T09:27:47Z</time></trkpt><trkpt lat="45.24885927178119" lon="9.295893279933289"><ele>75.6</ele><time>2026-04-11T09:27:48Z</time></trkpt><trkpt lat="45.2487757772451" lon="9.29579489345971"><ele>76.2</ele><time>2026-04-11T09:27:49Z</time></trkpt><trkpt lat="45.24869521618668" lon="9.295707946012099"><ele>76.8</ele><time>2026-04-11T09:27:50Z</time></trkpt><trkpt lat="45.24862694045962" lon="9.295629816541052"><ele>77.4</ele><time>2026-04-11T09:27:51Z</time></trkpt><trkpt lat="45.24857252423051" lon="9.295559350315889"><ele>78.0</ele><time>2026-04-11T09:27:52Z</time></trkpt><trkpt lat="45.248538152361185" lon="9.295409416777025"><ele>78.2</ele><time>2026-04-11T09:27:54Z</time></trkpt><trkpt lat="45.24853582817001" lon="9.295316867599249"><ele>78.4</ele><time>2026-04-11T09:27:55Z</time></trkpt><trkpt lat="45.248469047790564" lon="9.295208673471086"><ele>78.60000000000001</ele><time>2026-04-11T09:27:57Z</time></trkpt><trkpt lat="45.24836794521486" lon="9.295267052885425"><ele>78.8</ele><time>2026-04-11T09:27:58Z</time></trkpt><trkpt lat="45.24826979645796" lon="9.295312640189165"><ele>79.0</ele><time>2026-04-11T09:27:59Z</time></trkpt><trkpt lat="45.2481593653034" lon="9.295351002933934"><ele>79.2</ele><time>2026-04-11T09:28:00Z</time></trkpt><trkpt lat="45.24803976638405" lon="9.295371268604065"><ele>79.4</ele><time>2026-04-11T09:28:01Z</time></trkpt><trkpt lat="45.247932526133575" lon="9.295382193347976"><ele>79.6</ele><time>2026-04-11T09:28:02Z</time></trkpt><trkpt lat="45.24783585989687" lon="9.295393657415145"><ele>79.8</ele><time>2026-04-11T09:28:03Z</time></trkpt><trkpt lat="45.2477481604963" lon="9.29540820776515"><ele>80.0</ele><time>2026-04-11T09:28:04Z</time></trkpt><trkpt lat="45.24766912744874" lon="9.295405234177757"><ele>80.0</ele><time>2026-04-11T09:28:05Z</time></trkpt><trkpt lat="45.2475450769069" lon="9.29558616035012"><ele>80.0</ele><time>2026-04-11T09:28:07Z</time></trkpt><trkpt lat="45.247497574749055" lon="9.295700902213518"><ele>80.0</ele><time>2026-04-11T09:28:08Z</time></trkpt><trkpt lat="45.247429310381484" lon="9.295798764726422"><ele>80.0</ele><time>2026-04-11T09:28:09Z</time></trkpt><trkpt lat="45.24734257608832" lon="9.295869179675163"><ele>79.8</ele><time>2026-04-11T09:28:10Z</time></trkpt><trkpt lat="45.24725584486549" lon="9.295945564063452"><ele>79.6</ele><time>2026-04-11T09:28:11Z</time></trkpt><trkpt lat="45.24716812879994" lon="9.296028393236618"><ele>79.4</ele><time>2026-04-11T09:28:12Z</time></trkpt><trkpt lat="45.24708329933624" lon="9.296116585858915"><ele>79.2</ele><time>2026-04-11T09:28:13Z</time></trkpt><trkpt lat="45.24699671764135" lon="9.29619694297893"><ele>79.0</ele><time>2026-04-11T09:28:14Z</time></trkpt><trkpt lat="45.2469143611582" lon="9.296287690874381"><ele>79.0</ele><time>2026-04-11T09:28:15Z</time></trkpt><trkpt lat="45.2468424882883" lon="9.296391609218146"><ele>79.0</ele><time>2026-04-11T09:28:16Z</time></trkpt><trkpt lat="45.24677794937981" lon="9.296501597034576"><ele>79.0</ele><time>2026-04-11T09:28:17Z</time></trkpt><trkpt lat="45.246713301640796" lon="9.296607928563349"><ele>79.0</ele><time>2026-04-11T09:28:18Z</time></trkpt><trkpt lat="45.2466571172319" lon="9.29672329331272"><ele>79.0</ele><time>2026-04-11T09:28:19Z</time></trkpt><trkpt lat="45.246627211832724" lon="9.296863044721944"><ele>78.8</ele><time>2026-04-11T09:28:20Z</time></trkpt><trkpt lat="45.24662089697791" lon="9.297009925738278"><ele>78.60000000000001</ele><time>2026-04-11T09:28:21Z</time></trkpt><trkpt lat="45.24663935170341" lon="9.297159635281638"><ele>78.4</ele><time>2026-04-11T09:28:22Z</time></trkpt><trkpt lat="45.24668878247914" lon="9.29729932051395"><ele>78.2</ele><time>2026-04-11T09:28:23Z</time></trkpt><trkpt lat="45.24673876913137" lon="9.297442522454073"><ele>78.0</ele><time>2026-04-11T09:28:24Z</time></trkpt><trkpt lat="45.246762259507065" lon="9.297607251246756"><ele>78.0</ele><time>2026-04-11T09:28:25Z</time></trkpt><trkpt lat="45.246751297678735" lon="9.297781755722967"><ele>78.0</ele><time>2026-04-11T09:28:26.001Z</time></trkpt><trkpt lat="45.24672153006001" lon="9.297957562544449"><ele>78.0</ele><time>2026-04-11T09:28:27.001Z</time></trkpt><trkpt lat="45.246675008381565" lon="9.298133771779534"><ele>78.0</ele><time>2026-04-11T09:28:28.001Z</time></trkpt><trkpt lat="45.246614792098896" lon="9.298304810262707"><ele>78.0</ele><time>2026-04-11T09:28:29.001Z</time></trkpt><trkpt lat="45.246563662017934" lon="9.298458684941961"><ele>78.0</ele><time>2026-04-11T09:28:30.001Z</time></trkpt><trkpt lat="45.24653219551105" lon="9.298607736095846"><ele>78.0</ele><time>2026-04-11T09:28:31.001Z</time></trkpt><trkpt lat="45.24650990073679" lon="9.298759899108136"><ele>78.0</ele><time>2026-04-11T09:28:32.001Z</time></trkpt><trkpt lat="45.24649200484576" lon="9.298918664440976"><ele>78.0</ele><time>2026-04-11T09:28:33.001Z</time></trkpt><trkpt lat="45.246478863912266" lon="9.299086675436707"><ele>78.0</ele><time>2026-04-11T09:28:34.001Z</time></trkpt><trkpt lat="45.24646542692693" lon="9.299260703653617"><ele>78.0</ele><time>2026-04-11T09:28:35.001Z</time></trkpt><trkpt lat="45.24646637317457" lon="9.299446040051933"><ele>78.0</ele><time>2026-04-11T09:28:36.001Z</time></trkpt><trkpt lat="45.24646296725553" lon="9.299643121779344"><ele>78.25</ele><time>2026-04-11T09:28:37.001Z</time></trkpt><trkpt lat="45.24646385358092" lon="9.299844156410796"><ele>78.5</ele><time>2026-04-11T09:28:38.001Z</time></trkpt><trkpt lat="45.24646766873035" lon="9.30004869914249"><ele>78.75</ele><time>2026-04-11T09:28:39.001Z</time></trkpt><trkpt lat="45.24646885160529" lon="9.300259507336461"><ele>79.0</ele><time>2026-04-11T09:28:40.001Z</time></trkpt><trkpt lat="45.24643944771639" lon="9.300468443087883"><ele>78.33333333333333</ele><time>2026-04-11T09:28:41.001Z</time></trkpt><trkpt lat="45.24637066399225" lon="9.300661900398612"><ele>77.66666666666667</ele><time>2026-04-11T09:28:42Z</time></trkpt><trkpt lat="45.246280531156835" lon="9.300840994530866"><ele>77.0</ele><time>2026-04-11T09:28:43Z</time></trkpt><trkpt lat="45.246188315751745" lon="9.301019863712352"><ele>77.0</ele><time>2026-04-11T09:28:44Z</time></trkpt><trkpt lat="45.24610438609808" lon="9.301187596012717"><ele>77.0</ele><time>2026-04-11T09:28:45Z</time></trkpt><trkpt lat="45.24602741990614" lon="9.301344748398083"><ele>77.0</ele><time>2026-04-11T09:28:46Z</time></trkpt><trkpt lat="45.24595760216799" lon="9.301490476037298"><ele>77.0</ele><time>2026-04-11T09:28:47Z</time></trkpt><trkpt lat="45.245891812724764" lon="9.301624517099224"><ele>77.0</ele><time>2026-04-11T09:28:48Z</time></trkpt><trkpt lat="45.24583736693969" lon="9.301757899507937"><ele>77.0</ele><time>2026-04-11T09:28:49Z</time></trkpt><trkpt lat="45.24579857643151" lon="9.301890008469531"><ele>77.0</ele><time>2026-04-11T09:28:50Z</time></trkpt><trkpt lat="45.24577897165624" lon="9.30205758123323"><ele>77.0</ele><time>2026-04-11T09:28:51Z</time></trkpt><trkpt lat="45.2457677784064" lon="9.302276799904691"><ele>77.0</ele><time>2026-04-11T09:28:52Z</time></trkpt><trkpt lat="45.245754525052504" lon="9.302508071286098"><ele>77.0</ele><time>2026-04-11T09:28:53Z</time></trkpt><trkpt lat="45.245736499578896" lon="9.302736533754798"><ele>77.0</ele><time>2026-04-11T09:28:54Z</time></trkpt><trkpt lat="45.24572141134454" lon="9.302956566101779"><ele>77.0</ele><time>2026-04-11T09:28:55Z</time></trkpt><trkpt lat="45.24571349065021" lon="9.303175581595859"><ele>77.0</ele><time>2026-04-11T09:28:56Z</time></trkpt><trkpt lat="45.2457221890919" lon="9.303392789595794"><ele>77.0</ele><time>2026-04-11T09:28:57Z</time></trkpt><trkpt lat="45.24573549385509" lon="9.303609128164958"><ele>77.0</ele><time>2026-04-11T09:28:57.999Z</time></trkpt><trkpt lat="45.245740116497124" lon="9.303828079974743"><ele>77.0</ele><time>2026-04-11T09:28:58.999Z</time></trkpt><trkpt lat="45.24573083636918" lon="9.30404605159306"><ele>77.0</ele><time>2026-04-11T09:28:59.999Z</time></trkpt><trkpt lat="45.245708073702495" lon="9.304260552851625"><ele>76.66666666666667</ele><time>2026-04-11T09:29:00.999Z</time></trkpt><trkpt lat="45.24567124292141" lon="9.304469868310372"><ele>76.33333333333333</ele><time>2026-04-11T09:29:01.999Z</time></trkpt><trkpt lat="45.24562447471726" lon="9.304675620493875"><ele>76.0</ele><time>2026-04-11T09:29:02.999Z</time></trkpt><trkpt lat="45.245570304739736" lon="9.304884493594539"><ele>76.0</ele><time>2026-04-11T09:29:03.999Z</time></trkpt><trkpt lat="45.245521770518124" lon="9.305095445398363"><ele>76.0</ele><time>2026-04-11T09:29:04.999Z</time></trkpt><trkpt lat="45.24547241271904" lon="9.305303347766221"><ele>76.0</ele><time>2026-04-11T09:29:05.999Z</time></trkpt><trkpt lat="45.24541802802881" lon="9.305506940520132"><ele>75.66666666666666</ele><time>2026-04-11T09:29:06.999Z</time></trkpt><trkpt lat="45.24536454207808" lon="9.30571109864728"><ele>75.33333333333333</ele><time>2026-04-11T09:29:07.999Z</time></trkpt><trkpt lat="45.24530846458186" lon="9.305915244590603"><ele>75.0</ele><time>2026-04-11T09:29:08.999Z</time></trkpt><trkpt lat="45.24524906377462" lon="9.306117994101765"><ele>75.0</ele><time>2026-04-11T09:29:09.999Z</time></trkpt><trkpt lat="45.24519067146804" lon="9.306319962530232"><ele>75.0</ele><time>2026-04-11T09:29:10.999Z</time></trkpt><trkpt lat="45.245127309246506" lon="9.306521215691815"><ele>75.0</ele><time>2026-04-11T09:29:11.999Z</time></trkpt><trkpt lat="45.245055366886604" lon="9.306715895796755"><ele>75.0</ele><time>2026-04-11T09:29:12.999Z</time></trkpt><trkpt lat="45.24497122250467" lon="9.306900582751185"><ele>75.0</ele><time>2026-04-11T09:29:13.999Z</time></trkpt><trkpt lat="45.24488506189259" lon="9.307084050976746"><ele>75.0</ele><time>2026-04-11T09:29:14.999Z</time></trkpt><trkpt lat="45.244794267013134" lon="9.307258868142734"><ele>75.0</ele><time>2026-04-11T09:29:16Z</time></trkpt><trkpt lat="45.244701303090686" lon="9.307432851801888"><ele>75.0</ele><time>2026-04-11T09:29:17Z</time></trkpt><trkpt lat="45.244607056504414" lon="9.307606003723555"><ele>75.0</ele><time>2026-04-11T09:29:18Z</time></trkpt><trkpt lat="45.24451312509228" lon="9.307777163335777"><ele>75.0</ele><time>2026-04-11T09:29:19Z</time></trkpt><trkpt lat="45.244417204965075" lon="9.307951482015206"><ele>75.0</ele><time>2026-04-11T09:29:20Z</time></trkpt><trkpt lat="45.24432341352591" lon="9.308125897142743"><ele>75.0</ele><time>2026-04-11T09:29:21Z</time></trkpt><trkpt lat="45.244231250235295" lon="9.308301333289808"><ele>75.33333333333333</ele><time>2026-04-11T09:29:22Z</time></trkpt><trkpt lat="45.24413945490599" lon="9.308475540388498"><ele>75.66666666666666</ele><time>2026-04-11T09:29:23Z</time></trkpt><trkpt lat="45.24404488655991" lon="9.308648107888613"><ele>76.0</ele><time>2026-04-11T09:29:24Z</time></trkpt><trkpt lat="45.24395282624648" lon="9.308822110357866"><ele>75.0</ele><time>2026-04-11T09:29:25Z</time></trkpt><trkpt lat="45.24385968800442" lon="9.308996906026591"><ele>74.0</ele><time>2026-04-11T09:29:26Z</time></trkpt><trkpt lat="45.24376489090196" lon="9.309168451441153"><ele>73.0</ele><time>2026-04-11T09:29:27Z</time></trkpt><trkpt lat="45.24366991151496" lon="9.309343244649034"><ele>73.0</ele><time>2026-04-11T09:29:28Z</time></trkpt><trkpt lat="45.24357689554566" lon="9.309515932564981"><ele>73.0</ele><time>2026-04-11T09:29:29Z</time></trkpt><trkpt lat="45.24348116021685" lon="9.309687460046328"><ele>73.0</ele><time>2026-04-11T09:29:30Z</time></trkpt><trkpt lat="45.24338572233231" lon="9.309859280528974"><ele>73.33333333333333</ele><time>2026-04-11T09:29:31Z</time></trkpt><trkpt lat="45.2432932032488" lon="9.310033327267272"><ele>73.66666666666667</ele><time>2026-04-11T09:29:32Z</time></trkpt><trkpt lat="45.243200456500205" lon="9.310207803754933"><ele>74.0</ele><time>2026-04-11T09:29:33Z</time></trkpt><trkpt lat="45.243108526646814" lon="9.310382076016282"><ele>74.33333333333334</ele><time>2026-04-11T09:29:34Z</time></trkpt><trkpt lat="45.243015519291255" lon="9.310557599871009"><ele>74.66666666666667</ele><time>2026-04-11T09:29:35Z</time></trkpt><trkpt lat="45.242919761611844" lon="9.310732398483731"><ele>75.0</ele><time>2026-04-11T09:29:36Z</time></trkpt><trkpt lat="45.24282625896728" lon="9.310906214419974"><ele>75.0</ele><time>2026-04-11T09:29:37Z</time></trkpt><trkpt lat="45.242725494487516" lon="9.311089123995123"><ele>75.0</ele><time>2026-04-11T09:29:38Z</time></trkpt><trkpt lat="45.242603105062294" lon="9.31130306005618"><ele>75.0</ele><time>2026-04-11T09:29:39Z</time></trkpt><trkpt lat="45.24245518611055" lon="9.311566639512304"><ele>75.5</ele><time>2026-04-11T09:29:40Z</time></trkpt><trkpt lat="45.24230738317651" lon="9.311838294299598"><ele>76.0</ele><time>2026-04-11T09:29:41Z</time></trkpt><trkpt lat="45.24215469526738" lon="9.312117389775263"><ele>76.0</ele><time>2026-04-11T09:29:42Z</time></trkpt><trkpt lat="45.241987768857186" lon="9.312424067477142"><ele>76.0</ele><time>2026-04-11T09:29:43Z</time></trkpt><trkpt lat="45.241825239458365" lon="9.312725931990958"><ele>76.0</ele><time>2026-04-11T09:29:44Z</time></trkpt><trkpt lat="45.24166576596487" lon="9.313021796309732"><ele>76.0</ele><time>2026-04-11T09:29:45Z</time></trkpt><trkpt lat="45.24150742149759" lon="9.313319880901647"><ele>75.0</ele><time>2026-04-11T09:29:46Z</time></trkpt><trkpt lat="45.24135914780741" lon="9.31359652872602"><ele>74.0</ele><time>2026-04-11T09:29:47Z</time></trkpt><trkpt lat="45.24121889999467" lon="9.313854746938645"><ele>73.66666666666667</ele><time>2026-04-11T09:29:48Z</time></trkpt><trkpt lat="45.24108237199349" lon="9.314103700438428"><ele>73.33333333333333</ele><time>2026-04-11T09:29:49Z</time></trkpt><trkpt lat="45.2409482429441" lon="9.314348745875018"><ele>73.0</ele><time>2026-04-11T09:29:50Z</time></trkpt><trkpt lat="45.24081840311515" lon="9.314590711529886"><ele>73.0</ele><time>2026-04-11T09:29:51Z</time></trkpt><trkpt lat="45.240694201838224" lon="9.31482625555145"><ele>73.0</ele><time>2026-04-11T09:29:52Z</time></trkpt><trkpt lat="45.24057031477525" lon="9.315055097444311"><ele>73.0</ele><time>2026-04-11T09:29:53Z</time></trkpt><trkpt lat="45.24044506369992" lon="9.31528382556515"><ele>73.0</ele><time>2026-04-11T09:29:54Z</time></trkpt><trkpt lat="45.24031887622449" lon="9.31551583365629"><ele>73.0</ele><time>2026-04-11T09:29:55Z</time></trkpt><trkpt lat="45.24019376713713" lon="9.31574492792965"><ele>73.0</ele><time>2026-04-11T09:29:56Z</time></trkpt><trkpt lat="45.24006526082614" lon="9.315970585668603"><ele>73.33333333333333</ele><time>2026-04-11T09:29:57Z</time></trkpt><trkpt lat="45.2399370637104" lon="9.3161914484687"><ele>73.66666666666667</ele><time>2026-04-11T09:29:58Z</time></trkpt><trkpt lat="45.239804213855614" lon="9.31640606175938"><ele>74.0</ele><time>2026-04-11T09:29:59Z</time></trkpt><trkpt lat="45.23966179481114" lon="9.316608374613729"><ele>74.0</ele><time>2026-04-11T09:30:00Z</time></trkpt><trkpt lat="45.239509067855664" lon="9.316801314464938"><ele>74.0</ele><time>2026-04-11T09:30:01Z</time></trkpt><trkpt lat="45.23935015409411" lon="9.316985045590176"><ele>74.0</ele><time>2026-04-11T09:30:02Z</time></trkpt><trkpt lat="45.2391807701801" lon="9.317156235054446"><ele>74.0</ele><time>2026-04-11T09:30:03Z</time></trkpt><trkpt lat="45.239009847670786" lon="9.317315370537944"><ele>74.0</ele><time>2026-04-11T09:30:04Z</time></trkpt><trkpt lat="45.238827801491375" lon="9.317463227835306"><ele>74.0</ele><time>2026-04-11T09:30:05Z</time></trkpt><trkpt lat="45.238640072339436" lon="9.317607653685752"><ele>73.66666666666667</ele><time>2026-04-11T09:30:06Z</time></trkpt><trkpt lat="45.2384505161022" lon="9.317750586799015"><ele>73.33333333333333</ele><time>2026-04-11T09:30:07Z</time></trkpt><trkpt lat="45.23825980900767" lon="9.317893487898699"><ele>73.0</ele><time>2026-04-11T09:30:08Z</time></trkpt><trkpt lat="45.238066728502176" lon="9.318036082259647"><ele>73.33333333333333</ele><time>2026-04-11T09:30:09Z</time></trkpt><trkpt lat="45.23787239351548" lon="9.318177879425392"><ele>73.66666666666667</ele><time>2026-04-11T09:30:10Z</time></trkpt><trkpt lat="45.237670055059205" lon="9.318323755682318"><ele>74.0</ele><time>2026-04-11T09:30:11Z</time></trkpt><trkpt lat="45.23745217977641" lon="9.318482078752163"><ele>73.5</ele><time>2026-04-11T09:30:12Z</time></trkpt><trkpt lat="45.23722436157616" lon="9.318649593319469"><ele>73.0</ele><time>2026-04-11T09:30:13Z</time></trkpt><trkpt lat="45.23698527801411" lon="9.318824427528543"><ele>74.0</ele><time>2026-04-11T09:30:14Z</time></trkpt><trkpt lat="45.23649214300854" lon="9.319185470232764"><ele>74.0</ele><time>2026-04-11T09:30:16Z</time></trkpt><trkpt lat="45.236242144300164" lon="9.31936992924827"><ele>74.0</ele><time>2026-04-11T09:30:17Z</time></trkpt><trkpt lat="45.235990377577956" lon="9.319552184538116"><ele>74.0</ele><time>2026-04-11T09:30:18Z</time></trkpt><trkpt lat="45.23574264257839" lon="9.319730677569607"><ele>74.0</ele><time>2026-04-11T09:30:19Z</time></trkpt><trkpt lat="45.23550299578018" lon="9.319906390277561"><ele>73.0</ele><time>2026-04-11T09:30:20Z</time></trkpt><trkpt lat="45.23527018987494" lon="9.320074149058271"><ele>72.0</ele><time>2026-04-11T09:30:21Z</time></trkpt><trkpt lat="45.23504905997913" lon="9.320234657868951"><ele>72.0</ele><time>2026-04-11T09:30:22Z</time></trkpt><trkpt lat="45.2348416625803" lon="9.32038039672924"><ele>72.0</ele><time>2026-04-11T09:30:23Z</time></trkpt><trkpt lat="45.234648830220095" lon="9.320518636173938"><ele>72.0</ele><time>2026-04-11T09:30:24Z</time></trkpt><trkpt lat="45.23447018077408" lon="9.320652591957781"><ele>72.33333333333333</ele><time>2026-04-11T09:30:25Z</time></trkpt><trkpt lat="45.23430089699894" lon="9.320776477833789"><ele>72.66666666666666</ele><time>2026-04-11T09:30:26Z</time></trkpt><trkpt lat="45.234139606502666" lon="9.32089425188415"><ele>73.0</ele><time>2026-04-11T09:30:27Z</time></trkpt><trkpt lat="45.23398230146595" lon="9.321007334720347"><ele>72.66666666666666</ele><time>2026-04-11T09:30:28Z</time></trkpt><trkpt lat="45.2338243297842" lon="9.321121192394724"><ele>72.33333333333333</ele><time>2026-04-11T09:30:29Z</time></trkpt><trkpt lat="45.233669272148575" lon="9.321234059098135"><ele>72.0</ele><time>2026-04-11T09:30:30Z</time></trkpt><trkpt lat="45.23351940483157" lon="9.321350010251951"><ele>72.33333333333333</ele><time>2026-04-11T09:30:31Z</time></trkpt><trkpt lat="45.23336575207307" lon="9.321460273687153"><ele>72.66666666666666</ele><time>2026-04-11T09:30:32Z</time></trkpt><trkpt lat="45.23321712767442" lon="9.32156972862791"><ele>73.0</ele><time>2026-04-11T09:30:33Z</time></trkpt><trkpt lat="45.23306646771864" lon="9.321678731749065"><ele>72.33333333333333</ele><time>2026-04-11T09:30:34Z</time></trkpt><trkpt lat="45.23291497087278" lon="9.321796602714107"><ele>71.66666666666667</ele><time>2026-04-11T09:30:35Z</time></trkpt><trkpt lat="45.232759244729756" lon="9.321924732470555"><ele>71.0</ele><time>2026-04-11T09:30:36Z</time></trkpt><trkpt lat="45.232600602493385" lon="9.322057340165925"><ele>71.0</ele><time>2026-04-11T09:30:37Z</time></trkpt><trkpt lat="45.232441434651726" lon="9.322202992443788"><ele>71.0</ele><time>2026-04-11T09:30:38Z</time></trkpt><trkpt lat="45.2322824899274" lon="9.322362922974627"><ele>71.0</ele><time>2026-04-11T09:30:39Z</time></trkpt><trkpt lat="45.23212267560182" lon="9.32254038832428"><ele>71.66666666666667</ele><time>2026-04-11T09:30:40Z</time></trkpt><trkpt lat="45.23196369941663" lon="9.32273501912235"><ele>72.33333333333333</ele><time>2026-04-11T09:30:41Z</time></trkpt><trkpt lat="45.2318020847465" lon="9.32293376645484"><ele>73.0</ele><time>2026-04-11T09:30:42Z</time></trkpt><trkpt lat="45.23164261238231" lon="9.32313486376633"><ele>73.33333333333333</ele><time>2026-04-11T09:30:43Z</time></trkpt><trkpt lat="45.23148702431463" lon="9.323337602086218"><ele>73.66666666666667</ele><time>2026-04-11T09:30:44Z</time></trkpt><trkpt lat="45.23133181619622" lon="9.323539335821689"><ele>74.0</ele><time>2026-04-11T09:30:45Z</time></trkpt><trkpt lat="45.231176684650045" lon="9.323740038819095"><ele>74.33333333333334</ele><time>2026-04-11T09:30:46Z</time></trkpt><trkpt lat="45.231021286103314" lon="9.323938495171822"><ele>74.66666666666667</ele><time>2026-04-11T09:30:47Z</time></trkpt><trkpt lat="45.23086760671585" lon="9.324137691848211"><ele>75.0</ele><time>2026-04-11T09:30:48Z</time></trkpt><trkpt lat="45.23071638283626" lon="9.324338110251226"><ele>75.0</ele><time>2026-04-11T09:30:49Z</time></trkpt><trkpt lat="45.23056738438343" lon="9.324537776806674"><ele>75.0</ele><time>2026-04-11T09:30:50Z</time></trkpt><trkpt lat="45.23042027892219" lon="9.32473695737768"><ele>75.0</ele><time>2026-04-11T09:30:51Z</time></trkpt><trkpt lat="45.23026873567841" lon="9.324928553551336"><ele>75.0</ele><time>2026-04-11T09:30:52.001Z</time></trkpt><trkpt lat="45.23012003413063" lon="9.325100658923045"><ele>75.0</ele><time>2026-04-11T09:30:53.001Z</time></trkpt><trkpt lat="45.22997888951084" lon="9.325248189569454"><ele>75.0</ele><time>2026-04-11T09:30:54.001Z</time></trkpt><trkpt lat="45.229841271887146" lon="9.325373341995443"><ele>74.75</ele><time>2026-04-11T09:30:55.001Z</time></trkpt><trkpt lat="45.229709975409286" lon="9.325475564997662"><ele>74.5</ele><time>2026-04-11T09:30:56.001Z</time></trkpt><trkpt lat="45.22958393721954" lon="9.325565842119001"><ele>74.25</ele><time>2026-04-11T09:30:57.001Z</time></trkpt><trkpt lat="45.229469703272905" lon="9.32563883119688"><ele>74.0</ele><time>2026-04-11T09:30:58.001Z</time></trkpt><trkpt lat="45.22937879151623" lon="9.325702266783948"><ele>73.83333333333334</ele><time>2026-04-11T09:30:59.001Z</time></trkpt><trkpt lat="45.22931531978085" lon="9.32579794617431"><ele>73.66666666666667</ele><time>2026-04-11T09:31:00.001Z</time></trkpt><trkpt lat="45.22928965581504" lon="9.325893774237395"><ele>73.5</ele><time>2026-04-11T09:31:01.001Z</time></trkpt><trkpt lat="45.22930221535543" lon="9.326001922130143"><ele>73.33333333333333</ele><time>2026-04-11T09:31:02.001Z</time></trkpt><trkpt lat="45.229309998054134" lon="9.326131337328192"><ele>73.16666666666666</ele><time>2026-04-11T09:31:03.001Z</time></trkpt><trkpt lat="45.22926307507545" lon="9.326277401031032"><ele>73.0</ele><time>2026-04-11T09:31:04Z</time></trkpt><trkpt lat="45.229184287983514" lon="9.326402473581865"><ele>73.0</ele><time>2026-04-11T09:31:05Z</time></trkpt><trkpt lat="45.229077060392264" lon="9.326533304433731"><ele>73.0</ele><time>2026-04-11T09:31:06Z</time></trkpt><trkpt lat="45.228950430080296" lon="9.326700765895746"><ele>73.0</ele><time>2026-04-11T09:31:07Z</time></trkpt><trkpt lat="45.228817215142335" lon="9.326887333470182"><ele>73.0</ele><time>2026-04-11T09:31:08Z</time></trkpt><trkpt lat="45.22867706131528" lon="9.327077547062453"><ele>73.0</ele><time>2026-04-11T09:31:09Z</time></trkpt><trkpt lat="45.228526456363426" lon="9.32727802091416"><ele>73.0</ele><time>2026-04-11T09:31:10Z</time></trkpt><trkpt lat="45.228373371667644" lon="9.327485952393008"><ele>73.0</ele><time>2026-04-11T09:31:11Z</time></trkpt><trkpt lat="45.22821139353023" lon="9.327706720578588"><ele>73.0</ele><time>2026-04-11T09:31:12Z</time></trkpt><trkpt lat="45.228044604966044" lon="9.327937842246776"><ele>73.5</ele><time>2026-04-11T09:31:13Z</time></trkpt><trkpt lat="45.22787387180294" lon="9.328173662369968"><ele>74.0</ele><time>2026-04-11T09:31:14Z</time></trkpt><trkpt lat="45.22769927054885" lon="9.328408220090711"><ele>74.0</ele><time>2026-04-11T09:31:15Z</time></trkpt><trkpt lat="45.22752094399033" lon="9.328645936263456"><ele>74.0</ele><time>2026-04-11T09:31:16Z</time></trkpt><trkpt lat="45.22734537463175" lon="9.328882380769674"><ele>73.0</ele><time>2026-04-11T09:31:17Z</time></trkpt><trkpt lat="45.22717147764175" lon="9.32911852569371"><ele>72.0</ele><time>2026-04-11T09:31:18Z</time></trkpt><trkpt lat="45.22700174050092" lon="9.329346660346733"><ele>72.0</ele><time>2026-04-11T09:31:19Z</time></trkpt><trkpt lat="45.226837839401014" lon="9.329567206988592"><ele>72.0</ele><time>2026-04-11T09:31:20Z</time></trkpt><trkpt lat="45.22668792256717" lon="9.32977008136338"><ele>72.0</ele><time>2026-04-11T09:31:21Z</time></trkpt><trkpt lat="45.22654621126717" lon="9.32996199830715"><ele>72.33333333333333</ele><time>2026-04-11T09:31:22Z</time></trkpt><trkpt lat="45.22639878838959" lon="9.330161236298222"><ele>72.66666666666666</ele><time>2026-04-11T09:31:23Z</time></trkpt><trkpt lat="45.22624301273501" lon="9.330371499360702"><ele>73.0</ele><time>2026-04-11T09:31:24Z</time></trkpt><trkpt lat="45.226092560330436" lon="9.330577869749476"><ele>73.0</ele><time>2026-04-11T09:31:25Z</time></trkpt><trkpt lat="45.225957849199794" lon="9.330766965090936"><ele>73.0</ele><time>2026-04-11T09:31:26Z</time></trkpt><trkpt lat="45.225830660895234" lon="9.330944845853061"><ele>73.0</ele><time>2026-04-11T09:31:27Z</time></trkpt><trkpt lat="45.225708953471575" lon="9.331109741420486"><ele>73.0</ele><time>2026-04-11T09:31:28Z</time></trkpt><trkpt lat="45.22559442447134" lon="9.331263175745207"><ele>73.0</ele><time>2026-04-11T09:31:29.001Z</time></trkpt><trkpt lat="45.22548531007405" lon="9.331408635286616"><ele>73.0</ele><time>2026-04-11T09:31:30.001Z</time></trkpt><trkpt lat="45.2253852995641" lon="9.33154336584186"><ele>73.0</ele><time>2026-04-11T09:31:31.001Z</time></trkpt><trkpt lat="45.225291030193496" lon="9.331672335189024"><ele>73.2</ele><time>2026-04-11T09:31:32.001Z</time></trkpt><trkpt lat="45.2251987373576" lon="9.331796751919123"><ele>73.4</ele><time>2026-04-11T09:31:33.001Z</time></trkpt><trkpt lat="45.225111694924095" lon="9.331914289819435"><ele>73.60000000000001</ele><time>2026-04-11T09:31:34.001Z</time></trkpt><trkpt lat="45.225037029461504" lon="9.331997796267364"><ele>73.8</ele><time>2026-04-11T09:31:35.001Z</time></trkpt><trkpt lat="45.22496231025083" lon="9.332019424937595"><ele>74.0</ele><time>2026-04-11T09:31:36.001Z</time></trkpt><trkpt lat="45.22488758659023" lon="9.332002073392378"><ele>74.0</ele><time>2026-04-11T09:31:37.001Z</time></trkpt><trkpt lat="45.224818503627255" lon="9.331946423082444"><ele>74.0</ele><time>2026-04-11T09:31:38.001Z</time></trkpt><trkpt lat="45.22474925005934" lon="9.331863262098683"><ele>74.0</ele><time>2026-04-11T09:31:39.001Z</time></trkpt><trkpt lat="45.224674380750216" lon="9.331768351449243"><ele>74.0</ele><time>2026-04-11T09:31:40.001Z</time></trkpt><trkpt lat="45.224594179363734" lon="9.331670184711365"><ele>74.0</ele><time>2026-04-11T09:31:41.001Z</time></trkpt><trkpt lat="45.22450819175505" lon="9.33156391095589"><ele>73.75</ele><time>2026-04-11T09:31:42.001Z</time></trkpt><trkpt lat="45.224417210760514" lon="9.331455232528178"><ele>73.5</ele><time>2026-04-11T09:31:43.001Z</time></trkpt><trkpt lat="45.22431782412975" lon="9.331348294570274"><ele>73.25</ele><time>2026-04-11T09:31:44.001Z</time></trkpt><trkpt lat="45.22421559966746" lon="9.331240418902047"><ele>73.0</ele><time>2026-04-11T09:31:45.001Z</time></trkpt><trkpt lat="45.22411748507242" lon="9.331130560934877"><ele>73.0</ele><time>2026-04-11T09:31:46.001Z</time></trkpt><trkpt lat="45.22402398534611" lon="9.33102358785329"><ele>73.0</ele><time>2026-04-11T09:31:47.001Z</time></trkpt><trkpt lat="45.22393999331826" lon="9.330921410231786"><ele>73.0</ele><time>2026-04-11T09:31:48.001Z</time></trkpt><trkpt lat="45.22386155726386" lon="9.330824113367516"><ele>73.0</ele><time>2026-04-11T09:31:49.001Z</time></trkpt><trkpt lat="45.223787313435245" lon="9.330736902067393"><ele>73.0</ele><time>2026-04-11T09:31:50.001Z</time></trkpt><trkpt lat="45.22371360844202" lon="9.330674337641065"><ele>73.0</ele><time>2026-04-11T09:31:51.001Z</time></trkpt><trkpt lat="45.22364529398632" lon="9.330633016323818"><ele>73.0</ele><time>2026-04-11T09:31:52.001Z</time></trkpt><trkpt lat="45.223555638035016" lon="9.330585388973862"><ele>73.0</ele><time>2026-04-11T09:31:54.001Z</time></trkpt><trkpt lat="45.22347782989996" lon="9.330793856857769"><ele>73.0</ele><time>2026-04-11T09:31:57.001Z</time></trkpt><trkpt lat="45.22345455638173" lon="9.330903699229893"><ele>73.0</ele><time>2026-04-11T09:31:58.001Z</time></trkpt><trkpt lat="45.22339330551779" lon="9.331010518110544"><ele>73.0</ele><time>2026-04-11T09:31:59.001Z</time></trkpt><trkpt lat="45.22331100731738" lon="9.331112570940112"><ele>73.0</ele><time>2026-04-11T09:32:00.001Z</time></trkpt><trkpt lat="45.223218721689825" lon="9.331216924485656"><ele>73.0</ele><time>2026-04-11T09:32:01.001Z</time></trkpt><trkpt lat="45.2231285920901" lon="9.331306459551772"><ele>73.0</ele><time>2026-04-11T09:32:02.001Z</time></trkpt><trkpt lat="45.22303044227968" lon="9.331369445117046"><ele>73.0</ele><time>2026-04-11T09:32:03.001Z</time></trkpt><trkpt lat="45.222913120095015" lon="9.331406432722618"><ele>73.4</ele><time>2026-04-11T09:32:04.001Z</time></trkpt><trkpt lat="45.22279038976523" lon="9.331452713736885"><ele>73.8</ele><time>2026-04-11T09:32:05.001Z</time></trkpt><trkpt lat="45.22268275918569" lon="9.331505639631825"><ele>74.2</ele><time>2026-04-11T09:32:06.001Z</time></trkpt><trkpt lat="45.22258805686458" lon="9.331564644899059"><ele>74.6</ele><time>2026-04-11T09:32:07.001Z</time></trkpt><trkpt lat="45.22249482373493" lon="9.331627666031126"><ele>75.0</ele><time>2026-04-11T09:32:08.001Z</time></trkpt><trkpt lat="45.22239307417516" lon="9.331695370274826"><ele>75.0</ele><time>2026-04-11T09:32:09.001Z</time></trkpt><trkpt lat="45.22228402978303" lon="9.331747061129507"><ele>75.0</ele><time>2026-04-11T09:32:10.001Z</time></trkpt><trkpt lat="45.22217129962494" lon="9.331795672362759"><ele>75.0</ele><time>2026-04-11T09:32:11.001Z</time></trkpt><trkpt lat="45.22206710384576" lon="9.331829176368212"><ele>75.0</ele><time>2026-04-11T09:32:12.001Z</time></trkpt><trkpt lat="45.221971592843055" lon="9.331846198946597"><ele>75.0</ele><time>2026-04-11T09:32:13.001Z</time></trkpt><trkpt lat="45.22187144240447" lon="9.331848802912717"><ele>75.0</ele><time>2026-04-11T09:32:14.001Z</time></trkpt><trkpt lat="45.22176627753921" lon="9.331861907648358"><ele>75.0</ele><time>2026-04-11T09:32:15.001Z</time></trkpt><trkpt lat="45.221660226035915" lon="9.331893000387124"><ele>75.0</ele><time>2026-04-11T09:32:16.001Z</time></trkpt><trkpt lat="45.22155100176178" lon="9.331931276250296"><ele>75.0</ele><time>2026-04-11T09:32:17.001Z</time></trkpt><trkpt lat="45.221437661859156" lon="9.331996612969174"><ele>75.0</ele><time>2026-04-11T09:32:18.001Z</time></trkpt><trkpt lat="45.22133120631064" lon="9.332067167982716"><ele>74.5</ele><time>2026-04-11T09:32:19.001Z</time></trkpt><trkpt lat="45.22122475983148" lon="9.332155089357446"><ele>74.0</ele><time>2026-04-11T09:32:20.001Z</time></trkpt><trkpt lat="45.221119089684855" lon="9.332250529300797"><ele>73.5</ele><time>2026-04-11T09:32:21.001Z</time></trkpt><trkpt lat="45.22101108080159" lon="9.332350977287636"><ele>73.0</ele><time>2026-04-11T09:32:22.001Z</time></trkpt><trkpt lat="45.22090291624556" lon="9.332447147228969"><ele>73.0</ele><time>2026-04-11T09:32:23.001Z</time></trkpt><trkpt lat="45.220794854956914" lon="9.332545849058745"><ele>73.0</ele><time>2026-04-11T09:32:24.001Z</time></trkpt><trkpt lat="45.22069144284207" lon="9.332643100836801"><ele>73.0</ele><time>2026-04-11T09:32:25.001Z</time></trkpt><trkpt lat="45.22059705326667" lon="9.332732588928195"><ele>73.0</ele><time>2026-04-11T09:32:26.001Z</time></trkpt><trkpt lat="45.22050868063571" lon="9.33281417667932"><ele>72.75</ele><time>2026-04-11T09:32:27.001Z</time></trkpt><trkpt lat="45.22042554719203" lon="9.332891160790176"><ele>72.5</ele><time>2026-04-11T09:32:28.001Z</time></trkpt><trkpt lat="45.22033407870366" lon="9.332964447294854"><ele>72.25</ele><time>2026-04-11T09:32:29.001Z</time></trkpt><trkpt lat="45.220219891087375" lon="9.333019226678278"><ele>72.0</ele><time>2026-04-11T09:32:30.001Z</time></trkpt><trkpt lat="45.22008783505859" lon="9.333053779805958"><ele>72.0</ele><time>2026-04-11T09:32:31.001Z</time></trkpt><trkpt lat="45.2199519074038" lon="9.333094371615353"><ele>72.0</ele><time>2026-04-11T09:32:32.001Z</time></trkpt><trkpt lat="45.21981740921194" lon="9.333137595627568"><ele>72.0</ele><time>2026-04-11T09:32:33.001Z</time></trkpt><trkpt lat="45.21968769941641" lon="9.33317801667059"><ele>72.0</ele><time>2026-04-11T09:32:34.001Z</time></trkpt><trkpt lat="45.21956196866156" lon="9.333227203140062"><ele>72.0</ele><time>2026-04-11T09:32:35.001Z</time></trkpt><trkpt lat="45.21943943823427" lon="9.333282525589931"><ele>72.0</ele><time>2026-04-11T09:32:36.001Z</time></trkpt><trkpt lat="45.21932419549601" lon="9.33333945287712"><ele>72.0</ele><time>2026-04-11T09:32:37.001Z</time></trkpt><trkpt lat="45.21921847554395" lon="9.333391180055385"><ele>72.0</ele><time>2026-04-11T09:32:38.001Z</time></trkpt><trkpt lat="45.21912259474328" lon="9.333439913320515"><ele>72.0</ele><time>2026-04-11T09:32:39.001Z</time></trkpt><trkpt lat="45.21902998260226" lon="9.333460142910646"><ele>72.0</ele><time>2026-04-11T09:32:40.001Z</time></trkpt><trkpt lat="45.21894490331695" lon="9.333495152681733"><ele>72.0</ele><time>2026-04-11T09:32:41.001Z</time></trkpt><trkpt lat="45.218850513322316" lon="9.333535127994068"><ele>72.0</ele><time>2026-04-11T09:32:42.001Z</time></trkpt><trkpt lat="45.21874198625774" lon="9.333582774658943"><ele>72.0</ele><time>2026-04-11T09:32:43.001Z</time></trkpt><trkpt lat="45.21862359997754" lon="9.333634749816385"><ele>71.5</ele><time>2026-04-11T09:32:44.001Z</time></trkpt><trkpt lat="45.21850383518563" lon="9.333713265644569"><ele>71.0</ele><time>2026-04-11T09:32:45.001Z</time></trkpt><trkpt lat="45.218382832743444" lon="9.333748835955685"><ele>70.5</ele><time>2026-04-11T09:32:46.001Z</time></trkpt><trkpt lat="45.21827129897566" lon="9.333782546014406"><ele>70.0</ele><time>2026-04-11T09:32:47.001Z</time></trkpt><trkpt lat="45.21816819306963" lon="9.333827307496437"><ele>69.75</ele><time>2026-04-11T09:32:48.001Z</time></trkpt><trkpt lat="45.21807808116747" lon="9.333905161404475"><ele>69.5</ele><time>2026-04-11T09:32:49.001Z</time></trkpt><trkpt lat="45.217984127168236" lon="9.334006046831917"><ele>69.25</ele><time>2026-04-11T09:32:50.001Z</time></trkpt><trkpt lat="45.21788784326288" lon="9.334110049309489"><ele>69.0</ele><time>2026-04-11T09:32:51.001Z</time></trkpt><trkpt lat="45.21779684661164" lon="9.334200462128193"><ele>69.0</ele><time>2026-04-11T09:32:52.001Z</time></trkpt><trkpt lat="45.21770943842011" lon="9.334276805250035"><ele>69.0</ele><time>2026-04-11T09:32:53.001Z</time></trkpt><trkpt lat="45.21762631780176" lon="9.334338679758865"><ele>69.0</ele><time>2026-04-11T09:32:54.001Z</time></trkpt><trkpt lat="45.21754280037436" lon="9.334387588947983"><ele>69.0</ele><time>2026-04-11T09:32:55.001Z</time></trkpt><trkpt lat="45.21745369692443" lon="9.334440877109472"><ele>69.0</ele><time>2026-04-11T09:32:56.001Z</time></trkpt><trkpt lat="45.217355982513794" lon="9.334490419108452"><ele>69.60000000000001</ele><time>2026-04-11T09:32:57.001Z</time></trkpt><trkpt lat="45.217255703367336" lon="9.334532665196564"><ele>70.2</ele><time>2026-04-11T09:32:58.001Z</time></trkpt><trkpt lat="45.21715715953369" lon="9.334580295184379"><ele>70.80000000000001</ele><time>2026-04-11T09:32:59.001Z</time></trkpt><trkpt lat="45.21706908598737" lon="9.334621344664953"><ele>71.4</ele><time>2026-04-11T09:33:00.001Z</time></trkpt><trkpt lat="45.216982083137" lon="9.33466217427862"><ele>72.0</ele><time>2026-04-11T09:33:01.001Z</time></trkpt><trkpt lat="45.216888816209654" lon="9.334699363797956"><ele>72.0</ele><time>2026-04-11T09:33:02.001Z</time></trkpt><trkpt lat="45.216785050519334" lon="9.334729767633663"><ele>72.0</ele><time>2026-04-11T09:33:03.001Z</time></trkpt><trkpt lat="45.21667670889873" lon="9.334749923944399"><ele>72.0</ele><time>2026-04-11T09:33:04.001Z</time></trkpt><trkpt lat="45.21657791852656" lon="9.334748741710957"><ele>72.0</ele><time>2026-04-11T09:33:05.001Z</time></trkpt><trkpt lat="45.216479385678696" lon="9.334726718310256"><ele>72.0</ele><time>2026-04-11T09:33:06.001Z</time></trkpt><trkpt lat="45.21639553355367" lon="9.33467741432112"><ele>72.0</ele><time>2026-04-11T09:33:07.001Z</time></trkpt><trkpt lat="45.21630514413631" lon="9.334623138464647"><ele>72.0</ele><time>2026-04-11T09:33:08Z</time></trkpt><trkpt lat="45.216218124771174" lon="9.334604981333616"><ele>72.0</ele><time>2026-04-11T09:33:09Z</time></trkpt><trkpt lat="45.21613614028474" lon="9.334633138319246"><ele>72.0</ele><time>2026-04-11T09:33:10Z</time></trkpt><trkpt lat="45.216055053425094" lon="9.334699465904617"><ele>72.0</ele><time>2026-04-11T09:33:11Z</time></trkpt><trkpt lat="45.21595721737973" lon="9.334780103200703"><ele>72.0</ele><time>2026-04-11T09:33:12Z</time></trkpt><trkpt lat="45.215846756608215" lon="9.334851162185767"><ele>72.0</ele><time>2026-04-11T09:33:13Z</time></trkpt><trkpt lat="45.2157205669058" lon="9.334921202786019"><ele>72.0</ele><time>2026-04-11T09:33:14Z</time></trkpt><trkpt lat="45.21559656219074" lon="9.334990364138298"><ele>72.0</ele><time>2026-04-11T09:33:15Z</time></trkpt><trkpt lat="45.21547601471553" lon="9.335053619183482"><ele>72.0</ele><time>2026-04-11T09:33:16Z</time></trkpt><trkpt lat="45.215365956429984" lon="9.335113915473144"><ele>72.0</ele><time>2026-04-11T09:33:17Z</time></trkpt><trkpt lat="45.21525465866065" lon="9.33518161669313"><ele>72.0</ele><time>2026-04-11T09:33:18Z</time></trkpt><trkpt lat="45.21513658477214" lon="9.33525510912606"><ele>72.0</ele><time>2026-04-11T09:33:19Z</time></trkpt><trkpt lat="45.21502175960425" lon="9.335332453598765"><ele>72.0</ele><time>2026-04-11T09:33:20Z</time></trkpt><trkpt lat="45.21490551284847" lon="9.33542308181822"><ele>72.0</ele><time>2026-04-11T09:33:21Z</time></trkpt><trkpt lat="45.21481055347771" lon="9.335507359576455"><ele>72.0</ele><time>2026-04-11T09:33:22Z</time></trkpt><trkpt lat="45.21474275119912" lon="9.335579085530943"><ele>72.0</ele><time>2026-04-11T09:33:23Z</time></trkpt><trkpt lat="45.21467624352314" lon="9.335680195947885"><ele>72.0</ele><time>2026-04-11T09:33:25Z</time></trkpt><trkpt lat="45.21462256362738" lon="9.335761344462043"><ele>72.0</ele><time>2026-04-11T09:33:27Z</time></trkpt><trkpt lat="45.21456579279223" lon="9.335850255066042"><ele>72.0</ele><time>2026-04-11T09:33:36Z</time></trkpt><trkpt lat="45.21450169331219" lon="9.335953588782418"><ele>72.0</ele><time>2026-04-11T09:33:38Z</time></trkpt><trkpt lat="45.21443788535805" lon="9.336040954122119"><ele>72.0</ele><time>2026-04-11T09:33:40Z</time></trkpt><trkpt lat="45.214365708464975" lon="9.33612415021021"><ele>72.0</ele><time>2026-04-11T09:33:42Z</time></trkpt><trkpt lat="45.21427409993356" lon="9.33618202228256"><ele>72.0</ele><time>2026-04-11T09:33:44Z</time></trkpt><trkpt lat="45.21418574956998" lon="9.336226199404681"><ele>72.0</ele><time>2026-04-11T09:33:46Z</time></trkpt><trkpt lat="45.21409702446021" lon="9.336274959631783"><ele>72.0</ele><time>2026-04-11T09:33:48Z</time></trkpt><trkpt lat="45.21400391719427" lon="9.336331417150822"><ele>72.0</ele><time>2026-04-11T09:33:50Z</time></trkpt><trkpt lat="45.21390489133031" lon="9.336386604479758"><ele>72.0</ele><time>2026-04-11T09:33:52Z</time></trkpt><trkpt lat="45.21382475505791" lon="9.336433096000224"><ele>72.0</ele><time>2026-04-11T09:33:54Z</time></trkpt><trkpt lat="45.213765296892475" lon="9.336469084931462"><ele>72.0</ele><time>2026-04-11T09:33:56Z</time></trkpt><trkpt lat="45.21370280284925" lon="9.336507108651332"><ele>72.0</ele><time>2026-04-11T09:33:59Z</time></trkpt><trkpt lat="45.21361757304841" lon="9.33656049541718"><ele>72.0</ele><time>2026-04-11T09:34:01Z</time></trkpt><trkpt lat="45.213541986207474" lon="9.336607373557335"><ele>72.0</ele><time>2026-04-11T09:34:03Z</time></trkpt><trkpt lat="45.213475365090694" lon="9.336650144540355"><ele>72.0</ele><time>2026-04-11T09:34:05Z</time></trkpt><trkpt lat="45.21344465809729" lon="9.33673816009293"><ele>72.0</ele><time>2026-04-11T09:34:08Z</time></trkpt><trkpt lat="45.2134717027595" lon="9.336869154811188"><ele>72.0</ele><time>2026-04-11T09:34:11Z</time></trkpt><trkpt lat="45.21353041847384" lon="9.337001875944576"><ele>72.0</ele><time>2026-04-11T09:34:13Z</time></trkpt><trkpt lat="45.21357570848968" lon="9.337130717019544"><ele>72.0</ele><time>2026-04-11T09:34:15Z</time></trkpt><trkpt lat="45.21360845245744" lon="9.337212197438875"><ele>72.0</ele><time>2026-04-11T09:34:17Z</time></trkpt><trkpt lat="45.21364351898895" lon="9.337294391953384"><ele>72.0</ele><time>2026-04-11T09:34:28Z</time></trkpt><trkpt lat="45.21367805145028" lon="9.337370607370445"><ele>72.00000000000001</ele><time>2026-04-11T09:34:30Z</time></trkpt><trkpt lat="45.213715671002866" lon="9.337446795375012"><ele>72.0</ele><time>2026-04-11T09:34:33Z</time></trkpt><trkpt lat="45.213758285856144" lon="9.33753995679546"><ele>72.0</ele><time>2026-04-11T09:34:36.001Z</time></trkpt><trkpt lat="45.21380444609518" lon="9.337657955110341"><ele>72.0</ele><time>2026-04-11T09:34:39.001Z</time></trkpt><trkpt lat="45.213836290212846" lon="9.337735139375782"><ele>72.0</ele><time>2026-04-11T09:34:41.001Z</time></trkpt><trkpt lat="45.21386802886021" lon="9.337818653275361"><ele>72.00000000000001</ele><time>2026-04-11T09:34:43.001Z</time></trkpt><trkpt lat="45.21389482848555" lon="9.337921231902929"><ele>72.0</ele><time>2026-04-11T09:34:46.001Z</time></trkpt><trkpt lat="45.21392513025157" lon="9.338021098423354"><ele>71.66666666666667</ele><time>2026-04-11T09:34:49.001Z</time></trkpt><trkpt lat="45.21395261109824" lon="9.338112679805732"><ele>71.33333333333333</ele><time>2026-04-11T09:34:51.001Z</time></trkpt><trkpt lat="45.2139987898447" lon="9.338220693144006"><ele>71.0</ele><time>2026-04-11T09:34:54.001Z</time></trkpt><trkpt lat="45.21406389981098" lon="9.3382760472771"><ele>70.66666666666666</ele><time>2026-04-11T09:35:01.001Z</time></trkpt><trkpt lat="45.21414264856554" lon="9.338218082473203"><ele>70.33333333333333</ele><time>2026-04-11T09:35:03.001Z</time></trkpt><trkpt lat="45.21419748319264" lon="9.338165945184178"><ele>70.0</ele><time>2026-04-11T09:35:05.001Z</time></trkpt><trkpt lat="45.21426287917641" lon="9.33811058405624"><ele>70.16666666666666</ele><time>2026-04-11T09:35:07.001Z</time></trkpt><trkpt lat="45.214331034773245" lon="9.338049629505006"><ele>70.33333333333333</ele><time>2026-04-11T09:35:14.001Z</time></trkpt><trkpt lat="45.21440060017098" lon="9.337982077910382"><ele>70.5</ele><time>2026-04-11T09:35:16.001Z</time></trkpt><trkpt lat="45.214498925887376" lon="9.33792885097961"><ele>70.66666666666667</ele><time>2026-04-11T09:35:18.001Z</time></trkpt><trkpt lat="45.21458616280813" lon="9.337887902461494"><ele>70.83333333333334</ele><time>2026-04-11T09:35:20.001Z</time></trkpt><trkpt lat="45.21466724069989" lon="9.337844707026614"><ele>71.0</ele><time>2026-04-11T09:35:24.001Z</time></trkpt><trkpt lat="45.214728724376464" lon="9.337818962615941"><ele>71.0</ele><time>2026-04-11T09:35:28.001Z</time></trkpt><trkpt lat="45.21479204993919" lon="9.337784346582053"><ele>71.0</ele><time>2026-04-11T09:35:43.001Z</time></trkpt><trkpt lat="45.21486500591423" lon="9.337761355038522"><ele>71.0</ele><time>2026-04-11T09:35:49.001Z</time></trkpt><trkpt lat="45.21492426731858" lon="9.337726203407993"><ele>71.0</ele><time>2026-04-11T09:35:53.001Z</time></trkpt><trkpt lat="45.21499936924478" lon="9.337687836887136"><ele>71.0</ele><time>2026-04-11T09:35:58.001Z</time></trkpt><trkpt lat="45.21506200352474" lon="9.337658783001514"><ele>71.0</ele><time>2026-04-11T09:36:00.001Z</time></trkpt><trkpt lat="45.21513488984108" lon="9.3376187189366"><ele>71.0</ele><time>2026-04-11T09:36:02.001Z</time></trkpt><trkpt lat="45.21521335668946" lon="9.337591482784317"><ele>71.16666666666667</ele><time>2026-04-11T09:36:04.001Z</time></trkpt><trkpt lat="45.2152760506217" lon="9.337563378844246"><ele>71.33333333333334</ele><time>2026-04-11T09:36:06.001Z</time></trkpt><trkpt lat="45.2153379562495" lon="9.337511982159109"><ele>71.5</ele><time>2026-04-11T09:36:09.001Z</time></trkpt><trkpt lat="45.21529727113606" lon="9.337380880623469"><ele>71.66666666666667</ele><time>2026-04-11T09:36:19.001Z</time></trkpt><trkpt lat="45.215235930109316" lon="9.337246256255371"><ele>71.83333333333333</ele><time>2026-04-11T09:36:21.001Z</time></trkpt><trkpt lat="45.21518576697355" lon="9.337129880790936"><ele>72.0</ele><time>2026-04-11T09:36:23.001Z</time></trkpt><trkpt lat="45.21513668919406" lon="9.3369978818013"><ele>72.0</ele><time>2026-04-11T09:36:25.001Z</time></trkpt><trkpt lat="45.215096695187356" lon="9.336849336490726"><ele>72.0</ele><time>2026-04-11T09:36:27.001Z</time></trkpt><trkpt lat="45.215057571392" lon="9.336758853506128"><ele>72.0</ele><time>2026-04-11T09:36:28.001Z</time></trkpt><trkpt lat="45.21501558389253" lon="9.33665571406135"><ele>72.0</ele><time>2026-04-11T09:36:29.001Z</time></trkpt><trkpt lat="45.21497776387024" lon="9.33655954701083"><ele>72.0</ele><time>2026-04-11T09:36:30.001Z</time></trkpt><trkpt lat="45.21491969274005" lon="9.33642575153712"><ele>72.0</ele><time>2026-04-11T09:36:32.001Z</time></trkpt><trkpt lat="45.214880731706195" lon="9.336309847599901"><ele>72.0</ele><time>2026-04-11T09:36:41.001Z</time></trkpt><trkpt lat="45.21484848264509" lon="9.33621779471289"><ele>72.0</ele><time>2026-04-11T09:36:43.001Z</time></trkpt><trkpt lat="45.214818514282875" lon="9.336124665378348"><ele>72.0</ele><time>2026-04-11T09:36:45.001Z</time></trkpt><trkpt lat="45.214775850182264" lon="9.336020684504705"><ele>72.0</ele><time>2026-04-11T09:36:48.001Z</time></trkpt><trkpt lat="45.21473752112959" lon="9.33588895386004"><ele>72.0</ele><time>2026-04-11T09:36:50.001Z</time></trkpt><trkpt lat="45.214711084208744" lon="9.335790159434978"><ele>72.0</ele><time>2026-04-11T09:36:52.001Z</time></trkpt><trkpt lat="45.21471568211222" lon="9.335663310269734"><ele>72.0</ele><time>2026-04-11T09:36:55.001Z</time></trkpt><trkpt lat="45.21476389358857" lon="9.33558387293616"><ele>72.0</ele><time>2026-04-11T09:36:57.001Z</time></trkpt><trkpt lat="45.21484739154938" lon="9.335493565481345"><ele>72.0</ele><time>2026-04-11T09:36:59.001Z</time></trkpt><trkpt lat="45.21491019521115" lon="9.335440568674615"><ele>72.0</ele><time>2026-04-11T09:37:00.001Z</time></trkpt><trkpt lat="45.21497353734275" lon="9.335388929444518"><ele>72.0</ele><time>2026-04-11T09:37:01.001Z</time></trkpt><trkpt lat="45.215045195540604" lon="9.335334483446578"><ele>72.0</ele><time>2026-04-11T09:37:02.001Z</time></trkpt><trkpt lat="45.215119161498535" lon="9.335281002168301"><ele>72.0</ele><time>2026-04-11T09:37:03.001Z</time></trkpt><trkpt lat="45.21518639404349" lon="9.335237858313041"><ele>72.0</ele><time>2026-04-11T09:37:04.001Z</time></trkpt><trkpt lat="45.21526509529981" lon="9.335191169523352"><ele>72.0</ele><time>2026-04-11T09:37:05.001Z</time></trkpt><trkpt lat="45.215330510647725" lon="9.335148005016563"><ele>72.0</ele><time>2026-04-11T09:37:06.001Z</time></trkpt><trkpt lat="45.21541493959329" lon="9.335100941552195"><ele>72.0</ele><time>2026-04-11T09:37:07.001Z</time></trkpt><trkpt lat="45.21549585795344" lon="9.33505918593875"><ele>72.0</ele><time>2026-04-11T09:37:08.001Z</time></trkpt><trkpt lat="45.21557734230955" lon="9.335012689219196"><ele>72.0</ele><time>2026-04-11T09:37:09.001Z</time></trkpt><trkpt lat="45.21566091681915" lon="9.334966466283738"><ele>72.0</ele><time>2026-04-11T09:37:10.001Z</time></trkpt><trkpt lat="45.21574470644673" lon="9.334918241991167"><ele>72.0</ele><time>2026-04-11T09:37:11.001Z</time></trkpt><trkpt lat="45.2158228172116" lon="9.334874808982951"><ele>72.0</ele><time>2026-04-11T09:37:12.001Z</time></trkpt><trkpt lat="45.21589874117744" lon="9.334831466366609"><ele>72.0</ele><time>2026-04-11T09:37:13.001Z</time></trkpt><trkpt lat="45.21597530704202" lon="9.334786630453076"><ele>72.0</ele><time>2026-04-11T09:37:14.001Z</time></trkpt><trkpt lat="45.21604695812223" lon="9.334740111176107"><ele>72.0</ele><time>2026-04-11T09:37:15.001Z</time></trkpt><trkpt lat="45.21611839042813" lon="9.334691618002141"><ele>72.0</ele><time>2026-04-11T09:37:16.001Z</time></trkpt><trkpt lat="45.21617747616821" lon="9.334651057888394"><ele>72.0</ele><time>2026-04-11T09:37:17.001Z</time></trkpt><trkpt lat="45.21629154727971" lon="9.33462591339927"><ele>72.0</ele><time>2026-04-11T09:37:19.001Z</time></trkpt><trkpt lat="45.21635554150864" lon="9.334645044824788"><ele>72.0</ele><time>2026-04-11T09:37:20.001Z</time></trkpt><trkpt lat="45.21642123326859" lon="9.334688254074889"><ele>72.0</ele><time>2026-04-11T09:37:21.001Z</time></trkpt><trkpt lat="45.216500651876" lon="9.334734087368808"><ele>72.0</ele><time>2026-04-11T09:37:22.001Z</time></trkpt><trkpt lat="45.21658431925142" lon="9.334764845053442"><ele>72.0</ele><time>2026-04-11T09:37:23.001Z</time></trkpt><trkpt lat="45.21666804390512" lon="9.334768237001636"><ele>72.0</ele><time>2026-04-11T09:37:24.001Z</time></trkpt><trkpt lat="45.21675134788291" lon="9.334756322696617"><ele>72.0</ele><time>2026-04-11T09:37:25.001Z</time></trkpt><trkpt lat="45.2168391337876" lon="9.334733689693365"><ele>72.0</ele><time>2026-04-11T09:37:26.001Z</time></trkpt><trkpt lat="45.216927982562325" lon="9.33470471307909"><ele>72.0</ele><time>2026-04-11T09:37:27.001Z</time></trkpt><trkpt lat="45.21701606054561" lon="9.334669338746064"><ele>72.0</ele><time>2026-04-11T09:37:28.001Z</time></trkpt><trkpt lat="45.21710711266366" lon="9.3346243647015"><ele>72.0</ele><time>2026-04-11T09:37:29.001Z</time></trkpt><trkpt lat="45.21719983894202" lon="9.33457710453797"><ele>72.0</ele><time>2026-04-11T09:37:30.001Z</time></trkpt><trkpt lat="45.21729350753291" lon="9.334531866037908"><ele>72.0</ele><time>2026-04-11T09:37:31.001Z</time></trkpt><trkpt lat="45.21738795027267" lon="9.334486268948494"><ele>71.4</ele><time>2026-04-11T09:37:32.001Z</time></trkpt><trkpt lat="45.2174771698169" lon="9.334444753559577"><ele>70.80000000000001</ele><time>2026-04-11T09:37:33.001Z</time></trkpt><trkpt lat="45.217565585828304" lon="9.334396950203113"><ele>70.2</ele><time>2026-04-11T09:37:34.001Z</time></trkpt><trkpt lat="45.21765141399325" lon="9.334335959666507"><ele>69.60000000000001</ele><time>2026-04-11T09:37:35.001Z</time></trkpt><trkpt lat="45.217734862597105" lon="9.334272294632232"><ele>69.0</ele><time>2026-04-11T09:37:36Z</time></trkpt><trkpt lat="45.21780456242535" lon="9.334216481754227"><ele>69.0</ele><time>2026-04-11T09:37:37Z</time></trkpt><trkpt lat="45.217859272105436" lon="9.334162919159308"><ele>69.0</ele><time>2026-04-11T09:37:38Z</time></trkpt><trkpt lat="45.217926215540054" lon="9.334097373376812"><ele>69.0</ele><time>2026-04-11T09:37:39Z</time></trkpt><trkpt lat="45.218011339778315" lon="9.33401112241401"><ele>69.0</ele><time>2026-04-11T09:37:40Z</time></trkpt><trkpt lat="45.21810588872358" lon="9.333914011172704"><ele>69.0</ele><time>2026-04-11T09:37:41Z</time></trkpt><trkpt lat="45.218207028169836" lon="9.333824478700361"><ele>69.2</ele><time>2026-04-11T09:37:42Z</time></trkpt><trkpt lat="45.2183028575779" lon="9.333770957060858"><ele>69.4</ele><time>2026-04-11T09:37:43Z</time></trkpt><trkpt lat="45.21839902376663" lon="9.333743403011542"><ele>69.6</ele><time>2026-04-11T09:37:44Z</time></trkpt><trkpt lat="45.21849747996675" lon="9.333722105156651"><ele>69.8</ele><time>2026-04-11T09:37:45Z</time></trkpt><trkpt lat="45.21860663658453" lon="9.333698600551743"><ele>70.0</ele><time>2026-04-11T09:37:46Z</time></trkpt><trkpt lat="45.21871965383176" lon="9.333665130895502"><ele>70.0</ele><time>2026-04-11T09:37:47Z</time></trkpt><trkpt lat="45.2188369477565" lon="9.333618705072968"><ele>70.0</ele><time>2026-04-11T09:37:48Z</time></trkpt><trkpt lat="45.2189589092765" lon="9.333566154659461"><ele>70.0</ele><time>2026-04-11T09:37:49Z</time></trkpt><trkpt lat="45.21908365770831" lon="9.333506618807547"><ele>70.0</ele><time>2026-04-11T09:37:50Z</time></trkpt><trkpt lat="45.219203566038786" lon="9.333452073375808"><ele>70.5</ele><time>2026-04-11T09:37:51Z</time></trkpt><trkpt lat="45.21930794763352" lon="9.333403130502928"><ele>71.0</ele><time>2026-04-11T09:37:52Z</time></trkpt><trkpt lat="45.21940324936686" lon="9.333353706387788"><ele>71.5</ele><time>2026-04-11T09:37:53Z</time></trkpt><trkpt lat="45.21951002712749" lon="9.33328870569325"><ele>72.0</ele><time>2026-04-11T09:37:54Z</time></trkpt><trkpt lat="45.21965651980786" lon="9.333248013971449"><ele>72.25</ele><time>2026-04-11T09:37:55Z</time></trkpt><trkpt lat="45.219822389443074" lon="9.333194032576396"><ele>72.5</ele><time>2026-04-11T09:37:56Z</time></trkpt><trkpt lat="45.21996596052902" lon="9.333147698610448"><ele>72.75</ele><time>2026-04-11T09:37:57Z</time></trkpt><trkpt lat="45.22009518487829" lon="9.333109612210725"><ele>73.0</ele><time>2026-04-11T09:37:58Z</time></trkpt><trkpt lat="45.220217871801395" lon="9.333068900890392"><ele>72.75</ele><time>2026-04-11T09:37:59Z</time></trkpt><trkpt lat="45.220329658242136" lon="9.33301845437272"><ele>72.5</ele><time>2026-04-11T09:38:00Z</time></trkpt><trkpt lat="45.22043202230064" lon="9.332942544000028"><ele>72.25</ele><time>2026-04-11T09:38:01Z</time></trkpt><trkpt lat="45.22053473041628" lon="9.332847999759869"><ele>72.0</ele><time>2026-04-11T09:38:02Z</time></trkpt><trkpt lat="45.22063778212439" lon="9.332753359118245"><ele>72.25</ele><time>2026-04-11T09:38:03Z</time></trkpt><trkpt lat="45.22074070830125" lon="9.332653783569286"><ele>72.5</ele><time>2026-04-11T09:38:04Z</time></trkpt><trkpt lat="45.22084684336628" lon="9.33255321694144"><ele>72.75</ele><time>2026-04-11T09:38:05Z</time></trkpt><trkpt lat="45.220953323232024" lon="9.33245259568596"><ele>73.0</ele><time>2026-04-11T09:38:06Z</time></trkpt><trkpt lat="45.22106021239048" lon="9.332352297944327"><ele>73.0</ele><time>2026-04-11T09:38:07Z</time></trkpt><trkpt lat="45.22116196073569" lon="9.332257043528509"><ele>73.0</ele><time>2026-04-11T09:38:08Z</time></trkpt><trkpt lat="45.22125749269784" lon="9.332172050577013"><ele>73.0</ele><time>2026-04-11T09:38:09Z</time></trkpt><trkpt lat="45.22135124732681" lon="9.332101987765398"><ele>73.0</ele><time>2026-04-11T09:38:10Z</time></trkpt><trkpt lat="45.221449927581645" lon="9.332042236605737"><ele>73.0</ele><time>2026-04-11T09:38:11Z</time></trkpt><trkpt lat="45.22155193635903" lon="9.331984981449502"><ele>73.33333333333333</ele><time>2026-04-11T09:38:12Z</time></trkpt><trkpt lat="45.22164758424118" lon="9.331946840751726"><ele>73.66666666666666</ele><time>2026-04-11T09:38:13Z</time></trkpt><trkpt lat="45.221740155020306" lon="9.331922479440534"><ele>74.0</ele><time>2026-04-11T09:38:14Z</time></trkpt><trkpt lat="45.22182733856335" lon="9.331903658611965"><ele>74.33333333333333</ele><time>2026-04-11T09:38:15Z</time></trkpt><trkpt lat="45.22190688893876" lon="9.331893923172846"><ele>74.66666666666667</ele><time>2026-04-11T09:38:16Z</time></trkpt><trkpt lat="45.22199087488884" lon="9.331889557731042"><ele>75.0</ele><time>2026-04-11T09:38:17Z</time></trkpt><trkpt lat="45.22208142285339" lon="9.33186879970022"><ele>75.0</ele><time>2026-04-11T09:38:18Z</time></trkpt><trkpt lat="45.22216901203801" lon="9.331812197691194"><ele>75.0</ele><time>2026-04-11T09:38:19Z</time></trkpt><trkpt lat="45.22226962445345" lon="9.331796513255814"><ele>75.0</ele><time>2026-04-11T09:38:20Z</time></trkpt><trkpt lat="45.22236931854956" lon="9.331752668647784"><ele>75.0</ele><time>2026-04-11T09:38:21Z</time></trkpt><trkpt lat="45.2224733371369" lon="9.331694426808891"><ele>75.0</ele><time>2026-04-11T09:38:22Z</time></trkpt><trkpt lat="45.22257408404743" lon="9.33162790258209"><ele>75.0</ele><time>2026-04-11T09:38:23Z</time></trkpt><trkpt lat="45.22267382714456" lon="9.331568738602495"><ele>75.0</ele><time>2026-04-11T09:38:24Z</time></trkpt><trkpt lat="45.22276698543769" lon="9.331513480061503"><ele>75.0</ele><time>2026-04-11T09:38:25Z</time></trkpt><trkpt lat="45.22286393458018" lon="9.331472600310848"><ele>75.0</ele><time>2026-04-11T09:38:26Z</time></trkpt><trkpt lat="45.22296231865065" lon="9.331433246000335"><ele>75.0</ele><time>2026-04-11T09:38:27Z</time></trkpt><trkpt lat="45.223051493129006" lon="9.33139306864627"><ele>74.66666666666667</ele><time>2026-04-11T09:38:28Z</time></trkpt><trkpt lat="45.22313413816372" lon="9.331347515203804"><ele>74.33333333333333</ele><time>2026-04-11T09:38:29Z</time></trkpt><trkpt lat="45.223209977972765" lon="9.331281844213507"><ele>74.0</ele><time>2026-04-11T09:38:30Z</time></trkpt><trkpt lat="45.223271149089925" lon="9.331212684675139"><ele>73.66666666666666</ele><time>2026-04-11T09:38:31Z</time></trkpt><trkpt lat="45.22333007879749" lon="9.3311350520449"><ele>73.33333333333333</ele><time>2026-04-11T09:38:32Z</time></trkpt><trkpt lat="45.22339284310587" lon="9.331054829716251"><ele>73.0</ele><time>2026-04-11T09:38:33Z</time></trkpt><trkpt lat="45.223451435725984" lon="9.330968325672913"><ele>73.0</ele><time>2026-04-11T09:38:34Z</time></trkpt><trkpt lat="45.22349840401798" lon="9.330880502068338"><ele>73.0</ele><time>2026-04-11T09:38:35Z</time></trkpt><trkpt lat="45.2235201962084" lon="9.330785875652618"><ele>73.0</ele><time>2026-04-11T09:38:36Z</time></trkpt><trkpt lat="45.22358755417086" lon="9.330704597055126"><ele>73.0</ele><time>2026-04-11T09:38:38Z</time></trkpt><trkpt lat="45.22368955938266" lon="9.330727912870145"><ele>73.0</ele><time>2026-04-11T09:38:41Z</time></trkpt><trkpt lat="45.22377594646135" lon="9.330800078833512"><ele>73.0</ele><time>2026-04-11T09:38:44Z</time></trkpt><trkpt lat="45.22382513579989" lon="9.330856724226967"><ele>73.0</ele><time>2026-04-11T09:38:45Z</time></trkpt><trkpt lat="45.223875039623195" lon="9.330914456100519"><ele>73.0</ele><time>2026-04-11T09:38:46Z</time></trkpt><trkpt lat="45.2239307421121" lon="9.330979230485402"><ele>73.0</ele><time>2026-04-11T09:38:47Z</time></trkpt><trkpt lat="45.22398964145289" lon="9.331048206085022"><ele>73.0</ele><time>2026-04-11T09:38:48Z</time></trkpt><trkpt lat="45.22405799998979" lon="9.331127285227454"><ele>73.0</ele><time>2026-04-11T09:38:49Z</time></trkpt><trkpt lat="45.22413393785176" lon="9.331214233777388"><ele>73.0</ele><time>2026-04-11T09:38:50Z</time></trkpt><trkpt lat="45.22421431896086" lon="9.33130626982937"><ele>73.0</ele><time>2026-04-11T09:38:51Z</time></trkpt><trkpt lat="45.22429826014475" lon="9.331402382119343"><ele>73.0</ele><time>2026-04-11T09:38:52Z</time></trkpt><trkpt lat="45.22438311796495" lon="9.331499544031391"><ele>73.0</ele><time>2026-04-11T09:38:53Z</time></trkpt><trkpt lat="45.22446274992218" lon="9.331590605712009"><ele>73.0</ele><time>2026-04-11T09:38:54Z</time></trkpt><trkpt lat="45.22453556487608" lon="9.331674497446315"><ele>73.0</ele><time>2026-04-11T09:38:55Z</time></trkpt><trkpt lat="45.22460129293549" lon="9.331752866135615"><ele>73.0</ele><time>2026-04-11T09:38:56Z</time></trkpt><trkpt lat="45.22466036054189" lon="9.33182576424437"><ele>73.0</ele><time>2026-04-11T09:38:57Z</time></trkpt><trkpt lat="45.2247267419927" lon="9.331874210129621"><ele>73.0</ele><time>2026-04-11T09:38:58Z</time></trkpt><trkpt lat="45.22476358204499" lon="9.33195294673953"><ele>73.0</ele><time>2026-04-11T09:38:59Z</time></trkpt><trkpt lat="45.224854942904464" lon="9.33203571133621"><ele>73.0</ele><time>2026-04-11T09:39:01Z</time></trkpt><trkpt lat="45.224938485437306" lon="9.33204261443481"><ele>73.0</ele><time>2026-04-11T09:39:03Z</time></trkpt><trkpt lat="45.224868361548964" lon="9.332045527495362"><ele>73.0</ele><time>2026-04-11T09:39:50Z</time></trkpt><trkpt lat="45.22480418730831" lon="9.332017365172268"><ele>73.0</ele><time>2026-04-11T09:39:52Z</time></trkpt><trkpt lat="45.22472163170004" lon="9.33194594912408"><ele>73.0</ele><time>2026-04-11T09:39:54Z</time></trkpt><trkpt lat="45.224665976430366" lon="9.331728436547014"><ele>73.0</ele><time>2026-04-11T09:39:55Z</time></trkpt><trkpt lat="45.22455465671806" lon="9.331620911150711"><ele>73.0</ele><time>2026-04-11T09:39:58Z</time></trkpt><trkpt lat="45.22445536606325" lon="9.33150869673418"><ele>73.0</ele><time>2026-04-11T09:40:00Z</time></trkpt><trkpt lat="45.224397266052044" lon="9.331441108075834"><ele>73.0</ele><time>2026-04-11T09:40:01Z</time></trkpt><trkpt lat="45.22433189629367" lon="9.331364580716704"><ele>73.0</ele><time>2026-04-11T09:40:02Z</time></trkpt><trkpt lat="45.224266143895335" lon="9.33128970115557"><ele>73.0</ele><time>2026-04-11T09:40:03Z</time></trkpt><trkpt lat="45.22419132967173" lon="9.331211809876656"><ele>73.0</ele><time>2026-04-11T09:40:04Z</time></trkpt><trkpt lat="45.22411364061243" lon="9.331124226974918"><ele>73.0</ele><time>2026-04-11T09:40:05Z</time></trkpt><trkpt lat="45.22403684310024" lon="9.331035862918046"><ele>73.0</ele><time>2026-04-11T09:40:06Z</time></trkpt><trkpt lat="45.22396237888817" lon="9.330944288619323"><ele>73.0</ele><time>2026-04-11T09:40:07Z</time></trkpt><trkpt lat="45.22388962381125" lon="9.330856674425803"><ele>73.0</ele><time>2026-04-11T09:40:08Z</time></trkpt><trkpt lat="45.223819218275" lon="9.330772606962674"><ele>73.0</ele><time>2026-04-11T09:40:09Z</time></trkpt><trkpt lat="45.223743199655665" lon="9.330703048308395"><ele>73.0</ele><time>2026-04-11T09:40:10Z</time></trkpt><trkpt lat="45.22366500761742" lon="9.330651617490046"><ele>73.0</ele><time>2026-04-11T09:40:11Z</time></trkpt><trkpt lat="45.22359546486106" lon="9.330596643663641"><ele>73.0</ele><time>2026-04-11T09:40:12Z</time></trkpt><trkpt lat="45.22352818779139" lon="9.33052401909316"><ele>73.0</ele><time>2026-04-11T09:40:13Z</time></trkpt><trkpt lat="45.223473757623346" lon="9.330415801350938"><ele>73.0</ele><time>2026-04-11T09:40:14Z</time></trkpt><trkpt lat="45.223418315312024" lon="9.33029133712541"><ele>73.2</ele><time>2026-04-11T09:40:15Z</time></trkpt><trkpt lat="45.223363840366524" lon="9.330153219826908"><ele>73.4</ele><time>2026-04-11T09:40:16Z</time></trkpt><trkpt lat="45.22331055416141" lon="9.33000834189117"><ele>73.60000000000001</ele><time>2026-04-11T09:40:17Z</time></trkpt><trkpt lat="45.22326092498672" lon="9.329858625536087"><ele>73.8</ele><time>2026-04-11T09:40:18Z</time></trkpt><trkpt lat="45.223218352937" lon="9.329722146774408"><ele>74.0</ele><time>2026-04-11T09:40:19Z</time></trkpt><trkpt lat="45.22318890241459" lon="9.329591622321791"><ele>74.0</ele><time>2026-04-11T09:40:20Z</time></trkpt><trkpt lat="45.22316999210497" lon="9.32946905954288"><ele>74.0</ele><time>2026-04-11T09:40:21Z</time></trkpt><trkpt lat="45.22315404834776" lon="9.32934108470304"><ele>74.0</ele><time>2026-04-11T09:40:22Z</time></trkpt><trkpt lat="45.22314081345041" lon="9.329199370687324"><ele>74.0</ele><time>2026-04-11T09:40:23Z</time></trkpt><trkpt lat="45.223130243504315" lon="9.329040865428635"><ele>74.0</ele><time>2026-04-11T09:40:24Z</time></trkpt><trkpt lat="45.223122459823315" lon="9.328878890881935"><ele>74.2</ele><time>2026-04-11T09:40:25Z</time></trkpt><trkpt lat="45.22311559282453" lon="9.32874255373535"><ele>74.4</ele><time>2026-04-11T09:40:26Z</time></trkpt><trkpt lat="45.22310766062617" lon="9.32863437420999"><ele>74.6</ele><time>2026-04-11T09:40:27Z</time></trkpt><trkpt lat="45.22308715422754" lon="9.32847751102599"><ele>74.8</ele><time>2026-04-11T09:40:29Z</time></trkpt><trkpt lat="45.22306412990044" lon="9.328325827273082"><ele>75.0</ele><time>2026-04-11T09:40:31Z</time></trkpt><trkpt lat="45.223049389009574" lon="9.328229959517317"><ele>75.0</ele><time>2026-04-11T09:40:32Z</time></trkpt><trkpt lat="45.22303015745218" lon="9.328115209282933"><ele>75.0</ele><time>2026-04-11T09:40:34Z</time></trkpt><trkpt lat="45.223010387461485" lon="9.328016396759212"><ele>75.0</ele><time>2026-04-11T09:40:39Z</time></trkpt><trkpt lat="45.2229963424016" lon="9.327889086054283"><ele>75.0</ele><time>2026-04-11T09:40:41Z</time></trkpt><trkpt lat="45.22296837188213" lon="9.327717480293115"><ele>75.0</ele><time>2026-04-11T09:40:43Z</time></trkpt><trkpt lat="45.22294176020523" lon="9.327552883037104"><ele>74.83333333333333</ele><time>2026-04-11T09:40:45Z</time></trkpt><trkpt lat="45.22293157171975" lon="9.327448472488754"><ele>74.66666666666667</ele><time>2026-04-11T09:40:46Z</time></trkpt><trkpt lat="45.22291853196075" lon="9.327332493004693"><ele>74.5</ele><time>2026-04-11T09:40:47Z</time></trkpt><trkpt lat="45.222897352248616" lon="9.327206838004189"><ele>74.33333333333334</ele><time>2026-04-11T09:40:48Z</time></trkpt><trkpt lat="45.222869746152206" lon="9.327081326762096"><ele>74.16666666666667</ele><time>2026-04-11T09:40:49Z</time></trkpt><trkpt lat="45.22285779389526" lon="9.326950175275554"><ele>74.0</ele><time>2026-04-11T09:40:50Z</time></trkpt><trkpt lat="45.22283934675415" lon="9.32682291703742"><ele>74.0</ele><time>2026-04-11T09:40:51Z</time></trkpt><trkpt lat="45.22282143537173" lon="9.326697727083847"><ele>74.0</ele><time>2026-04-11T09:40:52Z</time></trkpt><trkpt lat="45.22279246336672" lon="9.326571031751923"><ele>74.0</ele><time>2026-04-11T09:40:53Z</time></trkpt><trkpt lat="45.222780793834644" lon="9.326431169526717"><ele>74.0</ele><time>2026-04-11T09:40:54Z</time></trkpt><trkpt lat="45.22276056529788" lon="9.326292138881954"><ele>74.0</ele><time>2026-04-11T09:40:55.001Z</time></trkpt><trkpt lat="45.22273677832529" lon="9.326153680984813"><ele>74.0</ele><time>2026-04-11T09:40:56.001Z</time></trkpt><trkpt lat="45.22271457916014" lon="9.326011674655005"><ele>74.0</ele><time>2026-04-11T09:40:57.001Z</time></trkpt><trkpt lat="45.222697758524596" lon="9.325863564451588"><ele>74.0</ele><time>2026-04-11T09:40:58.001Z</time></trkpt><trkpt lat="45.222681167854866" lon="9.325698096089708"><ele>74.0</ele><time>2026-04-11T09:40:59.001Z</time></trkpt><trkpt lat="45.22266812302573" lon="9.325524369488036"><ele>74.0</ele><time>2026-04-11T09:41:00.001Z</time></trkpt><trkpt lat="45.22265539401062" lon="9.325363911187015"><ele>74.0</ele><time>2026-04-11T09:41:01.001Z</time></trkpt><trkpt lat="45.2226276047662" lon="9.325216792371235"><ele>74.0</ele><time>2026-04-11T09:41:02.001Z</time></trkpt><trkpt lat="45.22257854626792" lon="9.325084535221121"><ele>74.0</ele><time>2026-04-11T09:41:03.001Z</time></trkpt><trkpt lat="45.22252060116389" lon="9.324967558957374"><ele>74.0</ele><time>2026-04-11T09:41:04.001Z</time></trkpt><trkpt lat="45.22245303781374" lon="9.324868707832678"><ele>74.0</ele><time>2026-04-11T09:41:05.001Z</time></trkpt><trkpt lat="45.22237900861882" lon="9.324782134687316"><ele>74.0</ele><time>2026-04-11T09:41:06.001Z</time></trkpt><trkpt lat="45.22230417829905" lon="9.324693097054162"><ele>74.0</ele><time>2026-04-11T09:41:07.001Z</time></trkpt><trkpt lat="45.222226356377284" lon="9.324605319370107"><ele>74.0</ele><time>2026-04-11T09:41:08.001Z</time></trkpt><trkpt lat="45.222144571097694" lon="9.324515453114351"><ele>74.0</ele><time>2026-04-11T09:41:09.001Z</time></trkpt><trkpt lat="45.222062297458606" lon="9.324423380111817"><ele>74.0</ele><time>2026-04-11T09:41:10.001Z</time></trkpt><trkpt lat="45.2219794483118" lon="9.324338766089998"><ele>74.0</ele><time>2026-04-11T09:41:11.001Z</time></trkpt><trkpt lat="45.22190401656505" lon="9.324260990124586"><ele>74.0</ele><time>2026-04-11T09:41:12.001Z</time></trkpt><trkpt lat="45.22183273042879" lon="9.32419230339944"><ele>74.0</ele><time>2026-04-11T09:41:13.001Z</time></trkpt><trkpt lat="45.221765254903985" lon="9.324131384896333"><ele>74.0</ele><time>2026-04-11T09:41:14.001Z</time></trkpt><trkpt lat="45.221704193887255" lon="9.324075049147384"><ele>74.0</ele><time>2026-04-11T09:41:15.001Z</time></trkpt><trkpt lat="45.221645606335" lon="9.324025876144924"><ele>74.0</ele><time>2026-04-11T09:41:16.001Z</time></trkpt><trkpt lat="45.22154332840697" lon="9.323940994081713"><ele>74.0</ele><time>2026-04-11T09:41:18.001Z</time></trkpt><trkpt lat="45.22146202785301" lon="9.323854816806513"><ele>74.0</ele><time>2026-04-11T09:41:20.001Z</time></trkpt><trkpt lat="45.221374732343705" lon="9.323765192758058"><ele>74.0</ele><time>2026-04-11T09:41:22.001Z</time></trkpt><trkpt lat="45.22126962803256" lon="9.323673642962264"><ele>74.0</ele><time>2026-04-11T09:41:24.001Z</time></trkpt><trkpt lat="45.221216265351764" lon="9.3236195669553"><ele>74.0</ele><time>2026-04-11T09:41:25.001Z</time></trkpt><trkpt lat="45.22116238893847" lon="9.323563007388449"><ele>74.0</ele><time>2026-04-11T09:41:26.001Z</time></trkpt><trkpt lat="45.2211109501489" lon="9.32350398033201"><ele>74.0</ele><time>2026-04-11T09:41:27.001Z</time></trkpt><trkpt lat="45.221063032405425" lon="9.323441046863433"><ele>74.0</ele><time>2026-04-11T09:41:28.001Z</time></trkpt><trkpt lat="45.221008300028366" lon="9.323358781765942"><ele>74.0</ele><time>2026-04-11T09:41:30.001Z</time></trkpt><trkpt lat="45.220946302710516" lon="9.323308317830216"><ele>74.0</ele><time>2026-04-11T09:41:51Z</time></trkpt><trkpt lat="45.220880154782854" lon="9.3232307359602"><ele>74.0</ele><time>2026-04-11T09:41:57Z</time></trkpt><trkpt lat="45.220825103630865" lon="9.323091432347633"><ele>73.85714285714286</ele><time>2026-04-11T09:41:59Z</time></trkpt><trkpt lat="45.22078647135844" lon="9.323013955571385"><ele>73.71428571428571</ele><time>2026-04-11T09:42:00Z</time></trkpt><trkpt lat="45.22074653134901" lon="9.322938318922345"><ele>73.57142857142857</ele><time>2026-04-11T09:42:01Z</time></trkpt><trkpt lat="45.22070469991838" lon="9.322856274643987"><ele>73.42857142857143</ele><time>2026-04-11T09:42:01.999Z</time></trkpt><trkpt lat="45.220659937650304" lon="9.322773718016576"><ele>73.28571428571429</ele><time>2026-04-11T09:42:02.999Z</time></trkpt><trkpt lat="45.220611373203475" lon="9.322680497280325"><ele>73.14285714285714</ele><time>2026-04-11T09:42:03.999Z</time></trkpt><trkpt lat="45.22056353888024" lon="9.322580693880083"><ele>73.0</ele><time>2026-04-11T09:42:04.999Z</time></trkpt><trkpt lat="45.22051547601556" lon="9.322473364511609"><ele>73.0</ele><time>2026-04-11T09:42:05.999Z</time></trkpt><trkpt lat="45.22046679572284" lon="9.322355106413386"><ele>73.0</ele><time>2026-04-11T09:42:07Z</time></trkpt><trkpt lat="45.22042633179783" lon="9.322237580851548"><ele>73.0</ele><time>2026-04-11T09:42:08Z</time></trkpt><trkpt lat="45.22038384066073" lon="9.322113637063701"><ele>73.0</ele><time>2026-04-11T09:42:09Z</time></trkpt><trkpt lat="45.22033851721355" lon="9.321980820798721"><ele>73.0</ele><time>2026-04-11T09:42:10Z</time></trkpt><trkpt lat="45.22029028859621" lon="9.321847364731351"><ele>73.0</ele><time>2026-04-11T09:42:11Z</time></trkpt><trkpt lat="45.2202172881258" lon="9.321669776008122"><ele>73.0</ele><time>2026-04-11T09:42:12Z</time></trkpt><trkpt lat="45.22014840563703" lon="9.321503868270652"><ele>73.0</ele><time>2026-04-11T09:42:13Z</time></trkpt><trkpt lat="45.220066861256456" lon="9.32133534975462"><ele>73.0</ele><time>2026-04-11T09:42:14Z</time></trkpt><trkpt lat="45.21999544672755" lon="9.321173635629169"><ele>72.4</ele><time>2026-04-11T09:42:15Z</time></trkpt><trkpt lat="45.21996098489486" lon="9.32101545308883"><ele>71.8</ele><time>2026-04-11T09:42:16Z</time></trkpt><trkpt lat="45.21996903928995" lon="9.320876010029368"><ele>71.2</ele><time>2026-04-11T09:42:17Z</time></trkpt><trkpt lat="45.219971104506" lon="9.320772636036065"><ele>70.6</ele><time>2026-04-11T09:42:18Z</time></trkpt><trkpt lat="45.219928409170876" lon="9.320691565796984"><ele>70.0</ele><time>2026-04-11T09:42:19Z</time></trkpt><trkpt lat="45.219842808975116" lon="9.320616854783257"><ele>70.0</ele><time>2026-04-11T09:42:20Z</time></trkpt><trkpt lat="45.21973421735087" lon="9.320545610498561"><ele>70.0</ele><time>2026-04-11T09:42:21Z</time></trkpt><trkpt lat="45.219594115128224" lon="9.320473654557155"><ele>70.0</ele><time>2026-04-11T09:42:22Z</time></trkpt><trkpt lat="45.219446313142505" lon="9.320386074526587"><ele>70.0</ele><time>2026-04-11T09:42:23Z</time></trkpt><trkpt lat="45.21928714551866" lon="9.320272947377124"><ele>70.0</ele><time>2026-04-11T09:42:24Z</time></trkpt><trkpt lat="45.21908812059446" lon="9.320118845072692"><ele>70.0</ele><time>2026-04-11T09:42:25Z</time></trkpt><trkpt lat="45.21884340545201" lon="9.319935704897414"><ele>70.5</ele><time>2026-04-11T09:42:26Z</time></trkpt><trkpt lat="45.21857822461145" lon="9.319744687879348"><ele>71.0</ele><time>2026-04-11T09:42:27Z</time></trkpt><trkpt lat="45.21830537068183" lon="9.31953938908158"><ele>71.0</ele><time>2026-04-11T09:42:28Z</time></trkpt><trkpt lat="45.21801679650861" lon="9.319322533131778"><ele>71.0</ele><time>2026-04-11T09:42:29Z</time></trkpt><trkpt lat="45.217731900279105" lon="9.319110836624521"><ele>71.0</ele><time>2026-04-11T09:42:30Z</time></trkpt><trkpt lat="45.21747454476939" lon="9.318914421927577"><ele>71.0</ele><time>2026-04-11T09:42:31Z</time></trkpt><trkpt lat="45.217236469925766" lon="9.318735066766832"><ele>70.5</ele><time>2026-04-11T09:42:32Z</time></trkpt><trkpt lat="45.21701050244566" lon="9.31856576728165"><ele>70.0</ele><time>2026-04-11T09:42:33Z</time></trkpt><trkpt lat="45.216796380012305" lon="9.318410975752526"><ele>70.0</ele><time>2026-04-11T09:42:34Z</time></trkpt><trkpt lat="45.21658875736313" lon="9.318256314151"><ele>70.0</ele><time>2026-04-11T09:42:35Z</time></trkpt><trkpt lat="45.21640214997966" lon="9.318082984295595"><ele>70.0</ele><time>2026-04-11T09:42:36Z</time></trkpt><trkpt lat="45.21624153191658" lon="9.31787063134386"><ele>70.0</ele><time>2026-04-11T09:42:37Z</time></trkpt><trkpt lat="45.2161091337614" lon="9.317574032734308"><ele>70.0</ele><time>2026-04-11T09:42:38Z</time></trkpt><trkpt lat="45.21595750279071" lon="9.317255623875907"><ele>70.0</ele><time>2026-04-11T09:42:39Z</time></trkpt><trkpt lat="45.21579877930499" lon="9.316924024112746"><ele>70.0</ele><time>2026-04-11T09:42:40Z</time></trkpt><trkpt lat="45.21562971841986" lon="9.316588841965302"><ele>70.0</ele><time>2026-04-11T09:42:41Z</time></trkpt><trkpt lat="45.21547120712798" lon="9.316270766243177"><ele>71.5</ele><time>2026-04-11T09:42:42Z</time></trkpt><trkpt lat="45.21532224625508" lon="9.315975011390782"><ele>73.0</ele><time>2026-04-11T09:42:43Z</time></trkpt><trkpt lat="45.2151662719756" lon="9.315680177758091"><ele>73.5</ele><time>2026-04-11T09:42:44Z</time></trkpt><trkpt lat="45.214989985991586" lon="9.315393141706856"><ele>74.0</ele><time>2026-04-11T09:42:45Z</time></trkpt><trkpt lat="45.214807797601345" lon="9.315113371347087"><ele>72.5</ele><time>2026-04-11T09:42:46Z</time></trkpt><trkpt lat="45.214612667151066" lon="9.314829924420463"><ele>71.0</ele><time>2026-04-11T09:42:47Z</time></trkpt><trkpt lat="45.2143955050792" lon="9.314521743633408"><ele>71.0</ele><time>2026-04-11T09:42:48Z</time></trkpt><trkpt lat="45.21416946202779" lon="9.314205747848586"><ele>71.0</ele><time>2026-04-11T09:42:49Z</time></trkpt><trkpt lat="45.21395649778013" lon="9.313911711659756"><ele>72.0</ele><time>2026-04-11T09:42:50Z</time></trkpt><trkpt lat="45.213757098633025" lon="9.313643354972731"><ele>73.0</ele><time>2026-04-11T09:42:51Z</time></trkpt><trkpt lat="45.21356781752166" lon="9.313392549593022"><ele>73.0</ele><time>2026-04-11T09:42:52Z</time></trkpt><trkpt lat="45.213388565985284" lon="9.313160279062636"><ele>73.0</ele><time>2026-04-11T09:42:53Z</time></trkpt><trkpt lat="45.213219249509486" lon="9.312938439273966"><ele>72.66666666666666</ele><time>2026-04-11T09:42:54Z</time></trkpt><trkpt lat="45.21306720711712" lon="9.31272810837995"><ele>72.33333333333333</ele><time>2026-04-11T09:42:55Z</time></trkpt><trkpt lat="45.21292156261397" lon="9.312527396650582"><ele>72.0</ele><time>2026-04-11T09:42:56Z</time></trkpt><trkpt lat="45.21278444981755" lon="9.312341637390075"><ele>72.0</ele><time>2026-04-11T09:42:57Z</time></trkpt><trkpt lat="45.21265159207812" lon="9.312169265013015"><ele>72.0</ele><time>2026-04-11T09:42:58Z</time></trkpt><trkpt lat="45.212527115417416" lon="9.312009029298228"><ele>72.0</ele><time>2026-04-11T09:42:59Z</time></trkpt><trkpt lat="45.21240427686911" lon="9.311855667034704"><ele>72.25</ele><time>2026-04-11T09:43:00Z</time></trkpt><trkpt lat="45.21229205225067" lon="9.311707388306043"><ele>72.5</ele><time>2026-04-11T09:43:01Z</time></trkpt><trkpt lat="45.212183910871275" lon="9.311571945993741"><ele>72.75</ele><time>2026-04-11T09:43:02Z</time></trkpt><trkpt lat="45.212070511838945" lon="9.311455686517544"><ele>73.0</ele><time>2026-04-11T09:43:03Z</time></trkpt><trkpt lat="45.2119397543537" lon="9.311355959050234"><ele>73.0</ele><time>2026-04-11T09:43:04Z</time></trkpt><trkpt lat="45.21178861931521" lon="9.3112687918951"><ele>73.0</ele><time>2026-04-11T09:43:05Z</time></trkpt><trkpt lat="45.2116239848786" lon="9.311190444372878"><ele>73.0</ele><time>2026-04-11T09:43:06Z</time></trkpt><trkpt lat="45.21145500352846" lon="9.311122515513691"><ele>73.0</ele><time>2026-04-11T09:43:07Z</time></trkpt><trkpt lat="45.211293692444386" lon="9.311085119948293"><ele>73.0</ele><time>2026-04-11T09:43:08Z</time></trkpt><trkpt lat="45.211143863197826" lon="9.311059007308986"><ele>73.0</ele><time>2026-04-11T09:43:09Z</time></trkpt><trkpt lat="45.210998745697935" lon="9.311044770645642"><ele>73.0</ele><time>2026-04-11T09:43:10Z</time></trkpt><trkpt lat="45.21086191089417" lon="9.311053324990661"><ele>73.0</ele><time>2026-04-11T09:43:11Z</time></trkpt><trkpt lat="45.21073262515172" lon="9.3110656388262"><ele>73.0</ele><time>2026-04-11T09:43:12Z</time></trkpt><trkpt lat="45.21061116791292" lon="9.311085404017806"><ele>73.0</ele><time>2026-04-11T09:43:13Z</time></trkpt><trkpt lat="45.21049559411838" lon="9.31111058469445"><ele>73.0</ele><time>2026-04-11T09:43:14Z</time></trkpt><trkpt lat="45.21038554279281" lon="9.311141787793579"><ele>73.0</ele><time>2026-04-11T09:43:15Z</time></trkpt><trkpt lat="45.21028238781274" lon="9.311177923734997"><ele>73.0</ele><time>2026-04-11T09:43:16Z</time></trkpt><trkpt lat="45.21018289660732" lon="9.311221573494391"><ele>73.0</ele><time>2026-04-11T09:43:17Z</time></trkpt><trkpt lat="45.21008689112357" lon="9.311265075819673"><ele>73.0</ele><time>2026-04-11T09:43:18Z</time></trkpt><trkpt lat="45.20999263657451" lon="9.31130586739249"><ele>73.0</ele><time>2026-04-11T09:43:19Z</time></trkpt><trkpt lat="45.2099001252639" lon="9.31134863262547"><ele>73.0</ele><time>2026-04-11T09:43:20Z</time></trkpt><trkpt lat="45.20980815183406" lon="9.311389375891928"><ele>73.0</ele><time>2026-04-11T09:43:21Z</time></trkpt><trkpt lat="45.209715953137916" lon="9.311436929829172"><ele>73.0</ele><time>2026-04-11T09:43:22Z</time></trkpt><trkpt lat="45.20962227437085" lon="9.311484288240381"><ele>73.0</ele><time>2026-04-11T09:43:23Z</time></trkpt><trkpt lat="45.20952687697493" lon="9.311531555585235"><ele>73.0</ele><time>2026-04-11T09:43:24Z</time></trkpt><trkpt lat="45.209429234768315" lon="9.311575039796352"><ele>73.0</ele><time>2026-04-11T09:43:25Z</time></trkpt><trkpt lat="45.20933275616988" lon="9.311618968614082"><ele>73.0</ele><time>2026-04-11T09:43:26Z</time></trkpt><trkpt lat="45.20924030218061" lon="9.311664266389188"><ele>73.0</ele><time>2026-04-11T09:43:27Z</time></trkpt><trkpt lat="45.209134681021126" lon="9.311712787485682"><ele>73.0</ele><time>2026-04-11T09:43:28Z</time></trkpt><trkpt lat="45.20901492444806" lon="9.311771031636715"><ele>72.75</ele><time>2026-04-11T09:43:29Z</time></trkpt><trkpt lat="45.208884514036384" lon="9.311836656238167"><ele>72.5</ele><time>2026-04-11T09:43:30Z</time></trkpt><trkpt lat="45.20874778692582" lon="9.311905374384244"><ele>72.25</ele><time>2026-04-11T09:43:31Z</time></trkpt><trkpt lat="45.20860254951606" lon="9.311975108556734"><ele>72.0</ele><time>2026-04-11T09:43:32Z</time></trkpt><trkpt lat="45.20845506085409" lon="9.312046477963976"><ele>72.0</ele><time>2026-04-11T09:43:33Z</time></trkpt><trkpt lat="45.20830862568613" lon="9.312116784454064"><ele>72.0</ele><time>2026-04-11T09:43:34Z</time></trkpt><trkpt lat="45.20815900246591" lon="9.312185940319864"><ele>72.0</ele><time>2026-04-11T09:43:35Z</time></trkpt><trkpt lat="45.208007237279965" lon="9.312254181203054"><ele>71.66666666666667</ele><time>2026-04-11T09:43:36Z</time></trkpt><trkpt lat="45.20785572949767" lon="9.312326710357107"><ele>71.33333333333334</ele><time>2026-04-11T09:43:37Z</time></trkpt><trkpt lat="45.207701849508844" lon="9.312404575610561"><ele>71.0</ele><time>2026-04-11T09:43:38Z</time></trkpt><trkpt lat="45.207546687173014" lon="9.3124804619429"><ele>71.0</ele><time>2026-04-11T09:43:39Z</time></trkpt><trkpt lat="45.207390998724264" lon="9.312558400049218"><ele>71.0</ele><time>2026-04-11T09:43:40Z</time></trkpt><trkpt lat="45.20723349626573" lon="9.312639444267242"><ele>71.0</ele><time>2026-04-11T09:43:41Z</time></trkpt><trkpt lat="45.20707802299286" lon="9.312723969355524"><ele>71.0</ele><time>2026-04-11T09:43:42Z</time></trkpt><trkpt lat="45.206922999566935" lon="9.312815560084685"><ele>71.0</ele><time>2026-04-11T09:43:43Z</time></trkpt><trkpt lat="45.20676824291097" lon="9.31291106855811"><ele>71.0</ele><time>2026-04-11T09:43:44Z</time></trkpt><trkpt lat="45.20661381318081" lon="9.313007338304264"><ele>70.33333333333334</ele><time>2026-04-11T09:43:45Z</time></trkpt><trkpt lat="45.2064587275378" lon="9.313107067075768"><ele>69.66666666666667</ele><time>2026-04-11T09:43:46Z</time></trkpt><trkpt lat="45.206302374508375" lon="9.313205230909544"><ele>69.0</ele><time>2026-04-11T09:43:47Z</time></trkpt><trkpt lat="45.206144386532465" lon="9.313300974173456"><ele>69.0</ele><time>2026-04-11T09:43:48Z</time></trkpt><trkpt lat="45.20598671643224" lon="9.313398625143408"><ele>69.0</ele><time>2026-04-11T09:43:49Z</time></trkpt><trkpt lat="45.2058258368865" lon="9.313495336420706"><ele>69.0</ele><time>2026-04-11T09:43:50Z</time></trkpt><trkpt lat="45.20566573736143" lon="9.313593923157114"><ele>68.33333333333333</ele><time>2026-04-11T09:43:51Z</time></trkpt><trkpt lat="45.20550447096909" lon="9.313693164091003"><ele>67.66666666666666</ele><time>2026-04-11T09:43:52Z</time></trkpt><trkpt lat="45.20534079047994" lon="9.313796854516694"><ele>67.0</ele><time>2026-04-11T09:43:53Z</time></trkpt><trkpt lat="45.205176853066135" lon="9.313902966569788"><ele>67.0</ele><time>2026-04-11T09:43:54Z</time></trkpt><trkpt lat="45.20501683110044" lon="9.314011862234468"><ele>67.0</ele><time>2026-04-11T09:43:55Z</time></trkpt><trkpt lat="45.20485900308032" lon="9.314133287228609"><ele>67.0</ele><time>2026-04-11T09:43:56Z</time></trkpt><trkpt lat="45.20470650340018" lon="9.314273674770915"><ele>67.0</ele><time>2026-04-11T09:43:57Z</time></trkpt><trkpt lat="45.20455740774475" lon="9.314432071468643"><ele>67.0</ele><time>2026-04-11T09:43:58Z</time></trkpt><trkpt lat="45.20441634173387" lon="9.314604303057099"><ele>67.0</ele><time>2026-04-11T09:43:59Z</time></trkpt><trkpt lat="45.20427811824909" lon="9.31478650954425"><ele>67.66666666666666</ele><time>2026-04-11T09:44:00Z</time></trkpt><trkpt lat="45.20414318692825" lon="9.314969696632634"><ele>68.33333333333333</ele><time>2026-04-11T09:44:01Z</time></trkpt><trkpt lat="45.20400275760765" lon="9.315151073234933"><ele>69.0</ele><time>2026-04-11T09:44:02Z</time></trkpt><trkpt lat="45.20385777662796" lon="9.315328753759788"><ele>69.0</ele><time>2026-04-11T09:44:03Z</time></trkpt><trkpt lat="45.20370863865088" lon="9.31550222064821"><ele>69.0</ele><time>2026-04-11T09:44:04Z</time></trkpt><trkpt lat="45.20355781358547" lon="9.315669692166626"><ele>69.0</ele><time>2026-04-11T09:44:05Z</time></trkpt><trkpt lat="45.20340846291964" lon="9.315835413949912"><ele>69.33333333333333</ele><time>2026-04-11T09:44:06Z</time></trkpt><trkpt lat="45.203257232748044" lon="9.31600170230793"><ele>69.66666666666666</ele><time>2026-04-11T09:44:07Z</time></trkpt><trkpt lat="45.2031020993341" lon="9.316152994110627"><ele>70.0</ele><time>2026-04-11T09:44:08Z</time></trkpt><trkpt lat="45.202935919623" lon="9.316263454054393"><ele>70.0</ele><time>2026-04-11T09:44:09Z</time></trkpt><trkpt lat="45.20276591806825" lon="9.316341360407753"><ele>70.0</ele><time>2026-04-11T09:44:10Z</time></trkpt><trkpt lat="45.2025906549396" lon="9.31641976788809"><ele>70.0</ele><time>2026-04-11T09:44:11Z</time></trkpt><trkpt lat="45.20240311984858" lon="9.316510741801999"><ele>69.33333333333333</ele><time>2026-04-11T09:44:12Z</time></trkpt><trkpt lat="45.202207805400306" lon="9.316611262459018"><ele>68.66666666666667</ele><time>2026-04-11T09:44:13Z</time></trkpt><trkpt lat="45.20200777481933" lon="9.316714417361618"><ele>68.0</ele><time>2026-04-11T09:44:14Z</time></trkpt><trkpt lat="45.20180262125217" lon="9.316820079854415"><ele>68.0</ele><time>2026-04-11T09:44:15Z</time></trkpt><trkpt lat="45.20159398316631" lon="9.316925061171125"><ele>68.0</ele><time>2026-04-11T09:44:16Z</time></trkpt><trkpt lat="45.20138416325429" lon="9.317030597888158"><ele>68.0</ele><time>2026-04-11T09:44:17Z</time></trkpt><trkpt lat="45.201174027538876" lon="9.317137278101464"><ele>68.0</ele><time>2026-04-11T09:44:18Z</time></trkpt><trkpt lat="45.200971369050656" lon="9.317245888517823"><ele>68.0</ele><time>2026-04-11T09:44:19Z</time></trkpt><trkpt lat="45.20078304358064" lon="9.31736357479446"><ele>68.0</ele><time>2026-04-11T09:44:20Z</time></trkpt><trkpt lat="45.20061920284983" lon="9.317501510841703"><ele>67.33333333333334</ele><time>2026-04-11T09:44:21Z</time></trkpt><trkpt lat="45.200465693560254" lon="9.31768789195764"><ele>66.66666666666667</ele><time>2026-04-11T09:44:22Z</time></trkpt><trkpt lat="45.200315586256835" lon="9.317897772044418"><ele>66.0</ele><time>2026-04-11T09:44:23Z</time></trkpt><trkpt lat="45.200175958447716" lon="9.318096795583592"><ele>66.0</ele><time>2026-04-11T09:44:24Z</time></trkpt><trkpt lat="45.20004691617238" lon="9.318278955407"><ele>66.0</ele><time>2026-04-11T09:44:25Z</time></trkpt><trkpt lat="45.199927183633285" lon="9.318448520273146"><ele>66.0</ele><time>2026-04-11T09:44:26Z</time></trkpt><trkpt lat="45.19981483993796" lon="9.318608820855683"><ele>66.0</ele><time>2026-04-11T09:44:27Z</time></trkpt><trkpt lat="45.19971351498266" lon="9.318757827288808"><ele>66.0</ele><time>2026-04-11T09:44:28Z</time></trkpt><trkpt lat="45.19963142925504" lon="9.318912359087328"><ele>66.0</ele><time>2026-04-11T09:44:29Z</time></trkpt><trkpt lat="45.19956373491068" lon="9.3190791537774"><ele>66.0</ele><time>2026-04-11T09:44:30Z</time></trkpt><trkpt lat="45.19947936577172" lon="9.319234967267521"><ele>66.0</ele><time>2026-04-11T09:44:31Z</time></trkpt><trkpt lat="45.199386196402" lon="9.31935999172153"><ele>66.0</ele><time>2026-04-11T09:44:32Z</time></trkpt><trkpt lat="45.19929033009846" lon="9.319465438652136"><ele>66.0</ele><time>2026-04-11T09:44:33Z</time></trkpt><trkpt lat="45.19920382987856" lon="9.31954411413991"><ele>66.0</ele><time>2026-04-11T09:44:34Z</time></trkpt><trkpt lat="45.19913162472348" lon="9.31960739254459"><ele>66.0</ele><time>2026-04-11T09:44:35Z</time></trkpt><trkpt lat="45.19907448831949" lon="9.31965880706912"><ele>66.0</ele><time>2026-04-11T09:44:36Z</time></trkpt><trkpt lat="45.19899233221034" lon="9.31974089541985"><ele>66.0</ele><time>2026-04-11T09:44:38Z</time></trkpt><trkpt lat="45.19887228487352" lon="9.319830086344616"><ele>66.0</ele><time>2026-04-11T09:44:40Z</time></trkpt><trkpt lat="45.19880267658188" lon="9.319905072036665"><ele>66.0</ele><time>2026-04-11T09:44:42Z</time></trkpt><trkpt lat="45.19874001969151" lon="9.319964608878193"><ele>66.0</ele><time>2026-04-11T09:44:44Z</time></trkpt><trkpt lat="45.19868384466542" lon="9.320059226370427"><ele>66.0</ele><time>2026-04-11T09:44:48Z</time></trkpt><trkpt lat="45.19880073259242" lon="9.320259469199907"><ele>66.0</ele><time>2026-04-11T09:44:50Z</time></trkpt><trkpt lat="45.19884382761494" lon="9.320340723121564"><ele>66.0</ele><time>2026-04-11T09:44:51Z</time></trkpt><trkpt lat="45.19888831544584" lon="9.320429763955849"><ele>66.0</ele><time>2026-04-11T09:44:52Z</time></trkpt><trkpt lat="45.198937861706234" lon="9.320523986825693"><ele>66.0</ele><time>2026-04-11T09:44:53Z</time></trkpt><trkpt lat="45.198988535647715" lon="9.320616917508124"><ele>66.66666666666667</ele><time>2026-04-11T09:44:54Z</time></trkpt><trkpt lat="45.199041981215316" lon="9.320712018326434"><ele>67.33333333333333</ele><time>2026-04-11T09:44:55Z</time></trkpt><trkpt lat="45.19909769099996" lon="9.320810397163807"><ele>68.0</ele><time>2026-04-11T09:44:56Z</time></trkpt><trkpt lat="45.199148750611066" lon="9.320907951458285"><ele>68.66666666666666</ele><time>2026-04-11T09:44:57Z</time></trkpt><trkpt lat="45.199199286884806" lon="9.321004055114031"><ele>69.33333333333333</ele><time>2026-04-11T09:44:58Z</time></trkpt><trkpt lat="45.19925226528931" lon="9.321099705240528"><ele>70.0</ele><time>2026-04-11T09:44:59Z</time></trkpt><trkpt lat="45.19930478249986" lon="9.32119602633472"><ele>70.0</ele><time>2026-04-11T09:45:00Z</time></trkpt><trkpt lat="45.19935829704136" lon="9.32129343459097"><ele>70.0</ele><time>2026-04-11T09:45:01Z</time></trkpt><trkpt lat="45.19941292570613" lon="9.321392996069395"><ele>70.0</ele><time>2026-04-11T09:45:02Z</time></trkpt><trkpt lat="45.19946661403921" lon="9.321494599427746"><ele>70.0</ele><time>2026-04-11T09:45:03Z</time></trkpt><trkpt lat="45.19952073894534" lon="9.321597461662748"><ele>70.0</ele><time>2026-04-11T09:45:04Z</time></trkpt><trkpt lat="45.19957608556673" lon="9.321700184548204"><ele>70.0</ele><time>2026-04-11T09:45:05Z</time></trkpt><trkpt lat="45.199631122207556" lon="9.321802477913334"><ele>70.2</ele><time>2026-04-11T09:45:06Z</time></trkpt><trkpt lat="45.19968182313105" lon="9.321909402752343"><ele>70.4</ele><time>2026-04-11T09:45:07Z</time></trkpt><trkpt lat="45.19973533373613" lon="9.322015198858999"><ele>70.6</ele><time>2026-04-11T09:45:08Z</time></trkpt><trkpt lat="45.19979226257983" lon="9.322119553494051"><ele>70.8</ele><time>2026-04-11T09:45:09Z</time></trkpt><trkpt lat="45.1998493725239" lon="9.322222045712584"><ele>71.0</ele><time>2026-04-11T09:45:10Z</time></trkpt><trkpt lat="45.19990580250681" lon="9.322323740182902"><ele>71.0</ele><time>2026-04-11T09:45:11Z</time></trkpt><trkpt lat="45.19996301345537" lon="9.322425562294477"><ele>71.0</ele><time>2026-04-11T09:45:12Z</time></trkpt><trkpt lat="45.200022333252434" lon="9.32253171363194"><ele>71.0</ele><time>2026-04-11T09:45:13Z</time></trkpt><trkpt lat="45.2000815032533" lon="9.32263849337017"><ele>71.0</ele><time>2026-04-11T09:45:14Z</time></trkpt><trkpt lat="45.200142840978884" lon="9.322750252378887"><ele>71.0</ele><time>2026-04-11T09:45:15Z</time></trkpt><trkpt lat="45.200210166915205" lon="9.32287520817717"><ele>71.0</ele><time>2026-04-11T09:45:16Z</time></trkpt><trkpt lat="45.20028284703255" lon="9.323007397230857"><ele>71.0</ele><time>2026-04-11T09:45:17Z</time></trkpt><trkpt lat="45.200362115947506" lon="9.323151711694518"><ele>71.0</ele><time>2026-04-11T09:45:18Z</time></trkpt><trkpt lat="45.20045588990247" lon="9.323323671856539"><ele>71.0</ele><time>2026-04-11T09:45:19Z</time></trkpt><trkpt lat="45.20055722610635" lon="9.323510331516712"><ele>71.0</ele><time>2026-04-11T09:45:20Z</time></trkpt><trkpt lat="45.20065957706322" lon="9.323705070308133"><ele>71.0</ele><time>2026-04-11T09:45:21Z</time></trkpt><trkpt lat="45.2007638133968" lon="9.323915449023968"><ele>71.0</ele><time>2026-04-11T09:45:22Z</time></trkpt><trkpt lat="45.20086902899479" lon="9.324145884300082"><ele>71.0</ele><time>2026-04-11T09:45:23Z</time></trkpt><trkpt lat="45.20097927758217" lon="9.324394105620462"><ele>71.0</ele><time>2026-04-11T09:45:24Z</time></trkpt><trkpt lat="45.20109046412023" lon="9.324655966552985"><ele>71.0</ele><time>2026-04-11T09:45:25Z</time></trkpt><trkpt lat="45.20119557847719" lon="9.324925087687253"><ele>71.5</ele><time>2026-04-11T09:45:26Z</time></trkpt><trkpt lat="45.201299026682754" lon="9.325209483343222"><ele>72.0</ele><time>2026-04-11T09:45:27Z</time></trkpt><trkpt lat="45.201399504183364" lon="9.32550434675955"><ele>71.5</ele><time>2026-04-11T09:45:28Z</time></trkpt><trkpt lat="45.201496595787695" lon="9.325812253780356"><ele>71.0</ele><time>2026-04-11T09:45:29Z</time></trkpt><trkpt lat="45.20158710595271" lon="9.326127251843827"><ele>70.5</ele><time>2026-04-11T09:45:30Z</time></trkpt><trkpt lat="45.20166785200768" lon="9.326448847191692"><ele>70.0</ele><time>2026-04-11T09:45:31Z</time></trkpt><trkpt lat="45.20174735079238" lon="9.32676902227508"><ele>70.0</ele><time>2026-04-11T09:45:32Z</time></trkpt><trkpt lat="45.20182714324656" lon="9.327092268265712"><ele>70.0</ele><time>2026-04-11T09:45:33Z</time></trkpt><trkpt lat="45.20190699045422" lon="9.327411903505501"><ele>70.5</ele><time>2026-04-11T09:45:34Z</time></trkpt><trkpt lat="45.20198319995375" lon="9.327724499955979"><ele>71.0</ele><time>2026-04-11T09:45:35Z</time></trkpt><trkpt lat="45.202056096941924" lon="9.328023265466872"><ele>70.66666666666667</ele><time>2026-04-11T09:45:36Z</time></trkpt><trkpt lat="45.202125368056336" lon="9.328310424910498"><ele>70.33333333333333</ele><time>2026-04-11T09:45:37Z</time></trkpt><trkpt lat="45.20219248729453" lon="9.328586051468347"><ele>70.0</ele><time>2026-04-11T09:45:38Z</time></trkpt><trkpt lat="45.20225741044759" lon="9.328851055062344"><ele>70.0</ele><time>2026-04-11T09:45:39Z</time></trkpt><trkpt lat="45.20232067617903" lon="9.329107089442273"><ele>70.0</ele><time>2026-04-11T09:45:40Z</time></trkpt><trkpt lat="45.20238021504336" lon="9.329349073469334"><ele>70.0</ele><time>2026-04-11T09:45:41Z</time></trkpt><trkpt lat="45.2024344437206" lon="9.329578266654972"><ele>70.25</ele><time>2026-04-11T09:45:42Z</time></trkpt><trkpt lat="45.202485180435005" lon="9.329793666643004"><ele>70.5</ele><time>2026-04-11T09:45:43Z</time></trkpt><trkpt lat="45.20253147367518" lon="9.329996858250022"><ele>70.75</ele><time>2026-04-11T09:45:44Z</time></trkpt><trkpt lat="45.2025730728605" lon="9.330182772734256"><ele>71.0</ele><time>2026-04-11T09:45:45Z</time></trkpt><trkpt lat="45.2026059208205" lon="9.330365441664616"><ele>71.0</ele><time>2026-04-11T09:45:46Z</time></trkpt><trkpt lat="45.202603554104776" lon="9.330543263287408"><ele>71.0</ele><time>2026-04-11T09:45:47Z</time></trkpt><trkpt lat="45.202592458104036" lon="9.330710906061325"><ele>71.0</ele><time>2026-04-11T09:45:48Z</time></trkpt><trkpt lat="45.20257408455687" lon="9.3308694926775"><ele>71.0</ele><time>2026-04-11T09:45:49Z</time></trkpt><trkpt lat="45.20266221250182" lon="9.331000482320588"><ele>71.0</ele><time>2026-04-11T09:45:50Z</time></trkpt><trkpt lat="45.202755156531055" lon="9.3311228288111"><ele>71.0</ele><time>2026-04-11T09:45:51Z</time></trkpt><trkpt lat="45.20283677882076" lon="9.331277460113185"><ele>71.0</ele><time>2026-04-11T09:45:52Z</time></trkpt><trkpt lat="45.20288553616249" lon="9.33147209514772"><ele>71.0</ele><time>2026-04-11T09:45:53Z</time></trkpt><trkpt lat="45.20293514523743" lon="9.33167742784517"><ele>71.0</ele><time>2026-04-11T09:45:54Z</time></trkpt><trkpt lat="45.202991237306115" lon="9.331888351128645"><ele>71.0</ele><time>2026-04-11T09:45:55Z</time></trkpt><trkpt lat="45.203045695804505" lon="9.332111089717479"><ele>71.0</ele><time>2026-04-11T09:45:56Z</time></trkpt><trkpt lat="45.20310294082412" lon="9.332337096792955"><ele>71.0</ele><time>2026-04-11T09:45:57Z</time></trkpt><trkpt lat="45.20315652838569" lon="9.332555715876913"><ele>71.0</ele><time>2026-04-11T09:45:58Z</time></trkpt><trkpt lat="45.2032087238847" lon="9.332770191402016"><ele>71.0</ele><time>2026-04-11T09:45:59Z</time></trkpt><trkpt lat="45.20326349323073" lon="9.3329893075579"><ele>70.33333333333334</ele><time>2026-04-11T09:46:00Z</time></trkpt><trkpt lat="45.203316841358664" lon="9.3332078565853"><ele>69.66666666666667</ele><time>2026-04-11T09:46:01Z</time></trkpt><trkpt lat="45.203371386547744" lon="9.333425410828028"><ele>69.0</ele><time>2026-04-11T09:46:02Z</time></trkpt><trkpt lat="45.203424869181916" lon="9.333644813553507"><ele>69.0</ele><time>2026-04-11T09:46:03Z</time></trkpt><trkpt lat="45.203477668689736" lon="9.3338588621371"><ele>69.0</ele><time>2026-04-11T09:46:04Z</time></trkpt><trkpt lat="45.20353183519137" lon="9.334081117020888"><ele>69.0</ele><time>2026-04-11T09:46:05Z</time></trkpt><trkpt lat="45.20358519634283" lon="9.334300014208498"><ele>69.0</ele><time>2026-04-11T09:46:06Z</time></trkpt><trkpt lat="45.20363873791208" lon="9.33451913244381"><ele>69.0</ele><time>2026-04-11T09:46:07Z</time></trkpt><trkpt lat="45.20369206480748" lon="9.334738059865316"><ele>69.0</ele><time>2026-04-11T09:46:08Z</time></trkpt><trkpt lat="45.203747187488545" lon="9.33495780855201"><ele>69.0</ele><time>2026-04-11T09:46:09Z</time></trkpt><trkpt lat="45.20380153167891" lon="9.335178577247367"><ele>69.0</ele><time>2026-04-11T09:46:10Z</time></trkpt><trkpt lat="45.20385652916927" lon="9.335397738949116"><ele>69.0</ele><time>2026-04-11T09:46:11Z</time></trkpt><trkpt lat="45.20391089499443" lon="9.335615047072283"><ele>69.33333333333333</ele><time>2026-04-11T09:46:12Z</time></trkpt><trkpt lat="45.20396302865791" lon="9.335833804272614"><ele>69.66666666666666</ele><time>2026-04-11T09:46:13Z</time></trkpt><trkpt lat="45.20401587914752" lon="9.336054918924212"><ele>70.0</ele><time>2026-04-11T09:46:14Z</time></trkpt><trkpt lat="45.20407000286375" lon="9.336271062122893"><ele>70.66666666666666</ele><time>2026-04-11T09:46:15Z</time></trkpt><trkpt lat="45.2041240632203" lon="9.336488214201536"><ele>71.33333333333333</ele><time>2026-04-11T09:46:16Z</time></trkpt><trkpt lat="45.204178973585876" lon="9.336706629233069"><ele>72.0</ele><time>2026-04-11T09:46:17Z</time></trkpt><trkpt lat="45.20423111498922" lon="9.336928581094528"><ele>72.0</ele><time>2026-04-11T09:46:18Z</time></trkpt><trkpt lat="45.20428351524132" lon="9.33714917758052"><ele>72.0</ele><time>2026-04-11T09:46:19Z</time></trkpt><trkpt lat="45.20433835634396" lon="9.337367301046985"><ele>72.0</ele><time>2026-04-11T09:46:20Z</time></trkpt><trkpt lat="45.204394565950224" lon="9.337585119721078"><ele>71.33333333333333</ele><time>2026-04-11T09:46:21Z</time></trkpt><trkpt lat="45.2044479746596" lon="9.33780552429043"><ele>70.66666666666666</ele><time>2026-04-11T09:46:22Z</time></trkpt><trkpt lat="45.204500617134364" lon="9.338025190812031"><ele>70.0</ele><time>2026-04-11T09:46:23Z</time></trkpt><trkpt lat="45.204555256129396" lon="9.338244401152497"><ele>70.0</ele><time>2026-04-11T09:46:24Z</time></trkpt><trkpt lat="45.20460943794086" lon="9.338463330610127"><ele>70.0</ele><time>2026-04-11T09:46:25Z</time></trkpt><trkpt lat="45.20466175321442" lon="9.338682857281466"><ele>70.0</ele><time>2026-04-11T09:46:26Z</time></trkpt><trkpt lat="45.20471469433331" lon="9.33890166717062"><ele>70.0</ele><time>2026-04-11T09:46:26.999Z</time></trkpt><trkpt lat="45.204768488831796" lon="9.33912201368854"><ele>70.0</ele><time>2026-04-11T09:46:27.999Z</time></trkpt><trkpt lat="45.204821492846165" lon="9.339339304934104"><ele>70.0</ele><time>2026-04-11T09:46:28.999Z</time></trkpt><trkpt lat="45.20487435804652" lon="9.339560818246088"><ele>70.0</ele><time>2026-04-11T09:46:29.999Z</time></trkpt><trkpt lat="45.20492577177933" lon="9.339778765181808"><ele>70.0</ele><time>2026-04-11T09:46:30.999Z</time></trkpt><trkpt lat="45.204979865205104" lon="9.339997167156048"><ele>70.0</ele><time>2026-04-11T09:46:31.999Z</time></trkpt><trkpt lat="45.20503673156966" lon="9.34021766706331"><ele>70.0</ele><time>2026-04-11T09:46:32.999Z</time></trkpt><trkpt lat="45.20508939344151" lon="9.34043608489168"><ele>70.0</ele><time>2026-04-11T09:46:33.999Z</time></trkpt><trkpt lat="45.20514259396354" lon="9.340655073398572"><ele>70.0</ele><time>2026-04-11T09:46:34.999Z</time></trkpt><trkpt lat="45.20519472678729" lon="9.340875210542952"><ele>70.0</ele><time>2026-04-11T09:46:35.999Z</time></trkpt><trkpt lat="45.205248033654506" lon="9.341094475016602"><ele>70.0</ele><time>2026-04-11T09:46:36.999Z</time></trkpt><trkpt lat="45.20529991665792" lon="9.341312093057603"><ele>70.0</ele><time>2026-04-11T09:46:37.999Z</time></trkpt><trkpt lat="45.20535114606254" lon="9.341533503537795"><ele>69.66666666666666</ele><time>2026-04-11T09:46:38.999Z</time></trkpt><trkpt lat="45.20540291739783" lon="9.341754395630343"><ele>69.33333333333333</ele><time>2026-04-11T09:46:39.999Z</time></trkpt><trkpt lat="45.20545914325759" lon="9.341973587724231"><ele>69.0</ele><time>2026-04-11T09:46:40.999Z</time></trkpt><trkpt lat="45.2055145036419" lon="9.342192162253284"><ele>68.66666666666667</ele><time>2026-04-11T09:46:41.999Z</time></trkpt><trkpt lat="45.2055672921979" lon="9.34240900117103"><ele>68.33333333333334</ele><time>2026-04-11T09:46:42.999Z</time></trkpt><trkpt lat="45.205619600343795" lon="9.342630652776995"><ele>68.0</ele><time>2026-04-11T09:46:43.999Z</time></trkpt><trkpt lat="45.20567241014399" lon="9.342849134703258"><ele>68.33333333333334</ele><time>2026-04-11T09:46:44.999Z</time></trkpt><trkpt lat="45.205727598726554" lon="9.343068871964476"><ele>68.66666666666667</ele><time>2026-04-11T09:46:45.999Z</time></trkpt><trkpt lat="45.20578177164646" lon="9.343287839831754"><ele>69.0</ele><time>2026-04-11T09:46:46.999Z</time></trkpt><trkpt lat="45.20584008277522" lon="9.343505119252837"><ele>69.0</ele><time>2026-04-11T09:46:47.999Z</time></trkpt><trkpt lat="45.20591205867649" lon="9.343720428411116"><ele>69.0</ele><time>2026-04-11T09:46:48.999Z</time></trkpt><trkpt lat="45.20600154886523" lon="9.343940265902983"><ele>69.0</ele><time>2026-04-11T09:46:49.999Z</time></trkpt><trkpt lat="45.206106786587156" lon="9.344149933254638"><ele>68.66666666666667</ele><time>2026-04-11T09:46:50.999Z</time></trkpt><trkpt lat="45.20622653760519" lon="9.344354168235594"><ele>68.33333333333334</ele><time>2026-04-11T09:46:51.999Z</time></trkpt><trkpt lat="45.206367172214385" lon="9.344545832681275"><ele>68.0</ele><time>2026-04-11T09:46:52.999Z</time></trkpt><trkpt lat="45.20652605903695" lon="9.344719131068084"><ele>69.0</ele><time>2026-04-11T09:46:53.999Z</time></trkpt><trkpt lat="45.20668045296451" lon="9.344911089614696"><ele>70.0</ele><time>2026-04-11T09:46:54.999Z</time></trkpt><trkpt lat="45.20684926922949" lon="9.345091107608859"><ele>71.0</ele><time>2026-04-11T09:46:55.999Z</time></trkpt><trkpt lat="45.20702506314371" lon="9.345256273737725"><ele>71.0</ele><time>2026-04-11T09:46:56.999Z</time></trkpt><trkpt lat="45.2071935671699" lon="9.345448528578995"><ele>71.0</ele><time>2026-04-11T09:46:57.999Z</time></trkpt><trkpt lat="45.20736350035769" lon="9.345652209417121"><ele>71.0</ele><time>2026-04-11T09:46:58.999Z</time></trkpt><trkpt lat="45.207529163135135" lon="9.345865989774968"><ele>70.5</ele><time>2026-04-11T09:47:00Z</time></trkpt><trkpt lat="45.20768945317543" lon="9.346086861968956"><ele>70.0</ele><time>2026-04-11T09:47:01Z</time></trkpt><trkpt lat="45.20784804786069" lon="9.346318007165594"><ele>69.0</ele><time>2026-04-11T09:47:02Z</time></trkpt><trkpt lat="45.20800319094241" lon="9.346550200460094"><ele>68.0</ele><time>2026-04-11T09:47:03Z</time></trkpt><trkpt lat="45.20815622494715" lon="9.346788478487946"><ele>68.0</ele><time>2026-04-11T09:47:04Z</time></trkpt><trkpt lat="45.20831083886721" lon="9.347035949658553"><ele>68.0</ele><time>2026-04-11T09:47:05Z</time></trkpt><trkpt lat="45.20846749422332" lon="9.34727220782818"><ele>68.5</ele><time>2026-04-11T09:47:06Z</time></trkpt><trkpt lat="45.20862349985057" lon="9.347519002234929"><ele>69.0</ele><time>2026-04-11T09:47:07Z</time></trkpt><trkpt lat="45.20877832042395" lon="9.347760772017342"><ele>69.0</ele><time>2026-04-11T09:47:08Z</time></trkpt><trkpt lat="45.20893510557776" lon="9.34800537490832"><ele>69.0</ele><time>2026-04-11T09:47:09Z</time></trkpt><trkpt lat="45.209089486277186" lon="9.34824709078027"><ele>69.33333333333333</ele><time>2026-04-11T09:47:10Z</time></trkpt><trkpt lat="45.20923741911205" lon="9.348470873506955"><ele>69.66666666666666</ele><time>2026-04-11T09:47:11Z</time></trkpt><trkpt lat="45.209370659856816" lon="9.348672651547885"><ele>70.0</ele><time>2026-04-11T09:47:12Z</time></trkpt><trkpt lat="45.209482669157346" lon="9.348882286635915"><ele>70.33333333333333</ele><time>2026-04-11T09:47:13Z</time></trkpt><trkpt lat="45.209603563249765" lon="9.34909902521438"><ele>70.66666666666667</ele><time>2026-04-11T09:47:14Z</time></trkpt><trkpt lat="45.20970468050918" lon="9.34934377777918"><ele>71.0</ele><time>2026-04-11T09:47:15Z</time></trkpt><trkpt lat="45.20978962482367" lon="9.349613798936948"><ele>71.0</ele><time>2026-04-11T09:47:16Z</time></trkpt><trkpt lat="45.20986899331819" lon="9.34989679901343"><ele>71.0</ele><time>2026-04-11T09:47:17Z</time></trkpt><trkpt lat="45.20994493078418" lon="9.35018796271895"><ele>71.0</ele><time>2026-04-11T09:47:18Z</time></trkpt><trkpt lat="45.21002885131133" lon="9.350479989739224"><ele>72.0</ele><time>2026-04-11T09:47:19Z</time></trkpt><trkpt lat="45.21008913477326" lon="9.35078738813228"><ele>73.0</ele><time>2026-04-11T09:47:20Z</time></trkpt><trkpt lat="45.210127193770774" lon="9.351105176164422"><ele>72.66666666666666</ele><time>2026-04-11T09:47:21Z</time></trkpt><trkpt lat="45.21016595686518" lon="9.351419875447027"><ele>72.33333333333333</ele><time>2026-04-11T09:47:22Z</time></trkpt><trkpt lat="45.210216014976695" lon="9.35172749948693"><ele>72.0</ele><time>2026-04-11T09:47:23Z</time></trkpt><trkpt lat="45.210247780217" lon="9.352010979231075"><ele>71.66666666666667</ele><time>2026-04-11T09:47:24Z</time></trkpt><trkpt lat="45.21027981390883" lon="9.3522748427185"><ele>71.33333333333334</ele><time>2026-04-11T09:47:25Z</time></trkpt><trkpt lat="45.210310492145496" lon="9.352516010077336"><ele>71.0</ele><time>2026-04-11T09:47:26Z</time></trkpt><trkpt lat="45.21033623247456" lon="9.352747617562743"><ele>71.0</ele><time>2026-04-11T09:47:27Z</time></trkpt><trkpt lat="45.21036188240521" lon="9.352994032465412"><ele>71.0</ele><time>2026-04-11T09:47:28Z</time></trkpt><trkpt lat="45.210391820016405" lon="9.353220806587206"><ele>71.0</ele><time>2026-04-11T09:47:29Z</time></trkpt><trkpt lat="45.21041517176012" lon="9.35343665987683"><ele>70.66666666666667</ele><time>2026-04-11T09:47:30Z</time></trkpt><trkpt lat="45.210444302671675" lon="9.353668198686563"><ele>70.33333333333333</ele><time>2026-04-11T09:47:31Z</time></trkpt><trkpt lat="45.21046869290773" lon="9.353904063616085"><ele>70.0</ele><time>2026-04-11T09:47:32Z</time></trkpt><trkpt lat="45.21049212952772" lon="9.354106244263654"><ele>70.0</ele><time>2026-04-11T09:47:33Z</time></trkpt><trkpt lat="45.21051281460575" lon="9.35429721169911"><ele>70.0</ele><time>2026-04-11T09:47:34Z</time></trkpt><trkpt lat="45.21053437996208" lon="9.354471350736652"><ele>70.0</ele><time>2026-04-11T09:47:35Z</time></trkpt><trkpt lat="45.21055280827657" lon="9.35463750877379"><ele>70.0</ele><time>2026-04-11T09:47:36Z</time></trkpt><trkpt lat="45.21056763592109" lon="9.354794881444134"><ele>69.8</ele><time>2026-04-11T09:47:37Z</time></trkpt><trkpt lat="45.21058330363432" lon="9.354937942506513"><ele>69.6</ele><time>2026-04-11T09:47:38Z</time></trkpt><trkpt lat="45.210597284091605" lon="9.355081761469021"><ele>69.4</ele><time>2026-04-11T09:47:39Z</time></trkpt><trkpt lat="45.210598004166684" lon="9.35521466596271"><ele>69.2</ele><time>2026-04-11T09:47:40Z</time></trkpt><trkpt lat="45.21057771000096" lon="9.35532130944543"><ele>69.0</ele><time>2026-04-11T09:47:41Z</time></trkpt><trkpt lat="45.21050791406272" lon="9.355469235012285"><ele>69.0</ele><time>2026-04-11T09:47:43Z</time></trkpt><trkpt lat="45.2104798435575" lon="9.355565572810544"><ele>69.0</ele><time>2026-04-11T09:47:44Z</time></trkpt><trkpt lat="45.210479514931585" lon="9.355687614344923"><ele>69.0</ele><time>2026-04-11T09:47:45Z</time></trkpt><trkpt lat="45.210524813595775" lon="9.355800778113263"><ele>69.0</ele><time>2026-04-11T09:47:46Z</time></trkpt><trkpt lat="45.21061856651374" lon="9.35587779389433"><ele>69.0</ele><time>2026-04-11T09:47:47Z</time></trkpt><trkpt lat="45.21068838654137" lon="9.355964273904247"><ele>69.0</ele><time>2026-04-11T09:47:48Z</time></trkpt><trkpt lat="45.21073174962574" lon="9.35609402671535"><ele>69.0</ele><time>2026-04-11T09:47:49Z</time></trkpt><trkpt lat="45.21075027917058" lon="9.356247814775294"><ele>69.0</ele><time>2026-04-11T09:47:50Z</time></trkpt><trkpt lat="45.210765231006164" lon="9.35641132749095"><ele>69.0</ele><time>2026-04-11T09:47:50.999Z</time></trkpt><trkpt lat="45.21078713051178" lon="9.35658401740507"><ele>69.0</ele><time>2026-04-11T09:47:51.999Z</time></trkpt><trkpt lat="45.210807773741486" lon="9.356770756498053"><ele>69.0</ele><time>2026-04-11T09:47:52.999Z</time></trkpt><trkpt lat="45.21083013800801" lon="9.356965721222808"><ele>69.0</ele><time>2026-04-11T09:47:54Z</time></trkpt><trkpt lat="45.21085285038928" lon="9.357169556360507"><ele>69.0</ele><time>2026-04-11T09:47:55Z</time></trkpt><trkpt lat="45.2108788081408" lon="9.357384389757879"><ele>69.0</ele><time>2026-04-11T09:47:56Z</time></trkpt><trkpt lat="45.210906162767984" lon="9.357605374947383"><ele>69.0</ele><time>2026-04-11T09:47:57Z</time></trkpt><trkpt lat="45.21093267642503" lon="9.357834059966963"><ele>69.0</ele><time>2026-04-11T09:47:58Z</time></trkpt><trkpt lat="45.21096213780943" lon="9.358068908505814"><ele>69.25</ele><time>2026-04-11T09:47:59Z</time></trkpt><trkpt lat="45.210989629237154" lon="9.358292484900788"><ele>69.5</ele><time>2026-04-11T09:48:00Z</time></trkpt><trkpt lat="45.211012872688066" lon="9.358495868962985"><ele>69.75</ele><time>2026-04-11T09:48:01Z</time></trkpt><trkpt lat="45.211032663712494" lon="9.35869900081603"><ele>70.0</ele><time>2026-04-11T09:48:02Z</time></trkpt><trkpt lat="45.211052249180966" lon="9.358902295718712"><ele>70.5</ele><time>2026-04-11T09:48:03Z</time></trkpt><trkpt lat="45.21107732109493" lon="9.359100544185052"><ele>71.0</ele><time>2026-04-11T09:48:04Z</time></trkpt><trkpt lat="45.21110627162257" lon="9.359304322897001"><ele>71.5</ele><time>2026-04-11T09:48:05Z</time></trkpt><trkpt lat="45.21113710269493" lon="9.359506298302795"><ele>72.0</ele><time>2026-04-11T09:48:06Z</time></trkpt><trkpt lat="45.211171332787046" lon="9.359710079524227"><ele>72.33333333333333</ele><time>2026-04-11T09:48:07Z</time></trkpt><trkpt lat="45.211208043602625" lon="9.359916109577219"><ele>72.66666666666666</ele><time>2026-04-11T09:48:08Z</time></trkpt><trkpt lat="45.211246240629436" lon="9.360125888106069"><ele>73.0</ele><time>2026-04-11T09:48:09Z</time></trkpt><trkpt lat="45.211289230892305" lon="9.360335997752003"><ele>73.0</ele><time>2026-04-11T09:48:10Z</time></trkpt><trkpt lat="45.21133287463385" lon="9.3605425977111"><ele>73.0</ele><time>2026-04-11T09:48:11Z</time></trkpt><trkpt lat="45.211374008623366" lon="9.360745312211922"><ele>73.0</ele><time>2026-04-11T09:48:12Z</time></trkpt><trkpt lat="45.211415873962956" lon="9.36094615404529"><ele>73.0</ele><time>2026-04-11T09:48:13Z</time></trkpt><trkpt lat="45.21145740888518" lon="9.361148233792848"><ele>73.0</ele><time>2026-04-11T09:48:14Z</time></trkpt><trkpt lat="45.21150246479486" lon="9.361348437373062"><ele>73.0</ele><time>2026-04-11T09:48:15Z</time></trkpt><trkpt lat="45.211563301117394" lon="9.361549298920037"><ele>73.0</ele><time>2026-04-11T09:48:16Z</time></trkpt><trkpt lat="45.21163078700723" lon="9.361743453688302"><ele>73.0</ele><time>2026-04-11T09:48:17Z</time></trkpt><trkpt lat="45.21170595285925" lon="9.361939265309168"><ele>73.0</ele><time>2026-04-11T09:48:18Z</time></trkpt><trkpt lat="45.211786603007596" lon="9.362128848594745"><ele>73.0</ele><time>2026-04-11T09:48:19Z</time></trkpt><trkpt lat="45.21187317387784" lon="9.36232287980281"><ele>73.0</ele><time>2026-04-11T09:48:20Z</time></trkpt><trkpt lat="45.21195813709326" lon="9.362522158271467"><ele>73.0</ele><time>2026-04-11T09:48:21Z</time></trkpt><trkpt lat="45.212042055614184" lon="9.362721335918948"><ele>73.0</ele><time>2026-04-11T09:48:22Z</time></trkpt><trkpt lat="45.21212786697362" lon="9.36292972721666"><ele>72.66666666666666</ele><time>2026-04-11T09:48:23Z</time></trkpt><trkpt lat="45.21221430719887" lon="9.363139437329854"><ele>72.33333333333333</ele><time>2026-04-11T09:48:24Z</time></trkpt><trkpt lat="45.21230116270765" lon="9.36334795421132"><ele>72.0</ele><time>2026-04-11T09:48:25Z</time></trkpt><trkpt lat="45.21239024185138" lon="9.36356694690527"><ele>72.0</ele><time>2026-04-11T09:48:26Z</time></trkpt><trkpt lat="45.21247677164921" lon="9.363785516209287"><ele>72.0</ele><time>2026-04-11T09:48:27Z</time></trkpt><trkpt lat="45.212566412614386" lon="9.364006557251267"><ele>72.0</ele><time>2026-04-11T09:48:28Z</time></trkpt><trkpt lat="45.21265838074052" lon="9.364224825096692"><ele>72.0</ele><time>2026-04-11T09:48:29Z</time></trkpt><trkpt lat="45.212745793893035" lon="9.36443352442873"><ele>72.0</ele><time>2026-04-11T09:48:30Z</time></trkpt><trkpt lat="45.21281142981295" lon="9.364636760676342"><ele>72.0</ele><time>2026-04-11T09:48:31Z</time></trkpt><trkpt lat="45.21288492170076" lon="9.364817483987748"><ele>72.25</ele><time>2026-04-11T09:48:32Z</time></trkpt><trkpt lat="45.212966398985586" lon="9.364973620879292"><ele>72.5</ele><time>2026-04-11T09:48:33Z</time></trkpt><trkpt lat="45.213030112110715" lon="9.365134702883475"><ele>72.75</ele><time>2026-04-11T09:48:34Z</time></trkpt><trkpt lat="45.2130941043497" lon="9.365290626174804"><ele>73.0</ele><time>2026-04-11T09:48:35Z</time></trkpt><trkpt lat="45.213152606638914" lon="9.365436564810276"><ele>73.2</ele><time>2026-04-11T09:48:36Z</time></trkpt><trkpt lat="45.21320845878963" lon="9.365569838842408"><ele>73.4</ele><time>2026-04-11T09:48:37Z</time></trkpt><trkpt lat="45.21326270267063" lon="9.365693307146596"><ele>73.60000000000001</ele><time>2026-04-11T09:48:38Z</time></trkpt><trkpt lat="45.21331058330037" lon="9.36580795131876"><ele>73.8</ele><time>2026-04-11T09:48:39Z</time></trkpt><trkpt lat="45.21333931178331" lon="9.36591736926172"><ele>74.0</ele><time>2026-04-11T09:48:40Z</time></trkpt><trkpt lat="45.213341662798086" lon="9.366023531356047"><ele>74.0</ele><time>2026-04-11T09:48:41Z</time></trkpt><trkpt lat="45.21329621920209" lon="9.366116367418192"><ele>74.0</ele><time>2026-04-11T09:48:42Z</time></trkpt><trkpt lat="45.21321933137032" lon="9.366203781009034"><ele>74.0</ele><time>2026-04-11T09:48:43Z</time></trkpt><trkpt lat="45.21312690851567" lon="9.366293104726811"><ele>74.0</ele><time>2026-04-11T09:48:44Z</time></trkpt><trkpt lat="45.21302871684545" lon="9.3664054542755"><ele>74.0</ele><time>2026-04-11T09:48:45Z</time></trkpt><trkpt lat="45.212917501653095" lon="9.366533565060989"><ele>73.66666666666667</ele><time>2026-04-11T09:48:46Z</time></trkpt><trkpt lat="45.212802820188365" lon="9.366670694665563"><ele>73.33333333333333</ele><time>2026-04-11T09:48:47Z</time></trkpt><trkpt lat="45.21268347543396" lon="9.366815763735755"><ele>73.0</ele><time>2026-04-11T09:48:48Z</time></trkpt><trkpt lat="45.212563897766074" lon="9.36696296249074"><ele>73.0</ele><time>2026-04-11T09:48:49Z</time></trkpt><trkpt lat="45.21245776446085" lon="9.367110581376524"><ele>73.0</ele><time>2026-04-11T09:48:50Z</time></trkpt><trkpt lat="45.212361779607164" lon="9.36725248319485"><ele>73.0</ele><time>2026-04-11T09:48:51Z</time></trkpt><trkpt lat="45.212272719881085" lon="9.367386557354862"><ele>73.0</ele><time>2026-04-11T09:48:52Z</time></trkpt><trkpt lat="45.21219158633537" lon="9.367519563062984"><ele>73.0</ele><time>2026-04-11T09:48:53Z</time></trkpt><trkpt lat="45.21211480102768" lon="9.367643116013342"><ele>73.0</ele><time>2026-04-11T09:48:54Z</time></trkpt><trkpt lat="45.21204325432654" lon="9.367757456245078"><ele>73.0</ele><time>2026-04-11T09:48:55Z</time></trkpt><trkpt lat="45.21197834848991" lon="9.367872443353678"><ele>73.0</ele><time>2026-04-11T09:48:56Z</time></trkpt><trkpt lat="45.21191954596672" lon="9.36798292708855"><ele>73.0</ele><time>2026-04-11T09:48:57Z</time></trkpt><trkpt lat="45.211859739054155" lon="9.36808203936959"><ele>73.0</ele><time>2026-04-11T09:48:58Z</time></trkpt><trkpt lat="45.211792356776904" lon="9.368161020001601"><ele>73.0</ele><time>2026-04-11T09:48:59Z</time></trkpt><trkpt lat="45.211710734900095" lon="9.368223586527106"><ele>73.0</ele><time>2026-04-11T09:49:00Z</time></trkpt><trkpt lat="45.21163342778227" lon="9.368303101633334"><ele>73.0</ele><time>2026-04-11T09:49:01Z</time></trkpt><trkpt lat="45.21158676408394" lon="9.368435751581812"><ele>73.0</ele><time>2026-04-11T09:49:02Z</time></trkpt><trkpt lat="45.21157223574259" lon="9.368603647675302"><ele>73.0</ele><time>2026-04-11T09:49:03Z</time></trkpt><trkpt lat="45.21153857831648" lon="9.368763766244124"><ele>73.0</ele><time>2026-04-11T09:49:04Z</time></trkpt><trkpt lat="45.211472147947426" lon="9.368917484054863"><ele>73.0</ele><time>2026-04-11T09:49:05Z</time></trkpt><trkpt lat="45.21139044057709" lon="9.369070155362444"><ele>73.0</ele><time>2026-04-11T09:49:06Z</time></trkpt><trkpt lat="45.211308202779506" lon="9.369232718335764"><ele>73.0</ele><time>2026-04-11T09:49:07Z</time></trkpt><trkpt lat="45.2112256395547" lon="9.369403254954229"><ele>73.0</ele><time>2026-04-11T09:49:08Z</time></trkpt><trkpt lat="45.21114362303596" lon="9.369575770698733"><ele>73.0</ele><time>2026-04-11T09:49:09Z</time></trkpt><trkpt lat="45.21106134557767" lon="9.369740445601543"><ele>73.0</ele><time>2026-04-11T09:49:10Z</time></trkpt><trkpt lat="45.21097508638847" lon="9.369897918619197"><ele>73.0</ele><time>2026-04-11T09:49:11Z</time></trkpt><trkpt lat="45.210886203350164" lon="9.37004515927799"><ele>73.0</ele><time>2026-04-11T09:49:12Z</time></trkpt><trkpt lat="45.21079993137203" lon="9.370191975371743"><ele>73.0</ele><time>2026-04-11T09:49:13Z</time></trkpt><trkpt lat="45.21071081094492" lon="9.370336924333808"><ele>73.0</ele><time>2026-04-11T09:49:14Z</time></trkpt><trkpt lat="45.210619590333685" lon="9.370483160133732"><ele>72.75</ele><time>2026-04-11T09:49:15Z</time></trkpt><trkpt lat="45.210523746663824" lon="9.370628316177852"><ele>72.5</ele><time>2026-04-11T09:49:16Z</time></trkpt><trkpt lat="45.210425867634484" lon="9.37077002426068"><ele>72.25</ele><time>2026-04-11T09:49:17Z</time></trkpt><trkpt lat="45.21032696478513" lon="9.370913325832595"><ele>72.0</ele><time>2026-04-11T09:49:18Z</time></trkpt><trkpt lat="45.21022738580065" lon="9.371059331652852"><ele>72.0</ele><time>2026-04-11T09:49:19Z</time></trkpt><trkpt lat="45.210125456648946" lon="9.371210015267394"><ele>72.0</ele><time>2026-04-11T09:49:20Z</time></trkpt><trkpt lat="45.21001962023147" lon="9.371364880414117"><ele>72.0</ele><time>2026-04-11T09:49:21Z</time></trkpt><trkpt lat="45.20990863605298" lon="9.37152607206905"><ele>72.66666666666667</ele><time>2026-04-11T09:49:22Z</time></trkpt><trkpt lat="45.20978881282654" lon="9.37169852103089"><ele>73.33333333333334</ele><time>2026-04-11T09:49:23Z</time></trkpt><trkpt lat="45.209663111778426" lon="9.37187691713975"><ele>74.0</ele><time>2026-04-11T09:49:24Z</time></trkpt><trkpt lat="45.20953154192749" lon="9.372075680554664"><ele>74.66666666666667</ele><time>2026-04-11T09:49:25Z</time></trkpt><trkpt lat="45.20939563561611" lon="9.372298948344007"><ele>75.33333333333333</ele><time>2026-04-11T09:49:26Z</time></trkpt><trkpt lat="45.2092293327267" lon="9.372503778966605"><ele>76.0</ele><time>2026-04-11T09:49:27Z</time></trkpt><trkpt lat="45.2090698492781" lon="9.372731619331628"><ele>74.5</ele><time>2026-04-11T09:49:28Z</time></trkpt><trkpt lat="45.20891663984684" lon="9.372974206500867"><ele>73.0</ele><time>2026-04-11T09:49:29Z</time></trkpt><trkpt lat="45.2087424422346" lon="9.3731869636697"><ele>73.0</ele><time>2026-04-11T09:49:30Z</time></trkpt><trkpt lat="45.208569390853995" lon="9.373394165380066"><ele>73.0</ele><time>2026-04-11T09:49:31Z</time></trkpt><trkpt lat="45.20839919810464" lon="9.373594044575885"><ele>73.0</ele><time>2026-04-11T09:49:32Z</time></trkpt><trkpt lat="45.20822816550977" lon="9.373782476196638"><ele>72.66666666666666</ele><time>2026-04-11T09:49:33Z</time></trkpt><trkpt lat="45.20805828922064" lon="9.373955096538213"><ele>72.33333333333333</ele><time>2026-04-11T09:49:34Z</time></trkpt><trkpt lat="45.20788857642894" lon="9.374121984769392"><ele>72.0</ele><time>2026-04-11T09:49:35Z</time></trkpt><trkpt lat="45.20772315590459" lon="9.374287332253928"><ele>72.0</ele><time>2026-04-11T09:49:36Z</time></trkpt><trkpt lat="45.207560970429455" lon="9.374451752039407"><ele>72.0</ele><time>2026-04-11T09:49:37Z</time></trkpt><trkpt lat="45.2074025019426" lon="9.374613322410301"><ele>72.0</ele><time>2026-04-11T09:49:38Z</time></trkpt><trkpt lat="45.20724600579973" lon="9.374774006089414"><ele>72.0</ele><time>2026-04-11T09:49:39Z</time></trkpt><trkpt lat="45.20709143323297" lon="9.374931575197376"><ele>72.0</ele><time>2026-04-11T09:49:40Z</time></trkpt><trkpt lat="45.20693851138356" lon="9.375084714226563"><ele>72.0</ele><time>2026-04-11T09:49:41Z</time></trkpt><trkpt lat="45.20678893777898" lon="9.375235633627469"><ele>72.0</ele><time>2026-04-11T09:49:42Z</time></trkpt><trkpt lat="45.206640345150234" lon="9.375390428990551"><ele>72.0</ele><time>2026-04-11T09:49:43Z</time></trkpt><trkpt lat="45.20649080645053" lon="9.375537735765477"><ele>72.0</ele><time>2026-04-11T09:49:44Z</time></trkpt><trkpt lat="45.20634065262271" lon="9.37568400103501"><ele>72.0</ele><time>2026-04-11T09:49:45Z</time></trkpt><trkpt lat="45.20620090580623" lon="9.375820391092674"><ele>72.0</ele><time>2026-04-11T09:49:46Z</time></trkpt><trkpt lat="45.20607119433804" lon="9.375950217113951"><ele>72.0</ele><time>2026-04-11T09:49:47Z</time></trkpt><trkpt lat="45.20595384746411" lon="9.376070670402958"><ele>72.0</ele><time>2026-04-11T09:49:48Z</time></trkpt><trkpt lat="45.20584634904133" lon="9.376179554251392"><ele>72.0</ele><time>2026-04-11T09:49:49Z</time></trkpt><trkpt lat="45.20575040952003" lon="9.376274949560477"><ele>72.0</ele><time>2026-04-11T09:49:50Z</time></trkpt><trkpt lat="45.20566276885044" lon="9.376359018557366"><ele>72.0</ele><time>2026-04-11T09:49:51Z</time></trkpt><trkpt lat="45.20559999758468" lon="9.376418615394995"><ele>72.0</ele><time>2026-04-11T09:49:52Z</time></trkpt><trkpt lat="45.20551872102858" lon="9.376438237550003"><ele>72.0</ele><time>2026-04-11T09:49:55Z</time></trkpt><trkpt lat="45.20544839277639" lon="9.3764879449247"><ele>72.0</ele><time>2026-04-11T09:49:58Z</time></trkpt><trkpt lat="45.205521941231666" lon="9.376472172352479"><ele>72.0</ele><time>2026-04-11T09:50:11Z</time></trkpt><trkpt lat="45.20557369234701" lon="9.376410604472238"><ele>72.0</ele><time>2026-04-11T09:50:14Z</time></trkpt><trkpt lat="45.205680729962495" lon="9.376374284569007"><ele>72.0</ele><time>2026-04-11T09:50:25Z</time></trkpt><trkpt lat="45.205764299042926" lon="9.376273513605653"><ele>72.0</ele><time>2026-04-11T09:50:26Z</time></trkpt><trkpt lat="45.20584529678215" lon="9.376237885383665"><ele>72.0</ele><time>2026-04-11T09:50:27Z</time></trkpt><trkpt lat="45.20591901681154" lon="9.376164691826904"><ele>72.0</ele><time>2026-04-11T09:50:28Z</time></trkpt><trkpt lat="45.205995916352315" lon="9.376084266965595"><ele>72.0</ele><time>2026-04-11T09:50:29Z</time></trkpt><trkpt lat="45.20607907583306" lon="9.376001136539228"><ele>72.0</ele><time>2026-04-11T09:50:30Z</time></trkpt><trkpt lat="45.20616797874681" lon="9.37591381766233"><ele>72.0</ele><time>2026-04-11T09:50:31Z</time></trkpt><trkpt lat="45.20625601260604" lon="9.375828063733689"><ele>72.0</ele><time>2026-04-11T09:50:32Z</time></trkpt><trkpt lat="45.20634680398802" lon="9.375736440106236"><ele>72.0</ele><time>2026-04-11T09:50:33Z</time></trkpt><trkpt lat="45.20644163758238" lon="9.37563818777479"><ele>72.0</ele><time>2026-04-11T09:50:34Z</time></trkpt><trkpt lat="45.20653607803712" lon="9.375534971147044"><ele>72.0</ele><time>2026-04-11T09:50:35Z</time></trkpt><trkpt lat="45.20663100109417" lon="9.375435623304671"><ele>72.0</ele><time>2026-04-11T09:50:36Z</time></trkpt><trkpt lat="45.206731719436604" lon="9.375341692249785"><ele>72.0</ele><time>2026-04-11T09:50:37Z</time></trkpt><trkpt lat="45.20683742231258" lon="9.37524052858815"><ele>72.0</ele><time>2026-04-11T09:50:38Z</time></trkpt><trkpt lat="45.20694267661851" lon="9.375136703981543"><ele>72.0</ele><time>2026-04-11T09:50:39Z</time></trkpt><trkpt lat="45.20704910779144" lon="9.375032090551404"><ele>72.0</ele><time>2026-04-11T09:50:40Z</time></trkpt><trkpt lat="45.207155215013785" lon="9.374923838681163"><ele>72.0</ele><time>2026-04-11T09:50:41Z</time></trkpt><trkpt lat="45.207262210477275" lon="9.374810965362487"><ele>72.0</ele><time>2026-04-11T09:50:42Z</time></trkpt><trkpt lat="45.20737302502223" lon="9.37469854135162"><ele>72.0</ele><time>2026-04-11T09:50:43Z</time></trkpt><trkpt lat="45.20748233464422" lon="9.374592089191212"><ele>72.0</ele><time>2026-04-11T09:50:44Z</time></trkpt><trkpt lat="45.20759212081252" lon="9.374480690165509"><ele>72.0</ele><time>2026-04-11T09:50:45Z</time></trkpt><trkpt lat="45.20770651706862" lon="9.374364235309349"><ele>72.0</ele><time>2026-04-11T09:50:46Z</time></trkpt><trkpt lat="45.207824709634316" lon="9.37424964245156"><ele>72.0</ele><time>2026-04-11T09:50:47Z</time></trkpt><trkpt lat="45.207943884569254" lon="9.374133058027903"><ele>72.0</ele><time>2026-04-11T09:50:48Z</time></trkpt><trkpt lat="45.20806099954291" lon="9.37401265681843"><ele>72.0</ele><time>2026-04-11T09:50:49Z</time></trkpt><trkpt lat="45.208184227550824" lon="9.37387988825948"><ele>72.0</ele><time>2026-04-11T09:50:50Z</time></trkpt><trkpt lat="45.20830840050229" lon="9.373746907443737"><ele>72.25</ele><time>2026-04-11T09:50:51Z</time></trkpt><trkpt lat="45.208422005706" lon="9.373629027386938"><ele>72.5</ele><time>2026-04-11T09:50:52Z</time></trkpt><trkpt lat="45.20851577991795" lon="9.373531539150028"><ele>72.75</ele><time>2026-04-11T09:50:52.999Z</time></trkpt><trkpt lat="45.20860905208634" lon="9.373416957637907"><ele>73.0</ele><time>2026-04-11T09:50:53.999Z</time></trkpt><trkpt lat="45.20871111780672" lon="9.373283948119646"><ele>73.0</ele><time>2026-04-11T09:50:54.999Z</time></trkpt><trkpt lat="45.208816099833435" lon="9.373138379963871"><ele>73.0</ele><time>2026-04-11T09:50:55.999Z</time></trkpt><trkpt lat="45.208927037575215" lon="9.372984361281341"><ele>73.0</ele><time>2026-04-11T09:50:56.999Z</time></trkpt><trkpt lat="45.209041585227475" lon="9.372821480444188"><ele>74.0</ele><time>2026-04-11T09:50:57.999Z</time></trkpt><trkpt lat="45.2091579549288" lon="9.37264930407134"><ele>75.0</ele><time>2026-04-11T09:50:58.999Z</time></trkpt><trkpt lat="45.20927989351395" lon="9.372478071452395"><ele>76.0</ele><time>2026-04-11T09:50:59.999Z</time></trkpt><trkpt lat="45.20940428780884" lon="9.372301688710921"><ele>75.5</ele><time>2026-04-11T09:51:00.999Z</time></trkpt><trkpt lat="45.209516104566" lon="9.372136812692089"><ele>75.0</ele><time>2026-04-11T09:51:01.999Z</time></trkpt><trkpt lat="45.2096209823236" lon="9.371985974050881"><ele>74.5</ele><time>2026-04-11T09:51:02.999Z</time></trkpt><trkpt lat="45.20972067456696" lon="9.371848789009233"><ele>74.0</ele><time>2026-04-11T09:51:04Z</time></trkpt><trkpt lat="45.2098135896355" lon="9.371715633535029"><ele>73.60000000000001</ele><time>2026-04-11T09:51:05Z</time></trkpt><trkpt lat="45.2099003104984" lon="9.371587890905674"><ele>73.2</ele><time>2026-04-11T09:51:06Z</time></trkpt><trkpt lat="45.20997881602281" lon="9.371477855761698"><ele>72.80000000000001</ele><time>2026-04-11T09:51:07Z</time></trkpt><trkpt lat="45.21004128954249" lon="9.371387229838673"><ele>72.4</ele><time>2026-04-11T09:51:08Z</time></trkpt><trkpt lat="45.21009223531981" lon="9.371317532014189"><ele>72.0</ele><time>2026-04-11T09:51:09Z</time></trkpt><trkpt lat="45.2101820737409" lon="9.371266340206851"><ele>72.0</ele><time>2026-04-11T09:51:11Z</time></trkpt><trkpt lat="45.2102207746207" lon="9.371373518799707"><ele>72.0</ele><time>2026-04-11T09:51:13Z</time></trkpt><trkpt lat="45.210254834201294" lon="9.371450102752659"><ele>72.0</ele><time>2026-04-11T09:51:14Z</time></trkpt><trkpt lat="45.210291334193116" lon="9.37153246483696"><ele>72.0</ele><time>2026-04-11T09:51:15Z</time></trkpt><trkpt lat="45.21033517930241" lon="9.371632044584697"><ele>72.0</ele><time>2026-04-11T09:51:16Z</time></trkpt><trkpt lat="45.210384920081815" lon="9.371745919412076"><ele>72.0</ele><time>2026-04-11T09:51:17Z</time></trkpt><trkpt lat="45.21043509540634" lon="9.37186815810619"><ele>72.0</ele><time>2026-04-11T09:51:18Z</time></trkpt><trkpt lat="45.21048697501573" lon="9.372001212312473"><ele>72.0</ele><time>2026-04-11T09:51:19Z</time></trkpt><trkpt lat="45.210534487075286" lon="9.372139633839433"><ele>72.0</ele><time>2026-04-11T09:51:20Z</time></trkpt><trkpt lat="45.210584231509195" lon="9.372277778976738"><ele>72.0</ele><time>2026-04-11T09:51:21Z</time></trkpt><trkpt lat="45.210637000775236" lon="9.372424324292355"><ele>72.0</ele><time>2026-04-11T09:51:22Z</time></trkpt><trkpt lat="45.21068765843333" lon="9.372572643759778"><ele>71.75</ele><time>2026-04-11T09:51:23Z</time></trkpt><trkpt lat="45.21073255245621" lon="9.372729355178631"><ele>71.5</ele><time>2026-04-11T09:51:24Z</time></trkpt><trkpt lat="45.2107742001686" lon="9.372892949923248"><ele>71.25</ele><time>2026-04-11T09:51:25Z</time></trkpt><trkpt lat="45.210812731452144" lon="9.373062455997502"><ele>71.0</ele><time>2026-04-11T09:51:26Z</time></trkpt><trkpt lat="45.210851698342545" lon="9.373235587585542"><ele>70.75</ele><time>2026-04-11T09:51:27Z</time></trkpt><trkpt lat="45.21089496477571" lon="9.37341064814002"><ele>70.5</ele><time>2026-04-11T09:51:28Z</time></trkpt><trkpt lat="45.21094225925608" lon="9.373592404072708"><ele>70.25</ele><time>2026-04-11T09:51:29Z</time></trkpt><trkpt lat="45.21099739468406" lon="9.37379448074392"><ele>70.0</ele><time>2026-04-11T09:51:30Z</time></trkpt><trkpt lat="45.21105265455428" lon="9.373997178247542"><ele>70.5</ele><time>2026-04-11T09:51:31Z</time></trkpt><trkpt lat="45.21110637862682" lon="9.374192260023307"><ele>71.0</ele><time>2026-04-11T09:51:32Z</time></trkpt><trkpt lat="45.21115940101833" lon="9.374384508847944"><ele>71.5</ele><time>2026-04-11T09:51:33Z</time></trkpt><trkpt lat="45.21120817479332" lon="9.374561352642196"><ele>72.0</ele><time>2026-04-11T09:51:34Z</time></trkpt><trkpt lat="45.21125651968112" lon="9.374741052934054"><ele>72.25</ele><time>2026-04-11T09:51:35Z</time></trkpt><trkpt lat="45.21130838898955" lon="9.374939074209353"><ele>72.5</ele><time>2026-04-11T09:51:36Z</time></trkpt><trkpt lat="45.211363016956795" lon="9.375147938365886"><ele>72.75</ele><time>2026-04-11T09:51:37Z</time></trkpt><trkpt lat="45.21141235947008" lon="9.375336593668264"><ele>73.0</ele><time>2026-04-11T09:51:38Z</time></trkpt><trkpt lat="45.21146826683947" lon="9.375550350097383"><ele>73.0</ele><time>2026-04-11T09:51:39Z</time></trkpt><trkpt lat="45.211527108241484" lon="9.375775323905057"><ele>73.0</ele><time>2026-04-11T09:51:40Z</time></trkpt><trkpt lat="45.21158769747039" lon="9.376005121309044"><ele>73.0</ele><time>2026-04-11T09:51:41Z</time></trkpt><trkpt lat="45.21165394603942" lon="9.376253011217146"><ele>72.33333333333333</ele><time>2026-04-11T09:51:42Z</time></trkpt><trkpt lat="45.21172161929787" lon="9.376506231761745"><ele>71.66666666666667</ele><time>2026-04-11T09:51:43Z</time></trkpt><trkpt lat="45.21180648067249" lon="9.376758489058801"><ele>71.0</ele><time>2026-04-11T09:51:44Z</time></trkpt><trkpt lat="45.21187628096231" lon="9.377017398680758"><ele>71.33333333333334</ele><time>2026-04-11T09:51:45Z</time></trkpt><trkpt lat="45.21194392212645" lon="9.377266205750264"><ele>71.66666666666667</ele><time>2026-04-11T09:51:46Z</time></trkpt><trkpt lat="45.212001933386105" lon="9.377484736604627"><ele>72.0</ele><time>2026-04-11T09:51:47Z</time></trkpt><trkpt lat="45.21205706891777" lon="9.377675511127679"><ele>72.0</ele><time>2026-04-11T09:51:48Z</time></trkpt><trkpt lat="45.212092054493155" lon="9.377864887092361"><ele>72.0</ele><time>2026-04-11T09:51:49Z</time></trkpt><trkpt lat="45.2121351396338" lon="9.378026412461876"><ele>72.0</ele><time>2026-04-11T09:51:50Z</time></trkpt><trkpt lat="45.212183243002016" lon="9.378149647380843"><ele>72.0</ele><time>2026-04-11T09:51:51Z</time></trkpt><trkpt lat="45.21219746506855" lon="9.378253928118017"><ele>72.0</ele><time>2026-04-11T09:51:52Z</time></trkpt><trkpt lat="45.21219490371516" lon="9.378343977350996"><ele>72.0</ele><time>2026-04-11T09:51:53Z</time></trkpt><trkpt lat="45.212172806784515" lon="9.378437036643948"><ele>72.0</ele><time>2026-04-11T09:51:54Z</time></trkpt><trkpt lat="45.21206492280149" lon="9.378520172414516"><ele>72.0</ele><time>2026-04-11T09:51:56Z</time></trkpt><trkpt lat="45.21199674141386" lon="9.37856443974499"><ele>72.0</ele><time>2026-04-11T09:51:57Z</time></trkpt><trkpt lat="45.21191559904387" lon="9.378618379669673"><ele>72.0</ele><time>2026-04-11T09:51:58Z</time></trkpt><trkpt lat="45.21181100373027" lon="9.378688876684953"><ele>72.0</ele><time>2026-04-11T09:51:59Z</time></trkpt><trkpt lat="45.21169072418762" lon="9.37877137088324"><ele>72.0</ele><time>2026-04-11T09:52:00Z</time></trkpt><trkpt lat="45.21156278908032" lon="9.378859115524023"><ele>72.0</ele><time>2026-04-11T09:52:01Z</time></trkpt><trkpt lat="45.2114505763341" lon="9.378947957152423"><ele>72.0</ele><time>2026-04-11T09:52:02Z</time></trkpt><trkpt lat="45.21134894222558" lon="9.37902008190923"><ele>72.2</ele><time>2026-04-11T09:52:03Z</time></trkpt><trkpt lat="45.211258440321856" lon="9.3790823881872"><ele>72.4</ele><time>2026-04-11T09:52:04Z</time></trkpt><trkpt lat="45.21118184218332" lon="9.379135620700117"><ele>72.6</ele><time>2026-04-11T09:52:05Z</time></trkpt><trkpt lat="45.21109436355331" lon="9.379230723430245"><ele>72.8</ele><time>2026-04-11T09:52:07Z</time></trkpt><trkpt lat="45.21104704725689" lon="9.379343811174394"><ele>73.0</ele><time>2026-04-11T09:52:09Z</time></trkpt><trkpt lat="45.211107068718306" lon="9.379445291417653"><ele>73.0</ele><time>2026-04-11T09:52:10Z</time></trkpt><trkpt lat="45.21110742090207" lon="9.37954815218419"><ele>73.0</ele><time>2026-04-11T09:52:11Z</time></trkpt><trkpt lat="45.21112342985875" lon="9.379661026322552"><ele>73.0</ele><time>2026-04-11T09:52:12Z</time></trkpt><trkpt lat="45.21114376270563" lon="9.37978047921423"><ele>73.0</ele><time>2026-04-11T09:52:13Z</time></trkpt><trkpt lat="45.21117726983168" lon="9.379901906442868"><ele>73.0</ele><time>2026-04-11T09:52:14Z</time></trkpt><trkpt lat="45.211211903428875" lon="9.3800265340119"><ele>73.0</ele><time>2026-04-11T09:52:15Z</time></trkpt><trkpt lat="45.21122984597402" lon="9.380161505644264"><ele>73.0</ele><time>2026-04-11T09:52:16Z</time></trkpt><trkpt lat="45.21126125897256" lon="9.380275706873272"><ele>73.0</ele><time>2026-04-11T09:52:17Z</time></trkpt><trkpt lat="45.211312581836054" lon="9.380387198327204"><ele>73.0</ele><time>2026-04-11T09:52:18Z</time></trkpt><trkpt lat="45.211340441729625" lon="9.380504412543628"><ele>73.0</ele><time>2026-04-11T09:52:19Z</time></trkpt><trkpt lat="45.21136655692662" lon="9.380612086661488"><ele>73.0</ele><time>2026-04-11T09:52:20Z</time></trkpt><trkpt lat="45.21139438948404" lon="9.380724882134858"><ele>73.0</ele><time>2026-04-11T09:52:21Z</time></trkpt><trkpt lat="45.2114196023226" lon="9.380845010454909"><ele>73.0</ele><time>2026-04-11T09:52:22Z</time></trkpt><trkpt lat="45.21144627895969" lon="9.38097045815438"><ele>73.0</ele><time>2026-04-11T09:52:23Z</time></trkpt><trkpt lat="45.21145332593064" lon="9.381106566805252"><ele>73.0</ele><time>2026-04-11T09:52:24Z</time></trkpt><trkpt lat="45.21147470642922" lon="9.381238300820721"><ele>73.0</ele><time>2026-04-11T09:52:25Z</time></trkpt><trkpt lat="45.211488471479186" lon="9.381367187658755"><ele>73.0</ele><time>2026-04-11T09:52:26Z</time></trkpt><trkpt lat="45.21151307844026" lon="9.381488952630159"><ele>73.0</ele><time>2026-04-11T09:52:27Z</time></trkpt><trkpt lat="45.21151080399303" lon="9.381625750069855"><ele>73.0</ele><time>2026-04-11T09:52:28Z</time></trkpt><trkpt lat="45.21150470241549" lon="9.381764204903808"><ele>73.0</ele><time>2026-04-11T09:52:29Z</time></trkpt><trkpt lat="45.211491125463" lon="9.381900173200219"><ele>73.0</ele><time>2026-04-11T09:52:30Z</time></trkpt><trkpt lat="45.21147873357282" lon="9.382037476595055"><ele>73.0</ele><time>2026-04-11T09:52:31Z</time></trkpt><trkpt lat="45.211445217246485" lon="9.382170106823342"><ele>73.2</ele><time>2026-04-11T09:52:32Z</time></trkpt><trkpt lat="45.21145662023256" lon="9.382306982446593"><ele>73.4</ele><time>2026-04-11T09:52:33Z</time></trkpt><trkpt lat="45.211461756412554" lon="9.382432141720754"><ele>73.60000000000001</ele><time>2026-04-11T09:52:34Z</time></trkpt><trkpt lat="45.211486842291386" lon="9.382555298045315"><ele>73.8</ele><time>2026-04-11T09:52:35Z</time></trkpt><trkpt lat="45.21153351245394" lon="9.382674693306216"><ele>74.0</ele><time>2026-04-11T09:52:36Z</time></trkpt><trkpt lat="45.21158971809522" lon="9.38279785041961"><ele>74.0</ele><time>2026-04-11T09:52:37Z</time></trkpt><trkpt lat="45.21163074967499" lon="9.382942407534244"><ele>74.0</ele><time>2026-04-11T09:52:38Z</time></trkpt><trkpt lat="45.21168319533175" lon="9.383082180952185"><ele>74.0</ele><time>2026-04-11T09:52:39Z</time></trkpt><trkpt lat="45.21173765379226" lon="9.383227295692116"><ele>74.0</ele><time>2026-04-11T09:52:40Z</time></trkpt><trkpt lat="45.21179250224421" lon="9.3833734495313"><ele>74.0</ele><time>2026-04-11T09:52:41Z</time></trkpt><trkpt lat="45.211848358703634" lon="9.38352228953482"><ele>74.0</ele><time>2026-04-11T09:52:42Z</time></trkpt><trkpt lat="45.21191941434916" lon="9.383668331580576"><ele>74.0</ele><time>2026-04-11T09:52:43Z</time></trkpt><trkpt lat="45.21196318528301" lon="9.383840463779768"><ele>74.0</ele><time>2026-04-11T09:52:44Z</time></trkpt><trkpt lat="45.2120211597054" lon="9.384004097858314"><ele>74.0</ele><time>2026-04-11T09:52:45Z</time></trkpt><trkpt lat="45.21209371036722" lon="9.384160486389506"><ele>74.0</ele><time>2026-04-11T09:52:46Z</time></trkpt><trkpt lat="45.212142419701316" lon="9.38434404685746"><ele>74.0</ele><time>2026-04-11T09:52:47Z</time></trkpt><trkpt lat="45.2122048757209" lon="9.384517870457946"><ele>74.0</ele><time>2026-04-11T09:52:48Z</time></trkpt><trkpt lat="45.21226804223994" lon="9.38469367154938"><ele>73.75</ele><time>2026-04-11T09:52:49Z</time></trkpt><trkpt lat="45.21234530913014" lon="9.384856996144547"><ele>73.5</ele><time>2026-04-11T09:52:50Z</time></trkpt><trkpt lat="45.212401702670064" lon="9.385027495561246"><ele>73.25</ele><time>2026-04-11T09:52:51Z</time></trkpt><trkpt lat="45.21243665508847" lon="9.38518876854874"><ele>73.0</ele><time>2026-04-11T09:52:52Z</time></trkpt><trkpt lat="45.21249189780298" lon="9.385305772224852"><ele>73.0</ele><time>2026-04-11T09:52:53Z</time></trkpt><trkpt lat="45.2125227867925" lon="9.385407156629082"><ele>73.0</ele><time>2026-04-11T09:52:54Z</time></trkpt><trkpt lat="45.212561248962274" lon="9.385494198602503"><ele>73.0</ele><time>2026-04-11T09:52:55Z</time></trkpt><trkpt lat="45.21259842648554" lon="9.385608768090535"><ele>73.0</ele><time>2026-04-11T09:52:56Z</time></trkpt><trkpt lat="45.212647663396105" lon="9.385747559651024"><ele>73.0</ele><time>2026-04-11T09:52:57Z</time></trkpt><trkpt lat="45.21270175574757" lon="9.385905198086736"><ele>73.0</ele><time>2026-04-11T09:52:58Z</time></trkpt><trkpt lat="45.21275751401201" lon="9.386073856235926"><ele>73.0</ele><time>2026-04-11T09:52:59Z</time></trkpt><trkpt lat="45.21281439997192" lon="9.386252289549132"><ele>73.0</ele><time>2026-04-11T09:53:00Z</time></trkpt><trkpt lat="45.2128684370572" lon="9.386423348989867"><ele>73.0</ele><time>2026-04-11T09:53:01Z</time></trkpt><trkpt lat="45.21292681125045" lon="9.386605911860666"><ele>73.25</ele><time>2026-04-11T09:53:02Z</time></trkpt><trkpt lat="45.21297330517463" lon="9.386807473884083"><ele>73.5</ele><time>2026-04-11T09:53:03Z</time></trkpt><trkpt lat="45.21304404174106" lon="9.386973181232479"><ele>73.75</ele><time>2026-04-11T09:53:04Z</time></trkpt><trkpt lat="45.213102318892446" lon="9.387153548041137"><ele>74.0</ele><time>2026-04-11T09:53:05Z</time></trkpt><trkpt lat="45.21316338672945" lon="9.387345293586607"><ele>74.0</ele><time>2026-04-11T09:53:06Z</time></trkpt><trkpt lat="45.213224909046225" lon="9.38754365451153"><ele>74.0</ele><time>2026-04-11T09:53:07Z</time></trkpt><trkpt lat="45.21329043063221" lon="9.387739703551016"><ele>74.0</ele><time>2026-04-11T09:53:08Z</time></trkpt><trkpt lat="45.213354330547396" lon="9.387945243580823"><ele>73.66666666666667</ele><time>2026-04-11T09:53:09Z</time></trkpt><trkpt lat="45.21341893464047" lon="9.388149460645607"><ele>73.33333333333333</ele><time>2026-04-11T09:53:10Z</time></trkpt><trkpt lat="45.21348555020147" lon="9.388351914423685"><ele>73.0</ele><time>2026-04-11T09:53:11Z</time></trkpt><trkpt lat="45.21354919485644" lon="9.38854947220697"><ele>73.0</ele><time>2026-04-11T09:53:12Z</time></trkpt><trkpt lat="45.21359190403034" lon="9.388739974439614"><ele>73.0</ele><time>2026-04-11T09:53:13Z</time></trkpt><trkpt lat="45.21365716340127" lon="9.38888971142042"><ele>73.0</ele><time>2026-04-11T09:53:14Z</time></trkpt><trkpt lat="45.21369600858183" lon="9.389022250897918"><ele>73.0</ele><time>2026-04-11T09:53:15Z</time></trkpt><trkpt lat="45.21373143476831" lon="9.389124661838931"><ele>73.0</ele><time>2026-04-11T09:53:16Z</time></trkpt><trkpt lat="45.21376350424032" lon="9.389216443060496"><ele>72.8</ele><time>2026-04-11T09:53:17Z</time></trkpt><trkpt lat="45.21377870368251" lon="9.389363443114048"><ele>72.6</ele><time>2026-04-11T09:53:19Z</time></trkpt><trkpt lat="45.21369517915861" lon="9.389441437808117"><ele>72.4</ele><time>2026-04-11T09:53:21Z</time></trkpt><trkpt lat="45.21363438574329" lon="9.389468740661115"><ele>72.2</ele><time>2026-04-11T09:53:22Z</time></trkpt><trkpt lat="45.213553334156806" lon="9.389508198726135"><ele>72.0</ele><time>2026-04-11T09:53:23Z</time></trkpt><trkpt lat="45.21345855580468" lon="9.389582738649448"><ele>72.0</ele><time>2026-04-11T09:53:24Z</time></trkpt><trkpt lat="45.213341348069115" lon="9.389623790828574"><ele>72.0</ele><time>2026-04-11T09:53:25Z</time></trkpt><trkpt lat="45.213227466652526" lon="9.389707654347333"><ele>72.0</ele><time>2026-04-11T09:53:26Z</time></trkpt><trkpt lat="45.21309744634818" lon="9.389763364401462"><ele>72.0</ele><time>2026-04-11T09:53:27Z</time></trkpt><trkpt lat="45.212973488630354" lon="9.389853902875473"><ele>72.5</ele><time>2026-04-11T09:53:28Z</time></trkpt><trkpt lat="45.21284531067804" lon="9.389931514783564"><ele>73.0</ele><time>2026-04-11T09:53:29Z</time></trkpt><trkpt lat="45.212712073826296" lon="9.390008646797977"><ele>73.5</ele><time>2026-04-11T09:53:30Z</time></trkpt><trkpt lat="45.212576049860225" lon="9.390086598578637"><ele>74.0</ele><time>2026-04-11T09:53:31Z</time></trkpt><trkpt lat="45.21243478289133" lon="9.390165690704983"><ele>74.33333333333334</ele><time>2026-04-11T09:53:32Z</time></trkpt><trkpt lat="45.21229387036783" lon="9.390244307418703"><ele>74.66666666666667</ele><time>2026-04-11T09:53:33Z</time></trkpt><trkpt lat="45.21214615507757" lon="9.390300730737277"><ele>75.0</ele><time>2026-04-11T09:53:34Z</time></trkpt><trkpt lat="45.21200544777625" lon="9.390378785499912"><ele>75.0</ele><time>2026-04-11T09:53:35Z</time></trkpt><trkpt lat="45.211871962535774" lon="9.390484366653371"><ele>75.0</ele><time>2026-04-11T09:53:36Z</time></trkpt><trkpt lat="45.211725085594594" lon="9.390543423106562"><ele>75.0</ele><time>2026-04-11T09:53:37Z</time></trkpt><trkpt lat="45.21158374224389" lon="9.390621971789834"><ele>75.0</ele><time>2026-04-11T09:53:38Z</time></trkpt><trkpt lat="45.21144215126399" lon="9.390701535622878"><ele>75.0</ele><time>2026-04-11T09:53:39Z</time></trkpt><trkpt lat="45.211300217898014" lon="9.390782812748464"><ele>75.0</ele><time>2026-04-11T09:53:40Z</time></trkpt><trkpt lat="45.211159498238835" lon="9.390863394813655"><ele>75.0</ele><time>2026-04-11T09:53:41Z</time></trkpt><trkpt lat="45.211019405053015" lon="9.390943618183906"><ele>75.0</ele><time>2026-04-11T09:53:42Z</time></trkpt><trkpt lat="45.21087987025592" lon="9.391024708119458"><ele>75.0</ele><time>2026-04-11T09:53:43Z</time></trkpt><trkpt lat="45.21074814395594" lon="9.391101444343322"><ele>75.0</ele><time>2026-04-11T09:53:44Z</time></trkpt><trkpt lat="45.210626636631986" lon="9.391172227508052"><ele>74.8</ele><time>2026-04-11T09:53:45Z</time></trkpt><trkpt lat="45.210516450023626" lon="9.391236311865583"><ele>74.6</ele><time>2026-04-11T09:53:46Z</time></trkpt><trkpt lat="45.21041835222294" lon="9.391292319350402"><ele>74.4</ele><time>2026-04-11T09:53:47Z</time></trkpt><trkpt lat="45.21033472708368" lon="9.39134006398762"><ele>74.2</ele><time>2026-04-11T09:53:48Z</time></trkpt><trkpt lat="45.21027361723458" lon="9.391374953739179"><ele>74.0</ele><time>2026-04-11T09:53:49Z</time></trkpt><trkpt lat="45.2101828128062" lon="9.391461916134249"><ele>74.0</ele><time>2026-04-11T09:53:51Z</time></trkpt><trkpt lat="45.21016852886458" lon="9.391553818256847"><ele>74.0</ele><time>2026-04-11T09:53:52Z</time></trkpt><trkpt lat="45.2102056247846" lon="9.391660176581874"><ele>74.0</ele><time>2026-04-11T09:53:53Z</time></trkpt><trkpt lat="45.2102320765707" lon="9.39176838620145"><ele>74.0</ele><time>2026-04-11T09:53:54.001Z</time></trkpt><trkpt lat="45.210279196497666" lon="9.39190202699251"><ele>74.0</ele><time>2026-04-11T09:53:55.001Z</time></trkpt><trkpt lat="45.21032357654118" lon="9.392049424411667"><ele>74.0</ele><time>2026-04-11T09:53:56.001Z</time></trkpt><trkpt lat="45.210346966709345" lon="9.392212841920907"><ele>74.0</ele><time>2026-04-11T09:53:57.001Z</time></trkpt><trkpt lat="45.21040125075671" lon="9.392366680766147"><ele>74.0</ele><time>2026-04-11T09:53:58.001Z</time></trkpt><trkpt lat="45.21042657943831" lon="9.39254305557623"><ele>74.0</ele><time>2026-04-11T09:53:59.001Z</time></trkpt><trkpt lat="45.210481814940934" lon="9.392706152099487"><ele>74.0</ele><time>2026-04-11T09:54:00.001Z</time></trkpt><trkpt lat="45.21051857285215" lon="9.39285803888111"><ele>74.0</ele><time>2026-04-11T09:54:01.001Z</time></trkpt><trkpt lat="45.21055113618364" lon="9.392994019538891"><ele>74.0</ele><time>2026-04-11T09:54:02.001Z</time></trkpt><trkpt lat="45.21058227296334" lon="9.393121520544273"><ele>74.0</ele><time>2026-04-11T09:54:03.001Z</time></trkpt><trkpt lat="45.21061045205706" lon="9.393239008626722"><ele>74.0</ele><time>2026-04-11T09:54:04.001Z</time></trkpt><trkpt lat="45.21063505161581" lon="9.393341551652062"><ele>74.0</ele><time>2026-04-11T09:54:05.001Z</time></trkpt><trkpt lat="45.21064677085786" lon="9.393504527019301"><ele>74.2</ele><time>2026-04-11T09:54:07.001Z</time></trkpt><trkpt lat="45.210610991845854" lon="9.393644340445734"><ele>74.4</ele><time>2026-04-11T09:54:09Z</time></trkpt><trkpt lat="45.210620125432705" lon="9.393778327661831"><ele>74.6</ele><time>2026-04-11T09:54:11Z</time></trkpt><trkpt lat="45.21066293156957" lon="9.393906015395977"><ele>74.8</ele><time>2026-04-11T09:54:13Z</time></trkpt><trkpt lat="45.210699224790424" lon="9.394039554388675"><ele>75.0</ele><time>2026-04-11T09:54:15Z</time></trkpt><trkpt lat="45.21073676829282" lon="9.394191201874019"><ele>75.0</ele><time>2026-04-11T09:54:17Z</time></trkpt><trkpt lat="45.210781018356954" lon="9.394348345956798"><ele>75.0</ele><time>2026-04-11T09:54:19Z</time></trkpt><trkpt lat="45.21078804904736" lon="9.394438174749196"><ele>75.0</ele><time>2026-04-11T09:54:20Z</time></trkpt><trkpt lat="45.21083021895044" lon="9.394605766594946"><ele>75.0</ele><time>2026-04-11T09:54:22Z</time></trkpt><trkpt lat="45.210851941842286" lon="9.394692097903436"><ele>75.0</ele><time>2026-04-11T09:54:23Z</time></trkpt><trkpt lat="45.21087342152684" lon="9.394777462582931"><ele>75.0</ele><time>2026-04-11T09:54:24Z</time></trkpt><trkpt lat="45.210896106337664" lon="9.394867616725197"><ele>74.99999999999999</ele><time>2026-04-11T09:54:25Z</time></trkpt><trkpt lat="45.210933004370034" lon="9.394944545398609"><ele>75.0</ele><time>2026-04-11T09:54:26Z</time></trkpt><trkpt lat="45.21095409038036" lon="9.395029712508244"><ele>75.0</ele><time>2026-04-11T09:54:27Z</time></trkpt><trkpt lat="45.21098065130861" lon="9.395112536441996"><ele>75.0</ele><time>2026-04-11T09:54:28Z</time></trkpt><trkpt lat="45.21099888851681" lon="9.395203208911788"><ele>75.0</ele><time>2026-04-11T09:54:29Z</time></trkpt><trkpt lat="45.2110212278889" lon="9.39528894824251"><ele>74.99999999999999</ele><time>2026-04-11T09:54:30Z</time></trkpt><trkpt lat="45.21104562129204" lon="9.395379857747004"><ele>75.0</ele><time>2026-04-11T09:54:31Z</time></trkpt><trkpt lat="45.21106758704928" lon="9.395496238987704"><ele>74.5</ele><time>2026-04-11T09:54:32Z</time></trkpt><trkpt lat="45.21104528671768" lon="9.39565010644115"><ele>74.0</ele><time>2026-04-11T09:54:33Z</time></trkpt><trkpt lat="45.211075248784724" lon="9.395802338631984"><ele>73.5</ele><time>2026-04-11T09:54:34Z</time></trkpt><trkpt lat="45.211121744975664" lon="9.395952788613826"><ele>73.0</ele><time>2026-04-11T09:54:35Z</time></trkpt><trkpt lat="45.21117054981082" lon="9.39610166142356"><ele>73.0</ele><time>2026-04-11T09:54:36Z</time></trkpt><trkpt lat="45.21122458766361" lon="9.396254680620192"><ele>73.0</ele><time>2026-04-11T09:54:37Z</time></trkpt><trkpt lat="45.21128146542926" lon="9.396419747577955"><ele>73.0</ele><time>2026-04-11T09:54:38Z</time></trkpt><trkpt lat="45.211336578228895" lon="9.396589762090636"><ele>73.0</ele><time>2026-04-11T09:54:39Z</time></trkpt><trkpt lat="45.21138916818214" lon="9.396758540275922"><ele>72.75</ele><time>2026-04-11T09:54:40Z</time></trkpt><trkpt lat="45.21144794564795" lon="9.396915955552318"><ele>72.5</ele><time>2026-04-11T09:54:41Z</time></trkpt><trkpt lat="45.211509785469175" lon="9.39707266025421"><ele>72.25</ele><time>2026-04-11T09:54:42Z</time></trkpt><trkpt lat="45.21156925043179" lon="9.397231658533114"><ele>72.0</ele><time>2026-04-11T09:54:43Z</time></trkpt><trkpt lat="45.21162054257601" lon="9.397395891166918"><ele>72.0</ele><time>2026-04-11T09:54:44Z</time></trkpt><trkpt lat="45.21168035687355" lon="9.397565510552553"><ele>72.0</ele><time>2026-04-11T09:54:45Z</time></trkpt><trkpt lat="45.211748737195585" lon="9.397735714709805"><ele>72.0</ele><time>2026-04-11T09:54:46.001Z</time></trkpt><trkpt lat="45.211816141372076" lon="9.397915916756313"><ele>72.0</ele><time>2026-04-11T09:54:47.001Z</time></trkpt><trkpt lat="45.211883833129924" lon="9.398095955374746"><ele>72.25</ele><time>2026-04-11T09:54:48.001Z</time></trkpt><trkpt lat="45.21194903416843" lon="9.398278847714874"><ele>72.5</ele><time>2026-04-11T09:54:49.001Z</time></trkpt><trkpt lat="45.212012734161256" lon="9.398465850412395"><ele>72.75</ele><time>2026-04-11T09:54:50.001Z</time></trkpt><trkpt lat="45.21207637567823" lon="9.398652746414514"><ele>73.0</ele><time>2026-04-11T09:54:51.001Z</time></trkpt><trkpt lat="45.21213446470851" lon="9.39883077260979"><ele>72.5</ele><time>2026-04-11T09:54:52.001Z</time></trkpt><trkpt lat="45.21218434233982" lon="9.398991499582412"><ele>72.0</ele><time>2026-04-11T09:54:53.001Z</time></trkpt><trkpt lat="45.21222932529631" lon="9.399145821704371"><ele>71.5</ele><time>2026-04-11T09:54:54.001Z</time></trkpt><trkpt lat="45.212279985005466" lon="9.399308979477762"><ele>71.0</ele><time>2026-04-11T09:54:55.001Z</time></trkpt><trkpt lat="45.21233068383504" lon="9.399480992910249"><ele>71.0</ele><time>2026-04-11T09:54:56.001Z</time></trkpt><trkpt lat="45.21237965715552" lon="9.399655829505596"><ele>71.0</ele><time>2026-04-11T09:54:57.001Z</time></trkpt><trkpt lat="45.21243136174577" lon="9.399829947136364"><ele>71.0</ele><time>2026-04-11T09:54:58.001Z</time></trkpt><trkpt lat="45.21248361199007" lon="9.399993311721923"><ele>71.0</ele><time>2026-04-11T09:54:59.001Z</time></trkpt><trkpt lat="45.212531818948065" lon="9.400154661623644"><ele>71.0</ele><time>2026-04-11T09:55:00.001Z</time></trkpt><trkpt lat="45.212575312541276" lon="9.400302315207298"><ele>71.0</ele><time>2026-04-11T09:55:01.001Z</time></trkpt><trkpt lat="45.21261727651159" lon="9.400434553976936"><ele>71.0</ele><time>2026-04-11T09:55:02.001Z</time></trkpt><trkpt lat="45.21265582230545" lon="9.400560661348177"><ele>71.0</ele><time>2026-04-11T09:55:03.001Z</time></trkpt><trkpt lat="45.21269334323952" lon="9.40068157262076"><ele>71.0</ele><time>2026-04-11T09:55:04.001Z</time></trkpt><trkpt lat="45.212720379066525" lon="9.400821729792805"><ele>71.0</ele><time>2026-04-11T09:55:05.001Z</time></trkpt><trkpt lat="45.21273603784208" lon="9.40097199883906"><ele>71.0</ele><time>2026-04-11T09:55:06.001Z</time></trkpt><trkpt lat="45.212746062134045" lon="9.401124966817163"><ele>71.0</ele><time>2026-04-11T09:55:07.001Z</time></trkpt><trkpt lat="45.212763725934025" lon="9.401283769414343"><ele>71.0</ele><time>2026-04-11T09:55:08.001Z</time></trkpt><trkpt lat="45.21278216652022" lon="9.401444142916151"><ele>71.0</ele><time>2026-04-11T09:55:09.001Z</time></trkpt><trkpt lat="45.21279885192809" lon="9.401588995043562"><ele>71.0</ele><time>2026-04-11T09:55:10.001Z</time></trkpt><trkpt lat="45.21281503738379" lon="9.401730718509397"><ele>71.0</ele><time>2026-04-11T09:55:11.001Z</time></trkpt><trkpt lat="45.21282873256549" lon="9.40185993868144"><ele>71.0</ele><time>2026-04-11T09:55:12.001Z</time></trkpt><trkpt lat="45.212843822593996" lon="9.401972550989855"><ele>71.0</ele><time>2026-04-11T09:55:13.001Z</time></trkpt><trkpt lat="45.212855911300146" lon="9.402075481517004"><ele>71.0</ele><time>2026-04-11T09:55:14.001Z</time></trkpt><trkpt lat="45.21287375945846" lon="9.402205018691875"><ele>71.0</ele><time>2026-04-11T09:55:16.001Z</time></trkpt><trkpt lat="45.212860053347356" lon="9.402305285964243"><ele>71.33333333333334</ele><time>2026-04-11T09:55:21Z</time></trkpt><trkpt lat="45.21275856895484" lon="9.402325871715846"><ele>71.66666666666667</ele><time>2026-04-11T09:55:23Z</time></trkpt><trkpt lat="45.21268433818665" lon="9.402311374873857"><ele>72.0</ele><time>2026-04-11T09:55:24Z</time></trkpt><trkpt lat="45.21261162761175" lon="9.402320564604926"><ele>72.33333333333333</ele><time>2026-04-11T09:55:25Z</time></trkpt><trkpt lat="45.21252850818071" lon="9.402333937722219"><ele>72.66666666666666</ele><time>2026-04-11T09:55:26Z</time></trkpt><trkpt lat="45.21244188850847" lon="9.402347021314442"><ele>73.0</ele><time>2026-04-11T09:55:27Z</time></trkpt><trkpt lat="45.212343422790354" lon="9.402361452663374"><ele>73.25</ele><time>2026-04-11T09:55:28Z</time></trkpt><trkpt lat="45.21222474832047" lon="9.402378576368136"><ele>73.5</ele><time>2026-04-11T09:55:29Z</time></trkpt><trkpt lat="45.21210181020418" lon="9.402395969556556"><ele>73.75</ele><time>2026-04-11T09:55:30Z</time></trkpt><trkpt lat="45.211973090959816" lon="9.402408639304214"><ele>74.0</ele><time>2026-04-11T09:55:31Z</time></trkpt><trkpt lat="45.211846698186285" lon="9.402421846135244"><ele>74.0</ele><time>2026-04-11T09:55:32Z</time></trkpt><trkpt lat="45.211725109881094" lon="9.402439962717445"><ele>74.0</ele><time>2026-04-11T09:55:33Z</time></trkpt><trkpt lat="45.211598528831914" lon="9.402453266147212"><ele>74.0</ele><time>2026-04-11T09:55:34Z</time></trkpt><trkpt lat="45.21148213827854" lon="9.402467740832138"><ele>74.0</ele><time>2026-04-11T09:55:35Z</time></trkpt><trkpt lat="45.211376525778256" lon="9.40248111239896"><ele>74.16666666666667</ele><time>2026-04-11T09:55:36Z</time></trkpt><trkpt lat="45.21128401195299" lon="9.402491575793647"><ele>74.33333333333334</ele><time>2026-04-11T09:55:37Z</time></trkpt><trkpt lat="45.21119841171788" lon="9.402496698412019"><ele>74.5</ele><time>2026-04-11T09:55:38Z</time></trkpt><trkpt lat="45.21113270977231" lon="9.40250334986114"><ele>74.66666666666667</ele><time>2026-04-11T09:55:39Z</time></trkpt><trkpt lat="45.211044071706745" lon="9.40253874998739"><ele>74.83333333333333</ele><time>2026-04-11T09:55:41Z</time></trkpt><trkpt lat="45.21101917129131" lon="9.402646772214021"><ele>75.0</ele><time>2026-04-11T09:55:43Z</time></trkpt><trkpt lat="45.21102948298548" lon="9.402736160051633"><ele>75.0</ele><time>2026-04-11T09:55:44Z</time></trkpt><trkpt lat="45.21104432484622" lon="9.402863030514679"><ele>75.0</ele><time>2026-04-11T09:55:45Z</time></trkpt><trkpt lat="45.2110612491111" lon="9.403008741936773"><ele>75.0</ele><time>2026-04-11T09:55:46Z</time></trkpt><trkpt lat="45.21106989737882" lon="9.403159575369823"><ele>75.0</ele><time>2026-04-11T09:55:47Z</time></trkpt><trkpt lat="45.21107818117175" lon="9.40328725749069"><ele>75.0</ele><time>2026-04-11T09:55:48Z</time></trkpt><trkpt lat="45.2110782395414" lon="9.40340570715399"><ele>74.66666666666667</ele><time>2026-04-11T09:55:50Z</time></trkpt><trkpt lat="45.21102067500768" lon="9.40344380603095"><ele>74.33333333333333</ele><time>2026-04-11T09:55:53Z</time></trkpt><trkpt lat="45.21094689390676" lon="9.403466269957319"><ele>74.0</ele><time>2026-04-11T09:56:02Z</time></trkpt><trkpt lat="45.2109290176174" lon="9.403553208468475"><ele>73.66666666666666</ele><time>2026-04-11T09:56:04Z</time></trkpt><trkpt lat="45.210956214656065" lon="9.403750082890523"><ele>73.33333333333333</ele><time>2026-04-11T09:56:06Z</time></trkpt><trkpt lat="45.21097055976064" lon="9.403862056686458"><ele>73.0</ele><time>2026-04-11T09:56:07Z</time></trkpt><trkpt lat="45.2109781253757" lon="9.403979082378482"><ele>73.0</ele><time>2026-04-11T09:56:08Z</time></trkpt><trkpt lat="45.210985138565924" lon="9.404108527561867"><ele>73.0</ele><time>2026-04-11T09:56:09Z</time></trkpt><trkpt lat="45.210990660101466" lon="9.40423861170781"><ele>73.0</ele><time>2026-04-11T09:56:10Z</time></trkpt><trkpt lat="45.210997516846426" lon="9.404369181942506"><ele>73.0</ele><time>2026-04-11T09:56:11Z</time></trkpt><trkpt lat="45.21100441236629" lon="9.404498112752963"><ele>73.0</ele><time>2026-04-11T09:56:12Z</time></trkpt><trkpt lat="45.21101013934063" lon="9.404619406158755"><ele>73.5</ele><time>2026-04-11T09:56:13Z</time></trkpt><trkpt lat="45.211016030336985" lon="9.404731223903052"><ele>74.0</ele><time>2026-04-11T09:56:14Z</time></trkpt><trkpt lat="45.21102328241078" lon="9.404839404527676"><ele>74.5</ele><time>2026-04-11T09:56:15Z</time></trkpt><trkpt lat="45.21102901036922" lon="9.404952798839737"><ele>75.0</ele><time>2026-04-11T09:56:16Z</time></trkpt><trkpt lat="45.21103405838727" lon="9.405047643039614"><ele>75.5</ele><time>2026-04-11T09:56:17Z</time></trkpt><trkpt lat="45.21104318209982" lon="9.405193291010837"><ele>76.0</ele><time>2026-04-11T09:56:19Z</time></trkpt><trkpt lat="45.21105143531551" lon="9.405356654284402"><ele>76.0</ele><time>2026-04-11T09:56:21Z</time></trkpt><trkpt lat="45.211057539206394" lon="9.4054651011379"><ele>76.0</ele><time>2026-04-11T09:56:22Z</time></trkpt><trkpt lat="45.211064580526845" lon="9.405595146288109"><ele>76.0</ele><time>2026-04-11T09:56:23Z</time></trkpt><trkpt lat="45.21107175470652" lon="9.405724004782346"><ele>76.0</ele><time>2026-04-11T09:56:24Z</time></trkpt><trkpt lat="45.21107967359995" lon="9.40583641811321"><ele>76.0</ele><time>2026-04-11T09:56:25Z</time></trkpt><trkpt lat="45.211087361018684" lon="9.405956808775715"><ele>76.0</ele><time>2026-04-11T09:56:26Z</time></trkpt><trkpt lat="45.21109086775547" lon="9.406088678117474"><ele>75.83333333333333</ele><time>2026-04-11T09:56:27Z</time></trkpt><trkpt lat="45.21109669996512" lon="9.406221894269047"><ele>75.66666666666666</ele><time>2026-04-11T09:56:28Z</time></trkpt><trkpt lat="45.211106372355154" lon="9.4063500220511"><ele>75.5</ele><time>2026-04-11T09:56:29Z</time></trkpt><trkpt lat="45.21111450294138" lon="9.406453944550572"><ele>75.33333333333333</ele><time>2026-04-11T09:56:30Z</time></trkpt><trkpt lat="45.211117217873934" lon="9.406543965542909"><ele>75.16666666666667</ele><time>2026-04-11T09:56:31Z</time></trkpt><trkpt lat="45.21112031421993" lon="9.406646881126143"><ele>75.0</ele><time>2026-04-11T09:56:32Z</time></trkpt><trkpt lat="45.21112388910819" lon="9.406739665219147"><ele>74.83333333333333</ele><time>2026-04-11T09:56:33Z</time></trkpt><trkpt lat="45.21112815363097" lon="9.406854561453791"><ele>74.66666666666667</ele><time>2026-04-11T09:56:35Z</time></trkpt><trkpt lat="45.211131698593434" lon="9.40694584190821"><ele>74.5</ele><time>2026-04-11T09:56:37Z</time></trkpt><trkpt lat="45.211141240857806" lon="9.40705904038136"><ele>74.33333333333334</ele><time>2026-04-11T09:56:39Z</time></trkpt><trkpt lat="45.21115338550747" lon="9.40720722333273"><ele>74.16666666666667</ele><time>2026-04-11T09:56:41Z</time></trkpt><trkpt lat="45.21116155265746" lon="9.407366833926128"><ele>74.0</ele><time>2026-04-11T09:56:43Z</time></trkpt><trkpt lat="45.21116734965618" lon="9.407467689682287"><ele>74.0</ele><time>2026-04-11T09:56:44Z</time></trkpt><trkpt lat="45.21117130293746" lon="9.407576842932603"><ele>74.0</ele><time>2026-04-11T09:56:45Z</time></trkpt><trkpt lat="45.21117720140657" lon="9.407672471862721"><ele>74.0</ele><time>2026-04-11T09:56:46Z</time></trkpt><trkpt lat="45.21118600171808" lon="9.407820237973008"><ele>74.0</ele><time>2026-04-11T09:56:48Z</time></trkpt><trkpt lat="45.21119563234781" lon="9.407979678510557"><ele>74.0</ele><time>2026-04-11T09:56:50Z</time></trkpt><trkpt lat="45.211203469553276" lon="9.408150163780864"><ele>74.2</ele><time>2026-04-11T09:56:52Z</time></trkpt><trkpt lat="45.21120701915636" lon="9.408303895585929"><ele>74.4</ele><time>2026-04-11T09:56:54Z</time></trkpt><trkpt lat="45.211211309682795" lon="9.408425515318061"><ele>74.6</ele><time>2026-04-11T09:56:56Z</time></trkpt><trkpt lat="45.21123035263892" lon="9.40852951508072"><ele>74.8</ele><time>2026-04-11T09:56:58Z</time></trkpt><trkpt lat="45.21125255074823" lon="9.408649753852215"><ele>75.0</ele><time>2026-04-11T09:57:05Z</time></trkpt><trkpt lat="45.21126109352963" lon="9.408831541850306"><ele>75.2</ele><time>2026-04-11T09:57:07Z</time></trkpt><trkpt lat="45.21125949831173" lon="9.408943545186862"><ele>75.4</ele><time>2026-04-11T09:57:08Z</time></trkpt><trkpt lat="45.2112632672806" lon="9.409073332250024"><ele>75.6</ele><time>2026-04-11T09:57:09Z</time></trkpt><trkpt lat="45.211271205885616" lon="9.409214321716126"><ele>75.8</ele><time>2026-04-11T09:57:10Z</time></trkpt><trkpt lat="45.21127982919963" lon="9.409360090126528"><ele>76.0</ele><time>2026-04-11T09:57:11Z</time></trkpt><trkpt lat="45.21128931866371" lon="9.40951870174076"><ele>76.0</ele><time>2026-04-11T09:57:12Z</time></trkpt><trkpt lat="45.21129862787859" lon="9.409688470796171"><ele>76.0</ele><time>2026-04-11T09:57:13Z</time></trkpt><trkpt lat="45.21130628740018" lon="9.409852604151213"><ele>76.0</ele><time>2026-04-11T09:57:14Z</time></trkpt><trkpt lat="45.21131367793668" lon="9.410021947903953"><ele>76.0</ele><time>2026-04-11T09:57:15Z</time></trkpt><trkpt lat="45.211322432234766" lon="9.4101922618294"><ele>76.0</ele><time>2026-04-11T09:57:16Z</time></trkpt><trkpt lat="45.211329616354476" lon="9.410354650041057"><ele>76.0</ele><time>2026-04-11T09:57:17Z</time></trkpt><trkpt lat="45.21134261054325" lon="9.410520322487292"><ele>76.0</ele><time>2026-04-11T09:57:18Z</time></trkpt><trkpt lat="45.21135208041089" lon="9.410686543953974"><ele>76.0</ele><time>2026-04-11T09:57:19Z</time></trkpt><trkpt lat="45.21135695079669" lon="9.410843194789992"><ele>76.0</ele><time>2026-04-11T09:57:20Z</time></trkpt><trkpt lat="45.2113619437785" lon="9.410981903908777"><ele>76.0</ele><time>2026-04-11T09:57:21Z</time></trkpt><trkpt lat="45.211368396289544" lon="9.411112320819337"><ele>76.0</ele><time>2026-04-11T09:57:22Z</time></trkpt><trkpt lat="45.21137631791679" lon="9.411251330739809"><ele>76.0</ele><time>2026-04-11T09:57:23Z</time></trkpt><trkpt lat="45.21138295320106" lon="9.411379355078958"><ele>76.0</ele><time>2026-04-11T09:57:24Z</time></trkpt><trkpt lat="45.21138607102875" lon="9.411498252696692"><ele>76.0</ele><time>2026-04-11T09:57:25Z</time></trkpt><trkpt lat="45.2113895596315" lon="9.411612310844687"><ele>76.0</ele><time>2026-04-11T09:57:26Z</time></trkpt><trkpt lat="45.21139315938475" lon="9.411716191977124"><ele>76.0</ele><time>2026-04-11T09:57:27Z</time></trkpt><trkpt lat="45.211396476205714" lon="9.41180609255697"><ele>76.0</ele><time>2026-04-11T09:57:28Z</time></trkpt><trkpt lat="45.21140281635921" lon="9.411903825277578"><ele>76.0</ele><time>2026-04-11T09:57:30Z</time></trkpt><trkpt lat="45.21140609640923" lon="9.412048588986782"><ele>76.0</ele><time>2026-04-11T09:57:43Z</time></trkpt><trkpt lat="45.2113986731464" lon="9.41216834801524"><ele>76.0</ele><time>2026-04-11T09:57:45Z</time></trkpt><trkpt lat="45.21139674200684" lon="9.412338187330553"><ele>76.0</ele><time>2026-04-11T09:57:47Z</time></trkpt><trkpt lat="45.21139621792867" lon="9.412457193038723"><ele>76.0</ele><time>2026-04-11T09:57:48Z</time></trkpt><trkpt lat="45.21139775311792" lon="9.412608675703408"><ele>76.0</ele><time>2026-04-11T09:57:49Z</time></trkpt><trkpt lat="45.21139788093466" lon="9.41276644423722"><ele>76.0</ele><time>2026-04-11T09:57:50Z</time></trkpt><trkpt lat="45.21139843656262" lon="9.412913533631178"><ele>76.0</ele><time>2026-04-11T09:57:51Z</time></trkpt><trkpt lat="45.211397787074574" lon="9.413054021098267"><ele>76.0</ele><time>2026-04-11T09:57:52Z</time></trkpt><trkpt lat="45.21139594048793" lon="9.41317975629701"><ele>76.0</ele><time>2026-04-11T09:57:53Z</time></trkpt><trkpt lat="45.211393860794146" lon="9.41329745300858"><ele>76.0</ele><time>2026-04-11T09:57:54Z</time></trkpt><trkpt lat="45.211390279532026" lon="9.413409351607967"><ele>76.0</ele><time>2026-04-11T09:57:55Z</time></trkpt><trkpt lat="45.211386049993415" lon="9.413527028693823"><ele>76.0</ele><time>2026-04-11T09:57:56Z</time></trkpt><trkpt lat="45.21138161101569" lon="9.413638796677684"><ele>76.0</ele><time>2026-04-11T09:57:57Z</time></trkpt><trkpt lat="45.2113810356779" lon="9.41374260542746"><ele>76.0</ele><time>2026-04-11T09:57:58Z</time></trkpt><trkpt lat="45.21137833118821" lon="9.413852032674164"><ele>76.0</ele><time>2026-04-11T09:57:59Z</time></trkpt><trkpt lat="45.21137467851443" lon="9.41395980200412"><ele>76.0</ele><time>2026-04-11T09:58:00Z</time></trkpt><trkpt lat="45.211371166120166" lon="9.414066138421129"><ele>76.0</ele><time>2026-04-11T09:58:01Z</time></trkpt><trkpt lat="45.21136520486037" lon="9.41417263590393"><ele>76.0</ele><time>2026-04-11T09:58:02Z</time></trkpt><trkpt lat="45.21135940977694" lon="9.414275950791568"><ele>76.0</ele><time>2026-04-11T09:58:03Z</time></trkpt><trkpt lat="45.211351515570534" lon="9.414389963380655"><ele>76.0</ele><time>2026-04-11T09:58:04Z</time></trkpt><trkpt lat="45.211348233419145" lon="9.414501812917278"><ele>76.0</ele><time>2026-04-11T09:58:05Z</time></trkpt><trkpt lat="45.211352585978325" lon="9.414627583390992"><ele>76.0</ele><time>2026-04-11T09:58:06Z</time></trkpt><trkpt lat="45.21135345085042" lon="9.414757620548265"><ele>76.0</ele><time>2026-04-11T09:58:07Z</time></trkpt><trkpt lat="45.21135064839037" lon="9.414895167715855"><ele>76.0</ele><time>2026-04-11T09:58:08Z</time></trkpt><trkpt lat="45.21134925380165" lon="9.415024075466057"><ele>76.0</ele><time>2026-04-11T09:58:09Z</time></trkpt><trkpt lat="45.21134939722784" lon="9.415154424881043"><ele>76.0</ele><time>2026-04-11T09:58:10Z</time></trkpt><trkpt lat="45.211349193972445" lon="9.415297398461224"><ele>76.0</ele><time>2026-04-11T09:58:11Z</time></trkpt><trkpt lat="45.211348439704516" lon="9.415441676732385"><ele>76.0</ele><time>2026-04-11T09:58:12Z</time></trkpt><trkpt lat="45.21134406736183" lon="9.415587359553905"><ele>76.0</ele><time>2026-04-11T09:58:13Z</time></trkpt><trkpt lat="45.211341175458266" lon="9.415727462698808"><ele>76.0</ele><time>2026-04-11T09:58:14Z</time></trkpt><trkpt lat="45.21133936754922" lon="9.4158526745786"><ele>76.0</ele><time>2026-04-11T09:58:15Z</time></trkpt><trkpt lat="45.21133775589543" lon="9.41597234199743"><ele>76.0</ele><time>2026-04-11T09:58:16Z</time></trkpt><trkpt lat="45.211335626433865" lon="9.41606883455828"><ele>76.0</ele><time>2026-04-11T09:58:17Z</time></trkpt><trkpt lat="45.211332167188594" lon="9.416219141877761"><ele>76.0</ele><time>2026-04-11T09:58:19Z</time></trkpt><trkpt lat="45.21126276208559" lon="9.41629361785641"><ele>76.0</ele><time>2026-04-11T09:58:22Z</time></trkpt><trkpt lat="45.211154618323704" lon="9.416287932202836"><ele>76.0</ele><time>2026-04-11T09:58:24Z</time></trkpt><trkpt lat="45.211028228378524" lon="9.416294282034317"><ele>76.0</ele><time>2026-04-11T09:58:26Z</time></trkpt><trkpt lat="45.21096326813274" lon="9.416299247674235"><ele>76.0</ele><time>2026-04-11T09:58:27Z</time></trkpt><trkpt lat="45.21085553574655" lon="9.4163046286415"><ele>76.0</ele><time>2026-04-11T09:58:29Z</time></trkpt><trkpt lat="45.21078625994585" lon="9.416353278681198"><ele>76.0</ele><time>2026-04-11T09:58:31Z</time></trkpt><trkpt lat="45.21076983727421" lon="9.416453594655907"><ele>76.0</ele><time>2026-04-11T09:58:33Z</time></trkpt><trkpt lat="45.21078864746896" lon="9.416642149996976"><ele>76.14285714285714</ele><time>2026-04-11T09:58:35Z</time></trkpt><trkpt lat="45.21079595443072" lon="9.416746928754034"><ele>76.28571428571429</ele><time>2026-04-11T09:58:36Z</time></trkpt><trkpt lat="45.210795404305216" lon="9.41686047064071"><ele>76.42857142857143</ele><time>2026-04-11T09:58:37Z</time></trkpt><trkpt lat="45.21079728210735" lon="9.416961173510856"><ele>76.57142857142857</ele><time>2026-04-11T09:58:38Z</time></trkpt><trkpt lat="45.21079848899492" lon="9.4170529259014"><ele>76.71428571428572</ele><time>2026-04-11T09:58:39Z</time></trkpt><trkpt lat="45.21079718712986" lon="9.417147118563603"><ele>76.85714285714286</ele><time>2026-04-11T09:58:40Z</time></trkpt><trkpt lat="45.21079594837146" lon="9.417241168076446"><ele>77.0</ele><time>2026-04-11T09:58:41Z</time></trkpt><trkpt lat="45.21079458877688" lon="9.417334001316862"><ele>77.0</ele><time>2026-04-11T09:58:42Z</time></trkpt><trkpt lat="45.21079290130296" lon="9.417498441884442"><ele>77.0</ele><time>2026-04-11T09:58:44Z</time></trkpt><trkpt lat="45.210800627159394" lon="9.417650579087061"><ele>77.0</ele><time>2026-04-11T09:58:46Z</time></trkpt><trkpt lat="45.21080738843189" lon="9.417784200824476"><ele>77.0</ele><time>2026-04-11T09:58:48Z</time></trkpt><trkpt lat="45.2108171282636" lon="9.417931323461458"><ele>77.0</ele><time>2026-04-11T09:58:50Z</time></trkpt><trkpt lat="45.2108229472252" lon="9.418083684315915"><ele>76.83333333333334</ele><time>2026-04-11T09:58:52Z</time></trkpt><trkpt lat="45.210819688054315" lon="9.418227908773453"><ele>76.66666666666667</ele><time>2026-04-11T09:58:54Z</time></trkpt><trkpt lat="45.210802772444865" lon="9.418356045652564"><ele>76.5</ele><time>2026-04-11T09:58:56Z</time></trkpt><trkpt lat="45.21076694084486" lon="9.418431317548007"><ele>76.33333333333333</ele><time>2026-04-11T09:58:58Z</time></trkpt><trkpt lat="45.21069931445702" lon="9.418463964621127"><ele>76.16666666666666</ele><time>2026-04-11T09:59:00Z</time></trkpt><trkpt lat="45.2105808752524" lon="9.418476145565553"><ele>76.0</ele><time>2026-04-11T09:59:02Z</time></trkpt><trkpt lat="45.21051411837386" lon="9.418470479810495"><ele>76.0</ele><time>2026-04-11T09:59:03Z</time></trkpt><trkpt lat="45.21044113693882" lon="9.418456574290786"><ele>76.0</ele><time>2026-04-11T09:59:04Z</time></trkpt><trkpt lat="45.21036213103058" lon="9.418441773778664"><ele>76.0</ele><time>2026-04-11T09:59:05Z</time></trkpt><trkpt lat="45.2102922535522" lon="9.418434944818028"><ele>76.0</ele><time>2026-04-11T09:59:06Z</time></trkpt><trkpt lat="45.21019746719043" lon="9.41842682923069"><ele>76.0</ele><time>2026-04-11T09:59:08Z</time></trkpt><trkpt lat="45.210116552137755" lon="9.418419893135656"><ele>76.0</ele><time>2026-04-11T09:59:12Z</time></trkpt><trkpt lat="45.210035165041795" lon="9.41841403656316"><ele>76.0</ele><time>2026-04-11T09:59:15Z</time></trkpt><trkpt lat="45.209923010068785" lon="9.418393308904607"><ele>76.0</ele><time>2026-04-11T09:59:17Z</time></trkpt><trkpt lat="45.20985527152065" lon="9.41838333334382"><ele>76.0</ele><time>2026-04-11T09:59:18Z</time></trkpt><trkpt lat="45.20977014906634" lon="9.418374745133322"><ele>76.0</ele><time>2026-04-11T09:59:19Z</time></trkpt><trkpt lat="45.209676534376825" lon="9.418364635628066"><ele>76.0</ele><time>2026-04-11T09:59:20Z</time></trkpt><trkpt lat="45.20957650995425" lon="9.4183534581047"><ele>76.2</ele><time>2026-04-11T09:59:21Z</time></trkpt><trkpt lat="45.20947507183396" lon="9.418332924363007"><ele>76.39999999999999</ele><time>2026-04-11T09:59:22Z</time></trkpt><trkpt lat="45.20937455558892" lon="9.418315101265359"><ele>76.6</ele><time>2026-04-11T09:59:23Z</time></trkpt><trkpt lat="45.20927883116063" lon="9.418310550777731"><ele>76.8</ele><time>2026-04-11T09:59:24Z</time></trkpt><trkpt lat="45.209188681801535" lon="9.418308487451968"><ele>77.0</ele><time>2026-04-11T09:59:25Z</time></trkpt><trkpt lat="45.209110798999056" lon="9.418305119652958"><ele>77.0</ele><time>2026-04-11T09:59:26Z</time></trkpt><trkpt lat="45.20904436088521" lon="9.418302405969275"><ele>77.0</ele><time>2026-04-11T09:59:27Z</time></trkpt><trkpt lat="45.2089444253212" lon="9.41829759229948"><ele>77.0</ele><time>2026-04-11T09:59:29Z</time></trkpt><trkpt lat="45.20886645524113" lon="9.418319006975452"><ele>77.0</ele><time>2026-04-11T09:59:31Z</time></trkpt><trkpt lat="45.20881648601576" lon="9.41841452536419"><ele>77.0</ele><time>2026-04-11T09:59:41.001Z</time></trkpt><trkpt lat="45.20880438265844" lon="9.418555448812945"><ele>77.0</ele><time>2026-04-11T09:59:43.001Z</time></trkpt><trkpt lat="45.20880348308916" lon="9.41864696170054"><ele>77.2</ele><time>2026-04-11T09:59:44Z</time></trkpt><trkpt lat="45.20880965424873" lon="9.418747246396224"><ele>77.4</ele><time>2026-04-11T09:59:45Z</time></trkpt><trkpt lat="45.20880329423024" lon="9.418879100228072"><ele>77.6</ele><time>2026-04-11T09:59:46Z</time></trkpt><trkpt lat="45.20880579557658" lon="9.419028853929719"><ele>77.8</ele><time>2026-04-11T09:59:47Z</time></trkpt><trkpt lat="45.208805201510856" lon="9.419190053110247"><ele>78.0</ele><time>2026-04-11T09:59:48Z</time></trkpt><trkpt lat="45.20881000954141" lon="9.419350012708058"><ele>78.0</ele><time>2026-04-11T09:59:49Z</time></trkpt><trkpt lat="45.2088057347496" lon="9.41952620162875"><ele>78.0</ele><time>2026-04-11T09:59:50Z</time></trkpt><trkpt lat="45.20880907183527" lon="9.419711117734398"><ele>78.0</ele><time>2026-04-11T09:59:51Z</time></trkpt><trkpt lat="45.208810629375" lon="9.419901538700875"><ele>78.0</ele><time>2026-04-11T09:59:52Z</time></trkpt><trkpt lat="45.20881173176703" lon="9.420078042167084"><ele>77.5</ele><time>2026-04-11T09:59:53Z</time></trkpt><trkpt lat="45.20881220228225" lon="9.420240526571154"><ele>77.0</ele><time>2026-04-11T09:59:54Z</time></trkpt><trkpt lat="45.208814207802504" lon="9.420409442204997"><ele>76.5</ele><time>2026-04-11T09:59:55Z</time></trkpt><trkpt lat="45.20881685298417" lon="9.420575579031633"><ele>76.0</ele><time>2026-04-11T09:59:56Z</time></trkpt><trkpt lat="45.20880988539484" lon="9.420732951183298"><ele>75.8</ele><time>2026-04-11T09:59:57Z</time></trkpt><trkpt lat="45.20881285724086" lon="9.42086732029338"><ele>75.6</ele><time>2026-04-11T09:59:58Z</time></trkpt><trkpt lat="45.20881545697695" lon="9.42098656263441"><ele>75.4</ele><time>2026-04-11T09:59:59Z</time></trkpt><trkpt lat="45.20879625487851" lon="9.421147456375524"><ele>75.2</ele><time>2026-04-11T10:00:01Z</time></trkpt><trkpt lat="45.20880431534144" lon="9.421264191067102"><ele>75.0</ele><time>2026-04-11T10:00:03Z</time></trkpt><trkpt lat="45.20868647702906" lon="9.421263354334796"><ele>75.0</ele><time>2026-04-11T10:00:07Z</time></trkpt><trkpt lat="45.20856133709841" lon="9.421243774639883"><ele>75.0</ele><time>2026-04-11T10:00:09Z</time></trkpt><trkpt lat="45.20848907055619" lon="9.421229118926234"><ele>75.0</ele><time>2026-04-11T10:00:10Z</time></trkpt><trkpt lat="45.20840636407194" lon="9.421218124961714"><ele>75.0</ele><time>2026-04-11T10:00:11Z</time></trkpt><trkpt lat="45.208314141128284" lon="9.42120543824302"><ele>75.0</ele><time>2026-04-11T10:00:12Z</time></trkpt><trkpt lat="45.20822167852253" lon="9.421183553042637"><ele>75.75</ele><time>2026-04-11T10:00:13Z</time></trkpt><trkpt lat="45.20811695150406" lon="9.421154921089272"><ele>76.5</ele><time>2026-04-11T10:00:14Z</time></trkpt><trkpt lat="45.208000531963194" lon="9.421128566403043"><ele>77.25</ele><time>2026-04-11T10:00:15Z</time></trkpt><trkpt lat="45.20788055700667" lon="9.421102246026871"><ele>78.0</ele><time>2026-04-11T10:00:16Z</time></trkpt><trkpt lat="45.20775346445363" lon="9.421073085614134"><ele>78.0</ele><time>2026-04-11T10:00:17Z</time></trkpt><trkpt lat="45.2076229227066" lon="9.421044806517761"><ele>78.0</ele><time>2026-04-11T10:00:18Z</time></trkpt><trkpt lat="45.20748227704444" lon="9.421013948017423"><ele>78.0</ele><time>2026-04-11T10:00:19Z</time></trkpt><trkpt lat="45.20733557717138" lon="9.420985118537686"><ele>78.0</ele><time>2026-04-11T10:00:20Z</time></trkpt><trkpt lat="45.20718234448341" lon="9.420952102948391"><ele>78.66666666666667</ele><time>2026-04-11T10:00:21Z</time></trkpt><trkpt lat="45.20702667979647" lon="9.420925331774052"><ele>79.33333333333334</ele><time>2026-04-11T10:00:22Z</time></trkpt><trkpt lat="45.20686771997962" lon="9.42089053531389"><ele>80.0</ele><time>2026-04-11T10:00:23Z</time></trkpt><trkpt lat="45.20670196614853" lon="9.420857963113578"><ele>80.0</ele><time>2026-04-11T10:00:24Z</time></trkpt><trkpt lat="45.206536033480575" lon="9.420821410373627"><ele>80.0</ele><time>2026-04-11T10:00:25Z</time></trkpt><trkpt lat="45.20637042945646" lon="9.420788205222783"><ele>80.0</ele><time>2026-04-11T10:00:25.999Z</time></trkpt><trkpt lat="45.2062019274549" lon="9.420756669690228"><ele>80.66666666666667</ele><time>2026-04-11T10:00:26.999Z</time></trkpt><trkpt lat="45.206038769109654" lon="9.420722194999604"><ele>81.33333333333333</ele><time>2026-04-11T10:00:27.999Z</time></trkpt><trkpt lat="45.205876844973666" lon="9.420696640256347"><ele>82.0</ele><time>2026-04-11T10:00:28.999Z</time></trkpt><trkpt lat="45.20573140813945" lon="9.420664704965333"><ele>82.0</ele><time>2026-04-11T10:00:29.999Z</time></trkpt><trkpt lat="45.205581040732525" lon="9.420636657448773"><ele>82.0</ele><time>2026-04-11T10:00:30.999Z</time></trkpt><trkpt lat="45.20542934858933" lon="9.420601316589122"><ele>82.0</ele><time>2026-04-11T10:00:31.999Z</time></trkpt><trkpt lat="45.20526172258543" lon="9.420565436724887"><ele>82.0</ele><time>2026-04-11T10:00:32.999Z</time></trkpt><trkpt lat="45.20509471639733" lon="9.420529376647478"><ele>82.0</ele><time>2026-04-11T10:00:33.999Z</time></trkpt><trkpt lat="45.20492433814805" lon="9.420493768306745"><ele>82.0</ele><time>2026-04-11T10:00:34.999Z</time></trkpt><trkpt lat="45.2047490787753" lon="9.42045645549782"><ele>81.33333333333333</ele><time>2026-04-11T10:00:35.999Z</time></trkpt><trkpt lat="45.204571865707116" lon="9.420424382838608"><ele>80.66666666666667</ele><time>2026-04-11T10:00:36.999Z</time></trkpt><trkpt lat="45.2043954146691" lon="9.42038879073425"><ele>80.0</ele><time>2026-04-11T10:00:37.999Z</time></trkpt><trkpt lat="45.20422789024692" lon="9.42035355836415"><ele>80.0</ele><time>2026-04-11T10:00:38.999Z</time></trkpt><trkpt lat="45.204073311818085" lon="9.420324816434414"><ele>80.0</ele><time>2026-04-11T10:00:40Z</time></trkpt><trkpt lat="45.20378771002285" lon="9.420300119950568"><ele>80.0</ele><time>2026-04-11T10:00:42Z</time></trkpt><trkpt lat="45.2036404342995" lon="9.420391636861908"><ele>81.0</ele><time>2026-04-11T10:00:43Z</time></trkpt><trkpt lat="45.20345755146145" lon="9.420503118354828"><ele>82.0</ele><time>2026-04-11T10:00:44Z</time></trkpt><trkpt lat="45.203255562371226" lon="9.42063160156128"><ele>83.0</ele><time>2026-04-11T10:00:45Z</time></trkpt><trkpt lat="45.20307842035751" lon="9.420748268439675"><ele>83.33333333333334</ele><time>2026-04-11T10:00:46Z</time></trkpt><trkpt lat="45.202910118839405" lon="9.420854160069005"><ele>83.66666666666667</ele><time>2026-04-11T10:00:47Z</time></trkpt><trkpt lat="45.202757404231356" lon="9.420948702809323"><ele>84.0</ele><time>2026-04-11T10:00:48Z</time></trkpt><trkpt lat="45.202608372129006" lon="9.421040901941133"><ele>84.0</ele><time>2026-04-11T10:00:49Z</time></trkpt><trkpt lat="45.20245637496704" lon="9.42113546164106"><ele>84.0</ele><time>2026-04-11T10:00:50Z</time></trkpt><trkpt lat="45.20230243129004" lon="9.421230203915187"><ele>84.0</ele><time>2026-04-11T10:00:51Z</time></trkpt><trkpt lat="45.202165135818795" lon="9.421315986749935"><ele>85.0</ele><time>2026-04-11T10:00:52Z</time></trkpt><trkpt lat="45.20203847096637" lon="9.421395955322058"><ele>86.0</ele><time>2026-04-11T10:00:53Z</time></trkpt><trkpt lat="45.2019272333569" lon="9.421465735839874"><ele>87.0</ele><time>2026-04-11T10:00:54Z</time></trkpt><trkpt lat="45.20183050454466" lon="9.421524884706779"><ele>88.0</ele><time>2026-04-11T10:00:55Z</time></trkpt><trkpt lat="45.201750577774774" lon="9.421579186831117"><ele>88.0</ele><time>2026-04-11T10:00:56Z</time></trkpt><trkpt lat="45.20169021923555" lon="9.421625758135702"><ele>88.0</ele><time>2026-04-11T10:00:57Z</time></trkpt><trkpt lat="45.20161131179459" lon="9.421643119141207"><ele>88.0</ele><time>2026-04-11T10:00:59Z</time></trkpt><trkpt lat="45.20154466710188" lon="9.421606182991288"><ele>88.0</ele><time>2026-04-11T10:01:01Z</time></trkpt><trkpt lat="45.20150131564911" lon="9.421510061597097"><ele>88.0</ele><time>2026-04-11T10:01:02Z</time></trkpt><trkpt lat="45.20142994371663" lon="9.42141109980095"><ele>88.0</ele><time>2026-04-11T10:01:03Z</time></trkpt><trkpt lat="45.201357156217696" lon="9.421281982395879"><ele>88.4</ele><time>2026-04-11T10:01:04Z</time></trkpt><trkpt lat="45.20128877341031" lon="9.421149966448786"><ele>88.80000000000001</ele><time>2026-04-11T10:01:05Z</time></trkpt><trkpt lat="45.20123511899973" lon="9.421044591700799"><ele>89.2</ele><time>2026-04-11T10:01:06Z</time></trkpt><trkpt lat="45.201191587854055" lon="9.420973558655897"><ele>89.6</ele><time>2026-04-11T10:01:07Z</time></trkpt><trkpt lat="45.20116048917237" lon="9.420894596087576"><ele>90.0</ele><time>2026-04-11T10:01:11Z</time></trkpt><trkpt lat="45.20104170101467" lon="9.42098150701683"><ele>90.0</ele><time>2026-04-11T10:01:13Z</time></trkpt><trkpt lat="45.20097511552685" lon="9.421026182138217"><ele>90.0</ele><time>2026-04-11T10:01:17Z</time></trkpt><trkpt lat="45.200902849716066" lon="9.42106335200235"><ele>90.0</ele><time>2026-04-11T10:01:20Z</time></trkpt><trkpt lat="45.2008415337016" lon="9.42113333593843"><ele>90.0</ele><time>2026-04-11T10:01:47Z</time></trkpt><trkpt lat="45.20076066526051" lon="9.421179869511523"><ele>90.0</ele><time>2026-04-11T10:01:49Z</time></trkpt><trkpt lat="45.2006805516145" lon="9.42123167657034"><ele>90.0</ele><time>2026-04-11T10:01:51Z</time></trkpt><trkpt lat="45.20061409676007" lon="9.421270132433344"><ele>90.16666666666667</ele><time>2026-04-11T10:01:53Z</time></trkpt><trkpt lat="45.200554226295004" lon="9.421316009409477"><ele>90.33333333333333</ele><time>2026-04-11T10:01:56Z</time></trkpt><trkpt lat="45.200475906947986" lon="9.421368194673722"><ele>90.5</ele><time>2026-04-11T10:02:00Z</time></trkpt><trkpt lat="45.20040299799608" lon="9.421415587698505"><ele>90.66666666666666</ele><time>2026-04-11T10:02:03Z</time></trkpt><trkpt lat="45.20032358197798" lon="9.421469049151515"><ele>90.83333333333333</ele><time>2026-04-11T10:02:06Z</time></trkpt><trkpt lat="45.200228549454835" lon="9.421531594948613"><ele>91.0</ele><time>2026-04-11T10:02:08Z</time></trkpt><trkpt lat="45.20016969724555" lon="9.421571450023318"><ele>91.0</ele><time>2026-04-11T10:02:09Z</time></trkpt><trkpt lat="45.20009980242843" lon="9.421593762785362"><ele>91.0</ele><time>2026-04-11T10:02:10Z</time></trkpt><trkpt lat="45.20002785188699" lon="9.42166554910247"><ele>91.0</ele><time>2026-04-11T10:02:11Z</time></trkpt><trkpt lat="45.19993911648066" lon="9.421721720477706"><ele>91.0</ele><time>2026-04-11T10:02:12Z</time></trkpt><trkpt lat="45.19984149839971" lon="9.421759299873738"><ele>91.0</ele><time>2026-04-11T10:02:13Z</time></trkpt><trkpt lat="45.19974493487512" lon="9.421821183640066"><ele>91.0</ele><time>2026-04-11T10:02:14Z</time></trkpt><trkpt lat="45.19964960027247" lon="9.421882279870365"><ele>91.0</ele><time>2026-04-11T10:02:15Z</time></trkpt><trkpt lat="45.199554986361356" lon="9.421942914247628"><ele>91.0</ele><time>2026-04-11T10:02:16Z</time></trkpt><trkpt lat="45.1994524583354" lon="9.422008620543721"><ele>91.0</ele><time>2026-04-11T10:02:17Z</time></trkpt><trkpt lat="45.19935110758974" lon="9.422099387409496"><ele>91.0</ele><time>2026-04-11T10:02:18Z</time></trkpt><trkpt lat="45.19923643775392" lon="9.4221470615064"><ele>91.19999999999999</ele><time>2026-04-11T10:02:19Z</time></trkpt><trkpt lat="45.1991297638612" lon="9.422215424665954"><ele>91.39999999999999</ele><time>2026-04-11T10:02:20Z</time></trkpt><trkpt lat="45.199033735615274" lon="9.422302553861543"><ele>91.6</ele><time>2026-04-11T10:02:21Z</time></trkpt><trkpt lat="45.19893672338091" lon="9.422339136773825"><ele>91.8</ele><time>2026-04-11T10:02:22Z</time></trkpt><trkpt lat="45.19885172868585" lon="9.422393606688539"><ele>92.0</ele><time>2026-04-11T10:02:23Z</time></trkpt><trkpt lat="45.1987648056617" lon="9.422448828885392"><ele>92.33333333333334</ele><time>2026-04-11T10:02:24Z</time></trkpt><trkpt lat="45.19868677662012" lon="9.422498135733477"><ele>92.66666666666667</ele><time>2026-04-11T10:02:25Z</time></trkpt><trkpt lat="45.198624851769516" lon="9.422537266301019"><ele>93.0</ele><time>2026-04-11T10:02:26Z</time></trkpt><trkpt lat="45.19889467366473" lon="9.422901822610422"><ele>93.0</ele><time>2026-04-11T10:02:53Z</time></trkpt><trkpt lat="45.198980091448256" lon="9.423033761530936"><ele>93.0</ele><time>2026-04-11T10:02:55Z</time></trkpt><trkpt lat="45.19902775916472" lon="9.42311148233273"><ele>93.0</ele><time>2026-04-11T10:02:56Z</time></trkpt><trkpt lat="45.19907971278026" lon="9.423201997345341"><ele>93.0</ele><time>2026-04-11T10:02:57Z</time></trkpt><trkpt lat="45.199135248130624" lon="9.423305639096986"><ele>93.0</ele><time>2026-04-11T10:02:58Z</time></trkpt><trkpt lat="45.19919268943592" lon="9.423412706447307"><ele>93.0</ele><time>2026-04-11T10:02:59Z</time></trkpt><trkpt lat="45.19925679804914" lon="9.423526958399364"><ele>93.0</ele><time>2026-04-11T10:03:00Z</time></trkpt><trkpt lat="45.19933118014504" lon="9.423659153101877"><ele>93.0</ele><time>2026-04-11T10:03:01Z</time></trkpt><trkpt lat="45.19940256696549" lon="9.423783767734387"><ele>93.0</ele><time>2026-04-11T10:03:02Z</time></trkpt><trkpt lat="45.19946725640017" lon="9.423896175883261"><ele>93.0</ele><time>2026-04-11T10:03:03Z</time></trkpt><trkpt lat="45.199522467851786" lon="9.424008458596663"><ele>92.83333333333333</ele><time>2026-04-11T10:03:04Z</time></trkpt><trkpt lat="45.19958121296196" lon="9.42410742505566"><ele>92.66666666666667</ele><time>2026-04-11T10:03:05Z</time></trkpt><trkpt lat="45.199640586299545" lon="9.424194250940136"><ele>92.5</ele><time>2026-04-11T10:03:06Z</time></trkpt><trkpt lat="45.19969113707186" lon="9.424284677341436"><ele>92.33333333333334</ele><time>2026-04-11T10:03:07Z</time></trkpt><trkpt lat="45.19972883581644" lon="9.424385302431173"><ele>92.16666666666667</ele><time>2026-04-11T10:03:08Z</time></trkpt><trkpt lat="45.19976947767849" lon="9.424489636668447"><ele>92.0</ele><time>2026-04-11T10:03:09Z</time></trkpt><trkpt lat="45.19980525818618" lon="9.424600206377162"><ele>92.0</ele><time>2026-04-11T10:03:10Z</time></trkpt><trkpt lat="45.19983766535753" lon="9.424712420597613"><ele>92.0</ele><time>2026-04-11T10:03:11Z</time></trkpt><trkpt lat="45.19987021728052" lon="9.424818001839869"><ele>92.0</ele><time>2026-04-11T10:03:12Z</time></trkpt><trkpt lat="45.1999086408552" lon="9.424915832052823"><ele>92.0</ele><time>2026-04-11T10:03:13Z</time></trkpt><trkpt lat="45.199951131370554" lon="9.425015508071738"><ele>92.0</ele><time>2026-04-11T10:03:14Z</time></trkpt><trkpt lat="45.1999940208268" lon="9.425111784739727"><ele>92.0</ele><time>2026-04-11T10:03:15Z</time></trkpt><trkpt lat="45.20002172821375" lon="9.425194411214163"><ele>92.0</ele><time>2026-04-11T10:03:16Z</time></trkpt><trkpt lat="45.200056591573656" lon="9.425281162774679"><ele>92.0</ele><time>2026-04-11T10:03:19Z</time></trkpt><trkpt lat="45.200142644054196" lon="9.425271874525974"><ele>92.0</ele><time>2026-04-11T10:03:22Z</time></trkpt><trkpt lat="45.200249530281134" lon="9.425213951220899"><ele>92.0</ele><time>2026-04-11T10:03:24Z</time></trkpt><trkpt lat="45.20031753679282" lon="9.425179460444216"><ele>92.0</ele><time>2026-04-11T10:03:25Z</time></trkpt><trkpt lat="45.20039378658695" lon="9.4251418479836"><ele>92.0</ele><time>2026-04-11T10:03:26Z</time></trkpt><trkpt lat="45.20048052274198" lon="9.425097660149866"><ele>92.0</ele><time>2026-04-11T10:03:27Z</time></trkpt><trkpt lat="45.20055371818709" lon="9.425059937931124"><ele>92.0</ele><time>2026-04-11T10:03:28Z</time></trkpt><trkpt lat="45.20063110918698" lon="9.425037217283784"><ele>92.0</ele><time>2026-04-11T10:03:30Z</time></trkpt><trkpt lat="45.200664830458386" lon="9.425113207248293"><ele>92.0</ele><time>2026-04-11T10:03:32Z</time></trkpt><trkpt lat="45.200678500251655" lon="9.42524158132359"><ele>92.0</ele><time>2026-04-11T10:03:34Z</time></trkpt><trkpt lat="45.20069767398196" lon="9.425439910861755"><ele>91.19999999999999</ele><time>2026-04-11T10:03:36Z</time></trkpt><trkpt lat="45.20071511487913" lon="9.425566410838838"><ele>90.4</ele><time>2026-04-11T10:03:37Z</time></trkpt><trkpt lat="45.20073840586939" lon="9.425697366414687"><ele>89.6</ele><time>2026-04-11T10:03:38Z</time></trkpt><trkpt lat="45.20075415985319" lon="9.425835097640782"><ele>88.80000000000001</ele><time>2026-04-11T10:03:39Z</time></trkpt><trkpt lat="45.20076520926034" lon="9.425951430078902"><ele>88.0</ele><time>2026-04-11T10:03:40Z</time></trkpt><trkpt lat="45.20077657506376" lon="9.426085311034454"><ele>88.0</ele><time>2026-04-11T10:03:42Z</time></trkpt><trkpt lat="45.20077289072802" lon="9.42618325131242"><ele>88.0</ele><time>2026-04-11T10:03:44Z</time></trkpt><trkpt lat="45.20078654505346" lon="9.426341480122476"><ele>88.0</ele><time>2026-04-11T10:03:46Z</time></trkpt><trkpt lat="45.20079714732115" lon="9.426464275982632"><ele>88.0</ele><time>2026-04-11T10:03:48.001Z</time></trkpt><trkpt lat="45.20102663791154" lon="9.426473717840828"><ele>88.4</ele><time>2026-04-11T10:03:50.001Z</time></trkpt><trkpt lat="45.20112002990048" lon="9.426516040929721"><ele>88.80000000000001</ele><time>2026-04-11T10:03:52.001Z</time></trkpt><trkpt lat="45.20115832626549" lon="9.426603267467584"><ele>89.2</ele><time>2026-04-11T10:03:54.001Z</time></trkpt><trkpt lat="45.2011809986782" lon="9.426720984543582"><ele>89.6</ele><time>2026-04-11T10:03:56.001Z</time></trkpt><trkpt lat="45.20117260734152" lon="9.426899315883245"><ele>90.0</ele><time>2026-04-11T10:03:58.001Z</time></trkpt><trkpt lat="45.201164946935" lon="9.427006847099623"><ele>90.0</ele><time>2026-04-11T10:03:59.001Z</time></trkpt><trkpt lat="45.20115249965247" lon="9.427137534528764"><ele>90.0</ele><time>2026-04-11T10:04:00.001Z</time></trkpt><trkpt lat="45.201131151497194" lon="9.427247408509789"><ele>90.0</ele><time>2026-04-11T10:04:01.001Z</time></trkpt><trkpt lat="45.201117269694535" lon="9.427353432643768"><ele>90.0</ele><time>2026-04-11T10:04:02.001Z</time></trkpt><trkpt lat="45.20109295535193" lon="9.42745526619259"><ele>90.0</ele><time>2026-04-11T10:04:03.001Z</time></trkpt><trkpt lat="45.20105572441087" lon="9.427533485806414"><ele>90.0</ele><time>2026-04-11T10:04:04.001Z</time></trkpt><trkpt lat="45.20099523804091" lon="9.427596038637699"><ele>90.0</ele><time>2026-04-11T10:04:05.001Z</time></trkpt><trkpt lat="45.20092775207918" lon="9.42765665596242"><ele>90.0</ele><time>2026-04-11T10:04:06.001Z</time></trkpt><trkpt lat="45.200865635934065" lon="9.427717079781518"><ele>90.0</ele><time>2026-04-11T10:04:07.001Z</time></trkpt><trkpt lat="45.200816487416546" lon="9.427782726866244"><ele>90.0</ele><time>2026-04-11T10:04:08Z</time></trkpt><trkpt lat="45.20077370485057" lon="9.427876894018572"><ele>90.0</ele><time>2026-04-11T10:04:10Z</time></trkpt><trkpt lat="45.20077529717778" lon="9.428000091307112"><ele>90.0</ele><time>2026-04-11T10:04:12Z</time></trkpt><trkpt lat="45.200792590182544" lon="9.428101167327899"><ele>90.0</ele><time>2026-04-11T10:04:13Z</time></trkpt><trkpt lat="45.200801966124736" lon="9.428215034047255"><ele>90.0</ele><time>2026-04-11T10:04:14Z</time></trkpt><trkpt lat="45.20081793062816" lon="9.428330527779334"><ele>90.0</ele><time>2026-04-11T10:04:15Z</time></trkpt><trkpt lat="45.200855749542995" lon="9.428427442501645"><ele>90.0</ele><time>2026-04-11T10:04:16Z</time></trkpt><trkpt lat="45.20088983820765" lon="9.428527380143015"><ele>90.0</ele><time>2026-04-11T10:04:17Z</time></trkpt><trkpt lat="45.200898577822066" lon="9.428661030059954"><ele>90.0</ele><time>2026-04-11T10:04:18Z</time></trkpt><trkpt lat="45.200906671799615" lon="9.42879634390166"><ele>89.6</ele><time>2026-04-11T10:04:19Z</time></trkpt><trkpt lat="45.20091331544379" lon="9.428926523076758"><ele>89.2</ele><time>2026-04-11T10:04:20Z</time></trkpt><trkpt lat="45.200927950259974" lon="9.429061973321883"><ele>88.80000000000001</ele><time>2026-04-11T10:04:21Z</time></trkpt><trkpt lat="45.20094303373993" lon="9.429195365989179"><ele>88.4</ele><time>2026-04-11T10:04:22Z</time></trkpt><trkpt lat="45.20096194665413" lon="9.429334989557514"><ele>88.0</ele><time>2026-04-11T10:04:23Z</time></trkpt><trkpt lat="45.20097623768221" lon="9.42947202537689"><ele>88.0</ele><time>2026-04-11T10:04:24Z</time></trkpt><trkpt lat="45.200995498664156" lon="9.429586568520227"><ele>88.0</ele><time>2026-04-11T10:04:25Z</time></trkpt><trkpt lat="45.201022321416616" lon="9.429772670914769"><ele>88.0</ele><time>2026-04-11T10:04:27Z</time></trkpt><trkpt lat="45.201036751224855" lon="9.429896090206732"><ele>88.0</ele><time>2026-04-11T10:04:28Z</time></trkpt><trkpt lat="45.201054399914405" lon="9.429997719816928"><ele>88.0</ele><time>2026-04-11T10:04:29Z</time></trkpt><trkpt lat="45.20107982845961" lon="9.430157247189042"><ele>88.0</ele><time>2026-04-11T10:04:31Z</time></trkpt><trkpt lat="45.20107290181971" lon="9.430267344920189"><ele>88.0</ele><time>2026-04-11T10:04:33Z</time></trkpt><trkpt lat="45.20106969569289" lon="9.43037400817007"><ele>88.0</ele><time>2026-04-11T10:04:36Z</time></trkpt><trkpt lat="45.20109180751797" lon="9.430498963716298"><ele>88.0</ele><time>2026-04-11T10:04:38.999Z</time></trkpt><trkpt lat="45.20112635401112" lon="9.430609398370166"><ele>88.0</ele><time>2026-04-11T10:04:41.999Z</time></trkpt><trkpt lat="45.20115062445967" lon="9.430710035243768"><ele>88.0</ele><time>2026-04-11T10:04:44.999Z</time></trkpt><trkpt lat="45.201123278250726" lon="9.430799235141874"><ele>88.2</ele><time>2026-04-11T10:04:58Z</time></trkpt><trkpt lat="45.201030246490966" lon="9.430805654164867"><ele>88.4</ele><time>2026-04-11T10:05:00Z</time></trkpt><trkpt lat="45.20091816197016" lon="9.430804120819156"><ele>88.60000000000001</ele><time>2026-04-11T10:05:01Z</time></trkpt><trkpt lat="45.200851160097905" lon="9.43081917925173"><ele>88.80000000000001</ele><time>2026-04-11T10:05:02Z</time></trkpt><trkpt lat="45.20073290692361" lon="9.430851224629786"><ele>89.0</ele><time>2026-04-11T10:05:04Z</time></trkpt><trkpt lat="45.20060854327968" lon="9.430867577548021"><ele>89.33333333333334</ele><time>2026-04-11T10:05:06Z</time></trkpt><trkpt lat="45.200481273789904" lon="9.430876678185234"><ele>89.66666666666667</ele><time>2026-04-11T10:05:08Z</time></trkpt><trkpt lat="45.200411484256705" lon="9.430878938733521"><ele>90.0</ele><time>2026-04-11T10:05:09Z</time></trkpt><trkpt lat="45.2003424351855" lon="9.430888447806321"><ele>90.33333333333333</ele><time>2026-04-11T10:05:10Z</time></trkpt><trkpt lat="45.200271109576434" lon="9.430909279241073"><ele>90.66666666666666</ele><time>2026-04-11T10:05:11Z</time></trkpt><trkpt lat="45.200202581473626" lon="9.43093968873692"><ele>91.0</ele><time>2026-04-11T10:05:12Z</time></trkpt><trkpt lat="45.200128479833104" lon="9.430958386211117"><ele>91.0</ele><time>2026-04-11T10:05:13Z</time></trkpt><trkpt lat="45.200057382671" lon="9.430958283574366"><ele>91.0</ele><time>2026-04-11T10:05:14Z</time></trkpt><trkpt lat="45.1999836197389" lon="9.430951093245012"><ele>91.0</ele><time>2026-04-11T10:05:15Z</time></trkpt><trkpt lat="45.19990957820742" lon="9.430964118341482"><ele>91.0</ele><time>2026-04-11T10:05:16Z</time></trkpt><trkpt lat="45.19983605532179" lon="9.430981311029832"><ele>91.0</ele><time>2026-04-11T10:05:17Z</time></trkpt><trkpt lat="45.19975222655352" lon="9.430997328672282"><ele>91.0</ele><time>2026-04-11T10:05:18Z</time></trkpt><trkpt lat="45.199669833332855" lon="9.431004321977815"><ele>91.0</ele><time>2026-04-11T10:05:19Z</time></trkpt><trkpt lat="45.19958861972772" lon="9.43101545471659"><ele>91.0</ele><time>2026-04-11T10:05:20Z</time></trkpt><trkpt lat="45.19950355741648" lon="9.43103729231708"><ele>91.0</ele><time>2026-04-11T10:05:21Z</time></trkpt><trkpt lat="45.1994222007965" lon="9.43105570176837"><ele>91.0</ele><time>2026-04-11T10:05:22Z</time></trkpt><trkpt lat="45.19934493548692" lon="9.431065218551007"><ele>91.0</ele><time>2026-04-11T10:05:23Z</time></trkpt><trkpt lat="45.199278225512394" lon="9.431078931606672"><ele>91.0</ele><time>2026-04-11T10:05:24Z</time></trkpt><trkpt lat="45.199206521904316" lon="9.431094572999594"><ele>91.0</ele><time>2026-04-11T10:05:25Z</time></trkpt><trkpt lat="45.19913446849068" lon="9.431109671514918"><ele>91.0</ele><time>2026-04-11T10:05:26Z</time></trkpt><trkpt lat="45.199071727242874" lon="9.43112322218773"><ele>91.0</ele><time>2026-04-11T10:05:27Z</time></trkpt><trkpt lat="45.19895893313987" lon="9.431163306142597"><ele>91.0</ele><time>2026-04-11T10:05:29Z</time></trkpt><trkpt lat="45.19890503627683" lon="9.431248020632522"><ele>91.0</ele><time>2026-04-11T10:05:31Z</time></trkpt><trkpt lat="45.198909307185396" lon="9.431379187905899"><ele>91.0</ele><time>2026-04-11T10:05:33Z</time></trkpt><trkpt lat="45.198938403910425" lon="9.431528357080571"><ele>91.5</ele><time>2026-04-11T10:05:35Z</time></trkpt><trkpt lat="45.19895170928797" lon="9.431617942525877"><ele>92.0</ele><time>2026-04-11T10:05:36Z</time></trkpt><trkpt lat="45.19896012420288" lon="9.43172138130919"><ele>92.5</ele><time>2026-04-11T10:05:37Z</time></trkpt><trkpt lat="45.19896958642887" lon="9.431825120625682"><ele>93.0</ele><time>2026-04-11T10:05:38Z</time></trkpt><trkpt lat="45.198984564208054" lon="9.431999669938534"><ele>93.5</ele><time>2026-04-11T10:05:40Z</time></trkpt><trkpt lat="45.19898510343672" lon="9.432102415532293"><ele>94.0</ele><time>2026-04-11T10:05:41Z</time></trkpt><trkpt lat="45.19897913804953" lon="9.432202340211806"><ele>94.14285714285714</ele><time>2026-04-11T10:05:42Z</time></trkpt><trkpt lat="45.19897058610287" lon="9.432303175724865"><ele>94.28571428571428</ele><time>2026-04-11T10:05:43Z</time></trkpt><trkpt lat="45.198963207021905" lon="9.432414636833647"><ele>94.42857142857143</ele><time>2026-04-11T10:05:44Z</time></trkpt><trkpt lat="45.198955614093826" lon="9.43251483310977"><ele>94.57142857142857</ele><time>2026-04-11T10:05:45Z</time></trkpt><trkpt lat="45.198948671459654" lon="9.432615804285524"><ele>94.71428571428572</ele><time>2026-04-11T10:05:46Z</time></trkpt><trkpt lat="45.1989470348013" lon="9.432712563955882"><ele>94.85714285714286</ele><time>2026-04-11T10:05:47Z</time></trkpt><trkpt lat="45.19895190901668" lon="9.432806494843634"><ele>95.0</ele><time>2026-04-11T10:05:48Z</time></trkpt><trkpt lat="45.19896500129662" lon="9.432896585176485"><ele>95.0</ele><time>2026-04-11T10:05:49Z</time></trkpt><trkpt lat="45.19899011285238" lon="9.432984283492095"><ele>95.0</ele><time>2026-04-11T10:05:50Z</time></trkpt><trkpt lat="45.19902088433732" lon="9.433073753706612"><ele>95.0</ele><time>2026-04-11T10:05:51Z</time></trkpt><trkpt lat="45.19903440130901" lon="9.433164279706023"><ele>95.0</ele><time>2026-04-11T10:05:52Z</time></trkpt><trkpt lat="45.1990461099124" lon="9.433254811141966"><ele>95.0</ele><time>2026-04-11T10:05:53Z</time></trkpt><trkpt lat="45.1990583721592" lon="9.433345151832183"><ele>95.0</ele><time>2026-04-11T10:05:54Z</time></trkpt><trkpt lat="45.199052224869256" lon="9.43344204787776"><ele>95.0</ele><time>2026-04-11T10:05:55Z</time></trkpt><trkpt lat="45.199061470451575" lon="9.433543989008912"><ele>94.85714285714286</ele><time>2026-04-11T10:05:56Z</time></trkpt><trkpt lat="45.199087221640816" lon="9.433649967961768"><ele>94.71428571428572</ele><time>2026-04-11T10:05:57Z</time></trkpt><trkpt lat="45.19908914315288" lon="9.433741180432719"><ele>94.57142857142857</ele><time>2026-04-11T10:05:58Z</time></trkpt><trkpt lat="45.19909944576501" lon="9.433829445535665"><ele>94.42857142857143</ele><time>2026-04-11T10:05:59Z</time></trkpt><trkpt lat="45.19911223859525" lon="9.43393302846082"><ele>94.28571428571428</ele><time>2026-04-11T10:06:00Z</time></trkpt><trkpt lat="45.199129206443864" lon="9.43403046918795"><ele>94.14285714285714</ele><time>2026-04-11T10:06:01Z</time></trkpt><trkpt lat="45.19914631770086" lon="9.434121830388603"><ele>94.0</ele><time>2026-04-11T10:06:02Z</time></trkpt><trkpt lat="45.19916311640233" lon="9.434222087569648"><ele>94.0</ele><time>2026-04-11T10:06:03Z</time></trkpt><trkpt lat="45.199173857247416" lon="9.434333629952832"><ele>94.0</ele><time>2026-04-11T10:06:04Z</time></trkpt><trkpt lat="45.19918436298016" lon="9.434449673882215"><ele>94.0</ele><time>2026-04-11T10:06:05Z</time></trkpt><trkpt lat="45.19919871349168" lon="9.434570292622533"><ele>94.0</ele><time>2026-04-11T10:06:06Z</time></trkpt><trkpt lat="45.199212800218824" lon="9.434687541395958"><ele>94.0</ele><time>2026-04-11T10:06:07Z</time></trkpt><trkpt lat="45.19922528858228" lon="9.43479413874052"><ele>94.0</ele><time>2026-04-11T10:06:08Z</time></trkpt><trkpt lat="45.19924018468337" lon="9.434888706340242"><ele>94.0</ele><time>2026-04-11T10:06:09Z</time></trkpt><trkpt lat="45.199253213057624" lon="9.435064245374502"><ele>94.0</ele><time>2026-04-11T10:06:11Z</time></trkpt><trkpt lat="45.199262038978134" lon="9.435167510794482"><ele>94.0</ele><time>2026-04-11T10:06:12Z</time></trkpt><trkpt lat="45.1992711522044" lon="9.435279312294416"><ele>94.0</ele><time>2026-04-11T10:06:13Z</time></trkpt><trkpt lat="45.199276278113324" lon="9.435396883093722"><ele>94.0</ele><time>2026-04-11T10:06:14Z</time></trkpt><trkpt lat="45.19928330574141" lon="9.43551029994399"><ele>94.0</ele><time>2026-04-11T10:06:15Z</time></trkpt><trkpt lat="45.19929907515739" lon="9.435614841935749"><ele>94.0</ele><time>2026-04-11T10:06:16Z</time></trkpt><trkpt lat="45.19931215227076" lon="9.435719416129272"><ele>94.0</ele><time>2026-04-11T10:06:17Z</time></trkpt><trkpt lat="45.19931890854193" lon="9.435814534923258"><ele>94.0</ele><time>2026-04-11T10:06:18Z</time></trkpt><trkpt lat="45.1993291816968" lon="9.435914681645333"><ele>94.0</ele><time>2026-04-11T10:06:19Z</time></trkpt><trkpt lat="45.199341214186035" lon="9.436016900881885"><ele>94.0</ele><time>2026-04-11T10:06:20Z</time></trkpt><trkpt lat="45.19934324792065" lon="9.436124476936904"><ele>94.0</ele><time>2026-04-11T10:06:21Z</time></trkpt><trkpt lat="45.19934640182158" lon="9.436217817109235"><ele>94.0</ele><time>2026-04-11T10:06:22Z</time></trkpt><trkpt lat="45.19936187190564" lon="9.436415154540178"><ele>94.0</ele><time>2026-04-11T10:06:25Z</time></trkpt><trkpt lat="45.19933707278712" lon="9.436527185986611"><ele>94.0</ele><time>2026-04-11T10:06:29Z</time></trkpt><trkpt lat="45.1992122532325" lon="9.43655917766114"><ele>94.0</ele><time>2026-04-11T10:06:31Z</time></trkpt><trkpt lat="45.1991327445552" lon="9.436583496382381"><ele>94.0</ele><time>2026-04-11T10:06:32Z</time></trkpt><trkpt lat="45.19906943124042" lon="9.436611242177634"><ele>94.0</ele><time>2026-04-11T10:06:33Z</time></trkpt><trkpt lat="45.199002669069756" lon="9.436667330275396"><ele>94.0</ele><time>2026-04-11T10:06:35Z</time></trkpt><trkpt lat="45.199010191691144" lon="9.436778272262849"><ele>94.0</ele><time>2026-04-11T10:06:37Z</time></trkpt><trkpt lat="45.19903965460205" lon="9.436873680898477"><ele>94.0</ele><time>2026-04-11T10:06:39Z</time></trkpt><trkpt lat="45.19910533808546" lon="9.436982977000225"><ele>94.0</ele><time>2026-04-11T10:06:41Z</time></trkpt><trkpt lat="45.199148644873546" lon="9.437061946658575"><ele>94.0</ele><time>2026-04-11T10:06:42Z</time></trkpt><trkpt lat="45.199190896972404" lon="9.437138261365615"><ele>94.0</ele><time>2026-04-11T10:06:43Z</time></trkpt><trkpt lat="45.19924636168962" lon="9.437250689147712"><ele>94.0</ele><time>2026-04-11T10:06:45Z</time></trkpt><trkpt lat="45.19930089039621" lon="9.437362848551313"><ele>94.2</ele><time>2026-04-11T10:06:47Z</time></trkpt><trkpt lat="45.199351532570674" lon="9.437461560037788"><ele>94.4</ele><time>2026-04-11T10:06:49Z</time></trkpt><trkpt lat="45.19940274386552" lon="9.43756887520401"><ele>94.6</ele><time>2026-04-11T10:06:51Z</time></trkpt><trkpt lat="45.199453398653354" lon="9.43765857781776"><ele>94.8</ele><time>2026-04-11T10:06:53Z</time></trkpt><trkpt lat="45.19950984440991" lon="9.437765081747683"><ele>95.0</ele><time>2026-04-11T10:06:55Z</time></trkpt><trkpt lat="45.19954887858709" lon="9.437893205648692"><ele>95.0</ele><time>2026-04-11T10:06:57Z</time></trkpt><trkpt lat="45.19958936782494" lon="9.438017066840334"><ele>95.0</ele><time>2026-04-11T10:06:59Z</time></trkpt><trkpt lat="45.199628977595864" lon="9.438132602110604"><ele>95.0</ele><time>2026-04-11T10:07:01Z</time></trkpt><trkpt lat="45.199667880958" lon="9.438233425742341"><ele>95.0</ele><time>2026-04-11T10:07:03Z</time></trkpt><trkpt lat="45.19971334381017" lon="9.438345652434773"><ele>95.0</ele><time>2026-04-11T10:07:05Z</time></trkpt><trkpt lat="45.199767764563184" lon="9.438471359130759"><ele>95.0</ele><time>2026-04-11T10:07:07Z</time></trkpt><trkpt lat="45.19982313543767" lon="9.438600889286917"><ele>95.0</ele><time>2026-04-11T10:07:09Z</time></trkpt><trkpt lat="45.19987972386588" lon="9.438722564198967"><ele>95.0</ele><time>2026-04-11T10:07:11Z</time></trkpt><trkpt lat="45.199932381835666" lon="9.438831879711907"><ele>95.0</ele><time>2026-04-11T10:07:13Z</time></trkpt><trkpt lat="45.19999433086518" lon="9.438948028200715"><ele>95.0</ele><time>2026-04-11T10:07:15Z</time></trkpt><trkpt lat="45.2000592106363" lon="9.439059810081318"><ele>93.6</ele><time>2026-04-11T10:07:17Z</time></trkpt><trkpt lat="45.20012314586662" lon="9.43919176965673"><ele>92.2</ele><time>2026-04-11T10:07:19Z</time></trkpt><trkpt lat="45.20015246774696" lon="9.439324550203311"><ele>90.80000000000001</ele><time>2026-04-11T10:07:21Z</time></trkpt><trkpt lat="45.200170946440224" lon="9.43943547771259"><ele>89.4</ele><time>2026-04-11T10:07:23Z</time></trkpt><trkpt lat="45.2001957905283" lon="9.439545373524354"><ele>88.0</ele><time>2026-04-11T10:07:25Z</time></trkpt><trkpt lat="45.20022101617927" lon="9.439684794766027"><ele>87.83333333333333</ele><time>2026-04-11T10:07:27Z</time></trkpt><trkpt lat="45.20025775128894" lon="9.439818606290373"><ele>87.66666666666666</ele><time>2026-04-11T10:07:29Z</time></trkpt><trkpt lat="45.200297936404255" lon="9.439939487676332"><ele>87.5</ele><time>2026-04-11T10:07:31Z</time></trkpt><trkpt lat="45.200352122502984" lon="9.440027326313542"><ele>87.33333333333333</ele><time>2026-04-11T10:07:33Z</time></trkpt><trkpt lat="45.200398000323986" lon="9.440136942122122"><ele>87.16666666666667</ele><time>2026-04-11T10:07:35Z</time></trkpt><trkpt lat="45.20041937365911" lon="9.440226388160786"><ele>87.0</ele><time>2026-04-11T10:07:37Z</time></trkpt><trkpt lat="45.20041971309893" lon="9.440334103052683"><ele>87.0</ele><time>2026-04-11T10:07:39Z</time></trkpt><trkpt lat="45.2003845520144" lon="9.440436628052783"><ele>87.0</ele><time>2026-04-11T10:07:41Z</time></trkpt><trkpt lat="45.200323824351855" lon="9.440555367852955"><ele>87.0</ele><time>2026-04-11T10:07:43Z</time></trkpt><trkpt lat="45.20029473202053" lon="9.440680095714647"><ele>87.0</ele><time>2026-04-11T10:07:45Z</time></trkpt><trkpt lat="45.200300585193396" lon="9.440810604825185"><ele>87.0</ele><time>2026-04-11T10:07:47.001Z</time></trkpt><trkpt lat="45.20031317995827" lon="9.44094552865176"><ele>86.5</ele><time>2026-04-11T10:07:49.001Z</time></trkpt><trkpt lat="45.20031563102746" lon="9.441041099057143"><ele>86.0</ele><time>2026-04-11T10:07:51.001Z</time></trkpt><trkpt lat="45.20033883872496" lon="9.441151839693664"><ele>85.5</ele><time>2026-04-11T10:07:54.001Z</time></trkpt><trkpt lat="45.20036981864454" lon="9.44126930718508"><ele>85.0</ele><time>2026-04-11T10:07:56.001Z</time></trkpt><trkpt lat="45.20040836892336" lon="9.44134388900549"><ele>84.5</ele><time>2026-04-11T10:07:58.001Z</time></trkpt><trkpt lat="45.20044284808088" lon="9.44145093985779"><ele>84.0</ele><time>2026-04-11T10:08:00.001Z</time></trkpt><trkpt lat="45.20047802784409" lon="9.441559029620139"><ele>83.0</ele><time>2026-04-11T10:08:02.001Z</time></trkpt><trkpt lat="45.200520948446936" lon="9.441684152329806"><ele>82.0</ele><time>2026-04-11T10:08:04.001Z</time></trkpt><trkpt lat="45.20056662906073" lon="9.441798769127892"><ele>81.0</ele><time>2026-04-11T10:08:06.001Z</time></trkpt><trkpt lat="45.200626602936914" lon="9.441914128971284"><ele>80.0</ele><time>2026-04-11T10:08:08.001Z</time></trkpt><trkpt lat="45.20068842310925" lon="9.442013214316738"><ele>79.0</ele><time>2026-04-11T10:08:10.001Z</time></trkpt><trkpt lat="45.20073560359794" lon="9.442090752039002"><ele>78.83333333333333</ele><time>2026-04-11T10:08:12.001Z</time></trkpt><trkpt lat="45.200750999361475" lon="9.442201646286907"><ele>78.66666666666666</ele><time>2026-04-11T10:08:14.001Z</time></trkpt><trkpt lat="45.20074973287469" lon="9.442307219017385"><ele>78.5</ele><time>2026-04-11T10:08:16.001Z</time></trkpt><trkpt lat="45.20070900717225" lon="9.44238167599461"><ele>78.33333333333333</ele><time>2026-04-11T10:08:18.001Z</time></trkpt><trkpt lat="45.200623009391464" lon="9.44241123441183"><ele>78.16666666666667</ele><time>2026-04-11T10:08:21.001Z</time></trkpt><trkpt lat="45.20053149065909" lon="9.442428460726079"><ele>78.0</ele><time>2026-04-11T10:09:11Z</time></trkpt><trkpt lat="45.20046816300777" lon="9.442435753520963"><ele>78.0</ele><time>2026-04-11T10:09:12Z</time></trkpt><trkpt lat="45.20039713604946" lon="9.442441944605784"><ele>78.0</ele><time>2026-04-11T10:09:13Z</time></trkpt><trkpt lat="45.2003283526519" lon="9.442455158941783"><ele>78.0</ele><time>2026-04-11T10:09:14Z</time></trkpt><trkpt lat="45.20025899666165" lon="9.442455489597288"><ele>78.0</ele><time>2026-04-11T10:09:15Z</time></trkpt><trkpt lat="45.2001864609717" lon="9.442460766596929"><ele>78.0</ele><time>2026-04-11T10:09:16Z</time></trkpt><trkpt lat="45.200120033022415" lon="9.442478477434896"><ele>78.0</ele><time>2026-04-11T10:09:17Z</time></trkpt><trkpt lat="45.200023803543594" lon="9.442517801921303"><ele>78.0</ele><time>2026-04-11T10:09:19Z</time></trkpt><trkpt lat="45.19993841054125" lon="9.442606199349207"><ele>78.0</ele><time>2026-04-11T10:09:21Z</time></trkpt><trkpt lat="45.19988872347238" lon="9.442663252628446"><ele>78.0</ele><time>2026-04-11T10:09:22Z</time></trkpt><trkpt lat="45.19983062744263" lon="9.44277659857285"><ele>78.0</ele><time>2026-04-11T10:09:24Z</time></trkpt><trkpt lat="45.19979857005685" lon="9.442859091195626"><ele>78.0</ele><time>2026-04-11T10:09:25Z</time></trkpt><trkpt lat="45.19975754193368" lon="9.443000387501467"><ele>78.0</ele><time>2026-04-11T10:09:27Z</time></trkpt><trkpt lat="45.199747714851796" lon="9.443162578203475"><ele>78.0</ele><time>2026-04-11T10:09:29Z</time></trkpt><trkpt lat="45.19977040499966" lon="9.443342504295217"><ele>78.0</ele><time>2026-04-11T10:09:31Z</time></trkpt><trkpt lat="45.199791395988804" lon="9.443431714097189"><ele>78.0</ele><time>2026-04-11T10:09:32Z</time></trkpt><trkpt lat="45.19981044709332" lon="9.443517283180421"><ele>78.0</ele><time>2026-04-11T10:09:33Z</time></trkpt><trkpt lat="45.199852176740514" lon="9.44368137055278"><ele>78.0</ele><time>2026-04-11T10:09:35Z</time></trkpt><trkpt lat="45.199893413424405" lon="9.443830480905822"><ele>77.6</ele><time>2026-04-11T10:09:37Z</time></trkpt><trkpt lat="45.19991859322734" lon="9.443951662213948"><ele>77.19999999999999</ele><time>2026-04-11T10:09:39Z</time></trkpt><trkpt lat="45.19994189125172" lon="9.444112910918115"><ele>76.8</ele><time>2026-04-11T10:09:41Z</time></trkpt><trkpt lat="45.19994175017376" lon="9.44429640703137"><ele>76.39999999999999</ele><time>2026-04-11T10:09:43Z</time></trkpt><trkpt lat="45.19989667981655" lon="9.444433021260249"><ele>76.0</ele><time>2026-04-11T10:09:45Z</time></trkpt><trkpt lat="45.19984719529361" lon="9.444541453373285"><ele>76.16666666666666</ele><time>2026-04-11T10:09:47Z</time></trkpt><trkpt lat="45.199772831527355" lon="9.444682846213853"><ele>76.33333333333333</ele><time>2026-04-11T10:09:49Z</time></trkpt><trkpt lat="45.199728714167925" lon="9.444765270157601"><ele>76.5</ele><time>2026-04-11T10:09:50Z</time></trkpt><trkpt lat="45.1996897099122" lon="9.444839046928585"><ele>76.66666666666667</ele><time>2026-04-11T10:09:51Z</time></trkpt><trkpt lat="45.19962354472467" lon="9.444944901238818"><ele>76.83333333333334</ele><time>2026-04-11T10:09:53Z</time></trkpt><trkpt lat="45.199579774973245" lon="9.445015151836873"><ele>77.0</ele><time>2026-04-11T10:09:55Z</time></trkpt><trkpt lat="45.19952890086734" lon="9.445080125698809"><ele>77.0</ele><time>2026-04-11T10:09:58Z</time></trkpt><trkpt lat="45.19947405703432" lon="9.445139545998705"><ele>77.0</ele><time>2026-04-11T10:12:48.001Z</time></trkpt><trkpt lat="45.19941718218842" lon="9.445196102429946"><ele>77.0</ele><time>2026-04-11T10:12:53.001Z</time></trkpt><trkpt lat="45.19942496545303" lon="9.445333763171465"><ele>77.0</ele><time>2026-04-11T10:13:07Z</time></trkpt><trkpt lat="45.19951785349732" lon="9.445442119989005"><ele>77.0</ele><time>2026-04-11T10:13:09Z</time></trkpt><trkpt lat="45.19957857567771" lon="9.445507016790433"><ele>77.0</ele><time>2026-04-11T10:13:10Z</time></trkpt><trkpt lat="45.19964813419172" lon="9.445596879975913"><ele>75.8</ele><time>2026-04-11T10:13:11Z</time></trkpt><trkpt lat="45.19972440396896" lon="9.445699326334754"><ele>74.6</ele><time>2026-04-11T10:13:12Z</time></trkpt><trkpt lat="45.199803437847734" lon="9.445806041826994"><ele>73.39999999999999</ele><time>2026-04-11T10:13:13Z</time></trkpt><trkpt lat="45.19988013011086" lon="9.445914562996814"><ele>72.2</ele><time>2026-04-11T10:13:14Z</time></trkpt><trkpt lat="45.19994695296676" lon="9.446016268066389"><ele>71.0</ele><time>2026-04-11T10:13:15Z</time></trkpt><trkpt lat="45.200005568330596" lon="9.446103224545768"><ele>71.0</ele><time>2026-04-11T10:13:16Z</time></trkpt><trkpt lat="45.20005840330802" lon="9.446180280365487"><ele>71.0</ele><time>2026-04-11T10:13:17Z</time></trkpt><trkpt lat="45.20010318780512" lon="9.446246214560281"><ele>71.0</ele><time>2026-04-11T10:13:18Z</time></trkpt><trkpt lat="45.20013129110296" lon="9.446338350255012"><ele>71.0</ele><time>2026-04-11T10:13:24Z</time></trkpt><trkpt lat="45.20006697616942" lon="9.44642868806588"><ele>71.0</ele><time>2026-04-11T10:13:26Z</time></trkpt><trkpt lat="45.19998257376094" lon="9.446543766223616"><ele>71.0</ele><time>2026-04-11T10:13:28Z</time></trkpt><trkpt lat="45.19993843627561" lon="9.446615722966124"><ele>70.8</ele><time>2026-04-11T10:13:29Z</time></trkpt><trkpt lat="45.199885157887685" lon="9.44668805022307"><ele>70.6</ele><time>2026-04-11T10:13:30Z</time></trkpt><trkpt lat="45.19981319987791" lon="9.446811445985952"><ele>70.4</ele><time>2026-04-11T10:13:32Z</time></trkpt><trkpt lat="45.19973558871881" lon="9.446921223942935"><ele>70.2</ele><time>2026-04-11T10:13:34Z</time></trkpt><trkpt lat="45.19964967564859" lon="9.447052737875824"><ele>70.0</ele><time>2026-04-11T10:13:36Z</time></trkpt><trkpt lat="45.19959769104664" lon="9.447132904388098"><ele>70.0</ele><time>2026-04-11T10:13:37Z</time></trkpt><trkpt lat="45.1995433345331" lon="9.44722431071227"><ele>70.0</ele><time>2026-04-11T10:13:38Z</time></trkpt><trkpt lat="45.19948885704462" lon="9.447307425356383"><ele>70.0</ele><time>2026-04-11T10:13:39Z</time></trkpt><trkpt lat="45.199418906740185" lon="9.447407722565679"><ele>70.0</ele><time>2026-04-11T10:13:40Z</time></trkpt><trkpt lat="45.19936150232711" lon="9.44749681047697"><ele>70.0</ele><time>2026-04-11T10:13:41Z</time></trkpt><trkpt lat="45.199303214019" lon="9.447590459957643"><ele>70.0</ele><time>2026-04-11T10:13:42Z</time></trkpt><trkpt lat="45.199252222549134" lon="9.447665191813579"><ele>70.0</ele><time>2026-04-11T10:13:43Z</time></trkpt><trkpt lat="45.19919742748836" lon="9.447744306526438"><ele>70.0</ele><time>2026-04-11T10:13:44Z</time></trkpt><trkpt lat="45.19914058538906" lon="9.447827382189265"><ele>70.0</ele><time>2026-04-11T10:13:45Z</time></trkpt><trkpt lat="45.19907669161277" lon="9.447921735681085"><ele>70.0</ele><time>2026-04-11T10:13:46Z</time></trkpt><trkpt lat="45.199009483301666" lon="9.44802511145136"><ele>70.0</ele><time>2026-04-11T10:13:47Z</time></trkpt><trkpt lat="45.19894015678718" lon="9.448132295666799"><ele>70.2</ele><time>2026-04-11T10:13:48Z</time></trkpt><trkpt lat="45.19886909159802" lon="9.44824249167562"><ele>70.4</ele><time>2026-04-11T10:13:49Z</time></trkpt><trkpt lat="45.198800719294525" lon="9.448344900980278"><ele>70.6</ele><time>2026-04-11T10:13:50Z</time></trkpt><trkpt lat="45.19873424176827" lon="9.448450560431104"><ele>70.8</ele><time>2026-04-11T10:13:51Z</time></trkpt><trkpt lat="45.1986667510655" lon="9.448549849234874"><ele>71.0</ele><time>2026-04-11T10:13:52Z</time></trkpt><trkpt lat="45.19859587719253" lon="9.448660296523347"><ele>71.0</ele><time>2026-04-11T10:13:53Z</time></trkpt><trkpt lat="45.19852814363232" lon="9.448757163856094"><ele>71.0</ele><time>2026-04-11T10:13:54Z</time></trkpt><trkpt lat="45.19846274762032" lon="9.448860177691675"><ele>71.0</ele><time>2026-04-11T10:13:55Z</time></trkpt><trkpt lat="45.1984000656386" lon="9.44895537866748"><ele>71.0</ele><time>2026-04-11T10:13:56Z</time></trkpt><trkpt lat="45.19833775038796" lon="9.449048754309716"><ele>71.0</ele><time>2026-04-11T10:13:57Z</time></trkpt><trkpt lat="45.19827083350813" lon="9.449147110714705"><ele>70.8</ele><time>2026-04-11T10:13:58Z</time></trkpt><trkpt lat="45.19819730302467" lon="9.449254097372156"><ele>70.6</ele><time>2026-04-11T10:13:59Z</time></trkpt><trkpt lat="45.198133589572755" lon="9.44934913825511"><ele>70.4</ele><time>2026-04-11T10:14:00Z</time></trkpt><trkpt lat="45.19806897691889" lon="9.449443645194993"><ele>70.2</ele><time>2026-04-11T10:14:01Z</time></trkpt><trkpt lat="45.19800658856828" lon="9.449533381938819"><ele>70.0</ele><time>2026-04-11T10:14:02Z</time></trkpt><trkpt lat="45.19794688674666" lon="9.449626640026189"><ele>70.33333333333333</ele><time>2026-04-11T10:14:03Z</time></trkpt><trkpt lat="45.197887884243805" lon="9.449716300985022"><ele>70.66666666666666</ele><time>2026-04-11T10:14:04Z</time></trkpt><trkpt lat="45.19784023474708" lon="9.449791710789448"><ele>71.0</ele><time>2026-04-11T10:14:05Z</time></trkpt><trkpt lat="45.19777015155608" lon="9.44989440804257"><ele>71.33333333333333</ele><time>2026-04-11T10:14:07Z</time></trkpt><trkpt lat="45.19773848425713" lon="9.45000020122633"><ele>71.66666666666667</ele><time>2026-04-11T10:14:10Z</time></trkpt><trkpt lat="45.19773194509771" lon="9.450095055053227"><ele>72.0</ele><time>2026-04-11T10:14:12Z</time></trkpt><trkpt lat="45.19766416630039" lon="9.45018839236559"><ele>72.0</ele><time>2026-04-11T10:14:14Z</time></trkpt><trkpt lat="45.19758550914075" lon="9.450292038094531"><ele>72.0</ele><time>2026-04-11T10:14:16Z</time></trkpt><trkpt lat="45.197537155616764" lon="9.450365601441428"><ele>72.0</ele><time>2026-04-11T10:14:17Z</time></trkpt><trkpt lat="45.19749102804021" lon="9.450436164564588"><ele>72.0</ele><time>2026-04-11T10:14:18Z</time></trkpt><trkpt lat="45.19744023355302" lon="9.45051207206262"><ele>72.0</ele><time>2026-04-11T10:14:19Z</time></trkpt><trkpt lat="45.19739189946155" lon="9.450584180004753"><ele>72.0</ele><time>2026-04-11T10:14:20Z</time></trkpt><trkpt lat="45.19734420099785" lon="9.450656097935376"><ele>71.85714285714286</ele><time>2026-04-11T10:14:21Z</time></trkpt><trkpt lat="45.19729672798986" lon="9.450727469464919"><ele>71.71428571428572</ele><time>2026-04-11T10:14:22Z</time></trkpt><trkpt lat="45.197252933067695" lon="9.450792023430715"><ele>71.57142857142857</ele><time>2026-04-11T10:14:23Z</time></trkpt><trkpt lat="45.197208633446934" lon="9.45085791099742"><ele>71.42857142857143</ele><time>2026-04-11T10:14:24Z</time></trkpt><trkpt lat="45.197163273171114" lon="9.450925613280805"><ele>71.28571428571428</ele><time>2026-04-11T10:14:25Z</time></trkpt><trkpt lat="45.19711469172801" lon="9.45098817528698"><ele>71.14285714285714</ele><time>2026-04-11T10:14:26Z</time></trkpt><trkpt lat="45.1970692535438" lon="9.451059722826566"><ele>71.0</ele><time>2026-04-11T10:14:27Z</time></trkpt><trkpt lat="45.1969663412387" lon="9.451214575784343"><ele>71.0</ele><time>2026-04-11T10:14:29Z</time></trkpt><trkpt lat="45.19690456456933" lon="9.451312485571803"><ele>71.0</ele><time>2026-04-11T10:14:31Z</time></trkpt><trkpt lat="45.1968306454071" lon="9.451405463028726"><ele>71.0</ele><time>2026-04-11T10:14:34Z</time></trkpt><trkpt lat="45.19675671715324" lon="9.451580771882515"><ele>71.0</ele><time>2026-04-11T10:14:36Z</time></trkpt><trkpt lat="45.19670004067022" lon="9.451670351206383"><ele>71.0</ele><time>2026-04-11T10:14:37Z</time></trkpt><trkpt lat="45.196628217997" lon="9.451780697787614"><ele>71.0</ele><time>2026-04-11T10:14:38Z</time></trkpt><trkpt lat="45.19655981853137" lon="9.451880365559683"><ele>71.0</ele><time>2026-04-11T10:14:39Z</time></trkpt><trkpt lat="45.1964845443109" lon="9.4519826809195"><ele>71.0</ele><time>2026-04-11T10:14:40Z</time></trkpt><trkpt lat="45.19640753494566" lon="9.452079997923816"><ele>71.0</ele><time>2026-04-11T10:14:41Z</time></trkpt><trkpt lat="45.196329443649766" lon="9.452155608109793"><ele>71.0</ele><time>2026-04-11T10:14:42Z</time></trkpt><trkpt lat="45.196256177038194" lon="9.45225288200557"><ele>71.0</ele><time>2026-04-11T10:14:43Z</time></trkpt><trkpt lat="45.19618368685801" lon="9.452349560207017"><ele>71.0</ele><time>2026-04-11T10:14:44Z</time></trkpt><trkpt lat="45.19611543711737" lon="9.452449747948467"><ele>71.0</ele><time>2026-04-11T10:14:45Z</time></trkpt><trkpt lat="45.1960388365869" lon="9.452524169042809"><ele>71.0</ele><time>2026-04-11T10:14:46Z</time></trkpt><trkpt lat="45.195992758786325" lon="9.452625312460984"><ele>71.0</ele><time>2026-04-11T10:14:47Z</time></trkpt><trkpt lat="45.195959692188445" lon="9.452738461034484"><ele>71.0</ele><time>2026-04-11T10:14:48Z</time></trkpt><trkpt lat="45.195936897249894" lon="9.452865196143637"><ele>71.0</ele><time>2026-04-11T10:14:49Z</time></trkpt><trkpt lat="45.19590475148357" lon="9.452983290070794"><ele>71.0</ele><time>2026-04-11T10:14:50Z</time></trkpt><trkpt lat="45.19587828383725" lon="9.453088651957355"><ele>71.0</ele><time>2026-04-11T10:14:51Z</time></trkpt><trkpt lat="45.195850850469654" lon="9.453197901507853"><ele>71.0</ele><time>2026-04-11T10:14:52Z</time></trkpt><trkpt lat="45.19580598408002" lon="9.453337077567628"><ele>71.5</ele><time>2026-04-11T10:14:53Z</time></trkpt><trkpt lat="45.19575173380688" lon="9.453489229948508"><ele>72.0</ele><time>2026-04-11T10:14:54Z</time></trkpt><trkpt lat="45.195693034730844" lon="9.453654962016897"><ele>72.5</ele><time>2026-04-11T10:14:55Z</time></trkpt><trkpt lat="45.195633192588154" lon="9.45382905013513"><ele>73.0</ele><time>2026-04-11T10:14:56Z</time></trkpt><trkpt lat="45.19555906235078" lon="9.4539891589526"><ele>73.0</ele><time>2026-04-11T10:14:57Z</time></trkpt><trkpt lat="45.19550587958233" lon="9.454164104250294"><ele>73.0</ele><time>2026-04-11T10:14:58Z</time></trkpt><trkpt lat="45.1954486467979" lon="9.45432993900852"><ele>73.0</ele><time>2026-04-11T10:14:59Z</time></trkpt><trkpt lat="45.19539404637428" lon="9.454491414602696"><ele>73.0</ele><time>2026-04-11T10:15:00Z</time></trkpt><trkpt lat="45.19534349391628" lon="9.454645545906716"><ele>73.0</ele><time>2026-04-11T10:15:01Z</time></trkpt><trkpt lat="45.195295679444776" lon="9.454790480949983"><ele>73.0</ele><time>2026-04-11T10:15:02Z</time></trkpt><trkpt lat="45.19524157399736" lon="9.454915142352212"><ele>73.0</ele><time>2026-04-11T10:15:03Z</time></trkpt><trkpt lat="45.19521099966385" lon="9.455035903590872"><ele>73.0</ele><time>2026-04-11T10:15:04Z</time></trkpt><trkpt lat="45.19517435400339" lon="9.4551386517183"><ele>73.0</ele><time>2026-04-11T10:15:05Z</time></trkpt><trkpt lat="45.195142644291955" lon="9.455233898112407"><ele>73.0</ele><time>2026-04-11T10:15:06Z</time></trkpt><trkpt lat="45.19511349806622" lon="9.455318012380971"><ele>73.0</ele><time>2026-04-11T10:15:07Z</time></trkpt><trkpt lat="45.1950551896669" lon="9.455487549631941"><ele>73.0</ele><time>2026-04-11T10:15:09Z</time></trkpt><trkpt lat="45.195017363241135" lon="9.455595002629133"><ele>73.0</ele><time>2026-04-11T10:15:10Z</time></trkpt><trkpt lat="45.194974664622066" lon="9.455717897749397"><ele>73.0</ele><time>2026-04-11T10:15:11Z</time></trkpt><trkpt lat="45.19493021527709" lon="9.455853270742084"><ele>72.8</ele><time>2026-04-11T10:15:12Z</time></trkpt><trkpt lat="45.19488505431074" lon="9.455990130540124"><ele>72.6</ele><time>2026-04-11T10:15:13Z</time></trkpt><trkpt lat="45.1948336991169" lon="9.456137453007521"><ele>72.4</ele><time>2026-04-11T10:15:14Z</time></trkpt><trkpt lat="45.19479170693222" lon="9.45626587109372"><ele>72.2</ele><time>2026-04-11T10:15:15Z</time></trkpt><trkpt lat="45.194754413125665" lon="9.456379222941612"><ele>72.0</ele><time>2026-04-11T10:15:16Z</time></trkpt><trkpt lat="45.194715536881134" lon="9.456490268990004"><ele>71.5</ele><time>2026-04-11T10:15:17Z</time></trkpt><trkpt lat="45.19467979212805" lon="9.456575799988544"><ele>71.0</ele><time>2026-04-11T10:15:18Z</time></trkpt><trkpt lat="45.194636641996674" lon="9.456704754865259"><ele>70.5</ele><time>2026-04-11T10:15:20Z</time></trkpt><trkpt lat="45.19463739631722" lon="9.456801724535891"><ele>70.0</ele><time>2026-04-11T10:15:22Z</time></trkpt><trkpt lat="45.19457604504357" lon="9.456894016478602"><ele>69.5</ele><time>2026-04-11T10:15:24Z</time></trkpt><trkpt lat="45.194513444372085" lon="9.456978884268297"><ele>69.0</ele><time>2026-04-11T10:15:25Z</time></trkpt><trkpt lat="45.194453372744626" lon="9.457080011473662"><ele>69.33333333333333</ele><time>2026-04-11T10:15:26Z</time></trkpt><trkpt lat="45.19437232055516" lon="9.457181886552904"><ele>69.66666666666666</ele><time>2026-04-11T10:15:27Z</time></trkpt><trkpt lat="45.1942669048274" lon="9.457323027601802"><ele>70.0</ele><time>2026-04-11T10:15:28Z</time></trkpt><trkpt lat="45.19411442425895" lon="9.45753315418629"><ele>69.5</ele><time>2026-04-11T10:15:29Z</time></trkpt><trkpt lat="45.193930148985814" lon="9.457784185950276"><ele>69.0</ele><time>2026-04-11T10:15:30Z</time></trkpt><trkpt lat="45.19374191853173" lon="9.45803477207697"><ele>69.0</ele><time>2026-04-11T10:15:31Z</time></trkpt><trkpt lat="45.193552455396215" lon="9.458285468393957"><ele>69.0</ele><time>2026-04-11T10:15:32Z</time></trkpt><trkpt lat="45.193366381772925" lon="9.458530058049648"><ele>69.0</ele><time>2026-04-11T10:15:33Z</time></trkpt><trkpt lat="45.19319154045625" lon="9.45875797346473"><ele>69.0</ele><time>2026-04-11T10:15:34Z</time></trkpt><trkpt lat="45.19302672710639" lon="9.458974103710434"><ele>69.0</ele><time>2026-04-11T10:15:35Z</time></trkpt><trkpt lat="45.19287224474142" lon="9.459174601992306"><ele>69.0</ele><time>2026-04-11T10:15:36Z</time></trkpt><trkpt lat="45.19272908032341" lon="9.459357754445856"><ele>69.0</ele><time>2026-04-11T10:15:37Z</time></trkpt><trkpt lat="45.192584202435064" lon="9.459544860467384"><ele>69.0</ele><time>2026-04-11T10:15:38Z</time></trkpt><trkpt lat="45.192440440057084" lon="9.459734090907528"><ele>69.0</ele><time>2026-04-11T10:15:39Z</time></trkpt><trkpt lat="45.19229437391226" lon="9.45992756818266"><ele>69.0</ele><time>2026-04-11T10:15:40Z</time></trkpt><trkpt lat="45.19214650199504" lon="9.460119061994547"><ele>69.66666666666667</ele><time>2026-04-11T10:15:41Z</time></trkpt><trkpt lat="45.191997781469496" lon="9.460309244234747"><ele>70.33333333333334</ele><time>2026-04-11T10:15:42Z</time></trkpt><trkpt lat="45.19186509214916" lon="9.460475125383098"><ele>71.0</ele><time>2026-04-11T10:15:43Z</time></trkpt><trkpt lat="45.19176133569253" lon="9.460582603964383"><ele>71.0</ele><time>2026-04-11T10:15:44Z</time></trkpt><trkpt lat="45.19168114994467" lon="9.460658011631658"><ele>71.0</ele><time>2026-04-11T10:15:45Z</time></trkpt><trkpt lat="45.19162108122311" lon="9.460704479481556"><ele>71.0</ele><time>2026-04-11T10:15:46Z</time></trkpt><trkpt lat="45.191548534025266" lon="9.460774135537108"><ele>71.0</ele><time>2026-04-11T10:15:48Z</time></trkpt><trkpt lat="45.19144053110193" lon="9.460894221342224"><ele>71.0</ele><time>2026-04-11T10:15:50Z</time></trkpt><trkpt lat="45.19138157206568" lon="9.460951938220974"><ele>71.0</ele><time>2026-04-11T10:15:51Z</time></trkpt><trkpt lat="45.19130773267892" lon="9.461026130876695"><ele>71.0</ele><time>2026-04-11T10:15:52Z</time></trkpt><trkpt lat="45.191228274318085" lon="9.46111093944744"><ele>71.0</ele><time>2026-04-11T10:15:53Z</time></trkpt><trkpt lat="45.19116076310501" lon="9.46118014540892"><ele>71.0</ele><time>2026-04-11T10:15:54Z</time></trkpt><trkpt lat="45.1910870642301" lon="9.461246267093458"><ele>71.0</ele><time>2026-04-11T10:15:56Z</time></trkpt><trkpt lat="45.1910129761523" lon="9.461317505608543"><ele>71.0</ele><time>2026-04-11T10:15:58Z</time></trkpt><trkpt lat="45.190958267611045" lon="9.461378437586454"><ele>71.0</ele><time>2026-04-11T10:15:59Z</time></trkpt><trkpt lat="45.19089338801417" lon="9.461447340644625"><ele>71.0</ele><time>2026-04-11T10:16:00Z</time></trkpt><trkpt lat="45.190812766512245" lon="9.461534100379517"><ele>71.0</ele><time>2026-04-11T10:16:01Z</time></trkpt><trkpt lat="45.19071805276782" lon="9.461632091808852"><ele>71.0</ele><time>2026-04-11T10:16:02Z</time></trkpt><trkpt lat="45.19060879338582" lon="9.461744413029763"><ele>71.0</ele><time>2026-04-11T10:16:03Z</time></trkpt><trkpt lat="45.190489944870116" lon="9.46186492251212"><ele>71.0</ele><time>2026-04-11T10:16:04Z</time></trkpt><trkpt lat="45.190361787399546" lon="9.461997967310964"><ele>71.0</ele><time>2026-04-11T10:16:05Z</time></trkpt><trkpt lat="45.190228353658476" lon="9.462130038399005"><ele>71.0</ele><time>2026-04-11T10:16:06Z</time></trkpt><trkpt lat="45.190073286497096" lon="9.462285738051676"><ele>71.0</ele><time>2026-04-11T10:16:07Z</time></trkpt><trkpt lat="45.189887191721816" lon="9.462479402488707"><ele>71.0</ele><time>2026-04-11T10:16:08Z</time></trkpt><trkpt lat="45.18968730896003" lon="9.462684506111264"><ele>70.5</ele><time>2026-04-11T10:16:09Z</time></trkpt><trkpt lat="45.18947807549444" lon="9.46289684503864"><ele>70.0</ele><time>2026-04-11T10:16:10Z</time></trkpt><trkpt lat="45.189275622027886" lon="9.463107740777293"><ele>70.0</ele><time>2026-04-11T10:16:11Z</time></trkpt><trkpt lat="45.18908297402576" lon="9.463323364635082"><ele>70.0</ele><time>2026-04-11T10:16:12Z</time></trkpt><trkpt lat="45.18892245624221" lon="9.463544186539528"><ele>70.33333333333333</ele><time>2026-04-11T10:16:13Z</time></trkpt><trkpt lat="45.18877889358418" lon="9.463764049752067"><ele>70.66666666666667</ele><time>2026-04-11T10:16:14Z</time></trkpt><trkpt lat="45.18865319875679" lon="9.463980534032038"><ele>71.0</ele><time>2026-04-11T10:16:15Z</time></trkpt><trkpt lat="45.1885560819912" lon="9.464182562227924"><ele>71.0</ele><time>2026-04-11T10:16:16Z</time></trkpt><trkpt lat="45.18848396440074" lon="9.464358168750042"><ele>71.0</ele><time>2026-04-11T10:16:17Z</time></trkpt><trkpt lat="45.18843167584136" lon="9.464500871152126"><ele>71.0</ele><time>2026-04-11T10:16:18Z</time></trkpt><trkpt lat="45.1883982225514" lon="9.464598019243613"><ele>71.0</ele><time>2026-04-11T10:16:19Z</time></trkpt><trkpt lat="45.18835834180962" lon="9.464720246871781"><ele>71.0</ele><time>2026-04-11T10:16:21Z</time></trkpt><trkpt lat="45.18845013657258" lon="9.464788766302659"><ele>71.0</ele><time>2026-04-11T10:16:24Z</time></trkpt><trkpt lat="45.18851261608693" lon="9.464822284564457"><ele>71.0</ele><time>2026-04-11T10:16:26Z</time></trkpt><trkpt lat="45.18858851053157" lon="9.46486666177747"><ele>71.0</ele><time>2026-04-11T10:16:29.001Z</time></trkpt><trkpt lat="45.188682054358544" lon="9.464915823609934"><ele>71.0</ele><time>2026-04-11T10:16:32.001Z</time></trkpt><trkpt lat="45.1887674217133" lon="9.46495553599403"><ele>71.0</ele><time>2026-04-11T10:16:34.001Z</time></trkpt><trkpt lat="45.18882550351979" lon="9.46499191534621"><ele>71.0</ele><time>2026-04-11T10:17:02.001Z</time></trkpt><trkpt lat="45.188924639070585" lon="9.46504263702744"><ele>70.66666666666667</ele><time>2026-04-11T10:21:40.001Z</time></trkpt><trkpt lat="45.18903421071382" lon="9.465090411815122"><ele>70.33333333333334</ele><time>2026-04-11T10:21:42.001Z</time></trkpt><trkpt lat="45.189095011666126" lon="9.465128001406697"><ele>70.0</ele><time>2026-04-11T10:21:43.001Z</time></trkpt><trkpt lat="45.1891685612709" lon="9.465165004699776"><ele>69.66666666666667</ele><time>2026-04-11T10:21:44Z</time></trkpt><trkpt lat="45.18924958290651" lon="9.465206143544032"><ele>69.33333333333333</ele><time>2026-04-11T10:21:45Z</time></trkpt><trkpt lat="45.18932931025565" lon="9.46524713879822"><ele>69.0</ele><time>2026-04-11T10:21:46Z</time></trkpt><trkpt lat="45.18940896279707" lon="9.465288637715688"><ele>69.0</ele><time>2026-04-11T10:21:47Z</time></trkpt><trkpt lat="45.18949070574712" lon="9.465330639174132"><ele>69.0</ele><time>2026-04-11T10:21:48Z</time></trkpt><trkpt lat="45.18956674519916" lon="9.465369605794915"><ele>69.0</ele><time>2026-04-11T10:21:49Z</time></trkpt><trkpt lat="45.18964093092325" lon="9.465408162914969"><ele>69.0</ele><time>2026-04-11T10:21:50Z</time></trkpt><trkpt lat="45.18971142132853" lon="9.465445544860335"><ele>69.0</ele><time>2026-04-11T10:21:51Z</time></trkpt><trkpt lat="45.18979456121652" lon="9.4654853710626"><ele>69.0</ele><time>2026-04-11T10:21:52Z</time></trkpt><trkpt lat="45.18987969992076" lon="9.46553666817822"><ele>69.0</ele><time>2026-04-11T10:21:53Z</time></trkpt><trkpt lat="45.189968112651435" lon="9.465582119792307"><ele>69.0</ele><time>2026-04-11T10:21:54Z</time></trkpt><trkpt lat="45.19005400738997" lon="9.465641511801"><ele>69.0</ele><time>2026-04-11T10:21:55Z</time></trkpt><trkpt lat="45.19014988424015" lon="9.465673092663453"><ele>69.0</ele><time>2026-04-11T10:21:56Z</time></trkpt><trkpt lat="45.1902355735028" lon="9.465719164827432"><ele>69.0</ele><time>2026-04-11T10:21:57Z</time></trkpt><trkpt lat="45.19031733844201" lon="9.465758801549365"><ele>69.0</ele><time>2026-04-11T10:21:58Z</time></trkpt><trkpt lat="45.190391243071254" lon="9.465798418290472"><ele>69.0</ele><time>2026-04-11T10:21:59Z</time></trkpt><trkpt lat="45.190458840847924" lon="9.465833693398938"><ele>69.0</ele><time>2026-04-11T10:22:00Z</time></trkpt><trkpt lat="45.1905209519711" lon="9.465862432743338"><ele>69.0</ele><time>2026-04-11T10:22:01Z</time></trkpt><trkpt lat="45.190582660004516" lon="9.465895459094584"><ele>69.0</ele><time>2026-04-11T10:22:02Z</time></trkpt><trkpt lat="45.19067687455008" lon="9.465948601298884"><ele>69.0</ele><time>2026-04-11T10:22:04Z</time></trkpt><trkpt lat="45.19074766983826" lon="9.465986235622179"><ele>69.16666666666667</ele><time>2026-04-11T10:22:06Z</time></trkpt><trkpt lat="45.190820328934066" lon="9.466022399307928"><ele>69.33333333333333</ele><time>2026-04-11T10:22:08Z</time></trkpt><trkpt lat="45.190913096016644" lon="9.46607180988009"><ele>69.5</ele><time>2026-04-11T10:22:10Z</time></trkpt><trkpt lat="45.191025199610955" lon="9.46612981312854"><ele>69.66666666666666</ele><time>2026-04-11T10:22:12Z</time></trkpt><trkpt lat="45.1910883992572" lon="9.466164570749298"><ele>69.83333333333333</ele><time>2026-04-11T10:22:13Z</time></trkpt><trkpt lat="45.1911509427331" lon="9.46619649496941"><ele>70.0</ele><time>2026-04-11T10:22:14Z</time></trkpt><trkpt lat="45.19121234023648" lon="9.46622381409131"><ele>70.0</ele><time>2026-04-11T10:22:15Z</time></trkpt><trkpt lat="45.19127034615998" lon="9.466261283437863"><ele>70.0</ele><time>2026-04-11T10:22:16Z</time></trkpt><trkpt lat="45.19133060239335" lon="9.466291687947445"><ele>70.0</ele><time>2026-04-11T10:22:17Z</time></trkpt><trkpt lat="45.19144556532084" lon="9.466355982099746"><ele>70.0</ele><time>2026-04-11T10:22:19Z</time></trkpt><trkpt lat="45.19155891815296" lon="9.466414473334313"><ele>70.0</ele><time>2026-04-11T10:22:21Z</time></trkpt><trkpt lat="45.19166017619875" lon="9.466490255924894"><ele>70.4</ele><time>2026-04-11T10:22:23Z</time></trkpt><trkpt lat="45.19175299595018" lon="9.466503879456097"><ele>70.8</ele><time>2026-04-11T10:22:25Z</time></trkpt><trkpt lat="45.19178938826088" lon="9.466598778149796"><ele>71.2</ele><time>2026-04-11T10:22:27Z</time></trkpt><trkpt lat="45.19175895076902" lon="9.466711623011104"><ele>71.6</ele><time>2026-04-11T10:22:29Z</time></trkpt><trkpt lat="45.19169072031626" lon="9.466811707102385"><ele>72.0</ele><time>2026-04-11T10:22:31Z</time></trkpt><trkpt lat="45.191597229951796" lon="9.466853500320502"><ele>72.0</ele><time>2026-04-11T10:22:33Z</time></trkpt><trkpt lat="45.191532606477814" lon="9.46685338144164"><ele>72.0</ele><time>2026-04-11T10:22:35Z</time></trkpt><trkpt lat="45.191489399223066" lon="9.467230436999618"><ele>72.0</ele><time>2026-04-11T10:22:38Z</time></trkpt><trkpt lat="45.19146525977091" lon="9.467357591538915"><ele>72.0</ele><time>2026-04-11T10:22:39Z</time></trkpt><trkpt lat="45.19143620408398" lon="9.467487370908636"><ele>71.25</ele><time>2026-04-11T10:22:40Z</time></trkpt><trkpt lat="45.19140606092202" lon="9.46762920068723"><ele>70.5</ele><time>2026-04-11T10:22:41Z</time></trkpt><trkpt lat="45.1913723059512" lon="9.467777284144725"><ele>69.75</ele><time>2026-04-11T10:22:42Z</time></trkpt><trkpt lat="45.191338653588154" lon="9.467933150538792"><ele>69.0</ele><time>2026-04-11T10:22:43Z</time></trkpt><trkpt lat="45.19130356635998" lon="9.468102734364406"><ele>68.75</ele><time>2026-04-11T10:22:44Z</time></trkpt><trkpt lat="45.191264369314155" lon="9.468281128030204"><ele>68.5</ele><time>2026-04-11T10:22:45Z</time></trkpt><trkpt lat="45.191224745786506" lon="9.468468408861911"><ele>68.25</ele><time>2026-04-11T10:22:46Z</time></trkpt><trkpt lat="45.19118362236856" lon="9.468663118512017"><ele>68.0</ele><time>2026-04-11T10:22:47Z</time></trkpt><trkpt lat="45.19114282035097" lon="9.468862356302791"><ele>68.0</ele><time>2026-04-11T10:22:48Z</time></trkpt><trkpt lat="45.19110010587015" lon="9.469067148930801"><ele>68.0</ele><time>2026-04-11T10:22:49Z</time></trkpt><trkpt lat="45.19105578331037" lon="9.469262673656509"><ele>68.0</ele><time>2026-04-11T10:22:50Z</time></trkpt><trkpt lat="45.19101494232466" lon="9.469443718581706"><ele>68.0</ele><time>2026-04-11T10:22:51Z</time></trkpt><trkpt lat="45.190973801404915" lon="9.469634065929984"><ele>68.0</ele><time>2026-04-11T10:22:52Z</time></trkpt><trkpt lat="45.19093098468536" lon="9.469831977720572"><ele>68.0</ele><time>2026-04-11T10:22:53Z</time></trkpt><trkpt lat="45.19088705929054" lon="9.470035905605751"><ele>68.0</ele><time>2026-04-11T10:22:54Z</time></trkpt><trkpt lat="45.190846254897025" lon="9.470239580176369"><ele>68.0</ele><time>2026-04-11T10:22:55Z</time></trkpt><trkpt lat="45.190802695575194" lon="9.47045368993756"><ele>67.66666666666667</ele><time>2026-04-11T10:22:56Z</time></trkpt><trkpt lat="45.19075679970244" lon="9.470661428071374"><ele>67.33333333333333</ele><time>2026-04-11T10:22:57Z</time></trkpt><trkpt lat="45.190710868092474" lon="9.470877557159309"><ele>67.0</ele><time>2026-04-11T10:22:58Z</time></trkpt><trkpt lat="45.19066509019907" lon="9.471091203459874"><ele>67.0</ele><time>2026-04-11T10:22:59Z</time></trkpt><trkpt lat="45.190620222767336" lon="9.47130426132229"><ele>67.0</ele><time>2026-04-11T10:23:00Z</time></trkpt><trkpt lat="45.19057607283186" lon="9.47151981280121"><ele>67.0</ele><time>2026-04-11T10:23:01Z</time></trkpt><trkpt lat="45.1905325298957" lon="9.47172362704311"><ele>67.0</ele><time>2026-04-11T10:23:02Z</time></trkpt><trkpt lat="45.190493794734294" lon="9.471902708850433"><ele>67.0</ele><time>2026-04-11T10:23:03Z</time></trkpt><trkpt lat="45.1904587735193" lon="9.47207485926712"><ele>67.0</ele><time>2026-04-11T10:23:04Z</time></trkpt><trkpt lat="45.1904199907158" lon="9.47224965046397"><ele>67.0</ele><time>2026-04-11T10:23:05Z</time></trkpt><trkpt lat="45.19037893322155" lon="9.472437023138957"><ele>67.0</ele><time>2026-04-11T10:23:06Z</time></trkpt><trkpt lat="45.190339682275464" lon="9.47262661057888"><ele>67.0</ele><time>2026-04-11T10:23:07Z</time></trkpt><trkpt lat="45.19029793711587" lon="9.47281565446684"><ele>67.0</ele><time>2026-04-11T10:23:08Z</time></trkpt><trkpt lat="45.19025756105808" lon="9.473009322077543"><ele>67.0</ele><time>2026-04-11T10:23:09Z</time></trkpt><trkpt lat="45.19021676702968" lon="9.473203865631868"><ele>67.0</ele><time>2026-04-11T10:23:10Z</time></trkpt><trkpt lat="45.19017621681304" lon="9.473396794879191"><ele>67.0</ele><time>2026-04-11T10:23:11Z</time></trkpt><trkpt lat="45.1901338765772" lon="9.473593967836925"><ele>67.0</ele><time>2026-04-11T10:23:12Z</time></trkpt><trkpt lat="45.19009143731236" lon="9.47379372381177"><ele>67.0</ele><time>2026-04-11T10:23:13Z</time></trkpt><trkpt lat="45.190049906102224" lon="9.473990780521158"><ele>66.66666666666666</ele><time>2026-04-11T10:23:14Z</time></trkpt><trkpt lat="45.19000501469209" lon="9.474196700254335"><ele>66.33333333333333</ele><time>2026-04-11T10:23:15Z</time></trkpt><trkpt lat="45.18995901840516" lon="9.474400780478886"><ele>66.0</ele><time>2026-04-11T10:23:16Z</time></trkpt><trkpt lat="45.18991260357185" lon="9.474614079195593"><ele>66.0</ele><time>2026-04-11T10:23:17Z</time></trkpt><trkpt lat="45.189867391885876" lon="9.47483091467977"><ele>66.0</ele><time>2026-04-11T10:23:18Z</time></trkpt><trkpt lat="45.189820172448194" lon="9.475042866880981"><ele>66.0</ele><time>2026-04-11T10:23:19Z</time></trkpt><trkpt lat="45.18977230773183" lon="9.475261427439433"><ele>66.33333333333333</ele><time>2026-04-11T10:23:20Z</time></trkpt><trkpt lat="45.18972496261185" lon="9.475480835824575"><ele>66.66666666666666</ele><time>2026-04-11T10:23:21Z</time></trkpt><trkpt lat="45.18967907554022" lon="9.475693483741093"><ele>67.0</ele><time>2026-04-11T10:23:22Z</time></trkpt><trkpt lat="45.18963822527675" lon="9.475877960270976"><ele>67.0</ele><time>2026-04-11T10:23:23Z</time></trkpt><trkpt lat="45.189602387561685" lon="9.476040937445832"><ele>67.0</ele><time>2026-04-11T10:23:24Z</time></trkpt><trkpt lat="45.189572664149345" lon="9.476186644328862"><ele>67.0</ele><time>2026-04-11T10:23:25Z</time></trkpt><trkpt lat="45.189541747107036" lon="9.476319704665102"><ele>67.0</ele><time>2026-04-11T10:23:26Z</time></trkpt><trkpt lat="45.189518327650056" lon="9.476431771969246"><ele>67.0</ele><time>2026-04-11T10:23:27Z</time></trkpt><trkpt lat="45.18952023117514" lon="9.47658713657365"><ele>67.0</ele><time>2026-04-11T10:23:29Z</time></trkpt><trkpt lat="45.18960640791886" lon="9.476673252657552"><ele>67.0</ele><time>2026-04-11T10:23:31Z</time></trkpt><trkpt lat="45.18966795351123" lon="9.476692036127647"><ele>67.0</ele><time>2026-04-11T10:23:31.999Z</time></trkpt><trkpt lat="45.18974781375594" lon="9.47672315910003"><ele>67.0</ele><time>2026-04-11T10:23:32.999Z</time></trkpt><trkpt lat="45.18985059408919" lon="9.476762251056215"><ele>67.0</ele><time>2026-04-11T10:23:33.999Z</time></trkpt><trkpt lat="45.18995020592431" lon="9.47681083165937"><ele>67.4</ele><time>2026-04-11T10:23:34.999Z</time></trkpt><trkpt lat="45.19005684522374" lon="9.476859439570159"><ele>67.80000000000001</ele><time>2026-04-11T10:23:35.999Z</time></trkpt><trkpt lat="45.190171236068494" lon="9.476908946852191"><ele>68.2</ele><time>2026-04-11T10:23:36.999Z</time></trkpt><trkpt lat="45.190282460612416" lon="9.476958956891373"><ele>68.60000000000001</ele><time>2026-04-11T10:23:37.999Z</time></trkpt><trkpt lat="45.19037852983691" lon="9.477003795761233"><ele>69.0</ele><time>2026-04-11T10:23:38.999Z</time></trkpt><trkpt lat="45.19046137137378" lon="9.477044224236357"><ele>69.0</ele><time>2026-04-11T10:23:39.999Z</time></trkpt><trkpt lat="45.190528492558215" lon="9.47707568091323"><ele>69.0</ele><time>2026-04-11T10:23:40.999Z</time></trkpt><trkpt lat="45.19062443345491" lon="9.4771438703241"><ele>69.0</ele><time>2026-04-11T10:23:42.999Z</time></trkpt><trkpt lat="45.19065386250491" lon="9.477259721931222"><ele>69.0</ele><time>2026-04-11T10:23:44.999Z</time></trkpt><trkpt lat="45.19060245163023" lon="9.47738926268424"><ele>69.0</ele><time>2026-04-11T10:23:46.999Z</time></trkpt><trkpt lat="45.19056384235094" lon="9.477481146760061"><ele>69.0</ele><time>2026-04-11T10:23:48Z</time></trkpt><trkpt lat="45.190520916078555" lon="9.477608134785891"><ele>69.0</ele><time>2026-04-11T10:23:49Z</time></trkpt><trkpt lat="45.19047418695273" lon="9.47773573569127"><ele>69.0</ele><time>2026-04-11T10:23:50Z</time></trkpt><trkpt lat="45.190430156528755" lon="9.477866477282914"><ele>69.0</ele><time>2026-04-11T10:23:51Z</time></trkpt><trkpt lat="45.19039207349315" lon="9.478009517278851"><ele>69.0</ele><time>2026-04-11T10:23:52Z</time></trkpt><trkpt lat="45.190355703333225" lon="9.478155212555933"><ele>69.0</ele><time>2026-04-11T10:23:53Z</time></trkpt><trkpt lat="45.19031863661172" lon="9.478297895092977"><ele>69.0</ele><time>2026-04-11T10:23:54Z</time></trkpt><trkpt lat="45.1902804371894" lon="9.478444705593501"><ele>69.0</ele><time>2026-04-11T10:23:55Z</time></trkpt><trkpt lat="45.190240940800024" lon="9.478598105706876"><ele>69.0</ele><time>2026-04-11T10:23:56Z</time></trkpt><trkpt lat="45.190201890072196" lon="9.478741149818203"><ele>69.0</ele><time>2026-04-11T10:23:57Z</time></trkpt><trkpt lat="45.1901634328017" lon="9.478865157342268"><ele>69.0</ele><time>2026-04-11T10:23:58Z</time></trkpt><trkpt lat="45.19012900732423" lon="9.478980581416451"><ele>69.0</ele><time>2026-04-11T10:23:59Z</time></trkpt><trkpt lat="45.19009750589534" lon="9.479097995418897"><ele>69.0</ele><time>2026-04-11T10:24:00Z</time></trkpt><trkpt lat="45.19005550659271" lon="9.479226194664255"><ele>69.0</ele><time>2026-04-11T10:24:01Z</time></trkpt><trkpt lat="45.190009644989956" lon="9.479336517713874"><ele>69.0</ele><time>2026-04-11T10:24:02Z</time></trkpt><trkpt lat="45.18995333167617" lon="9.47941908546041"><ele>69.0</ele><time>2026-04-11T10:24:03Z</time></trkpt><trkpt lat="45.18989459345307" lon="9.479498217858707"><ele>69.0</ele><time>2026-04-11T10:24:04Z</time></trkpt><trkpt lat="45.18982831923795" lon="9.479592907556935"><ele>68.8</ele><time>2026-04-11T10:24:05Z</time></trkpt><trkpt lat="45.18975619768201" lon="9.47969748286203"><ele>68.60000000000001</ele><time>2026-04-11T10:24:06Z</time></trkpt><trkpt lat="45.189685448968014" lon="9.479812819811265"><ele>68.4</ele><time>2026-04-11T10:24:07Z</time></trkpt><trkpt lat="45.189618326388654" lon="9.47991528888792"><ele>68.2</ele><time>2026-04-11T10:24:08Z</time></trkpt><trkpt lat="45.18955586209118" lon="9.479996841597337"><ele>68.0</ele><time>2026-04-11T10:24:09Z</time></trkpt><trkpt lat="45.18950416831489" lon="9.480073438306906"><ele>68.0</ele><time>2026-04-11T10:24:10Z</time></trkpt><trkpt lat="45.18943458167757" lon="9.480195504313214"><ele>68.0</ele><time>2026-04-11T10:24:12Z</time></trkpt><trkpt lat="45.18933887641083" lon="9.48026260983611"><ele>68.0</ele><time>2026-04-11T10:24:14Z</time></trkpt><trkpt lat="45.189165647121776" lon="9.480323454132087"><ele>68.0</ele><time>2026-04-11T10:24:16Z</time></trkpt><trkpt lat="45.18905856757751" lon="9.4803820490719"><ele>68.2</ele><time>2026-04-11T10:24:17Z</time></trkpt><trkpt lat="45.188945001423974" lon="9.48043958983314"><ele>68.4</ele><time>2026-04-11T10:24:18Z</time></trkpt><trkpt lat="45.18883641249832" lon="9.480484943568475"><ele>68.60000000000001</ele><time>2026-04-11T10:24:19Z</time></trkpt><trkpt lat="45.18873958104748" lon="9.480518665727448"><ele>68.8</ele><time>2026-04-11T10:24:20Z</time></trkpt><trkpt lat="45.18866230539801" lon="9.480555978462903"><ele>69.0</ele><time>2026-04-11T10:24:21Z</time></trkpt><trkpt lat="45.18858500540866" lon="9.4805903900963"><ele>69.0</ele><time>2026-04-11T10:24:22Z</time></trkpt><trkpt lat="45.18851335145803" lon="9.480621628197776"><ele>69.0</ele><time>2026-04-11T10:24:23Z</time></trkpt><trkpt lat="45.18844912364879" lon="9.480650208326578"><ele>69.0</ele><time>2026-04-11T10:24:24Z</time></trkpt><trkpt lat="45.188388354230824" lon="9.480673528180466"><ele>69.0</ele><time>2026-04-11T10:24:25Z</time></trkpt><trkpt lat="45.18826513841541" lon="9.480738769137742"><ele>69.0</ele><time>2026-04-11T10:24:27Z</time></trkpt><trkpt lat="45.18816787783353" lon="9.48078133720392"><ele>69.0</ele><time>2026-04-11T10:24:28Z</time></trkpt><trkpt lat="45.188002310474154" lon="9.48085039193478"><ele>68.33333333333333</ele><time>2026-04-11T10:24:29Z</time></trkpt><trkpt lat="45.18785044371557" lon="9.480940761245806"><ele>67.66666666666666</ele><time>2026-04-11T10:24:30Z</time></trkpt><trkpt lat="45.18769833203108" lon="9.481046668874129"><ele>67.0</ele><time>2026-04-11T10:24:31Z</time></trkpt><trkpt lat="45.18755919997194" lon="9.481137867122289"><ele>67.0</ele><time>2026-04-11T10:24:32Z</time></trkpt><trkpt lat="45.18742556208942" lon="9.481207122968529"><ele>67.0</ele><time>2026-04-11T10:24:33Z</time></trkpt><trkpt lat="45.18730899013992" lon="9.481266384607743"><ele>67.0</ele><time>2026-04-11T10:24:34Z</time></trkpt><trkpt lat="45.187207336169884" lon="9.48132139407728"><ele>67.0</ele><time>2026-04-11T10:24:35Z</time></trkpt><trkpt lat="45.18708589618348" lon="9.481386954492297"><ele>67.0</ele><time>2026-04-11T10:24:36Z</time></trkpt><trkpt lat="45.18695015624426" lon="9.481456300142385"><ele>67.0</ele><time>2026-04-11T10:24:37Z</time></trkpt><trkpt lat="45.186835159989855" lon="9.48150788357742"><ele>67.0</ele><time>2026-04-11T10:24:38Z</time></trkpt><trkpt lat="45.1867383202557" lon="9.48154671639256"><ele>67.0</ele><time>2026-04-11T10:24:39Z</time></trkpt><trkpt lat="45.18665838920762" lon="9.481577895389654"><ele>67.0</ele><time>2026-04-11T10:24:40Z</time></trkpt><trkpt lat="45.18659246533074" lon="9.481600822781843"><ele>67.16666666666666</ele><time>2026-04-11T10:24:41Z</time></trkpt><trkpt lat="45.18649296590046" lon="9.481611557483756"><ele>67.33333333333333</ele><time>2026-04-11T10:24:43Z</time></trkpt><trkpt lat="45.18641642011102" lon="9.48161731705389"><ele>67.5</ele><time>2026-04-11T10:24:46Z</time></trkpt><trkpt lat="45.186356071813535" lon="9.481653358709998"><ele>67.66666666666667</ele><time>2026-04-11T10:26:14.999Z</time></trkpt><trkpt lat="45.186283059156715" lon="9.481683443807498"><ele>67.83333333333334</ele><time>2026-04-11T10:26:15.999Z</time></trkpt><trkpt lat="45.18621107056983" lon="9.481705044998822"><ele>68.0</ele><time>2026-04-11T10:26:16.999Z</time></trkpt><trkpt lat="45.18612101637775" lon="9.48172927067406"><ele>68.0</ele><time>2026-04-11T10:26:17.999Z</time></trkpt><trkpt lat="45.186032129542724" lon="9.481760129106853"><ele>68.0</ele><time>2026-04-11T10:26:18.999Z</time></trkpt><trkpt lat="45.18595788099409" lon="9.481792067532375"><ele>68.0</ele><time>2026-04-11T10:26:19.999Z</time></trkpt><trkpt lat="45.185856726968794" lon="9.481819671800789"><ele>68.0</ele><time>2026-04-11T10:26:21.999Z</time></trkpt><trkpt lat="45.185804532500526" lon="9.481706982201501"><ele>68.0</ele><time>2026-04-11T10:26:23.999Z</time></trkpt><trkpt lat="45.18576823895303" lon="9.481620401087849"><ele>68.0</ele><time>2026-04-11T10:26:24.999Z</time></trkpt><trkpt lat="45.18572443532604" lon="9.48154588725356"><ele>68.2</ele><time>2026-04-11T10:26:25.999Z</time></trkpt><trkpt lat="45.18566198489713" lon="9.481497918724862"><ele>68.4</ele><time>2026-04-11T10:26:26.999Z</time></trkpt><trkpt lat="45.18558178933233" lon="9.481464796061612"><ele>68.60000000000001</ele><time>2026-04-11T10:26:28Z</time></trkpt><trkpt lat="45.18549732695308" lon="9.481408414415377"><ele>68.8</ele><time>2026-04-11T10:26:29Z</time></trkpt><trkpt lat="45.18540250556934" lon="9.481367629047844"><ele>69.0</ele><time>2026-04-11T10:26:30Z</time></trkpt><trkpt lat="45.18529745599301" lon="9.481344210115479"><ele>69.0</ele><time>2026-04-11T10:26:31Z</time></trkpt><trkpt lat="45.185196117131454" lon="9.481289017754476"><ele>69.0</ele><time>2026-04-11T10:26:32Z</time></trkpt><trkpt lat="45.185090326000555" lon="9.481236636058407"><ele>69.0</ele><time>2026-04-11T10:26:33Z</time></trkpt><trkpt lat="45.184980749119696" lon="9.481183031964616"><ele>69.0</ele><time>2026-04-11T10:26:34Z</time></trkpt><trkpt lat="45.18487339969717" lon="9.481136715909818"><ele>69.0</ele><time>2026-04-11T10:26:35Z</time></trkpt><trkpt lat="45.1847688825252" lon="9.48108793682164"><ele>69.16666666666667</ele><time>2026-04-11T10:26:36Z</time></trkpt><trkpt lat="45.18467241926678" lon="9.481041567415634"><ele>69.33333333333333</ele><time>2026-04-11T10:26:37Z</time></trkpt><trkpt lat="45.18458454385998" lon="9.480997785628466"><ele>69.5</ele><time>2026-04-11T10:26:38Z</time></trkpt><trkpt lat="45.18450531269048" lon="9.480959752896988"><ele>69.66666666666666</ele><time>2026-04-11T10:26:39Z</time></trkpt><trkpt lat="45.184443945308885" lon="9.48093102490961"><ele>69.83333333333333</ele><time>2026-04-11T10:26:40Z</time></trkpt><trkpt lat="45.18437414743933" lon="9.48091106078993"><ele>70.0</ele><time>2026-04-11T10:26:42Z</time></trkpt><trkpt lat="45.18429080903368" lon="9.481008697555788"><ele>70.0</ele><time>2026-04-11T10:26:45Z</time></trkpt><trkpt lat="45.184281963676966" lon="9.48111036868627"><ele>70.0</ele><time>2026-04-11T10:26:46Z</time></trkpt><trkpt lat="45.18424695453194" lon="9.4812878870545"><ele>70.0</ele><time>2026-04-11T10:26:48Z</time></trkpt><trkpt lat="45.18422709114911" lon="9.481392151258435"><ele>70.0</ele><time>2026-04-11T10:26:49Z</time></trkpt><trkpt lat="45.184201827531105" lon="9.481505580569458"><ele>70.0</ele><time>2026-04-11T10:26:50Z</time></trkpt><trkpt lat="45.18416892427211" lon="9.48161593998964"><ele>70.0</ele><time>2026-04-11T10:26:51Z</time></trkpt><trkpt lat="45.18413814582569" lon="9.481732402480034"><ele>70.2</ele><time>2026-04-11T10:26:52Z</time></trkpt><trkpt lat="45.18411099144946" lon="9.481846001721658"><ele>70.4</ele><time>2026-04-11T10:26:53Z</time></trkpt><trkpt lat="45.18408614545257" lon="9.481971082569332"><ele>70.6</ele><time>2026-04-11T10:26:54Z</time></trkpt><trkpt lat="45.18405466791103" lon="9.482106674296325"><ele>70.8</ele><time>2026-04-11T10:26:55Z</time></trkpt><trkpt lat="45.18401987541948" lon="9.482256990748525"><ele>71.0</ele><time>2026-04-11T10:26:56Z</time></trkpt><trkpt lat="45.18398406693592" lon="9.482422647146063"><ele>71.0</ele><time>2026-04-11T10:26:57Z</time></trkpt><trkpt lat="45.18394271915863" lon="9.482599776333192"><ele>71.0</ele><time>2026-04-11T10:26:58Z</time></trkpt><trkpt lat="45.18389881220438" lon="9.482782312179339"><ele>71.0</ele><time>2026-04-11T10:26:59Z</time></trkpt><trkpt lat="45.183853825657216" lon="9.482966233569247"><ele>71.0</ele><time>2026-04-11T10:27:00Z</time></trkpt><trkpt lat="45.18381030916703" lon="9.483148466263174"><ele>71.0</ele><time>2026-04-11T10:27:01Z</time></trkpt><trkpt lat="45.183770479604156" lon="9.483331230326895"><ele>71.0</ele><time>2026-04-11T10:27:02Z</time></trkpt><trkpt lat="45.18372599517021" lon="9.483505092726375"><ele>71.0</ele><time>2026-04-11T10:27:03Z</time></trkpt><trkpt lat="45.18367751394811" lon="9.48367871031119"><ele>71.0</ele><time>2026-04-11T10:27:04Z</time></trkpt><trkpt lat="45.183631207772066" lon="9.483854181158163"><ele>71.0</ele><time>2026-04-11T10:27:05Z</time></trkpt><trkpt lat="45.183599579264246" lon="9.484015755452537"><ele>71.0</ele><time>2026-04-11T10:27:06Z</time></trkpt><trkpt lat="45.183577524205354" lon="9.484165338398403"><ele>71.0</ele><time>2026-04-11T10:27:07Z</time></trkpt><trkpt lat="45.183562272819415" lon="9.484313766215113"><ele>71.0</ele><time>2026-04-11T10:27:08Z</time></trkpt><trkpt lat="45.18354412732278" lon="9.484461583911223"><ele>71.0</ele><time>2026-04-11T10:27:09Z</time></trkpt><trkpt lat="45.18351434073612" lon="9.484616177392686"><ele>71.0</ele><time>2026-04-11T10:27:10Z</time></trkpt><trkpt lat="45.18347434652726" lon="9.48477006918102"><ele>71.0</ele><time>2026-04-11T10:27:11Z</time></trkpt><trkpt lat="45.18343361941931" lon="9.484925419165785"><ele>71.0</ele><time>2026-04-11T10:27:12Z</time></trkpt><trkpt lat="45.18339577844299" lon="9.485086257060294"><ele>71.0</ele><time>2026-04-11T10:27:13Z</time></trkpt><trkpt lat="45.18335791058728" lon="9.485245586630413"><ele>71.0</ele><time>2026-04-11T10:27:14Z</time></trkpt><trkpt lat="45.18332023486122" lon="9.485403471431859"><ele>71.0</ele><time>2026-04-11T10:27:15Z</time></trkpt><trkpt lat="45.18328363628472" lon="9.48556756188292"><ele>71.0</ele><time>2026-04-11T10:27:16Z</time></trkpt><trkpt lat="45.18324348123339" lon="9.485728690592866"><ele>71.0</ele><time>2026-04-11T10:27:17Z</time></trkpt><trkpt lat="45.183202814847995" lon="9.485890799642728"><ele>71.39999999999999</ele><time>2026-04-11T10:27:18Z</time></trkpt><trkpt lat="45.18316364071632" lon="9.486055522799035"><ele>71.8</ele><time>2026-04-11T10:27:19Z</time></trkpt><trkpt lat="45.18312745719152" lon="9.486208771305922"><ele>72.19999999999999</ele><time>2026-04-11T10:27:20Z</time></trkpt><trkpt lat="45.183093470080216" lon="9.486345320704308"><ele>72.6</ele><time>2026-04-11T10:27:21Z</time></trkpt><trkpt lat="45.18306393860663" lon="9.486474543883824"><ele>73.0</ele><time>2026-04-11T10:27:22Z</time></trkpt><trkpt lat="45.18303941648288" lon="9.486600210392224"><ele>73.0</ele><time>2026-04-11T10:27:23Z</time></trkpt><trkpt lat="45.183016735343024" lon="9.486735523013378"><ele>73.0</ele><time>2026-04-11T10:27:24Z</time></trkpt><trkpt lat="45.182992623781374" lon="9.486878765110134"><ele>73.0</ele><time>2026-04-11T10:27:25Z</time></trkpt><trkpt lat="45.18297116388249" lon="9.48702981612866"><ele>73.0</ele><time>2026-04-11T10:27:26Z</time></trkpt><trkpt lat="45.1829472632773" lon="9.487178585787015"><ele>73.0</ele><time>2026-04-11T10:27:27Z</time></trkpt><trkpt lat="45.18292514077316" lon="9.487335120365158"><ele>72.75</ele><time>2026-04-11T10:27:28Z</time></trkpt><trkpt lat="45.18290309504463" lon="9.48749327857197"><ele>72.5</ele><time>2026-04-11T10:27:29Z</time></trkpt><trkpt lat="45.18287925006474" lon="9.487653201780821"><ele>72.25</ele><time>2026-04-11T10:27:30Z</time></trkpt><trkpt lat="45.182857920647955" lon="9.48781822508415"><ele>72.0</ele><time>2026-04-11T10:27:31Z</time></trkpt><trkpt lat="45.182840567633505" lon="9.487983286760718"><ele>72.4</ele><time>2026-04-11T10:27:32Z</time></trkpt><trkpt lat="45.182823104130236" lon="9.488133840233912"><ele>72.80000000000001</ele><time>2026-04-11T10:27:33Z</time></trkpt><trkpt lat="45.182808227766934" lon="9.48826910322467"><ele>73.2</ele><time>2026-04-11T10:27:34Z</time></trkpt><trkpt lat="45.18279016622917" lon="9.48839278779884"><ele>73.60000000000001</ele><time>2026-04-11T10:27:35Z</time></trkpt><trkpt lat="45.182775943197115" lon="9.488501894057302"><ele>74.0</ele><time>2026-04-11T10:27:36Z</time></trkpt><trkpt lat="45.182755528297065" lon="9.488642258002105"><ele>74.0</ele><time>2026-04-11T10:27:38Z</time></trkpt><trkpt lat="45.18274259874688" lon="9.488741758784732"><ele>74.0</ele><time>2026-04-11T10:27:40Z</time></trkpt><trkpt lat="45.18271934598895" lon="9.488855283945558"><ele>74.0</ele><time>2026-04-11T10:28:07.999Z</time></trkpt><trkpt lat="45.18270238814936" lon="9.488972698499827"><ele>74.0</ele><time>2026-04-11T10:28:08.999Z</time></trkpt><trkpt lat="45.18268821244101" lon="9.48910391595032"><ele>74.0</ele><time>2026-04-11T10:28:09.999Z</time></trkpt><trkpt lat="45.18267287762882" lon="9.48926018917481"><ele>74.0</ele><time>2026-04-11T10:28:10.999Z</time></trkpt><trkpt lat="45.18265450797633" lon="9.489420042195759"><ele>73.5</ele><time>2026-04-11T10:28:12Z</time></trkpt><trkpt lat="45.18263393946199" lon="9.489608358874687"><ele>73.0</ele><time>2026-04-11T10:28:13Z</time></trkpt><trkpt lat="45.182609016867076" lon="9.489800134557626"><ele>72.5</ele><time>2026-04-11T10:28:14Z</time></trkpt><trkpt lat="45.18258302116542" lon="9.49000641237428"><ele>72.0</ele><time>2026-04-11T10:28:15Z</time></trkpt><trkpt lat="45.182559195949295" lon="9.490208719657014"><ele>72.0</ele><time>2026-04-11T10:28:16Z</time></trkpt><trkpt lat="45.182531795815855" lon="9.490413440430428"><ele>72.0</ele><time>2026-04-11T10:28:17Z</time></trkpt><trkpt lat="45.18250133602504" lon="9.490616814856761"><ele>72.0</ele><time>2026-04-11T10:28:18Z</time></trkpt><trkpt lat="45.182469881308705" lon="9.490812150573445"><ele>72.0</ele><time>2026-04-11T10:28:19Z</time></trkpt><trkpt lat="45.18244085057276" lon="9.490995269123928"><ele>72.0</ele><time>2026-04-11T10:28:20Z</time></trkpt><trkpt lat="45.1824121654425" lon="9.491161425201723"><ele>72.0</ele><time>2026-04-11T10:28:21Z</time></trkpt><trkpt lat="45.1823839176622" lon="9.491337920102424"><ele>72.0</ele><time>2026-04-11T10:28:22Z</time></trkpt><trkpt lat="45.18235367383819" lon="9.491528598073609"><ele>72.0</ele><time>2026-04-11T10:28:23Z</time></trkpt><trkpt lat="45.18232325573713" lon="9.491735652810373"><ele>72.0</ele><time>2026-04-11T10:28:24Z</time></trkpt><trkpt lat="45.18229881281614" lon="9.491934701436294"><ele>72.0</ele><time>2026-04-11T10:28:25Z</time></trkpt><trkpt lat="45.18227615226897" lon="9.492115993534222"><ele>72.0</ele><time>2026-04-11T10:28:26Z</time></trkpt><trkpt lat="45.18225440109243" lon="9.492282165598086"><ele>72.0</ele><time>2026-04-11T10:28:27Z</time></trkpt><trkpt lat="45.18223127684753" lon="9.492434347559275"><ele>71.6</ele><time>2026-04-11T10:28:28Z</time></trkpt><trkpt lat="45.182208862045336" lon="9.492591317382775"><ele>71.2</ele><time>2026-04-11T10:28:29Z</time></trkpt><trkpt lat="45.18218939816889" lon="9.492736144461"><ele>70.8</ele><time>2026-04-11T10:28:30Z</time></trkpt><trkpt lat="45.18216710077255" lon="9.492871302805364"><ele>70.4</ele><time>2026-04-11T10:28:31Z</time></trkpt><trkpt lat="45.182157323455186" lon="9.492996632255874"><ele>70.0</ele><time>2026-04-11T10:28:32Z</time></trkpt><trkpt lat="45.182144138049935" lon="9.493133403749706"><ele>69.83333333333333</ele><time>2026-04-11T10:28:33Z</time></trkpt><trkpt lat="45.18213115955303" lon="9.493273624082738"><ele>69.66666666666666</ele><time>2026-04-11T10:28:34Z</time></trkpt><trkpt lat="45.18211641863248" lon="9.493405290770763"><ele>69.5</ele><time>2026-04-11T10:28:35Z</time></trkpt><trkpt lat="45.18210175093218" lon="9.493526250246061"><ele>69.33333333333333</ele><time>2026-04-11T10:28:36Z</time></trkpt><trkpt lat="45.18208960149651" lon="9.49363760853486"><ele>69.16666666666667</ele><time>2026-04-11T10:28:37Z</time></trkpt><trkpt lat="45.18207644759207" lon="9.4937406143853"><ele>69.0</ele><time>2026-04-11T10:28:38Z</time></trkpt><trkpt lat="45.18206476677044" lon="9.493833297723707"><ele>68.8</ele><time>2026-04-11T10:28:39Z</time></trkpt><trkpt lat="45.18204021377519" lon="9.493978631895855"><ele>68.60000000000001</ele><time>2026-04-11T10:28:41Z</time></trkpt><trkpt lat="45.18201063798223" lon="9.494075523558314"><ele>68.4</ele><time>2026-04-11T10:28:43Z</time></trkpt><trkpt lat="45.181979407736584" lon="9.4942537828376"><ele>68.2</ele><time>2026-04-11T10:29:23Z</time></trkpt><trkpt lat="45.18197099752805" lon="9.49438232200071"><ele>68.0</ele><time>2026-04-11T10:29:24Z</time></trkpt><trkpt lat="45.18196839792332" lon="9.494513147370155"><ele>67.75</ele><time>2026-04-11T10:29:25Z</time></trkpt><trkpt lat="45.18196501585762" lon="9.494666277098215"><ele>67.5</ele><time>2026-04-11T10:29:26Z</time></trkpt><trkpt lat="45.18195226259165" lon="9.494824534909673"><ele>67.25</ele><time>2026-04-11T10:29:27Z</time></trkpt><trkpt lat="45.18193337728276" lon="9.494998932812196"><ele>67.0</ele><time>2026-04-11T10:29:28Z</time></trkpt><trkpt lat="45.181907544397355" lon="9.49518378540822"><ele>67.0</ele><time>2026-04-11T10:29:29Z</time></trkpt><trkpt lat="45.181883344205474" lon="9.495376153161343"><ele>67.0</ele><time>2026-04-11T10:29:30.001Z</time></trkpt><trkpt lat="45.181857645039194" lon="9.495567808030723"><ele>67.0</ele><time>2026-04-11T10:29:31.001Z</time></trkpt><trkpt lat="45.181833653561924" lon="9.495750811655695"><ele>67.0</ele><time>2026-04-11T10:29:32.001Z</time></trkpt><trkpt lat="45.18180756964434" lon="9.495920046007157"><ele>67.5</ele><time>2026-04-11T10:29:33.001Z</time></trkpt><trkpt lat="45.18177143513548" lon="9.496091970950413"><ele>68.0</ele><time>2026-04-11T10:29:34.001Z</time></trkpt><trkpt lat="45.18171801966466" lon="9.49626785047728"><ele>68.5</ele><time>2026-04-11T10:29:35.001Z</time></trkpt><trkpt lat="45.181651556399785" lon="9.496437098516772"><ele>69.0</ele><time>2026-04-11T10:29:36.001Z</time></trkpt><trkpt lat="45.181571803121436" lon="9.496603115495464"><ele>69.0</ele><time>2026-04-11T10:29:37.001Z</time></trkpt><trkpt lat="45.181470033583985" lon="9.496754402895483"><ele>69.0</ele><time>2026-04-11T10:29:38.001Z</time></trkpt><trkpt lat="45.181373554700144" lon="9.49691123396097"><ele>69.0</ele><time>2026-04-11T10:29:39.001Z</time></trkpt><trkpt lat="45.18128656804478" lon="9.497053905065728"><ele>69.0</ele><time>2026-04-11T10:29:40.001Z</time></trkpt><trkpt lat="45.18120921933264" lon="9.497182829436975"><ele>68.8</ele><time>2026-04-11T10:29:41.001Z</time></trkpt><trkpt lat="45.18115507781591" lon="9.497308335138394"><ele>68.60000000000001</ele><time>2026-04-11T10:29:42.001Z</time></trkpt><trkpt lat="45.18109188285659" lon="9.497399673006404"><ele>68.4</ele><time>2026-04-11T10:29:43.001Z</time></trkpt><trkpt lat="45.181022430793064" lon="9.497498686011468"><ele>68.2</ele><time>2026-04-11T10:29:44.001Z</time></trkpt><trkpt lat="45.18094512963263" lon="9.49762278963801"><ele>68.0</ele><time>2026-04-11T10:29:45.001Z</time></trkpt><trkpt lat="45.180857904386166" lon="9.497769865738"><ele>68.0</ele><time>2026-04-11T10:29:46.001Z</time></trkpt><trkpt lat="45.18076132404545" lon="9.497930683018655"><ele>68.0</ele><time>2026-04-11T10:29:47.001Z</time></trkpt><trkpt lat="45.18066695350007" lon="9.498087068376986"><ele>68.0</ele><time>2026-04-11T10:29:48.001Z</time></trkpt><trkpt lat="45.18057521481257" lon="9.498239092819743"><ele>68.0</ele><time>2026-04-11T10:29:49.001Z</time></trkpt><trkpt lat="45.18048323041934" lon="9.498391360260609"><ele>68.0</ele><time>2026-04-11T10:29:50Z</time></trkpt><trkpt lat="45.18038854234385" lon="9.498547554781899"><ele>68.0</ele><time>2026-04-11T10:29:51Z</time></trkpt><trkpt lat="45.18030262689879" lon="9.49872309938495"><ele>68.0</ele><time>2026-04-11T10:29:52Z</time></trkpt><trkpt lat="45.180201739795045" lon="9.498879497247259"><ele>68.0</ele><time>2026-04-11T10:29:53Z</time></trkpt><trkpt lat="45.18010404108534" lon="9.49904421777858"><ele>67.75</ele><time>2026-04-11T10:29:54Z</time></trkpt><trkpt lat="45.18000137988425" lon="9.499195420254333"><ele>67.5</ele><time>2026-04-11T10:29:55Z</time></trkpt><trkpt lat="45.17989176706642" lon="9.49934018380108"><ele>67.25</ele><time>2026-04-11T10:29:56Z</time></trkpt><trkpt lat="45.179792154115496" lon="9.499491006760294"><ele>67.0</ele><time>2026-04-11T10:29:57Z</time></trkpt><trkpt lat="45.17970151643665" lon="9.499640881256799"><ele>67.0</ele><time>2026-04-11T10:29:58Z</time></trkpt><trkpt lat="45.179613962344774" lon="9.499778270098487"><ele>67.0</ele><time>2026-04-11T10:29:59Z</time></trkpt><trkpt lat="45.179528538886025" lon="9.499919231239176"><ele>67.0</ele><time>2026-04-11T10:30:00Z</time></trkpt><trkpt lat="45.179439154121475" lon="9.500059967647841"><ele>67.0</ele><time>2026-04-11T10:30:01Z</time></trkpt><trkpt lat="45.17935395914559" lon="9.50018778058543"><ele>67.0</ele><time>2026-04-11T10:30:02Z</time></trkpt><trkpt lat="45.179274014520985" lon="9.500303214972426"><ele>67.0</ele><time>2026-04-11T10:30:03Z</time></trkpt><trkpt lat="45.179186621199264" lon="9.50042227246724"><ele>67.0</ele><time>2026-04-11T10:30:04Z</time></trkpt><trkpt lat="45.17908571235304" lon="9.500539941471525"><ele>67.0</ele><time>2026-04-11T10:30:05Z</time></trkpt><trkpt lat="45.178964666423575" lon="9.500633376032622"><ele>67.4</ele><time>2026-04-11T10:30:06Z</time></trkpt><trkpt lat="45.178863139478125" lon="9.50075070362529"><ele>67.80000000000001</ele><time>2026-04-11T10:30:07Z</time></trkpt><trkpt lat="45.17876730784486" lon="9.50084017220826"><ele>68.2</ele><time>2026-04-11T10:30:08Z</time></trkpt><trkpt lat="45.178679826860076" lon="9.500922961508655"><ele>68.60000000000001</ele><time>2026-04-11T10:30:09Z</time></trkpt><trkpt lat="45.17859765345567" lon="9.500995530775294"><ele>69.0</ele><time>2026-04-11T10:30:10Z</time></trkpt><trkpt lat="45.178520162286404" lon="9.501069290303072"><ele>69.0</ele><time>2026-04-11T10:30:11Z</time></trkpt><trkpt lat="45.17844154124089" lon="9.501148084064196"><ele>69.0</ele><time>2026-04-11T10:30:12Z</time></trkpt><trkpt lat="45.178358200684706" lon="9.501231631437044"><ele>69.0</ele><time>2026-04-11T10:30:13Z</time></trkpt><trkpt lat="45.17827596498734" lon="9.5013124363343"><ele>69.0</ele><time>2026-04-11T10:30:14Z</time></trkpt><trkpt lat="45.17819786096038" lon="9.501395850618065"><ele>69.0</ele><time>2026-04-11T10:30:15Z</time></trkpt><trkpt lat="45.17812918719768" lon="9.501478593664125"><ele>68.83333333333333</ele><time>2026-04-11T10:30:16Z</time></trkpt><trkpt lat="45.17806089760351" lon="9.501548896677912"><ele>68.66666666666667</ele><time>2026-04-11T10:30:17Z</time></trkpt><trkpt lat="45.177984500032444" lon="9.501617143249149"><ele>68.5</ele><time>2026-04-11T10:30:18Z</time></trkpt><trkpt lat="45.17790542005008" lon="9.501672934236195"><ele>68.33333333333334</ele><time>2026-04-11T10:30:19Z</time></trkpt><trkpt lat="45.17782003564934" lon="9.501740357931373"><ele>68.16666666666667</ele><time>2026-04-11T10:30:20Z</time></trkpt><trkpt lat="45.17774690852748" lon="9.501811738855809"><ele>68.0</ele><time>2026-04-11T10:30:21Z</time></trkpt><trkpt lat="45.17768519949421" lon="9.501890464738059"><ele>68.0</ele><time>2026-04-11T10:30:22Z</time></trkpt><trkpt lat="45.17763172071363" lon="9.501965325520963"><ele>68.0</ele><time>2026-04-11T10:30:23Z</time></trkpt><trkpt lat="45.17757578348353" lon="9.502029593748537"><ele>68.0</ele><time>2026-04-11T10:30:24Z</time></trkpt><trkpt lat="45.17752420741945" lon="9.502082834357365"><ele>68.0</ele><time>2026-04-11T10:30:25Z</time></trkpt><trkpt lat="45.177415030202006" lon="9.502162193272806"><ele>68.0</ele><time>2026-04-11T10:30:26.999Z</time></trkpt><trkpt lat="45.177364127473645" lon="9.502220386862522"><ele>68.0</ele><time>2026-04-11T10:30:28.999Z</time></trkpt><trkpt lat="45.17739012870029" lon="9.502375589871507"><ele>67.66666666666667</ele><time>2026-04-11T10:30:31.999Z</time></trkpt><trkpt lat="45.177414419989745" lon="9.502474814816582"><ele>67.33333333333334</ele><time>2026-04-11T10:30:32.999Z</time></trkpt><trkpt lat="45.17742987551462" lon="9.50257412546923"><ele>67.0</ele><time>2026-04-11T10:30:33.999Z</time></trkpt><trkpt lat="45.177441265071366" lon="9.502689978429581"><ele>66.66666666666667</ele><time>2026-04-11T10:30:34.999Z</time></trkpt><trkpt lat="45.177457725432376" lon="9.502815742264561"><ele>66.33333333333333</ele><time>2026-04-11T10:30:35.999Z</time></trkpt><trkpt lat="45.17747620150185" lon="9.502956737136012"><ele>66.0</ele><time>2026-04-11T10:30:36.999Z</time></trkpt><trkpt lat="45.17749859288044" lon="9.503102906403205"><ele>66.0</ele><time>2026-04-11T10:30:37.999Z</time></trkpt><trkpt lat="45.177515182465136" lon="9.503252856348121"><ele>66.0</ele><time>2026-04-11T10:30:38.999Z</time></trkpt><trkpt lat="45.17753279158034" lon="9.50339483965093"><ele>66.0</ele><time>2026-04-11T10:30:39.999Z</time></trkpt><trkpt lat="45.17755248678282" lon="9.503534185502225"><ele>66.0</ele><time>2026-04-11T10:30:40.999Z</time></trkpt><trkpt lat="45.177570365924154" lon="9.503660190440552"><ele>66.0</ele><time>2026-04-11T10:30:41.999Z</time></trkpt><trkpt lat="45.17759180000588" lon="9.503772046976119"><ele>66.14285714285714</ele><time>2026-04-11T10:30:42.999Z</time></trkpt><trkpt lat="45.177607476371485" lon="9.503871119028004"><ele>66.28571428571429</ele><time>2026-04-11T10:30:43.999Z</time></trkpt><trkpt lat="45.17761059242929" lon="9.503975073803321"><ele>66.42857142857143</ele><time>2026-04-11T10:30:44.999Z</time></trkpt><trkpt lat="45.17759672883463" lon="9.504062387653306"><ele>66.57142857142857</ele><time>2026-04-11T10:30:46Z</time></trkpt><trkpt lat="45.17755950965677" lon="9.504134720182561"><ele>66.71428571428571</ele><time>2026-04-11T10:30:47Z</time></trkpt><trkpt lat="45.177501198046144" lon="9.50420412863345"><ele>66.85714285714286</ele><time>2026-04-11T10:30:48Z</time></trkpt><trkpt lat="45.17743490662334" lon="9.504285661091536"><ele>67.0</ele><time>2026-04-11T10:30:49Z</time></trkpt><trkpt lat="45.17737747295905" lon="9.504364516080809"><ele>66.83333333333333</ele><time>2026-04-11T10:30:50Z</time></trkpt><trkpt lat="45.17731937967412" lon="9.504446188079752"><ele>66.66666666666666</ele><time>2026-04-11T10:30:51Z</time></trkpt><trkpt lat="45.1772533384773" lon="9.504517615916118"><ele>66.5</ele><time>2026-04-11T10:30:52Z</time></trkpt><trkpt lat="45.177202805570445" lon="9.504612649817666"><ele>66.33333333333333</ele><time>2026-04-11T10:30:53Z</time></trkpt><trkpt lat="45.17715362730567" lon="9.504723155361921"><ele>66.16666666666667</ele><time>2026-04-11T10:30:54Z</time></trkpt><trkpt lat="45.17711138172405" lon="9.50484105374004"><ele>66.0</ele><time>2026-04-11T10:30:55Z</time></trkpt><trkpt lat="45.17708018914153" lon="9.504968945265912"><ele>66.0</ele><time>2026-04-11T10:30:56Z</time></trkpt><trkpt lat="45.17704428513011" lon="9.505108550650501"><ele>66.0</ele><time>2026-04-11T10:30:57Z</time></trkpt><trkpt lat="45.17700776668339" lon="9.505248613802955"><ele>66.0</ele><time>2026-04-11T10:30:58Z</time></trkpt><trkpt lat="45.17699158746666" lon="9.505406105586477"><ele>66.0</ele><time>2026-04-11T10:30:59Z</time></trkpt><trkpt lat="45.17697166028203" lon="9.505554841522027"><ele>66.0</ele><time>2026-04-11T10:31:00Z</time></trkpt><trkpt lat="45.17694199441373" lon="9.505683174440138"><ele>65.8</ele><time>2026-04-11T10:31:01Z</time></trkpt><trkpt lat="45.1769294152402" lon="9.505812861018374"><ele>65.6</ele><time>2026-04-11T10:31:02Z</time></trkpt><trkpt lat="45.17693568332213" lon="9.505955752879263"><ele>65.4</ele><time>2026-04-11T10:31:03Z</time></trkpt><trkpt lat="45.17693141499239" lon="9.50610604849404"><ele>65.2</ele><time>2026-04-11T10:31:04Z</time></trkpt><trkpt lat="45.176929777859" lon="9.50623676940234"><ele>65.0</ele><time>2026-04-11T10:31:05Z</time></trkpt><trkpt lat="45.17692435389363" lon="9.506364510208414"><ele>65.00000000000001</ele><time>2026-04-11T10:31:06Z</time></trkpt><trkpt lat="45.17692309886097" lon="9.506476870646374"><ele>65.0</ele><time>2026-04-11T10:31:07Z</time></trkpt><trkpt lat="45.1769195483697" lon="9.506582204688357"><ele>65.0</ele><time>2026-04-11T10:31:08Z</time></trkpt><trkpt lat="45.1769213301777" lon="9.506678111826815"><ele>65.0</ele><time>2026-04-11T10:31:09Z</time></trkpt><trkpt lat="45.17694357225229" lon="9.506766113025853"><ele>65.0</ele><time>2026-04-11T10:31:10Z</time></trkpt><trkpt lat="45.1769588696182" lon="9.506861718567157"><ele>65.00000000000001</ele><time>2026-04-11T10:31:11Z</time></trkpt><trkpt lat="45.176970708858995" lon="9.506971035953125"><ele>65.0</ele><time>2026-04-11T10:31:12Z</time></trkpt><trkpt lat="45.176983600445325" lon="9.507096086856603"><ele>64.5</ele><time>2026-04-11T10:31:13Z</time></trkpt><trkpt lat="45.17699935992652" lon="9.50723845170666"><ele>64.0</ele><time>2026-04-11T10:31:14Z</time></trkpt><trkpt lat="45.17702124930253" lon="9.50739768009199"><ele>63.5</ele><time>2026-04-11T10:31:15Z</time></trkpt><trkpt lat="45.177047390509756" lon="9.507570736513692"><ele>63.0</ele><time>2026-04-11T10:31:16Z</time></trkpt><trkpt lat="45.177072963081024" lon="9.507734362771387"><ele>63.0</ele><time>2026-04-11T10:31:17Z</time></trkpt><trkpt lat="45.17708906894655" lon="9.507879960546658"><ele>63.0</ele><time>2026-04-11T10:31:18Z</time></trkpt><trkpt lat="45.1771013232119" lon="9.508014896586438"><ele>63.0</ele><time>2026-04-11T10:31:19Z</time></trkpt><trkpt lat="45.177112693596705" lon="9.508139075599786"><ele>63.0</ele><time>2026-04-11T10:31:20Z</time></trkpt><trkpt lat="45.177132597156685" lon="9.508244418886207"><ele>63.0</ele><time>2026-04-11T10:31:21Z</time></trkpt><trkpt lat="45.17714367321746" lon="9.508342301457175"><ele>63.0</ele><time>2026-04-11T10:31:22Z</time></trkpt><trkpt lat="45.17713292773109" lon="9.508447801076331"><ele>63.0</ele><time>2026-04-11T10:31:23Z</time></trkpt><trkpt lat="45.17708686638358" lon="9.508576212237358"><ele>63.0</ele><time>2026-04-11T10:31:24Z</time></trkpt><trkpt lat="45.177078981868625" lon="9.508719180977295"><ele>63.0</ele><time>2026-04-11T10:31:25Z</time></trkpt><trkpt lat="45.177099297054134" lon="9.508872502972748"><ele>63.0</ele><time>2026-04-11T10:31:26Z</time></trkpt><trkpt lat="45.17710540119465" lon="9.509031477364452"><ele>63.0</ele><time>2026-04-11T10:31:27Z</time></trkpt><trkpt lat="45.177114675220515" lon="9.509197409825957"><ele>63.5</ele><time>2026-04-11T10:31:28Z</time></trkpt><trkpt lat="45.177122830174056" lon="9.509373161401403"><ele>64.0</ele><time>2026-04-11T10:31:29Z</time></trkpt><trkpt lat="45.17713250546266" lon="9.509555650318331"><ele>64.5</ele><time>2026-04-11T10:31:30Z</time></trkpt><trkpt lat="45.177140434871085" lon="9.509715925659433"><ele>65.0</ele><time>2026-04-11T10:31:31Z</time></trkpt><trkpt lat="45.177145709923714" lon="9.509861476161442"><ele>65.0</ele><time>2026-04-11T10:31:32Z</time></trkpt><trkpt lat="45.177146461921176" lon="9.50999471288307"><ele>65.0</ele><time>2026-04-11T10:31:33Z</time></trkpt><trkpt lat="45.17714576354238" lon="9.51011518550442"><ele>65.0</ele><time>2026-04-11T10:31:34Z</time></trkpt><trkpt lat="45.17713131878475" lon="9.510231920928018"><ele>65.0</ele><time>2026-04-11T10:31:35Z</time></trkpt><trkpt lat="45.1771062418613" lon="9.510340187899178"><ele>65.0</ele><time>2026-04-11T10:31:36Z</time></trkpt><trkpt lat="45.177057496945416" lon="9.510427727783206"><ele>65.0</ele><time>2026-04-11T10:31:37Z</time></trkpt><trkpt lat="45.17699450293957" lon="9.510492403599718"><ele>65.0</ele><time>2026-04-11T10:31:38Z</time></trkpt><trkpt lat="45.17692081419813" lon="9.510531015929837"><ele>65.0</ele><time>2026-04-11T10:31:39Z</time></trkpt><trkpt lat="45.176853154473584" lon="9.51055421383572"><ele>65.0</ele><time>2026-04-11T10:31:40Z</time></trkpt><trkpt lat="45.17678905385763" lon="9.510533256229929"><ele>65.0</ele><time>2026-04-11T10:31:41Z</time></trkpt><trkpt lat="45.17668526173424" lon="9.510601693891747"><ele>65.0</ele><time>2026-04-11T10:31:43Z</time></trkpt><trkpt lat="45.17664683415991" lon="9.510684522749742"><ele>65.0</ele><time>2026-04-11T10:31:45Z</time></trkpt><trkpt lat="45.17662605160344" lon="9.51078786249326"><ele>65.0</ele><time>2026-04-11T10:31:47Z</time></trkpt><trkpt lat="45.17662185272746" lon="9.51088102045787"><ele>65.0</ele><time>2026-04-11T10:31:48Z</time></trkpt><trkpt lat="45.176627409764976" lon="9.510996591037927"><ele>65.0</ele><time>2026-04-11T10:31:49Z</time></trkpt><trkpt lat="45.17664801001853" lon="9.511130487512585"><ele>65.0</ele><time>2026-04-11T10:31:50Z</time></trkpt><trkpt lat="45.17667034906262" lon="9.5112821989722"><ele>65.0</ele><time>2026-04-11T10:31:51Z</time></trkpt><trkpt lat="45.176673067579586" lon="9.511461024854006"><ele>65.0</ele><time>2026-04-11T10:31:52Z</time></trkpt><trkpt lat="45.176686938833704" lon="9.511621295377644"><ele>65.0</ele><time>2026-04-11T10:31:53Z</time></trkpt><trkpt lat="45.17671366087049" lon="9.511759643488109"><ele>65.0</ele><time>2026-04-11T10:31:54Z</time></trkpt><trkpt lat="45.17672227505042" lon="9.511886728358995"><ele>65.0</ele><time>2026-04-11T10:31:55Z</time></trkpt><trkpt lat="45.17672815560421" lon="9.512006008188353"><ele>65.0</ele><time>2026-04-11T10:31:55.999Z</time></trkpt><trkpt lat="45.17672767259779" lon="9.51211544062982"><ele>65.0</ele><time>2026-04-11T10:31:56.999Z</time></trkpt><trkpt lat="45.17670920811218" lon="9.51221463087769"><ele>65.0</ele><time>2026-04-11T10:31:57.999Z</time></trkpt><trkpt lat="45.17660993393503" lon="9.512302541680391"><ele>65.0</ele><time>2026-04-11T10:31:59.999Z</time></trkpt><trkpt lat="45.1765490161587" lon="9.512245900249304"><ele>65.0</ele><time>2026-04-11T10:32:00.999Z</time></trkpt><trkpt lat="45.17648602215748" lon="9.512228209949578"><ele>65.0</ele><time>2026-04-11T10:32:01.999Z</time></trkpt><trkpt lat="45.176414806353066" lon="9.51221023090231"><ele>65.0</ele><time>2026-04-11T10:32:02.999Z</time></trkpt><trkpt lat="45.17634217258626" lon="9.512201113118193"><ele>64.83333333333334</ele><time>2026-04-11T10:32:03.999Z</time></trkpt><trkpt lat="45.17628098517609" lon="9.512224766145401"><ele>64.66666666666667</ele><time>2026-04-11T10:32:04.999Z</time></trkpt><trkpt lat="45.17618163676879" lon="9.512275955822632"><ele>64.5</ele><time>2026-04-11T10:32:06.999Z</time></trkpt><trkpt lat="45.17611346527318" lon="9.512436502560563"><ele>64.33333333333333</ele><time>2026-04-11T10:32:08.999Z</time></trkpt><trkpt lat="45.17609339042919" lon="9.512532195133971"><ele>64.16666666666666</ele><time>2026-04-11T10:32:09.999Z</time></trkpt><trkpt lat="45.17608596783465" lon="9.512630466009751"><ele>64.0</ele><time>2026-04-11T10:32:10.999Z</time></trkpt><trkpt lat="45.17608956230253" lon="9.512739975448143"><ele>64.0</ele><time>2026-04-11T10:32:11.999Z</time></trkpt><trkpt lat="45.176081039659515" lon="9.512841512415728"><ele>64.0</ele><time>2026-04-11T10:32:12.999Z</time></trkpt><trkpt lat="45.17607937594971" lon="9.512943907092549"><ele>64.0</ele><time>2026-04-11T10:32:13.999Z</time></trkpt><trkpt lat="45.176078149300544" lon="9.513072898899846"><ele>64.0</ele><time>2026-04-11T10:32:14.999Z</time></trkpt><trkpt lat="45.17609654767238" lon="9.513374586610203"><ele>64.0</ele><time>2026-04-11T10:32:16.999Z</time></trkpt><trkpt lat="45.17609876533188" lon="9.513552720077621"><ele>64.0</ele><time>2026-04-11T10:32:17.999Z</time></trkpt><trkpt lat="45.17610767009389" lon="9.513720917935418"><ele>64.0</ele><time>2026-04-11T10:32:18.999Z</time></trkpt><trkpt lat="45.17612996321687" lon="9.513867991832553"><ele>64.0</ele><time>2026-04-11T10:32:19.999Z</time></trkpt><trkpt lat="45.176164183692876" lon="9.514011146541122"><ele>64.0</ele><time>2026-04-11T10:32:20.999Z</time></trkpt><trkpt lat="45.176217071873424" lon="9.514160773023763"><ele>64.0</ele><time>2026-04-11T10:32:22Z</time></trkpt><trkpt lat="45.17627844222716" lon="9.514299808087204"><ele>64.0</ele><time>2026-04-11T10:32:23Z</time></trkpt><trkpt lat="45.176328226275196" lon="9.514421557983116"><ele>64.0</ele><time>2026-04-11T10:32:24Z</time></trkpt><trkpt lat="45.17634156150048" lon="9.51454836308481"><ele>64.0</ele><time>2026-04-11T10:32:25Z</time></trkpt><trkpt lat="45.17634890912344" lon="9.514659773760409"><ele>64.0</ele><time>2026-04-11T10:32:26Z</time></trkpt><trkpt lat="45.1763564566981" lon="9.514780851322339"><ele>64.0</ele><time>2026-04-11T10:32:27Z</time></trkpt><trkpt lat="45.176383609325775" lon="9.514918982379394"><ele>64.25</ele><time>2026-04-11T10:32:28Z</time></trkpt><trkpt lat="45.176396634785995" lon="9.515069026032062"><ele>64.5</ele><time>2026-04-11T10:32:29Z</time></trkpt><trkpt lat="45.17642312329746" lon="9.515230269324526"><ele>64.75</ele><time>2026-04-11T10:32:30Z</time></trkpt><trkpt lat="45.17646493039628" lon="9.515403272566914"><ele>65.0</ele><time>2026-04-11T10:32:31Z</time></trkpt><trkpt lat="45.176511603895605" lon="9.515592380432116"><ele>64.75</ele><time>2026-04-11T10:32:32Z</time></trkpt><trkpt lat="45.17654900855306" lon="9.515804037830991"><ele>64.5</ele><time>2026-04-11T10:32:33Z</time></trkpt><trkpt lat="45.17658114171526" lon="9.516003076174908"><ele>64.25</ele><time>2026-04-11T10:32:34Z</time></trkpt><trkpt lat="45.176610291645865" lon="9.51618497341887"><ele>64.0</ele><time>2026-04-11T10:32:35Z</time></trkpt><trkpt lat="45.17664795834399" lon="9.516380199158517"><ele>63.75</ele><time>2026-04-11T10:32:36Z</time></trkpt><trkpt lat="45.176702453733206" lon="9.516582419631026"><ele>63.5</ele><time>2026-04-11T10:32:37Z</time></trkpt><trkpt lat="45.17675292704958" lon="9.516777382607327"><ele>63.25</ele><time>2026-04-11T10:32:38Z</time></trkpt><trkpt lat="45.17679247187688" lon="9.516956033513841"><ele>63.0</ele><time>2026-04-11T10:32:39Z</time></trkpt><trkpt lat="45.176824387233324" lon="9.517121688789734"><ele>62.8</ele><time>2026-04-11T10:32:40Z</time></trkpt><trkpt lat="45.17684713541848" lon="9.517279017697925"><ele>62.599999999999994</ele><time>2026-04-11T10:32:41Z</time></trkpt><trkpt lat="45.17686305462534" lon="9.517429187614384"><ele>62.400000000000006</ele><time>2026-04-11T10:32:42Z</time></trkpt><trkpt lat="45.17687376194937" lon="9.517580412855521"><ele>62.2</ele><time>2026-04-11T10:32:43Z</time></trkpt><trkpt lat="45.17687578966498" lon="9.517731084109656"><ele>62.0</ele><time>2026-04-11T10:32:44Z</time></trkpt><trkpt lat="45.17687686617731" lon="9.517882365322158"><ele>62.2</ele><time>2026-04-11T10:32:45Z</time></trkpt><trkpt lat="45.17687805617532" lon="9.518034955570021"><ele>62.400000000000006</ele><time>2026-04-11T10:32:46Z</time></trkpt><trkpt lat="45.17688105517613" lon="9.518155440230425"><ele>62.599999999999994</ele><time>2026-04-11T10:32:47Z</time></trkpt><trkpt lat="45.17687721334632" lon="9.518290448957575"><ele>62.8</ele><time>2026-04-11T10:32:48Z</time></trkpt><trkpt lat="45.17686231253203" lon="9.518436324266986"><ele>63.0</ele><time>2026-04-11T10:32:49Z</time></trkpt><trkpt lat="45.176835106423056" lon="9.518630455134565"><ele>62.66666666666667</ele><time>2026-04-11T10:32:50Z</time></trkpt><trkpt lat="45.17679937787443" lon="9.518853507483861"><ele>62.333333333333336</ele><time>2026-04-11T10:32:51Z</time></trkpt><trkpt lat="45.1767675839845" lon="9.51907578643441"><ele>62.0</ele><time>2026-04-11T10:32:52Z</time></trkpt><trkpt lat="45.176725238393075" lon="9.519310913283915"><ele>62.0</ele><time>2026-04-11T10:32:53Z</time></trkpt><trkpt lat="45.17667003009862" lon="9.519554595165493"><ele>62.0</ele><time>2026-04-11T10:32:54Z</time></trkpt><trkpt lat="45.17661049479387" lon="9.519802982815195"><ele>62.0</ele><time>2026-04-11T10:32:55Z</time></trkpt><trkpt lat="45.17655097287955" lon="9.520048539066993"><ele>62.333333333333336</ele><time>2026-04-11T10:32:56Z</time></trkpt><trkpt lat="45.1764960040241" lon="9.520267932055"><ele>62.66666666666667</ele><time>2026-04-11T10:32:57Z</time></trkpt><trkpt lat="45.17644443545752" lon="9.52047141884226"><ele>63.0</ele><time>2026-04-11T10:32:58Z</time></trkpt><trkpt lat="45.176376345618415" lon="9.520669510857314"><ele>63.0</ele><time>2026-04-11T10:32:59Z</time></trkpt><trkpt lat="45.176287485040255" lon="9.520877422269617"><ele>63.0</ele><time>2026-04-11T10:33:00Z</time></trkpt><trkpt lat="45.17619457083985" lon="9.521073051151355"><ele>63.0</ele><time>2026-04-11T10:33:01Z</time></trkpt><trkpt lat="45.17610720251679" lon="9.521229145354564"><ele>62.75</ele><time>2026-04-11T10:33:02Z</time></trkpt><trkpt lat="45.17601416527408" lon="9.521343750590644"><ele>62.5</ele><time>2026-04-11T10:33:03Z</time></trkpt><trkpt lat="45.17590353187921" lon="9.521390278590658"><ele>62.25</ele><time>2026-04-11T10:33:04Z</time></trkpt><trkpt lat="45.175791373224314" lon="9.521381510852908"><ele>62.0</ele><time>2026-04-11T10:33:05Z</time></trkpt><trkpt lat="45.17568426528943" lon="9.521303724059447"><ele>62.0</ele><time>2026-04-11T10:33:06Z</time></trkpt><trkpt lat="45.17556593717298" lon="9.521236425894426"><ele>62.0</ele><time>2026-04-11T10:33:07Z</time></trkpt><trkpt lat="45.175433269005616" lon="9.521185060465717"><ele>62.0</ele><time>2026-04-11T10:33:08Z</time></trkpt><trkpt lat="45.17530114927185" lon="9.521085491048012"><ele>62.0</ele><time>2026-04-11T10:33:09Z</time></trkpt><trkpt lat="45.17514485312428" lon="9.521022937728016"><ele>62.0</ele><time>2026-04-11T10:33:10Z</time></trkpt><trkpt lat="45.17498311027805" lon="9.52092175457691"><ele>62.0</ele><time>2026-04-11T10:33:11Z</time></trkpt><trkpt lat="45.17481436170476" lon="9.520809878300119"><ele>62.0</ele><time>2026-04-11T10:33:12Z</time></trkpt><trkpt lat="45.174652699257585" lon="9.52066139066431"><ele>62.0</ele><time>2026-04-11T10:33:13Z</time></trkpt><trkpt lat="45.17447854939958" lon="9.520521143947215"><ele>62.0</ele><time>2026-04-11T10:33:14Z</time></trkpt><trkpt lat="45.174292418233755" lon="9.520397788243052"><ele>62.0</ele><time>2026-04-11T10:33:15.001Z</time></trkpt><trkpt lat="45.17411017779338" lon="9.520250947400964"><ele>62.66666666666667</ele><time>2026-04-11T10:33:16.001Z</time></trkpt><trkpt lat="45.17394262417356" lon="9.520094735424992"><ele>63.33333333333333</ele><time>2026-04-11T10:33:17.001Z</time></trkpt><trkpt lat="45.17377565113782" lon="9.519995043572177"><ele>64.0</ele><time>2026-04-11T10:33:18.001Z</time></trkpt><trkpt lat="45.17361889300169" lon="9.519886010743305"><ele>64.0</ele><time>2026-04-11T10:33:19.001Z</time></trkpt><trkpt lat="45.173448160530754" lon="9.51988589335264"><ele>64.0</ele><time>2026-04-11T10:33:20.001Z</time></trkpt><trkpt lat="45.173283684647686" lon="9.51982400443794"><ele>64.0</ele><time>2026-04-11T10:33:21.001Z</time></trkpt><trkpt lat="45.173101583290446" lon="9.519714934270434"><ele>64.0</ele><time>2026-04-11T10:33:22.001Z</time></trkpt><trkpt lat="45.17293398711571" lon="9.519568890309287"><ele>64.0</ele><time>2026-04-11T10:33:23.001Z</time></trkpt><trkpt lat="45.17278582465577" lon="9.519459571659906"><ele>64.0</ele><time>2026-04-11T10:33:24.001Z</time></trkpt><trkpt lat="45.17265642877796" lon="9.51936410158233"><ele>64.0</ele><time>2026-04-11T10:33:25.001Z</time></trkpt><trkpt lat="45.17252693503619" lon="9.519268557026447"><ele>64.0</ele><time>2026-04-11T10:33:26.001Z</time></trkpt><trkpt lat="45.172387323381535" lon="9.519165547420393"><ele>64.0</ele><time>2026-04-11T10:33:27.001Z</time></trkpt><trkpt lat="45.172252208355566" lon="9.519091617490842"><ele>64.0</ele><time>2026-04-11T10:33:28.001Z</time></trkpt><trkpt lat="45.172139153626816" lon="9.519004803470464"><ele>63.99999999999999</ele><time>2026-04-11T10:33:29.001Z</time></trkpt><trkpt lat="45.17204064852237" lon="9.518934594683941"><ele>64.0</ele><time>2026-04-11T10:33:30.001Z</time></trkpt><trkpt lat="45.17195256856512" lon="9.5189119967976"><ele>64.0</ele><time>2026-04-11T10:33:31.001Z</time></trkpt><trkpt lat="45.171875649122086" lon="9.51893391261517"><ele>64.0</ele><time>2026-04-11T10:33:32.001Z</time></trkpt><trkpt lat="45.17180870671759" lon="9.518988939795909"><ele>63.99999999999999</ele><time>2026-04-11T10:33:33.001Z</time></trkpt><trkpt lat="45.171765507146056" lon="9.519057609525614"><ele>64.0</ele><time>2026-04-11T10:33:34.001Z</time></trkpt><trkpt lat="45.171719199371076" lon="9.519135458398258"><ele>64.0</ele><time>2026-04-11T10:33:35.001Z</time></trkpt><trkpt lat="45.171665934011564" lon="9.519237886183264"><ele>64.0</ele><time>2026-04-11T10:33:36.001Z</time></trkpt><trkpt lat="45.17159886409268" lon="9.519361206297454"><ele>64.0</ele><time>2026-04-11T10:33:37.001Z</time></trkpt><trkpt lat="45.17152257558" lon="9.519499862046537"><ele>64.0</ele><time>2026-04-11T10:33:38.001Z</time></trkpt><trkpt lat="45.17144468894299" lon="9.519655615630986"><ele>64.0</ele><time>2026-04-11T10:33:39.001Z</time></trkpt><trkpt lat="45.17137129592535" lon="9.519830864558157"><ele>64.0</ele><time>2026-04-11T10:33:40.001Z</time></trkpt><trkpt lat="45.17129854925967" lon="9.520025284641813"><ele>64.0</ele><time>2026-04-11T10:33:41.001Z</time></trkpt><trkpt lat="45.17122206054584" lon="9.520217370151032"><ele>64.0</ele><time>2026-04-11T10:33:42.001Z</time></trkpt><trkpt lat="45.17113755238945" lon="9.520378468666983"><ele>64.0</ele><time>2026-04-11T10:33:43.001Z</time></trkpt><trkpt lat="45.17103258280637" lon="9.520501303589"><ele>64.0</ele><time>2026-04-11T10:33:44.001Z</time></trkpt><trkpt lat="45.17090126767492" lon="9.520614135633348"><ele>64.0</ele><time>2026-04-11T10:33:45.001Z</time></trkpt><trkpt lat="45.17075724738157" lon="9.520735389639569"><ele>63.666666666666664</ele><time>2026-04-11T10:33:46.001Z</time></trkpt><trkpt lat="45.17061104510721" lon="9.520856381990665"><ele>63.33333333333333</ele><time>2026-04-11T10:33:47.001Z</time></trkpt><trkpt lat="45.170456248744934" lon="9.52097628495279"><ele>63.0</ele><time>2026-04-11T10:33:48.001Z</time></trkpt><trkpt lat="45.17028272754692" lon="9.52109647071586"><ele>63.0</ele><time>2026-04-11T10:33:49.001Z</time></trkpt><trkpt lat="45.17010145265401" lon="9.521209962342862"><ele>63.0</ele><time>2026-04-11T10:33:50.001Z</time></trkpt><trkpt lat="45.16991481389303" lon="9.521318240273239"><ele>63.0</ele><time>2026-04-11T10:33:51.001Z</time></trkpt><trkpt lat="45.1697258494832" lon="9.521423144658764"><ele>63.0</ele><time>2026-04-11T10:33:52.001Z</time></trkpt><trkpt lat="45.169532924660395" lon="9.521533460311863"><ele>63.0</ele><time>2026-04-11T10:33:53.001Z</time></trkpt><trkpt lat="45.16933920128737" lon="9.52165008715808"><ele>63.0</ele><time>2026-04-11T10:33:54.001Z</time></trkpt><trkpt lat="45.16914721611527" lon="9.521775372351843"><ele>63.0</ele><time>2026-04-11T10:33:55.001Z</time></trkpt><trkpt lat="45.16895193819919" lon="9.521882225035808"><ele>63.0</ele><time>2026-04-11T10:33:56.001Z</time></trkpt><trkpt lat="45.168760616033566" lon="9.52201169363714"><ele>63.0</ele><time>2026-04-11T10:33:57.001Z</time></trkpt><trkpt lat="45.16857203791985" lon="9.522164663058946"><ele>63.0</ele><time>2026-04-11T10:33:58.001Z</time></trkpt><trkpt lat="45.16837971853955" lon="9.522292391918443"><ele>63.0</ele><time>2026-04-11T10:33:59.001Z</time></trkpt><trkpt lat="45.16818882667636" lon="9.522404720163232"><ele>63.0</ele><time>2026-04-11T10:34:00.001Z</time></trkpt><trkpt lat="45.167988496968185" lon="9.522505673184288"><ele>63.0</ele><time>2026-04-11T10:34:01.001Z</time></trkpt><trkpt lat="45.16778372630979" lon="9.522604777752225"><ele>63.0</ele><time>2026-04-11T10:34:02Z</time></trkpt><trkpt lat="45.167576219325994" lon="9.522705988939498"><ele>63.0</ele><time>2026-04-11T10:34:03Z</time></trkpt><trkpt lat="45.16736793628309" lon="9.522809749745397"><ele>63.0</ele><time>2026-04-11T10:34:04Z</time></trkpt><trkpt lat="45.16715792157645" lon="9.522912768947931"><ele>63.0</ele><time>2026-04-11T10:34:05Z</time></trkpt><trkpt lat="45.16694702480077" lon="9.523012115901428"><ele>63.0</ele><time>2026-04-11T10:34:06Z</time></trkpt><trkpt lat="45.16673387502166" lon="9.523111118912073"><ele>63.0</ele><time>2026-04-11T10:34:07Z</time></trkpt><trkpt lat="45.166529977272084" lon="9.523211131560483"><ele>63.0</ele><time>2026-04-11T10:34:08Z</time></trkpt><trkpt lat="45.16634700268141" lon="9.523308366319405"><ele>63.0</ele><time>2026-04-11T10:34:09Z</time></trkpt><trkpt lat="45.166174214862615" lon="9.523397320791045"><ele>62.66666666666667</ele><time>2026-04-11T10:34:10Z</time></trkpt><trkpt lat="45.1660119264206" lon="9.523478374100637"><ele>62.333333333333336</ele><time>2026-04-11T10:34:11Z</time></trkpt><trkpt lat="45.16585254015358" lon="9.523553588056709"><ele>62.0</ele><time>2026-04-11T10:34:12Z</time></trkpt><trkpt lat="45.16569322620322" lon="9.523624637202962"><ele>61.75</ele><time>2026-04-11T10:34:13Z</time></trkpt><trkpt lat="45.16554760553134" lon="9.523684981096526"><ele>61.5</ele><time>2026-04-11T10:34:14Z</time></trkpt><trkpt lat="45.165418121219204" lon="9.523737046313395"><ele>61.25</ele><time>2026-04-11T10:34:15Z</time></trkpt><trkpt lat="45.16530099072141" lon="9.523773461745273"><ele>61.0</ele><time>2026-04-11T10:34:16Z</time></trkpt><trkpt lat="45.16519150351124" lon="9.523791018475688"><ele>61.0</ele><time>2026-04-11T10:34:17Z</time></trkpt><trkpt lat="45.165083828374044" lon="9.523782834380963"><ele>60.99999999999999</ele><time>2026-04-11T10:34:18Z</time></trkpt><trkpt lat="45.16498771705401" lon="9.52374723325855"><ele>60.99999999999999</ele><time>2026-04-11T10:34:19Z</time></trkpt><trkpt lat="45.164896283157084" lon="9.523762091285553"><ele>61.0</ele><time>2026-04-11T10:34:20Z</time></trkpt><trkpt lat="45.16481594742844" lon="9.523830070039505"><ele>61.0</ele><time>2026-04-11T10:34:21Z</time></trkpt><trkpt lat="45.16476704327813" lon="9.523935566754183"><ele>61.25</ele><time>2026-04-11T10:34:22Z</time></trkpt><trkpt lat="45.1647479744422" lon="9.524072592816621"><ele>61.5</ele><time>2026-04-11T10:34:23Z</time></trkpt><trkpt lat="45.16477924969191" lon="9.524222816318735"><ele>61.75</ele><time>2026-04-11T10:34:24Z</time></trkpt><trkpt lat="45.16465871342909" lon="9.524345908701731"><ele>62.0</ele><time>2026-04-11T10:34:25Z</time></trkpt><trkpt lat="45.164593347272245" lon="9.524460584138998"><ele>62.0</ele><time>2026-04-11T10:34:26Z</time></trkpt><trkpt lat="45.16454872805215" lon="9.524564932206314"><ele>62.0</ele><time>2026-04-11T10:34:27Z</time></trkpt><trkpt lat="45.164559474086644" lon="9.524714274416379"><ele>62.0</ele><time>2026-04-11T10:34:28Z</time></trkpt><trkpt lat="45.16456021523897" lon="9.524936993356508"><ele>62.0</ele><time>2026-04-11T10:34:29Z</time></trkpt><trkpt lat="45.16457234491065" lon="9.525217874847597"><ele>62.333333333333336</ele><time>2026-04-11T10:34:30Z</time></trkpt><trkpt lat="45.1645872271232" lon="9.52549814260561"><ele>62.66666666666667</ele><time>2026-04-11T10:34:31Z</time></trkpt><trkpt lat="45.16459472918324" lon="9.52577685213962"><ele>63.0</ele><time>2026-04-11T10:34:32Z</time></trkpt><trkpt lat="45.164607546294704" lon="9.526061315377065"><ele>62.66666666666667</ele><time>2026-04-11T10:34:33Z</time></trkpt><trkpt lat="45.16462278034392" lon="9.52631925250125"><ele>62.333333333333336</ele><time>2026-04-11T10:34:34Z</time></trkpt><trkpt lat="45.16463499568272" lon="9.526553655002465"><ele>62.0</ele><time>2026-04-11T10:34:35Z</time></trkpt><trkpt lat="45.16464643254005" lon="9.526757975626165"><ele>62.00000000000001</ele><time>2026-04-11T10:34:36Z</time></trkpt><trkpt lat="45.16465422277241" lon="9.52694689858088"><ele>62.0</ele><time>2026-04-11T10:34:37.001Z</time></trkpt><trkpt lat="45.16465856934836" lon="9.527089132566761"><ele>62.0</ele><time>2026-04-11T10:34:38.001Z</time></trkpt><trkpt lat="45.16466125648959" lon="9.5272146423624"><ele>62.0</ele><time>2026-04-11T10:34:39.001Z</time></trkpt><trkpt lat="45.1646648197743" lon="9.527304172350663"><ele>62.00000000000001</ele><time>2026-04-11T10:34:40.001Z</time></trkpt><trkpt lat="45.164684952311454" lon="9.527389810808984"><ele>62.0</ele><time>2026-04-11T10:34:42.001Z</time></trkpt><trkpt lat="45.16482593193212" lon="9.52740013954244"><ele>61.400000000000006</ele><time>2026-04-11T10:34:45.001Z</time></trkpt><trkpt lat="45.16489173580332" lon="9.527335399810568"><ele>60.800000000000004</ele><time>2026-04-11T10:34:46.001Z</time></trkpt><trkpt lat="45.16496694258221" lon="9.52726806356079"><ele>60.2</ele><time>2026-04-11T10:34:47.001Z</time></trkpt><trkpt lat="45.16504819007863" lon="9.52717915374342"><ele>59.6</ele><time>2026-04-11T10:34:48Z</time></trkpt><trkpt lat="45.16513175293803" lon="9.527091634128077"><ele>59.0</ele><time>2026-04-11T10:34:49Z</time></trkpt><trkpt lat="45.165208272926314" lon="9.527025038529304"><ele>59.00000000000001</ele><time>2026-04-11T10:34:50Z</time></trkpt><trkpt lat="45.16527409658484" lon="9.526964044382678"><ele>59.0</ele><time>2026-04-11T10:34:51Z</time></trkpt><trkpt lat="45.16533571149959" lon="9.526903580996407"><ele>59.0</ele><time>2026-04-11T10:34:52Z</time></trkpt><trkpt lat="45.165394981939365" lon="9.526864434957497"><ele>59.0</ele><time>2026-04-11T10:34:53Z</time></trkpt><trkpt lat="45.16545823291354" lon="9.526852602831495"><ele>59.00000000000001</ele><time>2026-04-11T10:34:54Z</time></trkpt><trkpt lat="45.16554312215992" lon="9.526879831548886"><ele>59.0</ele><time>2026-04-11T10:34:56Z</time></trkpt><trkpt lat="45.16561512135279" lon="9.5270309864655"><ele>59.0</ele><time>2026-04-11T10:35:00Z</time></trkpt><trkpt lat="45.165640879762016" lon="9.52714348789715"><ele>59.00000000000001</ele><time>2026-04-11T10:35:01Z</time></trkpt><trkpt lat="45.16565705353623" lon="9.52726824049511"><ele>59.00000000000001</ele><time>2026-04-11T10:35:02Z</time></trkpt><trkpt lat="45.165681165220214" lon="9.527417263531353"><ele>59.0</ele><time>2026-04-11T10:35:03Z</time></trkpt><trkpt lat="45.16570247516525" lon="9.527578267625076"><ele>59.0</ele><time>2026-04-11T10:35:04Z</time></trkpt><trkpt lat="45.165720102695715" lon="9.527755308471594"><ele>58.0</ele><time>2026-04-11T10:35:05Z</time></trkpt><trkpt lat="45.165732776465525" lon="9.527945704820317"><ele>57.0</ele><time>2026-04-11T10:35:06Z</time></trkpt><trkpt lat="45.16573978947859" lon="9.528161551369118"><ele>56.0</ele><time>2026-04-11T10:35:07Z</time></trkpt><trkpt lat="45.16574316303814" lon="9.5283878826414"><ele>55.0</ele><time>2026-04-11T10:35:08Z</time></trkpt><trkpt lat="45.16574471976495" lon="9.528626356767417"><ele>54.0</ele><time>2026-04-11T10:35:09Z</time></trkpt><trkpt lat="45.16574695851884" lon="9.52887842900294"><ele>53.0</ele><time>2026-04-11T10:35:10Z</time></trkpt><trkpt lat="45.16574758061517" lon="9.529143260076298"><ele>52.0</ele><time>2026-04-11T10:35:11Z</time></trkpt><trkpt lat="45.16574749544425" lon="9.529415451624537"><ele>52.0</ele><time>2026-04-11T10:35:12Z</time></trkpt><trkpt lat="45.16575093321652" lon="9.529694478568898"><ele>52.0</ele><time>2026-04-11T10:35:13Z</time></trkpt><trkpt lat="45.16575239016018" lon="9.529982846001944"><ele>52.0</ele><time>2026-04-11T10:35:14Z</time></trkpt><trkpt lat="45.16575417671847" lon="9.530279640210294"><ele>52.0</ele><time>2026-04-11T10:35:15Z</time></trkpt><trkpt lat="45.16575666556685" lon="9.530577201903894"><ele>52.0</ele><time>2026-04-11T10:35:16Z</time></trkpt><trkpt lat="45.16575877854143" lon="9.530886945251325"><ele>52.0</ele><time>2026-04-11T10:35:17Z</time></trkpt><trkpt lat="45.165760310038785" lon="9.5311942563956"><ele>51.666666666666664</ele><time>2026-04-11T10:35:18Z</time></trkpt><trkpt lat="45.165760718924375" lon="9.53147500288455"><ele>51.33333333333333</ele><time>2026-04-11T10:35:19Z</time></trkpt><trkpt lat="45.165762186897055" lon="9.531737922305798"><ele>51.0</ele><time>2026-04-11T10:35:20Z</time></trkpt><trkpt lat="45.165761532983936" lon="9.531988313208364"><ele>51.0</ele><time>2026-04-11T10:35:21Z</time></trkpt><trkpt lat="45.16576296892909" lon="9.53222209272079"><ele>51.0</ele><time>2026-04-11T10:35:22Z</time></trkpt><trkpt lat="45.16576293974696" lon="9.532437890287323"><ele>51.0</ele><time>2026-04-11T10:35:23Z</time></trkpt><trkpt lat="45.165761703820586" lon="9.53260551358347"><ele>51.0</ele><time>2026-04-11T10:35:24Z</time></trkpt><trkpt lat="45.16576165918549" lon="9.532736738822615"><ele>51.0</ele><time>2026-04-11T10:35:25Z</time></trkpt><trkpt lat="45.16575184442026" lon="9.53286249080607"><ele>51.0</ele><time>2026-04-11T10:35:27Z</time></trkpt><trkpt lat="45.1656166720957" lon="9.532835761941099"><ele>51.0</ele><time>2026-04-11T10:35:33Z</time></trkpt><trkpt lat="45.165524109343885" lon="9.532778699825629"><ele>51.0</ele><time>2026-04-11T10:35:36Z</time></trkpt><trkpt lat="45.16543938495201" lon="9.532725484617968"><ele>51.0</ele><time>2026-04-11T10:35:38Z</time></trkpt><trkpt lat="45.165356878837535" lon="9.532673257359598"><ele>51.166666666666664</ele><time>2026-04-11T10:35:40Z</time></trkpt><trkpt lat="45.16528634820308" lon="9.532625040206959"><ele>51.33333333333333</ele><time>2026-04-11T10:35:42Z</time></trkpt><trkpt lat="45.16520727532244" lon="9.53257427437722"><ele>51.5</ele><time>2026-04-11T10:35:45.001Z</time></trkpt><trkpt lat="45.16513913765553" lon="9.532536641867562"><ele>51.666666666666664</ele><time>2026-04-11T10:35:48.001Z</time></trkpt><trkpt lat="45.165077604438146" lon="9.532580104991727"><ele>51.83333333333333</ele><time>2026-04-11T10:35:52.001Z</time></trkpt><trkpt lat="45.16515005029791" lon="9.532627692564178"><ele>52.0</ele><time>2026-04-11T10:35:55.001Z</time></trkpt><trkpt lat="45.16523351520507" lon="9.532614993154269"><ele>51.99999999999999</ele><time>2026-04-11T10:35:57.001Z</time></trkpt><trkpt lat="45.165313924633004" lon="9.532655760296628"><ele>52.0</ele><time>2026-04-11T10:35:59.001Z</time></trkpt><trkpt lat="45.16539530782265" lon="9.532699500428636"><ele>52.0</ele><time>2026-04-11T10:36:01.001Z</time></trkpt><trkpt lat="45.16547541213087" lon="9.53275622023625"><ele>52.0</ele><time>2026-04-11T10:36:03.001Z</time></trkpt><trkpt lat="45.16554190895988" lon="9.532796704014356"><ele>51.99999999999999</ele><time>2026-04-11T10:36:05.001Z</time></trkpt><trkpt lat="45.16560032583715" lon="9.532838740097482"><ele>52.0</ele><time>2026-04-11T10:36:08Z</time></trkpt><trkpt lat="45.16567630665773" lon="9.532890952576698"><ele>52.2</ele><time>2026-04-11T10:36:12Z</time></trkpt><trkpt lat="45.165735270551366" lon="9.532927044211657"><ele>52.400000000000006</ele><time>2026-04-11T10:36:38Z</time></trkpt><trkpt lat="45.16577730559841" lon="9.533062443009728"><ele>52.599999999999994</ele><time>2026-04-11T10:36:41Z</time></trkpt><trkpt lat="45.16577043154146" lon="9.533197716905478"><ele>52.8</ele><time>2026-04-11T10:36:42Z</time></trkpt><trkpt lat="45.16576788289174" lon="9.533333259440866"><ele>53.0</ele><time>2026-04-11T10:36:43Z</time></trkpt><trkpt lat="45.1657656405975" lon="9.533490039000352"><ele>53.0</ele><time>2026-04-11T10:36:44Z</time></trkpt><trkpt lat="45.16576609202615" lon="9.533671173979597"><ele>53.0</ele><time>2026-04-11T10:36:45Z</time></trkpt><trkpt lat="45.16576717454979" lon="9.533855738596621"><ele>53.0</ele><time>2026-04-11T10:36:46Z</time></trkpt><trkpt lat="45.16576630033747" lon="9.534044689816824"><ele>53.0</ele><time>2026-04-11T10:36:47Z</time></trkpt><trkpt lat="45.16576944985577" lon="9.53424155033186"><ele>53.66666666666667</ele><time>2026-04-11T10:36:48Z</time></trkpt><trkpt lat="45.16577037917534" lon="9.534451322051341"><ele>54.33333333333333</ele><time>2026-04-11T10:36:49Z</time></trkpt><trkpt lat="45.16577108541879" lon="9.534655759369931"><ele>55.0</ele><time>2026-04-11T10:36:50Z</time></trkpt><trkpt lat="45.165777510068324" lon="9.53506684472401"><ele>55.0</ele><time>2026-04-11T10:36:52Z</time></trkpt><trkpt lat="45.16578283107617" lon="9.535277870722599"><ele>55.0</ele><time>2026-04-11T10:36:53Z</time></trkpt><trkpt lat="45.16578358688296" lon="9.53548229470473"><ele>55.0</ele><time>2026-04-11T10:36:54Z</time></trkpt><trkpt lat="45.16578318470086" lon="9.535685860945456"><ele>55.0</ele><time>2026-04-11T10:36:55Z</time></trkpt><trkpt lat="45.16578261225636" lon="9.535889685699248"><ele>55.0</ele><time>2026-04-11T10:36:56Z</time></trkpt><trkpt lat="45.16578353962909" lon="9.536092705964142"><ele>55.0</ele><time>2026-04-11T10:36:57Z</time></trkpt><trkpt lat="45.16578521297295" lon="9.53629818946902"><ele>55.0</ele><time>2026-04-11T10:36:58Z</time></trkpt><trkpt lat="45.16578505353115" lon="9.536503325642803"><ele>55.0</ele><time>2026-04-11T10:36:59Z</time></trkpt><trkpt lat="45.165784660331035" lon="9.536707298417848"><ele>55.0</ele><time>2026-04-11T10:37:00Z</time></trkpt><trkpt lat="45.16578546593387" lon="9.536914450291668"><ele>55.0</ele><time>2026-04-11T10:37:01Z</time></trkpt><trkpt lat="45.165786808903576" lon="9.537116504686507"><ele>55.0</ele><time>2026-04-11T10:37:02Z</time></trkpt><trkpt lat="45.16578637895793" lon="9.537327483761025"><ele>55.0</ele><time>2026-04-11T10:37:03Z</time></trkpt><trkpt lat="45.16578791403971" lon="9.537546322324534"><ele>54.666666666666664</ele><time>2026-04-11T10:37:04.001Z</time></trkpt><trkpt lat="45.16579237156028" lon="9.537756532027526"><ele>54.33333333333333</ele><time>2026-04-11T10:37:05.001Z</time></trkpt><trkpt lat="45.165803366858206" lon="9.537971946235244"><ele>54.0</ele><time>2026-04-11T10:37:06.001Z</time></trkpt><trkpt lat="45.165820693739114" lon="9.538194997081252"><ele>54.66666666666667</ele><time>2026-04-11T10:37:07.001Z</time></trkpt><trkpt lat="45.16584244939854" lon="9.538430824754355"><ele>55.333333333333336</ele><time>2026-04-11T10:37:08.001Z</time></trkpt><trkpt lat="45.16586784803958" lon="9.538680158218005"><ele>56.0</ele><time>2026-04-11T10:37:09.001Z</time></trkpt><trkpt lat="45.16589943760042" lon="9.538947519170245"><ele>56.333333333333336</ele><time>2026-04-11T10:37:10.001Z</time></trkpt><trkpt lat="45.16592871959042" lon="9.539226205547095"><ele>56.66666666666667</ele><time>2026-04-11T10:37:11.001Z</time></trkpt><trkpt lat="45.16595781904444" lon="9.539508158511289"><ele>57.0</ele><time>2026-04-11T10:37:12.001Z</time></trkpt><trkpt lat="45.1659864431855" lon="9.53979918730246"><ele>57.0</ele><time>2026-04-11T10:37:13.001Z</time></trkpt><trkpt lat="45.16601561385754" lon="9.540099536623552"><ele>57.0</ele><time>2026-04-11T10:37:14.001Z</time></trkpt><trkpt lat="45.16604641900504" lon="9.540408669345581"><ele>57.0</ele><time>2026-04-11T10:37:15.001Z</time></trkpt><trkpt lat="45.16608036726368" lon="9.54072664051215"><ele>58.0</ele><time>2026-04-11T10:37:16.001Z</time></trkpt><trkpt lat="45.16611559428703" lon="9.541043479112687"><ele>59.0</ele><time>2026-04-11T10:37:17.001Z</time></trkpt><trkpt lat="45.166151260882465" lon="9.541363126848484"><ele>59.5</ele><time>2026-04-11T10:37:18.001Z</time></trkpt><trkpt lat="45.16618675763269" lon="9.541688412782493"><ele>60.0</ele><time>2026-04-11T10:37:19.001Z</time></trkpt><trkpt lat="45.16622316693525" lon="9.542017578566963"><ele>60.0</ele><time>2026-04-11T10:37:20.001Z</time></trkpt><trkpt lat="45.166259968075465" lon="9.542345795528774"><ele>60.0</ele><time>2026-04-11T10:37:21.001Z</time></trkpt><trkpt lat="45.166295990645175" lon="9.542683069286003"><ele>58.5</ele><time>2026-04-11T10:37:22.001Z</time></trkpt><trkpt lat="45.16633337144613" lon="9.543016563952"><ele>57.0</ele><time>2026-04-11T10:37:23.001Z</time></trkpt><trkpt lat="45.166370823982106" lon="9.54335562125647"><ele>57.0</ele><time>2026-04-11T10:37:24.001Z</time></trkpt><trkpt lat="45.16640778925949" lon="9.543688976594154"><ele>57.0</ele><time>2026-04-11T10:37:25.001Z</time></trkpt><trkpt lat="45.1664446122229" lon="9.543999682020052"><ele>57.33333333333333</ele><time>2026-04-11T10:37:26.001Z</time></trkpt><trkpt lat="45.16647594663844" lon="9.544285559276172"><ele>57.666666666666664</ele><time>2026-04-11T10:37:27.001Z</time></trkpt><trkpt lat="45.16650534820946" lon="9.54456001867187"><ele>58.0</ele><time>2026-04-11T10:37:28.001Z</time></trkpt><trkpt lat="45.166536057366095" lon="9.544841222765443"><ele>59.666666666666664</ele><time>2026-04-11T10:37:29.001Z</time></trkpt><trkpt lat="45.16656744048675" lon="9.545123918463158"><ele>61.33333333333333</ele><time>2026-04-11T10:37:30.001Z</time></trkpt><trkpt lat="45.166597549537514" lon="9.54540919561292"><ele>63.0</ele><time>2026-04-11T10:37:31.001Z</time></trkpt><trkpt lat="45.16662884466243" lon="9.545688266890538"><ele>63.0</ele><time>2026-04-11T10:37:32.001Z</time></trkpt><trkpt lat="45.166661469872174" lon="9.545970041296881"><ele>63.0</ele><time>2026-04-11T10:37:33.001Z</time></trkpt><trkpt lat="45.166691440463495" lon="9.546254884133923"><ele>63.0</ele><time>2026-04-11T10:37:34.001Z</time></trkpt><trkpt lat="45.16672351932322" lon="9.54651534189209"><ele>63.0</ele><time>2026-04-11T10:37:35.001Z</time></trkpt><trkpt lat="45.166750027860495" lon="9.546765799045659"><ele>63.0</ele><time>2026-04-11T10:37:36.001Z</time></trkpt><trkpt lat="45.166776675707084" lon="9.546998732786786"><ele>63.0</ele><time>2026-04-11T10:37:37.001Z</time></trkpt><trkpt lat="45.166801759620604" lon="9.54722661112708"><ele>63.0</ele><time>2026-04-11T10:37:38.001Z</time></trkpt><trkpt lat="45.166826687912305" lon="9.54743699306392"><ele>63.0</ele><time>2026-04-11T10:37:39.001Z</time></trkpt><trkpt lat="45.166850914382515" lon="9.547640398233787"><ele>63.0</ele><time>2026-04-11T10:37:40.001Z</time></trkpt><trkpt lat="45.166877642484515" lon="9.54782309301025"><ele>63.0</ele><time>2026-04-11T10:37:41.001Z</time></trkpt><trkpt lat="45.16691172351985" lon="9.547995982967475"><ele>62.75</ele><time>2026-04-11T10:37:42.001Z</time></trkpt><trkpt lat="45.16695453394181" lon="9.548153331012008"><ele>62.5</ele><time>2026-04-11T10:37:43.001Z</time></trkpt><trkpt lat="45.16700878596561" lon="9.54830762654464"><ele>62.25</ele><time>2026-04-11T10:37:44.001Z</time></trkpt><trkpt lat="45.16707320620114" lon="9.548454610757227"><ele>62.0</ele><time>2026-04-11T10:37:45.001Z</time></trkpt><trkpt lat="45.167144410493925" lon="9.54859421318726"><ele>62.25</ele><time>2026-04-11T10:37:46.001Z</time></trkpt><trkpt lat="45.16722711038308" lon="9.548727124451993"><ele>62.5</ele><time>2026-04-11T10:37:47.001Z</time></trkpt><trkpt lat="45.16731688151693" lon="9.548853654809506"><ele>62.75</ele><time>2026-04-11T10:37:48.001Z</time></trkpt><trkpt lat="45.16741310230011" lon="9.5489674017585"><ele>63.0</ele><time>2026-04-11T10:37:49.001Z</time></trkpt><trkpt lat="45.167517188128315" lon="9.549073400872917"><ele>63.0</ele><time>2026-04-11T10:37:50.001Z</time></trkpt><trkpt lat="45.167614295786144" lon="9.549177829614763"><ele>63.0</ele><time>2026-04-11T10:37:51.001Z</time></trkpt><trkpt lat="45.167691702254096" lon="9.549289816806366"><ele>63.0</ele><time>2026-04-11T10:37:52.001Z</time></trkpt><trkpt lat="45.16774755368301" lon="9.549397303723525"><ele>63.0</ele><time>2026-04-11T10:37:53.001Z</time></trkpt><trkpt lat="45.16777672222288" lon="9.54948727152363"><ele>63.0</ele><time>2026-04-11T10:37:54.001Z</time></trkpt><trkpt lat="45.16779559115223" lon="9.549582284562119"><ele>63.0</ele><time>2026-04-11T10:37:56.001Z</time></trkpt><trkpt lat="45.16780388840687" lon="9.549700679574329"><ele>63.0</ele><time>2026-04-11T10:37:59.001Z</time></trkpt><trkpt lat="45.16780892547295" lon="9.549798531612426"><ele>63.0</ele><time>2026-04-11T10:38:00.001Z</time></trkpt><trkpt lat="45.16783335915421" lon="9.549912711425819"><ele>63.0</ele><time>2026-04-11T10:38:01.001Z</time></trkpt><trkpt lat="45.16785823879115" lon="9.550027653967037"><ele>63.0</ele><time>2026-04-11T10:38:02.001Z</time></trkpt><trkpt lat="45.167854624708944" lon="9.550168629303123"><ele>63.0</ele><time>2026-04-11T10:38:03.001Z</time></trkpt><trkpt lat="45.16785725376313" lon="9.550322533951835"><ele>63.25</ele><time>2026-04-11T10:38:04.001Z</time></trkpt><trkpt lat="45.16775130517805" lon="9.55047685463017"><ele>63.5</ele><time>2026-04-11T10:38:05.001Z</time></trkpt><trkpt lat="45.167687625228176" lon="9.550623284941922"><ele>63.75</ele><time>2026-04-11T10:38:06.001Z</time></trkpt><trkpt lat="45.167624624847974" lon="9.550782646685738"><ele>64.0</ele><time>2026-04-11T10:38:07.001Z</time></trkpt><trkpt lat="45.167565655296755" lon="9.55095223579227"><ele>64.0</ele><time>2026-04-11T10:38:08.001Z</time></trkpt><trkpt lat="45.16750262617653" lon="9.551132640233226"><ele>64.0</ele><time>2026-04-11T10:38:09.001Z</time></trkpt><trkpt lat="45.167443070051895" lon="9.551328405315646"><ele>64.0</ele><time>2026-04-11T10:38:10.001Z</time></trkpt><trkpt lat="45.167400080139416" lon="9.551536549024142"><ele>64.0</ele><time>2026-04-11T10:38:11.001Z</time></trkpt><trkpt lat="45.16736784760965" lon="9.551765817355548"><ele>64.0</ele><time>2026-04-11T10:38:12.001Z</time></trkpt><trkpt lat="45.16735166419665" lon="9.552004525705488"><ele>64.0</ele><time>2026-04-11T10:38:13.002Z</time></trkpt><trkpt lat="45.16735759037995" lon="9.552249118813378"><ele>64.0</ele><time>2026-04-11T10:38:14Z</time></trkpt><trkpt lat="45.16738540986361" lon="9.552498876797282"><ele>64.33333333333333</ele><time>2026-04-11T10:38:15Z</time></trkpt><trkpt lat="45.16741914051712" lon="9.55274574480099"><ele>64.66666666666667</ele><time>2026-04-11T10:38:16Z</time></trkpt><trkpt lat="45.167449736443096" lon="9.552982876988292"><ele>65.0</ele><time>2026-04-11T10:38:17Z</time></trkpt><trkpt lat="45.167473704416864" lon="9.55322491190298"><ele>64.33333333333334</ele><time>2026-04-11T10:38:18Z</time></trkpt><trkpt lat="45.16749672782786" lon="9.553466041279504"><ele>63.66666666666667</ele><time>2026-04-11T10:38:19Z</time></trkpt><trkpt lat="45.167521758635715" lon="9.553708690779311"><ele>63.0</ele><time>2026-04-11T10:38:20Z</time></trkpt><trkpt lat="45.16755006839585" lon="9.553949696937805"><ele>63.0</ele><time>2026-04-11T10:38:21Z</time></trkpt><trkpt lat="45.16757915168784" lon="9.5541952609542"><ele>63.0</ele><time>2026-04-11T10:38:22Z</time></trkpt><trkpt lat="45.167607997825215" lon="9.554452059188389"><ele>63.0</ele><time>2026-04-11T10:38:23Z</time></trkpt><trkpt lat="45.16763873649059" lon="9.55472005076728"><ele>63.0</ele><time>2026-04-11T10:38:24Z</time></trkpt><trkpt lat="45.16766936646343" lon="9.554991146049803"><ele>63.0</ele><time>2026-04-11T10:38:25Z</time></trkpt><trkpt lat="45.16769920898081" lon="9.55526782763438"><ele>63.0</ele><time>2026-04-11T10:38:26Z</time></trkpt><trkpt lat="45.167729885463416" lon="9.555556744953297"><ele>63.0</ele><time>2026-04-11T10:38:27Z</time></trkpt><trkpt lat="45.16776082087589" lon="9.555850570445035"><ele>63.0</ele><time>2026-04-11T10:38:28Z</time></trkpt><trkpt lat="45.16779473484274" lon="9.556151710734479"><ele>63.0</ele><time>2026-04-11T10:38:29Z</time></trkpt><trkpt lat="45.167829733296294" lon="9.556460357596098"><ele>63.0</ele><time>2026-04-11T10:38:30Z</time></trkpt><trkpt lat="45.16786561510902" lon="9.556770772874335"><ele>63.0</ele><time>2026-04-11T10:38:31Z</time></trkpt><trkpt lat="45.16790189858575" lon="9.557085625768"><ele>63.0</ele><time>2026-04-11T10:38:32Z</time></trkpt><trkpt lat="45.16793468080915" lon="9.55740220445923"><ele>63.0</ele><time>2026-04-11T10:38:33Z</time></trkpt><trkpt lat="45.167967185393984" lon="9.557720227308112"><ele>63.0</ele><time>2026-04-11T10:38:34Z</time></trkpt><trkpt lat="45.16799733825342" lon="9.558038290998349"><ele>63.0</ele><time>2026-04-11T10:38:35Z</time></trkpt><trkpt lat="45.16802210500386" lon="9.558356949036412"><ele>63.0</ele><time>2026-04-11T10:38:36Z</time></trkpt><trkpt lat="45.16804099909016" lon="9.558654508206516"><ele>63.0</ele><time>2026-04-11T10:38:37Z</time></trkpt><trkpt lat="45.168053848976044" lon="9.558929549358128"><ele>62.66666666666667</ele><time>2026-04-11T10:38:38Z</time></trkpt><trkpt lat="45.1680600907876" lon="9.559183773224435"><ele>62.333333333333336</ele><time>2026-04-11T10:38:39Z</time></trkpt><trkpt lat="45.16805735512113" lon="9.559403178353033"><ele>62.0</ele><time>2026-04-11T10:38:40Z</time></trkpt><trkpt lat="45.168042719204685" lon="9.559589145249273"><ele>62.0</ele><time>2026-04-11T10:38:41Z</time></trkpt><trkpt lat="45.167999603826004" lon="9.55973857232965"><ele>62.0</ele><time>2026-04-11T10:38:42Z</time></trkpt><trkpt lat="45.167953822974425" lon="9.559873939836791"><ele>62.0</ele><time>2026-04-11T10:38:43.001Z</time></trkpt><trkpt lat="45.16795898486918" lon="9.559999340288899"><ele>62.0</ele><time>2026-04-11T10:38:44.001Z</time></trkpt><trkpt lat="45.168009716841915" lon="9.560097263517381"><ele>62.0</ele><time>2026-04-11T10:38:45.001Z</time></trkpt><trkpt lat="45.16808543071162" lon="9.560194598116016"><ele>62.0</ele><time>2026-04-11T10:38:46.001Z</time></trkpt><trkpt lat="45.168168851398384" lon="9.56035263395886"><ele>62.0</ele><time>2026-04-11T10:38:47.001Z</time></trkpt><trkpt lat="45.16822860341998" lon="9.560568513264768"><ele>62.0</ele><time>2026-04-11T10:38:48.001Z</time></trkpt><trkpt lat="45.16828235268414" lon="9.560809090785481"><ele>62.333333333333336</ele><time>2026-04-11T10:38:49.001Z</time></trkpt><trkpt lat="45.16833303078496" lon="9.56105911534364"><ele>62.66666666666667</ele><time>2026-04-11T10:38:50.001Z</time></trkpt><trkpt lat="45.16837184040207" lon="9.561329563599577"><ele>63.0</ele><time>2026-04-11T10:38:51.001Z</time></trkpt><trkpt lat="45.168406161170424" lon="9.561605050398718"><ele>63.33333333333333</ele><time>2026-04-11T10:38:52.001Z</time></trkpt><trkpt lat="45.16843821777638" lon="9.561889877732867"><ele>63.666666666666664</ele><time>2026-04-11T10:38:53.001Z</time></trkpt><trkpt lat="45.16846890983316" lon="9.562183134347041"><ele>64.0</ele><time>2026-04-11T10:38:54.001Z</time></trkpt><trkpt lat="45.168503213799696" lon="9.562479247327573"><ele>63.0</ele><time>2026-04-11T10:38:55.001Z</time></trkpt><trkpt lat="45.16853392975083" lon="9.562762438335698"><ele>62.0</ele><time>2026-04-11T10:38:56.001Z</time></trkpt><trkpt lat="45.1685618031295" lon="9.563039688789907"><ele>61.0</ele><time>2026-04-11T10:38:57.001Z</time></trkpt><trkpt lat="45.16859150074248" lon="9.563304822918898"><ele>60.33333333333333</ele><time>2026-04-11T10:38:58.001Z</time></trkpt><trkpt lat="45.16862173653267" lon="9.5635689413211"><ele>59.66666666666667</ele><time>2026-04-11T10:38:59.001Z</time></trkpt><trkpt lat="45.16865000288458" lon="9.56382925385097"><ele>59.0</ele><time>2026-04-11T10:39:00.001Z</time></trkpt><trkpt lat="45.168678676286426" lon="9.56409355892909"><ele>59.0</ele><time>2026-04-11T10:39:01.001Z</time></trkpt><trkpt lat="45.1687076651182" lon="9.564357198382023"><ele>59.0</ele><time>2026-04-11T10:39:02.001Z</time></trkpt><trkpt lat="45.16873614611141" lon="9.564619224802913"><ele>59.0</ele><time>2026-04-11T10:39:03.001Z</time></trkpt><trkpt lat="45.16876625201695" lon="9.564884057368747"><ele>59.66666666666667</ele><time>2026-04-11T10:39:04.001Z</time></trkpt><trkpt lat="45.168797888511804" lon="9.565152901874791"><ele>60.33333333333333</ele><time>2026-04-11T10:39:05.001Z</time></trkpt><trkpt lat="45.168831635714604" lon="9.565417841216735"><ele>61.0</ele><time>2026-04-11T10:39:06.001Z</time></trkpt><trkpt lat="45.16886434049809" lon="9.565682529600105"><ele>61.666666666666664</ele><time>2026-04-11T10:39:07.001Z</time></trkpt><trkpt lat="45.16889512818019" lon="9.565944482947963"><ele>62.33333333333333</ele><time>2026-04-11T10:39:08.001Z</time></trkpt><trkpt lat="45.16892648442777" lon="9.566208551098605"><ele>63.0</ele><time>2026-04-11T10:39:09Z</time></trkpt><trkpt lat="45.16895657921134" lon="9.566474032039936"><ele>63.33333333333333</ele><time>2026-04-11T10:39:10Z</time></trkpt><trkpt lat="45.16898777143576" lon="9.56674019240877"><ele>63.666666666666664</ele><time>2026-04-11T10:39:11Z</time></trkpt><trkpt lat="45.169019696820094" lon="9.567005237722183"><ele>64.0</ele><time>2026-04-11T10:39:12Z</time></trkpt><trkpt lat="45.16905635458007" lon="9.56727173065483"><ele>63.33333333333333</ele><time>2026-04-11T10:39:13Z</time></trkpt><trkpt lat="45.16909719480708" lon="9.567535586076522"><ele>62.66666666666667</ele><time>2026-04-11T10:39:14Z</time></trkpt><trkpt lat="45.16913841598705" lon="9.567797830090443"><ele>62.0</ele><time>2026-04-11T10:39:15Z</time></trkpt><trkpt lat="45.16918463702568" lon="9.568059313964449"><ele>62.0</ele><time>2026-04-11T10:39:16Z</time></trkpt><trkpt lat="45.169235600593396" lon="9.568319741994362"><ele>62.0</ele><time>2026-04-11T10:39:17Z</time></trkpt><trkpt lat="45.16929587744917" lon="9.568574667758778"><ele>62.0</ele><time>2026-04-11T10:39:18Z</time></trkpt><trkpt lat="45.1693681535907" lon="9.568821019450926"><ele>62.0</ele><time>2026-04-11T10:39:19Z</time></trkpt><trkpt lat="45.16944695123921" lon="9.56906610577288"><ele>62.0</ele><time>2026-04-11T10:39:20Z</time></trkpt><trkpt lat="45.16953208950511" lon="9.569304405391224"><ele>62.0</ele><time>2026-04-11T10:39:21Z</time></trkpt><trkpt lat="45.16962458177778" lon="9.569537874124768"><ele>62.0</ele><time>2026-04-11T10:39:22Z</time></trkpt><trkpt lat="45.169723514756264" lon="9.569764495566282"><ele>62.0</ele><time>2026-04-11T10:39:23Z</time></trkpt><trkpt lat="45.16983071924028" lon="9.569987396305734"><ele>62.0</ele><time>2026-04-11T10:39:24Z</time></trkpt><trkpt lat="45.16994559133278" lon="9.57020372466333"><ele>61.66666666666667</ele><time>2026-04-11T10:39:25Z</time></trkpt><trkpt lat="45.170064591567204" lon="9.570413278628655"><ele>61.33333333333333</ele><time>2026-04-11T10:39:26Z</time></trkpt><trkpt lat="45.17018738201571" lon="9.570619567681764"><ele>61.0</ele><time>2026-04-11T10:39:27Z</time></trkpt><trkpt lat="45.17031022925245" lon="9.570825279941813"><ele>61.0</ele><time>2026-04-11T10:39:28Z</time></trkpt><trkpt lat="45.17043444300423" lon="9.571030601793888"><ele>61.0</ele><time>2026-04-11T10:39:29Z</time></trkpt><trkpt lat="45.17055834915145" lon="9.571233519730399"><ele>61.0</ele><time>2026-04-11T10:39:30Z</time></trkpt><trkpt lat="45.17068118021634" lon="9.571437002658177"><ele>61.33333333333333</ele><time>2026-04-11T10:39:31Z</time></trkpt><trkpt lat="45.17080554220049" lon="9.571640256781233"><ele>61.66666666666667</ele><time>2026-04-11T10:39:32Z</time></trkpt><trkpt lat="45.170925533642226" lon="9.57183040511306"><ele>62.0</ele><time>2026-04-11T10:39:33Z</time></trkpt><trkpt lat="45.171035417434666" lon="9.572007526555382"><ele>62.2</ele><time>2026-04-11T10:39:34Z</time></trkpt><trkpt lat="45.17113241954817" lon="9.572168183476125"><ele>62.400000000000006</ele><time>2026-04-11T10:39:35Z</time></trkpt><trkpt lat="45.17121624416822" lon="9.572316498947385"><ele>62.599999999999994</ele><time>2026-04-11T10:39:36Z</time></trkpt><trkpt lat="45.171273410313134" lon="9.572425638289493"><ele>62.8</ele><time>2026-04-11T10:39:37Z</time></trkpt><trkpt lat="45.17132504838158" lon="9.572484608644215"><ele>63.0</ele><time>2026-04-11T10:39:38Z</time></trkpt><trkpt lat="45.17134119888053" lon="9.572582841838708"><ele>63.0</ele><time>2026-04-11T10:39:40Z</time></trkpt><trkpt lat="45.171308400082935" lon="9.572748020831755"><ele>63.0</ele><time>2026-04-11T10:39:43Z</time></trkpt><trkpt lat="45.171297261962536" lon="9.572837462445037"><ele>63.0</ele><time>2026-04-11T10:39:44Z</time></trkpt><trkpt lat="45.17130919723267" lon="9.57293634182641"><ele>63.0</ele><time>2026-04-11T10:39:45Z</time></trkpt><trkpt lat="45.17133001153479" lon="9.573056183604342"><ele>63.0</ele><time>2026-04-11T10:39:46Z</time></trkpt><trkpt lat="45.17138155839594" lon="9.573158446022681"><ele>63.0</ele><time>2026-04-11T10:39:47Z</time></trkpt><trkpt lat="45.1713133832311" lon="9.573327448416832"><ele>63.0</ele><time>2026-04-11T10:39:48Z</time></trkpt><trkpt lat="45.171253161852256" lon="9.573488254585392"><ele>63.0</ele><time>2026-04-11T10:39:49Z</time></trkpt><trkpt lat="45.1711898481162" lon="9.573653910539338"><ele>63.0</ele><time>2026-04-11T10:39:50Z</time></trkpt><trkpt lat="45.17112162176963" lon="9.573835435314168"><ele>63.0</ele><time>2026-04-11T10:39:51Z</time></trkpt><trkpt lat="45.17104632208127" lon="9.57404322010376"><ele>62.33333333333333</ele><time>2026-04-11T10:39:52Z</time></trkpt><trkpt lat="45.17096709299722" lon="9.574264202042292"><ele>61.666666666666664</ele><time>2026-04-11T10:39:53.001Z</time></trkpt><trkpt lat="45.1708865148356" lon="9.57448389985612"><ele>61.0</ele><time>2026-04-11T10:39:54.001Z</time></trkpt><trkpt lat="45.17080289597742" lon="9.574709484280968"><ele>61.0</ele><time>2026-04-11T10:39:55.001Z</time></trkpt><trkpt lat="45.17072211810278" lon="9.574927111574237"><ele>61.0</ele><time>2026-04-11T10:39:56.001Z</time></trkpt><trkpt lat="45.1706501112596" lon="9.575125257342627"><ele>61.0</ele><time>2026-04-11T10:39:57.001Z</time></trkpt><trkpt lat="45.17058041681162" lon="9.57532656345563"><ele>62.0</ele><time>2026-04-11T10:39:58.001Z</time></trkpt><trkpt lat="45.170514841753686" lon="9.575534272971497"><ele>63.0</ele><time>2026-04-11T10:39:59.001Z</time></trkpt><trkpt lat="45.17045613771497" lon="9.57573340727329"><ele>64.0</ele><time>2026-04-11T10:40:00.001Z</time></trkpt><trkpt lat="45.17040418992155" lon="9.575915430936789"><ele>64.0</ele><time>2026-04-11T10:40:01.001Z</time></trkpt><trkpt lat="45.17035003937241" lon="9.576085372553583"><ele>64.0</ele><time>2026-04-11T10:40:02.001Z</time></trkpt><trkpt lat="45.17029320636911" lon="9.576231180781125"><ele>64.0</ele><time>2026-04-11T10:40:03.001Z</time></trkpt><trkpt lat="45.17024158568601" lon="9.576344923459077"><ele>64.0</ele><time>2026-04-11T10:40:04.001Z</time></trkpt><trkpt lat="45.17019435413006" lon="9.576442252698044"><ele>64.0</ele><time>2026-04-11T10:40:05.001Z</time></trkpt><trkpt lat="45.17015281104363" lon="9.576524853511986"><ele>64.0</ele><time>2026-04-11T10:40:06.001Z</time></trkpt><trkpt lat="45.17010478223938" lon="9.57660004085444"><ele>64.0</ele><time>2026-04-11T10:40:07.001Z</time></trkpt><trkpt lat="45.17005962651671" lon="9.576685495615129"><ele>64.0</ele><time>2026-04-11T10:40:08.001Z</time></trkpt><trkpt lat="45.169968547563826" lon="9.57675200967501"><ele>64.0</ele><time>2026-04-11T10:40:09.001Z</time></trkpt><trkpt lat="45.16988351121538" lon="9.576849537591292"><ele>64.0</ele><time>2026-04-11T10:40:10.001Z</time></trkpt><trkpt lat="45.16979405711307" lon="9.576945824010927"><ele>63.6</ele><time>2026-04-11T10:40:11.001Z</time></trkpt><trkpt lat="45.16971023990523" lon="9.577028620009987"><ele>63.2</ele><time>2026-04-11T10:40:12.001Z</time></trkpt><trkpt lat="45.16963740772337" lon="9.57709706633194"><ele>62.800000000000004</ele><time>2026-04-11T10:40:13.001Z</time></trkpt><trkpt lat="45.16957376313334" lon="9.577157044014216"><ele>62.400000000000006</ele><time>2026-04-11T10:40:14.001Z</time></trkpt><trkpt lat="45.16951754101563" lon="9.577209435413062"><ele>62.0</ele><time>2026-04-11T10:40:15.001Z</time></trkpt><trkpt lat="45.16941566087563" lon="9.577316297062486"><ele>62.0</ele><time>2026-04-11T10:40:17.001Z</time></trkpt><trkpt lat="45.169363973041804" lon="9.577375818536748"><ele>62.0</ele><time>2026-04-11T10:40:18.001Z</time></trkpt><trkpt lat="45.16926578567948" lon="9.577488203980746"><ele>62.0</ele><time>2026-04-11T10:40:20Z</time></trkpt><trkpt lat="45.169168325249295" lon="9.577592926468556"><ele>62.0</ele><time>2026-04-11T10:40:22Z</time></trkpt><trkpt lat="45.16908088967634" lon="9.577683723170711"><ele>62.0</ele><time>2026-04-11T10:40:24Z</time></trkpt><trkpt lat="45.169022254822586" lon="9.577750281885779"><ele>62.2</ele><time>2026-04-11T10:40:26Z</time></trkpt><trkpt lat="45.169091917937806" lon="9.577930086272609"><ele>62.400000000000006</ele><time>2026-04-11T10:40:27Z</time></trkpt><trkpt lat="45.16911422165559" lon="9.57804444931604"><ele>62.599999999999994</ele><time>2026-04-11T10:40:28Z</time></trkpt><trkpt lat="45.16913112850165" lon="9.578174026388284"><ele>62.8</ele><time>2026-04-11T10:40:29Z</time></trkpt><trkpt lat="45.16915033294757" lon="9.57832394776715"><ele>63.0</ele><time>2026-04-11T10:40:30Z</time></trkpt><trkpt lat="45.16917184182749" lon="9.578493138101743"><ele>63.0</ele><time>2026-04-11T10:40:31Z</time></trkpt><trkpt lat="45.16919648139572" lon="9.578679606474756"><ele>63.0</ele><time>2026-04-11T10:40:32Z</time></trkpt><trkpt lat="45.16920181006846" lon="9.578883681335999"><ele>63.0</ele><time>2026-04-11T10:40:33Z</time></trkpt><trkpt lat="45.169231886683164" lon="9.579095565039191"><ele>63.0</ele><time>2026-04-11T10:40:34Z</time></trkpt><trkpt lat="45.16924854447955" lon="9.579316686063724"><ele>63.0</ele><time>2026-04-11T10:40:35Z</time></trkpt><trkpt lat="45.16926753979757" lon="9.579516265585141"><ele>63.0</ele><time>2026-04-11T10:40:36Z</time></trkpt><trkpt lat="45.16928577718328" lon="9.579694481121422"><ele>63.0</ele><time>2026-04-11T10:40:37Z</time></trkpt><trkpt lat="45.16930253092238" lon="9.579850032048379"><ele>63.0</ele><time>2026-04-11T10:40:38Z</time></trkpt><trkpt lat="45.169319240778385" lon="9.579989581333843"><ele>63.25</ele><time>2026-04-11T10:40:39Z</time></trkpt><trkpt lat="45.16933563157699" lon="9.580146181077772"><ele>63.5</ele><time>2026-04-11T10:40:40Z</time></trkpt><trkpt lat="45.169354940002926" lon="9.580323204866183"><ele>63.75</ele><time>2026-04-11T10:40:41Z</time></trkpt><trkpt lat="45.169374342695946" lon="9.580510767289354"><ele>64.0</ele><time>2026-04-11T10:40:42Z</time></trkpt><trkpt lat="45.16939568824601" lon="9.580691948991856"><ele>63.99999999999999</ele><time>2026-04-11T10:40:43Z</time></trkpt><trkpt lat="45.16941367229372" lon="9.580849417435452"><ele>64.0</ele><time>2026-04-11T10:40:44Z</time></trkpt><trkpt lat="45.16942545567244" lon="9.580977355541807"><ele>64.0</ele><time>2026-04-11T10:40:45Z</time></trkpt><trkpt lat="45.16942297576136" lon="9.581070236161807"><ele>64.0</ele><time>2026-04-11T10:40:45.999Z</time></trkpt><trkpt lat="45.16932784871923" lon="9.581107162127875"><ele>63.99999999999999</ele><time>2026-04-11T10:40:47.999Z</time></trkpt><trkpt lat="45.1692592408919" lon="9.58112164985177"><ele>64.0</ele><time>2026-04-11T10:40:48.999Z</time></trkpt><trkpt lat="45.169177521027564" lon="9.581149162398807"><ele>64.0</ele><time>2026-04-11T10:40:49.999Z</time></trkpt><trkpt lat="45.169076385207056" lon="9.581173360823742"><ele>64.0</ele><time>2026-04-11T10:40:50.999Z</time></trkpt><trkpt lat="45.168975690090456" lon="9.581199609476595"><ele>64.0</ele><time>2026-04-11T10:40:51.999Z</time></trkpt><trkpt lat="45.16890106728065" lon="9.581212560646307"><ele>64.0</ele><time>2026-04-11T10:40:52.999Z</time></trkpt><trkpt lat="45.168837263451984" lon="9.581181034306304"><ele>64.0</ele><time>2026-04-11T10:40:54.999Z</time></trkpt><trkpt lat="45.168850750693686" lon="9.580983226061619"><ele>64.0</ele><time>2026-04-11T10:40:55.999Z</time></trkpt><trkpt lat="45.16882207399536" lon="9.580837152593437"><ele>64.0</ele><time>2026-04-11T10:40:56.999Z</time></trkpt><trkpt lat="45.16881366715426" lon="9.58065306909669"><ele>64.0</ele><time>2026-04-11T10:40:57.999Z</time></trkpt><trkpt lat="45.1687907821985" lon="9.580456512084366"><ele>64.0</ele><time>2026-04-11T10:40:58.999Z</time></trkpt><trkpt lat="45.16876959795002" lon="9.580258165956261"><ele>64.33333333333333</ele><time>2026-04-11T10:40:59.999Z</time></trkpt><trkpt lat="45.168750411174365" lon="9.580039904540333"><ele>64.66666666666667</ele><time>2026-04-11T10:41:00.999Z</time></trkpt><trkpt lat="45.16872915436462" lon="9.579814505877158"><ele>65.0</ele><time>2026-04-11T10:41:01.999Z</time></trkpt><trkpt lat="45.16870447130546" lon="9.579584538337075"><ele>64.33333333333334</ele><time>2026-04-11T10:41:02.999Z</time></trkpt><trkpt lat="45.16868214397896" lon="9.579349024396338"><ele>63.66666666666667</ele><time>2026-04-11T10:41:03.999Z</time></trkpt><trkpt lat="45.16865866864105" lon="9.579113041908302"><ele>63.0</ele><time>2026-04-11T10:41:04.999Z</time></trkpt><trkpt lat="45.16863551936334" lon="9.5789001167465"><ele>63.0</ele><time>2026-04-11T10:41:05.999Z</time></trkpt><trkpt lat="45.16861864034675" lon="9.578715174757312"><ele>63.0</ele><time>2026-04-11T10:41:06.999Z</time></trkpt><trkpt lat="45.16860406298427" lon="9.578575010914289"><ele>63.0</ele><time>2026-04-11T10:41:07.999Z</time></trkpt><trkpt lat="45.16858325008074" lon="9.578456651980769"><ele>63.0</ele><time>2026-04-11T10:41:08.999Z</time></trkpt><trkpt lat="45.168558433685995" lon="9.578370275569075"><ele>63.0</ele><time>2026-04-11T10:41:09.999Z</time></trkpt><trkpt lat="45.16856796515886" lon="9.578252982677597"><ele>63.0</ele><time>2026-04-11T10:41:11.999Z</time></trkpt><trkpt lat="45.1686617430573" lon="9.578161382246778"><ele>63.0</ele><time>2026-04-11T10:41:13.999Z</time></trkpt><trkpt lat="45.16872787458283" lon="9.57809375438283"><ele>63.0</ele><time>2026-04-11T10:41:15Z</time></trkpt><trkpt lat="45.16879705917879" lon="9.57799605908599"><ele>63.0</ele><time>2026-04-11T10:41:16Z</time></trkpt><trkpt lat="45.16889407738496" lon="9.577916530716887"><ele>63.0</ele><time>2026-04-11T10:41:17Z</time></trkpt><trkpt lat="45.16899250727938" lon="9.577811782720294"><ele>62.66666666666667</ele><time>2026-04-11T10:41:18Z</time></trkpt><trkpt lat="45.16911992367724" lon="9.57767668767763"><ele>62.333333333333336</ele><time>2026-04-11T10:41:19Z</time></trkpt><trkpt lat="45.1692483291781" lon="9.577540731328362"><ele>62.0</ele><time>2026-04-11T10:41:20Z</time></trkpt><trkpt lat="45.169362226804765" lon="9.577417124550008"><ele>62.0</ele><time>2026-04-11T10:41:21Z</time></trkpt><trkpt lat="45.169469036716286" lon="9.577296481267465"><ele>62.0</ele><time>2026-04-11T10:41:22Z</time></trkpt><trkpt lat="45.169571633374694" lon="9.577187558812703"><ele>62.0</ele><time>2026-04-11T10:41:23Z</time></trkpt><trkpt lat="45.169667925262125" lon="9.577097107500913"><ele>62.0</ele><time>2026-04-11T10:41:24Z</time></trkpt><trkpt lat="45.16976116581308" lon="9.577011502389219"><ele>62.16666666666667</ele><time>2026-04-11T10:41:25Z</time></trkpt><trkpt lat="45.169845008656154" lon="9.576928256628914"><ele>62.333333333333336</ele><time>2026-04-11T10:41:26Z</time></trkpt><trkpt lat="45.169923665735304" lon="9.576857233937684"><ele>62.5</ele><time>2026-04-11T10:41:27Z</time></trkpt><trkpt lat="45.17001067524402" lon="9.57686661218751"><ele>62.66666666666667</ele><time>2026-04-11T10:41:28Z</time></trkpt><trkpt lat="45.170090281911946" lon="9.57689323714521"><ele>62.833333333333336</ele><time>2026-04-11T10:41:29Z</time></trkpt><trkpt lat="45.17014890846623" lon="9.57696397060491"><ele>63.0</ele><time>2026-04-11T10:41:30Z</time></trkpt><trkpt lat="45.17016707034617" lon="9.577123509970997"><ele>63.0</ele><time>2026-04-11T10:41:31Z</time></trkpt><trkpt lat="45.17018492875566" lon="9.577301628931803"><ele>63.0</ele><time>2026-04-11T10:41:32Z</time></trkpt><trkpt lat="45.17021706393957" lon="9.577544198006336"><ele>63.0</ele><time>2026-04-11T10:41:33Z</time></trkpt><trkpt lat="45.1702598529093" lon="9.577836514653171"><ele>63.0</ele><time>2026-04-11T10:41:34Z</time></trkpt><trkpt lat="45.1702993566779" lon="9.578142698886303"><ele>63.0</ele><time>2026-04-11T10:41:35Z</time></trkpt><trkpt lat="45.17033391289524" lon="9.578452467613534"><ele>63.0</ele><time>2026-04-11T10:41:36Z</time></trkpt><trkpt lat="45.170366654173826" lon="9.578740027982603"><ele>63.33333333333333</ele><time>2026-04-11T10:41:37Z</time></trkpt><trkpt lat="45.170397593313986" lon="9.578991995453736"><ele>63.666666666666664</ele><time>2026-04-11T10:41:38Z</time></trkpt><trkpt lat="45.17042599108687" lon="9.579217455545072"><ele>64.0</ele><time>2026-04-11T10:41:39Z</time></trkpt><trkpt lat="45.17044972352123" lon="9.579411837439576"><ele>63.75</ele><time>2026-04-11T10:41:40Z</time></trkpt><trkpt lat="45.170471084195434" lon="9.579597179279094"><ele>63.5</ele><time>2026-04-11T10:41:41Z</time></trkpt><trkpt lat="45.170491085139226" lon="9.579771384544594"><ele>63.25</ele><time>2026-04-11T10:41:42Z</time></trkpt><trkpt lat="45.170509621571554" lon="9.579939184498242"><ele>63.0</ele><time>2026-04-11T10:41:43Z</time></trkpt><trkpt lat="45.170526139898506" lon="9.580093736512634"><ele>63.0</ele><time>2026-04-11T10:41:44Z</time></trkpt><trkpt lat="45.17054169006871" lon="9.580240987467349"><ele>63.0</ele><time>2026-04-11T10:41:45Z</time></trkpt><trkpt lat="45.17055229341013" lon="9.580386470383603"><ele>63.0</ele><time>2026-04-11T10:41:46Z</time></trkpt><trkpt lat="45.170559269062714" lon="9.58052364108769"><ele>63.0</ele><time>2026-04-11T10:41:47Z</time></trkpt><trkpt lat="45.1705668010868" lon="9.58065187033358"><ele>63.0</ele><time>2026-04-11T10:41:48Z</time></trkpt><trkpt lat="45.17057518542598" lon="9.580771366559045"><ele>63.0</ele><time>2026-04-11T10:41:49Z</time></trkpt><trkpt lat="45.17058506758842" lon="9.58088681781704"><ele>63.0</ele><time>2026-04-11T10:41:50Z</time></trkpt><trkpt lat="45.17059714266531" lon="9.58099323689277"><ele>63.0</ele><time>2026-04-11T10:41:51Z</time></trkpt><trkpt lat="45.170610054498205" lon="9.5810938973336"><ele>63.0</ele><time>2026-04-11T10:41:52Z</time></trkpt><trkpt lat="45.17062590620658" lon="9.581192259853918"><ele>63.0</ele><time>2026-04-11T10:41:53Z</time></trkpt><trkpt lat="45.17064290986292" lon="9.581291550368059"><ele>63.0</ele><time>2026-04-11T10:41:54Z</time></trkpt><trkpt lat="45.17065674227676" lon="9.581387004860145"><ele>63.0</ele><time>2026-04-11T10:41:55Z</time></trkpt><trkpt lat="45.17066903801536" lon="9.581488104738208"><ele>63.0</ele><time>2026-04-11T10:41:56Z</time></trkpt><trkpt lat="45.17068097929057" lon="9.581590347626321"><ele>63.0</ele><time>2026-04-11T10:41:57Z</time></trkpt><trkpt lat="45.170694989703954" lon="9.581692172070191"><ele>63.0</ele><time>2026-04-11T10:41:58Z</time></trkpt><trkpt lat="45.17071113980626" lon="9.581794919887866"><ele>63.0</ele><time>2026-04-11T10:41:59Z</time></trkpt><trkpt lat="45.17072534231502" lon="9.581895151642408"><ele>63.0</ele><time>2026-04-11T10:42:00Z</time></trkpt><trkpt lat="45.17073850153853" lon="9.581995853117729"><ele>63.0</ele><time>2026-04-11T10:42:01Z</time></trkpt><trkpt lat="45.17074979458645" lon="9.582100644381834"><ele>63.0</ele><time>2026-04-11T10:42:02Z</time></trkpt><trkpt lat="45.17076072121897" lon="9.582206253597585"><ele>63.166666666666664</ele><time>2026-04-11T10:42:03Z</time></trkpt><trkpt lat="45.17077293816297" lon="9.582312620663503"><ele>63.33333333333333</ele><time>2026-04-11T10:42:04Z</time></trkpt><trkpt lat="45.17078261597774" lon="9.5824193031199"><ele>63.5</ele><time>2026-04-11T10:42:05Z</time></trkpt><trkpt lat="45.17078968974095" lon="9.582522790889048"><ele>63.666666666666664</ele><time>2026-04-11T10:42:06Z</time></trkpt><trkpt lat="45.17079663067602" lon="9.582655390084042"><ele>63.83333333333333</ele><time>2026-04-11T10:42:08Z</time></trkpt><trkpt lat="45.170806121877696" lon="9.582770600957296"><ele>64.0</ele><time>2026-04-11T10:42:12Z</time></trkpt><trkpt lat="45.17081660917766" lon="9.582865540076234"><ele>63.99999999999999</ele><time>2026-04-11T10:42:15Z</time></trkpt><trkpt lat="45.170834617599084" lon="9.582978477637608"><ele>64.0</ele><time>2026-04-11T10:42:17Z</time></trkpt><trkpt lat="45.17084812050887" lon="9.583132308123442"><ele>64.0</ele><time>2026-04-11T10:42:19Z</time></trkpt><trkpt lat="45.17082879599961" lon="9.58322822550812"><ele>64.0</ele><time>2026-04-11T10:42:20Z</time></trkpt><trkpt lat="45.17079693092422" lon="9.583340535094164"><ele>63.99999999999999</ele><time>2026-04-11T10:42:21Z</time></trkpt><trkpt lat="45.17078027070684" lon="9.583472149733682"><ele>64.0</ele><time>2026-04-11T10:42:22Z</time></trkpt><trkpt lat="45.170811681157424" lon="9.58360102119933"><ele>64.0</ele><time>2026-04-11T10:42:23Z</time></trkpt><trkpt lat="45.170879131254445" lon="9.583690852331625"><ele>64.0</ele><time>2026-04-11T10:42:24Z</time></trkpt><trkpt lat="45.17096612415076" lon="9.58372591801708"><ele>64.0</ele><time>2026-04-11T10:42:25Z</time></trkpt><trkpt lat="45.17105671704212" lon="9.583697499201822"><ele>64.0</ele><time>2026-04-11T10:42:25.999Z</time></trkpt><trkpt lat="45.1711426027362" lon="9.583618488946348"><ele>64.0</ele><time>2026-04-11T10:42:26.999Z</time></trkpt><trkpt lat="45.17122206136162" lon="9.583514506428273"><ele>64.0</ele><time>2026-04-11T10:42:28Z</time></trkpt><trkpt lat="45.17131884818499" lon="9.583417347937038"><ele>64.0</ele><time>2026-04-11T10:42:29Z</time></trkpt><trkpt lat="45.17143917082021" lon="9.583350883648803"><ele>64.0</ele><time>2026-04-11T10:42:30Z</time></trkpt><trkpt lat="45.17157495088645" lon="9.583293027440842"><ele>64.0</ele><time>2026-04-11T10:42:31Z</time></trkpt><trkpt lat="45.17171837144928" lon="9.5832384782313"><ele>64.66666666666666</ele><time>2026-04-11T10:42:32Z</time></trkpt><trkpt lat="45.1718711808127" lon="9.583189404384054"><ele>65.33333333333333</ele><time>2026-04-11T10:42:33Z</time></trkpt><trkpt lat="45.172025044068626" lon="9.583143821075137"><ele>66.0</ele><time>2026-04-11T10:42:34Z</time></trkpt><trkpt lat="45.172174821681324" lon="9.58309964418988"><ele>66.0</ele><time>2026-04-11T10:42:35Z</time></trkpt><trkpt lat="45.17231632380258" lon="9.58306189812566"><ele>66.0</ele><time>2026-04-11T10:42:36Z</time></trkpt><trkpt lat="45.17244837632962" lon="9.583036330958624"><ele>66.0</ele><time>2026-04-11T10:42:37Z</time></trkpt><trkpt lat="45.17257462860912" lon="9.583024276583428"><ele>66.0</ele><time>2026-04-11T10:42:38Z</time></trkpt><trkpt lat="45.17269639959485" lon="9.58303108728121"><ele>65.75</ele><time>2026-04-11T10:42:39Z</time></trkpt><trkpt lat="45.17282099845564" lon="9.58307168092416"><ele>65.5</ele><time>2026-04-11T10:42:40Z</time></trkpt><trkpt lat="45.17295560323045" lon="9.583115099609634"><ele>65.25</ele><time>2026-04-11T10:42:41Z</time></trkpt><trkpt lat="45.17309890415641" lon="9.583132000633032"><ele>65.0</ele><time>2026-04-11T10:42:42Z</time></trkpt><trkpt lat="45.17324624249442" lon="9.583155514247142"><ele>64.33333333333334</ele><time>2026-04-11T10:42:43Z</time></trkpt><trkpt lat="45.173390237124245" lon="9.583222797897408"><ele>63.66666666666667</ele><time>2026-04-11T10:42:44Z</time></trkpt><trkpt lat="45.17353636165759" lon="9.583279476892761"><ele>63.0</ele><time>2026-04-11T10:42:45Z</time></trkpt><trkpt lat="45.173689309069296" lon="9.583263028612672"><ele>63.0</ele><time>2026-04-11T10:42:46Z</time></trkpt><trkpt lat="45.17383572049685" lon="9.58318648062134"><ele>63.0</ele><time>2026-04-11T10:42:47Z</time></trkpt><trkpt lat="45.17397633168094" lon="9.583074127794124"><ele>63.0</ele><time>2026-04-11T10:42:48Z</time></trkpt><trkpt lat="45.1741197431936" lon="9.582964556179713"><ele>63.66666666666667</ele><time>2026-04-11T10:42:49Z</time></trkpt><trkpt lat="45.17426548965961" lon="9.582862346335178"><ele>64.33333333333334</ele><time>2026-04-11T10:42:50Z</time></trkpt><trkpt lat="45.174409447899734" lon="9.58276086464766"><ele>65.0</ele><time>2026-04-11T10:42:51Z</time></trkpt><trkpt lat="45.17454115187538" lon="9.582668105807382"><ele>64.25</ele><time>2026-04-11T10:42:52.001Z</time></trkpt><trkpt lat="45.174662953550595" lon="9.582586043960648"><ele>63.5</ele><time>2026-04-11T10:42:53.001Z</time></trkpt><trkpt lat="45.17478264375416" lon="9.582510504212781"><ele>62.75</ele><time>2026-04-11T10:42:54.001Z</time></trkpt><trkpt lat="45.17489563605381" lon="9.582446053416081"><ele>62.0</ele><time>2026-04-11T10:42:55.001Z</time></trkpt><trkpt lat="45.175001483524326" lon="9.582402097807696"><ele>62.0</ele><time>2026-04-11T10:42:56.001Z</time></trkpt><trkpt lat="45.17510664592714" lon="9.582379772645124"><ele>62.0</ele><time>2026-04-11T10:42:57.001Z</time></trkpt><trkpt lat="45.17520599064174" lon="9.582373378507695"><ele>62.0</ele><time>2026-04-11T10:42:58.001Z</time></trkpt><trkpt lat="45.175295548103215" lon="9.582373706440011"><ele>62.0</ele><time>2026-04-11T10:42:59.001Z</time></trkpt><trkpt lat="45.17536879769908" lon="9.58237484784706"><ele>62.0</ele><time>2026-04-11T10:43:00.001Z</time></trkpt><trkpt lat="45.17547715489594" lon="9.582374713737456"><ele>62.00000000000001</ele><time>2026-04-11T10:43:02.001Z</time></trkpt><trkpt lat="45.17558084524999" lon="9.58236788718035"><ele>62.0</ele><time>2026-04-11T10:43:04.001Z</time></trkpt><trkpt lat="45.175659388941554" lon="9.582362612701157"><ele>62.0</ele><time>2026-04-11T10:43:06.001Z</time></trkpt><trkpt lat="45.17574154726434" lon="9.582357453854257"><ele>62.0</ele><time>2026-04-11T10:43:09.001Z</time></trkpt><trkpt lat="45.17581503026861" lon="9.582348370347708"><ele>62.00000000000001</ele><time>2026-04-11T10:43:12.001Z</time></trkpt><trkpt lat="45.17588245087209" lon="9.582350086082629"><ele>62.0</ele><time>2026-04-11T10:44:32.001Z</time></trkpt><trkpt lat="45.17597887085843" lon="9.582355259427555"><ele>62.333333333333336</ele><time>2026-04-11T10:44:34.001Z</time></trkpt><trkpt lat="45.17604760628507" lon="9.582354763180513"><ele>62.66666666666667</ele><time>2026-04-11T10:44:35.001Z</time></trkpt><trkpt lat="45.176121571049116" lon="9.582345771236511"><ele>63.0</ele><time>2026-04-11T10:44:36.001Z</time></trkpt><trkpt lat="45.176208024699164" lon="9.582338526735832"><ele>63.33333333333333</ele><time>2026-04-11T10:44:37.001Z</time></trkpt><trkpt lat="45.17630535991918" lon="9.582332217091153"><ele>63.666666666666664</ele><time>2026-04-11T10:44:38.001Z</time></trkpt><trkpt lat="45.1764107992952" lon="9.58233359247955"><ele>64.0</ele><time>2026-04-11T10:44:39.001Z</time></trkpt><trkpt lat="45.17651980457186" lon="9.582345390135576"><ele>64.25</ele><time>2026-04-11T10:44:40.001Z</time></trkpt><trkpt lat="45.17663526746886" lon="9.58237923749766"><ele>64.5</ele><time>2026-04-11T10:44:41.001Z</time></trkpt><trkpt lat="45.17674549656908" lon="9.58244577233007"><ele>64.75</ele><time>2026-04-11T10:44:42.001Z</time></trkpt><trkpt lat="45.176834765593384" lon="9.58253459199244"><ele>65.0</ele><time>2026-04-11T10:44:43.001Z</time></trkpt><trkpt lat="45.17691325837901" lon="9.582653392859863"><ele>65.0</ele><time>2026-04-11T10:44:44.001Z</time></trkpt><trkpt lat="45.17697864318949" lon="9.582796579802944"><ele>65.0</ele><time>2026-04-11T10:44:45.001Z</time></trkpt><trkpt lat="45.17701484600929" lon="9.582959230535774"><ele>65.0</ele><time>2026-04-11T10:44:46.001Z</time></trkpt><trkpt lat="45.17703336098385" lon="9.583113539881984"><ele>65.0</ele><time>2026-04-11T10:44:47.001Z</time></trkpt><trkpt lat="45.17703824489884" lon="9.583263360028836"><ele>64.8</ele><time>2026-04-11T10:44:48.001Z</time></trkpt><trkpt lat="45.177027364329774" lon="9.583406399237454"><ele>64.6</ele><time>2026-04-11T10:44:49.001Z</time></trkpt><trkpt lat="45.17700778371074" lon="9.583538789131554"><ele>64.4</ele><time>2026-04-11T10:44:50.001Z</time></trkpt><trkpt lat="45.17697993660934" lon="9.58366500729643"><ele>64.2</ele><time>2026-04-11T10:44:51.001Z</time></trkpt><trkpt lat="45.176934758513625" lon="9.58380790866668"><ele>64.0</ele><time>2026-04-11T10:44:52.001Z</time></trkpt><trkpt lat="45.17687518744701" lon="9.583957387537765"><ele>63.75</ele><time>2026-04-11T10:44:53.001Z</time></trkpt><trkpt lat="45.17680414469316" lon="9.58410546958665"><ele>63.5</ele><time>2026-04-11T10:44:54.001Z</time></trkpt><trkpt lat="45.17672579757966" lon="9.584245670915276"><ele>63.25</ele><time>2026-04-11T10:44:55.001Z</time></trkpt><trkpt lat="45.17667772456272" lon="9.584401883441137"><ele>63.0</ele><time>2026-04-11T10:44:56.001Z</time></trkpt><trkpt lat="45.17658228552283" lon="9.584536851280264"><ele>63.25</ele><time>2026-04-11T10:44:57.001Z</time></trkpt><trkpt lat="45.176495794576624" lon="9.58467248956822"><ele>63.5</ele><time>2026-04-11T10:44:58.001Z</time></trkpt><trkpt lat="45.17641185686159" lon="9.58480412382906"><ele>63.75</ele><time>2026-04-11T10:44:59.001Z</time></trkpt><trkpt lat="45.17633240957772" lon="9.584928716028253"><ele>64.0</ele><time>2026-04-11T10:45:00.001Z</time></trkpt><trkpt lat="45.17625952508256" lon="9.585043016212538"><ele>64.0</ele><time>2026-04-11T10:45:01.001Z</time></trkpt><trkpt lat="45.17619496729078" lon="9.585144032985394"><ele>64.0</ele><time>2026-04-11T10:45:02.001Z</time></trkpt><trkpt lat="45.176143189232334" lon="9.585225033313678"><ele>64.0</ele><time>2026-04-11T10:45:03.001Z</time></trkpt><trkpt lat="45.17608934974476" lon="9.585309258484893"><ele>64.0</ele><time>2026-04-11T10:45:05.001Z</time></trkpt><trkpt lat="45.17602323710403" lon="9.58541268350478"><ele>64.0</ele><time>2026-04-11T10:46:06.001Z</time></trkpt><trkpt lat="45.175948100047364" lon="9.58553022607372"><ele>64.0</ele><time>2026-04-11T10:46:07.001Z</time></trkpt><trkpt lat="45.17584886022802" lon="9.585667039418224"><ele>64.0</ele><time>2026-04-11T10:46:08.001Z</time></trkpt><trkpt lat="45.17573275833514" lon="9.585868338697699"><ele>64.0</ele><time>2026-04-11T10:46:09.001Z</time></trkpt><trkpt lat="45.17559783294538" lon="9.58609628383862"><ele>64.0</ele><time>2026-04-11T10:46:10.001Z</time></trkpt><trkpt lat="45.175452832814486" lon="9.586337829624165"><ele>64.0</ele><time>2026-04-11T10:46:11.001Z</time></trkpt><trkpt lat="45.175300530468725" lon="9.586588682371712"><ele>64.0</ele><time>2026-04-11T10:46:12.001Z</time></trkpt><trkpt lat="45.175147428525" lon="9.586835397766324"><ele>64.0</ele><time>2026-04-11T10:46:13.001Z</time></trkpt><trkpt lat="45.174998841486605" lon="9.587067891728996"><ele>64.0</ele><time>2026-04-11T10:46:14.001Z</time></trkpt><trkpt lat="45.174859385239586" lon="9.587283503940109"><ele>64.0</ele><time>2026-04-11T10:46:15.001Z</time></trkpt><trkpt lat="45.17472570466422" lon="9.587493236019181"><ele>64.0</ele><time>2026-04-11T10:46:16.001Z</time></trkpt><trkpt lat="45.174590662059664" lon="9.587707672759372"><ele>63.33333333333333</ele><time>2026-04-11T10:46:17.001Z</time></trkpt><trkpt lat="45.174450708984004" lon="9.587928688595422"><ele>62.66666666666667</ele><time>2026-04-11T10:46:18.001Z</time></trkpt><trkpt lat="45.17430418900348" lon="9.588161160622782"><ele>62.0</ele><time>2026-04-11T10:46:19.001Z</time></trkpt><trkpt lat="45.17415064790049" lon="9.5884027914033"><ele>62.5</ele><time>2026-04-11T10:46:20.001Z</time></trkpt><trkpt lat="45.17399750120611" lon="9.588643153890136"><ele>63.0</ele><time>2026-04-11T10:46:21.001Z</time></trkpt><trkpt lat="45.17383669914892" lon="9.588889359040534"><ele>63.5</ele><time>2026-04-11T10:46:22.001Z</time></trkpt><trkpt lat="45.17367637065264" lon="9.58913717749641"><ele>64.0</ele><time>2026-04-11T10:46:23.002Z</time></trkpt><trkpt lat="45.17351226065618" lon="9.589391017310763"><ele>64.5</ele><time>2026-04-11T10:46:24.002Z</time></trkpt><trkpt lat="45.17334654478135" lon="9.58964629583932"><ele>65.0</ele><time>2026-04-11T10:46:25.002Z</time></trkpt><trkpt lat="45.173181634475355" lon="9.589903823696677"><ele>65.0</ele><time>2026-04-11T10:46:26.002Z</time></trkpt><trkpt lat="45.17301373357" lon="9.590162477904745"><ele>65.0</ele><time>2026-04-11T10:46:27.002Z</time></trkpt><trkpt lat="45.17284750862651" lon="9.590426368134409"><ele>65.0</ele><time>2026-04-11T10:46:28.002Z</time></trkpt><trkpt lat="45.17268312512815" lon="9.590686866116135"><ele>65.0</ele><time>2026-04-11T10:46:29.002Z</time></trkpt><trkpt lat="45.17251820688733" lon="9.59094519718481"><ele>64.5</ele><time>2026-04-11T10:46:30.002Z</time></trkpt><trkpt lat="45.172352104168986" lon="9.59120452320867"><ele>64.0</ele><time>2026-04-11T10:46:31.002Z</time></trkpt><trkpt lat="45.172186375162106" lon="9.591466811215394"><ele>64.0</ele><time>2026-04-11T10:46:32.002Z</time></trkpt><trkpt lat="45.17202323780438" lon="9.591727058520886"><ele>64.0</ele><time>2026-04-11T10:46:33.002Z</time></trkpt><trkpt lat="45.17185954774042" lon="9.591986244935814"><ele>65.0</ele><time>2026-04-11T10:46:34.002Z</time></trkpt><trkpt lat="45.17170059556584" lon="9.592236354497993"><ele>66.0</ele><time>2026-04-11T10:46:35.002Z</time></trkpt><trkpt lat="45.171541853721294" lon="9.592482619968566"><ele>66.0</ele><time>2026-04-11T10:46:36.002Z</time></trkpt><trkpt lat="45.171383455425726" lon="9.592726653429356"><ele>66.0</ele><time>2026-04-11T10:46:37.002Z</time></trkpt><trkpt lat="45.17122620693934" lon="9.59297149957393"><ele>66.0</ele><time>2026-04-11T10:46:38.001Z</time></trkpt><trkpt lat="45.17107101139015" lon="9.593212501329951"><ele>66.0</ele><time>2026-04-11T10:46:39.001Z</time></trkpt><trkpt lat="45.170917371449754" lon="9.59344893708996"><ele>66.0</ele><time>2026-04-11T10:46:40.001Z</time></trkpt><trkpt lat="45.17076312690852" lon="9.593681518009285"><ele>66.0</ele><time>2026-04-11T10:46:41.001Z</time></trkpt><trkpt lat="45.17060851786316" lon="9.593915062263662"><ele>65.0</ele><time>2026-04-11T10:46:42.001Z</time></trkpt><trkpt lat="45.17045636770551" lon="9.594150456086032"><ele>64.0</ele><time>2026-04-11T10:46:43.001Z</time></trkpt><trkpt lat="45.1702984038663" lon="9.59439701570698"><ele>65.5</ele><time>2026-04-11T10:46:44.001Z</time></trkpt><trkpt lat="45.17013851871665" lon="9.594648530132407"><ele>67.0</ele><time>2026-04-11T10:46:45.001Z</time></trkpt><trkpt lat="45.169977978804795" lon="9.594898633617861"><ele>65.0</ele><time>2026-04-11T10:46:46.001Z</time></trkpt><trkpt lat="45.169814379908445" lon="9.5951522589771"><ele>63.0</ele><time>2026-04-11T10:46:47.001Z</time></trkpt><trkpt lat="45.16965436654063" lon="9.595402807495654"><ele>63.0</ele><time>2026-04-11T10:46:48.001Z</time></trkpt><trkpt lat="45.16949092592448" lon="9.59565473367293"><ele>63.0</ele><time>2026-04-11T10:46:49.001Z</time></trkpt><trkpt lat="45.16933119702493" lon="9.595910154059798"><ele>63.0</ele><time>2026-04-11T10:46:50.001Z</time></trkpt><trkpt lat="45.16917382197521" lon="9.596161915311892"><ele>63.0</ele><time>2026-04-11T10:46:51.001Z</time></trkpt><trkpt lat="45.16901353160197" lon="9.596416489025186"><ele>62.5</ele><time>2026-04-11T10:46:52.001Z</time></trkpt><trkpt lat="45.16884707310817" lon="9.59667778118806"><ele>62.0</ele><time>2026-04-11T10:46:53.001Z</time></trkpt><trkpt lat="45.168676464942145" lon="9.596947223292979"><ele>61.5</ele><time>2026-04-11T10:46:54.001Z</time></trkpt><trkpt lat="45.168502331486756" lon="9.597223720476086"><ele>61.0</ele><time>2026-04-11T10:46:55.001Z</time></trkpt><trkpt lat="45.168328511193764" lon="9.59749668092999"><ele>60.5</ele><time>2026-04-11T10:46:56.001Z</time></trkpt><trkpt lat="45.16815248282255" lon="9.597772019964854"><ele>60.0</ele><time>2026-04-11T10:46:57.001Z</time></trkpt><trkpt lat="45.167976329469994" lon="9.598046146663862"><ele>60.0</ele><time>2026-04-11T10:46:58.001Z</time></trkpt><trkpt lat="45.16780144145671" lon="9.598321522502165"><ele>60.0</ele><time>2026-04-11T10:46:59.001Z</time></trkpt><trkpt lat="45.16762596086107" lon="9.598597048169166"><ele>60.0</ele><time>2026-04-11T10:47:00.001Z</time></trkpt><trkpt lat="45.16744907933991" lon="9.598869098066055"><ele>60.0</ele><time>2026-04-11T10:47:01.001Z</time></trkpt><trkpt lat="45.16727200381274" lon="9.599139363912837"><ele>60.5</ele><time>2026-04-11T10:47:02.001Z</time></trkpt><trkpt lat="45.16709493037327" lon="9.59940879177368"><ele>61.0</ele><time>2026-04-11T10:47:03.001Z</time></trkpt><trkpt lat="45.16691982978083" lon="9.5996802898778"><ele>61.5</ele><time>2026-04-11T10:47:04.001Z</time></trkpt><trkpt lat="45.16674485814184" lon="9.599947299791134"><ele>62.0</ele><time>2026-04-11T10:47:05.001Z</time></trkpt><trkpt lat="45.166568515415314" lon="9.600214340289732"><ele>62.0</ele><time>2026-04-11T10:47:06.001Z</time></trkpt><trkpt lat="45.166391639773195" lon="9.600480882015031"><ele>62.0</ele><time>2026-04-11T10:47:07.001Z</time></trkpt><trkpt lat="45.16621437640646" lon="9.600745914011815"><ele>62.0</ele><time>2026-04-11T10:47:08.001Z</time></trkpt><trkpt lat="45.1660342223996" lon="9.601013711586747"><ele>62.0</ele><time>2026-04-11T10:47:09.001Z</time></trkpt><trkpt lat="45.16585342403695" lon="9.601276204158529"><ele>61.5</ele><time>2026-04-11T10:47:10.001Z</time></trkpt><trkpt lat="45.165671993212634" lon="9.601537384245697"><ele>61.0</ele><time>2026-04-11T10:47:11.001Z</time></trkpt><trkpt lat="45.16549048631502" lon="9.601800835610211"><ele>60.5</ele><time>2026-04-11T10:47:12.001Z</time></trkpt><trkpt lat="45.165309419675424" lon="9.602066574900574"><ele>60.0</ele><time>2026-04-11T10:47:13.001Z</time></trkpt><trkpt lat="45.165128021147765" lon="9.602330640832605"><ele>60.0</ele><time>2026-04-11T10:47:14.001Z</time></trkpt><trkpt lat="45.16494372954711" lon="9.602593512468523"><ele>60.0</ele><time>2026-04-11T10:47:15.001Z</time></trkpt><trkpt lat="45.16475939710005" lon="9.602852227811471"><ele>60.5</ele><time>2026-04-11T10:47:16.001Z</time></trkpt><trkpt lat="45.16457393359427" lon="9.603108951140861"><ele>61.0</ele><time>2026-04-11T10:47:17.001Z</time></trkpt><trkpt lat="45.16438824006103" lon="9.60336175064861"><ele>61.0</ele><time>2026-04-11T10:47:18.001Z</time></trkpt><trkpt lat="45.16420523510848" lon="9.603622361962564"><ele>61.0</ele><time>2026-04-11T10:47:19.001Z</time></trkpt><trkpt lat="45.16402205674564" lon="9.603884021557398"><ele>63.0</ele><time>2026-04-11T10:47:20.001Z</time></trkpt><trkpt lat="45.16383963344421" lon="9.604145889205006"><ele>65.0</ele><time>2026-04-11T10:47:21.001Z</time></trkpt><trkpt lat="45.16366013238692" lon="9.604409024228486"><ele>65.0</ele><time>2026-04-11T10:47:22.001Z</time></trkpt><trkpt lat="45.163476292935144" lon="9.604666946477822"><ele>65.0</ele><time>2026-04-11T10:47:23.001Z</time></trkpt><trkpt lat="45.163292896687906" lon="9.604922283746376"><ele>64.0</ele><time>2026-04-11T10:47:24.001Z</time></trkpt><trkpt lat="45.163109742620385" lon="9.605180387216958"><ele>63.0</ele><time>2026-04-11T10:47:25.001Z</time></trkpt><trkpt lat="45.16292840254302" lon="9.605435374542328"><ele>62.0</ele><time>2026-04-11T10:47:26.001Z</time></trkpt><trkpt lat="45.16274601113627" lon="9.605688921013591"><ele>61.0</ele><time>2026-04-11T10:47:27.001Z</time></trkpt><trkpt lat="45.16256391894407" lon="9.605944095801979"><ele>61.5</ele><time>2026-04-11T10:47:28.001Z</time></trkpt><trkpt lat="45.16237967131159" lon="9.606200666416933"><ele>62.0</ele><time>2026-04-11T10:47:29.001Z</time></trkpt><trkpt lat="45.162196085433" lon="9.606458959094898"><ele>62.5</ele><time>2026-04-11T10:47:30.001Z</time></trkpt><trkpt lat="45.16201038328377" lon="9.606718736705488"><ele>63.0</ele><time>2026-04-11T10:47:31.001Z</time></trkpt><trkpt lat="45.161822353226725" lon="9.606979637992568"><ele>62.5</ele><time>2026-04-11T10:47:32.001Z</time></trkpt><trkpt lat="45.16162956456666" lon="9.607243136714814"><ele>62.0</ele><time>2026-04-11T10:47:33.001Z</time></trkpt><trkpt lat="45.161435046483604" lon="9.607511629694146"><ele>62.0</ele><time>2026-04-11T10:47:34.001Z</time></trkpt><trkpt lat="45.16123863740086" lon="9.607784900790406"><ele>62.0</ele><time>2026-04-11T10:47:35.001Z</time></trkpt><trkpt lat="45.16103967458469" lon="9.608059503564409"><ele>62.0</ele><time>2026-04-11T10:47:36.001Z</time></trkpt><trkpt lat="45.16089132582072" lon="9.608271381427516"><ele>62.0</ele><time>2026-04-11T10:47:37.001Z</time></trkpt><trkpt lat="45.16070722311802" lon="9.608529313353243"><ele>62.0</ele><time>2026-04-11T10:47:38.001Z</time></trkpt><trkpt lat="45.16052161738706" lon="9.608787389109821"><ele>62.0</ele><time>2026-04-11T10:47:39.001Z</time></trkpt><trkpt lat="45.160337147498495" lon="9.609042434171608"><ele>62.0</ele><time>2026-04-11T10:47:40.001Z</time></trkpt><trkpt lat="45.16015443561475" lon="9.609307396820318"><ele>62.0</ele><time>2026-04-11T10:47:41.001Z</time></trkpt><trkpt lat="45.159974955649496" lon="9.609572738952124"><ele>61.5</ele><time>2026-04-11T10:47:42.001Z</time></trkpt><trkpt lat="45.15979584583881" lon="9.60983711898109"><ele>61.0</ele><time>2026-04-11T10:47:43.001Z</time></trkpt><trkpt lat="45.15961609975203" lon="9.610101934092349"><ele>61.0</ele><time>2026-04-11T10:47:44.001Z</time></trkpt><trkpt lat="45.15943359877771" lon="9.61036207930892"><ele>61.0</ele><time>2026-04-11T10:47:45.001Z</time></trkpt><trkpt lat="45.15925265788904" lon="9.610619887105145"><ele>61.0</ele><time>2026-04-11T10:47:46.001Z</time></trkpt><trkpt lat="45.159067936752905" lon="9.610883379806243"><ele>61.0</ele><time>2026-04-11T10:47:47.001Z</time></trkpt><trkpt lat="45.15888827384007" lon="9.611142280525511"><ele>60.5</ele><time>2026-04-11T10:47:48.001Z</time></trkpt><trkpt lat="45.158707309035385" lon="9.611402116390936"><ele>60.0</ele><time>2026-04-11T10:47:49.001Z</time></trkpt><trkpt lat="45.158521859361855" lon="9.611663101265238"><ele>60.0</ele><time>2026-04-11T10:47:50.001Z</time></trkpt><trkpt lat="45.158335775000495" lon="9.611914367787977"><ele>60.0</ele><time>2026-04-11T10:47:51.001Z</time></trkpt><trkpt lat="45.158146146488704" lon="9.61216759390003"><ele>60.0</ele><time>2026-04-11T10:47:52.001Z</time></trkpt><trkpt lat="45.15795784336516" lon="9.612426442047948"><ele>60.0</ele><time>2026-04-11T10:47:53.001Z</time></trkpt><trkpt lat="45.15777415143822" lon="9.612685829323594"><ele>60.0</ele><time>2026-04-11T10:47:54.001Z</time></trkpt><trkpt lat="45.15759025934298" lon="9.612945649900485"><ele>60.0</ele><time>2026-04-11T10:47:55.001Z</time></trkpt><trkpt lat="45.157406529950926" lon="9.613201055987409"><ele>60.0</ele><time>2026-04-11T10:47:56.001Z</time></trkpt><trkpt lat="45.157222854916895" lon="9.613455972331934"><ele>60.0</ele><time>2026-04-11T10:47:57.001Z</time></trkpt><trkpt lat="45.157040195601326" lon="9.613708993155193"><ele>59.5</ele><time>2026-04-11T10:47:58.001Z</time></trkpt><trkpt lat="45.1568610233591" lon="9.613967164634879"><ele>59.0</ele><time>2026-04-11T10:47:59.001Z</time></trkpt><trkpt lat="45.1566785710093" lon="9.614217307028943"><ele>59.5</ele><time>2026-04-11T10:48:00.001Z</time></trkpt><trkpt lat="45.15649243701619" lon="9.6144723200142"><ele>60.0</ele><time>2026-04-11T10:48:01.001Z</time></trkpt><trkpt lat="45.15630849927128" lon="9.614724765821187"><ele>60.5</ele><time>2026-04-11T10:48:02.001Z</time></trkpt><trkpt lat="45.15612340768298" lon="9.614973419803295"><ele>61.0</ele><time>2026-04-11T10:48:03.001Z</time></trkpt><trkpt lat="45.15592759334379" lon="9.615220922328428"><ele>60.5</ele><time>2026-04-11T10:48:04.001Z</time></trkpt><trkpt lat="45.15573907643871" lon="9.615473183250991"><ele>60.0</ele><time>2026-04-11T10:48:05.001Z</time></trkpt><trkpt lat="45.15555146563655" lon="9.61572606774171"><ele>59.5</ele><time>2026-04-11T10:48:06.001Z</time></trkpt><trkpt lat="45.15536355778343" lon="9.615981072119851"><ele>59.0</ele><time>2026-04-11T10:48:07.001Z</time></trkpt><trkpt lat="45.155178703133224" lon="9.616236280812107"><ele>59.0</ele><time>2026-04-11T10:48:08.001Z</time></trkpt><trkpt lat="45.15499296609396" lon="9.61649863969109"><ele>59.0</ele><time>2026-04-11T10:48:09.001Z</time></trkpt><trkpt lat="45.15481034547094" lon="9.616756386643972"><ele>59.0</ele><time>2026-04-11T10:48:10.001Z</time></trkpt><trkpt lat="45.154624881995254" lon="9.61701326661152"><ele>59.0</ele><time>2026-04-11T10:48:11.001Z</time></trkpt><trkpt lat="45.1544388943144" lon="9.61726957815756"><ele>59.0</ele><time>2026-04-11T10:48:12.001Z</time></trkpt><trkpt lat="45.154254233992965" lon="9.617526011117413"><ele>59.0</ele><time>2026-04-11T10:48:13.001Z</time></trkpt><trkpt lat="45.154068180837704" lon="9.617785053261356"><ele>60.5</ele><time>2026-04-11T10:48:14.001Z</time></trkpt><trkpt lat="45.153884739241256" lon="9.618043715393656"><ele>62.0</ele><time>2026-04-11T10:48:15.001Z</time></trkpt><trkpt lat="45.15370326865568" lon="9.618306137291023"><ele>62.0</ele><time>2026-04-11T10:48:16.001Z</time></trkpt><trkpt lat="45.1535170978742" lon="9.618566422150147"><ele>62.0</ele><time>2026-04-11T10:48:17.001Z</time></trkpt><trkpt lat="45.153330718804206" lon="9.618824492956822"><ele>61.0</ele><time>2026-04-11T10:48:18.001Z</time></trkpt><trkpt lat="45.15314471508507" lon="9.619079202638131"><ele>60.0</ele><time>2026-04-11T10:48:19.001Z</time></trkpt><trkpt lat="45.15295765430524" lon="9.619335953108617"><ele>60.0</ele><time>2026-04-11T10:48:20.001Z</time></trkpt><trkpt lat="45.15277304000756" lon="9.619593163269258"><ele>60.0</ele><time>2026-04-11T10:48:21.001Z</time></trkpt><trkpt lat="45.15258793168331" lon="9.619849325678544"><ele>60.0</ele><time>2026-04-11T10:48:22.001Z</time></trkpt><trkpt lat="45.15240613539048" lon="9.620107114440188"><ele>60.0</ele><time>2026-04-11T10:48:23.001Z</time></trkpt><trkpt lat="45.15222068266345" lon="9.6203655004367"><ele>60.0</ele><time>2026-04-11T10:48:24.001Z</time></trkpt><trkpt lat="45.15203664040917" lon="9.62062327862157"><ele>60.0</ele><time>2026-04-11T10:48:25.001Z</time></trkpt><trkpt lat="45.15185263083233" lon="9.620878686344078"><ele>60.0</ele><time>2026-04-11T10:48:26.001Z</time></trkpt><trkpt lat="45.15166970692619" lon="9.621135560280635"><ele>60.0</ele><time>2026-04-11T10:48:27.001Z</time></trkpt><trkpt lat="45.15148926265715" lon="9.621393427678647"><ele>59.5</ele><time>2026-04-11T10:48:28.001Z</time></trkpt><trkpt lat="45.15130374622889" lon="9.621652284830683"><ele>59.0</ele><time>2026-04-11T10:48:29.001Z</time></trkpt><trkpt lat="45.15111913957989" lon="9.621910726556393"><ele>59.0</ele><time>2026-04-11T10:48:30.001Z</time></trkpt><trkpt lat="45.150933721565416" lon="9.622169337842525"><ele>59.0</ele><time>2026-04-11T10:48:31.001Z</time></trkpt><trkpt lat="45.1507511680946" lon="9.622431333549043"><ele>59.0</ele><time>2026-04-11T10:48:32.001Z</time></trkpt><trkpt lat="45.15056800999758" lon="9.622693817764292"><ele>59.0</ele><time>2026-04-11T10:48:33.001Z</time></trkpt><trkpt lat="45.15037977669992" lon="9.622952371916112"><ele>59.0</ele><time>2026-04-11T10:48:34.001Z</time></trkpt><trkpt lat="45.150191245963796" lon="9.623208473462999"><ele>59.0</ele><time>2026-04-11T10:48:35.001Z</time></trkpt><trkpt lat="45.15000245438634" lon="9.62346513002121"><ele>59.0</ele><time>2026-04-11T10:48:36.001Z</time></trkpt><trkpt lat="45.14981599734467" lon="9.623723348004166"><ele>59.0</ele><time>2026-04-11T10:48:37.001Z</time></trkpt><trkpt lat="45.14963199095913" lon="9.623983054786974"><ele>59.0</ele><time>2026-04-11T10:48:38.001Z</time></trkpt><trkpt lat="45.149450651414384" lon="9.62423884219453"><ele>59.0</ele><time>2026-04-11T10:48:39.001Z</time></trkpt><trkpt lat="45.14926547388384" lon="9.624497560091795"><ele>59.0</ele><time>2026-04-11T10:48:40.001Z</time></trkpt><trkpt lat="45.14908576145426" lon="9.62475602361459"><ele>59.0</ele><time>2026-04-11T10:48:41.001Z</time></trkpt><trkpt lat="45.148900915835696" lon="9.625012760655732"><ele>60.0</ele><time>2026-04-11T10:48:42.001Z</time></trkpt><trkpt lat="45.148716869038374" lon="9.62527062508905"><ele>61.0</ele><time>2026-04-11T10:48:43.001Z</time></trkpt><trkpt lat="45.14853035994014" lon="9.62552587864463"><ele>61.0</ele><time>2026-04-11T10:48:44Z</time></trkpt><trkpt lat="45.14834227026237" lon="9.625782995549987"><ele>61.0</ele><time>2026-04-11T10:48:45Z</time></trkpt><trkpt lat="45.14816237302645" lon="9.62604187393986"><ele>59.5</ele><time>2026-04-11T10:48:46Z</time></trkpt><trkpt lat="45.147973053498255" lon="9.626299518061803"><ele>58.0</ele><time>2026-04-11T10:48:47Z</time></trkpt><trkpt lat="45.147786223984475" lon="9.626559264269702"><ele>58.0</ele><time>2026-04-11T10:48:48Z</time></trkpt><trkpt lat="45.14760125649654" lon="9.62681977126015"><ele>58.0</ele><time>2026-04-11T10:48:49Z</time></trkpt><trkpt lat="45.14741800676421" lon="9.62707979612641"><ele>57.0</ele><time>2026-04-11T10:48:50Z</time></trkpt><trkpt lat="45.14723252216498" lon="9.62733944909726"><ele>56.0</ele><time>2026-04-11T10:48:51Z</time></trkpt><trkpt lat="45.14704673796187" lon="9.62759975962555"><ele>56.0</ele><time>2026-04-11T10:48:52Z</time></trkpt><trkpt lat="45.14686245761648" lon="9.627859924711277"><ele>56.0</ele><time>2026-04-11T10:48:53Z</time></trkpt><trkpt lat="45.146678993686855" lon="9.628118429231446"><ele>56.0</ele><time>2026-04-11T10:48:54Z</time></trkpt><trkpt lat="45.14649450096079" lon="9.6283747353544"><ele>56.0</ele><time>2026-04-11T10:48:55Z</time></trkpt><trkpt lat="45.14630947894376" lon="9.628630820455387"><ele>56.5</ele><time>2026-04-11T10:48:56Z</time></trkpt><trkpt lat="45.146127045693206" lon="9.628884260950349"><ele>57.0</ele><time>2026-04-11T10:48:57Z</time></trkpt><trkpt lat="45.14594403679065" lon="9.629138407704675"><ele>57.0</ele><time>2026-04-11T10:48:58Z</time></trkpt><trkpt lat="45.145762359230446" lon="9.629392387060943"><ele>57.0</ele><time>2026-04-11T10:48:59Z</time></trkpt><trkpt lat="45.14557953462811" lon="9.629650416346335"><ele>56.5</ele><time>2026-04-11T10:49:00Z</time></trkpt><trkpt lat="45.145397952218474" lon="9.629907699774712"><ele>56.0</ele><time>2026-04-11T10:49:01Z</time></trkpt><trkpt lat="45.145212564809306" lon="9.630166703103926"><ele>56.5</ele><time>2026-04-11T10:49:02Z</time></trkpt><trkpt lat="45.14502870202634" lon="9.630426061006034"><ele>57.0</ele><time>2026-04-11T10:49:03Z</time></trkpt><trkpt lat="45.144842068461834" lon="9.630685873791439"><ele>56.5</ele><time>2026-04-11T10:49:04Z</time></trkpt><trkpt lat="45.14465762494659" lon="9.63094732587971"><ele>56.0</ele><time>2026-04-11T10:49:05Z</time></trkpt><trkpt lat="45.14447155433118" lon="9.631209473466921"><ele>56.0</ele><time>2026-04-11T10:49:06Z</time></trkpt><trkpt lat="45.1442854454888" lon="9.631471862822217"><ele>56.0</ele><time>2026-04-11T10:49:07Z</time></trkpt><trkpt lat="45.14410093376614" lon="9.631734569802736"><ele>56.5</ele><time>2026-04-11T10:49:08Z</time></trkpt><trkpt lat="45.14391577030176" lon="9.631998311485427"><ele>57.0</ele><time>2026-04-11T10:49:09Z</time></trkpt><trkpt lat="45.143728266223434" lon="9.632260467207859"><ele>57.0</ele><time>2026-04-11T10:49:10Z</time></trkpt><trkpt lat="45.14354194798127" lon="9.632519664494096"><ele>57.0</ele><time>2026-04-11T10:49:11Z</time></trkpt><trkpt lat="45.1433550106737" lon="9.632776901260582"><ele>56.5</ele><time>2026-04-11T10:49:12Z</time></trkpt><trkpt lat="45.14316846494287" lon="9.633034124507901"><ele>56.0</ele><time>2026-04-11T10:49:13Z</time></trkpt><trkpt lat="45.14298266179529" lon="9.633289671852523"><ele>56.0</ele><time>2026-04-11T10:49:14Z</time></trkpt><trkpt lat="45.14280018485631" lon="9.633548228997656"><ele>56.0</ele><time>2026-04-11T10:49:15Z</time></trkpt><trkpt lat="45.142619499714755" lon="9.633807050522831"><ele>55.5</ele><time>2026-04-11T10:49:16Z</time></trkpt><trkpt lat="45.142438776344115" lon="9.634065358065277"><ele>55.0</ele><time>2026-04-11T10:49:17Z</time></trkpt><trkpt lat="45.14225731135521" lon="9.634323651826907"><ele>53.0</ele><time>2026-04-11T10:49:18Z</time></trkpt><trkpt lat="45.142075000720084" lon="9.63457896683707"><ele>51.0</ele><time>2026-04-11T10:49:19Z</time></trkpt><trkpt lat="45.14189332311726" lon="9.634836483932567"><ele>51.0</ele><time>2026-04-11T10:49:20Z</time></trkpt><trkpt lat="45.14171468043391" lon="9.635096433268583"><ele>51.0</ele><time>2026-04-11T10:49:21Z</time></trkpt><trkpt lat="45.14153545813308" lon="9.635362782082112"><ele>50.0</ele><time>2026-04-11T10:49:22Z</time></trkpt><trkpt lat="45.141359828555714" lon="9.635632582023176"><ele>49.0</ele><time>2026-04-11T10:49:23Z</time></trkpt><trkpt lat="45.14118886572853" lon="9.635905802195285"><ele>48.5</ele><time>2026-04-11T10:49:24Z</time></trkpt><trkpt lat="45.14102193475468" lon="9.636183460774648"><ele>48.0</ele><time>2026-04-11T10:49:25Z</time></trkpt><trkpt lat="45.14086221212687" lon="9.636469553663815"><ele>48.0</ele><time>2026-04-11T10:49:26Z</time></trkpt><trkpt lat="45.140707843400136" lon="9.636758559371769"><ele>48.0</ele><time>2026-04-11T10:49:27Z</time></trkpt><trkpt lat="45.14054696615949" lon="9.63704715169474"><ele>48.0</ele><time>2026-04-11T10:49:28Z</time></trkpt><trkpt lat="45.140390371679715" lon="9.637335434137041"><ele>48.0</ele><time>2026-04-11T10:49:29Z</time></trkpt><trkpt lat="45.14023558734031" lon="9.637628623802403"><ele>48.5</ele><time>2026-04-11T10:49:30Z</time></trkpt><trkpt lat="45.140084581695874" lon="9.637924727944174"><ele>49.0</ele><time>2026-04-11T10:49:31.001Z</time></trkpt><trkpt lat="45.13993280906415" lon="9.638219999817219"><ele>48.5</ele><time>2026-04-11T10:49:32.001Z</time></trkpt><trkpt lat="45.139776726427634" lon="9.638517292565826"><ele>48.0</ele><time>2026-04-11T10:49:33.001Z</time></trkpt><trkpt lat="45.13962469224761" lon="9.63880961026346"><ele>48.0</ele><time>2026-04-11T10:49:34.001Z</time></trkpt><trkpt lat="45.13947112148999" lon="9.63910082430899"><ele>48.0</ele><time>2026-04-11T10:49:35.001Z</time></trkpt><trkpt lat="45.13931411992758" lon="9.639391623046848"><ele>48.0</ele><time>2026-04-11T10:49:36.001Z</time></trkpt><trkpt lat="45.139160850832425" lon="9.639681726943513"><ele>48.0</ele><time>2026-04-11T10:49:37.001Z</time></trkpt><trkpt lat="45.139003633008706" lon="9.639973594493142"><ele>48.0</ele><time>2026-04-11T10:49:38.001Z</time></trkpt><trkpt lat="45.13885048989434" lon="9.640267653764782"><ele>48.0</ele><time>2026-04-11T10:49:39.001Z</time></trkpt><trkpt lat="45.138694715073605" lon="9.640563491105999"><ele>48.5</ele><time>2026-04-11T10:49:40.001Z</time></trkpt><trkpt lat="45.13854047680802" lon="9.640858121757889"><ele>49.0</ele><time>2026-04-11T10:49:41.001Z</time></trkpt><trkpt lat="45.138385837060916" lon="9.641154947361493"><ele>49.5</ele><time>2026-04-11T10:49:42.001Z</time></trkpt><trkpt lat="45.13823176033982" lon="9.641453371809309"><ele>50.0</ele><time>2026-04-11T10:49:43.001Z</time></trkpt><trkpt lat="45.13807974129817" lon="9.64175119944643"><ele>50.5</ele><time>2026-04-11T10:49:44.001Z</time></trkpt><trkpt lat="45.13792650017134" lon="9.642049768712859"><ele>51.0</ele><time>2026-04-11T10:49:45.001Z</time></trkpt><trkpt lat="45.13777365375097" lon="9.642348298604068"><ele>51.0</ele><time>2026-04-11T10:49:46.001Z</time></trkpt><trkpt lat="45.13761842463359" lon="9.642645643526894"><ele>51.0</ele><time>2026-04-11T10:49:47.001Z</time></trkpt><trkpt lat="45.1374671402885" lon="9.642944356515416"><ele>50.0</ele><time>2026-04-11T10:49:48.001Z</time></trkpt><trkpt lat="45.13731381342735" lon="9.643241089635092"><ele>49.0</ele><time>2026-04-11T10:49:49.001Z</time></trkpt><trkpt lat="45.137160924347064" lon="9.643538748190277"><ele>48.5</ele><time>2026-04-11T10:49:50.001Z</time></trkpt><trkpt lat="45.13700989403785" lon="9.643838874662078"><ele>48.0</ele><time>2026-04-11T10:49:51.001Z</time></trkpt><trkpt lat="45.13685822473902" lon="9.644137339330175"><ele>48.0</ele><time>2026-04-11T10:49:52.001Z</time></trkpt><trkpt lat="45.13670729262532" lon="9.6444341866873"><ele>48.0</ele><time>2026-04-11T10:49:53.001Z</time></trkpt><trkpt lat="45.136557211094335" lon="9.644730912060847"><ele>47.5</ele><time>2026-04-11T10:49:54.001Z</time></trkpt><trkpt lat="45.13640610088862" lon="9.645027457914589"><ele>47.0</ele><time>2026-04-11T10:49:55.001Z</time></trkpt><trkpt lat="45.13625534050277" lon="9.645325266992662"><ele>46.5</ele><time>2026-04-11T10:49:56.001Z</time></trkpt><trkpt lat="45.136104293273455" lon="9.645623546670423"><ele>46.0</ele><time>2026-04-11T10:49:57.001Z</time></trkpt><trkpt lat="45.13595123009971" lon="9.645921159379236"><ele>46.0</ele><time>2026-04-11T10:49:58.001Z</time></trkpt><trkpt lat="45.135798564124364" lon="9.646217458467987"><ele>46.0</ele><time>2026-04-11T10:49:59.001Z</time></trkpt><trkpt lat="45.13564498739989" lon="9.646513300741455"><ele>47.0</ele><time>2026-04-11T10:50:00.001Z</time></trkpt><trkpt lat="45.135487574847915" lon="9.646808176582745"><ele>48.0</ele><time>2026-04-11T10:50:01.001Z</time></trkpt><trkpt lat="45.13533780533402" lon="9.647102273180971"><ele>48.0</ele><time>2026-04-11T10:50:02.001Z</time></trkpt><trkpt lat="45.13518442178059" lon="9.647399221809856"><ele>48.0</ele><time>2026-04-11T10:50:03.001Z</time></trkpt><trkpt lat="45.13503369960132" lon="9.647695964689424"><ele>47.5</ele><time>2026-04-11T10:50:04.001Z</time></trkpt><trkpt lat="45.13488269899704" lon="9.647992320240773"><ele>47.0</ele><time>2026-04-11T10:50:05.001Z</time></trkpt><trkpt lat="45.13473009889821" lon="9.648291449636796"><ele>47.0</ele><time>2026-04-11T10:50:06.001Z</time></trkpt><trkpt lat="45.134578398016345" lon="9.64858937260207"><ele>47.0</ele><time>2026-04-11T10:50:07.001Z</time></trkpt><trkpt lat="45.13442698971861" lon="9.64888791486648"><ele>47.0</ele><time>2026-04-11T10:50:08.001Z</time></trkpt><trkpt lat="45.13427456929501" lon="9.649185848332456"><ele>47.0</ele><time>2026-04-11T10:50:09.001Z</time></trkpt><trkpt lat="45.134123318909324" lon="9.649483139312972"><ele>47.0</ele><time>2026-04-11T10:50:10.001Z</time></trkpt><trkpt lat="45.13396968346305" lon="9.64978255214921"><ele>47.0</ele><time>2026-04-11T10:50:11.001Z</time></trkpt><trkpt lat="45.133819550249605" lon="9.650080310824759"><ele>46.5</ele><time>2026-04-11T10:50:12.001Z</time></trkpt><trkpt lat="45.133668427449635" lon="9.650378137434508"><ele>46.0</ele><time>2026-04-11T10:50:13.001Z</time></trkpt><trkpt lat="45.133517511276445" lon="9.650673926359119"><ele>46.0</ele><time>2026-04-11T10:50:14.001Z</time></trkpt><trkpt lat="45.13336314100438" lon="9.650972003394031"><ele>46.0</ele><time>2026-04-11T10:50:15.001Z</time></trkpt><trkpt lat="45.133212168096456" lon="9.651269741215977"><ele>46.5</ele><time>2026-04-11T10:50:16.001Z</time></trkpt><trkpt lat="45.13305957001258" lon="9.651568575370947"><ele>47.0</ele><time>2026-04-11T10:50:17.001Z</time></trkpt><trkpt lat="45.13290943078394" lon="9.651862872224088"><ele>47.5</ele><time>2026-04-11T10:50:18.001Z</time></trkpt><trkpt lat="45.132764183110645" lon="9.652141517251948"><ele>48.0</ele><time>2026-04-11T10:50:19.001Z</time></trkpt><trkpt lat="45.13262356932081" lon="9.652411410084913"><ele>48.0</ele><time>2026-04-11T10:50:20.001Z</time></trkpt><trkpt lat="45.132485564521964" lon="9.652682017453701"><ele>48.0</ele><time>2026-04-11T10:50:21.001Z</time></trkpt><trkpt lat="45.13234985163087" lon="9.652950142926338"><ele>48.0</ele><time>2026-04-11T10:50:22.001Z</time></trkpt><trkpt lat="45.13221065577152" lon="9.65321794770628"><ele>48.0</ele><time>2026-04-11T10:50:23.001Z</time></trkpt><trkpt lat="45.132070993542996" lon="9.653484133027781"><ele>48.0</ele><time>2026-04-11T10:50:24.001Z</time></trkpt><trkpt lat="45.13193294488429" lon="9.653751917502493"><ele>48.0</ele><time>2026-04-11T10:50:25.001Z</time></trkpt><trkpt lat="45.131794338452295" lon="9.654017610418805"><ele>48.0</ele><time>2026-04-11T10:50:26.001Z</time></trkpt><trkpt lat="45.131654106605275" lon="9.65428570268693"><ele>48.0</ele><time>2026-04-11T10:50:27.001Z</time></trkpt><trkpt lat="45.13151591163591" lon="9.654554745166443"><ele>49.0</ele><time>2026-04-11T10:50:28.001Z</time></trkpt><trkpt lat="45.1313808429824" lon="9.654824744489078"><ele>50.0</ele><time>2026-04-11T10:50:29.001Z</time></trkpt><trkpt lat="45.13124500805717" lon="9.655098856051692"><ele>48.5</ele><time>2026-04-11T10:50:30.001Z</time></trkpt><trkpt lat="45.131108628194866" lon="9.655369218451943"><ele>47.0</ele><time>2026-04-11T10:50:31.001Z</time></trkpt><trkpt lat="45.1309722454832" lon="9.655640628752659"><ele>47.0</ele><time>2026-04-11T10:50:32.001Z</time></trkpt><trkpt lat="45.1308379272834" lon="9.655911706182073"><ele>47.0</ele><time>2026-04-11T10:50:33.001Z</time></trkpt><trkpt lat="45.1307032850793" lon="9.656182744710463"><ele>48.5</ele><time>2026-04-11T10:50:34.001Z</time></trkpt><trkpt lat="45.13056452343559" lon="9.656454113341526"><ele>50.0</ele><time>2026-04-11T10:50:35.001Z</time></trkpt><trkpt lat="45.13042576185369" lon="9.65672176820838"><ele>50.0</ele><time>2026-04-11T10:50:36.001Z</time></trkpt><trkpt lat="45.13028738721666" lon="9.656992624000951"><ele>50.0</ele><time>2026-04-11T10:50:37.001Z</time></trkpt><trkpt lat="45.13014781360469" lon="9.65726454708428"><ele>50.0</ele><time>2026-04-11T10:50:38.001Z</time></trkpt><trkpt lat="45.13000728136391" lon="9.657535992890283"><ele>50.0</ele><time>2026-04-11T10:50:39.001Z</time></trkpt><trkpt lat="45.12986706068653" lon="9.657805677898466"><ele>48.5</ele><time>2026-04-11T10:50:40.001Z</time></trkpt><trkpt lat="45.12972702453359" lon="9.658075355298797"><ele>47.0</ele><time>2026-04-11T10:50:41.001Z</time></trkpt><trkpt lat="45.12958551113241" lon="9.658343820868764"><ele>47.0</ele><time>2026-04-11T10:50:42.001Z</time></trkpt><trkpt lat="45.129443861495965" lon="9.658614200389144"><ele>47.0</ele><time>2026-04-11T10:50:43.001Z</time></trkpt><trkpt lat="45.12930571718737" lon="9.65888353858067"><ele>47.0</ele><time>2026-04-11T10:50:44.001Z</time></trkpt><trkpt lat="45.129166650488756" lon="9.659156084156129"><ele>47.0</ele><time>2026-04-11T10:50:45.001Z</time></trkpt><trkpt lat="45.12902810185148" lon="9.659426951044843"><ele>46.5</ele><time>2026-04-11T10:50:46.001Z</time></trkpt><trkpt lat="45.12888805988398" lon="9.65969724376784"><ele>46.0</ele><time>2026-04-11T10:50:47.001Z</time></trkpt><trkpt lat="45.12874759631542" lon="9.659968720037359"><ele>46.0</ele><time>2026-04-11T10:50:48.001Z</time></trkpt><trkpt lat="45.12860730607042" lon="9.660239914407658"><ele>46.0</ele><time>2026-04-11T10:50:49.001Z</time></trkpt><trkpt lat="45.128468006394186" lon="9.660509410120593"><ele>45.5</ele><time>2026-04-11T10:50:50.001Z</time></trkpt><trkpt lat="45.128329675820204" lon="9.660777492868242"><ele>45.0</ele><time>2026-04-11T10:50:51.001Z</time></trkpt><trkpt lat="45.128185672321024" lon="9.661045035494936"><ele>46.0</ele><time>2026-04-11T10:50:52.001Z</time></trkpt><trkpt lat="45.12803605733214" lon="9.661314600750089"><ele>47.0</ele><time>2026-04-11T10:50:53.001Z</time></trkpt><trkpt lat="45.12787995092551" lon="9.661589324931631"><ele>47.0</ele><time>2026-04-11T10:50:54.001Z</time></trkpt><trkpt lat="45.12772098133558" lon="9.661862141181631"><ele>47.0</ele><time>2026-04-11T10:50:55.001Z</time></trkpt><trkpt lat="45.12756264165694" lon="9.662134875584478"><ele>47.5</ele><time>2026-04-11T10:50:56.001Z</time></trkpt><trkpt lat="45.12740394744706" lon="9.662407427884036"><ele>48.0</ele><time>2026-04-11T10:50:57.001Z</time></trkpt><trkpt lat="45.127244858466355" lon="9.662675943922746"><ele>47.5</ele><time>2026-04-11T10:50:58.001Z</time></trkpt><trkpt lat="45.12708421253345" lon="9.662940146721972"><ele>47.0</ele><time>2026-04-11T10:50:59.001Z</time></trkpt><trkpt lat="45.12692104092662" lon="9.663204749796517"><ele>47.0</ele><time>2026-04-11T10:51:00.001Z</time></trkpt><trkpt lat="45.1267570767528" lon="9.663466118948685"><ele>47.0</ele><time>2026-04-11T10:51:01.001Z</time></trkpt><trkpt lat="45.126593105499005" lon="9.663726391252235"><ele>47.0</ele><time>2026-04-11T10:51:02.001Z</time></trkpt><trkpt lat="45.126427724474084" lon="9.663987409471844"><ele>47.0</ele><time>2026-04-11T10:51:03.001Z</time></trkpt><trkpt lat="45.12626305123745" lon="9.664246156174718"><ele>47.0</ele><time>2026-04-11T10:51:04.001Z</time></trkpt><trkpt lat="45.12609168585966" lon="9.664500039995097"><ele>47.0</ele><time>2026-04-11T10:51:05.001Z</time></trkpt><trkpt lat="45.125919345452196" lon="9.664749504852017"><ele>47.0</ele><time>2026-04-11T10:51:06.001Z</time></trkpt><trkpt lat="45.1257461514178" lon="9.664999422037136"><ele>47.0</ele><time>2026-04-11T10:51:07.001Z</time></trkpt><trkpt lat="45.1255725657513" lon="9.665250692869959"><ele>47.0</ele><time>2026-04-11T10:51:08.001Z</time></trkpt><trkpt lat="45.125399706238504" lon="9.665500908819952"><ele>47.0</ele><time>2026-04-11T10:51:09.001Z</time></trkpt><trkpt lat="45.12522779732972" lon="9.665751060157758"><ele>47.0</ele><time>2026-04-11T10:51:10.001Z</time></trkpt><trkpt lat="45.12505472859081" lon="9.666002340938629"><ele>47.0</ele><time>2026-04-11T10:51:11.001Z</time></trkpt><trkpt lat="45.1248819234368" lon="9.666254370008007"><ele>46.5</ele><time>2026-04-11T10:51:12.001Z</time></trkpt><trkpt lat="45.124708875808814" lon="9.666502820710031"><ele>46.0</ele><time>2026-04-11T10:51:13.001Z</time></trkpt><trkpt lat="45.12453341185377" lon="9.666754939779638"><ele>45.0</ele><time>2026-04-11T10:51:14.001Z</time></trkpt><trkpt lat="45.12435784360665" lon="9.667005644050704"><ele>44.0</ele><time>2026-04-11T10:51:15.001Z</time></trkpt><trkpt lat="45.12417984647234" lon="9.667255527301444"><ele>44.5</ele><time>2026-04-11T10:51:16.001Z</time></trkpt><trkpt lat="45.12400359216859" lon="9.667504406456345"><ele>45.0</ele><time>2026-04-11T10:51:17.001Z</time></trkpt><trkpt lat="45.12382938836135" lon="9.66775068456966"><ele>45.0</ele><time>2026-04-11T10:51:18.001Z</time></trkpt><trkpt lat="45.12365674679647" lon="9.66800341393323"><ele>45.0</ele><time>2026-04-11T10:51:19.001Z</time></trkpt><trkpt lat="45.12348534328607" lon="9.668254730015716"><ele>45.0</ele><time>2026-04-11T10:51:20.001Z</time></trkpt><trkpt lat="45.123314494193124" lon="9.668506032260098"><ele>45.0</ele><time>2026-04-11T10:51:21.001Z</time></trkpt><trkpt lat="45.1231428220839" lon="9.66875568269361"><ele>44.5</ele><time>2026-04-11T10:51:22.001Z</time></trkpt><trkpt lat="45.12297134982532" lon="9.669007554069113"><ele>44.0</ele><time>2026-04-11T10:51:23.001Z</time></trkpt><trkpt lat="45.12280017500208" lon="9.669256685784251"><ele>44.0</ele><time>2026-04-11T10:51:24.001Z</time></trkpt><trkpt lat="45.122628650579415" lon="9.669505950316834"><ele>44.0</ele><time>2026-04-11T10:51:25.001Z</time></trkpt><trkpt lat="45.122453584862036" lon="9.669758226860331"><ele>44.5</ele><time>2026-04-11T10:51:26.001Z</time></trkpt><trkpt lat="45.12227903404142" lon="9.670006512409307"><ele>45.0</ele><time>2026-04-11T10:51:27.001Z</time></trkpt><trkpt lat="45.12210400336254" lon="9.670256074243307"><ele>45.0</ele><time>2026-04-11T10:51:28.001Z</time></trkpt><trkpt lat="45.1219308522104" lon="9.670505466991386"><ele>45.0</ele><time>2026-04-11T10:51:29.001Z</time></trkpt><trkpt lat="45.12175770058645" lon="9.670756360833106"><ele>45.0</ele><time>2026-04-11T10:51:30.001Z</time></trkpt><trkpt lat="45.12158406598164" lon="9.671006109379984"><ele>45.0</ele><time>2026-04-11T10:51:31.001Z</time></trkpt><trkpt lat="45.1214124901239" lon="9.671250781749526"><ele>45.5</ele><time>2026-04-11T10:51:32.001Z</time></trkpt><trkpt lat="45.121236694378844" lon="9.671500263754982"><ele>46.0</ele><time>2026-04-11T10:51:33.001Z</time></trkpt><trkpt lat="45.121060338687506" lon="9.671750857343687"><ele>46.0</ele><time>2026-04-11T10:51:34.001Z</time></trkpt><trkpt lat="45.12088536924504" lon="9.672003744623485"><ele>46.0</ele><time>2026-04-11T10:51:35.001Z</time></trkpt><trkpt lat="45.12071296856844" lon="9.672255236413996"><ele>46.5</ele><time>2026-04-11T10:51:36.001Z</time></trkpt><trkpt lat="45.12053850786871" lon="9.6725098155456"><ele>47.0</ele><time>2026-04-11T10:51:37.001Z</time></trkpt><trkpt lat="45.120364805902675" lon="9.672764901170435"><ele>47.0</ele><time>2026-04-11T10:51:38.001Z</time></trkpt><trkpt lat="45.120190467117524" lon="9.673020917662358"><ele>47.0</ele><time>2026-04-11T10:51:39.001Z</time></trkpt><trkpt lat="45.120017286039825" lon="9.673274253215027"><ele>45.5</ele><time>2026-04-11T10:51:40.001Z</time></trkpt><trkpt lat="45.11984263802795" lon="9.673527920186181"><ele>44.0</ele><time>2026-04-11T10:51:41.001Z</time></trkpt><trkpt lat="45.11967201448867" lon="9.67377446849217"><ele>44.0</ele><time>2026-04-11T10:51:42.001Z</time></trkpt><trkpt lat="45.1194990590276" lon="9.674025629407943"><ele>44.0</ele><time>2026-04-11T10:51:43.001Z</time></trkpt><trkpt lat="45.11932462934509" lon="9.674274832379428"><ele>43.5</ele><time>2026-04-11T10:51:44.001Z</time></trkpt><trkpt lat="45.119151509034914" lon="9.674524335508913"><ele>43.0</ele><time>2026-04-11T10:51:45.001Z</time></trkpt><trkpt lat="45.11898010979285" lon="9.674775521524984"><ele>44.0</ele><time>2026-04-11T10:51:46.001Z</time></trkpt><trkpt lat="45.11880619597959" lon="9.675023528519374"><ele>45.0</ele><time>2026-04-11T10:51:47.001Z</time></trkpt><trkpt lat="45.11863344030857" lon="9.675271283748637"><ele>45.0</ele><time>2026-04-11T10:51:48.001Z</time></trkpt><trkpt lat="45.11846146002032" lon="9.675521522644845"><ele>45.0</ele><time>2026-04-11T10:51:49.001Z</time></trkpt><trkpt lat="45.11829103142639" lon="9.675772341604361"><ele>44.0</ele><time>2026-04-11T10:51:50.001Z</time></trkpt><trkpt lat="45.11811938643565" lon="9.67602228271534"><ele>43.0</ele><time>2026-04-11T10:51:51.001Z</time></trkpt><trkpt lat="45.11794482154952" lon="9.67627377000035"><ele>45.0</ele><time>2026-04-11T10:51:52.001Z</time></trkpt><trkpt lat="45.11777087714176" lon="9.676527032659271"><ele>47.0</ele><time>2026-04-11T10:51:53.001Z</time></trkpt><trkpt lat="45.11759787464007" lon="9.676778692272375"><ele>45.5</ele><time>2026-04-11T10:51:54.001Z</time></trkpt><trkpt lat="45.117422340328844" lon="9.677030447393872"><ele>44.0</ele><time>2026-04-11T10:51:55.001Z</time></trkpt><trkpt lat="45.117247969462234" lon="9.677283215802811"><ele>44.0</ele><time>2026-04-11T10:51:56.001Z</time></trkpt><trkpt lat="45.117074239063626" lon="9.677534052350445"><ele>44.0</ele><time>2026-04-11T10:51:57.001Z</time></trkpt><trkpt lat="45.11689953967091" lon="9.677785759213315"><ele>44.0</ele><time>2026-04-11T10:51:58.001Z</time></trkpt><trkpt lat="45.11672558878564" lon="9.678034059216087"><ele>44.0</ele><time>2026-04-11T10:51:59.001Z</time></trkpt><trkpt lat="45.11655068659661" lon="9.678283168329214"><ele>44.5</ele><time>2026-04-11T10:52:00.001Z</time></trkpt><trkpt lat="45.11637672188097" lon="9.678534608366116"><ele>45.0</ele><time>2026-04-11T10:52:01.001Z</time></trkpt><trkpt lat="45.1162019063434" lon="9.678783762499584"><ele>45.0</ele><time>2026-04-11T10:52:02.001Z</time></trkpt><trkpt lat="45.116025870029944" lon="9.679035835996766"><ele>45.0</ele><time>2026-04-11T10:52:03.001Z</time></trkpt><trkpt lat="45.115851910504134" lon="9.67928701304041"><ele>45.0</ele><time>2026-04-11T10:52:04.001Z</time></trkpt><trkpt lat="45.11567655019231" lon="9.679538902584616"><ele>45.0</ele><time>2026-04-11T10:52:05.001Z</time></trkpt><trkpt lat="45.11550318043789" lon="9.679787142284024"><ele>45.0</ele><time>2026-04-11T10:52:06.001Z</time></trkpt><trkpt lat="45.115330666746786" lon="9.680037341763018"><ele>45.0</ele><time>2026-04-11T10:52:07.001Z</time></trkpt><trkpt lat="45.115156543924606" lon="9.680287714840372"><ele>45.0</ele><time>2026-04-11T10:52:08.001Z</time></trkpt><trkpt lat="45.11498457936526" lon="9.680537403329431"><ele>45.0</ele><time>2026-04-11T10:52:09.001Z</time></trkpt><trkpt lat="45.1148125207099" lon="9.680788000160028"><ele>44.0</ele><time>2026-04-11T10:52:10.001Z</time></trkpt><trkpt lat="45.11463758348243" lon="9.681036255108944"><ele>43.0</ele><time>2026-04-11T10:52:11.001Z</time></trkpt><trkpt lat="45.114460584369056" lon="9.681285204783034"><ele>43.0</ele><time>2026-04-11T10:52:12.001Z</time></trkpt><trkpt lat="45.11428568598917" lon="9.681538710939245"><ele>43.0</ele><time>2026-04-11T10:52:13.001Z</time></trkpt><trkpt lat="45.11411261575588" lon="9.681792586458004"><ele>43.5</ele><time>2026-04-11T10:52:14.001Z</time></trkpt><trkpt lat="45.113940942022474" lon="9.682045898468603"><ele>44.0</ele><time>2026-04-11T10:52:15.001Z</time></trkpt><trkpt lat="45.11376811531256" lon="9.682297268875477"><ele>44.0</ele><time>2026-04-11T10:52:16.001Z</time></trkpt><trkpt lat="45.11359430632264" lon="9.68254815783667"><ele>44.0</ele><time>2026-04-11T10:52:17.001Z</time></trkpt><trkpt lat="45.11341938723702" lon="9.682798772005068"><ele>43.5</ele><time>2026-04-11T10:52:18Z</time></trkpt><trkpt lat="45.113245169319065" lon="9.683048449669922"><ele>43.0</ele><time>2026-04-11T10:52:19Z</time></trkpt><trkpt lat="45.113071913753046" lon="9.68329823898494"><ele>43.0</ele><time>2026-04-11T10:52:20Z</time></trkpt><trkpt lat="45.1128993163932" lon="9.6835509838957"><ele>43.0</ele><time>2026-04-11T10:52:21Z</time></trkpt><trkpt lat="45.112731728426816" lon="9.683804256679458"><ele>44.0</ele><time>2026-04-11T10:52:22Z</time></trkpt><trkpt lat="45.11256276462179" lon="9.68406079802644"><ele>45.0</ele><time>2026-04-11T10:52:23Z</time></trkpt><trkpt lat="45.11239112567027" lon="9.68431430180778"><ele>45.5</ele><time>2026-04-11T10:52:24Z</time></trkpt><trkpt lat="45.112216445009324" lon="9.684564734082805"><ele>46.0</ele><time>2026-04-11T10:52:25Z</time></trkpt><trkpt lat="45.112040518417594" lon="9.684810773880939"><ele>46.0</ele><time>2026-04-11T10:52:26Z</time></trkpt><trkpt lat="45.111862085773005" lon="9.685054564020252"><ele>46.0</ele><time>2026-04-11T10:52:27Z</time></trkpt><trkpt lat="45.11168281401711" lon="9.685297166864228"><ele>47.0</ele><time>2026-04-11T10:52:28Z</time></trkpt><trkpt lat="45.11150414930054" lon="9.685539657488501"><ele>48.0</ele><time>2026-04-11T10:52:29Z</time></trkpt><trkpt lat="45.11132439191981" lon="9.685778643982268"><ele>48.0</ele><time>2026-04-11T10:52:30Z</time></trkpt><trkpt lat="45.11114530037799" lon="9.686015507232847"><ele>48.0</ele><time>2026-04-11T10:52:31Z</time></trkpt><trkpt lat="45.110964608423785" lon="9.686254421665545"><ele>48.0</ele><time>2026-04-11T10:52:32Z</time></trkpt><trkpt lat="45.110781902282845" lon="9.686491617514921"><ele>48.0</ele><time>2026-04-11T10:52:33Z</time></trkpt><trkpt lat="45.11059763163342" lon="9.686727235765133"><ele>47.5</ele><time>2026-04-11T10:52:34Z</time></trkpt><trkpt lat="45.11041469071996" lon="9.686961336202438"><ele>47.0</ele><time>2026-04-11T10:52:35Z</time></trkpt><trkpt lat="45.110230514590405" lon="9.687191763111603"><ele>47.0</ele><time>2026-04-11T10:52:36Z</time></trkpt><trkpt lat="45.110043238716784" lon="9.687418797241408"><ele>47.0</ele><time>2026-04-11T10:52:37Z</time></trkpt><trkpt lat="45.1098556992791" lon="9.687640720737976"><ele>46.5</ele><time>2026-04-11T10:52:38Z</time></trkpt><trkpt lat="45.10966568353926" lon="9.687865246378125"><ele>46.0</ele><time>2026-04-11T10:52:39Z</time></trkpt><trkpt lat="45.10947216800243" lon="9.68808686238736"><ele>46.0</ele><time>2026-04-11T10:52:40Z</time></trkpt><trkpt lat="45.10927745851057" lon="9.688307302032044"><ele>46.0</ele><time>2026-04-11T10:52:41Z</time></trkpt><trkpt lat="45.10908509151755" lon="9.688524682902944"><ele>47.0</ele><time>2026-04-11T10:52:42Z</time></trkpt><trkpt lat="45.108889697945806" lon="9.688742586942553"><ele>48.0</ele><time>2026-04-11T10:52:43Z</time></trkpt><trkpt lat="45.108692972567" lon="9.688958669877842"><ele>48.0</ele><time>2026-04-11T10:52:44Z</time></trkpt><trkpt lat="45.10849580533339" lon="9.68917342432821"><ele>48.0</ele><time>2026-04-11T10:52:45Z</time></trkpt><trkpt lat="45.108298526056004" lon="9.689385470195235"><ele>47.5</ele><time>2026-04-11T10:52:46Z</time></trkpt><trkpt lat="45.10810214976641" lon="9.689600111547428"><ele>47.0</ele><time>2026-04-11T10:52:47Z</time></trkpt><trkpt lat="45.10790675467496" lon="9.689815119026854"><ele>47.0</ele><time>2026-04-11T10:52:48Z</time></trkpt><trkpt lat="45.10771155427664" lon="9.6900292094695"><ele>47.0</ele><time>2026-04-11T10:52:49Z</time></trkpt><trkpt lat="45.10751371438692" lon="9.690242737901281"><ele>46.5</ele><time>2026-04-11T10:52:50Z</time></trkpt><trkpt lat="45.10731477448736" lon="9.690455531760959"><ele>46.0</ele><time>2026-04-11T10:52:51Z</time></trkpt><trkpt lat="45.10711757384229" lon="9.690662161805049"><ele>46.0</ele><time>2026-04-11T10:52:52Z</time></trkpt><trkpt lat="45.106921002340854" lon="9.69087253154088"><ele>46.0</ele><time>2026-04-11T10:52:53Z</time></trkpt><trkpt lat="45.10672452605401" lon="9.691086265895704"><ele>47.0</ele><time>2026-04-11T10:52:54Z</time></trkpt><trkpt lat="45.10652748227806" lon="9.691299070538305"><ele>48.0</ele><time>2026-04-11T10:52:55Z</time></trkpt><trkpt lat="45.106331903576034" lon="9.691509388586205"><ele>48.0</ele><time>2026-04-11T10:52:56Z</time></trkpt><trkpt lat="45.10613135954574" lon="9.691724019906271"><ele>48.0</ele><time>2026-04-11T10:52:57Z</time></trkpt><trkpt lat="45.10593209318574" lon="9.691937730617303"><ele>46.5</ele><time>2026-04-11T10:52:58Z</time></trkpt><trkpt lat="45.105733753718994" lon="9.69214989599113"><ele>45.0</ele><time>2026-04-11T10:52:59Z</time></trkpt><trkpt lat="45.105535639655066" lon="9.692363770034756"><ele>45.0</ele><time>2026-04-11T10:53:00Z</time></trkpt><trkpt lat="45.105340430050376" lon="9.692575828156453"><ele>45.0</ele><time>2026-04-11T10:53:01Z</time></trkpt><trkpt lat="45.105145412668826" lon="9.692784778557996"><ele>45.0</ele><time>2026-04-11T10:53:02Z</time></trkpt><trkpt lat="45.10494580707553" lon="9.692994587205838"><ele>45.0</ele><time>2026-04-11T10:53:03Z</time></trkpt><trkpt lat="45.104748358413545" lon="9.693206056079058"><ele>45.0</ele><time>2026-04-11T10:53:04Z</time></trkpt><trkpt lat="45.10455157782431" lon="9.693417304220667"><ele>45.0</ele><time>2026-04-11T10:53:05Z</time></trkpt><trkpt lat="45.10435465669485" lon="9.693628471840317"><ele>45.5</ele><time>2026-04-11T10:53:06Z</time></trkpt><trkpt lat="45.10415882779896" lon="9.69383691350187"><ele>46.0</ele><time>2026-04-11T10:53:07Z</time></trkpt><trkpt lat="45.10396212845875" lon="9.694048116673297"><ele>46.0</ele><time>2026-04-11T10:53:08Z</time></trkpt><trkpt lat="45.10376381457617" lon="9.694262118246359"><ele>46.0</ele><time>2026-04-11T10:53:09Z</time></trkpt><trkpt lat="45.10356666469316" lon="9.694474437372758"><ele>45.5</ele><time>2026-04-11T10:53:10Z</time></trkpt><trkpt lat="45.10336903554741" lon="9.694688752823595"><ele>45.0</ele><time>2026-04-11T10:53:11Z</time></trkpt><trkpt lat="45.103171488843" lon="9.694902366607549"><ele>45.0</ele><time>2026-04-11T10:53:12Z</time></trkpt><trkpt lat="45.1029741445307" lon="9.695113889252243"><ele>45.0</ele><time>2026-04-11T10:53:13Z</time></trkpt><trkpt lat="45.10277605852315" lon="9.695328145280422"><ele>45.0</ele><time>2026-04-11T10:53:14Z</time></trkpt><trkpt lat="45.10257767105028" lon="9.695543321540649"><ele>45.0</ele><time>2026-04-11T10:53:15Z</time></trkpt><trkpt lat="45.102376418517956" lon="9.695756581013718"><ele>45.0</ele><time>2026-04-11T10:53:16Z</time></trkpt><trkpt lat="45.10217906150428" lon="9.695968024795853"><ele>45.0</ele><time>2026-04-11T10:53:17Z</time></trkpt><trkpt lat="45.10198241010521" lon="9.696179654264364"><ele>44.5</ele><time>2026-04-11T10:53:18Z</time></trkpt><trkpt lat="45.101786930864435" lon="9.696391547314313"><ele>44.0</ele><time>2026-04-11T10:53:19Z</time></trkpt><trkpt lat="45.10158928179248" lon="9.696603601286494"><ele>45.0</ele><time>2026-04-11T10:53:20Z</time></trkpt><trkpt lat="45.10138983813114" lon="9.696816189034227"><ele>46.0</ele><time>2026-04-11T10:53:21Z</time></trkpt><trkpt lat="45.10119164451857" lon="9.697027479210467"><ele>46.0</ele><time>2026-04-11T10:53:22Z</time></trkpt><trkpt lat="45.100992378783175" lon="9.697238023036377"><ele>46.0</ele><time>2026-04-11T10:53:23Z</time></trkpt><trkpt lat="45.100794925172565" lon="9.697448462232444"><ele>47.0</ele><time>2026-04-11T10:53:24Z</time></trkpt><trkpt lat="45.10059862637018" lon="9.697658983377448"><ele>48.0</ele><time>2026-04-11T10:53:25Z</time></trkpt><trkpt lat="45.100401910536476" lon="9.697870701455358"><ele>48.0</ele><time>2026-04-11T10:53:26Z</time></trkpt><trkpt lat="45.10020286657495" lon="9.69808438005617"><ele>48.0</ele><time>2026-04-11T10:53:27Z</time></trkpt><trkpt lat="45.1000058177082" lon="9.698297864524474"><ele>46.5</ele><time>2026-04-11T10:53:28Z</time></trkpt><trkpt lat="45.099809875212244" lon="9.698510507304093"><ele>45.0</ele><time>2026-04-11T10:53:29Z</time></trkpt><trkpt lat="45.09961024761233" lon="9.698723235500072"><ele>45.0</ele><time>2026-04-11T10:53:30Z</time></trkpt><trkpt lat="45.09941085760474" lon="9.69893586476971"><ele>45.0</ele><time>2026-04-11T10:53:31Z</time></trkpt><trkpt lat="45.09921243244306" lon="9.69914436451982"><ele>44.0</ele><time>2026-04-11T10:53:32Z</time></trkpt><trkpt lat="45.09901469093554" lon="9.699352453464686"><ele>43.0</ele><time>2026-04-11T10:53:33Z</time></trkpt><trkpt lat="45.09881660688287" lon="9.699563576742378"><ele>43.0</ele><time>2026-04-11T10:53:34Z</time></trkpt><trkpt lat="45.0986223246214" lon="9.699774093713321"><ele>43.0</ele><time>2026-04-11T10:53:35Z</time></trkpt><trkpt lat="45.09842353878663" lon="9.699986395180312"><ele>43.0</ele><time>2026-04-11T10:53:36Z</time></trkpt><trkpt lat="45.098226173690236" lon="9.70019828408832"><ele>43.0</ele><time>2026-04-11T10:53:37Z</time></trkpt><trkpt lat="45.09802926979834" lon="9.700411072889803"><ele>43.0</ele><time>2026-04-11T10:53:38Z</time></trkpt><trkpt lat="45.09783188636022" lon="9.700623726665045"><ele>43.0</ele><time>2026-04-11T10:53:39Z</time></trkpt><trkpt lat="45.09763365751315" lon="9.700835233732407"><ele>43.0</ele><time>2026-04-11T10:53:40Z</time></trkpt><trkpt lat="45.09743381842527" lon="9.701044856812532"><ele>43.0</ele><time>2026-04-11T10:53:41Z</time></trkpt><trkpt lat="45.09723264647237" lon="9.70125462786889"><ele>44.0</ele><time>2026-04-11T10:53:42Z</time></trkpt><trkpt lat="45.09703247314477" lon="9.701463509702291"><ele>45.0</ele><time>2026-04-11T10:53:43Z</time></trkpt><trkpt lat="45.09682928947201" lon="9.70167418600338"><ele>45.0</ele><time>2026-04-11T10:53:44Z</time></trkpt><trkpt lat="45.09663120076247" lon="9.701884972500736"><ele>45.0</ele><time>2026-04-11T10:53:45Z</time></trkpt><trkpt lat="45.09643343914244" lon="9.702094986199883"><ele>44.5</ele><time>2026-04-11T10:53:46Z</time></trkpt><trkpt lat="45.09623804722539" lon="9.702306095418932"><ele>44.0</ele><time>2026-04-11T10:53:47Z</time></trkpt><trkpt lat="45.09604102454949" lon="9.702515686320035"><ele>44.0</ele><time>2026-04-11T10:53:48Z</time></trkpt><trkpt lat="45.09584239016251" lon="9.702726708315595"><ele>44.0</ele><time>2026-04-11T10:53:49Z</time></trkpt><trkpt lat="45.09564506815824" lon="9.7029416572866"><ele>44.0</ele><time>2026-04-11T10:53:50Z</time></trkpt><trkpt lat="45.095450107734905" lon="9.703153430616178"><ele>44.0</ele><time>2026-04-11T10:53:51Z</time></trkpt><trkpt lat="45.095254196202255" lon="9.70336639628806"><ele>44.0</ele><time>2026-04-11T10:53:52Z</time></trkpt><trkpt lat="45.09505918658947" lon="9.703578172418787"><ele>44.0</ele><time>2026-04-11T10:53:53Z</time></trkpt><trkpt lat="45.09486243478565" lon="9.703790233579944"><ele>45.0</ele><time>2026-04-11T10:53:54Z</time></trkpt><trkpt lat="45.09466498333507" lon="9.704000503839046"><ele>46.0</ele><time>2026-04-11T10:53:55Z</time></trkpt><trkpt lat="45.094468518253024" lon="9.70421026146214"><ele>45.0</ele><time>2026-04-11T10:53:56Z</time></trkpt><trkpt lat="45.094270524351955" lon="9.704421045848392"><ele>44.0</ele><time>2026-04-11T10:53:57Z</time></trkpt><trkpt lat="45.09407263482686" lon="9.70463070901387"><ele>43.5</ele><time>2026-04-11T10:53:58Z</time></trkpt><trkpt lat="45.09387545564485" lon="9.704842768051428"><ele>43.0</ele><time>2026-04-11T10:53:59Z</time></trkpt><trkpt lat="45.09368001046013" lon="9.705058501185032"><ele>43.5</ele><time>2026-04-11T10:54:00Z</time></trkpt><trkpt lat="45.09348350816929" lon="9.705271793159453"><ele>44.0</ele><time>2026-04-11T10:54:01Z</time></trkpt><trkpt lat="45.09328713476678" lon="9.70548434468263"><ele>43.0</ele><time>2026-04-11T10:54:02Z</time></trkpt><trkpt lat="45.09308890934305" lon="9.705698359364424"><ele>42.0</ele><time>2026-04-11T10:54:03Z</time></trkpt><trkpt lat="45.0928905661985" lon="9.705908768122061"><ele>43.0</ele><time>2026-04-11T10:54:04Z</time></trkpt><trkpt lat="45.092691774666484" lon="9.70612046997404"><ele>44.0</ele><time>2026-04-11T10:54:05Z</time></trkpt><trkpt lat="45.092492860437574" lon="9.706331699259493"><ele>45.0</ele><time>2026-04-11T10:54:06Z</time></trkpt><trkpt lat="45.09229601575757" lon="9.7065450475286"><ele>46.0</ele><time>2026-04-11T10:54:07Z</time></trkpt><trkpt lat="45.09209993645906" lon="9.70675899086268"><ele>46.5</ele><time>2026-04-11T10:54:08Z</time></trkpt><trkpt lat="45.091902227068225" lon="9.70697241307369"><ele>47.0</ele><time>2026-04-11T10:54:09Z</time></trkpt><trkpt lat="45.091703466872325" lon="9.707185891589305"><ele>46.5</ele><time>2026-04-11T10:54:10Z</time></trkpt><trkpt lat="45.09150468241036" lon="9.707398561457639"><ele>46.0</ele><time>2026-04-11T10:54:11Z</time></trkpt><trkpt lat="45.091310166102055" lon="9.707607882157646"><ele>44.5</ele><time>2026-04-11T10:54:12Z</time></trkpt><trkpt lat="45.09111186451132" lon="9.707818048960256"><ele>43.0</ele><time>2026-04-11T10:54:13Z</time></trkpt><trkpt lat="45.09091244688539" lon="9.70803005963892"><ele>43.0</ele><time>2026-04-11T10:54:14Z</time></trkpt><trkpt lat="45.090717457318725" lon="9.708244595017659"><ele>43.0</ele><time>2026-04-11T10:54:15Z</time></trkpt><trkpt lat="45.0905217510924" lon="9.708458239854087"><ele>42.5</ele><time>2026-04-11T10:54:16Z</time></trkpt><trkpt lat="45.09032384377104" lon="9.708670703795164"><ele>42.0</ele><time>2026-04-11T10:54:17Z</time></trkpt><trkpt lat="45.09012777152722" lon="9.70888514171522"><ele>42.0</ele><time>2026-04-11T10:54:18Z</time></trkpt><trkpt lat="45.08993200225928" lon="9.709098431465558"><ele>42.0</ele><time>2026-04-11T10:54:19Z</time></trkpt><trkpt lat="45.089735899905065" lon="9.709309777877625"><ele>43.5</ele><time>2026-04-11T10:54:20Z</time></trkpt><trkpt lat="45.08954020314157" lon="9.70952193210315"><ele>45.0</ele><time>2026-04-11T10:54:21Z</time></trkpt><trkpt lat="45.08934386673186" lon="9.709740101272487"><ele>45.0</ele><time>2026-04-11T10:54:22Z</time></trkpt><trkpt lat="45.08915176307795" lon="9.709961119946314"><ele>45.0</ele><time>2026-04-11T10:54:23Z</time></trkpt><trkpt lat="45.0889591394967" lon="9.710182873324475"><ele>45.5</ele><time>2026-04-11T10:54:24Z</time></trkpt><trkpt lat="45.0887692837175" lon="9.710400093254796"><ele>46.0</ele><time>2026-04-11T10:54:25.001Z</time></trkpt><trkpt lat="45.088577156238614" lon="9.710619161896856"><ele>46.0</ele><time>2026-04-11T10:54:26.001Z</time></trkpt><trkpt lat="45.088383143986505" lon="9.710835148622571"><ele>46.0</ele><time>2026-04-11T10:54:27.001Z</time></trkpt><trkpt lat="45.088187658623156" lon="9.711049976103299"><ele>46.0</ele><time>2026-04-11T10:54:28.001Z</time></trkpt><trkpt lat="45.08799008632883" lon="9.711264270427545"><ele>46.0</ele><time>2026-04-11T10:54:29.001Z</time></trkpt><trkpt lat="45.087792590392276" lon="9.711480234348604"><ele>46.0</ele><time>2026-04-11T10:54:30.001Z</time></trkpt><trkpt lat="45.08759773489518" lon="9.711694139772934"><ele>46.0</ele><time>2026-04-11T10:54:31.001Z</time></trkpt><trkpt lat="45.087401803594716" lon="9.711908025339364"><ele>46.0</ele><time>2026-04-11T10:54:32.001Z</time></trkpt><trkpt lat="45.08720469011261" lon="9.712119534819626"><ele>46.0</ele><time>2026-04-11T10:54:33.001Z</time></trkpt><trkpt lat="45.08700727786244" lon="9.712331746595323"><ele>46.0</ele><time>2026-04-11T10:54:34.001Z</time></trkpt><trkpt lat="45.08681244203765" lon="9.71254097453895"><ele>46.0</ele><time>2026-04-11T10:54:35.001Z</time></trkpt><trkpt lat="45.08661535128512" lon="9.712748772421264"><ele>46.5</ele><time>2026-04-11T10:54:36.001Z</time></trkpt><trkpt lat="45.08641757677068" lon="9.712955213816887"><ele>47.0</ele><time>2026-04-11T10:54:37.001Z</time></trkpt><trkpt lat="45.08621920625378" lon="9.713164778393327"><ele>47.0</ele><time>2026-04-11T10:54:38.001Z</time></trkpt><trkpt lat="45.0860229414236" lon="9.713373334487395"><ele>47.0</ele><time>2026-04-11T10:54:39.001Z</time></trkpt><trkpt lat="45.08582864890802" lon="9.71358451390113"><ele>47.0</ele><time>2026-04-11T10:54:40.001Z</time></trkpt><trkpt lat="45.08563398459839" lon="9.713798976372194"><ele>47.0</ele><time>2026-04-11T10:54:41.001Z</time></trkpt><trkpt lat="45.08543730810875" lon="9.714013017550478"><ele>47.0</ele><time>2026-04-11T10:54:42.001Z</time></trkpt><trkpt lat="45.08523918476035" lon="9.714227598137331"><ele>47.0</ele><time>2026-04-11T10:54:43.001Z</time></trkpt><trkpt lat="45.0850427344707" lon="9.714440652130644"><ele>47.0</ele><time>2026-04-11T10:54:44.001Z</time></trkpt><trkpt lat="45.08484366013842" lon="9.714652167008428"><ele>47.0</ele><time>2026-04-11T10:54:45.001Z</time></trkpt><trkpt lat="45.08464436350614" lon="9.714864416548629"><ele>47.0</ele><time>2026-04-11T10:54:46.001Z</time></trkpt><trkpt lat="45.08444781338353" lon="9.715076439119967"><ele>47.0</ele><time>2026-04-11T10:54:47.001Z</time></trkpt><trkpt lat="45.08425087368915" lon="9.715289328857018"><ele>47.5</ele><time>2026-04-11T10:54:48.001Z</time></trkpt><trkpt lat="45.084052305491326" lon="9.715501647432324"><ele>48.0</ele><time>2026-04-11T10:54:49.001Z</time></trkpt><trkpt lat="45.08385530053275" lon="9.715713401956881"><ele>48.0</ele><time>2026-04-11T10:54:50.001Z</time></trkpt><trkpt lat="45.08365915496267" lon="9.715928397820225"><ele>48.0</ele><time>2026-04-11T10:54:51.001Z</time></trkpt><trkpt lat="45.08346157469592" lon="9.716144441348215"><ele>48.5</ele><time>2026-04-11T10:54:52.001Z</time></trkpt><trkpt lat="45.083264528158665" lon="9.716357890667236"><ele>49.0</ele><time>2026-04-11T10:54:53.001Z</time></trkpt><trkpt lat="45.083065260807395" lon="9.716575912552326"><ele>49.0</ele><time>2026-04-11T10:54:54.001Z</time></trkpt><trkpt lat="45.08286610845606" lon="9.716791319949532"><ele>49.0</ele><time>2026-04-11T10:54:55.001Z</time></trkpt><trkpt lat="45.08266563489879" lon="9.717006643148828"><ele>49.0</ele><time>2026-04-11T10:54:56.001Z</time></trkpt><trkpt lat="45.0824648277761" lon="9.71722268067615"><ele>49.0</ele><time>2026-04-11T10:54:57.001Z</time></trkpt><trkpt lat="45.0822633716739" lon="9.717436945171402"><ele>49.0</ele><time>2026-04-11T10:54:58.001Z</time></trkpt><trkpt lat="45.08206293745819" lon="9.717647815627943"><ele>49.0</ele><time>2026-04-11T10:54:59.001Z</time></trkpt><trkpt lat="45.08186297622426" lon="9.717860003659098"><ele>49.0</ele><time>2026-04-11T10:55:00.001Z</time></trkpt><trkpt lat="45.081665511742244" lon="9.718071913108194"><ele>49.0</ele><time>2026-04-11T10:55:01Z</time></trkpt><trkpt lat="45.08146792349236" lon="9.718284352027013"><ele>48.0</ele><time>2026-04-11T10:55:02Z</time></trkpt><trkpt lat="45.08126964876822" lon="9.718496924030639"><ele>47.0</ele><time>2026-04-11T10:55:03Z</time></trkpt><trkpt lat="45.08107190181419" lon="9.71870735905837"><ele>47.0</ele><time>2026-04-11T10:55:04Z</time></trkpt><trkpt lat="45.080873749890486" lon="9.718918342319006"><ele>47.0</ele><time>2026-04-11T10:55:05Z</time></trkpt><trkpt lat="45.08067331698169" lon="9.719127737722268"><ele>47.0</ele><time>2026-04-11T10:55:06Z</time></trkpt><trkpt lat="45.08047377526439" lon="9.719336313200495"><ele>47.0</ele><time>2026-04-11T10:55:07Z</time></trkpt><trkpt lat="45.08027333671962" lon="9.719547515973725"><ele>47.0</ele><time>2026-04-11T10:55:08Z</time></trkpt><trkpt lat="45.08007417100954" lon="9.719757561027928"><ele>47.0</ele><time>2026-04-11T10:55:09Z</time></trkpt><trkpt lat="45.07987213643414" lon="9.719963936409869"><ele>46.5</ele><time>2026-04-11T10:55:10Z</time></trkpt><trkpt lat="45.079668748224734" lon="9.720166948697702"><ele>46.0</ele><time>2026-04-11T10:55:11Z</time></trkpt><trkpt lat="45.07946718598775" lon="9.720368229284372"><ele>46.0</ele><time>2026-04-11T10:55:12Z</time></trkpt><trkpt lat="45.079265332558975" lon="9.72057057768426"><ele>46.0</ele><time>2026-04-11T10:55:13Z</time></trkpt><trkpt lat="45.07906626883915" lon="9.72077606607341"><ele>46.0</ele><time>2026-04-11T10:55:14Z</time></trkpt><trkpt lat="45.07886874327936" lon="9.720981094693373"><ele>46.0</ele><time>2026-04-11T10:55:15Z</time></trkpt><trkpt lat="45.07867139466196" lon="9.721186183579743"><ele>46.5</ele><time>2026-04-11T10:55:16Z</time></trkpt><trkpt lat="45.078475737587716" lon="9.72139384033058"><ele>47.0</ele><time>2026-04-11T10:55:17Z</time></trkpt><trkpt lat="45.07828012288756" lon="9.721599268622663"><ele>47.0</ele><time>2026-04-11T10:55:18Z</time></trkpt><trkpt lat="45.07808272010463" lon="9.721804064415918"><ele>47.0</ele><time>2026-04-11T10:55:19Z</time></trkpt><trkpt lat="45.077886734756476" lon="9.722006112438363"><ele>47.0</ele><time>2026-04-11T10:55:20Z</time></trkpt><trkpt lat="45.07768819078845" lon="9.72220818322853"><ele>47.0</ele><time>2026-04-11T10:55:21Z</time></trkpt><trkpt lat="45.077488824249485" lon="9.722406658701154"><ele>46.5</ele><time>2026-04-11T10:55:22Z</time></trkpt><trkpt lat="45.07728818704157" lon="9.722606271259123"><ele>46.0</ele><time>2026-04-11T10:55:23Z</time></trkpt><trkpt lat="45.07708728083434" lon="9.722806608837852"><ele>46.0</ele><time>2026-04-11T10:55:24Z</time></trkpt><trkpt lat="45.076883322452545" lon="9.723008375401045"><ele>46.0</ele><time>2026-04-11T10:55:25Z</time></trkpt><trkpt lat="45.0766781949234" lon="9.723210554433976"><ele>45.5</ele><time>2026-04-11T10:55:26Z</time></trkpt><trkpt lat="45.076472237330464" lon="9.723410863490122"><ele>45.0</ele><time>2026-04-11T10:55:27Z</time></trkpt><trkpt lat="45.07626759278545" lon="9.72361252815283"><ele>46.0</ele><time>2026-04-11T10:55:28Z</time></trkpt><trkpt lat="45.07606448284252" lon="9.723816533218816"><ele>47.0</ele><time>2026-04-11T10:55:29Z</time></trkpt><trkpt lat="45.0758597214333" lon="9.724018109395569"><ele>46.5</ele><time>2026-04-11T10:55:30Z</time></trkpt><trkpt lat="45.07565363998715" lon="9.724220607578173"><ele>46.0</ele><time>2026-04-11T10:55:31Z</time></trkpt><trkpt lat="45.07545025451076" lon="9.72442349483099"><ele>47.0</ele><time>2026-04-11T10:55:32Z</time></trkpt><trkpt lat="45.07524778490269" lon="9.724623734142261"><ele>48.0</ele><time>2026-04-11T10:55:33Z</time></trkpt><trkpt lat="45.07504424393232" lon="9.72482259378434"><ele>47.0</ele><time>2026-04-11T10:55:34Z</time></trkpt><trkpt lat="45.07484093055636" lon="9.725020609558435"><ele>46.0</ele><time>2026-04-11T10:55:35Z</time></trkpt><trkpt lat="45.07463657934338" lon="9.725221316009138"><ele>47.5</ele><time>2026-04-11T10:55:36Z</time></trkpt><trkpt lat="45.07443238243306" lon="9.725420389799762"><ele>49.0</ele><time>2026-04-11T10:55:37Z</time></trkpt><trkpt lat="45.07422955831397" lon="9.72562044840586"><ele>47.0</ele><time>2026-04-11T10:55:38Z</time></trkpt><trkpt lat="45.07402898760144" lon="9.725821898927467"><ele>45.0</ele><time>2026-04-11T10:55:39Z</time></trkpt><trkpt lat="45.07382915499327" lon="9.72602569216728"><ele>46.0</ele><time>2026-04-11T10:55:40Z</time></trkpt><trkpt lat="45.073629482800754" lon="9.72623623651091"><ele>47.0</ele><time>2026-04-11T10:55:41Z</time></trkpt><trkpt lat="45.07343177871987" lon="9.726444612946436"><ele>46.0</ele><time>2026-04-11T10:55:42Z</time></trkpt><trkpt lat="45.07323378646515" lon="9.726653176436049"><ele>45.0</ele><time>2026-04-11T10:55:43Z</time></trkpt><trkpt lat="45.073036400375194" lon="9.726858813223949"><ele>47.0</ele><time>2026-04-11T10:55:44Z</time></trkpt><trkpt lat="45.07283688520019" lon="9.72706696447689"><ele>49.0</ele><time>2026-04-11T10:55:45Z</time></trkpt><trkpt lat="45.07263709717145" lon="9.727273813138186"><ele>49.0</ele><time>2026-04-11T10:55:46Z</time></trkpt><trkpt lat="45.072440405008955" lon="9.727477095246313"><ele>49.0</ele><time>2026-04-11T10:55:47Z</time></trkpt><trkpt lat="45.072240939350685" lon="9.727682128653509"><ele>49.5</ele><time>2026-04-11T10:55:48Z</time></trkpt><trkpt lat="45.072040298077916" lon="9.727890005212316"><ele>50.0</ele><time>2026-04-11T10:55:49Z</time></trkpt><trkpt lat="45.07184038178342" lon="9.728095025531056"><ele>50.0</ele><time>2026-04-11T10:55:50Z</time></trkpt><trkpt lat="45.07163912641098" lon="9.728299785684202"><ele>50.0</ele><time>2026-04-11T10:55:51Z</time></trkpt><trkpt lat="45.07143718253721" lon="9.728503450809532"><ele>49.5</ele><time>2026-04-11T10:55:52Z</time></trkpt><trkpt lat="45.071236165681476" lon="9.72870606589234"><ele>49.0</ele><time>2026-04-11T10:55:53Z</time></trkpt><trkpt lat="45.07103230036607" lon="9.728912335383994"><ele>49.0</ele><time>2026-04-11T10:55:54Z</time></trkpt><trkpt lat="45.070830990649995" lon="9.729115041403688"><ele>49.0</ele><time>2026-04-11T10:55:55Z</time></trkpt><trkpt lat="45.07062532232417" lon="9.729319804980845"><ele>48.0</ele><time>2026-04-11T10:55:56Z</time></trkpt><trkpt lat="45.07042166985581" lon="9.729521090422564"><ele>47.0</ele><time>2026-04-11T10:55:57Z</time></trkpt><trkpt lat="45.0702148769132" lon="9.729725706118426"><ele>47.0</ele><time>2026-04-11T10:55:58Z</time></trkpt><trkpt lat="45.070012416934105" lon="9.729924869849519"><ele>47.0</ele><time>2026-04-11T10:55:59.001Z</time></trkpt><trkpt lat="45.069807994564144" lon="9.7301253994311"><ele>47.5</ele><time>2026-04-11T10:56:00.001Z</time></trkpt><trkpt lat="45.06960175614264" lon="9.73032411981872"><ele>48.0</ele><time>2026-04-11T10:56:01.001Z</time></trkpt><trkpt lat="45.069393750788215" lon="9.73052274331679"><ele>48.0</ele><time>2026-04-11T10:56:02.001Z</time></trkpt><trkpt lat="45.06918781570914" lon="9.73072545860323"><ele>48.0</ele><time>2026-04-11T10:56:03.001Z</time></trkpt><trkpt lat="45.06898570364242" lon="9.730927371802844"><ele>48.0</ele><time>2026-04-11T10:56:04.001Z</time></trkpt><trkpt lat="45.06878182414163" lon="9.731133303095785"><ele>48.0</ele><time>2026-04-11T10:56:05.001Z</time></trkpt><trkpt lat="45.06857793581712" lon="9.7313355255684"><ele>48.0</ele><time>2026-04-11T10:56:06.001Z</time></trkpt><trkpt lat="45.068374519640756" lon="9.731538786515063"><ele>48.0</ele><time>2026-04-11T10:56:07.001Z</time></trkpt><trkpt lat="45.068169779865364" lon="9.731739466140835"><ele>49.5</ele><time>2026-04-11T10:56:08.001Z</time></trkpt><trkpt lat="45.067966205444456" lon="9.73193977132211"><ele>51.0</ele><time>2026-04-11T10:56:09.001Z</time></trkpt><trkpt lat="45.06776236762453" lon="9.732138864057418"><ele>51.0</ele><time>2026-04-11T10:56:10.001Z</time></trkpt><trkpt lat="45.06755124542703" lon="9.73234246728248"><ele>51.0</ele><time>2026-04-11T10:56:11.001Z</time></trkpt><trkpt lat="45.0673392042564" lon="9.732551567094594"><ele>47.0</ele><time>2026-04-11T10:56:12.001Z</time></trkpt><trkpt lat="45.06712468682936" lon="9.732766152221242"><ele>43.0</ele><time>2026-04-11T10:56:13.001Z</time></trkpt><trkpt lat="45.066909593233085" lon="9.732981644224772"><ele>43.0</ele><time>2026-04-11T10:56:14.001Z</time></trkpt><trkpt lat="45.06669810791915" lon="9.733196479516812"><ele>43.0</ele><time>2026-04-11T10:56:15.001Z</time></trkpt><trkpt lat="45.06648335478121" lon="9.733408632740721"><ele>42.0</ele><time>2026-04-11T10:56:16.001Z</time></trkpt><trkpt lat="45.06627053506047" lon="9.733617805611024"><ele>41.0</ele><time>2026-04-11T10:56:17.001Z</time></trkpt><trkpt lat="45.06605823810659" lon="9.73382767148262"><ele>41.0</ele><time>2026-04-11T10:56:18.001Z</time></trkpt><trkpt lat="45.06584696047388" lon="9.73403626539486"><ele>41.0</ele><time>2026-04-11T10:56:19.001Z</time></trkpt><trkpt lat="45.0656361268937" lon="9.734244606649884"><ele>41.0</ele><time>2026-04-11T10:56:20.001Z</time></trkpt><trkpt lat="45.065422966294314" lon="9.734450547306718"><ele>41.0</ele><time>2026-04-11T10:56:21.001Z</time></trkpt><trkpt lat="45.06521076603212" lon="9.734658691873568"><ele>41.0</ele><time>2026-04-11T10:56:22.001Z</time></trkpt><trkpt lat="45.06499869047411" lon="9.734867666399342"><ele>41.0</ele><time>2026-04-11T10:56:23.001Z</time></trkpt><trkpt lat="45.06478618135841" lon="9.735078130566961"><ele>44.5</ele><time>2026-04-11T10:56:24.001Z</time></trkpt><trkpt lat="45.06457419128734" lon="9.735289354273501"><ele>48.0</ele><time>2026-04-11T10:56:25.001Z</time></trkpt><trkpt lat="45.06436146400267" lon="9.73550348252996"><ele>48.0</ele><time>2026-04-11T10:56:26.001Z</time></trkpt><trkpt lat="45.06414698394175" lon="9.735716516297408"><ele>48.0</ele><time>2026-04-11T10:56:27.001Z</time></trkpt><trkpt lat="45.0639338929273" lon="9.735928090778476"><ele>48.5</ele><time>2026-04-11T10:56:28.001Z</time></trkpt><trkpt lat="45.063718560826494" lon="9.73613808330434"><ele>49.0</ele><time>2026-04-11T10:56:29.001Z</time></trkpt><trkpt lat="45.06350209291621" lon="9.736350287908412"><ele>49.0</ele><time>2026-04-11T10:56:30.001Z</time></trkpt><trkpt lat="45.063288601922444" lon="9.73655969461703"><ele>49.0</ele><time>2026-04-11T10:56:31.001Z</time></trkpt><trkpt lat="45.06307444580429" lon="9.736769428003658"><ele>50.5</ele><time>2026-04-11T10:56:32.001Z</time></trkpt><trkpt lat="45.06285829025856" lon="9.736979640435152"><ele>52.0</ele><time>2026-04-11T10:56:33.001Z</time></trkpt><trkpt lat="45.06264431508369" lon="9.737189285941495"><ele>50.0</ele><time>2026-04-11T10:56:34.001Z</time></trkpt><trkpt lat="45.062434291539574" lon="9.737400492718297"><ele>48.0</ele><time>2026-04-11T10:56:35.001Z</time></trkpt><trkpt lat="45.06222275862674" lon="9.737613586994046"><ele>51.5</ele><time>2026-04-11T10:56:36.001Z</time></trkpt><trkpt lat="45.062010297683784" lon="9.737824017091953"><ele>55.0</ele><time>2026-04-11T10:56:37.001Z</time></trkpt><trkpt lat="45.06179868271156" lon="9.738033827476434"><ele>51.0</ele><time>2026-04-11T10:56:38.001Z</time></trkpt><trkpt lat="45.06158479440552" lon="9.73824201538836"><ele>47.0</ele><time>2026-04-11T10:56:39.001Z</time></trkpt><trkpt lat="45.061371552637084" lon="9.738450460384609"><ele>49.5</ele><time>2026-04-11T10:56:40.001Z</time></trkpt><trkpt lat="45.06115755864288" lon="9.738657038520802"><ele>52.0</ele><time>2026-04-11T10:56:41.001Z</time></trkpt><trkpt lat="45.06094307914768" lon="9.738864100763166"><ele>48.0</ele><time>2026-04-11T10:56:42Z</time></trkpt><trkpt lat="45.06072555758536" lon="9.739072932020038"><ele>44.0</ele><time>2026-04-11T10:56:43Z</time></trkpt><trkpt lat="45.060509133080586" lon="9.739281598135934"><ele>45.5</ele><time>2026-04-11T10:56:44Z</time></trkpt><trkpt lat="45.0602910765142" lon="9.739487349494738"><ele>47.0</ele><time>2026-04-11T10:56:45Z</time></trkpt><trkpt lat="45.06007200917514" lon="9.739690386842446"><ele>45.5</ele><time>2026-04-11T10:56:46Z</time></trkpt><trkpt lat="45.05985368210954" lon="9.73989299103874"><ele>44.0</ele><time>2026-04-11T10:56:47Z</time></trkpt><trkpt lat="45.05963585585913" lon="9.740094545122215"><ele>45.0</ele><time>2026-04-11T10:56:48Z</time></trkpt><trkpt lat="45.05941987252752" lon="9.740297225291885"><ele>46.0</ele><time>2026-04-11T10:56:49Z</time></trkpt><trkpt lat="45.05920457481572" lon="9.740500849919584"><ele>44.5</ele><time>2026-04-11T10:56:50Z</time></trkpt><trkpt lat="45.05899185776407" lon="9.740702004078925"><ele>43.0</ele><time>2026-04-11T10:56:51Z</time></trkpt><trkpt lat="45.05877671417309" lon="9.740906616156805"><ele>44.5</ele><time>2026-04-11T10:56:52Z</time></trkpt><trkpt lat="45.058563838401234" lon="9.741114028344787"><ele>46.0</ele><time>2026-04-11T10:56:53Z</time></trkpt><trkpt lat="45.058352588645086" lon="9.741321550685107"><ele>45.5</ele><time>2026-04-11T10:56:54Z</time></trkpt><trkpt lat="45.058137584429645" lon="9.741528030961371"><ele>45.0</ele><time>2026-04-11T10:56:55Z</time></trkpt><trkpt lat="45.05792170807247" lon="9.741735507229809"><ele>46.5</ele><time>2026-04-11T10:56:56Z</time></trkpt><trkpt lat="45.057708726010716" lon="9.741945637943928"><ele>48.0</ele><time>2026-04-11T10:56:57Z</time></trkpt><trkpt lat="45.057494176618704" lon="9.742158715590218"><ele>46.0</ele><time>2026-04-11T10:56:58Z</time></trkpt><trkpt lat="45.0572822052079" lon="9.74236853928391"><ele>44.0</ele><time>2026-04-11T10:56:59Z</time></trkpt><trkpt lat="45.05706733462209" lon="9.74257771668478"><ele>44.5</ele><time>2026-04-11T10:57:00Z</time></trkpt><trkpt lat="45.05686023485555" lon="9.742781603019564"><ele>45.0</ele><time>2026-04-11T10:57:01Z</time></trkpt><trkpt lat="45.05664491338111" lon="9.742997482959911"><ele>44.5</ele><time>2026-04-11T10:57:02Z</time></trkpt><trkpt lat="45.05643558988929" lon="9.743205314387469"><ele>44.0</ele><time>2026-04-11T10:57:03Z</time></trkpt><trkpt lat="45.056224748560766" lon="9.743412029239476"><ele>45.0</ele><time>2026-04-11T10:57:04Z</time></trkpt><trkpt lat="45.05601442639761" lon="9.743618728419793"><ele>46.0</ele><time>2026-04-11T10:57:05Z</time></trkpt><trkpt lat="45.05580543702296" lon="9.743826773101185"><ele>46.0</ele><time>2026-04-11T10:57:06Z</time></trkpt><trkpt lat="45.05559495114519" lon="9.744032841324083"><ele>46.0</ele><time>2026-04-11T10:57:07Z</time></trkpt><trkpt lat="45.05538710108914" lon="9.74424257699059"><ele>46.0</ele><time>2026-04-11T10:57:08Z</time></trkpt><trkpt lat="45.05517871190343" lon="9.744453396725971"><ele>46.0</ele><time>2026-04-11T10:57:09Z</time></trkpt><trkpt lat="45.054968051480614" lon="9.744664652428654"><ele>46.5</ele><time>2026-04-11T10:57:10Z</time></trkpt><trkpt lat="45.054755044452875" lon="9.744874865089976"><ele>47.0</ele><time>2026-04-11T10:57:11Z</time></trkpt><trkpt lat="45.05454272353943" lon="9.74508405526411"><ele>46.5</ele><time>2026-04-11T10:57:12Z</time></trkpt><trkpt lat="45.05432859357328" lon="9.745289932648353"><ele>46.0</ele><time>2026-04-11T10:57:13Z</time></trkpt><trkpt lat="45.054112024674694" lon="9.74549793292768"><ele>46.0</ele><time>2026-04-11T10:57:14Z</time></trkpt><trkpt lat="45.05389880554755" lon="9.745708999918717"><ele>46.0</ele><time>2026-04-11T10:57:15Z</time></trkpt><trkpt lat="45.05368582478812" lon="9.745923939391954"><ele>46.5</ele><time>2026-04-11T10:57:16Z</time></trkpt><trkpt lat="45.05347209277352" lon="9.746139383572142"><ele>47.0</ele><time>2026-04-11T10:57:17Z</time></trkpt><trkpt lat="45.05325830411535" lon="9.746353330727775"><ele>48.0</ele><time>2026-04-11T10:57:18Z</time></trkpt><trkpt lat="45.05304378580655" lon="9.746565916302227"><ele>49.0</ele><time>2026-04-11T10:57:19Z</time></trkpt><trkpt lat="45.05282863141611" lon="9.746775619570347"><ele>48.5</ele><time>2026-04-11T10:57:20Z</time></trkpt><trkpt lat="45.05261666868348" lon="9.7469851593224"><ele>48.0</ele><time>2026-04-11T10:57:21Z</time></trkpt><trkpt lat="45.052405748901684" lon="9.747193508972947"><ele>47.0</ele><time>2026-04-11T10:57:22Z</time></trkpt><trkpt lat="45.0521946260451" lon="9.747405588942193"><ele>46.0</ele><time>2026-04-11T10:57:23Z</time></trkpt><trkpt lat="45.05198308966975" lon="9.747614683521688"><ele>46.5</ele><time>2026-04-11T10:57:24Z</time></trkpt><trkpt lat="45.051767997221226" lon="9.747818993928686"><ele>47.0</ele><time>2026-04-11T10:57:25Z</time></trkpt><trkpt lat="45.05155885938654" lon="9.74803548268135"><ele>46.0</ele><time>2026-04-11T10:57:26Z</time></trkpt><trkpt lat="45.05134434095537" lon="9.7482449919659"><ele>45.0</ele><time>2026-04-11T10:57:27Z</time></trkpt><trkpt lat="45.051128875149615" lon="9.74845487361076"><ele>45.0</ele><time>2026-04-11T10:57:28Z</time></trkpt><trkpt lat="45.05091567739202" lon="9.748665073021462"><ele>45.0</ele><time>2026-04-11T10:57:29Z</time></trkpt><trkpt lat="45.05070234490942" lon="9.748872666107644"><ele>45.0</ele><time>2026-04-11T10:57:30Z</time></trkpt><trkpt lat="45.05048998879825" lon="9.749078838123825"><ele>45.0</ele><time>2026-04-11T10:57:31Z</time></trkpt><trkpt lat="45.05027795411556" lon="9.749285603011542"><ele>45.5</ele><time>2026-04-11T10:57:32Z</time></trkpt><trkpt lat="45.05006675637903" lon="9.749491868834667"><ele>46.0</ele><time>2026-04-11T10:57:33Z</time></trkpt><trkpt lat="45.04985739968987" lon="9.749698351308806"><ele>44.5</ele><time>2026-04-11T10:57:34Z</time></trkpt><trkpt lat="45.049648761493415" lon="9.74990725696235"><ele>43.0</ele><time>2026-04-11T10:57:35Z</time></trkpt><trkpt lat="45.04943950713542" lon="9.750116658026123"><ele>44.0</ele><time>2026-04-11T10:57:36Z</time></trkpt><trkpt lat="45.049225105900945" lon="9.750326615890161"><ele>45.0</ele><time>2026-04-11T10:57:37Z</time></trkpt><trkpt lat="45.0490139852885" lon="9.750536845774032"><ele>45.0</ele><time>2026-04-11T10:57:38Z</time></trkpt><trkpt lat="45.04879943150097" lon="9.750746098735474"><ele>45.0</ele><time>2026-04-11T10:57:39Z</time></trkpt><trkpt lat="45.048586785454944" lon="9.750958908766368"><ele>45.5</ele><time>2026-04-11T10:57:40Z</time></trkpt><trkpt lat="45.04837466407791" lon="9.751172324381711"><ele>46.0</ele><time>2026-04-11T10:57:41Z</time></trkpt><trkpt lat="45.048159962861156" lon="9.751384788962996"><ele>46.0</ele><time>2026-04-11T10:57:42Z</time></trkpt><trkpt lat="45.047946266943704" lon="9.751595946803256"><ele>46.0</ele><time>2026-04-11T10:57:43Z</time></trkpt><trkpt lat="45.04773096280515" lon="9.751807754119453"><ele>46.0</ele><time>2026-04-11T10:57:44Z</time></trkpt><trkpt lat="45.0475150072149" lon="9.752019234251588"><ele>46.0</ele><time>2026-04-11T10:57:45Z</time></trkpt><trkpt lat="45.04729701964749" lon="9.752228709477256"><ele>45.5</ele><time>2026-04-11T10:57:46Z</time></trkpt><trkpt lat="45.047084841091575" lon="9.752437630925911"><ele>45.0</ele><time>2026-04-11T10:57:47Z</time></trkpt><trkpt lat="45.04687323495956" lon="9.752649026038984"><ele>45.0</ele><time>2026-04-11T10:57:48Z</time></trkpt><trkpt lat="45.04666488547369" lon="9.75286212367598"><ele>45.0</ele><time>2026-04-11T10:57:49Z</time></trkpt><trkpt lat="45.04644976351508" lon="9.753072790718184"><ele>44.5</ele><time>2026-04-11T10:57:50Z</time></trkpt><trkpt lat="45.0462368100088" lon="9.75328244796112"><ele>44.0</ele><time>2026-04-11T10:57:51Z</time></trkpt><trkpt lat="45.04602493929699" lon="9.753492504250447"><ele>44.5</ele><time>2026-04-11T10:57:52Z</time></trkpt><trkpt lat="45.0458111994374" lon="9.753701639250977"><ele>45.0</ele><time>2026-04-11T10:57:53Z</time></trkpt><trkpt lat="45.04559803855306" lon="9.753909206170215"><ele>45.0</ele><time>2026-04-11T10:57:54Z</time></trkpt><trkpt lat="45.04538246564458" lon="9.754116013845344"><ele>45.0</ele><time>2026-04-11T10:57:55Z</time></trkpt><trkpt lat="45.04516902320762" lon="9.754323575741685"><ele>45.5</ele><time>2026-04-11T10:57:56Z</time></trkpt><trkpt lat="45.0449558177553" lon="9.754533654216297"><ele>46.0</ele><time>2026-04-11T10:57:57Z</time></trkpt><trkpt lat="45.04474251707734" lon="9.754744629201506"><ele>46.0</ele><time>2026-04-11T10:57:58Z</time></trkpt><trkpt lat="45.04452804513462" lon="9.754957359683067"><ele>46.0</ele><time>2026-04-11T10:57:59Z</time></trkpt><trkpt lat="45.04431674933435" lon="9.75517321508915"><ele>45.5</ele><time>2026-04-11T10:58:00Z</time></trkpt><trkpt lat="45.04410672309168" lon="9.755389456995017"><ele>45.0</ele><time>2026-04-11T10:58:01Z</time></trkpt><trkpt lat="45.04389383200155" lon="9.755602275904092"><ele>45.0</ele><time>2026-04-11T10:58:02Z</time></trkpt><trkpt lat="45.04368162241509" lon="9.755814453762966"><ele>45.0</ele><time>2026-04-11T10:58:03Z</time></trkpt><trkpt lat="45.04346866400364" lon="9.75602360452003"><ele>44.0</ele><time>2026-04-11T10:58:04Z</time></trkpt><trkpt lat="45.04325601441303" lon="9.756233532867768"><ele>43.0</ele><time>2026-04-11T10:58:05Z</time></trkpt><trkpt lat="45.04304520198813" lon="9.756446087290886"><ele>43.0</ele><time>2026-04-11T10:58:06Z</time></trkpt><trkpt lat="45.04283398350363" lon="9.75665653438033"><ele>43.0</ele><time>2026-04-11T10:58:07Z</time></trkpt><trkpt lat="45.04262220529476" lon="9.756869780242159"><ele>43.5</ele><time>2026-04-11T10:58:08Z</time></trkpt><trkpt lat="45.04241104221511" lon="9.75707935001663"><ele>44.0</ele><time>2026-04-11T10:58:09Z</time></trkpt><trkpt lat="45.042197932991805" lon="9.757289306765601"><ele>44.0</ele><time>2026-04-11T10:58:10Z</time></trkpt><trkpt lat="45.04198688873036" lon="9.757499910433404"><ele>44.0</ele><time>2026-04-11T10:58:11Z</time></trkpt><trkpt lat="45.04177591953179" lon="9.757714417876821"><ele>44.5</ele><time>2026-04-11T10:58:12Z</time></trkpt><trkpt lat="45.041569699485464" lon="9.75793886424044"><ele>45.0</ele><time>2026-04-11T10:58:13Z</time></trkpt><trkpt lat="45.04136463326587" lon="9.758163224009953"><ele>45.0</ele><time>2026-04-11T10:58:14Z</time></trkpt><trkpt lat="45.04115185518375" lon="9.75837677674494"><ele>45.0</ele><time>2026-04-11T10:58:15Z</time></trkpt><trkpt lat="45.04093587350528" lon="9.758586643426144"><ele>45.5</ele><time>2026-04-11T10:58:16Z</time></trkpt><trkpt lat="45.04072211743706" lon="9.758795183970552"><ele>46.0</ele><time>2026-04-11T10:58:17Z</time></trkpt><trkpt lat="45.04050745286872" lon="9.759002985070497"><ele>46.0</ele><time>2026-04-11T10:58:18Z</time></trkpt><trkpt lat="45.04029490581471" lon="9.759209274530559"><ele>46.0</ele><time>2026-04-11T10:58:19Z</time></trkpt><trkpt lat="45.04007913718072" lon="9.759415809768212"><ele>47.5</ele><time>2026-04-11T10:58:20Z</time></trkpt><trkpt lat="45.039866462463564" lon="9.75962292175884"><ele>49.0</ele><time>2026-04-11T10:58:21Z</time></trkpt><trkpt lat="45.03965579291041" lon="9.759832981436311"><ele>49.0</ele><time>2026-04-11T10:58:22Z</time></trkpt><trkpt lat="45.03944756551793" lon="9.760043080091172"><ele>49.0</ele><time>2026-04-11T10:58:23Z</time></trkpt><trkpt lat="45.03923685989626" lon="9.760251256896991"><ele>49.0</ele><time>2026-04-11T10:58:24Z</time></trkpt><trkpt lat="45.03902576723571" lon="9.760456084273992"><ele>49.0</ele><time>2026-04-11T10:58:25Z</time></trkpt><trkpt lat="45.03881472356035" lon="9.760660886700135"><ele>49.0</ele><time>2026-04-11T10:58:26Z</time></trkpt><trkpt lat="45.038603925969674" lon="9.760864373635796"><ele>49.0</ele><time>2026-04-11T10:58:27Z</time></trkpt><trkpt lat="45.038393548845036" lon="9.76107325786378"><ele>49.5</ele><time>2026-04-11T10:58:28Z</time></trkpt><trkpt lat="45.038180970769545" lon="9.761277797611102"><ele>50.0</ele><time>2026-04-11T10:58:29Z</time></trkpt><trkpt lat="45.03796688742638" lon="9.761484842132926"><ele>50.0</ele><time>2026-04-11T10:58:30Z</time></trkpt><trkpt lat="45.03775778544313" lon="9.761697151818263"><ele>50.0</ele><time>2026-04-11T10:58:31Z</time></trkpt><trkpt lat="45.03754735094838" lon="9.761909008322831"><ele>50.0</ele><time>2026-04-11T10:58:32Z</time></trkpt><trkpt lat="45.03733394395302" lon="9.76211710988597"><ele>50.0</ele><time>2026-04-11T10:58:33Z</time></trkpt><trkpt lat="45.03712081356978" lon="9.762327743712584"><ele>50.0</ele><time>2026-04-11T10:58:34Z</time></trkpt><trkpt lat="45.03690769933349" lon="9.762539646743804"><ele>50.0</ele><time>2026-04-11T10:58:35Z</time></trkpt><trkpt lat="45.03669504320438" lon="9.762749106587531"><ele>50.5</ele><time>2026-04-11T10:58:36Z</time></trkpt><trkpt lat="45.036481196748454" lon="9.762962003001128"><ele>51.0</ele><time>2026-04-11T10:58:37Z</time></trkpt><trkpt lat="45.03626737674442" lon="9.763170890256978"><ele>51.0</ele><time>2026-04-11T10:58:38Z</time></trkpt><trkpt lat="45.036053945802486" lon="9.763380838355395"><ele>51.0</ele><time>2026-04-11T10:58:39Z</time></trkpt><trkpt lat="45.03584032416794" lon="9.763589595065353"><ele>52.0</ele><time>2026-04-11T10:58:40Z</time></trkpt><trkpt lat="45.03562731046092" lon="9.763799654524002"><ele>53.0</ele><time>2026-04-11T10:58:41.001Z</time></trkpt><trkpt lat="45.035414827488935" lon="9.764008929342024"><ele>53.0</ele><time>2026-04-11T10:58:42.001Z</time></trkpt><trkpt lat="45.03520116220576" lon="9.764219186564583"><ele>53.0</ele><time>2026-04-11T10:58:43.001Z</time></trkpt><trkpt lat="45.03498809125728" lon="9.76442897194612"><ele>53.5</ele><time>2026-04-11T10:58:44.001Z</time></trkpt><trkpt lat="45.03477535328191" lon="9.76464031260904"><ele>54.0</ele><time>2026-04-11T10:58:45.001Z</time></trkpt><trkpt lat="45.0345608897026" lon="9.764850262846398"><ele>54.0</ele><time>2026-04-11T10:58:46.001Z</time></trkpt><trkpt lat="45.0343474221669" lon="9.765058917456953"><ele>54.0</ele><time>2026-04-11T10:58:47.001Z</time></trkpt><trkpt lat="45.034135167861514" lon="9.765269013358534"><ele>54.5</ele><time>2026-04-11T10:58:48.001Z</time></trkpt><trkpt lat="45.033920705871886" lon="9.765481203783555"><ele>55.0</ele><time>2026-04-11T10:58:49.001Z</time></trkpt><trkpt lat="45.033708632298" lon="9.765691061809056"><ele>55.0</ele><time>2026-04-11T10:58:50.001Z</time></trkpt><trkpt lat="45.03349318575595" lon="9.765904041407524"><ele>55.0</ele><time>2026-04-11T10:58:51.001Z</time></trkpt><trkpt lat="45.033283366500804" lon="9.766113544732393"><ele>54.0</ele><time>2026-04-11T10:58:52.001Z</time></trkpt><trkpt lat="45.03306960847428" lon="9.766324485384033"><ele>53.0</ele><time>2026-04-11T10:58:53.001Z</time></trkpt><trkpt lat="45.03285839775471" lon="9.76653133740918"><ele>53.0</ele><time>2026-04-11T10:58:54.001Z</time></trkpt><trkpt lat="45.03264743601403" lon="9.766739748089131"><ele>53.0</ele><time>2026-04-11T10:58:55.001Z</time></trkpt><trkpt lat="45.03243359324547" lon="9.766947927260995"><ele>53.0</ele><time>2026-04-11T10:58:56.001Z</time></trkpt><trkpt lat="45.03221983061758" lon="9.767156886440851"><ele>53.0</ele><time>2026-04-11T10:58:57.001Z</time></trkpt><trkpt lat="45.03200510970645" lon="9.767369982406978"><ele>53.0</ele><time>2026-04-11T10:58:58.001Z</time></trkpt><trkpt lat="45.0317917716248" lon="9.767582395536468"><ele>53.0</ele><time>2026-04-11T10:58:59.001Z</time></trkpt><trkpt lat="45.03157891785394" lon="9.767795248298174"><ele>53.5</ele><time>2026-04-11T10:59:00.001Z</time></trkpt><trkpt lat="45.031365852974496" lon="9.768009825679915"><ele>54.0</ele><time>2026-04-11T10:59:01.001Z</time></trkpt><trkpt lat="45.03115206060564" lon="9.768223542337992"><ele>54.0</ele><time>2026-04-11T10:59:02.001Z</time></trkpt><trkpt lat="45.0309378008243" lon="9.768434300467222"><ele>54.0</ele><time>2026-04-11T10:59:03.001Z</time></trkpt><trkpt lat="45.03072279766703" lon="9.768646684659643"><ele>54.0</ele><time>2026-04-11T10:59:04.001Z</time></trkpt><trkpt lat="45.0305088286277" lon="9.768854284564387"><ele>54.0</ele><time>2026-04-11T10:59:05.001Z</time></trkpt><trkpt lat="45.03029250102621" lon="9.769062528753079"><ele>54.0</ele><time>2026-04-11T10:59:06.001Z</time></trkpt><trkpt lat="45.03007810631145" lon="9.769273803396464"><ele>54.0</ele><time>2026-04-11T10:59:07.001Z</time></trkpt><trkpt lat="45.029864577312" lon="9.76948353567828"><ele>54.0</ele><time>2026-04-11T10:59:08.001Z</time></trkpt><trkpt lat="45.02965120105748" lon="9.7696925797017"><ele>54.0</ele><time>2026-04-11T10:59:09.001Z</time></trkpt><trkpt lat="45.02943907191349" lon="9.769901046770025"><ele>54.0</ele><time>2026-04-11T10:59:10.001Z</time></trkpt><trkpt lat="45.0292272607561" lon="9.770109956942191"><ele>54.0</ele><time>2026-04-11T10:59:11.001Z</time></trkpt><trkpt lat="45.02901736180289" lon="9.770319847143199"><ele>54.5</ele><time>2026-04-11T10:59:12.001Z</time></trkpt><trkpt lat="45.028807270487896" lon="9.770529601385823"><ele>55.0</ele><time>2026-04-11T10:59:13.001Z</time></trkpt><trkpt lat="45.028595521238785" lon="9.770740058079305"><ele>55.0</ele><time>2026-04-11T10:59:14.001Z</time></trkpt><trkpt lat="45.02838251528443" lon="9.770950548246944"><ele>55.0</ele><time>2026-04-11T10:59:15.001Z</time></trkpt><trkpt lat="45.02816927678223" lon="9.771161898203065"><ele>54.0</ele><time>2026-04-11T10:59:16.001Z</time></trkpt><trkpt lat="45.02795644103219" lon="9.771371998750443"><ele>53.0</ele><time>2026-04-11T10:59:17.001Z</time></trkpt><trkpt lat="45.02774250698792" lon="9.771585701552615"><ele>53.0</ele><time>2026-04-11T10:59:18.001Z</time></trkpt><trkpt lat="45.0275297640829" lon="9.77179659984046"><ele>53.0</ele><time>2026-04-11T10:59:19.001Z</time></trkpt><trkpt lat="45.02731682494641" lon="9.772007662413657"><ele>53.5</ele><time>2026-04-11T10:59:20.001Z</time></trkpt><trkpt lat="45.02710246763092" lon="9.772217465883532"><ele>54.0</ele><time>2026-04-11T10:59:21.001Z</time></trkpt><trkpt lat="45.02688659510484" lon="9.772430808554892"><ele>54.0</ele><time>2026-04-11T10:59:22.001Z</time></trkpt><trkpt lat="45.02667388336064" lon="9.772639885332115"><ele>54.0</ele><time>2026-04-11T10:59:23.001Z</time></trkpt><trkpt lat="45.02646198867561" lon="9.772847630486543"><ele>53.0</ele><time>2026-04-11T10:59:24.001Z</time></trkpt><trkpt lat="45.02625170517879" lon="9.773055899227757"><ele>52.0</ele><time>2026-04-11T10:59:25.001Z</time></trkpt><trkpt lat="45.02604294574179" lon="9.773265164375895"><ele>52.0</ele><time>2026-04-11T10:59:26.001Z</time></trkpt><trkpt lat="45.02583479470741" lon="9.773475021914646"><ele>52.0</ele><time>2026-04-11T10:59:27.001Z</time></trkpt><trkpt lat="45.02562709724304" lon="9.773681409882522"><ele>53.5</ele><time>2026-04-11T10:59:28.001Z</time></trkpt><trkpt lat="45.02541708912708" lon="9.773887043289777"><ele>55.0</ele><time>2026-04-11T10:59:29.001Z</time></trkpt><trkpt lat="45.02520647910719" lon="9.774091835987019"><ele>55.0</ele><time>2026-04-11T10:59:30.001Z</time></trkpt><trkpt lat="45.02499338147731" lon="9.774297340371845"><ele>55.0</ele><time>2026-04-11T10:59:31.001Z</time></trkpt><trkpt lat="45.02478035863595" lon="9.774502303302128"><ele>55.0</ele><time>2026-04-11T10:59:32.001Z</time></trkpt><trkpt lat="45.024563273608194" lon="9.774708213282333"><ele>55.0</ele><time>2026-04-11T10:59:33.001Z</time></trkpt><trkpt lat="45.02434408369435" lon="9.774905527283313"><ele>54.5</ele><time>2026-04-11T10:59:34.001Z</time></trkpt><trkpt lat="45.02412443547478" lon="9.775104186294202"><ele>54.0</ele><time>2026-04-11T10:59:35.001Z</time></trkpt><trkpt lat="45.02390906428553" lon="9.775308627755235"><ele>54.0</ele><time>2026-04-11T10:59:36.001Z</time></trkpt><trkpt lat="45.02369670294554" lon="9.775516333501262"><ele>54.0</ele><time>2026-04-11T10:59:37.001Z</time></trkpt><trkpt lat="45.02348387514755" lon="9.77572727216936"><ele>54.0</ele><time>2026-04-11T10:59:38.001Z</time></trkpt><trkpt lat="45.02327195714313" lon="9.775937551499336"><ele>54.0</ele><time>2026-04-11T10:59:39.001Z</time></trkpt><trkpt lat="45.023062340381145" lon="9.776149134560926"><ele>55.5</ele><time>2026-04-11T10:59:40.001Z</time></trkpt><trkpt lat="45.02285129461849" lon="9.776361709405702"><ele>57.0</ele><time>2026-04-11T10:59:41.001Z</time></trkpt><trkpt lat="45.02263879400326" lon="9.776572442312503"><ele>57.0</ele><time>2026-04-11T10:59:42.001Z</time></trkpt><trkpt lat="45.02242413712948" lon="9.776781667544958"><ele>57.0</ele><time>2026-04-11T10:59:43.001Z</time></trkpt><trkpt lat="45.02220929839694" lon="9.776989519667955"><ele>57.0</ele><time>2026-04-11T10:59:44.001Z</time></trkpt><trkpt lat="45.021995991937565" lon="9.777195405032522"><ele>57.0</ele><time>2026-04-11T10:59:45.001Z</time></trkpt><trkpt lat="45.02178215533217" lon="9.777403340667687"><ele>57.5</ele><time>2026-04-11T10:59:46.001Z</time></trkpt><trkpt lat="45.021568757356256" lon="9.777612048119064"><ele>58.0</ele><time>2026-04-11T10:59:47.001Z</time></trkpt><trkpt lat="45.02135682707224" lon="9.777821422968035"><ele>58.0</ele><time>2026-04-11T10:59:48.001Z</time></trkpt><trkpt lat="45.02114619027219" lon="9.778030973546997"><ele>58.0</ele><time>2026-04-11T10:59:49.001Z</time></trkpt><trkpt lat="45.02093175180755" lon="9.77824037921981"><ele>58.5</ele><time>2026-04-11T10:59:50.001Z</time></trkpt><trkpt lat="45.020719512509615" lon="9.778448474042694"><ele>59.0</ele><time>2026-04-11T10:59:51.001Z</time></trkpt><trkpt lat="45.020507379112566" lon="9.77865853975813"><ele>59.0</ele><time>2026-04-11T10:59:52.001Z</time></trkpt><trkpt lat="45.020294253782545" lon="9.778870254106161"><ele>59.0</ele><time>2026-04-11T10:59:53.001Z</time></trkpt><trkpt lat="45.02008390109272" lon="9.779080622916704"><ele>58.0</ele><time>2026-04-11T10:59:54.001Z</time></trkpt><trkpt lat="45.01987304223991" lon="9.7792897049828"><ele>57.0</ele><time>2026-04-11T10:59:55.001Z</time></trkpt><trkpt lat="45.01966083409611" lon="9.779499005732719"><ele>57.0</ele><time>2026-04-11T10:59:56.001Z</time></trkpt><trkpt lat="45.01944864385626" lon="9.77970895453566"><ele>57.0</ele><time>2026-04-11T10:59:57.001Z</time></trkpt><trkpt lat="45.01923686724709" lon="9.779918908318308"><ele>57.0</ele><time>2026-04-11T10:59:58.001Z</time></trkpt><trkpt lat="45.01902300662014" lon="9.780131529320053"><ele>57.0</ele><time>2026-04-11T10:59:59.001Z</time></trkpt><trkpt lat="45.018812364686646" lon="9.780340879277814"><ele>57.0</ele><time>2026-04-11T11:00:00.001Z</time></trkpt><trkpt lat="45.018598406617485" lon="9.780553570066271"><ele>57.0</ele><time>2026-04-11T11:00:01.001Z</time></trkpt><trkpt lat="45.01838583778468" lon="9.780765242609904"><ele>57.0</ele><time>2026-04-11T11:00:02.001Z</time></trkpt><trkpt lat="45.01817519966935" lon="9.78097711365448"><ele>57.0</ele><time>2026-04-11T11:00:03.001Z</time></trkpt><trkpt lat="45.017964841089864" lon="9.781188076973834"><ele>57.0</ele><time>2026-04-11T11:00:04.001Z</time></trkpt><trkpt lat="45.01775403111483" lon="9.781401894247065"><ele>57.0</ele><time>2026-04-11T11:00:05.001Z</time></trkpt><trkpt lat="45.0175448437686" lon="9.78161914469821"><ele>57.0</ele><time>2026-04-11T11:00:06.001Z</time></trkpt><trkpt lat="45.01733740089978" lon="9.781835553104315"><ele>57.0</ele><time>2026-04-11T11:00:07.001Z</time></trkpt><trkpt lat="45.01712939773667" lon="9.782055750461964"><ele>57.0</ele><time>2026-04-11T11:00:08.001Z</time></trkpt><trkpt lat="45.01691978282948" lon="9.782275097493258"><ele>57.0</ele><time>2026-04-11T11:00:09.001Z</time></trkpt><trkpt lat="45.016714873259225" lon="9.782499187497777"><ele>56.0</ele><time>2026-04-11T11:00:10.001Z</time></trkpt><trkpt lat="45.01651092707329" lon="9.782727918766525"><ele>55.0</ele><time>2026-04-11T11:00:11.001Z</time></trkpt><trkpt lat="45.016306803030915" lon="9.782957682178003"><ele>55.0</ele><time>2026-04-11T11:00:12.001Z</time></trkpt><trkpt lat="45.016099995601934" lon="9.783186770421125"><ele>55.0</ele><time>2026-04-11T11:00:13.001Z</time></trkpt><trkpt lat="45.015898025818025" lon="9.783417182763241"><ele>57.0</ele><time>2026-04-11T11:00:14.001Z</time></trkpt><trkpt lat="45.01569396201835" lon="9.783649056584135"><ele>59.0</ele><time>2026-04-11T11:00:15.001Z</time></trkpt><trkpt lat="45.01549465551098" lon="9.783885331071783"><ele>59.0</ele><time>2026-04-11T11:00:16.001Z</time></trkpt><trkpt lat="45.01529490467194" lon="9.784120582380435"><ele>59.0</ele><time>2026-04-11T11:00:17.001Z</time></trkpt><trkpt lat="45.01509873101273" lon="9.784358286552171"><ele>58.5</ele><time>2026-04-11T11:00:18.001Z</time></trkpt><trkpt lat="45.01490206220575" lon="9.784596642926237"><ele>58.0</ele><time>2026-04-11T11:00:19.001Z</time></trkpt><trkpt lat="45.014705505772454" lon="9.784835616385614"><ele>58.0</ele><time>2026-04-11T11:00:20.001Z</time></trkpt><trkpt lat="45.014509314375516" lon="9.785074255484279"><ele>58.0</ele><time>2026-04-11T11:00:21.001Z</time></trkpt><trkpt lat="45.01431504353133" lon="9.785316180962786"><ele>59.0</ele><time>2026-04-11T11:00:22.001Z</time></trkpt><trkpt lat="45.01412184285969" lon="9.785559055918979"><ele>60.0</ele><time>2026-04-11T11:00:23.001Z</time></trkpt><trkpt lat="45.01393246755293" lon="9.78580614351795"><ele>58.5</ele><time>2026-04-11T11:00:24.001Z</time></trkpt><trkpt lat="45.013742397762144" lon="9.786053728456297"><ele>57.0</ele><time>2026-04-11T11:00:25.001Z</time></trkpt><trkpt lat="45.01355217854014" lon="9.786301673223228"><ele>57.0</ele><time>2026-04-11T11:00:26.001Z</time></trkpt><trkpt lat="45.0133594189043" lon="9.786548489306496"><ele>57.0</ele><time>2026-04-11T11:00:27.001Z</time></trkpt><trkpt lat="45.01317223852462" lon="9.786799292268798"><ele>57.5</ele><time>2026-04-11T11:00:28.001Z</time></trkpt><trkpt lat="45.01298748282739" lon="9.78705290300851"><ele>58.0</ele><time>2026-04-11T11:00:29.001Z</time></trkpt><trkpt lat="45.01280158487434" lon="9.787308772118456"><ele>58.0</ele><time>2026-04-11T11:00:30.001Z</time></trkpt><trkpt lat="45.01261454246099" lon="9.787564844880105"><ele>58.0</ele><time>2026-04-11T11:00:31.001Z</time></trkpt><trkpt lat="45.01242789841675" lon="9.787822286484952"><ele>58.0</ele><time>2026-04-11T11:00:32.001Z</time></trkpt><trkpt lat="45.01224667664428" lon="9.78808293302102"><ele>58.0</ele><time>2026-04-11T11:00:33.001Z</time></trkpt><trkpt lat="45.01206547686782" lon="9.788345540109685"><ele>58.0</ele><time>2026-04-11T11:00:34.001Z</time></trkpt><trkpt lat="45.01188570250476" lon="9.788609718809084"><ele>58.0</ele><time>2026-04-11T11:00:35.001Z</time></trkpt><trkpt lat="45.01170574959157" lon="9.78887411697637"><ele>58.0</ele><time>2026-04-11T11:00:36.001Z</time></trkpt><trkpt lat="45.0115250509735" lon="9.789136702404349"><ele>58.0</ele><time>2026-04-11T11:00:37.001Z</time></trkpt><trkpt lat="45.01134574454393" lon="9.789402849191871"><ele>58.0</ele><time>2026-04-11T11:00:38.001Z</time></trkpt><trkpt lat="45.01116785705461" lon="9.789668824377188"><ele>58.0</ele><time>2026-04-11T11:00:39.001Z</time></trkpt><trkpt lat="45.010992422808286" lon="9.789938253516056"><ele>59.0</ele><time>2026-04-11T11:00:40.001Z</time></trkpt><trkpt lat="45.01081707039218" lon="9.790209422692783"><ele>60.0</ele><time>2026-04-11T11:00:41.001Z</time></trkpt><trkpt lat="45.01064674334068" lon="9.79048394220789"><ele>60.0</ele><time>2026-04-11T11:00:42.001Z</time></trkpt><trkpt lat="45.01047725526147" lon="9.790761066353696"><ele>60.0</ele><time>2026-04-11T11:00:43.001Z</time></trkpt><trkpt lat="45.01030484875612" lon="9.791037396385635"><ele>60.0</ele><time>2026-04-11T11:00:44.001Z</time></trkpt><trkpt lat="45.01013384561318" lon="9.791315927423177"><ele>60.0</ele><time>2026-04-11T11:00:45.001Z</time></trkpt><trkpt lat="45.009964575506785" lon="9.79159681232165"><ele>61.0</ele><time>2026-04-11T11:00:46.001Z</time></trkpt><trkpt lat="45.00979852344464" lon="9.791880590304109"><ele>62.0</ele><time>2026-04-11T11:00:47.001Z</time></trkpt><trkpt lat="45.00963390531441" lon="9.792162653812618"><ele>62.0</ele><time>2026-04-11T11:00:48.001Z</time></trkpt><trkpt lat="45.009466657445856" lon="9.792444674177933"><ele>62.0</ele><time>2026-04-11T11:00:49.001Z</time></trkpt><trkpt lat="45.00930115304454" lon="9.79272603988905"><ele>61.0</ele><time>2026-04-11T11:00:50.001Z</time></trkpt><trkpt lat="45.009136410549566" lon="9.79300922673795"><ele>60.0</ele><time>2026-04-11T11:00:51.001Z</time></trkpt><trkpt lat="45.00897444638064" lon="9.793294758295518"><ele>60.0</ele><time>2026-04-11T11:00:52.001Z</time></trkpt><trkpt lat="45.008816176164494" lon="9.793581968312878"><ele>60.0</ele><time>2026-04-11T11:00:53.001Z</time></trkpt><trkpt lat="45.008657729508776" lon="9.793869354237383"><ele>60.0</ele><time>2026-04-11T11:00:54.001Z</time></trkpt><trkpt lat="45.00849928243649" lon="9.794159572253854"><ele>60.0</ele><time>2026-04-11T11:00:55.001Z</time></trkpt><trkpt lat="45.00834254793098" lon="9.794449464266481"><ele>59.5</ele><time>2026-04-11T11:00:56.001Z</time></trkpt><trkpt lat="45.00818690196858" lon="9.794741924864095"><ele>59.0</ele><time>2026-04-11T11:00:57.001Z</time></trkpt><trkpt lat="45.00803449607694" lon="9.795036341493105"><ele>58.0</ele><time>2026-04-11T11:00:58.001Z</time></trkpt><trkpt lat="45.00788112165629" lon="9.795331268019687"><ele>57.0</ele><time>2026-04-11T11:00:59.001Z</time></trkpt><trkpt lat="45.007729298843266" lon="9.79562716283492"><ele>57.0</ele><time>2026-04-11T11:01:00.001Z</time></trkpt><trkpt lat="45.00757988350116" lon="9.795925211927452"><ele>57.0</ele><time>2026-04-11T11:01:01.001Z</time></trkpt><trkpt lat="45.00743164822018" lon="9.796224913586851"><ele>59.0</ele><time>2026-04-11T11:01:02.001Z</time></trkpt><trkpt lat="45.007285423950705" lon="9.796526465659364"><ele>61.0</ele><time>2026-04-11T11:01:03.001Z</time></trkpt><trkpt lat="45.007140306567116" lon="9.796828514510558"><ele>61.0</ele><time>2026-04-11T11:01:04.001Z</time></trkpt><trkpt lat="45.00699411494573" lon="9.79712995774322"><ele>61.0</ele><time>2026-04-11T11:01:05.001Z</time></trkpt><trkpt lat="45.00685031687883" lon="9.79743609196676"><ele>61.0</ele><time>2026-04-11T11:01:06.001Z</time></trkpt><trkpt lat="45.00670702995764" lon="9.797742701269184"><ele>61.0</ele><time>2026-04-11T11:01:07Z</time></trkpt><trkpt lat="45.006564949954786" lon="9.798048459361071"><ele>61.0</ele><time>2026-04-11T11:01:08Z</time></trkpt><trkpt lat="45.00642328492839" lon="9.798353573066413"><ele>61.0</ele><time>2026-04-11T11:01:09Z</time></trkpt><trkpt lat="45.00628210918228" lon="9.798666054711662"><ele>60.5</ele><time>2026-04-11T11:01:10Z</time></trkpt><trkpt lat="45.006148331717235" lon="9.79897341018798"><ele>60.0</ele><time>2026-04-11T11:01:11Z</time></trkpt><trkpt lat="45.00601310533027" lon="9.799288108153194"><ele>60.0</ele><time>2026-04-11T11:01:12Z</time></trkpt><trkpt lat="45.005879742376884" lon="9.799602918714442"><ele>60.0</ele><time>2026-04-11T11:01:13Z</time></trkpt><trkpt lat="45.00574987395454" lon="9.799918653677224"><ele>61.0</ele><time>2026-04-11T11:01:14Z</time></trkpt><trkpt lat="45.00561986520003" lon="9.800235493348584"><ele>62.0</ele><time>2026-04-11T11:01:15Z</time></trkpt><trkpt lat="45.00549182931427" lon="9.800552365866738"><ele>62.0</ele><time>2026-04-11T11:01:16Z</time></trkpt><trkpt lat="45.00536366865364" lon="9.800869029566638"><ele>62.0</ele><time>2026-04-11T11:01:17Z</time></trkpt><trkpt lat="45.00523439983748" lon="9.801185366732465"><ele>61.0</ele><time>2026-04-11T11:01:18Z</time></trkpt><trkpt lat="45.00510591221314" lon="9.801498858164258"><ele>60.0</ele><time>2026-04-11T11:01:19Z</time></trkpt><trkpt lat="45.00497615997257" lon="9.80181595245462"><ele>59.5</ele><time>2026-04-11T11:01:20Z</time></trkpt><trkpt lat="45.0048511424296" lon="9.802131472681372"><ele>59.0</ele><time>2026-04-11T11:01:21Z</time></trkpt><trkpt lat="45.00472491323616" lon="9.802451614074547"><ele>58.0</ele><time>2026-04-11T11:01:22Z</time></trkpt><trkpt lat="45.00459891387328" lon="9.802779243115612"><ele>57.0</ele><time>2026-04-11T11:01:23Z</time></trkpt><trkpt lat="45.00447194367137" lon="9.803103094060539"><ele>57.0</ele><time>2026-04-11T11:01:24Z</time></trkpt><trkpt lat="45.0043429088714" lon="9.803428911463378"><ele>57.0</ele><time>2026-04-11T11:01:25Z</time></trkpt><trkpt lat="45.00420910147082" lon="9.803759051452825"><ele>56.5</ele><time>2026-04-11T11:01:26Z</time></trkpt><trkpt lat="45.004087197728104" lon="9.804069045735487"><ele>56.0</ele><time>2026-04-11T11:01:27Z</time></trkpt><trkpt lat="45.003961320211054" lon="9.804389441886258"><ele>56.0</ele><time>2026-04-11T11:01:28Z</time></trkpt><trkpt lat="45.00383523899706" lon="9.804708561640684"><ele>56.0</ele><time>2026-04-11T11:01:29Z</time></trkpt><trkpt lat="45.00370666046915" lon="9.805031355715332"><ele>55.5</ele><time>2026-04-11T11:01:30Z</time></trkpt><trkpt lat="45.00358096066587" lon="9.80535130493451"><ele>55.0</ele><time>2026-04-11T11:01:31Z</time></trkpt><trkpt lat="45.00345341975072" lon="9.805672959978063"><ele>54.5</ele><time>2026-04-11T11:01:32Z</time></trkpt><trkpt lat="45.003327979616294" lon="9.805989783727295"><ele>54.0</ele><time>2026-04-11T11:01:33Z</time></trkpt><trkpt lat="45.00320183324548" lon="9.806308480983601"><ele>54.0</ele><time>2026-04-11T11:01:34Z</time></trkpt><trkpt lat="45.0030783786894" lon="9.806626713536387"><ele>54.0</ele><time>2026-04-11T11:01:35Z</time></trkpt><trkpt lat="45.00295461803997" lon="9.806946073736302"><ele>55.0</ele><time>2026-04-11T11:01:36Z</time></trkpt><trkpt lat="45.0028296729588" lon="9.80726611562864"><ele>56.0</ele><time>2026-04-11T11:01:37Z</time></trkpt><trkpt lat="45.00270457100695" lon="9.807586757720689"><ele>57.0</ele><time>2026-04-11T11:01:38Z</time></trkpt><trkpt lat="45.002578664132685" lon="9.807907503803017"><ele>58.0</ele><time>2026-04-11T11:01:39Z</time></trkpt><trkpt lat="45.00245543592948" lon="9.808228234769912"><ele>57.0</ele><time>2026-04-11T11:01:40Z</time></trkpt><trkpt lat="45.00233316104739" lon="9.808549306326357"><ele>56.0</ele><time>2026-04-11T11:01:41Z</time></trkpt><trkpt lat="45.00220955132369" lon="9.808872482102272"><ele>56.0</ele><time>2026-04-11T11:01:42Z</time></trkpt><trkpt lat="45.002085685544614" lon="9.809195499432116"><ele>56.0</ele><time>2026-04-11T11:01:43Z</time></trkpt><trkpt lat="45.00196156917358" lon="9.809517325947553"><ele>55.5</ele><time>2026-04-11T11:01:44Z</time></trkpt><trkpt lat="45.00183868481589" lon="9.809839946034106"><ele>55.0</ele><time>2026-04-11T11:01:45Z</time></trkpt><trkpt lat="45.00171491547221" lon="9.810161293144036"><ele>55.5</ele><time>2026-04-11T11:01:46Z</time></trkpt><trkpt lat="45.00159002963764" lon="9.810483875139303"><ele>56.0</ele><time>2026-04-11T11:01:47Z</time></trkpt><trkpt lat="45.0014662053349" lon="9.810804779441176"><ele>56.0</ele><time>2026-04-11T11:01:48Z</time></trkpt><trkpt lat="45.00134151906837" lon="9.811123595230264"><ele>56.0</ele><time>2026-04-11T11:01:49Z</time></trkpt><trkpt lat="45.00121682912545" lon="9.811443147843338"><ele>56.0</ele><time>2026-04-11T11:01:50Z</time></trkpt><trkpt lat="45.00109065239557" lon="9.811761201801161"><ele>56.0</ele><time>2026-04-11T11:01:51Z</time></trkpt><trkpt lat="45.00096555933094" lon="9.812077265086952"><ele>55.5</ele><time>2026-04-11T11:01:52Z</time></trkpt><trkpt lat="45.00083979532541" lon="9.812394510936457"><ele>55.0</ele><time>2026-04-11T11:01:53Z</time></trkpt><trkpt lat="45.00071640573936" lon="9.812711597123396"><ele>56.0</ele><time>2026-04-11T11:01:54Z</time></trkpt><trkpt lat="45.00059274672678" lon="9.813029226567343"><ele>57.0</ele><time>2026-04-11T11:01:55Z</time></trkpt><trkpt lat="45.00046698393731" lon="9.81334696162029"><ele>57.5</ele><time>2026-04-11T11:01:56Z</time></trkpt><trkpt lat="45.000337262616966" lon="9.813670929273108"><ele>58.0</ele><time>2026-04-11T11:01:57Z</time></trkpt><trkpt lat="45.000207452634704" lon="9.814002784018966"><ele>58.0</ele><time>2026-04-11T11:01:58Z</time></trkpt><trkpt lat="45.00007212371238" lon="9.81433292035817"><ele>58.0</ele><time>2026-04-11T11:01:59Z</time></trkpt><trkpt lat="44.999963746219926" lon="9.814640788551568"><ele>58.0</ele><time>2026-04-11T11:02:00Z</time></trkpt><trkpt lat="44.99984340752973" lon="9.814962386998555"><ele>58.0</ele><time>2026-04-11T11:02:01Z</time></trkpt><trkpt lat="44.999720962519234" lon="9.81528418013822"><ele>57.5</ele><time>2026-04-11T11:02:02Z</time></trkpt><trkpt lat="44.99959663802811" lon="9.81560558784369"><ele>57.0</ele><time>2026-04-11T11:02:03Z</time></trkpt><trkpt lat="44.99946993151928" lon="9.815928156675376"><ele>56.5</ele><time>2026-04-11T11:02:04Z</time></trkpt><trkpt lat="44.999345748261284" lon="9.816249377210564"><ele>56.0</ele><time>2026-04-11T11:02:05Z</time></trkpt><trkpt lat="44.999218815992116" lon="9.816572695126721"><ele>58.0</ele><time>2026-04-11T11:02:06Z</time></trkpt><trkpt lat="44.99909282830813" lon="9.816894811205975"><ele>60.0</ele><time>2026-04-11T11:02:07Z</time></trkpt><trkpt lat="44.998969939283185" lon="9.817217115330878"><ele>60.0</ele><time>2026-04-11T11:02:08Z</time></trkpt><trkpt lat="44.9988439929735" lon="9.817538402079176"><ele>60.0</ele><time>2026-04-11T11:02:09Z</time></trkpt><trkpt lat="44.99871950816061" lon="9.817859297043956"><ele>59.0</ele><time>2026-04-11T11:02:10Z</time></trkpt><trkpt lat="44.99859538649755" lon="9.81818049183141"><ele>58.0</ele><time>2026-04-11T11:02:11Z</time></trkpt><trkpt lat="44.99846812942498" lon="9.818501207173254"><ele>58.0</ele><time>2026-04-11T11:02:12Z</time></trkpt><trkpt lat="44.998343968592806" lon="9.818823123758401"><ele>58.0</ele><time>2026-04-11T11:02:13Z</time></trkpt><trkpt lat="44.99822111503621" lon="9.819144053501748"><ele>58.5</ele><time>2026-04-11T11:02:14Z</time></trkpt><trkpt lat="44.998098853823194" lon="9.819465465019329"><ele>59.0</ele><time>2026-04-11T11:02:15Z</time></trkpt><trkpt lat="44.997972372474024" lon="9.819787914646692"><ele>59.0</ele><time>2026-04-11T11:02:16Z</time></trkpt><trkpt lat="44.997847658423964" lon="9.820109713251842"><ele>59.0</ele><time>2026-04-11T11:02:17Z</time></trkpt><trkpt lat="44.997722943471764" lon="9.820431099694252"><ele>59.0</ele><time>2026-04-11T11:02:18Z</time></trkpt><trkpt lat="44.9975978240044" lon="9.820751856588561"><ele>59.0</ele><time>2026-04-11T11:02:19Z</time></trkpt><trkpt lat="44.99747549726052" lon="9.821071489573782"><ele>59.0</ele><time>2026-04-11T11:02:20Z</time></trkpt><trkpt lat="44.99735242070412" lon="9.82139160899366"><ele>59.0</ele><time>2026-04-11T11:02:21Z</time></trkpt><trkpt lat="44.99722886254281" lon="9.821712051549248"><ele>58.5</ele><time>2026-04-11T11:02:22Z</time></trkpt><trkpt lat="44.99710417673904" lon="9.822031496382634"><ele>58.0</ele><time>2026-04-11T11:02:23Z</time></trkpt><trkpt lat="44.9969799718645" lon="9.822350965707583"><ele>57.5</ele><time>2026-04-11T11:02:24Z</time></trkpt><trkpt lat="44.99685338732048" lon="9.822670826061792"><ele>57.0</ele><time>2026-04-11T11:02:25Z</time></trkpt><trkpt lat="44.99672632578472" lon="9.822990051285014"><ele>58.0</ele><time>2026-04-11T11:02:26Z</time></trkpt><trkpt lat="44.99659841997071" lon="9.823309860598243"><ele>59.0</ele><time>2026-04-11T11:02:27Z</time></trkpt><trkpt lat="44.99647474054993" lon="9.82363107548834"><ele>59.5</ele><time>2026-04-11T11:02:28Z</time></trkpt><trkpt lat="44.99635031634156" lon="9.823955821133746"><ele>60.0</ele><time>2026-04-11T11:02:29Z</time></trkpt><trkpt lat="44.996223712368945" lon="9.824279191582807"><ele>58.5</ele><time>2026-04-11T11:02:30Z</time></trkpt><trkpt lat="44.99609710896002" lon="9.824602954643112"><ele>57.0</ele><time>2026-04-11T11:02:31Z</time></trkpt><trkpt lat="44.995970991367685" lon="9.824921448491313"><ele>56.0</ele><time>2026-04-11T11:02:32Z</time></trkpt><trkpt lat="44.995849124522934" lon="9.825242882106695"><ele>55.0</ele><time>2026-04-11T11:02:33Z</time></trkpt><trkpt lat="44.99572774560332" lon="9.825565289530346"><ele>55.0</ele><time>2026-04-11T11:02:34Z</time></trkpt><trkpt lat="44.99560356671022" lon="9.825887826081635"><ele>55.0</ele><time>2026-04-11T11:02:35Z</time></trkpt><trkpt lat="44.995480006599" lon="9.826210546505488"><ele>55.0</ele><time>2026-04-11T11:02:36Z</time></trkpt><trkpt lat="44.995356555875986" lon="9.826533272317672"><ele>55.0</ele><time>2026-04-11T11:02:37Z</time></trkpt><trkpt lat="44.99523304114254" lon="9.826854968681642"><ele>56.0</ele><time>2026-04-11T11:02:38Z</time></trkpt><trkpt lat="44.995109511488586" lon="9.827176255012755"><ele>57.0</ele><time>2026-04-11T11:02:39Z</time></trkpt><trkpt lat="44.99498457196259" lon="9.82749569617957"><ele>57.5</ele><time>2026-04-11T11:02:40Z</time></trkpt><trkpt lat="44.99485972190127" lon="9.827817184883129"><ele>58.0</ele><time>2026-04-11T11:02:41Z</time></trkpt><trkpt lat="44.99473420943616" lon="9.828137373303967"><ele>58.0</ele><time>2026-04-11T11:02:42Z</time></trkpt><trkpt lat="44.994609940464194" lon="9.828456435338643"><ele>58.0</ele><time>2026-04-11T11:02:43Z</time></trkpt><trkpt lat="44.9944854898562" lon="9.82877691150043"><ele>58.5</ele><time>2026-04-11T11:02:44Z</time></trkpt><trkpt lat="44.99436225419306" lon="9.829096443671663"><ele>59.0</ele><time>2026-04-11T11:02:45Z</time></trkpt><trkpt lat="44.99423663673799" lon="9.829416256576215"><ele>58.5</ele><time>2026-04-11T11:02:46Z</time></trkpt><trkpt lat="44.9941114683666" lon="9.829737092149367"><ele>58.0</ele><time>2026-04-11T11:02:47Z</time></trkpt><trkpt lat="44.99398837860228" lon="9.830057307418647"><ele>56.5</ele><time>2026-04-11T11:02:48Z</time></trkpt><trkpt lat="44.9938616670619" lon="9.83037913938445"><ele>55.0</ele><time>2026-04-11T11:02:49Z</time></trkpt><trkpt lat="44.993735591494435" lon="9.830699406004035"><ele>56.0</ele><time>2026-04-11T11:02:50Z</time></trkpt><trkpt lat="44.99361088318113" lon="9.83101823783512"><ele>57.0</ele><time>2026-04-11T11:02:51Z</time></trkpt><trkpt lat="44.99348379775543" lon="9.831338833119938"><ele>57.0</ele><time>2026-04-11T11:02:52Z</time></trkpt><trkpt lat="44.99335801147153" lon="9.831660210693302"><ele>57.0</ele><time>2026-04-11T11:02:53Z</time></trkpt><trkpt lat="44.99323310199813" lon="9.831981400362293"><ele>58.0</ele><time>2026-04-11T11:02:54Z</time></trkpt><trkpt lat="44.993108041818466" lon="9.83230307737464"><ele>59.0</ele><time>2026-04-11T11:02:55Z</time></trkpt><trkpt lat="44.99298301349524" lon="9.832626631360434"><ele>58.0</ele><time>2026-04-11T11:02:56Z</time></trkpt><trkpt lat="44.99286158202657" lon="9.832945476918749"><ele>57.0</ele><time>2026-04-11T11:02:57Z</time></trkpt><trkpt lat="44.99273838934495" lon="9.833265455130999"><ele>57.0</ele><time>2026-04-11T11:02:58Z</time></trkpt><trkpt lat="44.99261458016149" lon="9.83358596771507"><ele>57.0</ele><time>2026-04-11T11:02:59Z</time></trkpt><trkpt lat="44.99249025514155" lon="9.8339033575514"><ele>57.0</ele><time>2026-04-11T11:03:00Z</time></trkpt><trkpt lat="44.9923644869306" lon="9.834227900251337"><ele>57.0</ele><time>2026-04-11T11:03:01Z</time></trkpt><trkpt lat="44.99224046321094" lon="9.834549923533553"><ele>56.5</ele><time>2026-04-11T11:03:02Z</time></trkpt><trkpt lat="44.99211485070776" lon="9.834867932690408"><ele>56.0</ele><time>2026-04-11T11:03:03Z</time></trkpt><trkpt lat="44.99199264244955" lon="9.835181233056375"><ele>56.0</ele><time>2026-04-11T11:03:04Z</time></trkpt><trkpt lat="44.9918684140064" lon="9.835505793529071"><ele>56.0</ele><time>2026-04-11T11:03:05Z</time></trkpt><trkpt lat="44.99174257971008" lon="9.835830893461587"><ele>57.0</ele><time>2026-04-11T11:03:06Z</time></trkpt><trkpt lat="44.991617013739855" lon="9.83615161866386"><ele>58.0</ele><time>2026-04-11T11:03:07Z</time></trkpt><trkpt lat="44.99149058626698" lon="9.83646830388832"><ele>58.0</ele><time>2026-04-11T11:03:08Z</time></trkpt><trkpt lat="44.991366505678364" lon="9.836792120507328"><ele>58.0</ele><time>2026-04-11T11:03:09Z</time></trkpt><trkpt lat="44.991243892404604" lon="9.83711725698451"><ele>57.5</ele><time>2026-04-11T11:03:10Z</time></trkpt><trkpt lat="44.99111770783233" lon="9.837438217502445"><ele>57.0</ele><time>2026-04-11T11:03:11.001Z</time></trkpt><trkpt lat="44.990991117649024" lon="9.837759346477254"><ele>56.5</ele><time>2026-04-11T11:03:12.001Z</time></trkpt><trkpt lat="44.99086544649488" lon="9.838080699905712"><ele>56.0</ele><time>2026-04-11T11:03:13.001Z</time></trkpt><trkpt lat="44.9907410843656" lon="9.83839875064141"><ele>56.0</ele><time>2026-04-11T11:03:14.001Z</time></trkpt><trkpt lat="44.99061430588654" lon="9.838723608425223"><ele>56.0</ele><time>2026-04-11T11:03:15.001Z</time></trkpt><trkpt lat="44.990487041427464" lon="9.839044746502122"><ele>56.5</ele><time>2026-04-11T11:03:16.001Z</time></trkpt><trkpt lat="44.99035846738357" lon="9.839360218332434"><ele>57.0</ele><time>2026-04-11T11:03:17.001Z</time></trkpt><trkpt lat="44.99023562597578" lon="9.83968240579941"><ele>57.0</ele><time>2026-04-11T11:03:18.001Z</time></trkpt><trkpt lat="44.990114914179294" lon="9.840003043574518"><ele>57.0</ele><time>2026-04-11T11:03:19.001Z</time></trkpt><trkpt lat="44.98999091840872" lon="9.840320736881084"><ele>57.0</ele><time>2026-04-11T11:03:20.001Z</time></trkpt><trkpt lat="44.98986911681889" lon="9.840639853627275"><ele>57.0</ele><time>2026-04-11T11:03:21.001Z</time></trkpt><trkpt lat="44.989749836925135" lon="9.840967076069635"><ele>57.0</ele><time>2026-04-11T11:03:22.001Z</time></trkpt><trkpt lat="44.98962540771859" lon="9.8412842118059"><ele>57.0</ele><time>2026-04-11T11:03:23.001Z</time></trkpt><trkpt lat="44.98949579053773" lon="9.841603936724923"><ele>56.5</ele><time>2026-04-11T11:03:24Z</time></trkpt><trkpt lat="44.98937836882626" lon="9.841925528710714"><ele>56.0</ele><time>2026-04-11T11:03:25Z</time></trkpt><trkpt lat="44.989249952188544" lon="9.842248154940027"><ele>56.5</ele><time>2026-04-11T11:03:26Z</time></trkpt><trkpt lat="44.98913035635099" lon="9.842563531440147"><ele>57.0</ele><time>2026-04-11T11:03:27Z</time></trkpt><trkpt lat="44.98900430863706" lon="9.842886688192486"><ele>57.0</ele><time>2026-04-11T11:03:28Z</time></trkpt><trkpt lat="44.988878592636006" lon="9.84320650354819"><ele>57.0</ele><time>2026-04-11T11:03:29Z</time></trkpt><trkpt lat="44.988758736345744" lon="9.843529743607657"><ele>57.0</ele><time>2026-04-11T11:03:30Z</time></trkpt><trkpt lat="44.988632653271196" lon="9.843849429815348"><ele>57.0</ele><time>2026-04-11T11:03:31Z</time></trkpt><trkpt lat="44.98850397039232" lon="9.844169649260007"><ele>57.0</ele><time>2026-04-11T11:03:32Z</time></trkpt><trkpt lat="44.988379991544406" lon="9.84449013914667"><ele>57.0</ele><time>2026-04-11T11:03:33Z</time></trkpt><trkpt lat="44.988254714261636" lon="9.844809974169703"><ele>57.5</ele><time>2026-04-11T11:03:34Z</time></trkpt><trkpt lat="44.988126498831164" lon="9.84512911723903"><ele>58.0</ele><time>2026-04-11T11:03:35Z</time></trkpt><trkpt lat="44.987998140662214" lon="9.845446379992874"><ele>58.0</ele><time>2026-04-11T11:03:36Z</time></trkpt><trkpt lat="44.98786797624484" lon="9.845763257354166"><ele>58.0</ele><time>2026-04-11T11:03:37Z</time></trkpt><trkpt lat="44.9877418085795" lon="9.846087042948907"><ele>57.5</ele><time>2026-04-11T11:03:38Z</time></trkpt><trkpt lat="44.987618379533885" lon="9.846410731594013"><ele>57.0</ele><time>2026-04-11T11:03:39Z</time></trkpt><trkpt lat="44.98748812648556" lon="9.846725697351527"><ele>56.5</ele><time>2026-04-11T11:03:40Z</time></trkpt><trkpt lat="44.987357673115326" lon="9.847041741529718"><ele>56.0</ele><time>2026-04-11T11:03:41Z</time></trkpt><trkpt lat="44.987224117424425" lon="9.847356953035348"><ele>56.0</ele><time>2026-04-11T11:03:42Z</time></trkpt><trkpt lat="44.98709579310299" lon="9.847674586410463"><ele>56.0</ele><time>2026-04-11T11:03:43Z</time></trkpt><trkpt lat="44.98696774046235" lon="9.847989387880482"><ele>56.0</ele><time>2026-04-11T11:03:44Z</time></trkpt><trkpt lat="44.98683083833634" lon="9.848299445150163"><ele>56.0</ele><time>2026-04-11T11:03:45Z</time></trkpt><trkpt lat="44.986690464254714" lon="9.848614483252973"><ele>58.5</ele><time>2026-04-11T11:03:46Z</time></trkpt><trkpt lat="44.98656614007046" lon="9.848930210282505"><ele>61.0</ele><time>2026-04-11T11:03:47Z</time></trkpt><trkpt lat="44.98643182838162" lon="9.849240965007397"><ele>61.0</ele><time>2026-04-11T11:03:48Z</time></trkpt><trkpt lat="44.98629627841043" lon="9.849553209674788"><ele>61.0</ele><time>2026-04-11T11:03:49Z</time></trkpt><trkpt lat="44.98616356859663" lon="9.849872432396522"><ele>58.0</ele><time>2026-04-11T11:03:50Z</time></trkpt><trkpt lat="44.98603328256155" lon="9.850187509912882"><ele>55.0</ele><time>2026-04-11T11:03:51Z</time></trkpt><trkpt lat="44.98589890289184" lon="9.850498670763395"><ele>55.5</ele><time>2026-04-11T11:03:52Z</time></trkpt><trkpt lat="44.98576074253359" lon="9.850813247691976"><ele>56.0</ele><time>2026-04-11T11:03:53Z</time></trkpt><trkpt lat="44.9856273977878" lon="9.851132613904477"><ele>56.0</ele><time>2026-04-11T11:03:54Z</time></trkpt><trkpt lat="44.98549400987464" lon="9.851447938190066"><ele>56.0</ele><time>2026-04-11T11:03:55Z</time></trkpt><trkpt lat="44.98536158695119" lon="9.851764508488714"><ele>56.0</ele><time>2026-04-11T11:03:56Z</time></trkpt><trkpt lat="44.985226379432234" lon="9.852079151393092"><ele>56.0</ele><time>2026-04-11T11:03:57Z</time></trkpt><trkpt lat="44.98508929108346" lon="9.852398651962208"><ele>56.5</ele><time>2026-04-11T11:03:58Z</time></trkpt><trkpt lat="44.98496173120866" lon="9.85271574765731"><ele>57.0</ele><time>2026-04-11T11:03:59Z</time></trkpt><trkpt lat="44.98482891297679" lon="9.853025917881757"><ele>57.0</ele><time>2026-04-11T11:04:00Z</time></trkpt><trkpt lat="44.98469760844854" lon="9.853339597396142"><ele>57.0</ele><time>2026-04-11T11:04:01Z</time></trkpt><trkpt lat="44.98455913735258" lon="9.853654657351901"><ele>56.5</ele><time>2026-04-11T11:04:02Z</time></trkpt><trkpt lat="44.98442841154244" lon="9.853965503919795"><ele>56.0</ele><time>2026-04-11T11:04:03Z</time></trkpt><trkpt lat="44.984297534822026" lon="9.854276275432937"><ele>57.0</ele><time>2026-04-11T11:04:04Z</time></trkpt><trkpt lat="44.9841607449284" lon="9.854594124500007"><ele>58.0</ele><time>2026-04-11T11:04:05Z</time></trkpt><trkpt lat="44.98402744856302" lon="9.854901907556053"><ele>58.5</ele><time>2026-04-11T11:04:06Z</time></trkpt><trkpt lat="44.98389836011012" lon="9.855215893822644"><ele>59.0</ele><time>2026-04-11T11:04:07Z</time></trkpt><trkpt lat="44.983763247410714" lon="9.855530153798062"><ele>59.0</ele><time>2026-04-11T11:04:08Z</time></trkpt><trkpt lat="44.983626668088164" lon="9.855849970485519"><ele>59.0</ele><time>2026-04-11T11:04:09Z</time></trkpt><trkpt lat="44.983496294976916" lon="9.856163364125761"><ele>58.0</ele><time>2026-04-11T11:04:10Z</time></trkpt><trkpt lat="44.98336513912003" lon="9.856482773578104"><ele>57.0</ele><time>2026-04-11T11:04:11Z</time></trkpt><trkpt lat="44.983242433455914" lon="9.856806504261387"><ele>57.0</ele><time>2026-04-11T11:04:12Z</time></trkpt><trkpt lat="44.98311253261072" lon="9.857125543191204"><ele>57.0</ele><time>2026-04-11T11:04:13Z</time></trkpt><trkpt lat="44.98297958776041" lon="9.857442683651792"><ele>57.0</ele><time>2026-04-11T11:04:14Z</time></trkpt><trkpt lat="44.982845259972414" lon="9.857756320587097"><ele>57.0</ele><time>2026-04-11T11:04:15Z</time></trkpt><trkpt lat="44.982719590897986" lon="9.858080383447033"><ele>57.0</ele><time>2026-04-11T11:04:16Z</time></trkpt><trkpt lat="44.98260709295573" lon="9.858407377341198"><ele>57.0</ele><time>2026-04-11T11:04:17Z</time></trkpt><trkpt lat="44.98252363989844" lon="9.85872877969646"><ele>57.0</ele><time>2026-04-11T11:04:18Z</time></trkpt><trkpt lat="44.98245319294913" lon="9.859045992608808"><ele>57.0</ele><time>2026-04-11T11:04:19Z</time></trkpt><trkpt lat="44.982210687429344" lon="9.859360166931445"><ele>56.5</ele><time>2026-04-11T11:04:20Z</time></trkpt><trkpt lat="44.98207756694227" lon="9.859672309431598"><ele>56.0</ele><time>2026-04-11T11:04:21Z</time></trkpt><trkpt lat="44.98194824410797" lon="9.859978233492406"><ele>55.5</ele><time>2026-04-11T11:04:22Z</time></trkpt><trkpt lat="44.98181875470249" lon="9.86028407028717"><ele>55.0</ele><time>2026-04-11T11:04:23Z</time></trkpt><trkpt lat="44.98168683083316" lon="9.860589377097503"><ele>55.5</ele><time>2026-04-11T11:04:24Z</time></trkpt><trkpt lat="44.98155639609747" lon="9.860893257520464"><ele>56.0</ele><time>2026-04-11T11:04:25Z</time></trkpt><trkpt lat="44.98142120163578" lon="9.861197181430022"><ele>56.0</ele><time>2026-04-11T11:04:26Z</time></trkpt><trkpt lat="44.98128418171288" lon="9.86150655634071"><ele>56.0</ele><time>2026-04-11T11:04:27Z</time></trkpt><trkpt lat="44.9811499138648" lon="9.861812808861321"><ele>56.0</ele><time>2026-04-11T11:04:28Z</time></trkpt><trkpt lat="44.98101454418096" lon="9.86212467839933"><ele>56.0</ele><time>2026-04-11T11:04:29Z</time></trkpt><trkpt lat="44.98087108321399" lon="9.862433595512897"><ele>55.0</ele><time>2026-04-11T11:04:30Z</time></trkpt><trkpt lat="44.98072886443116" lon="9.862745711498142"><ele>54.0</ele><time>2026-04-11T11:04:31Z</time></trkpt><trkpt lat="44.9805931298239" lon="9.863063057252246"><ele>54.0</ele><time>2026-04-11T11:04:32Z</time></trkpt><trkpt lat="44.98045798527404" lon="9.863382412718531"><ele>54.0</ele><time>2026-04-11T11:04:33.001Z</time></trkpt><trkpt lat="44.98032626571583" lon="9.863699635587286"><ele>55.0</ele><time>2026-04-11T11:04:34.001Z</time></trkpt><trkpt lat="44.98019481740711" lon="9.86401496004144"><ele>56.0</ele><time>2026-04-11T11:04:35.001Z</time></trkpt><trkpt lat="44.980061104523465" lon="9.864332882625991"><ele>56.5</ele><time>2026-04-11T11:04:36.001Z</time></trkpt><trkpt lat="44.9799267601246" lon="9.864651578935314"><ele>57.0</ele><time>2026-04-11T11:04:37.001Z</time></trkpt><trkpt lat="44.97979175886141" lon="9.86496663295583"><ele>57.0</ele><time>2026-04-11T11:04:38.001Z</time></trkpt><trkpt lat="44.979655826113536" lon="9.865278917449702"><ele>57.0</ele><time>2026-04-11T11:04:39.001Z</time></trkpt><trkpt lat="44.97952209484112" lon="9.865590010980068"><ele>57.0</ele><time>2026-04-11T11:04:40.001Z</time></trkpt><trkpt lat="44.97938520543573" lon="9.865902631602593"><ele>57.0</ele><time>2026-04-11T11:04:41.001Z</time></trkpt><trkpt lat="44.979250894662044" lon="9.866217391618791"><ele>56.5</ele><time>2026-04-11T11:04:42.001Z</time></trkpt><trkpt lat="44.97912066033995" lon="9.866531036319827"><ele>56.0</ele><time>2026-04-11T11:04:43.001Z</time></trkpt><trkpt lat="44.97898963254926" lon="9.866845279518374"><ele>56.0</ele><time>2026-04-11T11:04:44.001Z</time></trkpt><trkpt lat="44.9788583191801" lon="9.867157350697306"><ele>56.0</ele><time>2026-04-11T11:04:45.001Z</time></trkpt><trkpt lat="44.97872820164484" lon="9.867469358050068"><ele>54.5</ele><time>2026-04-11T11:04:46.001Z</time></trkpt><trkpt lat="44.97859596899814" lon="9.867780259482512"><ele>53.0</ele><time>2026-04-11T11:04:47.001Z</time></trkpt><trkpt lat="44.97846184731468" lon="9.868086984215768"><ele>53.5</ele><time>2026-04-11T11:04:48.001Z</time></trkpt><trkpt lat="44.978331089467574" lon="9.868399316071763"><ele>54.0</ele><time>2026-04-11T11:04:49.001Z</time></trkpt><trkpt lat="44.978202604448676" lon="9.86871755444886"><ele>54.0</ele><time>2026-04-11T11:04:50.001Z</time></trkpt><trkpt lat="44.97806920939327" lon="9.869028494979952"><ele>54.0</ele><time>2026-04-11T11:04:51.001Z</time></trkpt><trkpt lat="44.97793349829354" lon="9.869339509938852"><ele>54.0</ele><time>2026-04-11T11:04:52.001Z</time></trkpt><trkpt lat="44.97780311693035" lon="9.86965202749218"><ele>54.0</ele><time>2026-04-11T11:04:53.001Z</time></trkpt><trkpt lat="44.97767600440018" lon="9.869969377733966"><ele>53.0</ele><time>2026-04-11T11:04:54.001Z</time></trkpt><trkpt lat="44.9775485323915" lon="9.870286334020932"><ele>52.0</ele><time>2026-04-11T11:04:55.001Z</time></trkpt><trkpt lat="44.97741737550061" lon="9.87059781485253"><ele>54.0</ele><time>2026-04-11T11:04:56.001Z</time></trkpt><trkpt lat="44.97728157036209" lon="9.870909529064386"><ele>56.0</ele><time>2026-04-11T11:04:57.001Z</time></trkpt><trkpt lat="44.977147164199074" lon="9.871224363037781"><ele>56.5</ele><time>2026-04-11T11:04:58.001Z</time></trkpt><trkpt lat="44.977016131430986" lon="9.87153814442871"><ele>57.0</ele><time>2026-04-11T11:04:59.001Z</time></trkpt><trkpt lat="44.976882838945215" lon="9.871855203139367"><ele>57.0</ele><time>2026-04-11T11:05:00.001Z</time></trkpt><trkpt lat="44.97674936122094" lon="9.872169264206601"><ele>57.0</ele><time>2026-04-11T11:05:01.001Z</time></trkpt><trkpt lat="44.97661519772219" lon="9.872483462805139"><ele>58.0</ele><time>2026-04-11T11:05:02.001Z</time></trkpt><trkpt lat="44.976481696543225" lon="9.872795683466018"><ele>59.0</ele><time>2026-04-11T11:05:03.001Z</time></trkpt><trkpt lat="44.97634958884964" lon="9.873105905935532"><ele>59.0</ele><time>2026-04-11T11:05:04.001Z</time></trkpt><trkpt lat="44.97621745950833" lon="9.87341873718765"><ele>59.0</ele><time>2026-04-11T11:05:05.001Z</time></trkpt><trkpt lat="44.976085438799814" lon="9.873732048031584"><ele>59.0</ele><time>2026-04-11T11:05:06.001Z</time></trkpt><trkpt lat="44.97595171897509" lon="9.874045793614295"><ele>59.0</ele><time>2026-04-11T11:05:07.001Z</time></trkpt><trkpt lat="44.97581625680083" lon="9.8743580944108"><ele>59.0</ele><time>2026-04-11T11:05:08.001Z</time></trkpt><trkpt lat="44.97567572862837" lon="9.874669067617546"><ele>59.0</ele><time>2026-04-11T11:05:09.001Z</time></trkpt><trkpt lat="44.97553213392696" lon="9.874977312174508"><ele>58.5</ele><time>2026-04-11T11:05:10.001Z</time></trkpt><trkpt lat="44.975395606730174" lon="9.87529282763562"><ele>58.0</ele><time>2026-04-11T11:05:11.001Z</time></trkpt><trkpt lat="44.97526079277663" lon="9.875607585258"><ele>58.0</ele><time>2026-04-11T11:05:12.001Z</time></trkpt><trkpt lat="44.97512637904012" lon="9.875924267469934"><ele>58.0</ele><time>2026-04-11T11:05:13.001Z</time></trkpt><trkpt lat="44.97499157896367" lon="9.876238613870713"><ele>58.0</ele><time>2026-04-11T11:05:14.001Z</time></trkpt><trkpt lat="44.97485607589718" lon="9.876553896489323"><ele>58.0</ele><time>2026-04-11T11:05:15.001Z</time></trkpt><trkpt lat="44.974721108807074" lon="9.876866245177364"><ele>57.5</ele><time>2026-04-11T11:05:16.001Z</time></trkpt><trkpt lat="44.97458783742633" lon="9.877176224341506"><ele>57.0</ele><time>2026-04-11T11:05:17.001Z</time></trkpt><trkpt lat="44.97445472255555" lon="9.877487123785388"><ele>57.0</ele><time>2026-04-11T11:05:18.001Z</time></trkpt><trkpt lat="44.974322773744305" lon="9.877798132960427"><ele>57.0</ele><time>2026-04-11T11:05:19.001Z</time></trkpt><trkpt lat="44.974192182437996" lon="9.878108274536272"><ele>57.0</ele><time>2026-04-11T11:05:20.001Z</time></trkpt><trkpt lat="44.97406101115972" lon="9.878421393416092"><ele>57.0</ele><time>2026-04-11T11:05:21.001Z</time></trkpt><trkpt lat="44.97392947305606" lon="9.878733791144034"><ele>57.0</ele><time>2026-04-11T11:05:22.001Z</time></trkpt><trkpt lat="44.973795472204706" lon="9.879046029522083"><ele>57.0</ele><time>2026-04-11T11:05:23.001Z</time></trkpt><trkpt lat="44.973660822214455" lon="9.879358170976369"><ele>56.5</ele><time>2026-04-11T11:05:24.001Z</time></trkpt><trkpt lat="44.9735256370213" lon="9.87967082128123"><ele>56.0</ele><time>2026-04-11T11:05:25.001Z</time></trkpt><trkpt lat="44.97339126122551" lon="9.879984629947833"><ele>55.5</ele><time>2026-04-11T11:05:26.001Z</time></trkpt><trkpt lat="44.97325868395828" lon="9.880296087291356"><ele>55.0</ele><time>2026-04-11T11:05:27.001Z</time></trkpt><trkpt lat="44.973125060669794" lon="9.880611165037333"><ele>55.0</ele><time>2026-04-11T11:05:28.001Z</time></trkpt><trkpt lat="44.97299246751796" lon="9.880924178048405"><ele>55.0</ele><time>2026-04-11T11:05:29Z</time></trkpt><trkpt lat="44.972859621478975" lon="9.881236644505188"><ele>55.5</ele><time>2026-04-11T11:05:30Z</time></trkpt><trkpt lat="44.97272552675016" lon="9.881551882632564"><ele>56.0</ele><time>2026-04-11T11:05:30.999Z</time></trkpt><trkpt lat="44.97259278829931" lon="9.881867247863221"><ele>56.5</ele><time>2026-04-11T11:05:31.999Z</time></trkpt><trkpt lat="44.97245815999454" lon="9.88218086460258"><ele>57.0</ele><time>2026-04-11T11:05:32.999Z</time></trkpt><trkpt lat="44.97232131965348" lon="9.882492921619413"><ele>57.0</ele><time>2026-04-11T11:05:33.999Z</time></trkpt><trkpt lat="44.97218320644223" lon="9.882805796581685"><ele>57.0</ele><time>2026-04-11T11:05:34.999Z</time></trkpt><trkpt lat="44.972048116963904" lon="9.88311929678292"><ele>56.5</ele><time>2026-04-11T11:05:35.999Z</time></trkpt><trkpt lat="44.97191707897368" lon="9.883433892562598"><ele>56.0</ele><time>2026-04-11T11:05:36.999Z</time></trkpt><trkpt lat="44.97178528354075" lon="9.883746904882297"><ele>56.5</ele><time>2026-04-11T11:05:37.999Z</time></trkpt><trkpt lat="44.971650892129496" lon="9.88406062454887"><ele>57.0</ele><time>2026-04-11T11:05:38.999Z</time></trkpt><trkpt lat="44.971518267367706" lon="9.884372680811833"><ele>56.0</ele><time>2026-04-11T11:05:39.999Z</time></trkpt><trkpt lat="44.97138270052569" lon="9.884689223403658"><ele>55.0</ele><time>2026-04-11T11:05:40.999Z</time></trkpt><trkpt lat="44.97124832754575" lon="9.885002789725538"><ele>56.5</ele><time>2026-04-11T11:05:41.999Z</time></trkpt><trkpt lat="44.97111271539731" lon="9.885315705758181"><ele>58.0</ele><time>2026-04-11T11:05:42.999Z</time></trkpt><trkpt lat="44.97097920500096" lon="9.885632595749904"><ele>57.5</ele><time>2026-04-11T11:05:43.999Z</time></trkpt><trkpt lat="44.970848497163104" lon="9.885946329501905"><ele>57.0</ele><time>2026-04-11T11:05:44.999Z</time></trkpt><trkpt lat="44.97071367456028" lon="9.88626318081028"><ele>57.0</ele><time>2026-04-11T11:05:45.999Z</time></trkpt><trkpt lat="44.9705785502421" lon="9.886578851487819"><ele>57.0</ele><time>2026-04-11T11:05:46.999Z</time></trkpt><trkpt lat="44.97044509837161" lon="9.886892778554051"><ele>57.5</ele><time>2026-04-11T11:05:47.999Z</time></trkpt><trkpt lat="44.97030816108244" lon="9.887207622150921"><ele>58.0</ele><time>2026-04-11T11:05:48.999Z</time></trkpt><trkpt lat="44.970172071686406" lon="9.887523366889056"><ele>57.5</ele><time>2026-04-11T11:05:49.999Z</time></trkpt><trkpt lat="44.97003673373164" lon="9.887838387708927"><ele>57.0</ele><time>2026-04-11T11:05:50.999Z</time></trkpt><trkpt lat="44.96990398103882" lon="9.888154082435465"><ele>56.5</ele><time>2026-04-11T11:05:51.999Z</time></trkpt><trkpt lat="44.9697700327422" lon="9.88846981886817"><ele>56.0</ele><time>2026-04-11T11:05:53Z</time></trkpt><trkpt lat="44.96963662349304" lon="9.88878374596654"><ele>56.0</ele><time>2026-04-11T11:05:54Z</time></trkpt><trkpt lat="44.96950374301225" lon="9.889094196416265"><ele>56.0</ele><time>2026-04-11T11:05:55Z</time></trkpt><trkpt lat="44.96936872630348" lon="9.889407130798704"><ele>56.0</ele><time>2026-04-11T11:05:56Z</time></trkpt><trkpt lat="44.969236208812546" lon="9.889717950793878"><ele>56.0</ele><time>2026-04-11T11:05:57Z</time></trkpt><trkpt lat="44.96910395345563" lon="9.890031554507498"><ele>58.5</ele><time>2026-04-11T11:05:58Z</time></trkpt><trkpt lat="44.9689695042115" lon="9.890344178101865"><ele>61.0</ele><time>2026-04-11T11:05:59Z</time></trkpt><trkpt lat="44.968832337546154" lon="9.890654469505678"><ele>60.0</ele><time>2026-04-11T11:06:00Z</time></trkpt><trkpt lat="44.968694275677315" lon="9.890963953365667"><ele>59.0</ele><time>2026-04-11T11:06:01Z</time></trkpt><trkpt lat="44.96855798737285" lon="9.891273596899639"><ele>59.0</ele><time>2026-04-11T11:06:02Z</time></trkpt><trkpt lat="44.968433279544506" lon="9.891559387852888"><ele>59.0</ele><time>2026-04-11T11:06:03Z</time></trkpt><trkpt lat="44.96831733048717" lon="9.891831418052996"><ele>58.333333333333336</ele><time>2026-04-11T11:06:04Z</time></trkpt><trkpt lat="44.96820707806571" lon="9.892090452007098"><ele>57.66666666666667</ele><time>2026-04-11T11:06:05Z</time></trkpt><trkpt lat="44.968095845179135" lon="9.892353150232761"><ele>57.0</ele><time>2026-04-11T11:06:06Z</time></trkpt><trkpt lat="44.967982165057784" lon="9.89262180660643"><ele>56.5</ele><time>2026-04-11T11:06:07Z</time></trkpt><trkpt lat="44.96786361005292" lon="9.89289351523267"><ele>56.0</ele><time>2026-04-11T11:06:08Z</time></trkpt><trkpt lat="44.967744668988026" lon="9.893169173713272"><ele>56.0</ele><time>2026-04-11T11:06:09Z</time></trkpt><trkpt lat="44.96762661281042" lon="9.89344558678574"><ele>56.0</ele><time>2026-04-11T11:06:10Z</time></trkpt><trkpt lat="44.967508885632895" lon="9.893723937544944"><ele>57.0</ele><time>2026-04-11T11:06:11Z</time></trkpt><trkpt lat="44.96739321652221" lon="9.893994280762278"><ele>58.0</ele><time>2026-04-11T11:06:12Z</time></trkpt><trkpt lat="44.96728122737583" lon="9.894252211098857"><ele>59.0</ele><time>2026-04-11T11:06:13Z</time></trkpt><trkpt lat="44.96717015319657" lon="9.894509439804478"><ele>59.0</ele><time>2026-04-11T11:06:14Z</time></trkpt><trkpt lat="44.96705572693679" lon="9.89476642006181"><ele>59.0</ele><time>2026-04-11T11:06:15Z</time></trkpt><trkpt lat="44.96694022219147" lon="9.895023027852796"><ele>59.0</ele><time>2026-04-11T11:06:16Z</time></trkpt><trkpt lat="44.966829307484765" lon="9.895275478918265"><ele>59.0</ele><time>2026-04-11T11:06:17Z</time></trkpt><trkpt lat="44.966721964474274" lon="9.895528705278423"><ele>59.0</ele><time>2026-04-11T11:06:18Z</time></trkpt><trkpt lat="44.96661503506412" lon="9.895789533327573"><ele>59.0</ele><time>2026-04-11T11:06:19Z</time></trkpt><trkpt lat="44.96650620684903" lon="9.896047785571982"><ele>58.333333333333336</ele><time>2026-04-11T11:06:20Z</time></trkpt><trkpt lat="44.96639607589309" lon="9.896310960353537"><ele>57.66666666666667</ele><time>2026-04-11T11:06:21Z</time></trkpt><trkpt lat="44.966283035011415" lon="9.896577999787723"><ele>57.0</ele><time>2026-04-11T11:06:22Z</time></trkpt><trkpt lat="44.96616904776931" lon="9.89683795094457"><ele>57.0</ele><time>2026-04-11T11:06:23Z</time></trkpt><trkpt lat="44.96605484120848" lon="9.897100512364048"><ele>57.0</ele><time>2026-04-11T11:06:24Z</time></trkpt><trkpt lat="44.965940260325" lon="9.89736887495915"><ele>57.0</ele><time>2026-04-11T11:06:25Z</time></trkpt><trkpt lat="44.96582576578486" lon="9.897637344191104"><ele>57.33333333333333</ele><time>2026-04-11T11:06:26Z</time></trkpt><trkpt lat="44.96571086553835" lon="9.8979078068624"><ele>57.666666666666664</ele><time>2026-04-11T11:06:27Z</time></trkpt><trkpt lat="44.96559573620644" lon="9.898176345998657"><ele>58.0</ele><time>2026-04-11T11:06:28Z</time></trkpt><trkpt lat="44.96548082833796" lon="9.89844391600445"><ele>58.5</ele><time>2026-04-11T11:06:29Z</time></trkpt><trkpt lat="44.96536383895476" lon="9.898719762698079"><ele>59.0</ele><time>2026-04-11T11:06:30Z</time></trkpt><trkpt lat="44.965245546423446" lon="9.89899337643107"><ele>59.5</ele><time>2026-04-11T11:06:31Z</time></trkpt><trkpt lat="44.9651268555651" lon="9.899273872599018"><ele>60.0</ele><time>2026-04-11T11:06:32Z</time></trkpt><trkpt lat="44.96500461071719" lon="9.899554399140209"><ele>60.0</ele><time>2026-04-11T11:06:33Z</time></trkpt><trkpt lat="44.96487709225074" lon="9.899831685402393"><ele>60.0</ele><time>2026-04-11T11:06:34Z</time></trkpt><trkpt lat="44.96474827868631" lon="9.900115140812135"><ele>60.5</ele><time>2026-04-11T11:06:35Z</time></trkpt><trkpt lat="44.96462428581649" lon="9.900393284743423"><ele>61.0</ele><time>2026-04-11T11:06:36Z</time></trkpt><trkpt lat="44.96451206425694" lon="9.900687521257515"><ele>61.0</ele><time>2026-04-11T11:06:37Z</time></trkpt><trkpt lat="44.96439275947695" lon="9.900968298045187"><ele>61.0</ele><time>2026-04-11T11:06:38Z</time></trkpt><trkpt lat="44.964244910438424" lon="9.901228539886889"><ele>60.5</ele><time>2026-04-11T11:06:39Z</time></trkpt><trkpt lat="44.9641161526536" lon="9.901509354080126"><ele>60.0</ele><time>2026-04-11T11:06:40Z</time></trkpt><trkpt lat="44.963991580533055" lon="9.901786825884374"><ele>60.0</ele><time>2026-04-11T11:06:41Z</time></trkpt><trkpt lat="44.963878718835275" lon="9.90204534308329"><ele>60.0</ele><time>2026-04-11T11:06:42Z</time></trkpt><trkpt lat="44.96376885560391" lon="9.902291855401964"><ele>60.0</ele><time>2026-04-11T11:06:43Z</time></trkpt><trkpt lat="44.96366978156907" lon="9.90252442625753"><ele>60.0</ele><time>2026-04-11T11:06:44Z</time></trkpt><trkpt lat="44.96357440479662" lon="9.902744868670219"><ele>60.0</ele><time>2026-04-11T11:06:45Z</time></trkpt><trkpt lat="44.96348306212834" lon="9.902949120782562"><ele>60.0</ele><time>2026-04-11T11:06:46Z</time></trkpt><trkpt lat="44.963398104184535" lon="9.903145097271734"><ele>60.25</ele><time>2026-04-11T11:06:47Z</time></trkpt><trkpt lat="44.96331723668685" lon="9.903322467154668"><ele>60.5</ele><time>2026-04-11T11:06:48Z</time></trkpt><trkpt lat="44.96323060030426" lon="9.903495546526088"><ele>60.75</ele><time>2026-04-11T11:06:49Z</time></trkpt><trkpt lat="44.963142946252404" lon="9.903643897523368"><ele>61.0</ele><time>2026-04-11T11:06:50Z</time></trkpt><trkpt lat="44.96304905642429" lon="9.90377627101656"><ele>61.0</ele><time>2026-04-11T11:06:51Z</time></trkpt><trkpt lat="44.96294089382072" lon="9.903882812403515"><ele>61.0</ele><time>2026-04-11T11:06:52Z</time></trkpt><trkpt lat="44.962821671896535" lon="9.903971020198137"><ele>61.0</ele><time>2026-04-11T11:06:53Z</time></trkpt><trkpt lat="44.96270247425742" lon="9.904060438872571"><ele>61.0</ele><time>2026-04-11T11:06:54Z</time></trkpt><trkpt lat="44.962589776270555" lon="9.90413946085326"><ele>61.75</ele><time>2026-04-11T11:06:55Z</time></trkpt><trkpt lat="44.96251193489647" lon="9.904286857089804"><ele>62.5</ele><time>2026-04-11T11:06:56Z</time></trkpt><trkpt lat="44.96246626667666" lon="9.90444430899046"><ele>63.25</ele><time>2026-04-11T11:06:57Z</time></trkpt><trkpt lat="44.96244522043597" lon="9.904594383987613"><ele>64.0</ele><time>2026-04-11T11:06:58Z</time></trkpt><trkpt lat="44.96241028794589" lon="9.904730834233705"><ele>63.99999999999999</ele><time>2026-04-11T11:06:59Z</time></trkpt><trkpt lat="44.96236504391537" lon="9.904851849078558"><ele>64.0</ele><time>2026-04-11T11:07:00Z</time></trkpt><trkpt lat="44.96232724842187" lon="9.904963161132807"><ele>64.0</ele><time>2026-04-11T11:07:01Z</time></trkpt><trkpt lat="44.96229718664307" lon="9.905070357756347"><ele>64.0</ele><time>2026-04-11T11:07:02Z</time></trkpt><trkpt lat="44.96227564802812" lon="9.905175036243161"><ele>63.99999999999999</ele><time>2026-04-11T11:07:03Z</time></trkpt><trkpt lat="44.962266229586" lon="9.905267984563455"><ele>64.0</ele><time>2026-04-11T11:07:04Z</time></trkpt><trkpt lat="44.96226459230808" lon="9.905397741603789"><ele>64.0</ele><time>2026-04-11T11:07:06Z</time></trkpt><trkpt lat="44.96230930041104" lon="9.905510030747166"><ele>64.0</ele><time>2026-04-11T11:07:09Z</time></trkpt><trkpt lat="44.96206202224368" lon="9.905618004360775"><ele>64.0</ele><time>2026-04-11T11:07:35Z</time></trkpt><trkpt lat="44.962014122877385" lon="9.905684162151607"><ele>64.0</ele><time>2026-04-11T11:07:37Z</time></trkpt><trkpt lat="44.96188359568039" lon="9.905613488242777"><ele>63.99999999999999</ele><time>2026-04-11T11:07:39Z</time></trkpt><trkpt lat="44.96195586525544" lon="9.905687057598312"><ele>64.0</ele><time>2026-04-11T11:24:09.001Z</time></trkpt><trkpt lat="44.96200002059842" lon="9.90579273031232"><ele>64.0</ele><time>2026-04-11T11:24:29Z</time></trkpt><trkpt lat="44.96205518708712" lon="9.905843694722181"><ele>64.0</ele><time>2026-04-11T11:24:32Z</time></trkpt><trkpt lat="44.96211991828603" lon="9.90590065538733"><ele>63.99999999999999</ele><time>2026-04-11T11:24:37Z</time></trkpt><trkpt lat="44.96210494416168" lon="9.905995877493885"><ele>64.0</ele><time>2026-04-11T11:24:41Z</time></trkpt><trkpt lat="44.96208505888648" lon="9.906096373276167"><ele>63.99999999999999</ele><time>2026-04-11T11:24:43Z</time></trkpt><trkpt lat="44.961992899959924" lon="9.906149871594426"><ele>64.0</ele><time>2026-04-11T11:24:45Z</time></trkpt><trkpt lat="44.96193243924023" lon="9.90607045395481"><ele>64.0</ele><time>2026-04-11T11:24:47Z</time></trkpt><trkpt lat="44.961938827738564" lon="9.905969273484336"><ele>64.0</ele><time>2026-04-11T11:24:49Z</time></trkpt><trkpt lat="44.961985668224635" lon="9.905870762007428"><ele>63.99999999999999</ele><time>2026-04-11T11:24:51Z</time></trkpt><trkpt lat="44.96202777077751" lon="9.90580039128434"><ele>64.0</ele><time>2026-04-11T11:24:53Z</time></trkpt><trkpt lat="44.96205475814368" lon="9.905719752947007"><ele>63.99999999999999</ele><time>2026-04-11T11:24:56Z</time></trkpt><trkpt lat="44.962088187568476" lon="9.905640035136406"><ele>64.0</ele><time>2026-04-11T11:24:59Z</time></trkpt><trkpt lat="44.962104481929565" lon="9.905550243567433"><ele>64.0</ele><time>2026-04-11T11:25:01Z</time></trkpt><trkpt lat="44.96211280898517" lon="9.905448473838666"><ele>64.0</ele><time>2026-04-11T11:25:03.001Z</time></trkpt><trkpt lat="44.96207912220222" lon="9.905305956127306"><ele>63.99999999999999</ele><time>2026-04-11T11:25:06.001Z</time></trkpt><trkpt lat="44.96200423688851" lon="9.905259696261092"><ele>64.0</ele><time>2026-04-11T11:25:08.001Z</time></trkpt><trkpt lat="44.96191961011369" lon="9.905292241074493"><ele>64.0</ele><time>2026-04-11T11:25:10.001Z</time></trkpt><trkpt lat="44.9618540263415" lon="9.905339494539904"><ele>64.0</ele><time>2026-04-11T11:25:12.001Z</time></trkpt><trkpt lat="44.96188882995539" lon="9.905473335881787"><ele>64.0</ele><time>2026-04-11T11:25:13.001Z</time></trkpt><trkpt lat="44.96181474860404" lon="9.905591685625724"><ele>64.0</ele><time>2026-04-11T11:25:15.001Z</time></trkpt><trkpt lat="44.96177521215476" lon="9.905705204376236"><ele>64.0</ele><time>2026-04-11T11:25:17.001Z</time></trkpt><trkpt lat="44.96173600427346" lon="9.905818527073956"><ele>63.800000000000004</ele><time>2026-04-11T11:25:19.001Z</time></trkpt><trkpt lat="44.96167981663742" lon="9.90594614715755"><ele>63.60000000000001</ele><time>2026-04-11T11:25:21.001Z</time></trkpt><trkpt lat="44.96168995636354" lon="9.906061563964988"><ele>63.4</ele><time>2026-04-11T11:25:22.001Z</time></trkpt><trkpt lat="44.961661615745996" lon="9.906153136242462"><ele>63.2</ele><time>2026-04-11T11:25:23.001Z</time></trkpt><trkpt lat="44.96166130764251" lon="9.906286647869898"><ele>63.0</ele><time>2026-04-11T11:25:24.001Z</time></trkpt><trkpt lat="44.96167297418204" lon="9.906437087954227"><ele>63.0</ele><time>2026-04-11T11:25:25.001Z</time></trkpt><trkpt lat="44.961687285868194" lon="9.90659847293167"><ele>63.0</ele><time>2026-04-11T11:25:26.001Z</time></trkpt><trkpt lat="44.96170351921162" lon="9.906771360464443"><ele>63.0</ele><time>2026-04-11T11:25:27.001Z</time></trkpt><trkpt lat="44.961716487272696" lon="9.906956481910433"><ele>63.0</ele><time>2026-04-11T11:25:28.001Z</time></trkpt><trkpt lat="44.961718462375835" lon="9.907145684331644"><ele>63.0</ele><time>2026-04-11T11:25:29.001Z</time></trkpt><trkpt lat="44.961685561044746" lon="9.907335339285105"><ele>63.0</ele><time>2026-04-11T11:25:30.001Z</time></trkpt><trkpt lat="44.961618466328275" lon="9.907514819462747"><ele>63.0</ele><time>2026-04-11T11:25:31.001Z</time></trkpt><trkpt lat="44.961529194870735" lon="9.90769480992362"><ele>63.0</ele><time>2026-04-11T11:25:32.001Z</time></trkpt><trkpt lat="44.961447182953236" lon="9.907889493981648"><ele>63.0</ele><time>2026-04-11T11:25:33.001Z</time></trkpt><trkpt lat="44.961366344532756" lon="9.908099870193949"><ele>63.0</ele><time>2026-04-11T11:25:34.001Z</time></trkpt><trkpt lat="44.961278470309054" lon="9.90831891652293"><ele>63.0</ele><time>2026-04-11T11:25:35.001Z</time></trkpt><trkpt lat="44.96118445522036" lon="9.908542459350574"><ele>63.0</ele><time>2026-04-11T11:25:36.001Z</time></trkpt><trkpt lat="44.9610871176675" lon="9.908775541754824"><ele>63.0</ele><time>2026-04-11T11:25:37.001Z</time></trkpt><trkpt lat="44.96098574036306" lon="9.909015386979323"><ele>63.0</ele><time>2026-04-11T11:25:38.001Z</time></trkpt><trkpt lat="44.960883353770136" lon="9.90925795385719"><ele>62.33333333333333</ele><time>2026-04-11T11:25:39.001Z</time></trkpt><trkpt lat="44.960776029039074" lon="9.909510843909938"><ele>61.666666666666664</ele><time>2026-04-11T11:25:40.001Z</time></trkpt><trkpt lat="44.96066950304315" lon="9.909765727574205"><ele>61.0</ele><time>2026-04-11T11:25:41.001Z</time></trkpt><trkpt lat="44.960563308816255" lon="9.910027114919144"><ele>61.0</ele><time>2026-04-11T11:25:42.001Z</time></trkpt><trkpt lat="44.96045205980575" lon="9.910291421921348"><ele>61.0</ele><time>2026-04-11T11:25:43.001Z</time></trkpt><trkpt lat="44.96033818047977" lon="9.910561795740689"><ele>61.0</ele><time>2026-04-11T11:25:44.001Z</time></trkpt><trkpt lat="44.96022270581322" lon="9.910830931248753"><ele>60.0</ele><time>2026-04-11T11:25:45.001Z</time></trkpt><trkpt lat="44.9601047398722" lon="9.91110541273628"><ele>59.0</ele><time>2026-04-11T11:25:46.001Z</time></trkpt><trkpt lat="44.959985769810665" lon="9.911382816082938"><ele>59.0</ele><time>2026-04-11T11:25:47.001Z</time></trkpt><trkpt lat="44.95986690543251" lon="9.911665374714548"><ele>59.0</ele><time>2026-04-11T11:25:48.001Z</time></trkpt><trkpt lat="44.95974664729246" lon="9.911950494772778"><ele>57.5</ele><time>2026-04-11T11:25:49.001Z</time></trkpt><trkpt lat="44.95962416480713" lon="9.912233131697437"><ele>56.0</ele><time>2026-04-11T11:25:50.001Z</time></trkpt><trkpt lat="44.959498871428345" lon="9.912520891230384"><ele>56.0</ele><time>2026-04-11T11:25:51.001Z</time></trkpt><trkpt lat="44.959250585576164" lon="9.9131001065589"><ele>59.0</ele><time>2026-04-11T11:25:53.001Z</time></trkpt><trkpt lat="44.95912747849782" lon="9.913391981179466"><ele>62.0</ele><time>2026-04-11T11:25:54.001Z</time></trkpt><trkpt lat="44.95900369113032" lon="9.91368196936521"><ele>62.0</ele><time>2026-04-11T11:25:55.001Z</time></trkpt><trkpt lat="44.958880363337386" lon="9.91397313368094"><ele>62.0</ele><time>2026-04-11T11:25:56.001Z</time></trkpt><trkpt lat="44.95875496652211" lon="9.914268007584571"><ele>61.5</ele><time>2026-04-11T11:25:57.001Z</time></trkpt><trkpt lat="44.95862871871943" lon="9.914559836399953"><ele>61.0</ele><time>2026-04-11T11:25:58.001Z</time></trkpt><trkpt lat="44.95850268841481" lon="9.914852862111418"><ele>60.666666666666664</ele><time>2026-04-11T11:25:59.001Z</time></trkpt><trkpt lat="44.95839482323862" lon="9.915098486843425"><ele>60.33333333333333</ele><time>2026-04-11T11:26:00.001Z</time></trkpt><trkpt lat="44.95827515583079" lon="9.915370387599285"><ele>60.0</ele><time>2026-04-11T11:26:01.001Z</time></trkpt><trkpt lat="44.95816102159197" lon="9.915646266358856"><ele>59.0</ele><time>2026-04-11T11:26:02.001Z</time></trkpt><trkpt lat="44.958048211748604" lon="9.915923479314847"><ele>58.0</ele><time>2026-04-11T11:26:03.001Z</time></trkpt><trkpt lat="44.95793029034215" lon="9.916200667288743"><ele>58.0</ele><time>2026-04-11T11:26:04.001Z</time></trkpt><trkpt lat="44.95781277400849" lon="9.916472684561725"><ele>58.0</ele><time>2026-04-11T11:26:05.001Z</time></trkpt><trkpt lat="44.9576939584357" lon="9.9167454348409"><ele>58.5</ele><time>2026-04-11T11:26:06.001Z</time></trkpt><trkpt lat="44.957569817041694" lon="9.917016902605877"><ele>59.0</ele><time>2026-04-11T11:26:07.001Z</time></trkpt><trkpt lat="44.95745393641855" lon="9.917299727313797"><ele>61.5</ele><time>2026-04-11T11:26:08.001Z</time></trkpt><trkpt lat="44.95734041167029" lon="9.917581016160419"><ele>64.0</ele><time>2026-04-11T11:26:09.001Z</time></trkpt><trkpt lat="44.957228096953706" lon="9.917862055125271"><ele>64.0</ele><time>2026-04-11T11:26:10.001Z</time></trkpt><trkpt lat="44.95710513669757" lon="9.918140023384385"><ele>64.0</ele><time>2026-04-11T11:26:11.001Z</time></trkpt><trkpt lat="44.95698425545852" lon="9.918419640172726"><ele>62.5</ele><time>2026-04-11T11:26:12.001Z</time></trkpt><trkpt lat="44.956865709998716" lon="9.918705318555032"><ele>61.0</ele><time>2026-04-11T11:26:13.002Z</time></trkpt><trkpt lat="44.9567449205976" lon="9.918991699520406"><ele>62.0</ele><time>2026-04-11T11:26:14.002Z</time></trkpt><trkpt lat="44.956618878606626" lon="9.919275813319736"><ele>63.0</ele><time>2026-04-11T11:26:15.002Z</time></trkpt><trkpt lat="44.95649662928333" lon="9.919559357048186"><ele>63.0</ele><time>2026-04-11T11:26:16.002Z</time></trkpt><trkpt lat="44.95637712317709" lon="9.91984268756235"><ele>63.0</ele><time>2026-04-11T11:26:17.002Z</time></trkpt><trkpt lat="44.95625353861414" lon="9.920124928310813"><ele>62.5</ele><time>2026-04-11T11:26:18.002Z</time></trkpt><trkpt lat="44.95612963734314" lon="9.920409355216735"><ele>62.0</ele><time>2026-04-11T11:26:19.002Z</time></trkpt><trkpt lat="44.95600592935554" lon="9.920694935759053"><ele>66.0</ele><time>2026-04-11T11:26:20.002Z</time></trkpt><trkpt lat="44.95577032955284" lon="9.921249132350395"><ele>66.0</ele><time>2026-04-11T11:26:22.002Z</time></trkpt><trkpt lat="44.95565534145472" lon="9.92152221937698"><ele>66.0</ele><time>2026-04-11T11:26:23.002Z</time></trkpt><trkpt lat="44.95553613052816" lon="9.921794120185883"><ele>65.5</ele><time>2026-04-11T11:26:24.002Z</time></trkpt><trkpt lat="44.95542004400476" lon="9.922064936961632"><ele>65.0</ele><time>2026-04-11T11:26:25.002Z</time></trkpt><trkpt lat="44.95530258637927" lon="9.922337153844524"><ele>64.5</ele><time>2026-04-11T11:26:26.002Z</time></trkpt><trkpt lat="44.95518966081699" lon="9.922606890554228"><ele>64.0</ele><time>2026-04-11T11:26:27.002Z</time></trkpt><trkpt lat="44.955070241697186" lon="9.922881180506975"><ele>64.0</ele><time>2026-04-11T11:26:28.002Z</time></trkpt><trkpt lat="44.954953695965216" lon="9.923164410732195"><ele>64.0</ele><time>2026-04-11T11:26:29Z</time></trkpt><trkpt lat="44.95483979786687" lon="9.923439520439935"><ele>63.5</ele><time>2026-04-11T11:26:30Z</time></trkpt><trkpt lat="44.954719970064" lon="9.923719647471065"><ele>63.0</ele><time>2026-04-11T11:26:31Z</time></trkpt><trkpt lat="44.954598463488146" lon="9.9239966119643"><ele>62.0</ele><time>2026-04-11T11:26:32Z</time></trkpt><trkpt lat="44.954480770292655" lon="9.924271359136414"><ele>61.0</ele><time>2026-04-11T11:26:33Z</time></trkpt><trkpt lat="44.95436261759224" lon="9.924551352326418"><ele>61.0</ele><time>2026-04-11T11:26:34Z</time></trkpt><trkpt lat="44.95424583137942" lon="9.924827434154535"><ele>61.0</ele><time>2026-04-11T11:26:35Z</time></trkpt><trkpt lat="44.95412612101121" lon="9.925103002806162"><ele>61.0</ele><time>2026-04-11T11:26:36Z</time></trkpt><trkpt lat="44.95400741523229" lon="9.92538304846398"><ele>61.0</ele><time>2026-04-11T11:26:37Z</time></trkpt><trkpt lat="44.953890772600914" lon="9.925659454453209"><ele>60.5</ele><time>2026-04-11T11:26:38Z</time></trkpt><trkpt lat="44.95377051138999" lon="9.925934332459356"><ele>60.0</ele><time>2026-04-11T11:26:39Z</time></trkpt><trkpt lat="44.953650414112076" lon="9.926212205845273"><ele>60.0</ele><time>2026-04-11T11:26:40Z</time></trkpt><trkpt lat="44.9535323250635" lon="9.926487740638715"><ele>60.0</ele><time>2026-04-11T11:26:41Z</time></trkpt><trkpt lat="44.95341575791419" lon="9.926763036503202"><ele>60.5</ele><time>2026-04-11T11:26:42Z</time></trkpt><trkpt lat="44.9532983671452" lon="9.92703792668468"><ele>61.0</ele><time>2026-04-11T11:26:43Z</time></trkpt><trkpt lat="44.953181315028196" lon="9.927313249698638"><ele>60.0</ele><time>2026-04-11T11:26:44Z</time></trkpt><trkpt lat="44.95306445979493" lon="9.92759060653443"><ele>59.0</ele><time>2026-04-11T11:26:45Z</time></trkpt><trkpt lat="44.952948455917706" lon="9.927868194762734"><ele>59.0</ele><time>2026-04-11T11:26:46Z</time></trkpt><trkpt lat="44.9528308500596" lon="9.928147065286721"><ele>59.0</ele><time>2026-04-11T11:26:47Z</time></trkpt><trkpt lat="44.95271341702379" lon="9.92842284513886"><ele>59.5</ele><time>2026-04-11T11:26:48Z</time></trkpt><trkpt lat="44.95259421161053" lon="9.92870069170007"><ele>60.0</ele><time>2026-04-11T11:26:49Z</time></trkpt><trkpt lat="44.952477042508846" lon="9.928977573390885"><ele>60.0</ele><time>2026-04-11T11:26:50Z</time></trkpt><trkpt lat="44.952360088241896" lon="9.929253376093047"><ele>60.0</ele><time>2026-04-11T11:26:51Z</time></trkpt><trkpt lat="44.9522407170976" lon="9.929533517452688"><ele>60.0</ele><time>2026-04-11T11:26:52.001Z</time></trkpt><trkpt lat="44.952121238918885" lon="9.929810641678488"><ele>60.0</ele><time>2026-04-11T11:26:53.001Z</time></trkpt><trkpt lat="44.952002749138686" lon="9.93008427968258"><ele>59.5</ele><time>2026-04-11T11:26:54.001Z</time></trkpt><trkpt lat="44.951885609253836" lon="9.930353132125745"><ele>59.0</ele><time>2026-04-11T11:26:55.001Z</time></trkpt><trkpt lat="44.95176582408553" lon="9.930634198181501"><ele>57.0</ele><time>2026-04-11T11:26:56.001Z</time></trkpt><trkpt lat="44.951648648144534" lon="9.930913021985411"><ele>55.0</ele><time>2026-04-11T11:26:57.001Z</time></trkpt><trkpt lat="44.951530153062635" lon="9.931191692533224"><ele>55.0</ele><time>2026-04-11T11:26:58.001Z</time></trkpt><trkpt lat="44.951410181162174" lon="9.93147094680315"><ele>55.0</ele><time>2026-04-11T11:26:59.001Z</time></trkpt><trkpt lat="44.95129124349872" lon="9.931748143358783"><ele>55.0</ele><time>2026-04-11T11:27:00.001Z</time></trkpt><trkpt lat="44.95117270896477" lon="9.932030160583452"><ele>55.0</ele><time>2026-04-11T11:27:01.001Z</time></trkpt><trkpt lat="44.95105554163397" lon="9.932310378582985"><ele>55.5</ele><time>2026-04-11T11:27:02.001Z</time></trkpt><trkpt lat="44.95093748880678" lon="9.932590170857853"><ele>56.0</ele><time>2026-04-11T11:27:03.001Z</time></trkpt><trkpt lat="44.950817889050285" lon="9.932869958072063"><ele>57.0</ele><time>2026-04-11T11:27:04.001Z</time></trkpt><trkpt lat="44.95069863622102" lon="9.933146220920527"><ele>58.0</ele><time>2026-04-11T11:27:05.001Z</time></trkpt><trkpt lat="44.950578103896135" lon="9.93342342063441"><ele>58.0</ele><time>2026-04-11T11:27:06.001Z</time></trkpt><trkpt lat="44.95045916483544" lon="9.93369963328608"><ele>58.0</ele><time>2026-04-11T11:27:07.001Z</time></trkpt><trkpt lat="44.950340572715334" lon="9.933981033900585"><ele>58.0</ele><time>2026-04-11T11:27:08.001Z</time></trkpt><trkpt lat="44.95022782182094" lon="9.934255816728141"><ele>58.0</ele><time>2026-04-11T11:27:09.001Z</time></trkpt><trkpt lat="44.9501133907308" lon="9.934533432382965"><ele>58.5</ele><time>2026-04-11T11:27:10.001Z</time></trkpt><trkpt lat="44.94999692444357" lon="9.934812749624276"><ele>59.0</ele><time>2026-04-11T11:27:11.001Z</time></trkpt><trkpt lat="44.94987938624887" lon="9.93508905821301"><ele>57.5</ele><time>2026-04-11T11:27:12.001Z</time></trkpt><trkpt lat="44.94976142961205" lon="9.935366656869236"><ele>56.0</ele><time>2026-04-11T11:27:13.001Z</time></trkpt><trkpt lat="44.94964059903118" lon="9.935641494428882"><ele>56.0</ele><time>2026-04-11T11:27:14.001Z</time></trkpt><trkpt lat="44.9495210460159" lon="9.935915678012934"><ele>56.0</ele><time>2026-04-11T11:27:15.001Z</time></trkpt><trkpt lat="44.94940005394299" lon="9.936189562077828"><ele>56.0</ele><time>2026-04-11T11:27:16.001Z</time></trkpt><trkpt lat="44.949280314215265" lon="9.936462937450395"><ele>56.0</ele><time>2026-04-11T11:27:17Z</time></trkpt><trkpt lat="44.94916415174729" lon="9.936738368120652"><ele>57.0</ele><time>2026-04-11T11:27:18Z</time></trkpt><trkpt lat="44.94904697901355" lon="9.937019760331623"><ele>58.0</ele><time>2026-04-11T11:27:19Z</time></trkpt><trkpt lat="44.9489300023767" lon="9.937296984810752"><ele>58.0</ele><time>2026-04-11T11:27:20Z</time></trkpt><trkpt lat="44.94881267645858" lon="9.93757334782292"><ele>58.0</ele><time>2026-04-11T11:27:21Z</time></trkpt><trkpt lat="44.948694513286014" lon="9.937847314121253"><ele>58.0</ele><time>2026-04-11T11:27:22Z</time></trkpt><trkpt lat="44.948574271613225" lon="9.93812563372968"><ele>58.0</ele><time>2026-04-11T11:27:23Z</time></trkpt><trkpt lat="44.94845677187121" lon="9.938400409111315"><ele>58.0</ele><time>2026-04-11T11:27:24Z</time></trkpt><trkpt lat="44.94833277728302" lon="9.938672424996119"><ele>58.0</ele><time>2026-04-11T11:27:25Z</time></trkpt><trkpt lat="44.94822028611722" lon="9.938957737703099"><ele>58.0</ele><time>2026-04-11T11:27:26Z</time></trkpt><trkpt lat="44.948102198248385" lon="9.939232145350237"><ele>58.0</ele><time>2026-04-11T11:27:27Z</time></trkpt><trkpt lat="44.947983999784554" lon="9.93951395391163"><ele>58.0</ele><time>2026-04-11T11:27:28Z</time></trkpt><trkpt lat="44.94786687368909" lon="9.939785138114775"><ele>58.0</ele><time>2026-04-11T11:27:29Z</time></trkpt><trkpt lat="44.94774834211456" lon="9.94006667080017"><ele>57.5</ele><time>2026-04-11T11:27:30Z</time></trkpt><trkpt lat="44.94763161908423" lon="9.940343670960855"><ele>57.0</ele><time>2026-04-11T11:27:31Z</time></trkpt><trkpt lat="44.94751527953626" lon="9.94062250647837"><ele>56.5</ele><time>2026-04-11T11:27:32Z</time></trkpt><trkpt lat="44.947397346734554" lon="9.940896197949034"><ele>56.0</ele><time>2026-04-11T11:27:33Z</time></trkpt><trkpt lat="44.94727945975202" lon="9.941169832827534"><ele>56.0</ele><time>2026-04-11T11:27:34Z</time></trkpt><trkpt lat="44.94715998153583" lon="9.941449201451638"><ele>56.0</ele><time>2026-04-11T11:27:35Z</time></trkpt><trkpt lat="44.9470413575776" lon="9.941726446737762"><ele>54.5</ele><time>2026-04-11T11:27:36Z</time></trkpt><trkpt lat="44.9469229434697" lon="9.942004498658623"><ele>53.0</ele><time>2026-04-11T11:27:37Z</time></trkpt><trkpt lat="44.946803873232945" lon="9.942279577443207"><ele>55.0</ele><time>2026-04-11T11:27:38Z</time></trkpt><trkpt lat="44.94668695753112" lon="9.942556904869171"><ele>57.0</ele><time>2026-04-11T11:27:39Z</time></trkpt><trkpt lat="44.94656885624997" lon="9.942835157208524"><ele>57.0</ele><time>2026-04-11T11:27:40Z</time></trkpt><trkpt lat="44.94645287078783" lon="9.943112016155032"><ele>57.0</ele><time>2026-04-11T11:27:41Z</time></trkpt><trkpt lat="44.94633424637093" lon="9.943390483295593"><ele>55.0</ele><time>2026-04-11T11:27:42Z</time></trkpt><trkpt lat="44.946216816929564" lon="9.94366931943257"><ele>53.0</ele><time>2026-04-11T11:27:43Z</time></trkpt><trkpt lat="44.946093384691196" lon="9.943958522112334"><ele>53.0</ele><time>2026-04-11T11:27:44Z</time></trkpt><trkpt lat="44.945965005499694" lon="9.944256201625691"><ele>53.0</ele><time>2026-04-11T11:27:45Z</time></trkpt><trkpt lat="44.945835609916195" lon="9.94455879397103"><ele>53.0</ele><time>2026-04-11T11:27:46Z</time></trkpt><trkpt lat="44.94570089756569" lon="9.944870656773368"><ele>53.0</ele><time>2026-04-11T11:27:47Z</time></trkpt><trkpt lat="44.945565541774904" lon="9.94518348814542"><ele>53.0</ele><time>2026-04-11T11:27:48Z</time></trkpt><trkpt lat="44.94543070668976" lon="9.945498375304762"><ele>53.0</ele><time>2026-04-11T11:27:49Z</time></trkpt><trkpt lat="44.94529677954092" lon="9.945813930485144"><ele>53.5</ele><time>2026-04-11T11:27:50Z</time></trkpt><trkpt lat="44.945159641540855" lon="9.946131102218466"><ele>54.0</ele><time>2026-04-11T11:27:51Z</time></trkpt><trkpt lat="44.94502636118179" lon="9.946443011361707"><ele>54.5</ele><time>2026-04-11T11:27:52Z</time></trkpt><trkpt lat="44.94489095117097" lon="9.94675761943177"><ele>55.0</ele><time>2026-04-11T11:27:53Z</time></trkpt><trkpt lat="44.944758559863445" lon="9.947069093287494"><ele>55.0</ele><time>2026-04-11T11:27:54Z</time></trkpt><trkpt lat="44.94462399140499" lon="9.947385515739247"><ele>55.0</ele><time>2026-04-11T11:27:55Z</time></trkpt><trkpt lat="44.944488294572054" lon="9.94770253953158"><ele>55.0</ele><time>2026-04-11T11:27:56Z</time></trkpt><trkpt lat="44.944355816679106" lon="9.948011846089857"><ele>55.0</ele><time>2026-04-11T11:27:57.001Z</time></trkpt><trkpt lat="44.94422348581537" lon="9.948325108197263"><ele>54.0</ele><time>2026-04-11T11:27:58.001Z</time></trkpt><trkpt lat="44.944090461588054" lon="9.948645264314974"><ele>53.0</ele><time>2026-04-11T11:27:59.001Z</time></trkpt><trkpt lat="44.94395758103363" lon="9.948958203518686"><ele>52.5</ele><time>2026-04-11T11:28:00.001Z</time></trkpt><trkpt lat="44.94382459158921" lon="9.94927032289831"><ele>52.0</ele><time>2026-04-11T11:28:01.001Z</time></trkpt><trkpt lat="44.943692710447934" lon="9.949586396059063"><ele>52.0</ele><time>2026-04-11T11:28:02.001Z</time></trkpt><trkpt lat="44.94355955953526" lon="9.949901641663208"><ele>52.0</ele><time>2026-04-11T11:28:03.001Z</time></trkpt><trkpt lat="44.943425829974764" lon="9.95021669319585"><ele>52.0</ele><time>2026-04-11T11:28:04.001Z</time></trkpt><trkpt lat="44.943291782195786" lon="9.95052869039477"><ele>52.0</ele><time>2026-04-11T11:28:05.001Z</time></trkpt><trkpt lat="44.94315739883951" lon="9.950841227995333"><ele>52.0</ele><time>2026-04-11T11:28:06.001Z</time></trkpt><trkpt lat="44.94302166026018" lon="9.951156859523888"><ele>52.0</ele><time>2026-04-11T11:28:07.001Z</time></trkpt><trkpt lat="44.942885543006106" lon="9.951469760691596"><ele>52.0</ele><time>2026-04-11T11:28:08.001Z</time></trkpt><trkpt lat="44.94274996131519" lon="9.951782791721646"><ele>52.0</ele><time>2026-04-11T11:28:09.001Z</time></trkpt><trkpt lat="44.94261405452815" lon="9.952093731722911"><ele>53.0</ele><time>2026-04-11T11:28:10.001Z</time></trkpt><trkpt lat="44.94247827925866" lon="9.952405078245246"><ele>54.0</ele><time>2026-04-11T11:28:11.001Z</time></trkpt><trkpt lat="44.94234338313049" lon="9.952718921949382"><ele>54.0</ele><time>2026-04-11T11:28:12.001Z</time></trkpt><trkpt lat="44.94220993126449" lon="9.953029331199495"><ele>54.0</ele><time>2026-04-11T11:28:13.001Z</time></trkpt><trkpt lat="44.94207770461626" lon="9.953343463382215"><ele>53.0</ele><time>2026-04-11T11:28:14.001Z</time></trkpt><trkpt lat="44.94194574971353" lon="9.953656809881839"><ele>52.0</ele><time>2026-04-11T11:28:15.001Z</time></trkpt><trkpt lat="44.94181234927118" lon="9.953970892447282"><ele>51.5</ele><time>2026-04-11T11:28:16.001Z</time></trkpt><trkpt lat="44.94168083643504" lon="9.95428246214766"><ele>51.0</ele><time>2026-04-11T11:28:17.001Z</time></trkpt><trkpt lat="44.9415504967529" lon="9.954591728635751"><ele>51.0</ele><time>2026-04-11T11:28:18.001Z</time></trkpt><trkpt lat="44.941416945710365" lon="9.9549018821264"><ele>51.0</ele><time>2026-04-11T11:28:19.001Z</time></trkpt><trkpt lat="44.94128299959131" lon="9.955213317467157"><ele>51.5</ele><time>2026-04-11T11:28:20.001Z</time></trkpt><trkpt lat="44.94115048664995" lon="9.955525555788984"><ele>52.0</ele><time>2026-04-11T11:28:21.001Z</time></trkpt><trkpt lat="44.941016438867756" lon="9.955838791516449"><ele>52.0</ele><time>2026-04-11T11:28:22.001Z</time></trkpt><trkpt lat="44.94088389596996" lon="9.956152663858639"><ele>52.0</ele><time>2026-04-11T11:28:23.001Z</time></trkpt><trkpt lat="44.9407507050775" lon="9.956470323133523"><ele>51.5</ele><time>2026-04-11T11:28:24.001Z</time></trkpt><trkpt lat="44.94061657000156" lon="9.956787020285534"><ele>51.0</ele><time>2026-04-11T11:28:25.001Z</time></trkpt><trkpt lat="44.94048166528838" lon="9.95710184804055"><ele>51.0</ele><time>2026-04-11T11:28:26.001Z</time></trkpt><trkpt lat="44.940346745163914" lon="9.957417366553669"><ele>51.0</ele><time>2026-04-11T11:28:27.001Z</time></trkpt><trkpt lat="44.94021296553309" lon="9.957734859638636"><ele>51.0</ele><time>2026-04-11T11:28:28.001Z</time></trkpt><trkpt lat="44.94007975429478" lon="9.958050131459695"><ele>51.0</ele><time>2026-04-11T11:28:29.001Z</time></trkpt><trkpt lat="44.93994387421262" lon="9.958367873080617"><ele>52.5</ele><time>2026-04-11T11:28:30.001Z</time></trkpt><trkpt lat="44.939809228992566" lon="9.958686911191418"><ele>54.0</ele><time>2026-04-11T11:28:31.001Z</time></trkpt><trkpt lat="44.93967433465566" lon="9.959001008752306"><ele>52.5</ele><time>2026-04-11T11:28:32.001Z</time></trkpt><trkpt lat="44.93953744118415" lon="9.959318598650915"><ele>51.0</ele><time>2026-04-11T11:28:33.001Z</time></trkpt><trkpt lat="44.93939885109421" lon="9.959626636840612"><ele>51.0</ele><time>2026-04-11T11:28:34.001Z</time></trkpt><trkpt lat="44.93925863708581" lon="9.95993462102069"><ele>51.0</ele><time>2026-04-11T11:28:35Z</time></trkpt><trkpt lat="44.93911726555438" lon="9.960240983712728"><ele>51.0</ele><time>2026-04-11T11:28:36Z</time></trkpt><trkpt lat="44.93897615858949" lon="9.960544776397157"><ele>51.0</ele><time>2026-04-11T11:28:37Z</time></trkpt><trkpt lat="44.93883532085371" lon="9.960853897517964"><ele>49.5</ele><time>2026-04-11T11:28:38Z</time></trkpt><trkpt lat="44.93869618340468" lon="9.961158352636229"><ele>48.0</ele><time>2026-04-11T11:28:39Z</time></trkpt><trkpt lat="44.9385558591491" lon="9.961463501442724"><ele>48.0</ele><time>2026-04-11T11:28:40Z</time></trkpt><trkpt lat="44.93841274845763" lon="9.961764843173793"><ele>48.0</ele><time>2026-04-11T11:28:41Z</time></trkpt><trkpt lat="44.938267202467436" lon="9.962065593046662"><ele>48.0</ele><time>2026-04-11T11:28:42Z</time></trkpt><trkpt lat="44.938121154480896" lon="9.962366584182492"><ele>48.0</ele><time>2026-04-11T11:28:43Z</time></trkpt><trkpt lat="44.93797446096164" lon="9.96266616623507"><ele>48.5</ele><time>2026-04-11T11:28:44Z</time></trkpt><trkpt lat="44.93782593492119" lon="9.96297209679151"><ele>49.0</ele><time>2026-04-11T11:28:45Z</time></trkpt><trkpt lat="44.93768130494904" lon="9.963272180834233"><ele>49.5</ele><time>2026-04-11T11:28:46Z</time></trkpt><trkpt lat="44.93753579257492" lon="9.963575931472539"><ele>50.0</ele><time>2026-04-11T11:28:47Z</time></trkpt><trkpt lat="44.93738922134388" lon="9.963875807845314"><ele>50.0</ele><time>2026-04-11T11:28:48Z</time></trkpt><trkpt lat="44.93724368957679" lon="9.964176318843515"><ele>50.0</ele><time>2026-04-11T11:28:49Z</time></trkpt><trkpt lat="44.937097602653665" lon="9.964479169987463"><ele>50.0</ele><time>2026-04-11T11:28:50Z</time></trkpt><trkpt lat="44.93695298270599" lon="9.96477935156827"><ele>50.0</ele><time>2026-04-11T11:28:51Z</time></trkpt><trkpt lat="44.936806647730926" lon="9.965076738539508"><ele>49.0</ele><time>2026-04-11T11:28:52Z</time></trkpt><trkpt lat="44.93666020813108" lon="9.965372318286283"><ele>48.0</ele><time>2026-04-11T11:28:53Z</time></trkpt><trkpt lat="44.93651628815461" lon="9.965666542820815"><ele>47.5</ele><time>2026-04-11T11:28:54Z</time></trkpt><trkpt lat="44.93636844897614" lon="9.965967904611542"><ele>47.0</ele><time>2026-04-11T11:28:55Z</time></trkpt><trkpt lat="44.93622071247476" lon="9.966264107197995"><ele>47.0</ele><time>2026-04-11T11:28:56Z</time></trkpt><trkpt lat="44.93607283819342" lon="9.966563962457167"><ele>47.0</ele><time>2026-04-11T11:28:57Z</time></trkpt><trkpt lat="44.93592738005124" lon="9.966868729333196"><ele>47.5</ele><time>2026-04-11T11:28:58Z</time></trkpt><trkpt lat="44.93578030642389" lon="9.967172697735066"><ele>48.0</ele><time>2026-04-11T11:28:59Z</time></trkpt><trkpt lat="44.93562869322794" lon="9.96747456157228"><ele>47.5</ele><time>2026-04-11T11:29:00Z</time></trkpt><trkpt lat="44.935475103552726" lon="9.96777457934903"><ele>47.0</ele><time>2026-04-11T11:29:01Z</time></trkpt><trkpt lat="44.93532130960487" lon="9.96807164149823"><ele>47.5</ele><time>2026-04-11T11:29:02Z</time></trkpt><trkpt lat="44.935164686637194" lon="9.968372707889442"><ele>48.0</ele><time>2026-04-11T11:29:03Z</time></trkpt><trkpt lat="44.935011310739306" lon="9.968671875354563"><ele>48.5</ele><time>2026-04-11T11:29:04Z</time></trkpt><trkpt lat="44.93486048605279" lon="9.968972429688018"><ele>49.0</ele><time>2026-04-11T11:29:05Z</time></trkpt><trkpt lat="44.93471275447415" lon="9.96926984788104"><ele>47.5</ele><time>2026-04-11T11:29:06Z</time></trkpt><trkpt lat="44.9345639173879" lon="9.96956969238178"><ele>46.0</ele><time>2026-04-11T11:29:07Z</time></trkpt><trkpt lat="44.934418579175855" lon="9.969866631456851"><ele>45.5</ele><time>2026-04-11T11:29:08Z</time></trkpt><trkpt lat="44.93427204532776" lon="9.970167033520953"><ele>45.0</ele><time>2026-04-11T11:29:09Z</time></trkpt><trkpt lat="44.93412775252917" lon="9.970461888739992"><ele>45.5</ele><time>2026-04-11T11:29:10Z</time></trkpt><trkpt lat="44.93398129273718" lon="9.970761155936081"><ele>46.0</ele><time>2026-04-11T11:29:11Z</time></trkpt><trkpt lat="44.93383636076441" lon="9.971058202441109"><ele>46.0</ele><time>2026-04-11T11:29:12Z</time></trkpt><trkpt lat="44.93369041901624" lon="9.971356099864172"><ele>46.0</ele><time>2026-04-11T11:29:13Z</time></trkpt><trkpt lat="44.933543033119555" lon="9.971656155655836"><ele>46.5</ele><time>2026-04-11T11:29:14Z</time></trkpt><trkpt lat="44.93339631638651" lon="9.97195934514697"><ele>47.0</ele><time>2026-04-11T11:29:15Z</time></trkpt><trkpt lat="44.93325195168839" lon="9.972256603163817"><ele>47.5</ele><time>2026-04-11T11:29:16Z</time></trkpt><trkpt lat="44.93310473193621" lon="9.972556943578567"><ele>48.0</ele><time>2026-04-11T11:29:17Z</time></trkpt><trkpt lat="44.93296020823619" lon="9.972855052124636"><ele>48.0</ele><time>2026-04-11T11:29:18Z</time></trkpt><trkpt lat="44.93281583274597" lon="9.973155910285891"><ele>48.0</ele><time>2026-04-11T11:29:19Z</time></trkpt><trkpt lat="44.93267112918448" lon="9.973454807036559"><ele>49.5</ele><time>2026-04-11T11:29:20Z</time></trkpt><trkpt lat="44.932525724275536" lon="9.973757028688969"><ele>51.0</ele><time>2026-04-11T11:29:21Z</time></trkpt><trkpt lat="44.93238054772711" lon="9.974057291013873"><ele>50.0</ele><time>2026-04-11T11:29:22Z</time></trkpt><trkpt lat="44.93223193586905" lon="9.974358827414852"><ele>49.0</ele><time>2026-04-11T11:29:23Z</time></trkpt><trkpt lat="44.932085790035266" lon="9.974654893440517"><ele>49.0</ele><time>2026-04-11T11:29:24.001Z</time></trkpt><trkpt lat="44.93193587527594" lon="9.974955116883297"><ele>49.0</ele><time>2026-04-11T11:29:25.001Z</time></trkpt><trkpt lat="44.93178805975915" lon="9.97525455185859"><ele>49.0</ele><time>2026-04-11T11:29:26.001Z</time></trkpt><trkpt lat="44.93164074905847" lon="9.97555294208178"><ele>49.0</ele><time>2026-04-11T11:29:27.001Z</time></trkpt><trkpt lat="44.93149588513427" lon="9.975855281985742"><ele>49.0</ele><time>2026-04-11T11:29:28.001Z</time></trkpt><trkpt lat="44.931352521712206" lon="9.976159491028612"><ele>49.0</ele><time>2026-04-11T11:29:29.001Z</time></trkpt><trkpt lat="44.93120533411188" lon="9.97646285964185"><ele>49.0</ele><time>2026-04-11T11:29:30.001Z</time></trkpt><trkpt lat="44.9310593518129" lon="9.976764461083203"><ele>49.0</ele><time>2026-04-11T11:29:31.001Z</time></trkpt><trkpt lat="44.93090938925912" lon="9.977067492763238"><ele>49.5</ele><time>2026-04-11T11:29:32.001Z</time></trkpt><trkpt lat="44.93076117211589" lon="9.977368828141225"><ele>50.0</ele><time>2026-04-11T11:29:33.001Z</time></trkpt><trkpt lat="44.93061225365476" lon="9.977671269189939"><ele>50.0</ele><time>2026-04-11T11:29:34.001Z</time></trkpt><trkpt lat="44.930467097962016" lon="9.97797219658642"><ele>50.0</ele><time>2026-04-11T11:29:35.001Z</time></trkpt><trkpt lat="44.930320132260256" lon="9.978276049828487"><ele>49.5</ele><time>2026-04-11T11:29:36.001Z</time></trkpt><trkpt lat="44.93017146745596" lon="9.978579793239257"><ele>49.0</ele><time>2026-04-11T11:29:37.001Z</time></trkpt><trkpt lat="44.93002497647209" lon="9.978883027284802"><ele>50.0</ele><time>2026-04-11T11:29:38.001Z</time></trkpt><trkpt lat="44.92988113520498" lon="9.979183514987454"><ele>51.0</ele><time>2026-04-11T11:29:39.001Z</time></trkpt><trkpt lat="44.92973407055588" lon="9.979486024008"><ele>51.0</ele><time>2026-04-11T11:29:40.001Z</time></trkpt><trkpt lat="44.92958666794818" lon="9.979787428397389"><ele>51.0</ele><time>2026-04-11T11:29:41.001Z</time></trkpt><trkpt lat="44.9294354745201" lon="9.980087951183672"><ele>50.5</ele><time>2026-04-11T11:29:42.001Z</time></trkpt><trkpt lat="44.92928776279994" lon="9.980389105606084"><ele>50.0</ele><time>2026-04-11T11:29:43.001Z</time></trkpt><trkpt lat="44.92913843226736" lon="9.980692206059487"><ele>49.5</ele><time>2026-04-11T11:29:44.001Z</time></trkpt><trkpt lat="44.928988774806555" lon="9.980995831631724"><ele>49.0</ele><time>2026-04-11T11:29:45.001Z</time></trkpt><trkpt lat="44.928844304596105" lon="9.981299883136366"><ele>49.0</ele><time>2026-04-11T11:29:46.001Z</time></trkpt><trkpt lat="44.9286987498661" lon="9.9816029780722"><ele>49.0</ele><time>2026-04-11T11:29:47.001Z</time></trkpt><trkpt lat="44.928553597582166" lon="9.981906461820964"><ele>49.0</ele><time>2026-04-11T11:29:48.001Z</time></trkpt><trkpt lat="44.928408035667594" lon="9.982206342130482"><ele>49.0</ele><time>2026-04-11T11:29:49.001Z</time></trkpt><trkpt lat="44.92826142209819" lon="9.982505861910216"><ele>48.5</ele><time>2026-04-11T11:29:50.001Z</time></trkpt><trkpt lat="44.928113110082656" lon="9.982807595165195"><ele>48.0</ele><time>2026-04-11T11:29:51.001Z</time></trkpt><trkpt lat="44.92796843118635" lon="9.983106522568452"><ele>48.5</ele><time>2026-04-11T11:29:52.001Z</time></trkpt><trkpt lat="44.927821094746164" lon="9.983411389151355"><ele>49.0</ele><time>2026-04-11T11:29:53.001Z</time></trkpt><trkpt lat="44.9276768588882" lon="9.983715567170966"><ele>49.0</ele><time>2026-04-11T11:29:54.001Z</time></trkpt><trkpt lat="44.927532855873366" lon="9.984017915228131"><ele>49.0</ele><time>2026-04-11T11:29:55.001Z</time></trkpt><trkpt lat="44.927385451253386" lon="9.984319030270038"><ele>49.0</ele><time>2026-04-11T11:29:56.001Z</time></trkpt><trkpt lat="44.927238832143786" lon="9.984617588050838"><ele>49.0</ele><time>2026-04-11T11:29:57.001Z</time></trkpt><trkpt lat="44.92708938037355" lon="9.984917449831352"><ele>49.0</ele><time>2026-04-11T11:29:58.001Z</time></trkpt><trkpt lat="44.92694092518864" lon="9.985216042735496"><ele>49.0</ele><time>2026-04-11T11:29:59.001Z</time></trkpt><trkpt lat="44.92679160119316" lon="9.985516162853683"><ele>49.0</ele><time>2026-04-11T11:30:00.001Z</time></trkpt><trkpt lat="44.92664462382622" lon="9.985815840656107"><ele>49.0</ele><time>2026-04-11T11:30:01.001Z</time></trkpt><trkpt lat="44.9264959508669" lon="9.986117027321832"><ele>49.0</ele><time>2026-04-11T11:30:02.001Z</time></trkpt><trkpt lat="44.92634558038733" lon="9.986416907071815"><ele>49.0</ele><time>2026-04-11T11:30:03.001Z</time></trkpt><trkpt lat="44.926198045207805" lon="9.986716994416131"><ele>49.0</ele><time>2026-04-11T11:30:04.001Z</time></trkpt><trkpt lat="44.92605122090745" lon="9.98701663035232"><ele>49.0</ele><time>2026-04-11T11:30:05.001Z</time></trkpt><trkpt lat="44.925904189433965" lon="9.987318348912899"><ele>50.0</ele><time>2026-04-11T11:30:06.001Z</time></trkpt><trkpt lat="44.925756784848105" lon="9.987621017842542"><ele>51.0</ele><time>2026-04-11T11:30:07.001Z</time></trkpt><trkpt lat="44.9256089380808" lon="9.987923232942116"><ele>51.0</ele><time>2026-04-11T11:30:08.001Z</time></trkpt><trkpt lat="44.92546375571429" lon="9.988227368651247"><ele>51.0</ele><time>2026-04-11T11:30:09.001Z</time></trkpt><trkpt lat="44.92531640515142" lon="9.988532570917371"><ele>51.0</ele><time>2026-04-11T11:30:10.001Z</time></trkpt><trkpt lat="44.925170018766096" lon="9.988834641207609"><ele>51.0</ele><time>2026-04-11T11:30:11.001Z</time></trkpt><trkpt lat="44.925020433707786" lon="9.989138566664696"><ele>50.0</ele><time>2026-04-11T11:30:12.001Z</time></trkpt><trkpt lat="44.924872003356725" lon="9.989440331850295"><ele>49.0</ele><time>2026-04-11T11:30:13.001Z</time></trkpt><trkpt lat="44.92472534363097" lon="9.989739341163256"><ele>50.0</ele><time>2026-04-11T11:30:14.001Z</time></trkpt><trkpt lat="44.92457517613958" lon="9.990040465545606"><ele>51.0</ele><time>2026-04-11T11:30:15.001Z</time></trkpt><trkpt lat="44.92442687369647" lon="9.990341694853731"><ele>51.0</ele><time>2026-04-11T11:30:16.001Z</time></trkpt><trkpt lat="44.92428253029715" lon="9.990644045356364"><ele>51.0</ele><time>2026-04-11T11:30:17.001Z</time></trkpt><trkpt lat="44.92413784857499" lon="9.990945350807204"><ele>51.0</ele><time>2026-04-11T11:30:18.001Z</time></trkpt><trkpt lat="44.923987545377834" lon="9.991247453219504"><ele>51.0</ele><time>2026-04-11T11:30:19.001Z</time></trkpt><trkpt lat="44.923839949606716" lon="9.991548772342115"><ele>51.0</ele><time>2026-04-11T11:30:20.001Z</time></trkpt><trkpt lat="44.92369431698386" lon="9.991848915885074"><ele>51.0</ele><time>2026-04-11T11:30:21.001Z</time></trkpt><trkpt lat="44.92354776444291" lon="9.992150664099675"><ele>51.0</ele><time>2026-04-11T11:30:22.001Z</time></trkpt><trkpt lat="44.923404248376386" lon="9.992450450537207"><ele>51.0</ele><time>2026-04-11T11:30:23.001Z</time></trkpt><trkpt lat="44.92326005668525" lon="9.992750588912237"><ele>51.0</ele><time>2026-04-11T11:30:24.001Z</time></trkpt><trkpt lat="44.9231147309377" lon="9.993050815486015"><ele>51.0</ele><time>2026-04-11T11:30:25.001Z</time></trkpt><trkpt lat="44.922969424124354" lon="9.993350889938172"><ele>51.5</ele><time>2026-04-11T11:30:26.001Z</time></trkpt><trkpt lat="44.92282498637258" lon="9.993650695401382"><ele>52.0</ele><time>2026-04-11T11:30:27.001Z</time></trkpt><trkpt lat="44.92268039851929" lon="9.993948471109736"><ele>53.0</ele><time>2026-04-11T11:30:28.001Z</time></trkpt><trkpt lat="44.922532982128764" lon="9.99424564198537"><ele>54.0</ele><time>2026-04-11T11:30:29.001Z</time></trkpt><trkpt lat="44.92238360384708" lon="9.994542927271775"><ele>54.0</ele><time>2026-04-11T11:30:30.001Z</time></trkpt><trkpt lat="44.92223415000488" lon="9.994843193125899"><ele>54.0</ele><time>2026-04-11T11:30:31.001Z</time></trkpt><trkpt lat="44.92208699324704" lon="9.995145347643794"><ele>54.0</ele><time>2026-04-11T11:30:32.001Z</time></trkpt><trkpt lat="44.92194071182672" lon="9.995447174929941"><ele>54.0</ele><time>2026-04-11T11:30:33.001Z</time></trkpt><trkpt lat="44.92179223820643" lon="9.99575162909558"><ele>54.5</ele><time>2026-04-11T11:30:34.002Z</time></trkpt><trkpt lat="44.92164831057436" lon="9.996054739183426"><ele>55.0</ele><time>2026-04-11T11:30:35.002Z</time></trkpt><trkpt lat="44.92150880007221" lon="9.996349283066808"><ele>55.0</ele><time>2026-04-11T11:30:36.002Z</time></trkpt><trkpt lat="44.92137076345237" lon="9.996634973006472"><ele>55.0</ele><time>2026-04-11T11:30:37.002Z</time></trkpt><trkpt lat="44.921229644714955" lon="9.996920400886534"><ele>53.5</ele><time>2026-04-11T11:30:38.002Z</time></trkpt><trkpt lat="44.921088695458415" lon="9.997203297865852"><ele>52.0</ele><time>2026-04-11T11:30:39.002Z</time></trkpt><trkpt lat="44.920948596113725" lon="9.997487060505302"><ele>53.0</ele><time>2026-04-11T11:30:40.002Z</time></trkpt><trkpt lat="44.920808496073306" lon="9.997773791947639"><ele>54.0</ele><time>2026-04-11T11:30:41.001Z</time></trkpt><trkpt lat="44.920669285718134" lon="9.998057485836753"><ele>53.5</ele><time>2026-04-11T11:30:42.001Z</time></trkpt><trkpt lat="44.920528195106755" lon="9.998344562501282"><ele>53.0</ele><time>2026-04-11T11:30:43.001Z</time></trkpt><trkpt lat="44.92038708401734" lon="9.998630039867388"><ele>53.0</ele><time>2026-04-11T11:30:44.001Z</time></trkpt><trkpt lat="44.92024811584515" lon="9.998917102809589"><ele>53.0</ele><time>2026-04-11T11:30:45.001Z</time></trkpt><trkpt lat="44.92010917110902" lon="9.99920663424247"><ele>54.5</ele><time>2026-04-11T11:30:46.001Z</time></trkpt><trkpt lat="44.91996862886614" lon="9.999496494402477"><ele>56.0</ele><time>2026-04-11T11:30:47.001Z</time></trkpt><trkpt lat="44.91982831467413" lon="9.999783078963413"><ele>56.0</ele><time>2026-04-11T11:30:48.001Z</time></trkpt><trkpt lat="44.91968684544623" lon="10.00006995889383"><ele>56.0</ele><time>2026-04-11T11:30:49.001Z</time></trkpt><trkpt lat="44.91954490898485" lon="10.000356110731053"><ele>56.0</ele><time>2026-04-11T11:30:50.001Z</time></trkpt><trkpt lat="44.91940359512823" lon="10.00064315992969"><ele>56.0</ele><time>2026-04-11T11:30:51.001Z</time></trkpt><trkpt lat="44.91926334176145" lon="10.000929312243391"><ele>54.0</ele><time>2026-04-11T11:30:52.001Z</time></trkpt><trkpt lat="44.919123815701816" lon="10.001219417863187"><ele>52.0</ele><time>2026-04-11T11:30:53.001Z</time></trkpt><trkpt lat="44.91898383000205" lon="10.001512177651854"><ele>52.0</ele><time>2026-04-11T11:30:54.001Z</time></trkpt><trkpt lat="44.918846441007695" lon="10.001801409557057"><ele>52.0</ele><time>2026-04-11T11:30:55.001Z</time></trkpt><trkpt lat="44.91870577624785" lon="10.002090435487018"><ele>52.0</ele><time>2026-04-11T11:30:56.001Z</time></trkpt><trkpt lat="44.918563726819144" lon="10.00237737123472"><ele>52.0</ele><time>2026-04-11T11:30:57.001Z</time></trkpt><trkpt lat="44.91842210447518" lon="10.002663205472055"><ele>53.0</ele><time>2026-04-11T11:30:58.001Z</time></trkpt><trkpt lat="44.91828138911668" lon="10.002945838224715"><ele>54.0</ele><time>2026-04-11T11:30:59.001Z</time></trkpt><trkpt lat="44.91814119793622" lon="10.003228824570723"><ele>53.5</ele><time>2026-04-11T11:31:00.001Z</time></trkpt><trkpt lat="44.91800179316596" lon="10.003515580017988"><ele>53.0</ele><time>2026-04-11T11:31:01.001Z</time></trkpt><trkpt lat="44.91786484535451" lon="10.003803572462997"><ele>53.0</ele><time>2026-04-11T11:31:02.001Z</time></trkpt><trkpt lat="44.91773506251086" lon="10.004076734390331"><ele>53.0</ele><time>2026-04-11T11:31:03.001Z</time></trkpt><trkpt lat="44.91760388968951" lon="10.00433891812814"><ele>54.5</ele><time>2026-04-11T11:31:04.001Z</time></trkpt><trkpt lat="44.91747098217584" lon="10.004616635484172"><ele>56.0</ele><time>2026-04-11T11:31:05.001Z</time></trkpt><trkpt lat="44.917337489359184" lon="10.004883196320401"><ele>55.5</ele><time>2026-04-11T11:31:06.001Z</time></trkpt><trkpt lat="44.917201699240096" lon="10.005150627600775"><ele>55.0</ele><time>2026-04-11T11:31:07.001Z</time></trkpt><trkpt lat="44.91706930438402" lon="10.00541949991962"><ele>55.0</ele><time>2026-04-11T11:31:08.001Z</time></trkpt><trkpt lat="44.91694315751086" lon="10.00569088332965"><ele>55.0</ele><time>2026-04-11T11:31:09.001Z</time></trkpt><trkpt lat="44.916813508831495" lon="10.005970136999771"><ele>56.0</ele><time>2026-04-11T11:31:10.001Z</time></trkpt><trkpt lat="44.91668294438933" lon="10.006247497406594"><ele>57.0</ele><time>2026-04-11T11:31:11.001Z</time></trkpt><trkpt lat="44.916548627037336" lon="10.006524530403526"><ele>56.5</ele><time>2026-04-11T11:31:12.001Z</time></trkpt><trkpt lat="44.91641359023606" lon="10.006799923525351"><ele>56.0</ele><time>2026-04-11T11:31:13.001Z</time></trkpt><trkpt lat="44.91627733591992" lon="10.007076025207224"><ele>56.0</ele><time>2026-04-11T11:31:14.001Z</time></trkpt><trkpt lat="44.916142877056494" lon="10.007347505432557"><ele>56.0</ele><time>2026-04-11T11:31:15.001Z</time></trkpt><trkpt lat="44.91600464658196" lon="10.007626159111544"><ele>56.5</ele><time>2026-04-11T11:31:16.001Z</time></trkpt><trkpt lat="44.91587085194276" lon="10.007898864947013"><ele>57.0</ele><time>2026-04-11T11:31:17.001Z</time></trkpt><trkpt lat="44.91573601707519" lon="10.008177375795537"><ele>56.0</ele><time>2026-04-11T11:31:18.001Z</time></trkpt><trkpt lat="44.915602536971576" lon="10.008452557142565"><ele>55.0</ele><time>2026-04-11T11:31:19.001Z</time></trkpt><trkpt lat="44.9154668371977" lon="10.00872600744269"><ele>55.0</ele><time>2026-04-11T11:31:20.001Z</time></trkpt><trkpt lat="44.91533034645307" lon="10.009003140208048"><ele>55.0</ele><time>2026-04-11T11:31:21.001Z</time></trkpt><trkpt lat="44.915195409791615" lon="10.009277498367174"><ele>55.5</ele><time>2026-04-11T11:31:22.001Z</time></trkpt><trkpt lat="44.91506101392434" lon="10.009555955802565"><ele>56.0</ele><time>2026-04-11T11:31:23.001Z</time></trkpt><trkpt lat="44.914926249779676" lon="10.009832753476497"><ele>55.0</ele><time>2026-04-11T11:31:24.001Z</time></trkpt><trkpt lat="44.91479249800814" lon="10.010106656501224"><ele>54.0</ele><time>2026-04-11T11:31:25.001Z</time></trkpt><trkpt lat="44.914659479826554" lon="10.010378951934053"><ele>54.0</ele><time>2026-04-11T11:31:26.001Z</time></trkpt><trkpt lat="44.91452575818861" lon="10.010654116754836"><ele>54.0</ele><time>2026-04-11T11:31:27.001Z</time></trkpt><trkpt lat="44.91439097500211" lon="10.01093243810328"><ele>54.5</ele><time>2026-04-11T11:31:28.001Z</time></trkpt><trkpt lat="44.91425709647337" lon="10.011207409542275"><ele>55.0</ele><time>2026-04-11T11:31:29.001Z</time></trkpt><trkpt lat="44.91412328434498" lon="10.01148308623658"><ele>56.0</ele><time>2026-04-11T11:31:30.001Z</time></trkpt><trkpt lat="44.91398934979585" lon="10.01175835883349"><ele>57.0</ele><time>2026-04-11T11:31:31.001Z</time></trkpt><trkpt lat="44.91385437535741" lon="10.012035744395977"><ele>57.0</ele><time>2026-04-11T11:31:32.001Z</time></trkpt><trkpt lat="44.913722401876164" lon="10.012309156404978"><ele>57.0</ele><time>2026-04-11T11:31:33.001Z</time></trkpt><trkpt lat="44.91358810672534" lon="10.012584930192324"><ele>56.5</ele><time>2026-04-11T11:31:34.001Z</time></trkpt><trkpt lat="44.91345389282016" lon="10.012859455687325"><ele>56.0</ele><time>2026-04-11T11:31:35.001Z</time></trkpt><trkpt lat="44.91331699475507" lon="10.013135348560926"><ele>56.0</ele><time>2026-04-11T11:31:36.001Z</time></trkpt><trkpt lat="44.9131812711571" lon="10.01340976364666"><ele>56.0</ele><time>2026-04-11T11:31:37.001Z</time></trkpt><trkpt lat="44.91304751685077" lon="10.013681270348332"><ele>56.0</ele><time>2026-04-11T11:31:38.001Z</time></trkpt><trkpt lat="44.91290997506901" lon="10.013954510625542"><ele>56.0</ele><time>2026-04-11T11:31:39.001Z</time></trkpt><trkpt lat="44.912775156681434" lon="10.01422927358407"><ele>56.0</ele><time>2026-04-11T11:31:40Z</time></trkpt><trkpt lat="44.91264476526136" lon="10.01450271663473"><ele>56.0</ele><time>2026-04-11T11:31:41Z</time></trkpt><trkpt lat="44.912514184376825" lon="10.014774099477053"><ele>56.0</ele><time>2026-04-11T11:31:42Z</time></trkpt><trkpt lat="44.91237732875312" lon="10.015052543698388"><ele>56.0</ele><time>2026-04-11T11:31:43Z</time></trkpt><trkpt lat="44.9122444523931" lon="10.015325803341668"><ele>56.0</ele><time>2026-04-11T11:31:44Z</time></trkpt><trkpt lat="44.912112361882514" lon="10.015597965859792"><ele>56.0</ele><time>2026-04-11T11:31:45Z</time></trkpt><trkpt lat="44.911979159520016" lon="10.015871324023797"><ele>55.5</ele><time>2026-04-11T11:31:46Z</time></trkpt><trkpt lat="44.91184749325561" lon="10.016144083427246"><ele>55.0</ele><time>2026-04-11T11:31:47Z</time></trkpt><trkpt lat="44.91171267367305" lon="10.016420672169026"><ele>55.5</ele><time>2026-04-11T11:31:48Z</time></trkpt><trkpt lat="44.911578187453955" lon="10.016696816682126"><ele>56.0</ele><time>2026-04-11T11:31:49.001Z</time></trkpt><trkpt lat="44.91144465488361" lon="10.016973541929262"><ele>56.0</ele><time>2026-04-11T11:31:50.001Z</time></trkpt><trkpt lat="44.91130491944076" lon="10.017254136538593"><ele>56.0</ele><time>2026-04-11T11:31:51.001Z</time></trkpt><trkpt lat="44.91118614924255" lon="10.017531380464646"><ele>55.0</ele><time>2026-04-11T11:31:52.001Z</time></trkpt><trkpt lat="44.911047940781444" lon="10.017821712715907"><ele>54.0</ele><time>2026-04-11T11:31:53.001Z</time></trkpt><trkpt lat="44.91090232240802" lon="10.018116181450438"><ele>56.0</ele><time>2026-04-11T11:31:54.001Z</time></trkpt><trkpt lat="44.9107539223209" lon="10.018421919277221"><ele>58.0</ele><time>2026-04-11T11:31:55.001Z</time></trkpt><trkpt lat="44.91059738012619" lon="10.018727618019033"><ele>58.0</ele><time>2026-04-11T11:31:56.001Z</time></trkpt><trkpt lat="44.91044241356942" lon="10.019030945142449"><ele>58.0</ele><time>2026-04-11T11:31:57.001Z</time></trkpt><trkpt lat="44.9102918591122" lon="10.019333260652909"><ele>57.0</ele><time>2026-04-11T11:31:58.001Z</time></trkpt><trkpt lat="44.910140507856966" lon="10.019641345891689"><ele>56.0</ele><time>2026-04-11T11:31:59.001Z</time></trkpt><trkpt lat="44.909994948954456" lon="10.019946776739406"><ele>56.5</ele><time>2026-04-11T11:32:00.001Z</time></trkpt><trkpt lat="44.90984912680655" lon="10.0202444994499"><ele>57.0</ele><time>2026-04-11T11:32:01.001Z</time></trkpt><trkpt lat="44.90970399385736" lon="10.020547551890052"><ele>56.5</ele><time>2026-04-11T11:32:02.001Z</time></trkpt><trkpt lat="44.90955945533567" lon="10.02084547629213"><ele>56.0</ele><time>2026-04-11T11:32:03.001Z</time></trkpt><trkpt lat="44.909415404065236" lon="10.021145974921065"><ele>56.0</ele><time>2026-04-11T11:32:04.001Z</time></trkpt><trkpt lat="44.90926752660447" lon="10.021442988541539"><ele>56.0</ele><time>2026-04-11T11:32:05.001Z</time></trkpt><trkpt lat="44.90912397305964" lon="10.021741459719399"><ele>56.5</ele><time>2026-04-11T11:32:06.001Z</time></trkpt><trkpt lat="44.908975326789886" lon="10.022043433667534"><ele>57.0</ele><time>2026-04-11T11:32:07.001Z</time></trkpt><trkpt lat="44.90882843394785" lon="10.022341865342963"><ele>57.5</ele><time>2026-04-11T11:32:08.001Z</time></trkpt><trkpt lat="44.90868299482346" lon="10.022640723390259"><ele>58.0</ele><time>2026-04-11T11:32:09.001Z</time></trkpt><trkpt lat="44.90853696211953" lon="10.022938495064944"><ele>57.5</ele><time>2026-04-11T11:32:10.001Z</time></trkpt><trkpt lat="44.90839158516369" lon="10.023241233359208"><ele>57.0</ele><time>2026-04-11T11:32:11.001Z</time></trkpt><trkpt lat="44.9082440533597" lon="10.023546629398474"><ele>56.5</ele><time>2026-04-11T11:32:12.001Z</time></trkpt><trkpt lat="44.90810078150473" lon="10.023851974692787"><ele>56.0</ele><time>2026-04-11T11:32:13.001Z</time></trkpt><trkpt lat="44.90795172477906" lon="10.024152825688986"><ele>55.5</ele><time>2026-04-11T11:32:14.001Z</time></trkpt><trkpt lat="44.90780595714083" lon="10.024450916607066"><ele>55.0</ele><time>2026-04-11T11:32:15.001Z</time></trkpt><trkpt lat="44.907660230553475" lon="10.024754880600021"><ele>55.0</ele><time>2026-04-11T11:32:16.001Z</time></trkpt><trkpt lat="44.907512424010356" lon="10.025054471723447"><ele>55.0</ele><time>2026-04-11T11:32:17.001Z</time></trkpt><trkpt lat="44.90736170760751" lon="10.025356565207911"><ele>55.0</ele><time>2026-04-11T11:32:18.001Z</time></trkpt><trkpt lat="44.90721464821096" lon="10.025656243683512"><ele>55.0</ele><time>2026-04-11T11:32:19.001Z</time></trkpt><trkpt lat="44.90706860916937" lon="10.025956691080228"><ele>56.0</ele><time>2026-04-11T11:32:20.001Z</time></trkpt><trkpt lat="44.90692026626197" lon="10.02626368919003"><ele>57.0</ele><time>2026-04-11T11:32:21.001Z</time></trkpt><trkpt lat="44.90677255149578" lon="10.026561057346695"><ele>55.5</ele><time>2026-04-11T11:32:22.001Z</time></trkpt><trkpt lat="44.90662887666774" lon="10.026866291117601"><ele>54.0</ele><time>2026-04-11T11:32:23.001Z</time></trkpt><trkpt lat="44.90648493076355" lon="10.027167690586959"><ele>54.0</ele><time>2026-04-11T11:32:24.001Z</time></trkpt><trkpt lat="44.90633647715854" lon="10.027475258166909"><ele>54.0</ele><time>2026-04-11T11:32:25.001Z</time></trkpt><trkpt lat="44.90618561740794" lon="10.027776405434686"><ele>55.5</ele><time>2026-04-11T11:32:26.001Z</time></trkpt><trkpt lat="44.90604262581318" lon="10.028077332990186"><ele>57.0</ele><time>2026-04-11T11:32:27.001Z</time></trkpt><trkpt lat="44.90589393155527" lon="10.028382274758611"><ele>57.0</ele><time>2026-04-11T11:32:28.001Z</time></trkpt><trkpt lat="44.90574516949894" lon="10.02868434342866"><ele>57.0</ele><time>2026-04-11T11:32:29.001Z</time></trkpt><trkpt lat="44.90560052590694" lon="10.028990294573745"><ele>55.5</ele><time>2026-04-11T11:32:30.001Z</time></trkpt><trkpt lat="44.905452283642205" lon="10.029292076180871"><ele>54.0</ele><time>2026-04-11T11:32:31.001Z</time></trkpt><trkpt lat="44.90530402790303" lon="10.02959648257146"><ele>54.0</ele><time>2026-04-11T11:32:32.001Z</time></trkpt><trkpt lat="44.90515505240636" lon="10.029899358965944"><ele>54.0</ele><time>2026-04-11T11:32:33.001Z</time></trkpt><trkpt lat="44.90501006627497" lon="10.030196998087394"><ele>54.5</ele><time>2026-04-11T11:32:34.001Z</time></trkpt><trkpt lat="44.904865330818744" lon="10.030499253814309"><ele>55.0</ele><time>2026-04-11T11:32:35.001Z</time></trkpt><trkpt lat="44.904716105338316" lon="10.030800804433202"><ele>55.5</ele><time>2026-04-11T11:32:36.001Z</time></trkpt><trkpt lat="44.904566797813615" lon="10.031101073955256"><ele>56.0</ele><time>2026-04-11T11:32:37.001Z</time></trkpt><trkpt lat="44.90442194510841" lon="10.031396792335089"><ele>55.5</ele><time>2026-04-11T11:32:38.001Z</time></trkpt><trkpt lat="44.9042754486047" lon="10.031696301764022"><ele>55.0</ele><time>2026-04-11T11:32:39.001Z</time></trkpt><trkpt lat="44.90413008902918" lon="10.031994956897677"><ele>55.5</ele><time>2026-04-11T11:32:40.001Z</time></trkpt><trkpt lat="44.90398250496729" lon="10.032294124869066"><ele>56.0</ele><time>2026-04-11T11:32:41.001Z</time></trkpt><trkpt lat="44.903834620688244" lon="10.032587124943925"><ele>56.0</ele><time>2026-04-11T11:32:42.001Z</time></trkpt><trkpt lat="44.90368862549555" lon="10.032882015371584"><ele>56.0</ele><time>2026-04-11T11:32:43.001Z</time></trkpt><trkpt lat="44.90354373758984" lon="10.033184699211338"><ele>56.5</ele><time>2026-04-11T11:32:44.001Z</time></trkpt><trkpt lat="44.90339671622395" lon="10.033490811622961"><ele>57.0</ele><time>2026-04-11T11:32:45.001Z</time></trkpt><trkpt lat="44.903251206080895" lon="10.033789308327808"><ele>57.0</ele><time>2026-04-11T11:32:46.001Z</time></trkpt><trkpt lat="44.90310255013372" lon="10.03408742232937"><ele>57.0</ele><time>2026-04-11T11:32:47.001Z</time></trkpt><trkpt lat="44.90295635160662" lon="10.034391067584169"><ele>57.0</ele><time>2026-04-11T11:32:48.001Z</time></trkpt><trkpt lat="44.90280975901145" lon="10.034691238786747"><ele>57.0</ele><time>2026-04-11T11:32:49.001Z</time></trkpt><trkpt lat="44.90266181740098" lon="10.034993257487624"><ele>57.0</ele><time>2026-04-11T11:32:50.001Z</time></trkpt><trkpt lat="44.902515677820396" lon="10.035290558015717"><ele>57.0</ele><time>2026-04-11T11:32:51.001Z</time></trkpt><trkpt lat="44.9023689556736" lon="10.0355938413302"><ele>56.5</ele><time>2026-04-11T11:32:52.001Z</time></trkpt><trkpt lat="44.90222309473738" lon="10.035900154449413"><ele>56.0</ele><time>2026-04-11T11:32:53.001Z</time></trkpt><trkpt lat="44.902079342640754" lon="10.036199414027891"><ele>56.0</ele><time>2026-04-11T11:32:54.001Z</time></trkpt><trkpt lat="44.90193614046082" lon="10.036506912701258"><ele>56.0</ele><time>2026-04-11T11:32:55.001Z</time></trkpt><trkpt lat="44.90179006413886" lon="10.03680948457383"><ele>58.0</ele><time>2026-04-11T11:32:56.001Z</time></trkpt><trkpt lat="44.90164059908647" lon="10.037105244586755"><ele>60.0</ele><time>2026-04-11T11:32:57.001Z</time></trkpt><trkpt lat="44.90149630442335" lon="10.037411728140796"><ele>59.0</ele><time>2026-04-11T11:32:58.001Z</time></trkpt><trkpt lat="44.90135119294121" lon="10.037712995843616"><ele>58.0</ele><time>2026-04-11T11:32:59.001Z</time></trkpt><trkpt lat="44.90120482719615" lon="10.03801507113743"><ele>58.0</ele><time>2026-04-11T11:33:00.001Z</time></trkpt><trkpt lat="44.90105948990692" lon="10.038318927610051"><ele>58.0</ele><time>2026-04-11T11:33:01.001Z</time></trkpt><trkpt lat="44.90091427852844" lon="10.03861997334044"><ele>59.0</ele><time>2026-04-11T11:33:02.001Z</time></trkpt><trkpt lat="44.9007673916092" lon="10.038922561365386"><ele>60.0</ele><time>2026-04-11T11:33:03.001Z</time></trkpt><trkpt lat="44.90062000126627" lon="10.039220943690559"><ele>60.0</ele><time>2026-04-11T11:33:04.001Z</time></trkpt><trkpt lat="44.90046762555198" lon="10.039518333351623"><ele>60.0</ele><time>2026-04-11T11:33:05.001Z</time></trkpt><trkpt lat="44.90032434068594" lon="10.039817834381372"><ele>60.5</ele><time>2026-04-11T11:33:06.001Z</time></trkpt><trkpt lat="44.90017039084437" lon="10.040117779204067"><ele>61.0</ele><time>2026-04-11T11:33:07.001Z</time></trkpt><trkpt lat="44.90002714204816" lon="10.040415556433087"><ele>61.0</ele><time>2026-04-11T11:33:08.001Z</time></trkpt><trkpt lat="44.899879928154995" lon="10.040715665895558"><ele>61.0</ele><time>2026-04-11T11:33:09.001Z</time></trkpt><trkpt lat="44.89973287223743" lon="10.04102046153138"><ele>60.5</ele><time>2026-04-11T11:33:10.001Z</time></trkpt><trkpt lat="44.89959187336592" lon="10.041325641565862"><ele>60.0</ele><time>2026-04-11T11:33:11.001Z</time></trkpt><trkpt lat="44.89944216676081" lon="10.041625910036256"><ele>60.0</ele><time>2026-04-11T11:33:12.001Z</time></trkpt><trkpt lat="44.89929844151353" lon="10.041930109182546"><ele>60.0</ele><time>2026-04-11T11:33:13.001Z</time></trkpt><trkpt lat="44.89915060964857" lon="10.042230198448735"><ele>61.5</ele><time>2026-04-11T11:33:14.001Z</time></trkpt><trkpt lat="44.899001753060396" lon="10.04253411798077"><ele>63.0</ele><time>2026-04-11T11:33:15.001Z</time></trkpt><trkpt lat="44.89886164618323" lon="10.04283879123504"><ele>63.0</ele><time>2026-04-11T11:33:16.001Z</time></trkpt><trkpt lat="44.89872179833999" lon="10.043143424113245"><ele>63.0</ele><time>2026-04-11T11:33:17.001Z</time></trkpt><trkpt lat="44.89857568505632" lon="10.043451120075023"><ele>62.0</ele><time>2026-04-11T11:33:18.001Z</time></trkpt><trkpt lat="44.89842921611965" lon="10.043757463252279"><ele>61.0</ele><time>2026-04-11T11:33:19.001Z</time></trkpt><trkpt lat="44.89828660973561" lon="10.044058310298503"><ele>61.0</ele><time>2026-04-11T11:33:20.001Z</time></trkpt><trkpt lat="44.89813642770966" lon="10.044359105171702"><ele>61.0</ele><time>2026-04-11T11:33:21.001Z</time></trkpt><trkpt lat="44.89798886707778" lon="10.044661970135891"><ele>60.5</ele><time>2026-04-11T11:33:22.001Z</time></trkpt><trkpt lat="44.89784422970582" lon="10.04496384010087"><ele>60.0</ele><time>2026-04-11T11:33:23.001Z</time></trkpt><trkpt lat="44.897696399412595" lon="10.04526836268223"><ele>60.0</ele><time>2026-04-11T11:33:24.001Z</time></trkpt><trkpt lat="44.89755029952604" lon="10.045571805820353"><ele>60.0</ele><time>2026-04-11T11:33:25.001Z</time></trkpt><trkpt lat="44.89740492142091" lon="10.045874344203794"><ele>60.0</ele><time>2026-04-11T11:33:26.001Z</time></trkpt><trkpt lat="44.897255734143094" lon="10.046176698034028"><ele>60.0</ele><time>2026-04-11T11:33:27.001Z</time></trkpt><trkpt lat="44.897111693404405" lon="10.046477430576335"><ele>60.0</ele><time>2026-04-11T11:33:28.001Z</time></trkpt><trkpt lat="44.89696644801816" lon="10.046777110900965"><ele>60.0</ele><time>2026-04-11T11:33:29.001Z</time></trkpt><trkpt lat="44.896827899185666" lon="10.047079926634602"><ele>59.5</ele><time>2026-04-11T11:33:30.001Z</time></trkpt><trkpt lat="44.89668559289952" lon="10.047387944455194"><ele>59.0</ele><time>2026-04-11T11:33:31.001Z</time></trkpt><trkpt lat="44.8965490896116" lon="10.047700744535197"><ele>59.0</ele><time>2026-04-11T11:33:32.001Z</time></trkpt><trkpt lat="44.8964176972196" lon="10.048011474969133"><ele>59.0</ele><time>2026-04-11T11:33:33.001Z</time></trkpt><trkpt lat="44.896285775670904" lon="10.048327568167617"><ele>60.5</ele><time>2026-04-11T11:33:34.001Z</time></trkpt><trkpt lat="44.89616269278084" lon="10.048643091977826"><ele>62.0</ele><time>2026-04-11T11:33:35.001Z</time></trkpt><trkpt lat="44.896030804706534" lon="10.048964658897178"><ele>62.0</ele><time>2026-04-11T11:33:36.001Z</time></trkpt><trkpt lat="44.89590621985172" lon="10.049286714638757"><ele>62.0</ele><time>2026-04-11T11:33:37.001Z</time></trkpt><trkpt lat="44.89579427294557" lon="10.049610251277624"><ele>62.0</ele><time>2026-04-11T11:33:38.001Z</time></trkpt><trkpt lat="44.89568510385979" lon="10.049937908594806"><ele>62.0</ele><time>2026-04-11T11:33:39.001Z</time></trkpt><trkpt lat="44.895577442197364" lon="10.05026631371682"><ele>62.0</ele><time>2026-04-11T11:33:40.001Z</time></trkpt><trkpt lat="44.89547056031632" lon="10.050596404055257"><ele>62.0</ele><time>2026-04-11T11:33:41.001Z</time></trkpt><trkpt lat="44.89535874610301" lon="10.050923305688446"><ele>61.5</ele><time>2026-04-11T11:33:42.001Z</time></trkpt><trkpt lat="44.89525214230738" lon="10.051253395396738"><ele>61.0</ele><time>2026-04-11T11:33:43.001Z</time></trkpt><trkpt lat="44.895151675541115" lon="10.051590537717153"><ele>60.0</ele><time>2026-04-11T11:33:44.001Z</time></trkpt><trkpt lat="44.89505876487524" lon="10.05193363456039"><ele>59.0</ele><time>2026-04-11T11:33:45.001Z</time></trkpt><trkpt lat="44.89497105447411" lon="10.052281765049315"><ele>59.0</ele><time>2026-04-11T11:33:46.001Z</time></trkpt><trkpt lat="44.89488777759014" lon="10.052627317830579"><ele>59.0</ele><time>2026-04-11T11:33:47.001Z</time></trkpt><trkpt lat="44.89480593798992" lon="10.052973835266226"><ele>59.0</ele><time>2026-04-11T11:33:48.001Z</time></trkpt><trkpt lat="44.89472583179648" lon="10.05332330414255"><ele>59.0</ele><time>2026-04-11T11:33:49.001Z</time></trkpt><trkpt lat="44.894652973146364" lon="10.053674206742947"><ele>59.0</ele><time>2026-04-11T11:33:50.001Z</time></trkpt><trkpt lat="44.89458561525321" lon="10.05403033971185"><ele>59.0</ele><time>2026-04-11T11:33:51.001Z</time></trkpt><trkpt lat="44.89452367627342" lon="10.054384263451748"><ele>59.5</ele><time>2026-04-11T11:33:52.001Z</time></trkpt><trkpt lat="44.894465401558186" lon="10.054742974482773"><ele>60.0</ele><time>2026-04-11T11:33:53.001Z</time></trkpt><trkpt lat="44.894410382590245" lon="10.055102632105877"><ele>60.0</ele><time>2026-04-11T11:33:54.001Z</time></trkpt><trkpt lat="44.894355586208306" lon="10.055465434407484"><ele>60.0</ele><time>2026-04-11T11:33:55.001Z</time></trkpt><trkpt lat="44.894302058734525" lon="10.055825940921121"><ele>60.0</ele><time>2026-04-11T11:33:56.001Z</time></trkpt><trkpt lat="44.89424721127171" lon="10.056184227408389"><ele>60.0</ele><time>2026-04-11T11:33:57.001Z</time></trkpt><trkpt lat="44.89419252275462" lon="10.056544077086803"><ele>61.0</ele><time>2026-04-11T11:33:58.001Z</time></trkpt><trkpt lat="44.894136108787414" lon="10.056906401066945"><ele>62.0</ele><time>2026-04-11T11:33:59.001Z</time></trkpt><trkpt lat="44.89408428899962" lon="10.05726293579296"><ele>61.0</ele><time>2026-04-11T11:34:00.001Z</time></trkpt><trkpt lat="44.89403084895846" lon="10.057617244240047"><ele>60.0</ele><time>2026-04-11T11:34:01.001Z</time></trkpt><trkpt lat="44.89397704664156" lon="10.057973700738087"><ele>59.0</ele><time>2026-04-11T11:34:02.001Z</time></trkpt><trkpt lat="44.89392262023395" lon="10.058326288396518"><ele>58.0</ele><time>2026-04-11T11:34:03.001Z</time></trkpt><trkpt lat="44.89387008712148" lon="10.058683231261186"><ele>58.0</ele><time>2026-04-11T11:34:04.001Z</time></trkpt><trkpt lat="44.89381899085947" lon="10.059041291234006"><ele>58.0</ele><time>2026-04-11T11:34:05.001Z</time></trkpt><trkpt lat="44.89376611231185" lon="10.059398992354652"><ele>57.5</ele><time>2026-04-11T11:34:06.001Z</time></trkpt><trkpt lat="44.89370984495033" lon="10.059756364077996"><ele>57.0</ele><time>2026-04-11T11:34:07.001Z</time></trkpt><trkpt lat="44.89365472786632" lon="10.060110837548226"><ele>57.0</ele><time>2026-04-11T11:34:08.001Z</time></trkpt><trkpt lat="44.89359935476532" lon="10.060465813733904"><ele>57.0</ele><time>2026-04-11T11:34:09.001Z</time></trkpt><trkpt lat="44.89354603144614" lon="10.060815782393519"><ele>58.0</ele><time>2026-04-11T11:34:10.001Z</time></trkpt><trkpt lat="44.89349249881595" lon="10.061166118986362"><ele>59.0</ele><time>2026-04-11T11:34:11.001Z</time></trkpt><trkpt lat="44.893437405377725" lon="10.061518246983418"><ele>59.0</ele><time>2026-04-11T11:34:12.001Z</time></trkpt><trkpt lat="44.89338236867833" lon="10.061872590390793"><ele>59.0</ele><time>2026-04-11T11:34:13.001Z</time></trkpt><trkpt lat="44.89332897372451" lon="10.06222603839957"><ele>59.0</ele><time>2026-04-11T11:34:14.001Z</time></trkpt><trkpt lat="44.893272956357386" lon="10.062577404736267"><ele>59.0</ele><time>2026-04-11T11:34:15.001Z</time></trkpt><trkpt lat="44.893219836945754" lon="10.062931217546657"><ele>59.0</ele><time>2026-04-11T11:34:16.001Z</time></trkpt><trkpt lat="44.89316649216318" lon="10.063288207322167"><ele>59.0</ele><time>2026-04-11T11:34:17.001Z</time></trkpt><trkpt lat="44.893115250502206" lon="10.063644483794965"><ele>59.0</ele><time>2026-04-11T11:34:18.001Z</time></trkpt><trkpt lat="44.89306149931714" lon="10.06400678850508"><ele>59.0</ele><time>2026-04-11T11:34:19.001Z</time></trkpt><trkpt lat="44.893005986018764" lon="10.064366555116106"><ele>59.0</ele><time>2026-04-11T11:34:20.001Z</time></trkpt><trkpt lat="44.892951332429874" lon="10.064718390448995"><ele>59.0</ele><time>2026-04-11T11:34:21.001Z</time></trkpt><trkpt lat="44.89289510322065" lon="10.065076564202368"><ele>59.0</ele><time>2026-04-11T11:34:22.001Z</time></trkpt><trkpt lat="44.892840412596556" lon="10.065433959316254"><ele>59.0</ele><time>2026-04-11T11:34:23.001Z</time></trkpt><trkpt lat="44.892784939613904" lon="10.065794052427329"><ele>59.5</ele><time>2026-04-11T11:34:24.001Z</time></trkpt><trkpt lat="44.89272931715329" lon="10.06615285298402"><ele>60.0</ele><time>2026-04-11T11:34:25.001Z</time></trkpt><trkpt lat="44.89267645944795" lon="10.066511264666714"><ele>60.0</ele><time>2026-04-11T11:34:26.001Z</time></trkpt><trkpt lat="44.892623916840705" lon="10.066866337985749"><ele>60.0</ele><time>2026-04-11T11:34:27.001Z</time></trkpt><trkpt lat="44.892569689131356" lon="10.067232236832247"><ele>60.5</ele><time>2026-04-11T11:34:28.001Z</time></trkpt><trkpt lat="44.89251689821207" lon="10.067588273417137"><ele>61.0</ele><time>2026-04-11T11:34:29.001Z</time></trkpt><trkpt lat="44.892464825641376" lon="10.067943907542393"><ele>60.0</ele><time>2026-04-11T11:34:30.001Z</time></trkpt><trkpt lat="44.892407991871615" lon="10.068303153770604"><ele>59.0</ele><time>2026-04-11T11:34:31.001Z</time></trkpt><trkpt lat="44.89235190701768" lon="10.068661768957776"><ele>59.0</ele><time>2026-04-11T11:34:32.001Z</time></trkpt><trkpt lat="44.892299611346225" lon="10.069018756053625"><ele>59.0</ele><time>2026-04-11T11:34:33.001Z</time></trkpt><trkpt lat="44.89224689143473" lon="10.069371266627993"><ele>59.0</ele><time>2026-04-11T11:34:34.001Z</time></trkpt><trkpt lat="44.89219244663854" lon="10.06972488302619"><ele>59.0</ele><time>2026-04-11T11:34:35.001Z</time></trkpt><trkpt lat="44.89214173391251" lon="10.070067969349038"><ele>59.0</ele><time>2026-04-11T11:34:36.001Z</time></trkpt><trkpt lat="44.89209292798564" lon="10.070403589200291"><ele>59.0</ele><time>2026-04-11T11:34:37.001Z</time></trkpt><trkpt lat="44.89202555346981" lon="10.070794473345579"><ele>58.5</ele><time>2026-04-11T11:34:38.001Z</time></trkpt><trkpt lat="44.89197253985688" lon="10.07114945942326"><ele>58.0</ele><time>2026-04-11T11:34:39.001Z</time></trkpt><trkpt lat="44.89191969994407" lon="10.071505554118481"><ele>57.5</ele><time>2026-04-11T11:34:40.001Z</time></trkpt><trkpt lat="44.891863830671426" lon="10.071867150451062"><ele>57.0</ele><time>2026-04-11T11:34:41.001Z</time></trkpt><trkpt lat="44.89180928426944" lon="10.07222315907546"><ele>56.5</ele><time>2026-04-11T11:34:42.002Z</time></trkpt><trkpt lat="44.89175628099481" lon="10.072601307515017"><ele>56.0</ele><time>2026-04-11T11:34:43.002Z</time></trkpt><trkpt lat="44.891703524013195" lon="10.072957164552294"><ele>56.0</ele><time>2026-04-11T11:34:44.002Z</time></trkpt><trkpt lat="44.89164974800894" lon="10.073314929659912"><ele>56.0</ele><time>2026-04-11T11:34:45.002Z</time></trkpt><trkpt lat="44.89159773626725" lon="10.073676157193292"><ele>56.0</ele><time>2026-04-11T11:34:46.002Z</time></trkpt><trkpt lat="44.891543544647504" lon="10.074034261301087"><ele>56.0</ele><time>2026-04-11T11:34:47.002Z</time></trkpt><trkpt lat="44.89148514461126" lon="10.074390831288117"><ele>56.5</ele><time>2026-04-11T11:34:48.002Z</time></trkpt><trkpt lat="44.89142834974899" lon="10.07475106968745"><ele>57.0</ele><time>2026-04-11T11:34:49.002Z</time></trkpt><trkpt lat="44.89137540629688" lon="10.075110450423693"><ele>57.0</ele><time>2026-04-11T11:34:50.002Z</time></trkpt><trkpt lat="44.89131872152692" lon="10.075463762400549"><ele>57.0</ele><time>2026-04-11T11:34:51.002Z</time></trkpt><trkpt lat="44.89126648073696" lon="10.075818863746402"><ele>57.0</ele><time>2026-04-11T11:34:52.002Z</time></trkpt><trkpt lat="44.89121395947766" lon="10.076175238272308"><ele>57.0</ele><time>2026-04-11T11:34:53.001Z</time></trkpt><trkpt lat="44.89116264204586" lon="10.076530872484636"><ele>58.0</ele><time>2026-04-11T11:34:54.001Z</time></trkpt><trkpt lat="44.89110946605336" lon="10.076886719586685"><ele>59.0</ele><time>2026-04-11T11:34:55.001Z</time></trkpt><trkpt lat="44.89105370771728" lon="10.077239704285665"><ele>58.5</ele><time>2026-04-11T11:34:56.001Z</time></trkpt><trkpt lat="44.890996377410666" lon="10.077592820046304"><ele>58.0</ele><time>2026-04-11T11:34:57.001Z</time></trkpt><trkpt lat="44.890940482142675" lon="10.07794682847835"><ele>56.5</ele><time>2026-04-11T11:34:58.001Z</time></trkpt><trkpt lat="44.89088888797162" lon="10.078297592950879"><ele>55.0</ele><time>2026-04-11T11:34:59.001Z</time></trkpt><trkpt lat="44.89083417331565" lon="10.078652632500601"><ele>55.0</ele><time>2026-04-11T11:35:00.001Z</time></trkpt><trkpt lat="44.890782064167915" lon="10.079008563602613"><ele>55.0</ele><time>2026-04-11T11:35:01.001Z</time></trkpt><trkpt lat="44.89072688311814" lon="10.0793609128708"><ele>55.0</ele><time>2026-04-11T11:35:02.001Z</time></trkpt><trkpt lat="44.89066590449481" lon="10.079714863897706"><ele>55.0</ele><time>2026-04-11T11:35:03.001Z</time></trkpt><trkpt lat="44.89060058444794" lon="10.080068896487669"><ele>55.5</ele><time>2026-04-11T11:35:04.001Z</time></trkpt><trkpt lat="44.89054741363855" lon="10.080420970021086"><ele>56.0</ele><time>2026-04-11T11:35:05.001Z</time></trkpt><trkpt lat="44.890488302785535" lon="10.08077517509305"><ele>56.5</ele><time>2026-04-11T11:35:06.001Z</time></trkpt><trkpt lat="44.890434594107376" lon="10.081132617194585"><ele>57.0</ele><time>2026-04-11T11:35:07.001Z</time></trkpt><trkpt lat="44.890379820446974" lon="10.081490601080334"><ele>56.5</ele><time>2026-04-11T11:35:08.001Z</time></trkpt><trkpt lat="44.89032306891536" lon="10.081847862631017"><ele>56.0</ele><time>2026-04-11T11:35:09.001Z</time></trkpt><trkpt lat="44.89027045438676" lon="10.082207354913093"><ele>56.0</ele><time>2026-04-11T11:35:10.001Z</time></trkpt><trkpt lat="44.890214193759796" lon="10.082571370086072"><ele>56.0</ele><time>2026-04-11T11:35:11.001Z</time></trkpt><trkpt lat="44.890158985445204" lon="10.082930161063535"><ele>57.0</ele><time>2026-04-11T11:35:12.001Z</time></trkpt><trkpt lat="44.890101789416335" lon="10.083291202853811"><ele>58.0</ele><time>2026-04-11T11:35:13.001Z</time></trkpt><trkpt lat="44.890047761647494" lon="10.083652752549115"><ele>58.0</ele><time>2026-04-11T11:35:14.001Z</time></trkpt><trkpt lat="44.88999403998452" lon="10.084013519831645"><ele>58.0</ele><time>2026-04-11T11:35:15.001Z</time></trkpt><trkpt lat="44.889938017802685" lon="10.084370815745178"><ele>58.0</ele><time>2026-04-11T11:35:16.001Z</time></trkpt><trkpt lat="44.88988239707144" lon="10.08472616809721"><ele>58.0</ele><time>2026-04-11T11:35:17.001Z</time></trkpt><trkpt lat="44.88982859803796" lon="10.085081020557576"><ele>58.0</ele><time>2026-04-11T11:35:18.001Z</time></trkpt><trkpt lat="44.88977516461416" lon="10.0854360207034"><ele>58.0</ele><time>2026-04-11T11:35:19.001Z</time></trkpt><trkpt lat="44.88972194691721" lon="10.08579327910891"><ele>57.0</ele><time>2026-04-11T11:35:20.001Z</time></trkpt><trkpt lat="44.88966852823302" lon="10.086148162036372"><ele>56.0</ele><time>2026-04-11T11:35:21.001Z</time></trkpt><trkpt lat="44.88961499126532" lon="10.08650449901233"><ele>57.0</ele><time>2026-04-11T11:35:22.001Z</time></trkpt><trkpt lat="44.889559014879445" lon="10.086861338144105"><ele>58.0</ele><time>2026-04-11T11:35:23.001Z</time></trkpt><trkpt lat="44.889505238494095" lon="10.087219097519773"><ele>58.0</ele><time>2026-04-11T11:35:24.001Z</time></trkpt><trkpt lat="44.889453022763064" lon="10.087579410035252"><ele>58.0</ele><time>2026-04-11T11:35:25.001Z</time></trkpt><trkpt lat="44.88939724509399" lon="10.087937259831165"><ele>58.0</ele><time>2026-04-11T11:35:26.001Z</time></trkpt><trkpt lat="44.88934494395173" lon="10.088301226245774"><ele>58.0</ele><time>2026-04-11T11:35:27.001Z</time></trkpt><trkpt lat="44.8892881421515" lon="10.088661801975606"><ele>58.0</ele><time>2026-04-11T11:35:28.001Z</time></trkpt><trkpt lat="44.889232819942734" lon="10.089023164355412"><ele>58.0</ele><time>2026-04-11T11:35:29.001Z</time></trkpt><trkpt lat="44.88917652738311" lon="10.089385379897646"><ele>58.5</ele><time>2026-04-11T11:35:30.001Z</time></trkpt><trkpt lat="44.88912270028058" lon="10.08974493268816"><ele>59.0</ele><time>2026-04-11T11:35:31.001Z</time></trkpt><trkpt lat="44.88906704052216" lon="10.09010115177387"><ele>58.0</ele><time>2026-04-11T11:35:32.001Z</time></trkpt><trkpt lat="44.88901331837178" lon="10.090458485007499"><ele>57.0</ele><time>2026-04-11T11:35:33.001Z</time></trkpt><trkpt lat="44.888960444190765" lon="10.090815528205383"><ele>57.0</ele><time>2026-04-11T11:35:34.001Z</time></trkpt><trkpt lat="44.88890736622668" lon="10.091168102856987"><ele>57.0</ele><time>2026-04-11T11:35:35.001Z</time></trkpt><trkpt lat="44.88885257889538" lon="10.091521635897346"><ele>56.5</ele><time>2026-04-11T11:35:36.001Z</time></trkpt><trkpt lat="44.88879914477235" lon="10.09187426046062"><ele>56.0</ele><time>2026-04-11T11:35:37.001Z</time></trkpt><trkpt lat="44.88874766117201" lon="10.092230329455639"><ele>56.0</ele><time>2026-04-11T11:35:38.001Z</time></trkpt><trkpt lat="44.888694476594395" lon="10.092584296016138"><ele>56.0</ele><time>2026-04-11T11:35:39.001Z</time></trkpt><trkpt lat="44.88864070642826" lon="10.092937953458868"><ele>56.0</ele><time>2026-04-11T11:35:40.001Z</time></trkpt><trkpt lat="44.88858682535415" lon="10.093290718850719"><ele>56.0</ele><time>2026-04-11T11:35:41.001Z</time></trkpt><trkpt lat="44.88853281657601" lon="10.093644810311455"><ele>56.0</ele><time>2026-04-11T11:35:42.001Z</time></trkpt><trkpt lat="44.888479981816396" lon="10.094000558486517"><ele>56.0</ele><time>2026-04-11T11:35:43.001Z</time></trkpt><trkpt lat="44.888425844167514" lon="10.094356074338844"><ele>56.0</ele><time>2026-04-11T11:35:44.001Z</time></trkpt><trkpt lat="44.888373007052344" lon="10.094715022542964"><ele>56.0</ele><time>2026-04-11T11:35:45.001Z</time></trkpt><trkpt lat="44.888316895596766" lon="10.095071064283712"><ele>56.0</ele><time>2026-04-11T11:35:46.001Z</time></trkpt><trkpt lat="44.88826133993603" lon="10.095428540939531"><ele>56.0</ele><time>2026-04-11T11:35:47.001Z</time></trkpt><trkpt lat="44.88820617998362" lon="10.095786248374196"><ele>55.0</ele><time>2026-04-11T11:35:48.001Z</time></trkpt><trkpt lat="44.88815225053441" lon="10.096147031188053"><ele>54.0</ele><time>2026-04-11T11:35:49.001Z</time></trkpt><trkpt lat="44.88809641652643" lon="10.096506317514551"><ele>54.5</ele><time>2026-04-11T11:35:50.001Z</time></trkpt><trkpt lat="44.88803922608927" lon="10.096862442089838"><ele>55.0</ele><time>2026-04-11T11:35:51.001Z</time></trkpt><trkpt lat="44.88798303832784" lon="10.097218989886889"><ele>55.0</ele><time>2026-04-11T11:35:52.001Z</time></trkpt><trkpt lat="44.8879268921407" lon="10.097575055237401"><ele>55.0</ele><time>2026-04-11T11:35:53.001Z</time></trkpt><trkpt lat="44.88787302511473" lon="10.097931318534691"><ele>55.0</ele><time>2026-04-11T11:35:54.001Z</time></trkpt><trkpt lat="44.8878206597181" lon="10.098289279486497"><ele>55.0</ele><time>2026-04-11T11:35:55.001Z</time></trkpt><trkpt lat="44.88776742981286" lon="10.09864429210729"><ele>55.0</ele><time>2026-04-11T11:35:56.001Z</time></trkpt><trkpt lat="44.887715076583305" lon="10.09899965823189"><ele>55.0</ele><time>2026-04-11T11:35:57.001Z</time></trkpt><trkpt lat="44.88766371513839" lon="10.099355265380954"><ele>55.0</ele><time>2026-04-11T11:35:58.001Z</time></trkpt><trkpt lat="44.88761176963975" lon="10.099712976038068"><ele>55.0</ele><time>2026-04-11T11:35:59.001Z</time></trkpt><trkpt lat="44.88755996995498" lon="10.100069580234624"><ele>55.0</ele><time>2026-04-11T11:36:00.001Z</time></trkpt><trkpt lat="44.88750645310097" lon="10.100427498130086"><ele>55.0</ele><time>2026-04-11T11:36:01.001Z</time></trkpt><trkpt lat="44.88745124463415" lon="10.100781675730568"><ele>56.0</ele><time>2026-04-11T11:36:02.001Z</time></trkpt><trkpt lat="44.887394042233446" lon="10.101136110257505"><ele>57.0</ele><time>2026-04-11T11:36:03Z</time></trkpt><trkpt lat="44.88733659137893" lon="10.101490026674158"><ele>57.5</ele><time>2026-04-11T11:36:04Z</time></trkpt><trkpt lat="44.88727968604501" lon="10.101845825576316"><ele>58.0</ele><time>2026-04-11T11:36:05Z</time></trkpt><trkpt lat="44.88722589035617" lon="10.102202199177201"><ele>58.0</ele><time>2026-04-11T11:36:06Z</time></trkpt><trkpt lat="44.88717237123778" lon="10.10255878882085"><ele>58.0</ele><time>2026-04-11T11:36:07Z</time></trkpt><trkpt lat="44.887118163471726" lon="10.1029167702359"><ele>57.5</ele><time>2026-04-11T11:36:08Z</time></trkpt><trkpt lat="44.88706477752204" lon="10.103271192310348"><ele>57.0</ele><time>2026-04-11T11:36:09Z</time></trkpt><trkpt lat="44.887012045925786" lon="10.103627839252757"><ele>57.0</ele><time>2026-04-11T11:36:10Z</time></trkpt><trkpt lat="44.886957538714455" lon="10.1039854357713"><ele>57.0</ele><time>2026-04-11T11:36:11Z</time></trkpt><trkpt lat="44.88690143170907" lon="10.104343173293262"><ele>56.5</ele><time>2026-04-11T11:36:12Z</time></trkpt><trkpt lat="44.88684451735725" lon="10.10470032171411"><ele>56.0</ele><time>2026-04-11T11:36:13Z</time></trkpt><trkpt lat="44.88678841616505" lon="10.105058964742094"><ele>55.5</ele><time>2026-04-11T11:36:14Z</time></trkpt><trkpt lat="44.88673476919896" lon="10.10541491289274"><ele>55.0</ele><time>2026-04-11T11:36:15Z</time></trkpt><trkpt lat="44.88668294411231" lon="10.105774388616801"><ele>55.0</ele><time>2026-04-11T11:36:16Z</time></trkpt><trkpt lat="44.886632956939216" lon="10.106131974271578"><ele>55.0</ele><time>2026-04-11T11:36:17Z</time></trkpt><trkpt lat="44.886581282588644" lon="10.106491113249401"><ele>54.0</ele><time>2026-04-11T11:36:18Z</time></trkpt><trkpt lat="44.88652746781072" lon="10.106849988029433"><ele>53.0</ele><time>2026-04-11T11:36:19Z</time></trkpt><trkpt lat="44.88647097828259" lon="10.107209125357114"><ele>53.5</ele><time>2026-04-11T11:36:20Z</time></trkpt><trkpt lat="44.88641132799216" lon="10.107568862322415"><ele>54.0</ele><time>2026-04-11T11:36:21Z</time></trkpt><trkpt lat="44.886353159723335" lon="10.107928011904379"><ele>54.5</ele><time>2026-04-11T11:36:22.001Z</time></trkpt><trkpt lat="44.88629927363462" lon="10.108285664230303"><ele>55.0</ele><time>2026-04-11T11:36:23.001Z</time></trkpt><trkpt lat="44.88624670121556" lon="10.108648649774226"><ele>55.0</ele><time>2026-04-11T11:36:24.001Z</time></trkpt><trkpt lat="44.88619590696251" lon="10.109007264130263"><ele>55.0</ele><time>2026-04-11T11:36:25.001Z</time></trkpt><trkpt lat="44.88614276351938" lon="10.109366731461424"><ele>54.5</ele><time>2026-04-11T11:36:26.001Z</time></trkpt><trkpt lat="44.886090262843155" lon="10.109724976261768"><ele>54.0</ele><time>2026-04-11T11:36:27.001Z</time></trkpt><trkpt lat="44.88603709393444" lon="10.11007597387362"><ele>54.0</ele><time>2026-04-11T11:36:28.001Z</time></trkpt><trkpt lat="44.885980712732106" lon="10.110434772427949"><ele>54.0</ele><time>2026-04-11T11:36:29.001Z</time></trkpt><trkpt lat="44.88592315833396" lon="10.110790981847703"><ele>55.0</ele><time>2026-04-11T11:36:30.001Z</time></trkpt><trkpt lat="44.88586581556986" lon="10.111147866193324"><ele>56.0</ele><time>2026-04-11T11:36:31.001Z</time></trkpt><trkpt lat="44.88581038691846" lon="10.11150407856391"><ele>55.0</ele><time>2026-04-11T11:36:32.001Z</time></trkpt><trkpt lat="44.88575622216091" lon="10.111862223732274"><ele>54.0</ele><time>2026-04-11T11:36:33.001Z</time></trkpt><trkpt lat="44.88570462223088" lon="10.11222096105408"><ele>54.0</ele><time>2026-04-11T11:36:34.001Z</time></trkpt><trkpt lat="44.885654067082264" lon="10.11257654837299"><ele>54.0</ele><time>2026-04-11T11:36:35.001Z</time></trkpt><trkpt lat="44.885601523309404" lon="10.112939328769405"><ele>54.5</ele><time>2026-04-11T11:36:36.001Z</time></trkpt><trkpt lat="44.88554864159506" lon="10.113295740153497"><ele>55.0</ele><time>2026-04-11T11:36:37.001Z</time></trkpt><trkpt lat="44.88549343765522" lon="10.113655694762791"><ele>55.0</ele><time>2026-04-11T11:36:38.001Z</time></trkpt><trkpt lat="44.885438653393074" lon="10.114011694176282"><ele>55.0</ele><time>2026-04-11T11:36:39.001Z</time></trkpt><trkpt lat="44.88538257045679" lon="10.114369999877407"><ele>54.5</ele><time>2026-04-11T11:36:40.001Z</time></trkpt><trkpt lat="44.88532393880243" lon="10.114729197029876"><ele>54.0</ele><time>2026-04-11T11:36:41.001Z</time></trkpt><trkpt lat="44.885268656835514" lon="10.115084169666156"><ele>54.0</ele><time>2026-04-11T11:36:42.001Z</time></trkpt><trkpt lat="44.885213793831234" lon="10.115439835724022"><ele>54.0</ele><time>2026-04-11T11:36:43.001Z</time></trkpt><trkpt lat="44.88516061450784" lon="10.115796648775067"><ele>54.5</ele><time>2026-04-11T11:36:44.001Z</time></trkpt><trkpt lat="44.885106271983894" lon="10.116154260756424"><ele>55.0</ele><time>2026-04-11T11:36:45.001Z</time></trkpt><trkpt lat="44.88505259744537" lon="10.116516351294466"><ele>54.5</ele><time>2026-04-11T11:36:46.001Z</time></trkpt><trkpt lat="44.884999270327256" lon="10.116872802646261"><ele>54.0</ele><time>2026-04-11T11:36:47.001Z</time></trkpt><trkpt lat="44.884945964615575" lon="10.117231777416595"><ele>53.5</ele><time>2026-04-11T11:36:48.001Z</time></trkpt><trkpt lat="44.88489326939625" lon="10.117588937560116"><ele>53.0</ele><time>2026-04-11T11:36:49.001Z</time></trkpt><trkpt lat="44.8848401903085" lon="10.11794678719814"><ele>53.5</ele><time>2026-04-11T11:36:50.001Z</time></trkpt><trkpt lat="44.88478583503328" lon="10.118308127246788"><ele>54.0</ele><time>2026-04-11T11:36:51.001Z</time></trkpt><trkpt lat="44.88473200534252" lon="10.118663958702928"><ele>54.0</ele><time>2026-04-11T11:36:52.001Z</time></trkpt><trkpt lat="44.88467640742165" lon="10.119023211026759"><ele>54.0</ele><time>2026-04-11T11:36:53.001Z</time></trkpt><trkpt lat="44.884622014150025" lon="10.119380900480074"><ele>54.0</ele><time>2026-04-11T11:36:54.001Z</time></trkpt><trkpt lat="44.88456826098917" lon="10.119739128540504"><ele>54.0</ele><time>2026-04-11T11:36:55.001Z</time></trkpt><trkpt lat="44.88451440211273" lon="10.120096250911775"><ele>54.0</ele><time>2026-04-11T11:36:56.001Z</time></trkpt><trkpt lat="44.88445928526027" lon="10.120453287583732"><ele>54.0</ele><time>2026-04-11T11:36:57.001Z</time></trkpt><trkpt lat="44.88440359828858" lon="10.12080898805678"><ele>53.5</ele><time>2026-04-11T11:36:58.001Z</time></trkpt><trkpt lat="44.88434756907188" lon="10.121163987873777"><ele>53.0</ele><time>2026-04-11T11:36:59Z</time></trkpt><trkpt lat="44.88429337445871" lon="10.12151654289245"><ele>54.5</ele><time>2026-04-11T11:37:00Z</time></trkpt><trkpt lat="44.88423937359063" lon="10.121873074065853"><ele>56.0</ele><time>2026-04-11T11:37:01Z</time></trkpt><trkpt lat="44.88418462453249" lon="10.122229472420598"><ele>55.0</ele><time>2026-04-11T11:37:02Z</time></trkpt><trkpt lat="44.884131166855674" lon="10.122581641428225"><ele>54.0</ele><time>2026-04-11T11:37:03Z</time></trkpt><trkpt lat="44.884076635462684" lon="10.12293319833423"><ele>53.0</ele><time>2026-04-11T11:37:04Z</time></trkpt><trkpt lat="44.884022102185945" lon="10.12328647977697"><ele>52.0</ele><time>2026-04-11T11:37:05Z</time></trkpt><trkpt lat="44.88396744326072" lon="10.123639282540822"><ele>52.0</ele><time>2026-04-11T11:37:06Z</time></trkpt><trkpt lat="44.883913444391304" lon="10.123996468199888"><ele>52.0</ele><time>2026-04-11T11:37:07Z</time></trkpt><trkpt lat="44.88385910373611" lon="10.124355219257806"><ele>52.5</ele><time>2026-04-11T11:37:08Z</time></trkpt><trkpt lat="44.88380330568999" lon="10.124711388555212"><ele>53.0</ele><time>2026-04-11T11:37:09Z</time></trkpt><trkpt lat="44.88374839071779" lon="10.125070091744611"><ele>53.0</ele><time>2026-04-11T11:37:10Z</time></trkpt><trkpt lat="44.88369314857249" lon="10.125427774379508"><ele>53.0</ele><time>2026-04-11T11:37:11Z</time></trkpt><trkpt lat="44.8836397858803" lon="10.125786827188668"><ele>52.5</ele><time>2026-04-11T11:37:12Z</time></trkpt><trkpt lat="44.883587714991535" lon="10.126147879180554"><ele>52.0</ele><time>2026-04-11T11:37:13Z</time></trkpt><trkpt lat="44.88353661322078" lon="10.126505782443294"><ele>52.0</ele><time>2026-04-11T11:37:14Z</time></trkpt><trkpt lat="44.88348248236017" lon="10.12686372491423"><ele>52.0</ele><time>2026-04-11T11:37:15Z</time></trkpt><trkpt lat="44.883427742184814" lon="10.127223533625989"><ele>52.5</ele><time>2026-04-11T11:37:16Z</time></trkpt><trkpt lat="44.88337305188687" lon="10.127575493121403"><ele>53.0</ele><time>2026-04-11T11:37:17Z</time></trkpt><trkpt lat="44.88331969802142" lon="10.127931557667933"><ele>52.0</ele><time>2026-04-11T11:37:18Z</time></trkpt><trkpt lat="44.88326756788244" lon="10.128288351342484"><ele>51.0</ele><time>2026-04-11T11:37:19Z</time></trkpt><trkpt lat="44.8832134716218" lon="10.12864473561099"><ele>51.0</ele><time>2026-04-11T11:37:20Z</time></trkpt><trkpt lat="44.88315948803454" lon="10.129002357748815"><ele>51.0</ele><time>2026-04-11T11:37:21Z</time></trkpt><trkpt lat="44.88310712896924" lon="10.129361700561184"><ele>50.5</ele><time>2026-04-11T11:37:22Z</time></trkpt><trkpt lat="44.88305458921322" lon="10.129722438264029"><ele>50.0</ele><time>2026-04-11T11:37:23Z</time></trkpt><trkpt lat="44.883004613591154" lon="10.13008132821001"><ele>49.5</ele><time>2026-04-11T11:37:24Z</time></trkpt><trkpt lat="44.88295406917233" lon="10.130438448923398"><ele>49.0</ele><time>2026-04-11T11:37:25Z</time></trkpt><trkpt lat="44.882902205081386" lon="10.13079948969968"><ele>49.0</ele><time>2026-04-11T11:37:26Z</time></trkpt><trkpt lat="44.88284759659916" lon="10.131159868912363"><ele>49.0</ele><time>2026-04-11T11:37:27Z</time></trkpt><trkpt lat="44.882793139038704" lon="10.131528260251711"><ele>49.5</ele><time>2026-04-11T11:37:28Z</time></trkpt><trkpt lat="44.88273805438819" lon="10.13189806211847"><ele>50.0</ele><time>2026-04-11T11:37:29Z</time></trkpt><trkpt lat="44.88269041883388" lon="10.132227344091705"><ele>50.5</ele><time>2026-04-11T11:37:30Z</time></trkpt><trkpt lat="44.88263446093122" lon="10.132586633131831"><ele>51.0</ele><time>2026-04-11T11:37:31Z</time></trkpt><trkpt lat="44.882579539492085" lon="10.132945905587885"><ele>50.5</ele><time>2026-04-11T11:37:32Z</time></trkpt><trkpt lat="44.88252632502044" lon="10.133302628810315"><ele>50.0</ele><time>2026-04-11T11:37:33Z</time></trkpt><trkpt lat="44.882468810212174" lon="10.133660225395346"><ele>50.0</ele><time>2026-04-11T11:37:34Z</time></trkpt><trkpt lat="44.882412683126304" lon="10.134018562514017"><ele>50.0</ele><time>2026-04-11T11:37:35Z</time></trkpt><trkpt lat="44.882358869274654" lon="10.134380326094611"><ele>50.0</ele><time>2026-04-11T11:37:36Z</time></trkpt><trkpt lat="44.88230540924751" lon="10.134734197030157"><ele>50.0</ele><time>2026-04-11T11:37:37Z</time></trkpt><trkpt lat="44.882254580649104" lon="10.13508896264043"><ele>50.0</ele><time>2026-04-11T11:37:38Z</time></trkpt><trkpt lat="44.88220284952648" lon="10.135445229231802"><ele>50.0</ele><time>2026-04-11T11:37:39Z</time></trkpt><trkpt lat="44.882153172593526" lon="10.1358008278806"><ele>50.5</ele><time>2026-04-11T11:37:40Z</time></trkpt><trkpt lat="44.88210057754372" lon="10.136154006172571"><ele>51.0</ele><time>2026-04-11T11:37:41Z</time></trkpt><trkpt lat="44.88204557159402" lon="10.136506146697217"><ele>50.5</ele><time>2026-04-11T11:37:42Z</time></trkpt><trkpt lat="44.881992145027205" lon="10.136858962003254"><ele>50.0</ele><time>2026-04-11T11:37:43Z</time></trkpt><trkpt lat="44.881942011792816" lon="10.137213952064451"><ele>49.5</ele><time>2026-04-11T11:37:44Z</time></trkpt><trkpt lat="44.88188400160727" lon="10.137568321142703"><ele>49.0</ele><time>2026-04-11T11:37:45Z</time></trkpt><trkpt lat="44.88182820027948" lon="10.13792462688895"><ele>49.5</ele><time>2026-04-11T11:37:46Z</time></trkpt><trkpt lat="44.88177296541191" lon="10.138283711489308"><ele>50.0</ele><time>2026-04-11T11:37:47Z</time></trkpt><trkpt lat="44.881718082165584" lon="10.13864074135388"><ele>49.5</ele><time>2026-04-11T11:37:48Z</time></trkpt><trkpt lat="44.881661193273175" lon="10.139001511269873"><ele>49.0</ele><time>2026-04-11T11:37:49.001Z</time></trkpt><trkpt lat="44.8816088569747" lon="10.13935791253677"><ele>49.0</ele><time>2026-04-11T11:37:50.001Z</time></trkpt><trkpt lat="44.88155430958759" lon="10.13972005788316"><ele>49.0</ele><time>2026-04-11T11:37:51.001Z</time></trkpt><trkpt lat="44.881496945150914" lon="10.140080378857323"><ele>49.5</ele><time>2026-04-11T11:37:52.001Z</time></trkpt><trkpt lat="44.881443271762855" lon="10.140440193256481"><ele>50.0</ele><time>2026-04-11T11:37:53.001Z</time></trkpt><trkpt lat="44.88138848322411" lon="10.140800271369612"><ele>50.0</ele><time>2026-04-11T11:37:54.001Z</time></trkpt><trkpt lat="44.881334392338395" lon="10.141158719113038"><ele>50.0</ele><time>2026-04-11T11:37:55.001Z</time></trkpt><trkpt lat="44.88128161005506" lon="10.14151601401628"><ele>50.0</ele><time>2026-04-11T11:37:56.001Z</time></trkpt><trkpt lat="44.88122676525693" lon="10.141869445673024"><ele>50.0</ele><time>2026-04-11T11:37:57.001Z</time></trkpt><trkpt lat="44.881172180186624" lon="10.142221993771201"><ele>49.5</ele><time>2026-04-11T11:37:58.001Z</time></trkpt><trkpt lat="44.881113966751286" lon="10.142574078453244"><ele>49.0</ele><time>2026-04-11T11:37:59.001Z</time></trkpt><trkpt lat="44.881055899231875" lon="10.14292754398875"><ele>48.0</ele><time>2026-04-11T11:38:00.001Z</time></trkpt><trkpt lat="44.88099412163343" lon="10.143281426800266"><ele>47.0</ele><time>2026-04-11T11:38:01.001Z</time></trkpt><trkpt lat="44.880937639494164" lon="10.14363515302142"><ele>47.0</ele><time>2026-04-11T11:38:02.001Z</time></trkpt><trkpt lat="44.88089000725391" lon="10.143991904382652"><ele>47.0</ele><time>2026-04-11T11:38:03.001Z</time></trkpt><trkpt lat="44.88083507659067" lon="10.14434531888042"><ele>47.0</ele><time>2026-04-11T11:38:04.001Z</time></trkpt><trkpt lat="44.88077907608057" lon="10.144700287263538"><ele>47.0</ele><time>2026-04-11T11:38:05.001Z</time></trkpt><trkpt lat="44.88072362525728" lon="10.145052788276255"><ele>47.5</ele><time>2026-04-11T11:38:06.001Z</time></trkpt><trkpt lat="44.8806681418779" lon="10.145405477609602"><ele>48.0</ele><time>2026-04-11T11:38:07.001Z</time></trkpt><trkpt lat="44.880608295224604" lon="10.145761165242286"><ele>48.0</ele><time>2026-04-11T11:38:08.001Z</time></trkpt><trkpt lat="44.88054791459662" lon="10.146115070258174"><ele>48.0</ele><time>2026-04-11T11:38:09.001Z</time></trkpt><trkpt lat="44.880490107426326" lon="10.146471920398435"><ele>48.0</ele><time>2026-04-11T11:38:10.001Z</time></trkpt><trkpt lat="44.88043214887686" lon="10.146828927849647"><ele>48.0</ele><time>2026-04-11T11:38:11.001Z</time></trkpt><trkpt lat="44.880371937699095" lon="10.147181655100052"><ele>48.0</ele><time>2026-04-11T11:38:12.001Z</time></trkpt><trkpt lat="44.88031187247838" lon="10.147545296933108"><ele>48.0</ele><time>2026-04-11T11:38:13.001Z</time></trkpt><trkpt lat="44.8802557182838" lon="10.147896364493466"><ele>48.0</ele><time>2026-04-11T11:38:14.001Z</time></trkpt><trkpt lat="44.880197033246425" lon="10.148250489665484"><ele>48.0</ele><time>2026-04-11T11:38:15.001Z</time></trkpt><trkpt lat="44.88013639204405" lon="10.148606562184343"><ele>49.0</ele><time>2026-04-11T11:38:16.001Z</time></trkpt><trkpt lat="44.88007880075124" lon="10.148963298808003"><ele>50.0</ele><time>2026-04-11T11:38:17.001Z</time></trkpt><trkpt lat="44.88001610718326" lon="10.149317839812024"><ele>48.0</ele><time>2026-04-11T11:38:18.001Z</time></trkpt><trkpt lat="44.87995484420033" lon="10.149674015850975"><ele>46.0</ele><time>2026-04-11T11:38:19.001Z</time></trkpt><trkpt lat="44.87989248333768" lon="10.150030991513228"><ele>46.0</ele><time>2026-04-11T11:38:20.001Z</time></trkpt><trkpt lat="44.879832807117175" lon="10.150386057270122"><ele>46.0</ele><time>2026-04-11T11:38:21.001Z</time></trkpt><trkpt lat="44.8797737609087" lon="10.150740622630464"><ele>46.5</ele><time>2026-04-11T11:38:22.001Z</time></trkpt><trkpt lat="44.87971337952003" lon="10.151093925733278"><ele>47.0</ele><time>2026-04-11T11:38:23.001Z</time></trkpt><trkpt lat="44.87965164093774" lon="10.151449267487031"><ele>47.0</ele><time>2026-04-11T11:38:24.001Z</time></trkpt><trkpt lat="44.87958935834469" lon="10.151804516797911"><ele>47.0</ele><time>2026-04-11T11:38:25.001Z</time></trkpt><trkpt lat="44.879528878136675" lon="10.152160108364065"><ele>46.5</ele><time>2026-04-11T11:38:26.001Z</time></trkpt><trkpt lat="44.87947112656921" lon="10.152514895111363"><ele>46.0</ele><time>2026-04-11T11:38:27.001Z</time></trkpt><trkpt lat="44.87941124498109" lon="10.152870142962177"><ele>46.0</ele><time>2026-04-11T11:38:28.001Z</time></trkpt><trkpt lat="44.8793519528665" lon="10.153224308369047"><ele>46.0</ele><time>2026-04-11T11:38:29.001Z</time></trkpt><trkpt lat="44.879292704144646" lon="10.153580087272488"><ele>46.0</ele><time>2026-04-11T11:38:30.001Z</time></trkpt><trkpt lat="44.8792333179458" lon="10.153935074815315"><ele>46.0</ele><time>2026-04-11T11:38:31.001Z</time></trkpt><trkpt lat="44.87917485173845" lon="10.154290671090925"><ele>46.0</ele><time>2026-04-11T11:38:32.001Z</time></trkpt><trkpt lat="44.87911160307408" lon="10.154647640568173"><ele>46.0</ele><time>2026-04-11T11:38:33.001Z</time></trkpt><trkpt lat="44.879049630733725" lon="10.155003484863405"><ele>46.0</ele><time>2026-04-11T11:38:34.001Z</time></trkpt><trkpt lat="44.87898878441873" lon="10.155358836106283"><ele>46.0</ele><time>2026-04-11T11:38:35.001Z</time></trkpt><trkpt lat="44.878932745706244" lon="10.155716880832479"><ele>46.5</ele><time>2026-04-11T11:38:36.001Z</time></trkpt><trkpt lat="44.87887166173954" lon="10.156073298498852"><ele>47.0</ele><time>2026-04-11T11:38:37.001Z</time></trkpt><trkpt lat="44.8788134989876" lon="10.156425290796536"><ele>46.5</ele><time>2026-04-11T11:38:38.001Z</time></trkpt><trkpt lat="44.87875475782069" lon="10.156783830694577"><ele>46.0</ele><time>2026-04-11T11:38:39.001Z</time></trkpt><trkpt lat="44.878693735302065" lon="10.157142445988303"><ele>46.0</ele><time>2026-04-11T11:38:40.001Z</time></trkpt><trkpt lat="44.87863366766734" lon="10.157497121056851"><ele>46.0</ele><time>2026-04-11T11:38:41.001Z</time></trkpt><trkpt lat="44.8785739316311" lon="10.157854516808428"><ele>46.5</ele><time>2026-04-11T11:38:42.001Z</time></trkpt><trkpt lat="44.87851367760376" lon="10.158205933387846"><ele>47.0</ele><time>2026-04-11T11:38:43.001Z</time></trkpt><trkpt lat="44.87845427928646" lon="10.158558819210358"><ele>47.0</ele><time>2026-04-11T11:38:44.001Z</time></trkpt><trkpt lat="44.87839619179069" lon="10.158914322481815"><ele>47.0</ele><time>2026-04-11T11:38:45.001Z</time></trkpt><trkpt lat="44.878337346843125" lon="10.159271841412773"><ele>47.0</ele><time>2026-04-11T11:38:46.001Z</time></trkpt><trkpt lat="44.8782788010613" lon="10.159625849518676"><ele>47.0</ele><time>2026-04-11T11:38:47.001Z</time></trkpt><trkpt lat="44.87821882710528" lon="10.159980503637298"><ele>46.5</ele><time>2026-04-11T11:38:48.001Z</time></trkpt><trkpt lat="44.87815803794192" lon="10.160334605559914"><ele>46.0</ele><time>2026-04-11T11:38:49.001Z</time></trkpt><trkpt lat="44.878099924450304" lon="10.160689793927023"><ele>46.5</ele><time>2026-04-11T11:38:50.001Z</time></trkpt><trkpt lat="44.878039727603024" lon="10.161045741971266"><ele>47.0</ele><time>2026-04-11T11:38:51.001Z</time></trkpt><trkpt lat="44.87797847768192" lon="10.161403390696726"><ele>46.5</ele><time>2026-04-11T11:38:52.001Z</time></trkpt><trkpt lat="44.877919532253635" lon="10.161761972914892"><ele>46.0</ele><time>2026-04-11T11:38:53.001Z</time></trkpt><trkpt lat="44.877855705038805" lon="10.162121067235423"><ele>47.0</ele><time>2026-04-11T11:38:54.001Z</time></trkpt><trkpt lat="44.87779566402589" lon="10.162480203392704"><ele>48.0</ele><time>2026-04-11T11:38:55.001Z</time></trkpt><trkpt lat="44.87773607868831" lon="10.1628352966191"><ele>48.0</ele><time>2026-04-11T11:38:56.001Z</time></trkpt><trkpt lat="44.877672826521085" lon="10.16319045605392"><ele>48.0</ele><time>2026-04-11T11:38:57.001Z</time></trkpt><trkpt lat="44.87761409481126" lon="10.163548230380199"><ele>48.0</ele><time>2026-04-11T11:38:58.001Z</time></trkpt><trkpt lat="44.8775539773512" lon="10.163905507947929"><ele>48.0</ele><time>2026-04-11T11:38:59.001Z</time></trkpt><trkpt lat="44.877491748919674" lon="10.164260312528834"><ele>47.0</ele><time>2026-04-11T11:39:00.001Z</time></trkpt><trkpt lat="44.87742991877194" lon="10.164608665186176"><ele>46.0</ele><time>2026-04-11T11:39:01.001Z</time></trkpt><trkpt lat="44.8773739364001" lon="10.164971361924092"><ele>46.0</ele><time>2026-04-11T11:39:02.001Z</time></trkpt><trkpt lat="44.87731486802654" lon="10.165324864356476"><ele>46.0</ele><time>2026-04-11T11:39:03.001Z</time></trkpt><trkpt lat="44.87725350132351" lon="10.165675633544499"><ele>46.0</ele><time>2026-04-11T11:39:04.001Z</time></trkpt><trkpt lat="44.87719210135563" lon="10.166027890141686"><ele>46.0</ele><time>2026-04-11T11:39:05.001Z</time></trkpt><trkpt lat="44.87713120137571" lon="10.166384667333103"><ele>46.0</ele><time>2026-04-11T11:39:06.001Z</time></trkpt><trkpt lat="44.87706887627755" lon="10.166739835452944"><ele>46.0</ele><time>2026-04-11T11:39:07.001Z</time></trkpt><trkpt lat="44.87700915091339" lon="10.167095924291214"><ele>46.5</ele><time>2026-04-11T11:39:08.001Z</time></trkpt><trkpt lat="44.876946798098004" lon="10.167450533271882"><ele>47.0</ele><time>2026-04-11T11:39:09.001Z</time></trkpt><trkpt lat="44.87688490578228" lon="10.167805748487371"><ele>47.0</ele><time>2026-04-11T11:39:10.001Z</time></trkpt><trkpt lat="44.876822163641904" lon="10.16816153503148"><ele>47.0</ele><time>2026-04-11T11:39:11.001Z</time></trkpt><trkpt lat="44.8767544238646" lon="10.168514622716792"><ele>47.5</ele><time>2026-04-11T11:39:12.001Z</time></trkpt><trkpt lat="44.8766878180329" lon="10.168865776742642"><ele>48.0</ele><time>2026-04-11T11:39:13.001Z</time></trkpt><trkpt lat="44.8766236128319" lon="10.169222230845536"><ele>48.5</ele><time>2026-04-11T11:39:14.001Z</time></trkpt><trkpt lat="44.8765640747927" lon="10.169581105104275"><ele>49.0</ele><time>2026-04-11T11:39:15.001Z</time></trkpt><trkpt lat="44.87650236717502" lon="10.169934016672338"><ele>49.0</ele><time>2026-04-11T11:39:16.001Z</time></trkpt><trkpt lat="44.87644307262629" lon="10.170289401800636"><ele>49.0</ele><time>2026-04-11T11:39:17.001Z</time></trkpt><trkpt lat="44.87637832658345" lon="10.170640630858722"><ele>47.5</ele><time>2026-04-11T11:39:18.001Z</time></trkpt><trkpt lat="44.87631919246952" lon="10.170994346911426"><ele>46.0</ele><time>2026-04-11T11:39:19.001Z</time></trkpt><trkpt lat="44.876258573483604" lon="10.171348215591658"><ele>46.5</ele><time>2026-04-11T11:39:20.001Z</time></trkpt><trkpt lat="44.876196846840124" lon="10.171703197006954"><ele>47.0</ele><time>2026-04-11T11:39:21.001Z</time></trkpt><trkpt lat="44.876136852950744" lon="10.172055876520774"><ele>47.5</ele><time>2026-04-11T11:39:22.001Z</time></trkpt><trkpt lat="44.87607630686571" lon="10.172412243396197"><ele>48.0</ele><time>2026-04-11T11:39:23.001Z</time></trkpt><trkpt lat="44.876016362063474" lon="10.172769518623173"><ele>48.0</ele><time>2026-04-11T11:39:24.001Z</time></trkpt><trkpt lat="44.87595605767369" lon="10.173128886540127"><ele>48.0</ele><time>2026-04-11T11:39:25.001Z</time></trkpt><trkpt lat="44.875894117325416" lon="10.173486394425645"><ele>46.5</ele><time>2026-04-11T11:39:26.001Z</time></trkpt><trkpt lat="44.875832288438595" lon="10.173839125466317"><ele>45.0</ele><time>2026-04-11T11:39:27.001Z</time></trkpt><trkpt lat="44.87577154895946" lon="10.1741934212599"><ele>45.0</ele><time>2026-04-11T11:39:28.001Z</time></trkpt><trkpt lat="44.875712887676755" lon="10.174541965274615"><ele>45.0</ele><time>2026-04-11T11:39:29.001Z</time></trkpt><trkpt lat="44.87565423569139" lon="10.174900890300735"><ele>45.0</ele><time>2026-04-11T11:39:30.001Z</time></trkpt><trkpt lat="44.87559663407061" lon="10.175255305306518"><ele>45.0</ele><time>2026-04-11T11:39:31.001Z</time></trkpt><trkpt lat="44.875538355020794" lon="10.17560815094821"><ele>45.5</ele><time>2026-04-11T11:39:32.001Z</time></trkpt><trkpt lat="44.87547900938579" lon="10.17596408569124"><ele>46.0</ele><time>2026-04-11T11:39:33.001Z</time></trkpt><trkpt lat="44.87542145070462" lon="10.176316317059971"><ele>45.0</ele><time>2026-04-11T11:39:34.001Z</time></trkpt><trkpt lat="44.87536045532493" lon="10.176674574680451"><ele>44.0</ele><time>2026-04-11T11:39:35.001Z</time></trkpt><trkpt lat="44.875301170058" lon="10.177029056397767"><ele>44.0</ele><time>2026-04-11T11:39:36.001Z</time></trkpt><trkpt lat="44.875240431721814" lon="10.177383345390057"><ele>44.0</ele><time>2026-04-11T11:39:37.001Z</time></trkpt><trkpt lat="44.87517977814541" lon="10.177739394803258"><ele>44.0</ele><time>2026-04-11T11:39:38.001Z</time></trkpt><trkpt lat="44.87512018417396" lon="10.178092426090824"><ele>44.0</ele><time>2026-04-11T11:39:39.001Z</time></trkpt><trkpt lat="44.87505810045585" lon="10.178451177292299"><ele>43.5</ele><time>2026-04-11T11:39:40.001Z</time></trkpt><trkpt lat="44.87499732203619" lon="10.178805766763169"><ele>43.0</ele><time>2026-04-11T11:39:41.001Z</time></trkpt><trkpt lat="44.87493641857986" lon="10.179161002951343"><ele>43.0</ele><time>2026-04-11T11:39:42.001Z</time></trkpt><trkpt lat="44.87487618087674" lon="10.179515066224386"><ele>43.0</ele><time>2026-04-11T11:39:43.001Z</time></trkpt><trkpt lat="44.87481632420831" lon="10.17987171410282"><ele>43.5</ele><time>2026-04-11T11:39:44.001Z</time></trkpt><trkpt lat="44.874757456273535" lon="10.18022656562188"><ele>44.0</ele><time>2026-04-11T11:39:45.001Z</time></trkpt><trkpt lat="44.87469537033927" lon="10.180579824052517"><ele>43.5</ele><time>2026-04-11T11:39:46.001Z</time></trkpt><trkpt lat="44.874633692350194" lon="10.180934167222782"><ele>43.0</ele><time>2026-04-11T11:39:47.001Z</time></trkpt><trkpt lat="44.87457325027502" lon="10.181287251850723"><ele>44.0</ele><time>2026-04-11T11:39:48.001Z</time></trkpt><trkpt lat="44.874513499049115" lon="10.181642349686483"><ele>45.0</ele><time>2026-04-11T11:39:49.001Z</time></trkpt><trkpt lat="44.874452313102275" lon="10.181996505317807"><ele>44.0</ele><time>2026-04-11T11:39:50.001Z</time></trkpt><trkpt lat="44.874395341052285" lon="10.182349165492107"><ele>43.0</ele><time>2026-04-11T11:39:51.001Z</time></trkpt><trkpt lat="44.874335779743035" lon="10.182704990528512"><ele>43.0</ele><time>2026-04-11T11:39:52.001Z</time></trkpt><trkpt lat="44.87427632652122" lon="10.183059145387016"><ele>43.0</ele><time>2026-04-11T11:39:53.001Z</time></trkpt><trkpt lat="44.874214962390866" lon="10.18341307931771"><ele>43.5</ele><time>2026-04-11T11:39:54.001Z</time></trkpt><trkpt lat="44.87415434143513" lon="10.18376834650975"><ele>44.0</ele><time>2026-04-11T11:39:55.001Z</time></trkpt><trkpt lat="44.874094653407596" lon="10.184126662825864"><ele>44.0</ele><time>2026-04-11T11:39:56.001Z</time></trkpt><trkpt lat="44.874034207787744" lon="10.184484021176615"><ele>44.0</ele><time>2026-04-11T11:39:57.001Z</time></trkpt><trkpt lat="44.87397353386446" lon="10.18484103080863"><ele>43.0</ele><time>2026-04-11T11:39:58.001Z</time></trkpt><trkpt lat="44.873912532553675" lon="10.185194367082753"><ele>42.0</ele><time>2026-04-11T11:39:59.001Z</time></trkpt><trkpt lat="44.873851221655485" lon="10.185552103768737"><ele>42.5</ele><time>2026-04-11T11:40:00.001Z</time></trkpt><trkpt lat="44.87379042026005" lon="10.185906446925278"><ele>43.0</ele><time>2026-04-11T11:40:01.001Z</time></trkpt><trkpt lat="44.873728117270495" lon="10.186262114659945"><ele>43.5</ele><time>2026-04-11T11:40:02.001Z</time></trkpt><trkpt lat="44.87366630052381" lon="10.186615403154285"><ele>44.0</ele><time>2026-04-11T11:40:03.001Z</time></trkpt><trkpt lat="44.87360457146493" lon="10.186974001863529"><ele>44.0</ele><time>2026-04-11T11:40:04.001Z</time></trkpt><trkpt lat="44.87354240288274" lon="10.187330423977162"><ele>44.0</ele><time>2026-04-11T11:40:05.001Z</time></trkpt><trkpt lat="44.87348119174072" lon="10.18768540812362"><ele>43.0</ele><time>2026-04-11T11:40:06.001Z</time></trkpt><trkpt lat="44.87342087744067" lon="10.188043681475083"><ele>42.0</ele><time>2026-04-11T11:40:07.001Z</time></trkpt><trkpt lat="44.873361104948714" lon="10.188403474088512"><ele>42.0</ele><time>2026-04-11T11:40:08.001Z</time></trkpt><trkpt lat="44.873300660921025" lon="10.188759559224156"><ele>42.0</ele><time>2026-04-11T11:40:09.001Z</time></trkpt><trkpt lat="44.873239932459505" lon="10.189114598200504"><ele>42.0</ele><time>2026-04-11T11:40:10.001Z</time></trkpt><trkpt lat="44.873181225351324" lon="10.189468768295699"><ele>42.0</ele><time>2026-04-11T11:40:11.001Z</time></trkpt><trkpt lat="44.873125419402655" lon="10.189825874532985"><ele>43.5</ele><time>2026-04-11T11:40:12.001Z</time></trkpt><trkpt lat="44.87306894406321" lon="10.190182325988243"><ele>45.0</ele><time>2026-04-11T11:40:13.001Z</time></trkpt><trkpt lat="44.87301108788254" lon="10.19053442753014"><ele>44.5</ele><time>2026-04-11T11:40:14.001Z</time></trkpt><trkpt lat="44.87294969685001" lon="10.19089144216036"><ele>44.0</ele><time>2026-04-11T11:40:15.001Z</time></trkpt><trkpt lat="44.8728867579315" lon="10.191245779778003"><ele>43.5</ele><time>2026-04-11T11:40:16.001Z</time></trkpt><trkpt lat="44.87282358296608" lon="10.191601205465005"><ele>43.0</ele><time>2026-04-11T11:40:17.001Z</time></trkpt><trkpt lat="44.872763038421134" lon="10.191954276991854"><ele>43.0</ele><time>2026-04-11T11:40:18.001Z</time></trkpt><trkpt lat="44.872703284894804" lon="10.192311314867261"><ele>43.0</ele><time>2026-04-11T11:40:19.001Z</time></trkpt><trkpt lat="44.87264566330473" lon="10.192664969362779"><ele>43.5</ele><time>2026-04-11T11:40:20.001Z</time></trkpt><trkpt lat="44.87258733430365" lon="10.193023204059706"><ele>44.0</ele><time>2026-04-11T11:40:21.001Z</time></trkpt><trkpt lat="44.87252704961529" lon="10.193376393939088"><ele>44.5</ele><time>2026-04-11T11:40:22.001Z</time></trkpt><trkpt lat="44.87246321537299" lon="10.193733151919833"><ele>45.0</ele><time>2026-04-11T11:40:23.001Z</time></trkpt><trkpt lat="44.87240148035693" lon="10.19408754108321"><ele>45.0</ele><time>2026-04-11T11:40:24.001Z</time></trkpt><trkpt lat="44.87233937547393" lon="10.194441449499912"><ele>45.0</ele><time>2026-04-11T11:40:25.001Z</time></trkpt><trkpt lat="44.87227817634811" lon="10.194794956169169"><ele>44.5</ele><time>2026-04-11T11:40:26.001Z</time></trkpt><trkpt lat="44.87221649730672" lon="10.195151432083872"><ele>44.0</ele><time>2026-04-11T11:40:27Z</time></trkpt><trkpt lat="44.87215959478494" lon="10.195504890406864"><ele>43.5</ele><time>2026-04-11T11:40:28Z</time></trkpt><trkpt lat="44.87210138308967" lon="10.195863869737035"><ele>43.0</ele><time>2026-04-11T11:40:29Z</time></trkpt><trkpt lat="44.872044502744956" lon="10.196220120522565"><ele>43.5</ele><time>2026-04-11T11:40:30Z</time></trkpt><trkpt lat="44.87198511327771" lon="10.196579570740624"><ele>44.0</ele><time>2026-04-11T11:40:31Z</time></trkpt><trkpt lat="44.87192198168149" lon="10.196934899286479"><ele>44.0</ele><time>2026-04-11T11:40:32Z</time></trkpt><trkpt lat="44.871859708507905" lon="10.19728665337647"><ele>44.0</ele><time>2026-04-11T11:40:33Z</time></trkpt><trkpt lat="44.87179561093702" lon="10.197639068782275"><ele>44.0</ele><time>2026-04-11T11:40:34Z</time></trkpt><trkpt lat="44.87173208900538" lon="10.197989333753526"><ele>44.0</ele><time>2026-04-11T11:40:35Z</time></trkpt><trkpt lat="44.87167239095044" lon="10.198342208014095"><ele>44.0</ele><time>2026-04-11T11:40:36Z</time></trkpt><trkpt lat="44.871615148714035" lon="10.198697953814273"><ele>44.0</ele><time>2026-04-11T11:40:37Z</time></trkpt><trkpt lat="44.87155833371709" lon="10.199056305168936"><ele>44.5</ele><time>2026-04-11T11:40:38Z</time></trkpt><trkpt lat="44.87149954727017" lon="10.199411618609616"><ele>45.0</ele><time>2026-04-11T11:40:39Z</time></trkpt><trkpt lat="44.87143876036845" lon="10.19976614217402"><ele>45.5</ele><time>2026-04-11T11:40:40Z</time></trkpt><trkpt lat="44.87137757350491" lon="10.200121142487435"><ele>46.0</ele><time>2026-04-11T11:40:41Z</time></trkpt><trkpt lat="44.87131706437284" lon="10.200475986791309"><ele>45.5</ele><time>2026-04-11T11:40:42Z</time></trkpt><trkpt lat="44.871255721658834" lon="10.20083111658794"><ele>45.0</ele><time>2026-04-11T11:40:43Z</time></trkpt><trkpt lat="44.87119517879609" lon="10.201189988838435"><ele>44.5</ele><time>2026-04-11T11:40:44Z</time></trkpt><trkpt lat="44.87113514853224" lon="10.201544967189024"><ele>44.0</ele><time>2026-04-11T11:40:45Z</time></trkpt><trkpt lat="44.871073995461394" lon="10.201903076461889"><ele>44.0</ele><time>2026-04-11T11:40:46Z</time></trkpt><trkpt lat="44.8710129809349" lon="10.202259000259177"><ele>44.0</ele><time>2026-04-11T11:40:47Z</time></trkpt><trkpt lat="44.87095256495717" lon="10.202613980944772"><ele>44.0</ele><time>2026-04-11T11:40:48Z</time></trkpt><trkpt lat="44.87089093060021" lon="10.202970777804719"><ele>44.0</ele><time>2026-04-11T11:40:49Z</time></trkpt><trkpt lat="44.87082998516906" lon="10.203324802327275"><ele>44.0</ele><time>2026-04-11T11:40:50Z</time></trkpt><trkpt lat="44.87076785850914" lon="10.203678732132657"><ele>44.0</ele><time>2026-04-11T11:40:51Z</time></trkpt><trkpt lat="44.87070945323995" lon="10.204036756432691"><ele>44.0</ele><time>2026-04-11T11:40:52Z</time></trkpt><trkpt lat="44.87065150880807" lon="10.204392723263453"><ele>44.0</ele><time>2026-04-11T11:40:53Z</time></trkpt><trkpt lat="44.87058961229237" lon="10.204752196827226"><ele>43.5</ele><time>2026-04-11T11:40:54Z</time></trkpt><trkpt lat="44.870528848788034" lon="10.205107712241222"><ele>43.0</ele><time>2026-04-11T11:40:55Z</time></trkpt><trkpt lat="44.87046629575447" lon="10.205463557415877"><ele>43.0</ele><time>2026-04-11T11:40:56Z</time></trkpt><trkpt lat="44.870403478853184" lon="10.20581930671107"><ele>43.0</ele><time>2026-04-11T11:40:57Z</time></trkpt><trkpt lat="44.870339020183245" lon="10.206173513381476"><ele>44.5</ele><time>2026-04-11T11:40:58Z</time></trkpt><trkpt lat="44.870274802993784" lon="10.206527297947133"><ele>46.0</ele><time>2026-04-11T11:40:59Z</time></trkpt><trkpt lat="44.87021727203137" lon="10.206880604660839"><ele>46.0</ele><time>2026-04-11T11:41:00Z</time></trkpt><trkpt lat="44.87016232445402" lon="10.207236026972538"><ele>46.0</ele><time>2026-04-11T11:41:01Z</time></trkpt><trkpt lat="44.8701063345602" lon="10.207591868207444"><ele>45.5</ele><time>2026-04-11T11:41:02Z</time></trkpt><trkpt lat="44.87004661875497" lon="10.207945354381346"><ele>45.0</ele><time>2026-04-11T11:41:03Z</time></trkpt><trkpt lat="44.869986590091415" lon="10.208302187404955"><ele>45.0</ele><time>2026-04-11T11:41:04Z</time></trkpt><trkpt lat="44.8699274811751" lon="10.208660958034647"><ele>45.0</ele><time>2026-04-11T11:41:05Z</time></trkpt><trkpt lat="44.86986910745254" lon="10.209017667079316"><ele>45.0</ele><time>2026-04-11T11:41:06Z</time></trkpt><trkpt lat="44.86980940927875" lon="10.209374349355821"><ele>45.0</ele><time>2026-04-11T11:41:07Z</time></trkpt><trkpt lat="44.86974853353436" lon="10.209730017771136"><ele>45.0</ele><time>2026-04-11T11:41:08Z</time></trkpt><trkpt lat="44.86968819357439" lon="10.210084391367031"><ele>45.0</ele><time>2026-04-11T11:41:09Z</time></trkpt><trkpt lat="44.869628361299476" lon="10.210440720199069"><ele>44.5</ele><time>2026-04-11T11:41:10Z</time></trkpt><trkpt lat="44.86956737195301" lon="10.2107941752083"><ele>44.0</ele><time>2026-04-11T11:41:11Z</time></trkpt><trkpt lat="44.86950604909223" lon="10.211146762158213"><ele>44.5</ele><time>2026-04-11T11:41:12Z</time></trkpt><trkpt lat="44.869446041449265" lon="10.211499087846466"><ele>45.0</ele><time>2026-04-11T11:41:13Z</time></trkpt><trkpt lat="44.869387588443054" lon="10.211854474630686"><ele>45.0</ele><time>2026-04-11T11:41:14Z</time></trkpt><trkpt lat="44.86932977844132" lon="10.21220836701829"><ele>45.0</ele><time>2026-04-11T11:41:15Z</time></trkpt><trkpt lat="44.869268755892" lon="10.212562699326899"><ele>44.5</ele><time>2026-04-11T11:41:16Z</time></trkpt><trkpt lat="44.86920728179219" lon="10.212917132138019"><ele>44.0</ele><time>2026-04-11T11:41:17Z</time></trkpt><trkpt lat="44.86914676811025" lon="10.213271749333298"><ele>46.0</ele><time>2026-04-11T11:41:18Z</time></trkpt><trkpt lat="44.869088400573126" lon="10.21362693417557"><ele>48.0</ele><time>2026-04-11T11:41:19Z</time></trkpt><trkpt lat="44.86902998503908" lon="10.213984987016055"><ele>47.0</ele><time>2026-04-11T11:41:20Z</time></trkpt><trkpt lat="44.86897009233459" lon="10.21434130986708"><ele>46.0</ele><time>2026-04-11T11:41:21Z</time></trkpt><trkpt lat="44.86890976678153" lon="10.214699209876573"><ele>45.0</ele><time>2026-04-11T11:41:22Z</time></trkpt><trkpt lat="44.86885170750083" lon="10.215054287593553"><ele>44.0</ele><time>2026-04-11T11:41:23Z</time></trkpt><trkpt lat="44.86879055869299" lon="10.215412675172889"><ele>43.5</ele><time>2026-04-11T11:41:24Z</time></trkpt><trkpt lat="44.86873035842669" lon="10.215765493659825"><ele>43.0</ele><time>2026-04-11T11:41:25Z</time></trkpt><trkpt lat="44.868670868664616" lon="10.21612215278502"><ele>43.0</ele><time>2026-04-11T11:41:26Z</time></trkpt><trkpt lat="44.86860800748543" lon="10.216481563826962"><ele>43.0</ele><time>2026-04-11T11:41:27Z</time></trkpt><trkpt lat="44.86854790257604" lon="10.216836476368558"><ele>43.0</ele><time>2026-04-11T11:41:28Z</time></trkpt><trkpt lat="44.8684882940257" lon="10.217191627293717"><ele>43.0</ele><time>2026-04-11T11:41:29Z</time></trkpt><trkpt lat="44.868429361002356" lon="10.217547449837019"><ele>43.0</ele><time>2026-04-11T11:41:30Z</time></trkpt><trkpt lat="44.86837026986673" lon="10.217902544154029"><ele>43.0</ele><time>2026-04-11T11:41:31Z</time></trkpt><trkpt lat="44.86831058132467" lon="10.218257484549794"><ele>43.0</ele><time>2026-04-11T11:41:32Z</time></trkpt><trkpt lat="44.86824773402593" lon="10.218616773396466"><ele>43.0</ele><time>2026-04-11T11:41:33Z</time></trkpt><trkpt lat="44.86818411487456" lon="10.218972948476754"><ele>43.0</ele><time>2026-04-11T11:41:34Z</time></trkpt><trkpt lat="44.86812399939578" lon="10.219328806983487"><ele>43.0</ele><time>2026-04-11T11:41:35Z</time></trkpt><trkpt lat="44.86806413427239" lon="10.219681753937866"><ele>43.5</ele><time>2026-04-11T11:41:36Z</time></trkpt><trkpt lat="44.868003491930914" lon="10.220033847888267"><ele>44.0</ele><time>2026-04-11T11:41:37Z</time></trkpt><trkpt lat="44.867942574851746" lon="10.22038826687287"><ele>44.0</ele><time>2026-04-11T11:41:38Z</time></trkpt><trkpt lat="44.86788135345007" lon="10.220742121670975"><ele>44.0</ele><time>2026-04-11T11:41:39Z</time></trkpt><trkpt lat="44.867817659403734" lon="10.221098138054648"><ele>44.0</ele><time>2026-04-11T11:41:40Z</time></trkpt><trkpt lat="44.86775566007003" lon="10.221451757651597"><ele>44.0</ele><time>2026-04-11T11:41:41Z</time></trkpt><trkpt lat="44.8676944954596" lon="10.221802972666778"><ele>43.5</ele><time>2026-04-11T11:41:42Z</time></trkpt><trkpt lat="44.86763119443162" lon="10.22215474150302"><ele>43.0</ele><time>2026-04-11T11:41:43Z</time></trkpt><trkpt lat="44.86756383782779" lon="10.222507655501024"><ele>43.0</ele><time>2026-04-11T11:41:44Z</time></trkpt><trkpt lat="44.86749194728259" lon="10.222862353128143"><ele>43.0</ele><time>2026-04-11T11:41:45Z</time></trkpt><trkpt lat="44.86742083707721" lon="10.22321458508709"><ele>43.0</ele><time>2026-04-11T11:41:46Z</time></trkpt><trkpt lat="44.867347074659584" lon="10.223568557971287"><ele>43.0</ele><time>2026-04-11T11:41:47Z</time></trkpt><trkpt lat="44.86727391094796" lon="10.223918534630632"><ele>43.0</ele><time>2026-04-11T11:41:48Z</time></trkpt><trkpt lat="44.8671982547899" lon="10.224266017243474"><ele>43.0</ele><time>2026-04-11T11:41:49Z</time></trkpt><trkpt lat="44.86712343008996" lon="10.22461720432978"><ele>43.0</ele><time>2026-04-11T11:41:50Z</time></trkpt><trkpt lat="44.867049390245285" lon="10.224963850116474"><ele>43.0</ele><time>2026-04-11T11:41:51Z</time></trkpt><trkpt lat="44.86697016881079" lon="10.225311557648437"><ele>44.0</ele><time>2026-04-11T11:41:52Z</time></trkpt><trkpt lat="44.86688786012193" lon="10.225660762412588"><ele>45.0</ele><time>2026-04-11T11:41:53Z</time></trkpt><trkpt lat="44.86680677382885" lon="10.226011087605192"><ele>45.0</ele><time>2026-04-11T11:41:54Z</time></trkpt><trkpt lat="44.86673108655346" lon="10.226356201098397"><ele>45.0</ele><time>2026-04-11T11:41:55Z</time></trkpt><trkpt lat="44.86665694361872" lon="10.226698576053943"><ele>45.0</ele><time>2026-04-11T11:41:56Z</time></trkpt><trkpt lat="44.86656068602919" lon="10.227053779024486"><ele>45.0</ele><time>2026-04-11T11:41:57Z</time></trkpt><trkpt lat="44.86647675416483" lon="10.227404227385568"><ele>45.0</ele><time>2026-04-11T11:41:58Z</time></trkpt><trkpt lat="44.86638980797831" lon="10.227753190406938"><ele>45.0</ele><time>2026-04-11T11:41:59Z</time></trkpt><trkpt lat="44.86630747158767" lon="10.228097388571115"><ele>45.0</ele><time>2026-04-11T11:42:00Z</time></trkpt><trkpt lat="44.86622170936486" lon="10.228438686014625"><ele>45.0</ele><time>2026-04-11T11:42:01Z</time></trkpt><trkpt lat="44.866136521652656" lon="10.228780031225634"><ele>44.0</ele><time>2026-04-11T11:42:02Z</time></trkpt><trkpt lat="44.8660565905431" lon="10.2291226589761"><ele>43.0</ele><time>2026-04-11T11:42:03Z</time></trkpt><trkpt lat="44.86597384369277" lon="10.229473208428244"><ele>43.5</ele><time>2026-04-11T11:42:04Z</time></trkpt><trkpt lat="44.865889714092205" lon="10.229814031663151"><ele>44.0</ele><time>2026-04-11T11:42:05Z</time></trkpt><trkpt lat="44.86580702705824" lon="10.230160532885812"><ele>44.0</ele><time>2026-04-11T11:42:06Z</time></trkpt><trkpt lat="44.86572169304134" lon="10.230507060039573"><ele>44.0</ele><time>2026-04-11T11:42:07Z</time></trkpt><trkpt lat="44.86564315653467" lon="10.230852063972316"><ele>43.5</ele><time>2026-04-11T11:42:08Z</time></trkpt><trkpt lat="44.8655668289107" lon="10.231196629936088"><ele>43.0</ele><time>2026-04-11T11:42:09Z</time></trkpt><trkpt lat="44.86548576700775" lon="10.231543472539334"><ele>42.5</ele><time>2026-04-11T11:42:10Z</time></trkpt><trkpt lat="44.86540162065245" lon="10.231886688983002"><ele>42.0</ele><time>2026-04-11T11:42:11Z</time></trkpt><trkpt lat="44.86532074098749" lon="10.232230299545652"><ele>43.0</ele><time>2026-04-11T11:42:12Z</time></trkpt><trkpt lat="44.86523768294699" lon="10.232576687424062"><ele>44.0</ele><time>2026-04-11T11:42:13Z</time></trkpt><trkpt lat="44.865157229413335" lon="10.232925908616762"><ele>43.5</ele><time>2026-04-11T11:42:14Z</time></trkpt><trkpt lat="44.865078913549034" lon="10.233272757151935"><ele>43.0</ele><time>2026-04-11T11:42:15Z</time></trkpt><trkpt lat="44.86499565780018" lon="10.233620952466051"><ele>43.0</ele><time>2026-04-11T11:42:16Z</time></trkpt><trkpt lat="44.864913048538284" lon="10.233969774850332"><ele>43.0</ele><time>2026-04-11T11:42:17Z</time></trkpt><trkpt lat="44.86482684535261" lon="10.234317216273901"><ele>43.5</ele><time>2026-04-11T11:42:18Z</time></trkpt><trkpt lat="44.864741532634824" lon="10.234668014526058"><ele>44.0</ele><time>2026-04-11T11:42:19Z</time></trkpt><trkpt lat="44.86465940995061" lon="10.23501492772127"><ele>44.5</ele><time>2026-04-11T11:42:20Z</time></trkpt><trkpt lat="44.86457760077776" lon="10.23536036905185"><ele>45.0</ele><time>2026-04-11T11:42:21Z</time></trkpt><trkpt lat="44.864496291963356" lon="10.235708144932302"><ele>46.0</ele><time>2026-04-11T11:42:22Z</time></trkpt><trkpt lat="44.864415114393886" lon="10.23605722101418"><ele>47.0</ele><time>2026-04-11T11:42:23Z</time></trkpt><trkpt lat="44.86433317311667" lon="10.236397194162478"><ele>46.0</ele><time>2026-04-11T11:42:24Z</time></trkpt><trkpt lat="44.864250525271444" lon="10.236750619125331"><ele>45.0</ele><time>2026-04-11T11:42:25Z</time></trkpt><trkpt lat="44.864164691764245" lon="10.237097229347127"><ele>45.5</ele><time>2026-04-11T11:42:26Z</time></trkpt><trkpt lat="44.86408103832851" lon="10.237442643875035"><ele>46.0</ele><time>2026-04-11T11:42:27Z</time></trkpt><trkpt lat="44.86399846645408" lon="10.237790539941743"><ele>46.0</ele><time>2026-04-11T11:42:28Z</time></trkpt><trkpt lat="44.86391576505583" lon="10.238132878793417"><ele>46.0</ele><time>2026-04-11T11:42:29Z</time></trkpt><trkpt lat="44.86383246496201" lon="10.238483673397678"><ele>45.5</ele><time>2026-04-11T11:42:30Z</time></trkpt><trkpt lat="44.86375018109685" lon="10.238831053599446"><ele>45.0</ele><time>2026-04-11T11:42:31Z</time></trkpt><trkpt lat="44.863669602740146" lon="10.239179926194351"><ele>45.0</ele><time>2026-04-11T11:42:32Z</time></trkpt><trkpt lat="44.86358934889561" lon="10.239525791885201"><ele>45.0</ele><time>2026-04-11T11:42:33Z</time></trkpt><trkpt lat="44.86350687578042" lon="10.239871388203525"><ele>44.5</ele><time>2026-04-11T11:42:34Z</time></trkpt><trkpt lat="44.863424312362234" lon="10.240216086997878"><ele>44.0</ele><time>2026-04-11T11:42:35Z</time></trkpt><trkpt lat="44.86334387125104" lon="10.240559290429976"><ele>43.0</ele><time>2026-04-11T11:42:36Z</time></trkpt><trkpt lat="44.86325897656059" lon="10.240906795833613"><ele>42.0</ele><time>2026-04-11T11:42:37Z</time></trkpt><trkpt lat="44.86317829357642" lon="10.241251490950976"><ele>41.5</ele><time>2026-04-11T11:42:38Z</time></trkpt><trkpt lat="44.863098066652356" lon="10.241602613935774"><ele>41.0</ele><time>2026-04-11T11:42:39Z</time></trkpt><trkpt lat="44.863016795849404" lon="10.241945356533348"><ele>41.0</ele><time>2026-04-11T11:42:40Z</time></trkpt><trkpt lat="44.8629325211357" lon="10.242291021322554"><ele>41.0</ele><time>2026-04-11T11:42:41Z</time></trkpt><trkpt lat="44.8628504537308" lon="10.242637279122041"><ele>41.0</ele><time>2026-04-11T11:42:42Z</time></trkpt><trkpt lat="44.86276650664613" lon="10.242989704594493"><ele>41.0</ele><time>2026-04-11T11:42:43Z</time></trkpt><trkpt lat="44.862685013716046" lon="10.243331386982703"><ele>41.5</ele><time>2026-04-11T11:42:44Z</time></trkpt><trkpt lat="44.8626017575979" lon="10.243680124671455"><ele>42.0</ele><time>2026-04-11T11:42:45Z</time></trkpt><trkpt lat="44.86252004176482" lon="10.244021432827557"><ele>42.0</ele><time>2026-04-11T11:42:46Z</time></trkpt><trkpt lat="44.862438302683685" lon="10.244369985268206"><ele>42.0</ele><time>2026-04-11T11:42:47Z</time></trkpt><trkpt lat="44.86235704936501" lon="10.244717147770748"><ele>43.5</ele><time>2026-04-11T11:42:48Z</time></trkpt><trkpt lat="44.862274072201686" lon="10.245064736572182"><ele>45.0</ele><time>2026-04-11T11:42:49Z</time></trkpt><trkpt lat="44.862190958195384" lon="10.245412636702028"><ele>44.5</ele><time>2026-04-11T11:42:50Z</time></trkpt><trkpt lat="44.86210705935495" lon="10.245760042447854"><ele>44.0</ele><time>2026-04-11T11:42:51Z</time></trkpt><trkpt lat="44.86202333948397" lon="10.24610487848721"><ele>44.0</ele><time>2026-04-11T11:42:52Z</time></trkpt><trkpt lat="44.86194058380509" lon="10.246448244089779"><ele>44.0</ele><time>2026-04-11T11:42:53.001Z</time></trkpt><trkpt lat="44.86185903751039" lon="10.246792741862162"><ele>44.0</ele><time>2026-04-11T11:42:54.001Z</time></trkpt><trkpt lat="44.861778170420415" lon="10.24713565660355"><ele>44.0</ele><time>2026-04-11T11:42:55.001Z</time></trkpt><trkpt lat="44.86169564827362" lon="10.247481706358169"><ele>44.5</ele><time>2026-04-11T11:42:56.001Z</time></trkpt><trkpt lat="44.86161172630648" lon="10.24782676095065"><ele>45.0</ele><time>2026-04-11T11:42:57.001Z</time></trkpt><trkpt lat="44.861527458461616" lon="10.248171502604347"><ele>45.0</ele><time>2026-04-11T11:42:58.001Z</time></trkpt><trkpt lat="44.861443391931445" lon="10.248518340488593"><ele>45.0</ele><time>2026-04-11T11:42:59.001Z</time></trkpt><trkpt lat="44.86135842096626" lon="10.248865305533391"><ele>45.0</ele><time>2026-04-11T11:43:00.001Z</time></trkpt><trkpt lat="44.861275135645926" lon="10.249211819490277"><ele>45.0</ele><time>2026-04-11T11:43:01.001Z</time></trkpt><trkpt lat="44.861192840391034" lon="10.249561512096754"><ele>43.5</ele><time>2026-04-11T11:43:02.001Z</time></trkpt><trkpt lat="44.86111188970097" lon="10.249910643186825"><ele>42.0</ele><time>2026-04-11T11:43:03.001Z</time></trkpt><trkpt lat="44.861028889131" lon="10.250258238208634"><ele>42.0</ele><time>2026-04-11T11:43:04.001Z</time></trkpt><trkpt lat="44.86094318818938" lon="10.250607100134765"><ele>42.0</ele><time>2026-04-11T11:43:05.001Z</time></trkpt><trkpt lat="44.860856354737" lon="10.250954396134379"><ele>42.0</ele><time>2026-04-11T11:43:06.001Z</time></trkpt><trkpt lat="44.86077224503962" lon="10.251301635199434"><ele>42.0</ele><time>2026-04-11T11:43:07.001Z</time></trkpt><trkpt lat="44.86069065427941" lon="10.251650576561236"><ele>41.5</ele><time>2026-04-11T11:43:08.001Z</time></trkpt><trkpt lat="44.86060669322351" lon="10.25200200348513"><ele>41.0</ele><time>2026-04-11T11:43:09.001Z</time></trkpt><trkpt lat="44.86052429261107" lon="10.252349599359091"><ele>41.0</ele><time>2026-04-11T11:43:10.001Z</time></trkpt><trkpt lat="44.86044165265967" lon="10.252697973843064"><ele>41.0</ele><time>2026-04-11T11:43:11.001Z</time></trkpt><trkpt lat="44.86036022403341" lon="10.253045460010354"><ele>41.0</ele><time>2026-04-11T11:43:12.001Z</time></trkpt><trkpt lat="44.86027608889087" lon="10.25339145570112"><ele>41.0</ele><time>2026-04-11T11:43:13.001Z</time></trkpt><trkpt lat="44.86019327744971" lon="10.253735163689273"><ele>41.0</ele><time>2026-04-11T11:43:14.001Z</time></trkpt><trkpt lat="44.86011178056287" lon="10.254081943445666"><ele>41.0</ele><time>2026-04-11T11:43:15.001Z</time></trkpt><trkpt lat="44.86003007539782" lon="10.254424294247636"><ele>41.0</ele><time>2026-04-11T11:43:16.001Z</time></trkpt><trkpt lat="44.85994717811551" lon="10.254768072937111"><ele>41.0</ele><time>2026-04-11T11:43:17Z</time></trkpt><trkpt lat="44.859864266805616" lon="10.25511322061167"><ele>41.5</ele><time>2026-04-11T11:43:18Z</time></trkpt><trkpt lat="44.859782362628025" lon="10.255453141741548"><ele>42.0</ele><time>2026-04-11T11:43:19Z</time></trkpt><trkpt lat="44.85970154576529" lon="10.255800557479665"><ele>42.0</ele><time>2026-04-11T11:43:20Z</time></trkpt><trkpt lat="44.85962419857013" lon="10.256149920167962"><ele>42.0</ele><time>2026-04-11T11:43:21Z</time></trkpt><trkpt lat="44.859540382979795" lon="10.256497753815378"><ele>42.0</ele><time>2026-04-11T11:43:22Z</time></trkpt><trkpt lat="44.85945877334484" lon="10.256839672578913"><ele>42.0</ele><time>2026-04-11T11:43:23Z</time></trkpt><trkpt lat="44.859376868763434" lon="10.257182555533817"><ele>42.0</ele><time>2026-04-11T11:43:24Z</time></trkpt><trkpt lat="44.859294985515476" lon="10.257522583777817"><ele>42.0</ele><time>2026-04-11T11:43:25Z</time></trkpt><trkpt lat="44.85921318078246" lon="10.25786808403569"><ele>41.0</ele><time>2026-04-11T11:43:26Z</time></trkpt><trkpt lat="44.859129217975756" lon="10.258212060671408"><ele>40.0</ele><time>2026-04-11T11:43:27Z</time></trkpt><trkpt lat="44.85904709802545" lon="10.258556550872173"><ele>40.0</ele><time>2026-04-11T11:43:28Z</time></trkpt><trkpt lat="44.85896416389406" lon="10.25889875334826"><ele>40.0</ele><time>2026-04-11T11:43:29Z</time></trkpt><trkpt lat="44.858881799087996" lon="10.259243269973927"><ele>40.0</ele><time>2026-04-11T11:43:30Z</time></trkpt><trkpt lat="44.85879670963624" lon="10.259586467955204"><ele>40.0</ele><time>2026-04-11T11:43:31Z</time></trkpt><trkpt lat="44.85871363482529" lon="10.259928562576109"><ele>40.0</ele><time>2026-04-11T11:43:32Z</time></trkpt><trkpt lat="44.85863181540009" lon="10.260276594153328"><ele>40.0</ele><time>2026-04-11T11:43:33Z</time></trkpt><trkpt lat="44.858551743454825" lon="10.260624120382545"><ele>40.0</ele><time>2026-04-11T11:43:34Z</time></trkpt><trkpt lat="44.85846856721767" lon="10.260971770109734"><ele>40.0</ele><time>2026-04-11T11:43:35Z</time></trkpt><trkpt lat="44.85838814754145" lon="10.261318851738764"><ele>40.5</ele><time>2026-04-11T11:43:36Z</time></trkpt><trkpt lat="44.85831002437011" lon="10.261670503165792"><ele>41.0</ele><time>2026-04-11T11:43:37Z</time></trkpt><trkpt lat="44.8582283632529" lon="10.262017093804113"><ele>40.0</ele><time>2026-04-11T11:43:38Z</time></trkpt><trkpt lat="44.85814535805528" lon="10.26236759843568"><ele>39.0</ele><time>2026-04-11T11:43:39Z</time></trkpt><trkpt lat="44.85806503477162" lon="10.262713726555651"><ele>39.0</ele><time>2026-04-11T11:43:40Z</time></trkpt><trkpt lat="44.85798280631814" lon="10.263059226774459"><ele>39.0</ele><time>2026-04-11T11:43:41Z</time></trkpt><trkpt lat="44.857899798976156" lon="10.263403565544811"><ele>38.5</ele><time>2026-04-11T11:43:42Z</time></trkpt><trkpt lat="44.85781599340197" lon="10.263750417936185"><ele>38.0</ele><time>2026-04-11T11:43:43Z</time></trkpt><trkpt lat="44.857729270101736" lon="10.264099103219946"><ele>38.0</ele><time>2026-04-11T11:43:44Z</time></trkpt><trkpt lat="44.85764300430921" lon="10.264440816125509"><ele>38.0</ele><time>2026-04-11T11:43:45Z</time></trkpt><trkpt lat="44.85755794214454" lon="10.264784423852303"><ele>38.5</ele><time>2026-04-11T11:43:46Z</time></trkpt><trkpt lat="44.857473911626506" lon="10.26513041910913"><ele>39.0</ele><time>2026-04-11T11:43:47Z</time></trkpt><trkpt lat="44.85739058980207" lon="10.265478133347413"><ele>39.5</ele><time>2026-04-11T11:43:48Z</time></trkpt><trkpt lat="44.857308032342544" lon="10.265826207949571"><ele>40.0</ele><time>2026-04-11T11:43:49Z</time></trkpt><trkpt lat="44.85722509293764" lon="10.26617412878344"><ele>39.5</ele><time>2026-04-11T11:43:50Z</time></trkpt><trkpt lat="44.85714205147346" lon="10.266525921102126"><ele>39.0</ele><time>2026-04-11T11:43:51Z</time></trkpt><trkpt lat="44.85705919507383" lon="10.266873061599163"><ele>39.0</ele><time>2026-04-11T11:43:52Z</time></trkpt><trkpt lat="44.856976477547484" lon="10.267219380731381"><ele>39.0</ele><time>2026-04-11T11:43:53Z</time></trkpt><trkpt lat="44.85689401417164" lon="10.267565818267625"><ele>39.0</ele><time>2026-04-11T11:43:54Z</time></trkpt><trkpt lat="44.85680953729423" lon="10.26791189894484"><ele>39.0</ele><time>2026-04-11T11:43:55Z</time></trkpt><trkpt lat="44.85672649025676" lon="10.268258840801064"><ele>39.5</ele><time>2026-04-11T11:43:56Z</time></trkpt><trkpt lat="44.856643708738574" lon="10.268604990154264"><ele>40.0</ele><time>2026-04-11T11:43:57Z</time></trkpt><trkpt lat="44.85656013197017" lon="10.268953580925347"><ele>39.0</ele><time>2026-04-11T11:43:58Z</time></trkpt><trkpt lat="44.856477102126924" lon="10.269297559311472"><ele>38.0</ele><time>2026-04-11T11:43:59Z</time></trkpt><trkpt lat="44.85639410995451" lon="10.269646551718653"><ele>38.5</ele><time>2026-04-11T11:44:00Z</time></trkpt><trkpt lat="44.85630973064714" lon="10.269990366997352"><ele>39.0</ele><time>2026-04-11T11:44:01Z</time></trkpt><trkpt lat="44.856224813135576" lon="10.270332940725957"><ele>40.0</ele><time>2026-04-11T11:44:02.001Z</time></trkpt><trkpt lat="44.85614170132849" lon="10.270677246503391"><ele>41.0</ele><time>2026-04-11T11:44:03.001Z</time></trkpt><trkpt lat="44.856061404260416" lon="10.27101906013597"><ele>41.0</ele><time>2026-04-11T11:44:04.001Z</time></trkpt><trkpt lat="44.85598016626827" lon="10.271360255189645"><ele>41.0</ele><time>2026-04-11T11:44:05.001Z</time></trkpt><trkpt lat="44.855897817520095" lon="10.271704198548942"><ele>39.5</ele><time>2026-04-11T11:44:06.001Z</time></trkpt><trkpt lat="44.85581447265685" lon="10.272045074001923"><ele>38.0</ele><time>2026-04-11T11:44:07.001Z</time></trkpt><trkpt lat="44.855734229705575" lon="10.272392075732617"><ele>38.0</ele><time>2026-04-11T11:44:08.001Z</time></trkpt><trkpt lat="44.85565361969907" lon="10.27274118060852"><ele>38.0</ele><time>2026-04-11T11:44:09.001Z</time></trkpt><trkpt lat="44.85557415719668" lon="10.273089725811149"><ele>39.0</ele><time>2026-04-11T11:44:10.001Z</time></trkpt><trkpt lat="44.855492679624255" lon="10.27343766959277"><ele>40.0</ele><time>2026-04-11T11:44:11.001Z</time></trkpt><trkpt lat="44.855409191519215" lon="10.273787957456996"><ele>39.5</ele><time>2026-04-11T11:44:12.001Z</time></trkpt><trkpt lat="44.855325375648455" lon="10.27413465969483"><ele>39.0</ele><time>2026-04-11T11:44:13.001Z</time></trkpt><trkpt lat="44.8552419141394" lon="10.274484130821525"><ele>40.0</ele><time>2026-04-11T11:44:14.001Z</time></trkpt><trkpt lat="44.85515852263766" lon="10.274833380586552"><ele>41.0</ele><time>2026-04-11T11:44:15.001Z</time></trkpt><trkpt lat="44.85507169966968" lon="10.275180093856047"><ele>41.5</ele><time>2026-04-11T11:44:16.001Z</time></trkpt><trkpt lat="44.8549895410525" lon="10.275526191724792"><ele>42.0</ele><time>2026-04-11T11:44:17.001Z</time></trkpt><trkpt lat="44.8549085101676" lon="10.27587080593391"><ele>42.0</ele><time>2026-04-11T11:44:18.001Z</time></trkpt><trkpt lat="44.85482795790244" lon="10.276217783384883"><ele>42.0</ele><time>2026-04-11T11:44:19.001Z</time></trkpt><trkpt lat="44.8547478407197" lon="10.276565381781351"><ele>41.0</ele><time>2026-04-11T11:44:20.001Z</time></trkpt><trkpt lat="44.85466417576461" lon="10.276913302338148"><ele>40.0</ele><time>2026-04-11T11:44:21.001Z</time></trkpt><trkpt lat="44.85457974172975" lon="10.277258183733576"><ele>39.0</ele><time>2026-04-11T11:44:22.001Z</time></trkpt><trkpt lat="44.85449524131964" lon="10.277603561909402"><ele>38.0</ele><time>2026-04-11T11:44:23.001Z</time></trkpt><trkpt lat="44.85441116817912" lon="10.277947175210551"><ele>38.0</ele><time>2026-04-11T11:44:24.001Z</time></trkpt><trkpt lat="44.85432707564147" lon="10.278290766673965"><ele>38.0</ele><time>2026-04-11T11:44:25.001Z</time></trkpt><trkpt lat="44.85424319366629" lon="10.278635578933782"><ele>37.5</ele><time>2026-04-11T11:44:26.001Z</time></trkpt><trkpt lat="44.854161129319515" lon="10.278978371491768"><ele>37.0</ele><time>2026-04-11T11:44:27.001Z</time></trkpt><trkpt lat="44.85407785700973" lon="10.27932763805127"><ele>37.0</ele><time>2026-04-11T11:44:28.001Z</time></trkpt><trkpt lat="44.85399438774421" lon="10.279672599229002"><ele>37.0</ele><time>2026-04-11T11:44:29.001Z</time></trkpt><trkpt lat="44.85391171961979" lon="10.280021898688648"><ele>36.5</ele><time>2026-04-11T11:44:30.001Z</time></trkpt><trkpt lat="44.853829051686766" lon="10.28036767005205"><ele>36.0</ele><time>2026-04-11T11:44:31.001Z</time></trkpt><trkpt lat="44.85374502876999" lon="10.280713541856551"><ele>36.0</ele><time>2026-04-11T11:44:32.001Z</time></trkpt><trkpt lat="44.85365997134823" lon="10.28105853098983"><ele>36.0</ele><time>2026-04-11T11:44:33.001Z</time></trkpt><trkpt lat="44.85357725080326" lon="10.281403304586728"><ele>36.5</ele><time>2026-04-11T11:44:34.001Z</time></trkpt><trkpt lat="44.853499062622795" lon="10.281752396214847"><ele>37.0</ele><time>2026-04-11T11:44:35.001Z</time></trkpt><trkpt lat="44.85342563941096" lon="10.282099011943503"><ele>37.5</ele><time>2026-04-11T11:44:36.001Z</time></trkpt><trkpt lat="44.85334393211841" lon="10.282447642672539"><ele>38.0</ele><time>2026-04-11T11:44:37.001Z</time></trkpt><trkpt lat="44.85326246809647" lon="10.282787298619759"><ele>37.5</ele><time>2026-04-11T11:44:38.001Z</time></trkpt><trkpt lat="44.85317748556734" lon="10.283134418405487"><ele>37.0</ele><time>2026-04-11T11:44:39.001Z</time></trkpt><trkpt lat="44.85309423662398" lon="10.283479279665261"><ele>37.0</ele><time>2026-04-11T11:44:40.001Z</time></trkpt><trkpt lat="44.85300924997175" lon="10.283825801091746"><ele>37.0</ele><time>2026-04-11T11:44:41.001Z</time></trkpt><trkpt lat="44.85292631484671" lon="10.284168667912168"><ele>37.0</ele><time>2026-04-11T11:44:42.001Z</time></trkpt><trkpt lat="44.85284250280348" lon="10.284516723065163"><ele>37.0</ele><time>2026-04-11T11:44:43.001Z</time></trkpt><trkpt lat="44.852758979471474" lon="10.28486776130907"><ele>37.0</ele><time>2026-04-11T11:44:44.001Z</time></trkpt><trkpt lat="44.852671867827915" lon="10.285213102362377"><ele>37.0</ele><time>2026-04-11T11:44:45.001Z</time></trkpt><trkpt lat="44.85258825420539" lon="10.285558224568568"><ele>35.0</ele><time>2026-04-11T11:44:46.001Z</time></trkpt><trkpt lat="44.85250499055308" lon="10.28590334375816"><ele>33.0</ele><time>2026-04-11T11:44:47.001Z</time></trkpt><trkpt lat="44.852423158786635" lon="10.286251371695567"><ele>33.0</ele><time>2026-04-11T11:44:48.001Z</time></trkpt><trkpt lat="44.852342918000964" lon="10.286600109978657"><ele>33.0</ele><time>2026-04-11T11:44:49.001Z</time></trkpt><trkpt lat="44.85226170887326" lon="10.286949212858875"><ele>33.5</ele><time>2026-04-11T11:44:50.001Z</time></trkpt><trkpt lat="44.85217961374703" lon="10.287293258144873"><ele>34.0</ele><time>2026-04-11T11:44:51Z</time></trkpt><trkpt lat="44.85209687104524" lon="10.287641210386466"><ele>34.0</ele><time>2026-04-11T11:44:52Z</time></trkpt><trkpt lat="44.852012267480426" lon="10.287986312589565"><ele>34.0</ele><time>2026-04-11T11:44:53Z</time></trkpt><trkpt lat="44.85192887505904" lon="10.288331303165828"><ele>34.5</ele><time>2026-04-11T11:44:54Z</time></trkpt><trkpt lat="44.8518450633891" lon="10.288678320932492"><ele>35.0</ele><time>2026-04-11T11:44:55Z</time></trkpt><trkpt lat="44.85176235736288" lon="10.28902583611504"><ele>36.5</ele><time>2026-04-11T11:44:56Z</time></trkpt><trkpt lat="44.85168073767865" lon="10.289375359727549"><ele>38.0</ele><time>2026-04-11T11:44:57Z</time></trkpt><trkpt lat="44.85159757983682" lon="10.289722119317108"><ele>37.5</ele><time>2026-04-11T11:44:58Z</time></trkpt><trkpt lat="44.85151465489592" lon="10.290069819467144"><ele>37.0</ele><time>2026-04-11T11:44:59Z</time></trkpt><trkpt lat="44.85143230082586" lon="10.290417023548175"><ele>36.0</ele><time>2026-04-11T11:45:00Z</time></trkpt><trkpt lat="44.851350562594966" lon="10.29076319613813"><ele>35.0</ele><time>2026-04-11T11:45:01Z</time></trkpt><trkpt lat="44.85126765873319" lon="10.29111017281954"><ele>35.5</ele><time>2026-04-11T11:45:02Z</time></trkpt><trkpt lat="44.85118368219921" lon="10.29145225756594"><ele>36.0</ele><time>2026-04-11T11:45:03Z</time></trkpt><trkpt lat="44.85109928173645" lon="10.291796826540448"><ele>36.0</ele><time>2026-04-11T11:45:04Z</time></trkpt><trkpt lat="44.85101422738714" lon="10.292137376720493"><ele>36.0</ele><time>2026-04-11T11:45:05Z</time></trkpt><trkpt lat="44.85092982882243" lon="10.29248144485639"><ele>35.5</ele><time>2026-04-11T11:45:06Z</time></trkpt><trkpt lat="44.850846280126945" lon="10.292827518961694"><ele>35.0</ele><time>2026-04-11T11:45:07Z</time></trkpt><trkpt lat="44.850760565590186" lon="10.293168880579701"><ele>36.0</ele><time>2026-04-11T11:45:08Z</time></trkpt><trkpt lat="44.850674963740175" lon="10.293512362895024"><ele>37.0</ele><time>2026-04-11T11:45:09Z</time></trkpt><trkpt lat="44.85059091675581" lon="10.293858835572383"><ele>37.5</ele><time>2026-04-11T11:45:10Z</time></trkpt><trkpt lat="44.85050817301106" lon="10.294206966490187"><ele>38.0</ele><time>2026-04-11T11:45:11Z</time></trkpt><trkpt lat="44.85042628342775" lon="10.29455350910374"><ele>38.0</ele><time>2026-04-11T11:45:12Z</time></trkpt><trkpt lat="44.850344917348444" lon="10.294898693620421"><ele>38.0</ele><time>2026-04-11T11:45:13Z</time></trkpt><trkpt lat="44.850263963272795" lon="10.295245974674609"><ele>38.5</ele><time>2026-04-11T11:45:14Z</time></trkpt><trkpt lat="44.85018128958214" lon="10.29559335155151"><ele>39.0</ele><time>2026-04-11T11:45:15Z</time></trkpt><trkpt lat="44.850098548199256" lon="10.295939028531118"><ele>39.5</ele><time>2026-04-11T11:45:16Z</time></trkpt><trkpt lat="44.85001608389599" lon="10.296286923070399"><ele>40.0</ele><time>2026-04-11T11:45:17Z</time></trkpt><trkpt lat="44.84993345093123" lon="10.296632897529129"><ele>39.0</ele><time>2026-04-11T11:45:18Z</time></trkpt><trkpt lat="44.84985192110078" lon="10.296977957418392"><ele>38.0</ele><time>2026-04-11T11:45:19Z</time></trkpt><trkpt lat="44.84976976243472" lon="10.297324482524099"><ele>38.0</ele><time>2026-04-11T11:45:20Z</time></trkpt><trkpt lat="44.84968719792938" lon="10.297669465832412"><ele>38.0</ele><time>2026-04-11T11:45:21Z</time></trkpt><trkpt lat="44.84960380123324" lon="10.298016421636827"><ele>38.5</ele><time>2026-04-11T11:45:22Z</time></trkpt><trkpt lat="44.84952048753983" lon="10.298360799061124"><ele>39.0</ele><time>2026-04-11T11:45:23Z</time></trkpt><trkpt lat="44.849436349310835" lon="10.29870788800251"><ele>39.0</ele><time>2026-04-11T11:45:24Z</time></trkpt><trkpt lat="44.849353875480595" lon="10.29905495879613"><ele>39.0</ele><time>2026-04-11T11:45:25Z</time></trkpt><trkpt lat="44.84927061660947" lon="10.299400456592997"><ele>39.0</ele><time>2026-04-11T11:45:26Z</time></trkpt><trkpt lat="44.84918628983323" lon="10.299748103485243"><ele>39.0</ele><time>2026-04-11T11:45:27Z</time></trkpt><trkpt lat="44.84910088650005" lon="10.300096415238833"><ele>39.0</ele><time>2026-04-11T11:45:28Z</time></trkpt><trkpt lat="44.84901694522245" lon="10.300444431195919"><ele>39.0</ele><time>2026-04-11T11:45:29Z</time></trkpt><trkpt lat="44.84893410301021" lon="10.300793924892833"><ele>39.0</ele><time>2026-04-11T11:45:30Z</time></trkpt><trkpt lat="44.84885072268426" lon="10.301143529940402"><ele>39.0</ele><time>2026-04-11T11:45:31Z</time></trkpt><trkpt lat="44.84876863852079" lon="10.30149157902029"><ele>38.0</ele><time>2026-04-11T11:45:32Z</time></trkpt><trkpt lat="44.848685082525314" lon="10.301836903660696"><ele>37.0</ele><time>2026-04-11T11:45:33Z</time></trkpt><trkpt lat="44.84860033923868" lon="10.302184971934462"><ele>37.5</ele><time>2026-04-11T11:45:34Z</time></trkpt><trkpt lat="44.84851824943294" lon="10.302531261852268"><ele>38.0</ele><time>2026-04-11T11:45:35Z</time></trkpt><trkpt lat="44.84844334574044" lon="10.302877411778478"><ele>38.5</ele><time>2026-04-11T11:45:36Z</time></trkpt><trkpt lat="44.84836964719337" lon="10.303225782261162"><ele>39.0</ele><time>2026-04-11T11:45:37Z</time></trkpt><trkpt lat="44.84829316254284" lon="10.303575046639718"><ele>39.0</ele><time>2026-04-11T11:45:38Z</time></trkpt><trkpt lat="44.84821487882227" lon="10.303919482057431"><ele>39.0</ele><time>2026-04-11T11:45:39Z</time></trkpt><trkpt lat="44.84813308677694" lon="10.304265625735631"><ele>39.0</ele><time>2026-04-11T11:45:40Z</time></trkpt><trkpt lat="44.84804934727943" lon="10.304608570905778"><ele>39.0</ele><time>2026-04-11T11:45:41Z</time></trkpt><trkpt lat="44.8479651116338" lon="10.304952509942826"><ele>39.5</ele><time>2026-04-11T11:45:42Z</time></trkpt><trkpt lat="44.84788289215476" lon="10.305294061182005"><ele>40.0</ele><time>2026-04-11T11:45:43Z</time></trkpt><trkpt lat="44.8478022172174" lon="10.305637943040123"><ele>40.5</ele><time>2026-04-11T11:45:44Z</time></trkpt><trkpt lat="44.84772018478265" lon="10.305984385045148"><ele>41.0</ele><time>2026-04-11T11:45:45Z</time></trkpt><trkpt lat="44.847636039452226" lon="10.30632909433924"><ele>42.0</ele><time>2026-04-11T11:45:46Z</time></trkpt><trkpt lat="44.847551909704286" lon="10.30667569553539"><ele>43.0</ele><time>2026-04-11T11:45:47Z</time></trkpt><trkpt lat="44.84747022145379" lon="10.307019400896754"><ele>42.0</ele><time>2026-04-11T11:45:48Z</time></trkpt><trkpt lat="44.847388453883156" lon="10.307368149188592"><ele>41.0</ele><time>2026-04-11T11:45:49Z</time></trkpt><trkpt lat="44.84730756211455" lon="10.30771669983123"><ele>41.0</ele><time>2026-04-11T11:45:50Z</time></trkpt><trkpt lat="44.84722358424194" lon="10.308067154705457"><ele>41.0</ele><time>2026-04-11T11:45:51Z</time></trkpt><trkpt lat="44.84714137364612" lon="10.308414256752101"><ele>41.0</ele><time>2026-04-11T11:45:52Z</time></trkpt><trkpt lat="44.847058471916974" lon="10.308760229365234"><ele>41.0</ele><time>2026-04-11T11:45:53Z</time></trkpt><trkpt lat="44.84697506244068" lon="10.309107321635596"><ele>41.0</ele><time>2026-04-11T11:45:54Z</time></trkpt><trkpt lat="44.84689274018931" lon="10.309453952579288"><ele>41.0</ele><time>2026-04-11T11:45:55Z</time></trkpt><trkpt lat="44.84681176316036" lon="10.309798746763448"><ele>42.0</ele><time>2026-04-11T11:45:56Z</time></trkpt><trkpt lat="44.846731018269985" lon="10.310141228252197"><ele>43.0</ele><time>2026-04-11T11:45:57Z</time></trkpt><trkpt lat="44.84664871713004" lon="10.310484859476341"><ele>42.0</ele><time>2026-04-11T11:45:58Z</time></trkpt><trkpt lat="44.84656905249009" lon="10.31082284169655"><ele>41.0</ele><time>2026-04-11T11:45:59Z</time></trkpt><trkpt lat="44.846485577682785" lon="10.311166918679683"><ele>40.5</ele><time>2026-04-11T11:46:00Z</time></trkpt><trkpt lat="44.84640012571219" lon="10.311508780984195"><ele>40.0</ele><time>2026-04-11T11:46:01Z</time></trkpt><trkpt lat="44.84631530860564" lon="10.311854987649639"><ele>40.0</ele><time>2026-04-11T11:46:02Z</time></trkpt><trkpt lat="44.84622828259405" lon="10.312202083967597"><ele>40.0</ele><time>2026-04-11T11:46:03Z</time></trkpt><trkpt lat="44.846139912054504" lon="10.31254996338401"><ele>40.5</ele><time>2026-04-11T11:46:04Z</time></trkpt><trkpt lat="44.846053507430156" lon="10.31289805431658"><ele>41.0</ele><time>2026-04-11T11:46:05Z</time></trkpt><trkpt lat="44.84597093927108" lon="10.313247842000868"><ele>41.5</ele><time>2026-04-11T11:46:06Z</time></trkpt><trkpt lat="44.84588655741356" lon="10.313598656711717"><ele>42.0</ele><time>2026-04-11T11:46:07Z</time></trkpt><trkpt lat="44.8458039888592" lon="10.313949075348672"><ele>42.5</ele><time>2026-04-11T11:46:08Z</time></trkpt><trkpt lat="44.84571946791265" lon="10.314302875038585"><ele>43.0</ele><time>2026-04-11T11:46:09Z</time></trkpt><trkpt lat="44.84563713504645" lon="10.314650431589271"><ele>43.0</ele><time>2026-04-11T11:46:10Z</time></trkpt><trkpt lat="44.84555550470213" lon="10.315000315243076"><ele>43.0</ele><time>2026-04-11T11:46:11Z</time></trkpt><trkpt lat="44.84547343413901" lon="10.315348686135046"><ele>42.0</ele><time>2026-04-11T11:46:12Z</time></trkpt><trkpt lat="44.84539063970382" lon="10.315699035028118"><ele>41.0</ele><time>2026-04-11T11:46:13Z</time></trkpt><trkpt lat="44.84530889989606" lon="10.316043297496426"><ele>41.0</ele><time>2026-04-11T11:46:14Z</time></trkpt><trkpt lat="44.84522277434014" lon="10.316388470108999"><ele>41.0</ele><time>2026-04-11T11:46:15Z</time></trkpt><trkpt lat="44.84513864248759" lon="10.31673030145187"><ele>41.0</ele><time>2026-04-11T11:46:16Z</time></trkpt><trkpt lat="44.84505308690915" lon="10.317075849534804"><ele>41.0</ele><time>2026-04-11T11:46:17Z</time></trkpt><trkpt lat="44.84496493344831" lon="10.317417817670993"><ele>41.5</ele><time>2026-04-11T11:46:18Z</time></trkpt><trkpt lat="44.84487483334314" lon="10.317755596433473"><ele>42.0</ele><time>2026-04-11T11:46:19Z</time></trkpt><trkpt lat="44.84478982181883" lon="10.318097247353396"><ele>40.5</ele><time>2026-04-11T11:46:20Z</time></trkpt><trkpt lat="44.8447112089532" lon="10.318441066696597"><ele>39.0</ele><time>2026-04-11T11:46:21Z</time></trkpt><trkpt lat="44.84462962601274" lon="10.318780544035906"><ele>39.5</ele><time>2026-04-11T11:46:22Z</time></trkpt><trkpt lat="44.844543669012396" lon="10.319122177938375"><ele>40.0</ele><time>2026-04-11T11:46:23Z</time></trkpt><trkpt lat="44.84445773566991" lon="10.31946243818539"><ele>40.0</ele><time>2026-04-11T11:46:24Z</time></trkpt><trkpt lat="44.84437338264192" lon="10.31980522126174"><ele>40.0</ele><time>2026-04-11T11:46:25Z</time></trkpt><trkpt lat="44.844289743251004" lon="10.320149986178217"><ele>39.5</ele><time>2026-04-11T11:46:26Z</time></trkpt><trkpt lat="44.844208016173354" lon="10.320494381728372"><ele>39.0</ele><time>2026-04-11T11:46:27Z</time></trkpt><trkpt lat="44.844125804934336" lon="10.320834186947947"><ele>40.0</ele><time>2026-04-11T11:46:28Z</time></trkpt><trkpt lat="44.84404232189994" lon="10.32117582037878"><ele>41.0</ele><time>2026-04-11T11:46:29Z</time></trkpt><trkpt lat="44.84395844848899" lon="10.321520178277996"><ele>41.0</ele><time>2026-04-11T11:46:30Z</time></trkpt><trkpt lat="44.84387552759246" lon="10.32186153713637"><ele>41.0</ele><time>2026-04-11T11:46:31Z</time></trkpt><trkpt lat="44.84379345221018" lon="10.32221034075052"><ele>42.0</ele><time>2026-04-11T11:46:32Z</time></trkpt><trkpt lat="44.8437119814056" lon="10.322553904695937"><ele>43.0</ele><time>2026-04-11T11:46:33Z</time></trkpt><trkpt lat="44.84363029156998" lon="10.32290028055037"><ele>42.0</ele><time>2026-04-11T11:46:34Z</time></trkpt><trkpt lat="44.84354809739728" lon="10.323244695412708"><ele>41.0</ele><time>2026-04-11T11:46:35Z</time></trkpt><trkpt lat="44.84346321579589" lon="10.323592964384135"><ele>40.0</ele><time>2026-04-11T11:46:36Z</time></trkpt><trkpt lat="44.8433809846193" lon="10.32393499687798"><ele>39.0</ele><time>2026-04-11T11:46:37Z</time></trkpt><trkpt lat="44.84329810641581" lon="10.32428168689781"><ele>39.0</ele><time>2026-04-11T11:46:38Z</time></trkpt><trkpt lat="44.84321438600973" lon="10.324627649901005"><ele>39.0</ele><time>2026-04-11T11:46:39Z</time></trkpt><trkpt lat="44.84313209434386" lon="10.32497255748823"><ele>39.0</ele><time>2026-04-11T11:46:40Z</time></trkpt><trkpt lat="44.84304951019159" lon="10.325314946299356"><ele>39.0</ele><time>2026-04-11T11:46:41Z</time></trkpt><trkpt lat="44.84296605436271" lon="10.325661807389283"><ele>39.0</ele><time>2026-04-11T11:46:42Z</time></trkpt><trkpt lat="44.84288359489119" lon="10.326008679423444"><ele>39.0</ele><time>2026-04-11T11:46:43Z</time></trkpt><trkpt lat="44.842801339805355" lon="10.32635526410442"><ele>39.0</ele><time>2026-04-11T11:46:44Z</time></trkpt><trkpt lat="44.84271971627034" lon="10.326698951108424"><ele>39.0</ele><time>2026-04-11T11:46:45Z</time></trkpt><trkpt lat="44.84263764472246" lon="10.327049986222546"><ele>40.0</ele><time>2026-04-11T11:46:46Z</time></trkpt><trkpt lat="44.84255440889903" lon="10.327395089583234"><ele>41.0</ele><time>2026-04-11T11:46:47Z</time></trkpt><trkpt lat="44.84247122075622" lon="10.327740647128827"><ele>40.5</ele><time>2026-04-11T11:46:48Z</time></trkpt><trkpt lat="44.84238646208852" lon="10.328085613113581"><ele>40.0</ele><time>2026-04-11T11:46:49Z</time></trkpt><trkpt lat="44.84230132298985" lon="10.328432650712175"><ele>40.0</ele><time>2026-04-11T11:46:50Z</time></trkpt><trkpt lat="44.84221734802542" lon="10.328779695277326"><ele>40.0</ele><time>2026-04-11T11:46:51Z</time></trkpt><trkpt lat="44.8421336340699" lon="10.329121998542375"><ele>39.0</ele><time>2026-04-11T11:46:52Z</time></trkpt><trkpt lat="44.842049703101814" lon="10.329471877644425"><ele>38.0</ele><time>2026-04-11T11:46:53Z</time></trkpt><trkpt lat="44.84196683218289" lon="10.32982017566142"><ele>37.5</ele><time>2026-04-11T11:46:54Z</time></trkpt><trkpt lat="44.84188495876759" lon="10.330166815919304"><ele>37.0</ele><time>2026-04-11T11:46:55Z</time></trkpt><trkpt lat="44.84180317163205" lon="10.330516577948767"><ele>37.0</ele><time>2026-04-11T11:46:56Z</time></trkpt><trkpt lat="44.841721021338586" lon="10.330866172387795"><ele>37.0</ele><time>2026-04-11T11:46:57Z</time></trkpt><trkpt lat="44.84163925066497" lon="10.33121587083503"><ele>36.5</ele><time>2026-04-11T11:46:58Z</time></trkpt><trkpt lat="44.84155662604308" lon="10.331564480714464"><ele>36.0</ele><time>2026-04-11T11:46:59Z</time></trkpt><trkpt lat="44.84147324145566" lon="10.331910234578555"><ele>37.0</ele><time>2026-04-11T11:47:00Z</time></trkpt><trkpt lat="44.841389040672155" lon="10.33225664034414"><ele>38.0</ele><time>2026-04-11T11:47:01Z</time></trkpt><trkpt lat="44.8413051842514" lon="10.332602116484503"><ele>38.0</ele><time>2026-04-11T11:47:02Z</time></trkpt><trkpt lat="44.841221959315064" lon="10.332946071775359"><ele>38.0</ele><time>2026-04-11T11:47:03Z</time></trkpt><trkpt lat="44.84113967780101" lon="10.333292555025949"><ele>38.5</ele><time>2026-04-11T11:47:04Z</time></trkpt><trkpt lat="44.84105701627285" lon="10.33363815215536"><ele>39.0</ele><time>2026-04-11T11:47:05Z</time></trkpt><trkpt lat="44.840974378072275" lon="10.333983221353368"><ele>38.0</ele><time>2026-04-11T11:47:06Z</time></trkpt><trkpt lat="44.840891848556595" lon="10.33432440798725"><ele>37.0</ele><time>2026-04-11T11:47:07Z</time></trkpt><trkpt lat="44.84080645119995" lon="10.334670822179472"><ele>37.0</ele><time>2026-04-11T11:47:08Z</time></trkpt><trkpt lat="44.84072204312217" lon="10.335015628348806"><ele>37.0</ele><time>2026-04-11T11:47:09Z</time></trkpt><trkpt lat="44.84063820981339" lon="10.33536062134254"><ele>37.0</ele><time>2026-04-11T11:47:10Z</time></trkpt><trkpt lat="44.840553816446366" lon="10.335702705139761"><ele>37.0</ele><time>2026-04-11T11:47:11Z</time></trkpt><trkpt lat="44.84047065486196" lon="10.336047691816535"><ele>37.5</ele><time>2026-04-11T11:47:12Z</time></trkpt><trkpt lat="44.84038814134995" lon="10.336390071660512"><ele>38.0</ele><time>2026-04-11T11:47:13.001Z</time></trkpt><trkpt lat="44.84030359112056" lon="10.336732384603096"><ele>38.0</ele><time>2026-04-11T11:47:14.001Z</time></trkpt><trkpt lat="44.84022208123993" lon="10.337080318173435"><ele>38.0</ele><time>2026-04-11T11:47:15.001Z</time></trkpt><trkpt lat="44.84014641852219" lon="10.337426128364646"><ele>38.0</ele><time>2026-04-11T11:47:16.001Z</time></trkpt><trkpt lat="44.8400747609554" lon="10.337780985103917"><ele>38.0</ele><time>2026-04-11T11:47:17.001Z</time></trkpt><trkpt lat="44.839997799526664" lon="10.338128767456883"><ele>38.0</ele><time>2026-04-11T11:47:18.001Z</time></trkpt><trkpt lat="44.839915929553214" lon="10.338472490066435"><ele>38.0</ele><time>2026-04-11T11:47:19.001Z</time></trkpt><trkpt lat="44.83983385645194" lon="10.338815864752306"><ele>39.5</ele><time>2026-04-11T11:47:20.001Z</time></trkpt><trkpt lat="44.83975198974064" lon="10.339159708200011"><ele>41.0</ele><time>2026-04-11T11:47:21.001Z</time></trkpt><trkpt lat="44.839668070137456" lon="10.339503851859519"><ele>40.5</ele><time>2026-04-11T11:47:22.001Z</time></trkpt><trkpt lat="44.83958270855516" lon="10.339848136108467"><ele>40.0</ele><time>2026-04-11T11:47:23.001Z</time></trkpt><trkpt lat="44.83949772629101" lon="10.340192108984526"><ele>40.0</ele><time>2026-04-11T11:47:24.001Z</time></trkpt><trkpt lat="44.83941407966373" lon="10.340537043310837"><ele>40.0</ele><time>2026-04-11T11:47:25.001Z</time></trkpt><trkpt lat="44.839332653502915" lon="10.340887890270468"><ele>39.0</ele><time>2026-04-11T11:47:26.001Z</time></trkpt><trkpt lat="44.83924858584173" lon="10.341236369081608"><ele>38.0</ele><time>2026-04-11T11:47:27.001Z</time></trkpt><trkpt lat="44.839165136344576" lon="10.34158326578574"><ele>37.5</ele><time>2026-04-11T11:47:28.001Z</time></trkpt><trkpt lat="44.83908333762296" lon="10.341930436415378"><ele>37.0</ele><time>2026-04-11T11:47:29Z</time></trkpt><trkpt lat="44.839001163021265" lon="10.342277866803292"><ele>36.5</ele><time>2026-04-11T11:47:30Z</time></trkpt><trkpt lat="44.838918632295325" lon="10.342622782760818"><ele>36.0</ele><time>2026-04-11T11:47:31Z</time></trkpt><trkpt lat="44.83883817567541" lon="10.342969990950797"><ele>36.5</ele><time>2026-04-11T11:47:32Z</time></trkpt><trkpt lat="44.83875520352282" lon="10.343314152407284"><ele>37.0</ele><time>2026-04-11T11:47:33Z</time></trkpt><trkpt lat="44.83867057967493" lon="10.343662211610441"><ele>37.5</ele><time>2026-04-11T11:47:34Z</time></trkpt><trkpt lat="44.838587054478495" lon="10.344006642703444"><ele>38.0</ele><time>2026-04-11T11:47:35Z</time></trkpt><trkpt lat="44.838503317916626" lon="10.344347353776154"><ele>38.0</ele><time>2026-04-11T11:47:36Z</time></trkpt><trkpt lat="44.83842044091695" lon="10.344688743186877"><ele>38.0</ele><time>2026-04-11T11:47:37Z</time></trkpt><trkpt lat="44.83833894313328" lon="10.345034479420637"><ele>38.0</ele><time>2026-04-11T11:47:38Z</time></trkpt><trkpt lat="44.838255927403345" lon="10.345378362686809"><ele>38.0</ele><time>2026-04-11T11:47:39Z</time></trkpt><trkpt lat="44.83817253720955" lon="10.345721695845274"><ele>38.5</ele><time>2026-04-11T11:47:40Z</time></trkpt><trkpt lat="44.838088933368105" lon="10.346063468119963"><ele>39.0</ele><time>2026-04-11T11:47:41Z</time></trkpt><trkpt lat="44.838006748859016" lon="10.34640396866698"><ele>39.0</ele><time>2026-04-11T11:47:42Z</time></trkpt><trkpt lat="44.83792381768819" lon="10.346748569767248"><ele>39.0</ele><time>2026-04-11T11:47:43Z</time></trkpt><trkpt lat="44.83784141119004" lon="10.347094395619797"><ele>39.0</ele><time>2026-04-11T11:47:44Z</time></trkpt><trkpt lat="44.83775805233684" lon="10.347443701263769"><ele>39.0</ele><time>2026-04-11T11:47:45Z</time></trkpt><trkpt lat="44.83767559616395" lon="10.347786700738734"><ele>40.5</ele><time>2026-04-11T11:47:46Z</time></trkpt><trkpt lat="44.83759051553097" lon="10.34812969189137"><ele>42.0</ele><time>2026-04-11T11:47:47Z</time></trkpt><trkpt lat="44.83750442432981" lon="10.34847701441404"><ele>42.0</ele><time>2026-04-11T11:47:48Z</time></trkpt><trkpt lat="44.83741910160193" lon="10.348821126942614"><ele>42.0</ele><time>2026-04-11T11:47:49Z</time></trkpt><trkpt lat="44.83733100174113" lon="10.349164562154696"><ele>41.5</ele><time>2026-04-11T11:47:50Z</time></trkpt><trkpt lat="44.83724018780414" lon="10.34950861144852"><ele>41.0</ele><time>2026-04-11T11:47:51Z</time></trkpt><trkpt lat="44.83714789350867" lon="10.349852247281307"><ele>41.0</ele><time>2026-04-11T11:47:52Z</time></trkpt><trkpt lat="44.837053319037985" lon="10.350194651882946"><ele>41.0</ele><time>2026-04-11T11:47:53Z</time></trkpt><trkpt lat="44.83695415306578" lon="10.350539309617872"><ele>40.0</ele><time>2026-04-11T11:47:54Z</time></trkpt><trkpt lat="44.83685173823011" lon="10.350879021012274"><ele>39.0</ele><time>2026-04-11T11:47:55Z</time></trkpt><trkpt lat="44.83674658389186" lon="10.35121905726555"><ele>38.5</ele><time>2026-04-11T11:47:56Z</time></trkpt><trkpt lat="44.83664486815223" lon="10.351555542342252"><ele>38.0</ele><time>2026-04-11T11:47:57Z</time></trkpt><trkpt lat="44.83654371587633" lon="10.351893010154894"><ele>37.0</ele><time>2026-04-11T11:47:58Z</time></trkpt><trkpt lat="44.8364388510274" lon="10.352232233005957"><ele>36.0</ele><time>2026-04-11T11:47:59Z</time></trkpt><trkpt lat="44.836330200500036" lon="10.352568824310977"><ele>36.0</ele><time>2026-04-11T11:48:00Z</time></trkpt><trkpt lat="44.83621933851607" lon="10.352905636866396"><ele>36.0</ele><time>2026-04-11T11:48:01Z</time></trkpt><trkpt lat="44.836105847505756" lon="10.35323918883492"><ele>36.0</ele><time>2026-04-11T11:48:02Z</time></trkpt><trkpt lat="44.83599171640419" lon="10.353570586921249"><ele>36.0</ele><time>2026-04-11T11:48:03Z</time></trkpt><trkpt lat="44.835879307094515" lon="10.353900999054504"><ele>36.0</ele><time>2026-04-11T11:48:04Z</time></trkpt><trkpt lat="44.83576856371712" lon="10.354231307702717"><ele>36.0</ele><time>2026-04-11T11:48:05Z</time></trkpt><trkpt lat="44.83565527168674" lon="10.354559504699472"><ele>36.0</ele><time>2026-04-11T11:48:06Z</time></trkpt><trkpt lat="44.83553717963034" lon="10.354880975428621"><ele>36.0</ele><time>2026-04-11T11:48:07Z</time></trkpt><trkpt lat="44.835417055608744" lon="10.355199969905092"><ele>36.0</ele><time>2026-04-11T11:48:08Z</time></trkpt><trkpt lat="44.83529803538944" lon="10.355519356089829"><ele>36.0</ele><time>2026-04-11T11:48:09Z</time></trkpt><trkpt lat="44.83517970896449" lon="10.355841903513541"><ele>36.5</ele><time>2026-04-11T11:48:10Z</time></trkpt><trkpt lat="44.83506171088488" lon="10.356164706625025"><ele>37.0</ele><time>2026-04-11T11:48:11Z</time></trkpt><trkpt lat="44.83494129852554" lon="10.356487556028128"><ele>37.0</ele><time>2026-04-11T11:48:12Z</time></trkpt><trkpt lat="44.83481950781037" lon="10.356809495262622"><ele>37.0</ele><time>2026-04-11T11:48:13Z</time></trkpt><trkpt lat="44.83470298593076" lon="10.357127444272265"><ele>36.0</ele><time>2026-04-11T11:48:14Z</time></trkpt><trkpt lat="44.83458501430333" lon="10.35744837691466"><ele>35.0</ele><time>2026-04-11T11:48:15Z</time></trkpt><trkpt lat="44.834466449836874" lon="10.357766212398793"><ele>34.5</ele><time>2026-04-11T11:48:16Z</time></trkpt><trkpt lat="44.83434597031323" lon="10.358085647750494"><ele>34.0</ele><time>2026-04-11T11:48:17Z</time></trkpt><trkpt lat="44.83422597610648" lon="10.358406780788123"><ele>35.5</ele><time>2026-04-11T11:48:18Z</time></trkpt><trkpt lat="44.834105155348205" lon="10.358728167357718"><ele>37.0</ele><time>2026-04-11T11:48:19Z</time></trkpt><trkpt lat="44.83398248317665" lon="10.359047872214655"><ele>37.5</ele><time>2026-04-11T11:48:20Z</time></trkpt><trkpt lat="44.833857316013194" lon="10.359368868052309"><ele>38.0</ele><time>2026-04-11T11:48:21Z</time></trkpt><trkpt lat="44.83373237653248" lon="10.359689714132628"><ele>38.5</ele><time>2026-04-11T11:48:22Z</time></trkpt><trkpt lat="44.83360832450891" lon="10.360013830703132"><ele>39.0</ele><time>2026-04-11T11:48:23Z</time></trkpt><trkpt lat="44.8334865038058" lon="10.360338203219436"><ele>38.5</ele><time>2026-04-11T11:48:24Z</time></trkpt><trkpt lat="44.83336462905123" lon="10.36065928525758"><ele>38.0</ele><time>2026-04-11T11:48:25Z</time></trkpt><trkpt lat="44.833240913865325" lon="10.3609853252725"><ele>38.0</ele><time>2026-04-11T11:48:26Z</time></trkpt><trkpt lat="44.83312075214041" lon="10.361311162116742"><ele>38.0</ele><time>2026-04-11T11:48:27Z</time></trkpt><trkpt lat="44.8329995425372" lon="10.36163943256628"><ele>36.5</ele><time>2026-04-11T11:48:28Z</time></trkpt><trkpt lat="44.832879128912694" lon="10.36196761599253"><ele>35.0</ele><time>2026-04-11T11:48:29Z</time></trkpt><trkpt lat="44.83275848561061" lon="10.36229315672986"><ele>34.0</ele><time>2026-04-11T11:48:30Z</time></trkpt><trkpt lat="44.83263736508168" lon="10.362621020738244"><ele>33.0</ele><time>2026-04-11T11:48:31Z</time></trkpt><trkpt lat="44.832517879250624" lon="10.36294519984151"><ele>33.5</ele><time>2026-04-11T11:48:32Z</time></trkpt><trkpt lat="44.832400389752195" lon="10.363265672739995"><ele>34.0</ele><time>2026-04-11T11:48:33Z</time></trkpt><trkpt lat="44.83228061186025" lon="10.363589726775475"><ele>34.0</ele><time>2026-04-11T11:48:34Z</time></trkpt><trkpt lat="44.83216239360233" lon="10.363911560093923"><ele>34.0</ele><time>2026-04-11T11:48:35Z</time></trkpt><trkpt lat="44.83204550284378" lon="10.364231187782778"><ele>34.0</ele><time>2026-04-11T11:48:36.001Z</time></trkpt><trkpt lat="44.83192638672815" lon="10.364549965080702"><ele>34.0</ele><time>2026-04-11T11:48:37.001Z</time></trkpt><trkpt lat="44.83180507807001" lon="10.364874549065018"><ele>35.0</ele><time>2026-04-11T11:48:38.001Z</time></trkpt><trkpt lat="44.831687995084486" lon="10.365188152094829"><ele>36.0</ele><time>2026-04-11T11:48:39.001Z</time></trkpt><trkpt lat="44.8315682379081" lon="10.365516234620019"><ele>34.0</ele><time>2026-04-11T11:48:40.001Z</time></trkpt><trkpt lat="44.831449770082614" lon="10.365836561409361"><ele>32.0</ele><time>2026-04-11T11:48:41.001Z</time></trkpt><trkpt lat="44.831331673686904" lon="10.366158895703828"><ele>33.0</ele><time>2026-04-11T11:48:42.001Z</time></trkpt><trkpt lat="44.83121069662903" lon="10.366485082868476"><ele>34.0</ele><time>2026-04-11T11:48:43.001Z</time></trkpt><trkpt lat="44.83108993427509" lon="10.366803793607016"><ele>35.0</ele><time>2026-04-11T11:48:44.001Z</time></trkpt><trkpt lat="44.83097074086563" lon="10.367126943882063"><ele>36.0</ele><time>2026-04-11T11:48:45.001Z</time></trkpt><trkpt lat="44.830852399935424" lon="10.367455323996523"><ele>36.0</ele><time>2026-04-11T11:48:46.001Z</time></trkpt><trkpt lat="44.83073072990166" lon="10.36778146407876"><ele>36.0</ele><time>2026-04-11T11:48:47.001Z</time></trkpt><trkpt lat="44.830606286125395" lon="10.368111662317975"><ele>37.0</ele><time>2026-04-11T11:48:48.001Z</time></trkpt><trkpt lat="44.83048391047643" lon="10.368438058416512"><ele>38.0</ele><time>2026-04-11T11:48:49.001Z</time></trkpt><trkpt lat="44.83036440190316" lon="10.368760657188593"><ele>38.0</ele><time>2026-04-11T11:48:50.001Z</time></trkpt><trkpt lat="44.830243747041244" lon="10.369083440086953"><ele>38.0</ele><time>2026-04-11T11:48:51.001Z</time></trkpt><trkpt lat="44.83012255058205" lon="10.369406492645103"><ele>37.0</ele><time>2026-04-11T11:48:52.001Z</time></trkpt><trkpt lat="44.830000489239744" lon="10.369731305760867"><ele>36.0</ele><time>2026-04-11T11:48:53.001Z</time></trkpt><trkpt lat="44.829878355470875" lon="10.37005601939109"><ele>36.0</ele><time>2026-04-11T11:48:54.001Z</time></trkpt><trkpt lat="44.82975545621155" lon="10.370382071464844"><ele>36.0</ele><time>2026-04-11T11:48:55.001Z</time></trkpt><trkpt lat="44.82964064808903" lon="10.3707035638195"><ele>37.0</ele><time>2026-04-11T11:48:56.001Z</time></trkpt><trkpt lat="44.829521557404405" lon="10.37102833820391"><ele>38.0</ele><time>2026-04-11T11:48:57.001Z</time></trkpt><trkpt lat="44.82940153850691" lon="10.371353632816788"><ele>37.5</ele><time>2026-04-11T11:48:58.001Z</time></trkpt><trkpt lat="44.82928078797672" lon="10.37167890406554"><ele>37.0</ele><time>2026-04-11T11:48:59.001Z</time></trkpt><trkpt lat="44.82916043287019" lon="10.372003393461373"><ele>36.5</ele><time>2026-04-11T11:49:00.001Z</time></trkpt><trkpt lat="44.82904159402014" lon="10.372328494742373"><ele>36.0</ele><time>2026-04-11T11:49:01.001Z</time></trkpt><trkpt lat="44.82892498630349" lon="10.372651543774595"><ele>36.0</ele><time>2026-04-11T11:49:02.001Z</time></trkpt><trkpt lat="44.82880451381918" lon="10.37297614799656"><ele>36.0</ele><time>2026-04-11T11:49:03.001Z</time></trkpt><trkpt lat="44.8286861672578" lon="10.373297912926486"><ele>36.0</ele><time>2026-04-11T11:49:04.001Z</time></trkpt><trkpt lat="44.82856972673384" lon="10.373619324940927"><ele>36.0</ele><time>2026-04-11T11:49:05.001Z</time></trkpt><trkpt lat="44.828450112970756" lon="10.373941771605553"><ele>36.5</ele><time>2026-04-11T11:49:06.001Z</time></trkpt><trkpt lat="44.828330659821546" lon="10.3742659723277"><ele>37.0</ele><time>2026-04-11T11:49:07.001Z</time></trkpt><trkpt lat="44.82821298063978" lon="10.374587855074038"><ele>37.0</ele><time>2026-04-11T11:49:08.001Z</time></trkpt><trkpt lat="44.82809006364037" lon="10.374912315495468"><ele>37.0</ele><time>2026-04-11T11:49:09.001Z</time></trkpt><trkpt lat="44.827970032073964" lon="10.375234884161722"><ele>37.0</ele><time>2026-04-11T11:49:10.001Z</time></trkpt><trkpt lat="44.827849573320314" lon="10.37555794039983"><ele>37.0</ele><time>2026-04-11T11:49:11.001Z</time></trkpt><trkpt lat="44.827728096310345" lon="10.375883314670647"><ele>37.5</ele><time>2026-04-11T11:49:12.001Z</time></trkpt><trkpt lat="44.82761116606762" lon="10.376208340370662"><ele>38.0</ele><time>2026-04-11T11:49:13Z</time></trkpt><trkpt lat="44.827496582571115" lon="10.376532431259138"><ele>38.0</ele><time>2026-04-11T11:49:14Z</time></trkpt><trkpt lat="44.82737663662445" lon="10.3768606192205"><ele>38.0</ele><time>2026-04-11T11:49:15Z</time></trkpt><trkpt lat="44.827265384691195" lon="10.377190314743862"><ele>38.0</ele><time>2026-04-11T11:49:16Z</time></trkpt><trkpt lat="44.82715243536667" lon="10.377516686463537"><ele>38.0</ele><time>2026-04-11T11:49:17Z</time></trkpt><trkpt lat="44.827036385948546" lon="10.377842021388059"><ele>38.0</ele><time>2026-04-11T11:49:18Z</time></trkpt><trkpt lat="44.82691798728576" lon="10.378166130762484"><ele>38.0</ele><time>2026-04-11T11:49:19Z</time></trkpt><trkpt lat="44.8267997786842" lon="10.378488159240119"><ele>38.5</ele><time>2026-04-11T11:49:20Z</time></trkpt><trkpt lat="44.826681113817905" lon="10.378806867403808"><ele>39.0</ele><time>2026-04-11T11:49:21Z</time></trkpt><trkpt lat="44.82656164156226" lon="10.379125362288791"><ele>39.0</ele><time>2026-04-11T11:49:22Z</time></trkpt><trkpt lat="44.826444150024386" lon="10.379444259646087"><ele>39.0</ele><time>2026-04-11T11:49:23Z</time></trkpt><trkpt lat="44.82632609307787" lon="10.379759792798358"><ele>39.5</ele><time>2026-04-11T11:49:24Z</time></trkpt><trkpt lat="44.82620531171474" lon="10.38007567343347"><ele>40.0</ele><time>2026-04-11T11:49:25Z</time></trkpt><trkpt lat="44.82608313635564" lon="10.380396482216867"><ele>39.5</ele><time>2026-04-11T11:49:26Z</time></trkpt><trkpt lat="44.825962445889054" lon="10.380715624532822"><ele>39.0</ele><time>2026-04-11T11:49:27Z</time></trkpt><trkpt lat="44.82583794647404" lon="10.381029860695245"><ele>39.0</ele><time>2026-04-11T11:49:28Z</time></trkpt><trkpt lat="44.82570961731378" lon="10.381348786031785"><ele>39.0</ele><time>2026-04-11T11:49:29Z</time></trkpt><trkpt lat="44.82558401466923" lon="10.381673563704773"><ele>39.0</ele><time>2026-04-11T11:49:30Z</time></trkpt><trkpt lat="44.825454511095884" lon="10.382007307330257"><ele>39.0</ele><time>2026-04-11T11:49:31Z</time></trkpt><trkpt lat="44.82532696174777" lon="10.382336815717895"><ele>39.0</ele><time>2026-04-11T11:49:32Z</time></trkpt><trkpt lat="44.82520762684354" lon="10.382658089122378"><ele>39.0</ele><time>2026-04-11T11:49:33Z</time></trkpt><trkpt lat="44.825078980150515" lon="10.38298934984112"><ele>40.0</ele><time>2026-04-11T11:49:34Z</time></trkpt><trkpt lat="44.824983273176805" lon="10.38328886001016"><ele>41.0</ele><time>2026-04-11T11:49:34.999Z</time></trkpt><trkpt lat="44.82486146342208" lon="10.383610868824785"><ele>41.0</ele><time>2026-04-11T11:49:35.999Z</time></trkpt><trkpt lat="44.824741031034165" lon="10.383940543254583"><ele>41.0</ele><time>2026-04-11T11:49:36.999Z</time></trkpt><trkpt lat="44.82461871490959" lon="10.384269187046268"><ele>41.0</ele><time>2026-04-11T11:49:37.999Z</time></trkpt><trkpt lat="44.824497400018615" lon="10.384593970382811"><ele>41.0</ele><time>2026-04-11T11:49:38.999Z</time></trkpt><trkpt lat="44.82437773755591" lon="10.384913470770911"><ele>40.5</ele><time>2026-04-11T11:49:39.999Z</time></trkpt><trkpt lat="44.82425944722957" lon="10.385232858079315"><ele>40.0</ele><time>2026-04-11T11:49:40.999Z</time></trkpt><trkpt lat="44.82413264355094" lon="10.385556045047817"><ele>40.0</ele><time>2026-04-11T11:49:41.999Z</time></trkpt><trkpt lat="44.82401175105978" lon="10.385885658983529"><ele>40.0</ele><time>2026-04-11T11:49:42.999Z</time></trkpt><trkpt lat="44.823894654908614" lon="10.386210869325312"><ele>40.0</ele><time>2026-04-11T11:49:43.999Z</time></trkpt><trkpt lat="44.82377536825314" lon="10.386539251167846"><ele>40.0</ele><time>2026-04-11T11:49:44.999Z</time></trkpt><trkpt lat="44.82365656066159" lon="10.386865703716404"><ele>39.0</ele><time>2026-04-11T11:49:45.999Z</time></trkpt><trkpt lat="44.82353499523565" lon="10.387194327353495"><ele>38.0</ele><time>2026-04-11T11:49:46.999Z</time></trkpt><trkpt lat="44.82341138620781" lon="10.387518186923844"><ele>38.0</ele><time>2026-04-11T11:49:47.999Z</time></trkpt><trkpt lat="44.823288565274765" lon="10.387844600000893"><ele>38.0</ele><time>2026-04-11T11:49:48.999Z</time></trkpt><trkpt lat="44.82316595693742" lon="10.388175655086755"><ele>37.0</ele><time>2026-04-11T11:49:49.999Z</time></trkpt><trkpt lat="44.82304222497051" lon="10.388503555276696"><ele>36.0</ele><time>2026-04-11T11:49:50.999Z</time></trkpt><trkpt lat="44.82292322587231" lon="10.38883105200567"><ele>36.0</ele><time>2026-04-11T11:49:51.999Z</time></trkpt><trkpt lat="44.82279820361658" lon="10.389156456406326"><ele>36.0</ele><time>2026-04-11T11:49:52.999Z</time></trkpt><trkpt lat="44.82267876122829" lon="10.389476502318233"><ele>37.5</ele><time>2026-04-11T11:49:53.999Z</time></trkpt><trkpt lat="44.822561641783835" lon="10.389798825154148"><ele>39.0</ele><time>2026-04-11T11:49:55Z</time></trkpt><trkpt lat="44.82244202136621" lon="10.390134764641115"><ele>39.0</ele><time>2026-04-11T11:49:56Z</time></trkpt><trkpt lat="44.822316015706946" lon="10.39046968851717"><ele>39.0</ele><time>2026-04-11T11:49:57Z</time></trkpt><trkpt lat="44.82220180021676" lon="10.390775102332682"><ele>39.0</ele><time>2026-04-11T11:49:58Z</time></trkpt><trkpt lat="44.82208060743817" lon="10.391108339080294"><ele>39.0</ele><time>2026-04-11T11:49:59Z</time></trkpt><trkpt lat="44.82196360350241" lon="10.391427382594204"><ele>39.0</ele><time>2026-04-11T11:50:00Z</time></trkpt><trkpt lat="44.82184470728529" lon="10.391746531286698"><ele>39.0</ele><time>2026-04-11T11:50:01Z</time></trkpt><trkpt lat="44.82172319445913" lon="10.392062632993357"><ele>38.5</ele><time>2026-04-11T11:50:02Z</time></trkpt><trkpt lat="44.8216059026064" lon="10.39238418278452"><ele>38.0</ele><time>2026-04-11T11:50:03Z</time></trkpt><trkpt lat="44.82149104842718" lon="10.39270063569612"><ele>36.5</ele><time>2026-04-11T11:50:04Z</time></trkpt><trkpt lat="44.821371546647484" lon="10.393022287363447"><ele>35.0</ele><time>2026-04-11T11:50:05Z</time></trkpt><trkpt lat="44.82125328956023" lon="10.39334432433896"><ele>35.0</ele><time>2026-04-11T11:50:06Z</time></trkpt><trkpt lat="44.82113702764753" lon="10.393667283842262"><ele>35.0</ele><time>2026-04-11T11:50:07Z</time></trkpt><trkpt lat="44.82101783402922" lon="10.393983514731126"><ele>36.0</ele><time>2026-04-11T11:50:08Z</time></trkpt><trkpt lat="44.82090261154442" lon="10.394305367436337"><ele>37.0</ele><time>2026-04-11T11:50:09Z</time></trkpt><trkpt lat="44.82078742709975" lon="10.394627809161705"><ele>36.0</ele><time>2026-04-11T11:50:10Z</time></trkpt><trkpt lat="44.820665522210746" lon="10.394953708603694"><ele>35.0</ele><time>2026-04-11T11:50:11Z</time></trkpt><trkpt lat="44.82054190153718" lon="10.395274950840662"><ele>34.5</ele><time>2026-04-11T11:50:12Z</time></trkpt><trkpt lat="44.820422729618954" lon="10.395599867486528"><ele>34.0</ele><time>2026-04-11T11:50:13Z</time></trkpt><trkpt lat="44.82029920012163" lon="10.395919495049156"><ele>34.0</ele><time>2026-04-11T11:50:14Z</time></trkpt><trkpt lat="44.82017851762817" lon="10.396244251227332"><ele>34.0</ele><time>2026-04-11T11:50:15Z</time></trkpt><trkpt lat="44.82005765701677" lon="10.396569320029325"><ele>35.0</ele><time>2026-04-11T11:50:16Z</time></trkpt><trkpt lat="44.819939737534014" lon="10.396892401073313"><ele>36.0</ele><time>2026-04-11T11:50:17Z</time></trkpt><trkpt lat="44.819816810449815" lon="10.397220225743553"><ele>36.0</ele><time>2026-04-11T11:50:18Z</time></trkpt><trkpt lat="44.81969795069918" lon="10.39754631337226"><ele>36.0</ele><time>2026-04-11T11:50:19Z</time></trkpt><trkpt lat="44.81957986750855" lon="10.397869375679049"><ele>35.5</ele><time>2026-04-11T11:50:20Z</time></trkpt><trkpt lat="44.819455661946385" lon="10.398191393608107"><ele>35.0</ele><time>2026-04-11T11:50:21Z</time></trkpt><trkpt lat="44.81933304363173" lon="10.398514202446375"><ele>35.5</ele><time>2026-04-11T11:50:22Z</time></trkpt><trkpt lat="44.81921493752831" lon="10.398835585784477"><ele>36.0</ele><time>2026-04-11T11:50:23Z</time></trkpt><trkpt lat="44.819101201374785" lon="10.399155880731835"><ele>36.0</ele><time>2026-04-11T11:50:24Z</time></trkpt><trkpt lat="44.81897843292814" lon="10.39947643487576"><ele>36.0</ele><time>2026-04-11T11:50:25Z</time></trkpt><trkpt lat="44.818859734525866" lon="10.399800656479744"><ele>35.5</ele><time>2026-04-11T11:50:26Z</time></trkpt><trkpt lat="44.8187371745301" lon="10.400124788575392"><ele>35.0</ele><time>2026-04-11T11:50:27Z</time></trkpt><trkpt lat="44.81861858313483" lon="10.400444092534476"><ele>35.0</ele><time>2026-04-11T11:50:28Z</time></trkpt><trkpt lat="44.8185036855324" lon="10.400765395344827"><ele>35.0</ele><time>2026-04-11T11:50:29Z</time></trkpt><trkpt lat="44.81838452039998" lon="10.401095267278718"><ele>34.0</ele><time>2026-04-11T11:50:30Z</time></trkpt><trkpt lat="44.818264589405175" lon="10.401414947070956"><ele>33.0</ele><time>2026-04-11T11:50:31Z</time></trkpt><trkpt lat="44.818143698302464" lon="10.401737477350583"><ele>33.0</ele><time>2026-04-11T11:50:32Z</time></trkpt><trkpt lat="44.81801940699674" lon="10.402060774115123"><ele>33.0</ele><time>2026-04-11T11:50:33Z</time></trkpt><trkpt lat="44.81789329856535" lon="10.40237467694175"><ele>34.0</ele><time>2026-04-11T11:50:34Z</time></trkpt><trkpt lat="44.81777545196686" lon="10.40269812820139"><ele>35.0</ele><time>2026-04-11T11:50:35Z</time></trkpt><trkpt lat="44.81765402545872" lon="10.403023049820797"><ele>34.5</ele><time>2026-04-11T11:50:36Z</time></trkpt><trkpt lat="44.81753996941134" lon="10.40335033345859"><ele>34.0</ele><time>2026-04-11T11:50:37Z</time></trkpt><trkpt lat="44.81742227560338" lon="10.403678740802176"><ele>34.0</ele><time>2026-04-11T11:50:38Z</time></trkpt><trkpt lat="44.8173014608419" lon="10.404004499884875"><ele>34.0</ele><time>2026-04-11T11:50:39Z</time></trkpt><trkpt lat="44.81717962949661" lon="10.404327225138216"><ele>34.0</ele><time>2026-04-11T11:50:40Z</time></trkpt><trkpt lat="44.81705986717861" lon="10.404651359781555"><ele>34.0</ele><time>2026-04-11T11:50:41Z</time></trkpt><trkpt lat="44.816937516285336" lon="10.404974618724728"><ele>34.5</ele><time>2026-04-11T11:50:42Z</time></trkpt><trkpt lat="44.81681666561902" lon="10.405300629630073"><ele>35.0</ele><time>2026-04-11T11:50:43Z</time></trkpt><trkpt lat="44.816694089230076" lon="10.405620759702977"><ele>35.0</ele><time>2026-04-11T11:50:44Z</time></trkpt><trkpt lat="44.81657241558901" lon="10.405949574984463"><ele>35.0</ele><time>2026-04-11T11:50:45Z</time></trkpt><trkpt lat="44.816454167211496" lon="10.406274829526634"><ele>35.0</ele><time>2026-04-11T11:50:46Z</time></trkpt><trkpt lat="44.81633508159425" lon="10.406594632744884"><ele>35.0</ele><time>2026-04-11T11:50:47Z</time></trkpt><trkpt lat="44.81621816664252" lon="10.406924759449263"><ele>35.0</ele><time>2026-04-11T11:50:48Z</time></trkpt><trkpt lat="44.81609854318473" lon="10.407246534875805"><ele>35.0</ele><time>2026-04-11T11:50:49Z</time></trkpt><trkpt lat="44.815976805407466" lon="10.407569057018426"><ele>35.0</ele><time>2026-04-11T11:50:50Z</time></trkpt><trkpt lat="44.815853426694346" lon="10.407891228303153"><ele>35.0</ele><time>2026-04-11T11:50:51Z</time></trkpt><trkpt lat="44.81573286227632" lon="10.408214702889614"><ele>35.0</ele><time>2026-04-11T11:50:52Z</time></trkpt><trkpt lat="44.815611035455994" lon="10.408539452965769"><ele>35.0</ele><time>2026-04-11T11:50:53Z</time></trkpt><trkpt lat="44.81549441772442" lon="10.408863258523553"><ele>35.0</ele><time>2026-04-11T11:50:54Z</time></trkpt><trkpt lat="44.81537050948372" lon="10.409186015818083"><ele>35.0</ele><time>2026-04-11T11:50:55Z</time></trkpt><trkpt lat="44.815253757373995" lon="10.409513594422071"><ele>36.5</ele><time>2026-04-11T11:50:56Z</time></trkpt><trkpt lat="44.815138353594804" lon="10.409841374439718"><ele>38.0</ele><time>2026-04-11T11:50:57Z</time></trkpt><trkpt lat="44.81502216693325" lon="10.410166772538519"><ele>38.0</ele><time>2026-04-11T11:50:58Z</time></trkpt><trkpt lat="44.81490552016894" lon="10.410490914028227"><ele>38.0</ele><time>2026-04-11T11:50:59Z</time></trkpt><trkpt lat="44.814784152038094" lon="10.410814639015504"><ele>37.5</ele><time>2026-04-11T11:51:00Z</time></trkpt><trkpt lat="44.81466570340884" lon="10.41113726773685"><ele>37.0</ele><time>2026-04-11T11:51:01Z</time></trkpt><trkpt lat="44.81454747122277" lon="10.411460678883593"><ele>37.0</ele><time>2026-04-11T11:51:02Z</time></trkpt><trkpt lat="44.81442436530683" lon="10.411778816648013"><ele>37.0</ele><time>2026-04-11T11:51:03Z</time></trkpt><trkpt lat="44.8143006960381" lon="10.412106048349141"><ele>37.5</ele><time>2026-04-11T11:51:04Z</time></trkpt><trkpt lat="44.81418230365862" lon="10.412431603786077"><ele>38.0</ele><time>2026-04-11T11:51:05Z</time></trkpt><trkpt lat="44.81405767608016" lon="10.412752466214984"><ele>38.0</ele><time>2026-04-11T11:51:06Z</time></trkpt><trkpt lat="44.81394092404902" lon="10.41307938931865"><ele>38.0</ele><time>2026-04-11T11:51:07Z</time></trkpt><trkpt lat="44.813819318390365" lon="10.413402554836672"><ele>38.0</ele><time>2026-04-11T11:51:08Z</time></trkpt><trkpt lat="44.813697275916674" lon="10.413725854557171"><ele>38.0</ele><time>2026-04-11T11:51:09Z</time></trkpt><trkpt lat="44.81358107669659" lon="10.414052620976454"><ele>38.0</ele><time>2026-04-11T11:51:10Z</time></trkpt><trkpt lat="44.81345565019781" lon="10.414376108415803"><ele>38.0</ele><time>2026-04-11T11:51:11Z</time></trkpt><trkpt lat="44.81333416191625" lon="10.414694225385137"><ele>38.0</ele><time>2026-04-11T11:51:12Z</time></trkpt><trkpt lat="44.81321435440615" lon="10.415017415456411"><ele>38.0</ele><time>2026-04-11T11:51:13Z</time></trkpt><trkpt lat="44.813097597484244" lon="10.41534058222921"><ele>38.0</ele><time>2026-04-11T11:51:14Z</time></trkpt><trkpt lat="44.8129802996353" lon="10.41566189025813"><ele>38.0</ele><time>2026-04-11T11:51:15Z</time></trkpt><trkpt lat="44.812859163133666" lon="10.415989047739252"><ele>37.0</ele><time>2026-04-11T11:51:16Z</time></trkpt><trkpt lat="44.81274093111444" lon="10.416320181877623"><ele>36.0</ele><time>2026-04-11T11:51:17Z</time></trkpt><trkpt lat="44.81262224298933" lon="10.416640439879492"><ele>35.5</ele><time>2026-04-11T11:51:18Z</time></trkpt><trkpt lat="44.81250401755251" lon="10.416969385588233"><ele>35.0</ele><time>2026-04-11T11:51:19Z</time></trkpt><trkpt lat="44.81238527028825" lon="10.417293499215855"><ele>35.0</ele><time>2026-04-11T11:51:20Z</time></trkpt><trkpt lat="44.81225970103093" lon="10.417613769775198"><ele>35.0</ele><time>2026-04-11T11:51:21Z</time></trkpt><trkpt lat="44.81213865860699" lon="10.417939471756391"><ele>35.5</ele><time>2026-04-11T11:51:22Z</time></trkpt><trkpt lat="44.81201123251231" lon="10.418257061871843"><ele>36.0</ele><time>2026-04-11T11:51:23Z</time></trkpt><trkpt lat="44.81188257484489" lon="10.418572315244894"><ele>36.5</ele><time>2026-04-11T11:51:24Z</time></trkpt><trkpt lat="44.81177252848823" lon="10.418910292731326"><ele>37.0</ele><time>2026-04-11T11:51:25Z</time></trkpt><trkpt lat="44.811654946194345" lon="10.419228061009958"><ele>37.0</ele><time>2026-04-11T11:51:26Z</time></trkpt><trkpt lat="44.81153531711324" lon="10.419551705598233"><ele>37.0</ele><time>2026-04-11T11:51:27Z</time></trkpt><trkpt lat="44.811409655555046" lon="10.419861880000143"><ele>37.0</ele><time>2026-04-11T11:51:28Z</time></trkpt><trkpt lat="44.811287076382285" lon="10.420157260493868"><ele>37.0</ele><time>2026-04-11T11:51:29Z</time></trkpt><trkpt lat="44.81118071882805" lon="10.42052013633414"><ele>37.0</ele><time>2026-04-11T11:51:30Z</time></trkpt><trkpt lat="44.811058078115714" lon="10.420839805808216"><ele>37.0</ele><time>2026-04-11T11:51:31Z</time></trkpt><trkpt lat="44.8109464208529" lon="10.421168899419914"><ele>36.5</ele><time>2026-04-11T11:51:32Z</time></trkpt><trkpt lat="44.81082356130081" lon="10.421491275094978"><ele>36.0</ele><time>2026-04-11T11:51:33Z</time></trkpt><trkpt lat="44.81070018662875" lon="10.421810764185258"><ele>36.0</ele><time>2026-04-11T11:51:34Z</time></trkpt><trkpt lat="44.810584073095015" lon="10.422137171804067"><ele>36.0</ele><time>2026-04-11T11:51:35Z</time></trkpt><trkpt lat="44.81046242584819" lon="10.422457703129199"><ele>35.5</ele><time>2026-04-11T11:51:36Z</time></trkpt><trkpt lat="44.81034053649003" lon="10.422779285699463"><ele>35.0</ele><time>2026-04-11T11:51:37Z</time></trkpt><trkpt lat="44.81022373033945" lon="10.423106033519476"><ele>34.5</ele><time>2026-04-11T11:51:38Z</time></trkpt><trkpt lat="44.81009804476728" lon="10.423425914307133"><ele>34.0</ele><time>2026-04-11T11:51:39Z</time></trkpt><trkpt lat="44.809980159043484" lon="10.423747182095406"><ele>34.5</ele><time>2026-04-11T11:51:40Z</time></trkpt><trkpt lat="44.80985996552026" lon="10.424067228854234"><ele>35.0</ele><time>2026-04-11T11:51:41Z</time></trkpt><trkpt lat="44.80974050600561" lon="10.424390694677038"><ele>35.0</ele><time>2026-04-11T11:51:42Z</time></trkpt><trkpt lat="44.80962509016115" lon="10.42471627353488"><ele>35.0</ele><time>2026-04-11T11:51:43Z</time></trkpt><trkpt lat="44.80950267143248" lon="10.42503952139103"><ele>35.0</ele><time>2026-04-11T11:51:44Z</time></trkpt><trkpt lat="44.809386320611694" lon="10.425363726360397"><ele>35.0</ele><time>2026-04-11T11:51:45Z</time></trkpt><trkpt lat="44.809267471676435" lon="10.425686585069974"><ele>37.0</ele><time>2026-04-11T11:51:46Z</time></trkpt><trkpt lat="44.80914046369057" lon="10.426006005062735"><ele>39.0</ele><time>2026-04-11T11:51:47Z</time></trkpt><trkpt lat="44.809020100873646" lon="10.426330879673925"><ele>39.0</ele><time>2026-04-11T11:51:48Z</time></trkpt><trkpt lat="44.80890450102236" lon="10.42665639863616"><ele>39.0</ele><time>2026-04-11T11:51:49Z</time></trkpt><trkpt lat="44.808785396252965" lon="10.426980942810792"><ele>38.0</ele><time>2026-04-11T11:51:50Z</time></trkpt><trkpt lat="44.80866236046751" lon="10.427304024190175"><ele>37.0</ele><time>2026-04-11T11:51:51Z</time></trkpt><trkpt lat="44.80854649438223" lon="10.427624270701193"><ele>37.5</ele><time>2026-04-11T11:51:52Z</time></trkpt><trkpt lat="44.808426892406146" lon="10.427946031874235"><ele>38.0</ele><time>2026-04-11T11:51:53Z</time></trkpt><trkpt lat="44.80830776904143" lon="10.428266905511629"><ele>38.0</ele><time>2026-04-11T11:51:54Z</time></trkpt><trkpt lat="44.80818650642821" lon="10.428587097906254"><ele>38.0</ele><time>2026-04-11T11:51:55Z</time></trkpt><trkpt lat="44.808063378534904" lon="10.428906798646054"><ele>37.0</ele><time>2026-04-11T11:51:56Z</time></trkpt><trkpt lat="44.8079425636456" lon="10.429230389314021"><ele>36.0</ele><time>2026-04-11T11:51:57Z</time></trkpt><trkpt lat="44.8078243489807" lon="10.429555968606364"><ele>36.0</ele><time>2026-04-11T11:51:58Z</time></trkpt><trkpt lat="44.807705450532765" lon="10.429884750550578"><ele>36.0</ele><time>2026-04-11T11:51:59Z</time></trkpt><trkpt lat="44.80758874209119" lon="10.43021131341464"><ele>37.0</ele><time>2026-04-11T11:52:00Z</time></trkpt><trkpt lat="44.80746836723284" lon="10.430537847561336"><ele>38.0</ele><time>2026-04-11T11:52:01Z</time></trkpt><trkpt lat="44.80734584484198" lon="10.43086239846827"><ele>38.0</ele><time>2026-04-11T11:52:02Z</time></trkpt><trkpt lat="44.80722393870897" lon="10.431185041674096"><ele>38.0</ele><time>2026-04-11T11:52:03Z</time></trkpt><trkpt lat="44.80710199927094" lon="10.431509806409586"><ele>38.5</ele><time>2026-04-11T11:52:04Z</time></trkpt><trkpt lat="44.80697972172044" lon="10.431833404103411"><ele>39.0</ele><time>2026-04-11T11:52:05Z</time></trkpt><trkpt lat="44.806857000709385" lon="10.43215683522181"><ele>39.0</ele><time>2026-04-11T11:52:06Z</time></trkpt><trkpt lat="44.80673664817866" lon="10.432480542805799"><ele>39.0</ele><time>2026-04-11T11:52:07Z</time></trkpt><trkpt lat="44.80661758643141" lon="10.432803897786702"><ele>38.0</ele><time>2026-04-11T11:52:08Z</time></trkpt><trkpt lat="44.80649687469228" lon="10.433127545501938"><ele>37.0</ele><time>2026-04-11T11:52:09Z</time></trkpt><trkpt lat="44.806374864129" lon="10.433447711422811"><ele>37.0</ele><time>2026-04-11T11:52:10Z</time></trkpt><trkpt lat="44.80625169576683" lon="10.433774063219163"><ele>37.0</ele><time>2026-04-11T11:52:11Z</time></trkpt><trkpt lat="44.8061315493879" lon="10.434094193774705"><ele>37.0</ele><time>2026-04-11T11:52:12Z</time></trkpt><trkpt lat="44.806013042602615" lon="10.43441943552966"><ele>37.0</ele><time>2026-04-11T11:52:13Z</time></trkpt><trkpt lat="44.80589291551752" lon="10.434743482597414"><ele>38.0</ele><time>2026-04-11T11:52:14Z</time></trkpt><trkpt lat="44.80577237062397" lon="10.435066686402747"><ele>39.0</ele><time>2026-04-11T11:52:15Z</time></trkpt><trkpt lat="44.80565057249963" lon="10.435387449462986"><ele>39.0</ele><time>2026-04-11T11:52:16Z</time></trkpt><trkpt lat="44.80552954719037" lon="10.435709251816341"><ele>39.0</ele><time>2026-04-11T11:52:17Z</time></trkpt><trkpt lat="44.80540818330943" lon="10.436037189810763"><ele>38.5</ele><time>2026-04-11T11:52:18Z</time></trkpt><trkpt lat="44.805287212995005" lon="10.436359275090043"><ele>38.0</ele><time>2026-04-11T11:52:19Z</time></trkpt><trkpt lat="44.80516772040116" lon="10.436686273675905"><ele>38.0</ele><time>2026-04-11T11:52:20Z</time></trkpt><trkpt lat="44.805050104121726" lon="10.437007575082452"><ele>38.0</ele><time>2026-04-11T11:52:21Z</time></trkpt><trkpt lat="44.80493004248431" lon="10.437331288484785"><ele>38.0</ele><time>2026-04-11T11:52:22Z</time></trkpt><trkpt lat="44.80480872434043" lon="10.437654935233523"><ele>38.0</ele><time>2026-04-11T11:52:23Z</time></trkpt><trkpt lat="44.80468874478202" lon="10.437979476037434"><ele>38.0</ele><time>2026-04-11T11:52:24Z</time></trkpt><trkpt lat="44.804567314573774" lon="10.438304556823654"><ele>38.0</ele><time>2026-04-11T11:52:25Z</time></trkpt><trkpt lat="44.804445167638285" lon="10.43862922107608"><ele>38.0</ele><time>2026-04-11T11:52:26Z</time></trkpt><trkpt lat="44.804322689410085" lon="10.438952584215857"><ele>38.0</ele><time>2026-04-11T11:52:27Z</time></trkpt><trkpt lat="44.80420139453471" lon="10.439279130840115"><ele>38.0</ele><time>2026-04-11T11:52:28Z</time></trkpt><trkpt lat="44.80408382015707" lon="10.439604180727802"><ele>38.0</ele><time>2026-04-11T11:52:29Z</time></trkpt><trkpt lat="44.803965200172954" lon="10.439930275178384"><ele>38.5</ele><time>2026-04-11T11:52:30Z</time></trkpt><trkpt lat="44.803848635654475" lon="10.44025693041088"><ele>39.0</ele><time>2026-04-11T11:52:31Z</time></trkpt><trkpt lat="44.80373312765727" lon="10.440583936599007"><ele>39.0</ele><time>2026-04-11T11:52:32Z</time></trkpt><trkpt lat="44.80361738507612" lon="10.440909560784275"><ele>39.0</ele><time>2026-04-11T11:52:33Z</time></trkpt><trkpt lat="44.80350239835844" lon="10.441235731529899"><ele>37.5</ele><time>2026-04-11T11:52:34Z</time></trkpt><trkpt lat="44.80338656682539" lon="10.441564134565002"><ele>36.0</ele><time>2026-04-11T11:52:35Z</time></trkpt><trkpt lat="44.803270313192044" lon="10.441889831502754"><ele>36.5</ele><time>2026-04-11T11:52:36Z</time></trkpt><trkpt lat="44.80315143960367" lon="10.442213595387537"><ele>37.0</ele><time>2026-04-11T11:52:37Z</time></trkpt><trkpt lat="44.803032017815916" lon="10.442536420776783"><ele>37.0</ele><time>2026-04-11T11:52:38.001Z</time></trkpt><trkpt lat="44.80291153312357" lon="10.442857329424463"><ele>37.0</ele><time>2026-04-11T11:52:39.001Z</time></trkpt><trkpt lat="44.80278923189191" lon="10.44318076359036"><ele>36.5</ele><time>2026-04-11T11:52:40.001Z</time></trkpt><trkpt lat="44.80266841069943" lon="10.443500274933033"><ele>36.0</ele><time>2026-04-11T11:52:41.001Z</time></trkpt><trkpt lat="44.80254972271288" lon="10.44382358934981"><ele>36.0</ele><time>2026-04-11T11:52:42.001Z</time></trkpt><trkpt lat="44.802432496401714" lon="10.444150532669225"><ele>36.0</ele><time>2026-04-11T11:52:43.001Z</time></trkpt><trkpt lat="44.80231538783715" lon="10.44447563349863"><ele>36.0</ele><time>2026-04-11T11:52:44.001Z</time></trkpt><trkpt lat="44.80219635083565" lon="10.444801236327729"><ele>36.0</ele><time>2026-04-11T11:52:45.001Z</time></trkpt><trkpt lat="44.80207541004034" lon="10.445123117510427"><ele>36.0</ele><time>2026-04-11T11:52:46.001Z</time></trkpt><trkpt lat="44.80195441944956" lon="10.445441870957266"><ele>36.0</ele><time>2026-04-11T11:52:47.001Z</time></trkpt><trkpt lat="44.80183188137468" lon="10.445759374615351"><ele>36.0</ele><time>2026-04-11T11:52:48.001Z</time></trkpt><trkpt lat="44.80171151197847" lon="10.44607987244085"><ele>36.0</ele><time>2026-04-11T11:52:49.001Z</time></trkpt><trkpt lat="44.801593111070424" lon="10.446400724693397"><ele>37.0</ele><time>2026-04-11T11:52:50.001Z</time></trkpt><trkpt lat="44.801474581299914" lon="10.446727059130449"><ele>38.0</ele><time>2026-04-11T11:52:51.001Z</time></trkpt><trkpt lat="44.801358274420025" lon="10.44704981655509"><ele>38.5</ele><time>2026-04-11T11:52:52.001Z</time></trkpt><trkpt lat="44.801238733637824" lon="10.447374026483828"><ele>39.0</ele><time>2026-04-11T11:52:53.001Z</time></trkpt><trkpt lat="44.80112029708112" lon="10.447693911774937"><ele>39.0</ele><time>2026-04-11T11:52:54.001Z</time></trkpt><trkpt lat="44.80099992737223" lon="10.448016039697881"><ele>39.0</ele><time>2026-04-11T11:52:55.001Z</time></trkpt><trkpt lat="44.80088002143436" lon="10.44833892275817"><ele>39.0</ele><time>2026-04-11T11:52:56.001Z</time></trkpt><trkpt lat="44.8007573087656" lon="10.448657330447892"><ele>39.0</ele><time>2026-04-11T11:52:57.001Z</time></trkpt><trkpt lat="44.80063534026802" lon="10.448980088268781"><ele>39.5</ele><time>2026-04-11T11:52:58.001Z</time></trkpt><trkpt lat="44.800513172738825" lon="10.449300072260153"><ele>40.0</ele><time>2026-04-11T11:52:59.001Z</time></trkpt><trkpt lat="44.800390250483474" lon="10.449620375665143"><ele>39.5</ele><time>2026-04-11T11:53:00.001Z</time></trkpt><trkpt lat="44.80026571194697" lon="10.449941252492104"><ele>39.0</ele><time>2026-04-11T11:53:01.001Z</time></trkpt><trkpt lat="44.80014261724222" lon="10.450261949310137"><ele>39.0</ele><time>2026-04-11T11:53:02.001Z</time></trkpt><trkpt lat="44.80001723210794" lon="10.450583136208408"><ele>39.0</ele><time>2026-04-11T11:53:03.001Z</time></trkpt><trkpt lat="44.799891815984296" lon="10.450904096532165"><ele>39.0</ele><time>2026-04-11T11:53:04.001Z</time></trkpt><trkpt lat="44.79976535447826" lon="10.451225605381495"><ele>39.0</ele><time>2026-04-11T11:53:05.001Z</time></trkpt><trkpt lat="44.799639161750655" lon="10.451547468090972"><ele>39.5</ele><time>2026-04-11T11:53:06.001Z</time></trkpt><trkpt lat="44.799514020949495" lon="10.451870491437766"><ele>40.0</ele><time>2026-04-11T11:53:07.001Z</time></trkpt><trkpt lat="44.79939071795761" lon="10.452192586504367"><ele>39.5</ele><time>2026-04-11T11:53:08.001Z</time></trkpt><trkpt lat="44.79926678108619" lon="10.452514530304244"><ele>39.0</ele><time>2026-04-11T11:53:09.001Z</time></trkpt><trkpt lat="44.79913937207322" lon="10.452832718862492"><ele>39.5</ele><time>2026-04-11T11:53:10.001Z</time></trkpt><trkpt lat="44.79901155948119" lon="10.453151914572384"><ele>40.0</ele><time>2026-04-11T11:53:11.001Z</time></trkpt><trkpt lat="44.79888323456566" lon="10.45347036044448"><ele>40.0</ele><time>2026-04-11T11:53:12.001Z</time></trkpt><trkpt lat="44.79875698077238" lon="10.453786001932892"><ele>40.0</ele><time>2026-04-11T11:53:13.001Z</time></trkpt><trkpt lat="44.79862940474809" lon="10.454102462070368"><ele>39.5</ele><time>2026-04-11T11:53:14.001Z</time></trkpt><trkpt lat="44.79849939530803" lon="10.454417373095428"><ele>39.0</ele><time>2026-04-11T11:53:15.001Z</time></trkpt><trkpt lat="44.79836902175029" lon="10.454729201180564"><ele>39.0</ele><time>2026-04-11T11:53:16.001Z</time></trkpt><trkpt lat="44.7982358332867" lon="10.455047259254957"><ele>39.0</ele><time>2026-04-11T11:53:17.001Z</time></trkpt><trkpt lat="44.798105287755696" lon="10.455358147724997"><ele>39.5</ele><time>2026-04-11T11:53:18.001Z</time></trkpt><trkpt lat="44.79797382643685" lon="10.455673015529195"><ele>40.0</ele><time>2026-04-11T11:53:19.001Z</time></trkpt><trkpt lat="44.79784188484165" lon="10.455988504567264"><ele>40.0</ele><time>2026-04-11T11:53:20.001Z</time></trkpt><trkpt lat="44.79770923964913" lon="10.45630197408966"><ele>40.0</ele><time>2026-04-11T11:53:21.001Z</time></trkpt><trkpt lat="44.79757603091408" lon="10.456613880959559"><ele>40.0</ele><time>2026-04-11T11:53:22.001Z</time></trkpt><trkpt lat="44.79744199734271" lon="10.456928083583254"><ele>40.0</ele><time>2026-04-11T11:53:23.001Z</time></trkpt><trkpt lat="44.797306143743654" lon="10.457243170754968"><ele>41.0</ele><time>2026-04-11T11:53:24.001Z</time></trkpt><trkpt lat="44.797168612207585" lon="10.457555166714446"><ele>42.0</ele><time>2026-04-11T11:53:25.001Z</time></trkpt><trkpt lat="44.79703102071358" lon="10.457866845826876"><ele>41.5</ele><time>2026-04-11T11:53:26.001Z</time></trkpt><trkpt lat="44.79689436546432" lon="10.458176899654786"><ele>41.0</ele><time>2026-04-11T11:53:27.001Z</time></trkpt><trkpt lat="44.796758475258414" lon="10.458489059707581"><ele>40.5</ele><time>2026-04-11T11:53:28.001Z</time></trkpt><trkpt lat="44.79662269880767" lon="10.458802590023325"><ele>40.0</ele><time>2026-04-11T11:53:29.001Z</time></trkpt><trkpt lat="44.796487680363185" lon="10.459115400708862"><ele>40.0</ele><time>2026-04-11T11:53:30.001Z</time></trkpt><trkpt lat="44.796348664637016" lon="10.459430776414846"><ele>40.0</ele><time>2026-04-11T11:53:31.001Z</time></trkpt><trkpt lat="44.79620864290162" lon="10.459739987982879"><ele>39.5</ele><time>2026-04-11T11:53:32.001Z</time></trkpt><trkpt lat="44.796067486994836" lon="10.460046379629775"><ele>39.0</ele><time>2026-04-11T11:53:33.001Z</time></trkpt><trkpt lat="44.7959248055231" lon="10.460353493919932"><ele>40.0</ele><time>2026-04-11T11:53:34.001Z</time></trkpt><trkpt lat="44.79577786235221" lon="10.460668869017939"><ele>41.0</ele><time>2026-04-11T11:53:35.001Z</time></trkpt><trkpt lat="44.79563685596422" lon="10.460966607558777"><ele>41.0</ele><time>2026-04-11T11:53:36.001Z</time></trkpt><trkpt lat="44.795495506093715" lon="10.46126892648706"><ele>41.0</ele><time>2026-04-11T11:53:37Z</time></trkpt><trkpt lat="44.795356510180476" lon="10.46157086324601"><ele>40.0</ele><time>2026-04-11T11:53:38Z</time></trkpt><trkpt lat="44.795217691828945" lon="10.46187220697129"><ele>39.0</ele><time>2026-04-11T11:53:39Z</time></trkpt><trkpt lat="44.79508003171448" lon="10.462176946679206"><ele>39.0</ele><time>2026-04-11T11:53:40Z</time></trkpt><trkpt lat="44.79494234640238" lon="10.462485551056405"><ele>39.0</ele><time>2026-04-11T11:53:41Z</time></trkpt><trkpt lat="44.79480955573144" lon="10.462796178623211"><ele>38.0</ele><time>2026-04-11T11:53:42Z</time></trkpt><trkpt lat="44.794676209076215" lon="10.463106343590615"><ele>37.0</ele><time>2026-04-11T11:53:43Z</time></trkpt><trkpt lat="44.79453592459355" lon="10.463409571740906"><ele>37.0</ele><time>2026-04-11T11:53:44Z</time></trkpt><trkpt lat="44.794391004430196" lon="10.463713729896652"><ele>37.0</ele><time>2026-04-11T11:53:45Z</time></trkpt><trkpt lat="44.79424709885071" lon="10.464018759829196"><ele>37.0</ele><time>2026-04-11T11:53:46Z</time></trkpt><trkpt lat="44.794102191983036" lon="10.464324052735833"><ele>37.0</ele><time>2026-04-11T11:53:47Z</time></trkpt><trkpt lat="44.79395646993848" lon="10.464630510795669"><ele>37.0</ele><time>2026-04-11T11:53:48Z</time></trkpt><trkpt lat="44.79381215176937" lon="10.464934253577674"><ele>37.0</ele><time>2026-04-11T11:53:49Z</time></trkpt><trkpt lat="44.793669071596" lon="10.465237635421857"><ele>37.5</ele><time>2026-04-11T11:53:50Z</time></trkpt><trkpt lat="44.7935263572721" lon="10.465546056918797"><ele>38.0</ele><time>2026-04-11T11:53:51Z</time></trkpt><trkpt lat="44.79338449087912" lon="10.465850718796622"><ele>38.5</ele><time>2026-04-11T11:53:52Z</time></trkpt><trkpt lat="44.79323850508321" lon="10.466153810272598"><ele>39.0</ele><time>2026-04-11T11:53:53Z</time></trkpt><trkpt lat="44.79309221265651" lon="10.466454079441366"><ele>39.0</ele><time>2026-04-11T11:53:54Z</time></trkpt><trkpt lat="44.792949001243585" lon="10.466756412077574"><ele>39.0</ele><time>2026-04-11T11:53:55Z</time></trkpt><trkpt lat="44.79280323304729" lon="10.467057425128528"><ele>39.5</ele><time>2026-04-11T11:53:56Z</time></trkpt><trkpt lat="44.79265589810438" lon="10.46735140631896"><ele>40.0</ele><time>2026-04-11T11:53:57Z</time></trkpt><trkpt lat="44.79250403822999" lon="10.46764711484651"><ele>39.5</ele><time>2026-04-11T11:53:58Z</time></trkpt><trkpt lat="44.792357879177345" lon="10.467948781583884"><ele>39.0</ele><time>2026-04-11T11:53:59Z</time></trkpt><trkpt lat="44.79221571416283" lon="10.468255670629818"><ele>39.0</ele><time>2026-04-11T11:54:00Z</time></trkpt><trkpt lat="44.79207334222856" lon="10.468562029478479"><ele>39.0</ele><time>2026-04-11T11:54:01Z</time></trkpt><trkpt lat="44.79193007816949" lon="10.468863764864876"><ele>40.5</ele><time>2026-04-11T11:54:02Z</time></trkpt><trkpt lat="44.791787180217476" lon="10.469167695138237"><ele>42.0</ele><time>2026-04-11T11:54:03Z</time></trkpt><trkpt lat="44.791644435268815" lon="10.469471514040487"><ele>41.5</ele><time>2026-04-11T11:54:04Z</time></trkpt><trkpt lat="44.79150188363385" lon="10.469772020316606"><ele>41.0</ele><time>2026-04-11T11:54:05Z</time></trkpt><trkpt lat="44.79135768541571" lon="10.470074197513911"><ele>41.0</ele><time>2026-04-11T11:54:06Z</time></trkpt><trkpt lat="44.79121632586175" lon="10.470371437490497"><ele>41.0</ele><time>2026-04-11T11:54:07Z</time></trkpt><trkpt lat="44.79107053360523" lon="10.470675353995247"><ele>42.0</ele><time>2026-04-11T11:54:08Z</time></trkpt><trkpt lat="44.790926963075016" lon="10.470975656324793"><ele>43.0</ele><time>2026-04-11T11:54:09Z</time></trkpt><trkpt lat="44.790783260730905" lon="10.471279362388826"><ele>43.5</ele><time>2026-04-11T11:54:10Z</time></trkpt><trkpt lat="44.79063872871365" lon="10.471586835795723"><ele>44.0</ele><time>2026-04-11T11:54:11Z</time></trkpt><trkpt lat="44.79049538143972" lon="10.471890507744176"><ele>43.0</ele><time>2026-04-11T11:54:12Z</time></trkpt><trkpt lat="44.79035361356617" lon="10.472194591323358"><ele>42.0</ele><time>2026-04-11T11:54:13Z</time></trkpt><trkpt lat="44.79021070598139" lon="10.472503137181302"><ele>42.5</ele><time>2026-04-11T11:54:14Z</time></trkpt><trkpt lat="44.79007084370249" lon="10.472810628632368"><ele>43.0</ele><time>2026-04-11T11:54:15Z</time></trkpt><trkpt lat="44.78992934342888" lon="10.473126005857237"><ele>42.0</ele><time>2026-04-11T11:54:16Z</time></trkpt><trkpt lat="44.78979004752491" lon="10.473435758622161"><ele>41.0</ele><time>2026-04-11T11:54:17Z</time></trkpt><trkpt lat="44.78964903452563" lon="10.473747314313643"><ele>40.5</ele><time>2026-04-11T11:54:18Z</time></trkpt><trkpt lat="44.78950891150466" lon="10.474053702469387"><ele>40.0</ele><time>2026-04-11T11:54:19Z</time></trkpt><trkpt lat="44.789365136363365" lon="10.474363149969165"><ele>41.0</ele><time>2026-04-11T11:54:20Z</time></trkpt><trkpt lat="44.78922072722495" lon="10.474669230309813"><ele>42.0</ele><time>2026-04-11T11:54:21Z</time></trkpt><trkpt lat="44.78907927484937" lon="10.474966979581241"><ele>42.0</ele><time>2026-04-11T11:54:22Z</time></trkpt><trkpt lat="44.78893419897909" lon="10.475278945230404"><ele>42.0</ele><time>2026-04-11T11:54:23Z</time></trkpt><trkpt lat="44.78879027215856" lon="10.475585346220015"><ele>41.0</ele><time>2026-04-11T11:54:24Z</time></trkpt><trkpt lat="44.7886472636698" lon="10.475889301286498"><ele>40.0</ele><time>2026-04-11T11:54:25Z</time></trkpt><trkpt lat="44.788505489646596" lon="10.476193522905026"><ele>39.5</ele><time>2026-04-11T11:54:26Z</time></trkpt><trkpt lat="44.78836332245952" lon="10.47649761594477"><ele>39.0</ele><time>2026-04-11T11:54:27Z</time></trkpt><trkpt lat="44.78822251573324" lon="10.476801116420903"><ele>39.0</ele><time>2026-04-11T11:54:28Z</time></trkpt><trkpt lat="44.78808151982435" lon="10.477103995271696"><ele>39.0</ele><time>2026-04-11T11:54:29Z</time></trkpt><trkpt lat="44.78794278643526" lon="10.47740379401191"><ele>39.0</ele><time>2026-04-11T11:54:30Z</time></trkpt><trkpt lat="44.787802349077786" lon="10.477703683535353"><ele>39.0</ele><time>2026-04-11T11:54:31Z</time></trkpt><trkpt lat="44.78765904818749" lon="10.477999164521055"><ele>39.0</ele><time>2026-04-11T11:54:32Z</time></trkpt><trkpt lat="44.787515746149026" lon="10.478297485172268"><ele>39.0</ele><time>2026-04-11T11:54:33Z</time></trkpt><trkpt lat="44.78737212909254" lon="10.478597806096047"><ele>39.0</ele><time>2026-04-11T11:54:34Z</time></trkpt><trkpt lat="44.787227924143856" lon="10.478898819379754"><ele>39.0</ele><time>2026-04-11T11:54:35Z</time></trkpt><trkpt lat="44.78708656242128" lon="10.479204672318128"><ele>39.0</ele><time>2026-04-11T11:54:36Z</time></trkpt><trkpt lat="44.78694598525693" lon="10.479513079808173"><ele>39.0</ele><time>2026-04-11T11:54:37Z</time></trkpt><trkpt lat="44.78680365188111" lon="10.479821831290655"><ele>40.5</ele><time>2026-04-11T11:54:38Z</time></trkpt><trkpt lat="44.78666129296147" lon="10.480125624353558"><ele>42.0</ele><time>2026-04-11T11:54:39Z</time></trkpt><trkpt lat="44.78651647923234" lon="10.480429661837793"><ele>41.5</ele><time>2026-04-11T11:54:40Z</time></trkpt><trkpt lat="44.78637104289992" lon="10.480730790638852"><ele>41.0</ele><time>2026-04-11T11:54:41Z</time></trkpt><trkpt lat="44.786224585096946" lon="10.481033138737535"><ele>40.0</ele><time>2026-04-11T11:54:42Z</time></trkpt><trkpt lat="44.78607956702974" lon="10.481336038681944"><ele>39.0</ele><time>2026-04-11T11:54:43Z</time></trkpt><trkpt lat="44.78593576895332" lon="10.481642817615938"><ele>39.0</ele><time>2026-04-11T11:54:44Z</time></trkpt><trkpt lat="44.78579385978187" lon="10.481949424298165"><ele>39.0</ele><time>2026-04-11T11:54:45Z</time></trkpt><trkpt lat="44.78565237476795" lon="10.48225614689434"><ele>39.0</ele><time>2026-04-11T11:54:46Z</time></trkpt><trkpt lat="44.78551182707744" lon="10.482562433838545"><ele>39.0</ele><time>2026-04-11T11:54:47Z</time></trkpt><trkpt lat="44.78536827601298" lon="10.482869666457438"><ele>39.0</ele><time>2026-04-11T11:54:48Z</time></trkpt><trkpt lat="44.785223252996865" lon="10.483173596027843"><ele>39.0</ele><time>2026-04-11T11:54:49Z</time></trkpt><trkpt lat="44.785078137580165" lon="10.483476767605048"><ele>39.5</ele><time>2026-04-11T11:54:50Z</time></trkpt><trkpt lat="44.78493332933477" lon="10.483780196048007"><ele>40.0</ele><time>2026-04-11T11:54:51Z</time></trkpt><trkpt lat="44.78478746557082" lon="10.48408347907517"><ele>40.0</ele><time>2026-04-11T11:54:52Z</time></trkpt><trkpt lat="44.7846435326405" lon="10.484384039550536"><ele>40.0</ele><time>2026-04-11T11:54:53Z</time></trkpt><trkpt lat="44.78450023764242" lon="10.48469004861877"><ele>40.5</ele><time>2026-04-11T11:54:54Z</time></trkpt><trkpt lat="44.784357465423994" lon="10.48499812173701"><ele>41.0</ele><time>2026-04-11T11:54:55Z</time></trkpt><trkpt lat="44.78421637552387" lon="10.48530522155868"><ele>40.5</ele><time>2026-04-11T11:54:56Z</time></trkpt><trkpt lat="44.784074111609876" lon="10.485610245780956"><ele>40.0</ele><time>2026-04-11T11:54:57Z</time></trkpt><trkpt lat="44.78393255388742" lon="10.48591131638987"><ele>40.0</ele><time>2026-04-11T11:54:58Z</time></trkpt><trkpt lat="44.78378942989686" lon="10.486215872354334"><ele>40.0</ele><time>2026-04-11T11:54:59Z</time></trkpt><trkpt lat="44.78364726818615" lon="10.486517779395488"><ele>40.0</ele><time>2026-04-11T11:55:00Z</time></trkpt><trkpt lat="44.783501446826044" lon="10.486816604320296"><ele>40.0</ele><time>2026-04-11T11:55:01Z</time></trkpt><trkpt lat="44.78335326920097" lon="10.487108941123138"><ele>38.5</ele><time>2026-04-11T11:55:02Z</time></trkpt><trkpt lat="44.783202431585046" lon="10.487404214345709"><ele>37.0</ele><time>2026-04-11T11:55:03Z</time></trkpt><trkpt lat="44.7830541919533" lon="10.487702596661972"><ele>36.5</ele><time>2026-04-11T11:55:04Z</time></trkpt><trkpt lat="44.78290427597553" lon="10.487995584704914"><ele>36.0</ele><time>2026-04-11T11:55:05Z</time></trkpt><trkpt lat="44.78275797925632" lon="10.488263532445027"><ele>36.666666666666664</ele><time>2026-04-11T11:55:06Z</time></trkpt><trkpt lat="44.78262225157086" lon="10.488509973417049"><ele>37.33333333333333</ele><time>2026-04-11T11:55:07Z</time></trkpt><trkpt lat="44.78250453940691" lon="10.488750200155971"><ele>38.0</ele><time>2026-04-11T11:55:08Z</time></trkpt><trkpt lat="44.782399741866705" lon="10.488975098057209"><ele>38.0</ele><time>2026-04-11T11:55:09Z</time></trkpt><trkpt lat="44.78230265336145" lon="10.48918627120741"><ele>38.0</ele><time>2026-04-11T11:55:10Z</time></trkpt><trkpt lat="44.78222488389724" lon="10.489364143932262"><ele>38.0</ele><time>2026-04-11T11:55:11Z</time></trkpt><trkpt lat="44.78213027836614" lon="10.489563042916954"><ele>37.666666666666664</ele><time>2026-04-11T11:55:12Z</time></trkpt><trkpt lat="44.78204126786577" lon="10.489744105380586"><ele>37.333333333333336</ele><time>2026-04-11T11:55:13Z</time></trkpt><trkpt lat="44.78196485344633" lon="10.489929152111566"><ele>37.0</ele><time>2026-04-11T11:55:14Z</time></trkpt><trkpt lat="44.781851793222145" lon="10.490076409683097"><ele>38.0</ele><time>2026-04-11T11:55:15Z</time></trkpt><trkpt lat="44.78174328846124" lon="10.490227246345095"><ele>39.0</ele><time>2026-04-11T11:55:16Z</time></trkpt><trkpt lat="44.7816206120153" lon="10.490366107354001"><ele>40.0</ele><time>2026-04-11T11:55:17Z</time></trkpt><trkpt lat="44.78148367619763" lon="10.490498967673005"><ele>40.0</ele><time>2026-04-11T11:55:18Z</time></trkpt><trkpt lat="44.78133715774897" lon="10.49061968260289"><ele>40.0</ele><time>2026-04-11T11:55:19Z</time></trkpt><trkpt lat="44.78118349331634" lon="10.490721064683978"><ele>40.0</ele><time>2026-04-11T11:55:20Z</time></trkpt><trkpt lat="44.78102018920648" lon="10.490803945563902"><ele>39.66666666666667</ele><time>2026-04-11T11:55:21Z</time></trkpt><trkpt lat="44.78086307803716" lon="10.490859310445156"><ele>39.333333333333336</ele><time>2026-04-11T11:55:22Z</time></trkpt><trkpt lat="44.78071882946573" lon="10.49089713400496"><ele>39.0</ele><time>2026-04-11T11:55:23Z</time></trkpt><trkpt lat="44.78057844016874" lon="10.490936069743116"><ele>39.0</ele><time>2026-04-11T11:55:24Z</time></trkpt><trkpt lat="44.780435314456405" lon="10.49097994061662"><ele>39.0</ele><time>2026-04-11T11:55:25Z</time></trkpt><trkpt lat="44.78029493760346" lon="10.491033829968769"><ele>39.0</ele><time>2026-04-11T11:55:26Z</time></trkpt><trkpt lat="44.78015015591367" lon="10.491097725951576"><ele>39.0</ele><time>2026-04-11T11:55:27Z</time></trkpt><trkpt lat="44.78000548087968" lon="10.49116978816766"><ele>39.0</ele><time>2026-04-11T11:55:28Z</time></trkpt><trkpt lat="44.779859747392486" lon="10.49126391597615"><ele>39.0</ele><time>2026-04-11T11:55:29Z</time></trkpt><trkpt lat="44.77971628605559" lon="10.491347999500338"><ele>39.0</ele><time>2026-04-11T11:55:30Z</time></trkpt><trkpt lat="44.77955319755152" lon="10.49144655240082"><ele>39.0</ele><time>2026-04-11T11:55:31Z</time></trkpt><trkpt lat="44.77939920860882" lon="10.491541684335331"><ele>39.0</ele><time>2026-04-11T11:55:32Z</time></trkpt><trkpt lat="44.77925336386768" lon="10.491628139909265"><ele>39.0</ele><time>2026-04-11T11:55:33Z</time></trkpt><trkpt lat="44.77910462878362" lon="10.491719731591798"><ele>39.0</ele><time>2026-04-11T11:55:34Z</time></trkpt><trkpt lat="44.77896156597948" lon="10.491803151367874"><ele>39.0</ele><time>2026-04-11T11:55:35Z</time></trkpt><trkpt lat="44.77882388960395" lon="10.49188553676863"><ele>39.0</ele><time>2026-04-11T11:55:36Z</time></trkpt><trkpt lat="44.77869143149411" lon="10.491960754401482"><ele>39.0</ele><time>2026-04-11T11:55:37Z</time></trkpt><trkpt lat="44.77856661433433" lon="10.492030972323954"><ele>38.8</ele><time>2026-04-11T11:55:38Z</time></trkpt><trkpt lat="44.77845467237254" lon="10.492091868374605"><ele>38.599999999999994</ele><time>2026-04-11T11:55:39Z</time></trkpt><trkpt lat="44.778356525351256" lon="10.492142884932413"><ele>38.4</ele><time>2026-04-11T11:55:40Z</time></trkpt><trkpt lat="44.7782741338595" lon="10.492188281827774"><ele>38.199999999999996</ele><time>2026-04-11T11:55:41Z</time></trkpt><trkpt lat="44.778204757036775" lon="10.492226278550204"><ele>38.0</ele><time>2026-04-11T11:55:42Z</time></trkpt><trkpt lat="44.77811064504483" lon="10.492282626855433"><ele>38.0</ele><time>2026-04-11T11:55:44Z</time></trkpt><trkpt lat="44.778024233101554" lon="10.492339090800957"><ele>38.0</ele><time>2026-04-11T11:55:46Z</time></trkpt><trkpt lat="44.77794535222073" lon="10.492391895152618"><ele>38.0</ele><time>2026-04-11T11:55:48Z</time></trkpt><trkpt lat="44.77787398626445" lon="10.492437350383685"><ele>38.0</ele><time>2026-04-11T11:55:50Z</time></trkpt><trkpt lat="44.7778082842057" lon="10.492476150596321"><ele>38.0</ele><time>2026-04-11T11:55:53Z</time></trkpt><trkpt lat="44.77774987157203" lon="10.492517541272866"><ele>38.0</ele><time>2026-04-11T11:55:58Z</time></trkpt><trkpt lat="44.77769534509066" lon="10.492562529787325"><ele>38.199999999999996</ele><time>2026-04-11T11:56:02Z</time></trkpt><trkpt lat="44.77762570728468" lon="10.49260417250097"><ele>38.4</ele><time>2026-04-11T11:56:05Z</time></trkpt><trkpt lat="44.77756106750447" lon="10.49264631807916"><ele>38.599999999999994</ele><time>2026-04-11T11:56:09Z</time></trkpt><trkpt lat="44.77748479176487" lon="10.49267036438096"><ele>38.8</ele><time>2026-04-11T11:56:35Z</time></trkpt><trkpt lat="44.77736324138436" lon="10.492718456847633"><ele>39.0</ele><time>2026-04-11T11:56:37Z</time></trkpt><trkpt lat="44.77724039094328" lon="10.492809276286716"><ele>38.8</ele><time>2026-04-11T11:56:39Z</time></trkpt><trkpt lat="44.77716765569362" lon="10.49292869403449"><ele>38.599999999999994</ele><time>2026-04-11T11:56:40Z</time></trkpt><trkpt lat="44.77708199745527" lon="10.492984807862141"><ele>38.4</ele><time>2026-04-11T11:56:41Z</time></trkpt><trkpt lat="44.77699560643871" lon="10.493040040707964"><ele>38.199999999999996</ele><time>2026-04-11T11:56:42Z</time></trkpt><trkpt lat="44.776900097683715" lon="10.493100829058935"><ele>38.0</ele><time>2026-04-11T11:56:43Z</time></trkpt><trkpt lat="44.7768051988944" lon="10.493160676710175"><ele>38.0</ele><time>2026-04-11T11:56:44Z</time></trkpt><trkpt lat="44.77671305568905" lon="10.493216748890996"><ele>38.0</ele><time>2026-04-11T11:56:45Z</time></trkpt><trkpt lat="44.77662313069872" lon="10.493270132149338"><ele>38.0</ele><time>2026-04-11T11:56:46Z</time></trkpt><trkpt lat="44.77653087540948" lon="10.493323624311229"><ele>38.0</ele><time>2026-04-11T11:56:47Z</time></trkpt><trkpt lat="44.776428968994814" lon="10.493383176213975"><ele>38.0</ele><time>2026-04-11T11:56:48Z</time></trkpt><trkpt lat="44.77632316028417" lon="10.49342183116718"><ele>38.0</ele><time>2026-04-11T11:56:49Z</time></trkpt><trkpt lat="44.776224033439256" lon="10.493485381027964"><ele>38.0</ele><time>2026-04-11T11:56:50Z</time></trkpt><trkpt lat="44.77612909979523" lon="10.493546229428812"><ele>38.0</ele><time>2026-04-11T11:56:51Z</time></trkpt><trkpt lat="44.77604981325484" lon="10.49359172968163"><ele>38.0</ele><time>2026-04-11T11:56:52Z</time></trkpt><trkpt lat="44.77596460132519" lon="10.493640861557527"><ele>38.0</ele><time>2026-04-11T11:56:53Z</time></trkpt><trkpt lat="44.775889700460674" lon="10.493675995054158"><ele>38.33333333333333</ele><time>2026-04-11T11:56:54Z</time></trkpt><trkpt lat="44.77582347381676" lon="10.493687483204761"><ele>38.666666666666664</ele><time>2026-04-11T11:56:55Z</time></trkpt><trkpt lat="44.77576442357427" lon="10.493724149262926"><ele>39.0</ele><time>2026-04-11T11:56:57Z</time></trkpt><trkpt lat="44.775733328401856" lon="10.493617288062485"><ele>39.333333333333336</ele><time>2026-04-11T11:56:58Z</time></trkpt><trkpt lat="44.77565872305294" lon="10.493477243486815"><ele>39.66666666666667</ele><time>2026-04-11T11:57:00Z</time></trkpt><trkpt lat="44.77561453886776" lon="10.4933984386226"><ele>40.0</ele><time>2026-04-11T11:57:01Z</time></trkpt><trkpt lat="44.775562605993585" lon="10.493318107120805"><ele>40.0</ele><time>2026-04-11T11:57:02Z</time></trkpt><trkpt lat="44.77549182521789" lon="10.493249357819941"><ele>40.0</ele><time>2026-04-11T11:57:03Z</time></trkpt><trkpt lat="44.77541116968606" lon="10.49320748289505"><ele>40.0</ele><time>2026-04-11T11:57:04Z</time></trkpt><trkpt lat="44.77532353612564" lon="10.49321954234016"><ele>40.0</ele><time>2026-04-11T11:57:05.001Z</time></trkpt><trkpt lat="44.775254436383165" lon="10.493286615658239"><ele>40.0</ele><time>2026-04-11T11:57:06.001Z</time></trkpt><trkpt lat="44.77519920303164" lon="10.49338800858932"><ele>40.0</ele><time>2026-04-11T11:57:07.001Z</time></trkpt><trkpt lat="44.77517160466516" lon="10.4934960723504"><ele>40.0</ele><time>2026-04-11T11:57:08.001Z</time></trkpt><trkpt lat="44.77518454418955" lon="10.493596335749126"><ele>40.0</ele><time>2026-04-11T11:57:09.001Z</time></trkpt><trkpt lat="44.775193430272964" lon="10.493686066674456"><ele>40.0</ele><time>2026-04-11T11:57:46.001Z</time></trkpt><trkpt lat="44.775189591984635" lon="10.493819953052016"><ele>40.0</ele><time>2026-04-11T11:57:49.001Z</time></trkpt><trkpt lat="44.77522093956482" lon="10.493917017186916"><ele>40.0</ele><time>2026-04-11T11:57:51.001Z</time></trkpt><trkpt lat="44.77525114796323" lon="10.494036635609849"><ele>40.0</ele><time>2026-04-11T11:57:53.001Z</time></trkpt><trkpt lat="44.77528348641257" lon="10.494142407287507"><ele>40.0</ele><time>2026-04-11T11:57:54.001Z</time></trkpt><trkpt lat="44.775323984627946" lon="10.494247463805698"><ele>40.0</ele><time>2026-04-11T11:57:55.001Z</time></trkpt><trkpt lat="44.77537686166821" lon="10.494355981622997"><ele>40.0</ele><time>2026-04-11T11:57:56.001Z</time></trkpt><trkpt lat="44.77544886824712" lon="10.494457492792737"><ele>40.0</ele><time>2026-04-11T11:57:57.001Z</time></trkpt><trkpt lat="44.775491934769335" lon="10.49459609443201"><ele>40.0</ele><time>2026-04-11T11:57:58Z</time></trkpt><trkpt lat="44.775560203491786" lon="10.494679400963049"><ele>39.8</ele><time>2026-04-11T11:57:59Z</time></trkpt><trkpt lat="44.775610587172054" lon="10.494766934403987"><ele>39.6</ele><time>2026-04-11T11:57:59.999Z</time></trkpt><trkpt lat="44.775656842135966" lon="10.494848872326449"><ele>39.4</ele><time>2026-04-11T11:58:00.999Z</time></trkpt><trkpt lat="44.7756139602334" lon="10.495023415186282"><ele>39.2</ele><time>2026-04-11T11:58:01.999Z</time></trkpt><trkpt lat="44.775589079667704" lon="10.495157500868165"><ele>39.0</ele><time>2026-04-11T11:58:02.999Z</time></trkpt><trkpt lat="44.775541117600795" lon="10.495283532164587"><ele>39.0</ele><time>2026-04-11T11:58:03.999Z</time></trkpt><trkpt lat="44.775467374357476" lon="10.495381144823314"><ele>39.0</ele><time>2026-04-11T11:58:04.999Z</time></trkpt><trkpt lat="44.77536953478314" lon="10.495457101069332"><ele>39.0</ele><time>2026-04-11T11:58:05.999Z</time></trkpt><trkpt lat="44.775259073434405" lon="10.495532511996434"><ele>39.0</ele><time>2026-04-11T11:58:06.999Z</time></trkpt><trkpt lat="44.77514272963049" lon="10.495612577309194"><ele>38.75</ele><time>2026-04-11T11:58:07.999Z</time></trkpt><trkpt lat="44.77501685725829" lon="10.495698779126046"><ele>38.5</ele><time>2026-04-11T11:58:08.999Z</time></trkpt><trkpt lat="44.77488435079643" lon="10.495794122203648"><ele>38.25</ele><time>2026-04-11T11:58:09.999Z</time></trkpt><trkpt lat="44.774743986382596" lon="10.495898961183364"><ele>38.0</ele><time>2026-04-11T11:58:10.999Z</time></trkpt><trkpt lat="44.774599392210845" lon="10.496003731083947"><ele>38.0</ele><time>2026-04-11T11:58:11.999Z</time></trkpt><trkpt lat="44.7744486057024" lon="10.49610559372415"><ele>38.0</ele><time>2026-04-11T11:58:12.999Z</time></trkpt><trkpt lat="44.77428329593154" lon="10.496207702106839"><ele>38.0</ele><time>2026-04-11T11:58:13.999Z</time></trkpt><trkpt lat="44.77410911929626" lon="10.496313863488787"><ele>38.0</ele><time>2026-04-11T11:58:14.999Z</time></trkpt><trkpt lat="44.773918596588516" lon="10.49642727450577"><ele>38.0</ele><time>2026-04-11T11:58:15.999Z</time></trkpt><trkpt lat="44.77371982658499" lon="10.496549016292747"><ele>38.0</ele><time>2026-04-11T11:58:16.999Z</time></trkpt><trkpt lat="44.77351485897254" lon="10.49666767579369"><ele>38.5</ele><time>2026-04-11T11:58:17.999Z</time></trkpt><trkpt lat="44.773304026806926" lon="10.496777960983831"><ele>39.0</ele><time>2026-04-11T11:58:18.999Z</time></trkpt><trkpt lat="44.77309007691353" lon="10.496886767485892"><ele>39.0</ele><time>2026-04-11T11:58:19.999Z</time></trkpt><trkpt lat="44.77287528702315" lon="10.496995368561315"><ele>39.0</ele><time>2026-04-11T11:58:20.999Z</time></trkpt><trkpt lat="44.7726618388846" lon="10.49710713189545"><ele>39.0</ele><time>2026-04-11T11:58:21.999Z</time></trkpt><trkpt lat="44.77244900147273" lon="10.497218009768583"><ele>39.0</ele><time>2026-04-11T11:58:22.999Z</time></trkpt><trkpt lat="44.772233287153774" lon="10.497330828808153"><ele>39.0</ele><time>2026-04-11T11:58:23.999Z</time></trkpt><trkpt lat="44.77201518337237" lon="10.497442208984866"><ele>39.0</ele><time>2026-04-11T11:58:24.999Z</time></trkpt><trkpt lat="44.771799676824756" lon="10.497552971045165"><ele>39.0</ele><time>2026-04-11T11:58:25.999Z</time></trkpt><trkpt lat="44.77158290503271" lon="10.497663752626423"><ele>39.0</ele><time>2026-04-11T11:58:27Z</time></trkpt><trkpt lat="44.771368462928834" lon="10.497774528489925"><ele>39.0</ele><time>2026-04-11T11:58:28Z</time></trkpt><trkpt lat="44.77115633062538" lon="10.497883981118006"><ele>39.0</ele><time>2026-04-11T11:58:29Z</time></trkpt><trkpt lat="44.770942397980754" lon="10.497993316729401"><ele>37.5</ele><time>2026-04-11T11:58:30Z</time></trkpt><trkpt lat="44.770727851751836" lon="10.498098175287783"><ele>36.0</ele><time>2026-04-11T11:58:31Z</time></trkpt><trkpt lat="44.77050752522844" lon="10.498208338229325"><ele>36.0</ele><time>2026-04-11T11:58:32Z</time></trkpt><trkpt lat="44.77029003738458" lon="10.498319217740361"><ele>36.0</ele><time>2026-04-11T11:58:33Z</time></trkpt><trkpt lat="44.77006964136944" lon="10.498435567225005"><ele>36.5</ele><time>2026-04-11T11:58:34Z</time></trkpt><trkpt lat="44.76984914091414" lon="10.498549704525221"><ele>37.0</ele><time>2026-04-11T11:58:35Z</time></trkpt><trkpt lat="44.769630811040784" lon="10.49866263536916"><ele>37.0</ele><time>2026-04-11T11:58:36Z</time></trkpt><trkpt lat="44.76941100538634" lon="10.498775407621192"><ele>37.0</ele><time>2026-04-11T11:58:37Z</time></trkpt><trkpt lat="44.76918977499461" lon="10.4988886046746"><ele>37.0</ele><time>2026-04-11T11:58:38Z</time></trkpt><trkpt lat="44.768968674582815" lon="10.498999257786355"><ele>37.0</ele><time>2026-04-11T11:58:39Z</time></trkpt><trkpt lat="44.76874621685407" lon="10.499111875511526"><ele>37.0</ele><time>2026-04-11T11:58:40Z</time></trkpt><trkpt lat="44.76852581270269" lon="10.499223468005166"><ele>37.0</ele><time>2026-04-11T11:58:41Z</time></trkpt><trkpt lat="44.76830804711149" lon="10.499332040246125"><ele>37.0</ele><time>2026-04-11T11:58:42Z</time></trkpt><trkpt lat="44.76808812830728" lon="10.499441087007234"><ele>37.0</ele><time>2026-04-11T11:58:43Z</time></trkpt><trkpt lat="44.76787355502858" lon="10.499548369900067"><ele>37.0</ele><time>2026-04-11T11:58:44Z</time></trkpt><trkpt lat="44.767661995767035" lon="10.499662350686725"><ele>37.0</ele><time>2026-04-11T11:58:45Z</time></trkpt><trkpt lat="44.76745025545285" lon="10.49977943969085"><ele>37.0</ele><time>2026-04-11T11:58:46Z</time></trkpt><trkpt lat="44.76723962079338" lon="10.499891966927699"><ele>37.0</ele><time>2026-04-11T11:58:47Z</time></trkpt><trkpt lat="44.76702709776779" lon="10.5000014070036"><ele>36.66666666666667</ele><time>2026-04-11T11:58:48Z</time></trkpt><trkpt lat="44.76681494526224" lon="10.500109540246351"><ele>36.333333333333336</ele><time>2026-04-11T11:58:49Z</time></trkpt><trkpt lat="44.766608497262624" lon="10.500219290053838"><ele>36.0</ele><time>2026-04-11T11:58:50Z</time></trkpt><trkpt lat="44.766412480795964" lon="10.5003249770492"><ele>36.0</ele><time>2026-04-11T11:58:51Z</time></trkpt><trkpt lat="44.766231281237914" lon="10.50042315695123"><ele>36.0</ele><time>2026-04-11T11:58:52Z</time></trkpt><trkpt lat="44.76605743809528" lon="10.500511943567842"><ele>36.0</ele><time>2026-04-11T11:58:53Z</time></trkpt><trkpt lat="44.76586868119345" lon="10.500568134605563"><ele>36.666666666666664</ele><time>2026-04-11T11:58:54Z</time></trkpt><trkpt lat="44.765669996045666" lon="10.50053712860685"><ele>37.33333333333333</ele><time>2026-04-11T11:58:55Z</time></trkpt><trkpt lat="44.76546386906291" lon="10.500500740890592"><ele>38.0</ele><time>2026-04-11T11:58:56Z</time></trkpt><trkpt lat="44.7652496142869" lon="10.500477204647122"><ele>38.0</ele><time>2026-04-11T11:58:57Z</time></trkpt><trkpt lat="44.76503306326033" lon="10.500424369073889"><ele>38.0</ele><time>2026-04-11T11:58:58Z</time></trkpt><trkpt lat="44.76480788280191" lon="10.500376932835152"><ele>38.0</ele><time>2026-04-11T11:58:59Z</time></trkpt><trkpt lat="44.764579697184935" lon="10.500322405384322"><ele>38.5</ele><time>2026-04-11T11:59:00Z</time></trkpt><trkpt lat="44.764347371094715" lon="10.500262524671795"><ele>39.0</ele><time>2026-04-11T11:59:01Z</time></trkpt><trkpt lat="44.7641107891093" lon="10.500208707279466"><ele>39.0</ele><time>2026-04-11T11:59:02Z</time></trkpt><trkpt lat="44.7638732946577" lon="10.500154203843024"><ele>39.0</ele><time>2026-04-11T11:59:03Z</time></trkpt><trkpt lat="44.763636060203154" lon="10.500095564817315"><ele>38.5</ele><time>2026-04-11T11:59:04Z</time></trkpt><trkpt lat="44.763396227362364" lon="10.500027412036088"><ele>38.0</ele><time>2026-04-11T11:59:05Z</time></trkpt><trkpt lat="44.763159411765216" lon="10.499949396700659"><ele>38.0</ele><time>2026-04-11T11:59:06Z</time></trkpt><trkpt lat="44.76292219886473" lon="10.49986347012836"><ele>38.0</ele><time>2026-04-11T11:59:07Z</time></trkpt><trkpt lat="44.76268720814612" lon="10.499770927152237"><ele>39.0</ele><time>2026-04-11T11:59:08Z</time></trkpt><trkpt lat="44.762452282804134" lon="10.499660476432306"><ele>40.0</ele><time>2026-04-11T11:59:09Z</time></trkpt><trkpt lat="44.7622268621565" lon="10.499505152832068"><ele>40.0</ele><time>2026-04-11T11:59:10Z</time></trkpt><trkpt lat="44.761993749483345" lon="10.499378050893238"><ele>40.0</ele><time>2026-04-11T11:59:11Z</time></trkpt><trkpt lat="44.761768026027305" lon="10.499217466922445"><ele>40.0</ele><time>2026-04-11T11:59:12Z</time></trkpt><trkpt lat="44.761538749404636" lon="10.499070959817713"><ele>40.0</ele><time>2026-04-11T11:59:13Z</time></trkpt><trkpt lat="44.761307252972884" lon="10.498922613955207"><ele>40.0</ele><time>2026-04-11T11:59:14Z</time></trkpt><trkpt lat="44.761076462774845" lon="10.49877120383749"><ele>40.0</ele><time>2026-04-11T11:59:15Z</time></trkpt><trkpt lat="44.76084619016889" lon="10.498622239468112"><ele>41.0</ele><time>2026-04-11T11:59:16Z</time></trkpt><trkpt lat="44.76061487428554" lon="10.49847506208475"><ele>42.0</ele><time>2026-04-11T11:59:17Z</time></trkpt><trkpt lat="44.760385120770465" lon="10.49833395602592"><ele>43.0</ele><time>2026-04-11T11:59:18Z</time></trkpt><trkpt lat="44.76015362965245" lon="10.498204828169332"><ele>44.0</ele><time>2026-04-11T11:59:19Z</time></trkpt><trkpt lat="44.75991821335635" lon="10.498099753442641"><ele>44.0</ele><time>2026-04-11T11:59:20Z</time></trkpt><trkpt lat="44.75967922805203" lon="10.498014823151806"><ele>44.0</ele><time>2026-04-11T11:59:21Z</time></trkpt><trkpt lat="44.75944532686586" lon="10.497932237656814"><ele>43.0</ele><time>2026-04-11T11:59:22Z</time></trkpt><trkpt lat="44.759213163119" lon="10.497840728413742"><ele>42.0</ele><time>2026-04-11T11:59:23Z</time></trkpt><trkpt lat="44.75898781440551" lon="10.497740867475283"><ele>42.0</ele><time>2026-04-11T11:59:24Z</time></trkpt><trkpt lat="44.7587609610751" lon="10.497619805279744"><ele>42.0</ele><time>2026-04-11T11:59:25Z</time></trkpt><trkpt lat="44.758535204478235" lon="10.497480164388788"><ele>42.5</ele><time>2026-04-11T11:59:26Z</time></trkpt><trkpt lat="44.75831009470732" lon="10.497333677922096"><ele>43.0</ele><time>2026-04-11T11:59:27Z</time></trkpt><trkpt lat="44.758081466475026" lon="10.497180430055618"><ele>43.0</ele><time>2026-04-11T11:59:28Z</time></trkpt><trkpt lat="44.75785480657539" lon="10.497030102090646"><ele>43.0</ele><time>2026-04-11T11:59:29Z</time></trkpt><trkpt lat="44.75762809613232" lon="10.496883378938293"><ele>44.5</ele><time>2026-04-11T11:59:30Z</time></trkpt><trkpt lat="44.757400736894354" lon="10.496734958532247"><ele>46.0</ele><time>2026-04-11T11:59:31Z</time></trkpt><trkpt lat="44.757176891618236" lon="10.496592918787403"><ele>46.0</ele><time>2026-04-11T11:59:32Z</time></trkpt><trkpt lat="44.75694824639871" lon="10.496457753181119"><ele>46.0</ele><time>2026-04-11T11:59:33Z</time></trkpt><trkpt lat="44.7567187398375" lon="10.496336382394334"><ele>45.5</ele><time>2026-04-11T11:59:34Z</time></trkpt><trkpt lat="44.75648728670632" lon="10.496217274780777"><ele>45.0</ele><time>2026-04-11T11:59:35Z</time></trkpt><trkpt lat="44.756259112880855" lon="10.496091828008222"><ele>44.5</ele><time>2026-04-11T11:59:36Z</time></trkpt><trkpt lat="44.75603073340661" lon="10.495964956576179"><ele>44.0</ele><time>2026-04-11T11:59:37Z</time></trkpt><trkpt lat="44.75580260954671" lon="10.495837520780013"><ele>44.0</ele><time>2026-04-11T11:59:38Z</time></trkpt><trkpt lat="44.75557531378531" lon="10.495712527528452"><ele>44.0</ele><time>2026-04-11T11:59:39Z</time></trkpt><trkpt lat="44.7553465516068" lon="10.495590976072686"><ele>44.33333333333333</ele><time>2026-04-11T11:59:40Z</time></trkpt><trkpt lat="44.75513313991123" lon="10.495478357522675"><ele>44.666666666666664</ele><time>2026-04-11T11:59:41Z</time></trkpt><trkpt lat="44.75493573995058" lon="10.49537301667453"><ele>45.0</ele><time>2026-04-11T11:59:42Z</time></trkpt><trkpt lat="44.754757374760324" lon="10.495275263798268"><ele>45.0</ele><time>2026-04-11T11:59:43Z</time></trkpt><trkpt lat="44.754614336024126" lon="10.495191400651466"><ele>45.0</ele><time>2026-04-11T11:59:44Z</time></trkpt><trkpt lat="44.754491636313254" lon="10.495115628851021"><ele>45.0</ele><time>2026-04-11T11:59:45Z</time></trkpt><trkpt lat="44.75439603930934" lon="10.495039787862812"><ele>45.0</ele><time>2026-04-11T11:59:46Z</time></trkpt><trkpt lat="44.75432714314875" lon="10.494921877038927"><ele>45.4</ele><time>2026-04-11T11:59:47Z</time></trkpt><trkpt lat="44.75426670098835" lon="10.494800282790601"><ele>45.8</ele><time>2026-04-11T11:59:48Z</time></trkpt><trkpt lat="44.754183516731835" lon="10.494725962783258"><ele>46.2</ele><time>2026-04-11T11:59:49Z</time></trkpt><trkpt lat="44.75407950919243" lon="10.494713045394846"><ele>46.6</ele><time>2026-04-11T11:59:50Z</time></trkpt><trkpt lat="44.75396578951767" lon="10.494723839399262"><ele>47.0</ele><time>2026-04-11T11:59:51Z</time></trkpt><trkpt lat="44.7538417350869" lon="10.494690867619765"><ele>47.0</ele><time>2026-04-11T11:59:52Z</time></trkpt><trkpt lat="44.75371660517406" lon="10.494608893164553"><ele>47.0</ele><time>2026-04-11T11:59:53Z</time></trkpt><trkpt lat="44.753585563712534" lon="10.494524343161242"><ele>47.0</ele><time>2026-04-11T11:59:54Z</time></trkpt><trkpt lat="44.75344608554038" lon="10.494438358683581"><ele>47.0</ele><time>2026-04-11T11:59:55Z</time></trkpt><trkpt lat="44.75330269324098" lon="10.494348311920804"><ele>46.666666666666664</ele><time>2026-04-11T11:59:56Z</time></trkpt><trkpt lat="44.753157166203735" lon="10.494258502615057"><ele>46.333333333333336</ele><time>2026-04-11T11:59:57Z</time></trkpt><trkpt lat="44.75301203400898" lon="10.494161144167915"><ele>46.0</ele><time>2026-04-11T11:59:58Z</time></trkpt><trkpt lat="44.75286118048309" lon="10.494063602241017"><ele>46.0</ele><time>2026-04-11T11:59:59Z</time></trkpt><trkpt lat="44.75271122179017" lon="10.493969692474222"><ele>46.0</ele><time>2026-04-11T12:00:00Z</time></trkpt><trkpt lat="44.752559034786245" lon="10.49387350936723"><ele>46.0</ele><time>2026-04-11T12:00:01Z</time></trkpt><trkpt lat="44.7524049532742" lon="10.493776512721164"><ele>46.333333333333336</ele><time>2026-04-11T12:00:02Z</time></trkpt><trkpt lat="44.7522501435436" lon="10.49367977996089"><ele>46.666666666666664</ele><time>2026-04-11T12:00:03Z</time></trkpt><trkpt lat="44.75209442931782" lon="10.493579422304187"><ele>47.0</ele><time>2026-04-11T12:00:04Z</time></trkpt><trkpt lat="44.75193807093445" lon="10.493479071427407"><ele>47.666666666666664</ele><time>2026-04-11T12:00:05Z</time></trkpt><trkpt lat="44.751780543631405" lon="10.493376799102206"><ele>48.33333333333333</ele><time>2026-04-11T12:00:06Z</time></trkpt><trkpt lat="44.751623778026726" lon="10.493275824454901"><ele>49.0</ele><time>2026-04-11T12:00:07Z</time></trkpt><trkpt lat="44.75146229327116" lon="10.493173207375122"><ele>49.0</ele><time>2026-04-11T12:00:08Z</time></trkpt><trkpt lat="44.75129759222369" lon="10.493068844594088"><ele>49.0</ele><time>2026-04-11T12:00:09Z</time></trkpt><trkpt lat="44.75112871255144" lon="10.49296321969224"><ele>49.0</ele><time>2026-04-11T12:00:10Z</time></trkpt><trkpt lat="44.75095637865172" lon="10.492856971942826"><ele>49.0</ele><time>2026-04-11T12:00:11Z</time></trkpt><trkpt lat="44.75078164229085" lon="10.492747989265267"><ele>49.0</ele><time>2026-04-11T12:00:12Z</time></trkpt><trkpt lat="44.750603190893486" lon="10.492636184833833"><ele>49.0</ele><time>2026-04-11T12:00:13Z</time></trkpt><trkpt lat="44.750423784554485" lon="10.492520598755677"><ele>49.0</ele><time>2026-04-11T12:00:14Z</time></trkpt><trkpt lat="44.75024185871306" lon="10.492399119578009"><ele>49.0</ele><time>2026-04-11T12:00:15Z</time></trkpt><trkpt lat="44.75005966569017" lon="10.492282938976711"><ele>49.0</ele><time>2026-04-11T12:00:16Z</time></trkpt><trkpt lat="44.74988268010478" lon="10.492177120215436"><ele>49.33333333333333</ele><time>2026-04-11T12:00:17Z</time></trkpt><trkpt lat="44.7497072819735" lon="10.492068514082835"><ele>49.66666666666667</ele><time>2026-04-11T12:00:18Z</time></trkpt><trkpt lat="44.749523100859726" lon="10.491949616519527"><ele>50.0</ele><time>2026-04-11T12:00:19Z</time></trkpt><trkpt lat="44.7493436216441" lon="10.491831957233444"><ele>50.66666666666667</ele><time>2026-04-11T12:00:20Z</time></trkpt><trkpt lat="44.74915733139383" lon="10.491707028187202"><ele>51.33333333333333</ele><time>2026-04-11T12:00:21Z</time></trkpt><trkpt lat="44.74896887950623" lon="10.491583339037525"><ele>52.0</ele><time>2026-04-11T12:00:22Z</time></trkpt><trkpt lat="44.74877902958907" lon="10.491462135622248"><ele>52.0</ele><time>2026-04-11T12:00:23Z</time></trkpt><trkpt lat="44.74858877428882" lon="10.491342119129445"><ele>52.0</ele><time>2026-04-11T12:00:24Z</time></trkpt><trkpt lat="44.74840612188676" lon="10.491225668679451"><ele>52.0</ele><time>2026-04-11T12:00:25Z</time></trkpt><trkpt lat="44.7482346800748" lon="10.491114339333029"><ele>51.33333333333333</ele><time>2026-04-11T12:00:26Z</time></trkpt><trkpt lat="44.748074461686755" lon="10.491007756340544"><ele>50.66666666666667</ele><time>2026-04-11T12:00:27Z</time></trkpt><trkpt lat="44.74792488336918" lon="10.490907582698206"><ele>50.0</ele><time>2026-04-11T12:00:28Z</time></trkpt><trkpt lat="44.74778538792619" lon="10.490812686214335"><ele>50.25</ele><time>2026-04-11T12:00:29Z</time></trkpt><trkpt lat="44.74766235490544" lon="10.49072723348549"><ele>50.5</ele><time>2026-04-11T12:00:30Z</time></trkpt><trkpt lat="44.74754855764202" lon="10.49063760639436"><ele>50.75</ele><time>2026-04-11T12:00:31Z</time></trkpt><trkpt lat="44.74744679170464" lon="10.490542603530047"><ele>51.0</ele><time>2026-04-11T12:00:32Z</time></trkpt><trkpt lat="44.74735123006682" lon="10.490428905725611"><ele>51.66666666666667</ele><time>2026-04-11T12:00:33Z</time></trkpt><trkpt lat="44.7472305726081" lon="10.490339820173189"><ele>52.333333333333336</ele><time>2026-04-11T12:00:34Z</time></trkpt><trkpt lat="44.7470799130915" lon="10.490283615018956"><ele>53.0</ele><time>2026-04-11T12:00:35Z</time></trkpt><trkpt lat="44.74690607263339" lon="10.490223438827512"><ele>53.333333333333336</ele><time>2026-04-11T12:00:36Z</time></trkpt><trkpt lat="44.746738471477926" lon="10.490110827398125"><ele>53.66666666666667</ele><time>2026-04-11T12:00:37Z</time></trkpt><trkpt lat="44.746572448475" lon="10.489970504033867"><ele>54.0</ele><time>2026-04-11T12:00:38Z</time></trkpt><trkpt lat="44.74639183651028" lon="10.489839320881671"><ele>54.0</ele><time>2026-04-11T12:00:39Z</time></trkpt><trkpt lat="44.746204407376204" lon="10.489705068560308"><ele>54.0</ele><time>2026-04-11T12:00:40Z</time></trkpt><trkpt lat="44.74601332511708" lon="10.489565439226723"><ele>54.0</ele><time>2026-04-11T12:00:41Z</time></trkpt><trkpt lat="44.74581866860571" lon="10.489426377393583"><ele>54.0</ele><time>2026-04-11T12:00:42Z</time></trkpt><trkpt lat="44.745620138271285" lon="10.48928500506436"><ele>54.0</ele><time>2026-04-11T12:00:43Z</time></trkpt><trkpt lat="44.745422509451814" lon="10.489142159154317"><ele>54.0</ele><time>2026-04-11T12:00:44Z</time></trkpt><trkpt lat="44.74522287348893" lon="10.48899629593944"><ele>53.66666666666667</ele><time>2026-04-11T12:00:45Z</time></trkpt><trkpt lat="44.74502446647943" lon="10.488851504124879"><ele>53.333333333333336</ele><time>2026-04-11T12:00:46Z</time></trkpt><trkpt lat="44.74482562513213" lon="10.488710759323205"><ele>53.0</ele><time>2026-04-11T12:00:47Z</time></trkpt><trkpt lat="44.744624762778365" lon="10.488570266971548"><ele>53.5</ele><time>2026-04-11T12:00:48Z</time></trkpt><trkpt lat="44.744421298058455" lon="10.488427734474582"><ele>54.0</ele><time>2026-04-11T12:00:49Z</time></trkpt><trkpt lat="44.74421752462272" lon="10.488286912757948"><ele>54.0</ele><time>2026-04-11T12:00:50Z</time></trkpt><trkpt lat="44.74400973018295" lon="10.488147563595625"><ele>54.0</ele><time>2026-04-11T12:00:51Z</time></trkpt><trkpt lat="44.74380262992285" lon="10.488010858671398"><ele>53.5</ele><time>2026-04-11T12:00:52Z</time></trkpt><trkpt lat="44.74359398826265" lon="10.487868645223093"><ele>53.0</ele><time>2026-04-11T12:00:53Z</time></trkpt><trkpt lat="44.74338549919043" lon="10.487720135869168"><ele>52.0</ele><time>2026-04-11T12:00:54Z</time></trkpt><trkpt lat="44.74317785577541" lon="10.487562081395136"><ele>51.0</ele><time>2026-04-11T12:00:55Z</time></trkpt><trkpt lat="44.74298165180011" lon="10.48738180459014"><ele>51.0</ele><time>2026-04-11T12:00:56Z</time></trkpt><trkpt lat="44.7428056386896" lon="10.487166228003693"><ele>51.0</ele><time>2026-04-11T12:00:57Z</time></trkpt><trkpt lat="44.74266905560133" lon="10.486898742756205"><ele>52.0</ele><time>2026-04-11T12:00:58Z</time></trkpt><trkpt lat="44.74252717183723" lon="10.486636503795502"><ele>53.0</ele><time>2026-04-11T12:00:59Z</time></trkpt><trkpt lat="44.742402301543606" lon="10.486362601803018"><ele>53.0</ele><time>2026-04-11T12:01:00Z</time></trkpt><trkpt lat="44.74227057631802" lon="10.486098227940099"><ele>53.0</ele><time>2026-04-11T12:01:01Z</time></trkpt><trkpt lat="44.74213994789567" lon="10.485834817737196"><ele>53.0</ele><time>2026-04-11T12:01:02Z</time></trkpt><trkpt lat="44.74199586722425" lon="10.48559360821929"><ele>53.0</ele><time>2026-04-11T12:01:03Z</time></trkpt><trkpt lat="44.74182397597911" lon="10.485390389453858"><ele>53.0</ele><time>2026-04-11T12:01:04Z</time></trkpt><trkpt lat="44.74163723327915" lon="10.485208957162067"><ele>54.0</ele><time>2026-04-11T12:01:05Z</time></trkpt><trkpt lat="44.74144258735557" lon="10.485050875921514"><ele>55.0</ele><time>2026-04-11T12:01:06Z</time></trkpt><trkpt lat="44.7412415673175" lon="10.484907194403512"><ele>55.5</ele><time>2026-04-11T12:01:07Z</time></trkpt><trkpt lat="44.74103820296141" lon="10.484764242399738"><ele>56.0</ele><time>2026-04-11T12:01:08Z</time></trkpt><trkpt lat="44.74083759552252" lon="10.484616371929325"><ele>56.0</ele><time>2026-04-11T12:01:09Z</time></trkpt><trkpt lat="44.740637237862636" lon="10.484467427481167"><ele>56.0</ele><time>2026-04-11T12:01:10Z</time></trkpt><trkpt lat="44.74043491184234" lon="10.484322576645065"><ele>56.0</ele><time>2026-04-11T12:01:11Z</time></trkpt><trkpt lat="44.740233471134566" lon="10.48417702932164"><ele>56.0</ele><time>2026-04-11T12:01:12Z</time></trkpt><trkpt lat="44.740032270914824" lon="10.484023588120728"><ele>56.0</ele><time>2026-04-11T12:01:13Z</time></trkpt><trkpt lat="44.73983159566007" lon="10.483865569188694"><ele>56.0</ele><time>2026-04-11T12:01:14Z</time></trkpt><trkpt lat="44.739636588505" lon="10.483697764250907"><ele>56.5</ele><time>2026-04-11T12:01:15Z</time></trkpt><trkpt lat="44.73944498496818" lon="10.483520334752773"><ele>57.0</ele><time>2026-04-11T12:01:16Z</time></trkpt><trkpt lat="44.739261135491226" lon="10.483338254303009"><ele>57.0</ele><time>2026-04-11T12:01:17Z</time></trkpt><trkpt lat="44.73907675541958" lon="10.483146135321816"><ele>57.0</ele><time>2026-04-11T12:01:18Z</time></trkpt><trkpt lat="44.73890093736454" lon="10.482944416371703"><ele>57.0</ele><time>2026-04-11T12:01:19Z</time></trkpt><trkpt lat="44.73872982803952" lon="10.482740860264071"><ele>57.0</ele><time>2026-04-11T12:01:20Z</time></trkpt><trkpt lat="44.7385642015774" lon="10.482535550824856"><ele>57.0</ele><time>2026-04-11T12:01:21Z</time></trkpt><trkpt lat="44.73839935062212" lon="10.482330670274601"><ele>57.0</ele><time>2026-04-11T12:01:22Z</time></trkpt><trkpt lat="44.73823735650434" lon="10.482137328233389"><ele>57.0</ele><time>2026-04-11T12:01:23Z</time></trkpt><trkpt lat="44.738082017146894" lon="10.481967565456246"><ele>57.0</ele><time>2026-04-11T12:01:24Z</time></trkpt><trkpt lat="44.7379226547613" lon="10.481803246635456"><ele>57.0</ele><time>2026-04-11T12:01:25Z</time></trkpt><trkpt lat="44.737753722023776" lon="10.481632121940033"><ele>57.0</ele><time>2026-04-11T12:01:26.001Z</time></trkpt><trkpt lat="44.73758375117891" lon="10.481456190573494"><ele>57.0</ele><time>2026-04-11T12:01:27.001Z</time></trkpt><trkpt lat="44.73740800304903" lon="10.48127273668482"><ele>57.33333333333333</ele><time>2026-04-11T12:01:28.001Z</time></trkpt><trkpt lat="44.737229987816555" lon="10.481089007038527"><ele>57.666666666666664</ele><time>2026-04-11T12:01:29.001Z</time></trkpt><trkpt lat="44.737046022599976" lon="10.480908303207471"><ele>58.0</ele><time>2026-04-11T12:01:30.001Z</time></trkpt><trkpt lat="44.736854735923956" lon="10.480740409690359"><ele>58.0</ele><time>2026-04-11T12:01:31.001Z</time></trkpt><trkpt lat="44.73665380343391" lon="10.480587369930173"><ele>58.0</ele><time>2026-04-11T12:01:32.001Z</time></trkpt><trkpt lat="44.736447078839426" lon="10.480450721916013"><ele>58.0</ele><time>2026-04-11T12:01:33.001Z</time></trkpt><trkpt lat="44.73623091200435" lon="10.480328962028002"><ele>58.0</ele><time>2026-04-11T12:01:34.001Z</time></trkpt><trkpt lat="44.73601352087076" lon="10.480223647637429"><ele>58.0</ele><time>2026-04-11T12:01:35.001Z</time></trkpt><trkpt lat="44.735791011797076" lon="10.480124118386406"><ele>58.0</ele><time>2026-04-11T12:01:36.001Z</time></trkpt><trkpt lat="44.73556558488284" lon="10.480024459897061"><ele>58.0</ele><time>2026-04-11T12:01:37.001Z</time></trkpt><trkpt lat="44.73534565509359" lon="10.479916688156827"><ele>58.0</ele><time>2026-04-11T12:01:38.001Z</time></trkpt><trkpt lat="44.73512665605462" lon="10.47979140633168"><ele>58.5</ele><time>2026-04-11T12:01:39.001Z</time></trkpt><trkpt lat="44.73491895822341" lon="10.47964674582699"><ele>59.0</ele><time>2026-04-11T12:01:40.001Z</time></trkpt><trkpt lat="44.73471179970201" lon="10.4794875519452"><ele>59.0</ele><time>2026-04-11T12:01:41.001Z</time></trkpt><trkpt lat="44.73451066565115" lon="10.479318383265763"><ele>59.0</ele><time>2026-04-11T12:01:42.001Z</time></trkpt><trkpt lat="44.734307430872455" lon="10.479142427436772"><ele>59.5</ele><time>2026-04-11T12:01:43.001Z</time></trkpt><trkpt lat="44.734107170805636" lon="10.47896624965947"><ele>60.0</ele><time>2026-04-11T12:01:44.001Z</time></trkpt><trkpt lat="44.73390431732873" lon="10.478790254024466"><ele>60.5</ele><time>2026-04-11T12:01:45.001Z</time></trkpt><trkpt lat="44.733700872182624" lon="10.478623370159731"><ele>61.0</ele><time>2026-04-11T12:01:46.001Z</time></trkpt><trkpt lat="44.73349866502684" lon="10.478460606983422"><ele>62.0</ele><time>2026-04-11T12:01:47.001Z</time></trkpt><trkpt lat="44.733297828790946" lon="10.47829340063951"><ele>63.0</ele><time>2026-04-11T12:01:48.001Z</time></trkpt><trkpt lat="44.73309870546393" lon="10.478124674493005"><ele>63.0</ele><time>2026-04-11T12:01:49.001Z</time></trkpt><trkpt lat="44.73290262953093" lon="10.477957004624887"><ele>63.0</ele><time>2026-04-11T12:01:50.001Z</time></trkpt><trkpt lat="44.73270564676785" lon="10.477791031473568"><ele>63.33333333333333</ele><time>2026-04-11T12:01:51.001Z</time></trkpt><trkpt lat="44.73251105258128" lon="10.477628518825767"><ele>63.666666666666664</ele><time>2026-04-11T12:01:52.001Z</time></trkpt><trkpt lat="44.73231797065777" lon="10.477472301917834"><ele>64.0</ele><time>2026-04-11T12:01:53.001Z</time></trkpt><trkpt lat="44.73212087769964" lon="10.477337956367647"><ele>64.0</ele><time>2026-04-11T12:01:54.001Z</time></trkpt><trkpt lat="44.73192220077215" lon="10.47720967709156"><ele>64.0</ele><time>2026-04-11T12:01:55.001Z</time></trkpt><trkpt lat="44.73172307967586" lon="10.477088406732227"><ele>64.0</ele><time>2026-04-11T12:01:56.001Z</time></trkpt><trkpt lat="44.73134783302254" lon="10.47686876527944"><ele>63.666666666666664</ele><time>2026-04-11T12:01:58.001Z</time></trkpt><trkpt lat="44.73116919116687" lon="10.476767109401962"><ele>63.33333333333333</ele><time>2026-04-11T12:01:59.001Z</time></trkpt><trkpt lat="44.730986605268555" lon="10.476660000373247"><ele>63.0</ele><time>2026-04-11T12:02:00.001Z</time></trkpt><trkpt lat="44.73080883513678" lon="10.476557099300434"><ele>63.66666666666667</ele><time>2026-04-11T12:02:01.001Z</time></trkpt><trkpt lat="44.730644305092035" lon="10.476458756493614"><ele>64.33333333333334</ele><time>2026-04-11T12:02:02.001Z</time></trkpt><trkpt lat="44.73049855242071" lon="10.476368488408463"><ele>65.0</ele><time>2026-04-11T12:02:03.001Z</time></trkpt><trkpt lat="44.730365096426326" lon="10.476265185952677"><ele>65.0</ele><time>2026-04-11T12:02:04.001Z</time></trkpt><trkpt lat="44.730253449539504" lon="10.476148340653356"><ele>65.0</ele><time>2026-04-11T12:02:05.001Z</time></trkpt><trkpt lat="44.73016329479935" lon="10.476026621305998"><ele>65.0</ele><time>2026-04-11T12:02:06.001Z</time></trkpt><trkpt lat="44.73009867765073" lon="10.47590814555733"><ele>65.0</ele><time>2026-04-11T12:02:07.001Z</time></trkpt><trkpt lat="44.73005142594207" lon="10.475794398557666"><ele>65.0</ele><time>2026-04-11T12:02:08.001Z</time></trkpt><trkpt lat="44.73001892580721" lon="10.47567675547923"><ele>65.0</ele><time>2026-04-11T12:02:09.001Z</time></trkpt><trkpt lat="44.73000655960864" lon="10.475552772237304"><ele>65.0</ele><time>2026-04-11T12:02:10Z</time></trkpt><trkpt lat="44.73001465212863" lon="10.475426858116274"><ele>65.0</ele><time>2026-04-11T12:02:11Z</time></trkpt><trkpt lat="44.730026422057115" lon="10.475306394993796"><ele>65.0</ele><time>2026-04-11T12:02:12Z</time></trkpt><trkpt lat="44.730008670439325" lon="10.47519174457607"><ele>65.0</ele><time>2026-04-11T12:02:13Z</time></trkpt><trkpt lat="44.729948295560085" lon="10.475101325565682"><ele>64.8</ele><time>2026-04-11T12:02:14Z</time></trkpt><trkpt lat="44.72986629439317" lon="10.475070615453424"><ele>64.6</ele><time>2026-04-11T12:02:15Z</time></trkpt><trkpt lat="44.729774364614855" lon="10.475089345896562"><ele>64.4</ele><time>2026-04-11T12:02:16Z</time></trkpt><trkpt lat="44.7296676515977" lon="10.475106319273348"><ele>64.2</ele><time>2026-04-11T12:02:17Z</time></trkpt><trkpt lat="44.72955246742872" lon="10.47508299960223"><ele>64.0</ele><time>2026-04-11T12:02:18Z</time></trkpt><trkpt lat="44.729432004139696" lon="10.475037225758737"><ele>64.25</ele><time>2026-04-11T12:02:19Z</time></trkpt><trkpt lat="44.729312154961136" lon="10.474979418159565"><ele>64.5</ele><time>2026-04-11T12:02:20Z</time></trkpt><trkpt lat="44.729188095993415" lon="10.474915876712027"><ele>64.75</ele><time>2026-04-11T12:02:21Z</time></trkpt><trkpt lat="44.72905572995521" lon="10.47484676491898"><ele>65.0</ele><time>2026-04-11T12:02:22.001Z</time></trkpt><trkpt lat="44.72892066542843" lon="10.47476535562683"><ele>65.0</ele><time>2026-04-11T12:02:23Z</time></trkpt><trkpt lat="44.72878430514548" lon="10.474669364704809"><ele>65.0</ele><time>2026-04-11T12:02:24Z</time></trkpt><trkpt lat="44.72864596961604" lon="10.474560031232254"><ele>65.0</ele><time>2026-04-11T12:02:25Z</time></trkpt><trkpt lat="44.728511886950265" lon="10.474436764474058"><ele>65.33333333333334</ele><time>2026-04-11T12:02:26Z</time></trkpt><trkpt lat="44.72837727141637" lon="10.474290488686846"><ele>65.66666666666667</ele><time>2026-04-11T12:02:27Z</time></trkpt><trkpt lat="44.728240137845006" lon="10.474136138879254"><ele>66.0</ele><time>2026-04-11T12:02:28Z</time></trkpt><trkpt lat="44.72810111691962" lon="10.473986515809274"><ele>66.0</ele><time>2026-04-11T12:02:29Z</time></trkpt><trkpt lat="44.72795512086427" lon="10.473848190554417"><ele>66.0</ele><time>2026-04-11T12:02:30Z</time></trkpt><trkpt lat="44.72780540525178" lon="10.473725733317554"><ele>66.0</ele><time>2026-04-11T12:02:31Z</time></trkpt><trkpt lat="44.72765208691828" lon="10.473603731258061"><ele>66.0</ele><time>2026-04-11T12:02:32Z</time></trkpt><trkpt lat="44.727492459648154" lon="10.473482806102579"><ele>66.0</ele><time>2026-04-11T12:02:33Z</time></trkpt><trkpt lat="44.72733912908367" lon="10.47337824655696"><ele>66.0</ele><time>2026-04-11T12:02:34Z</time></trkpt><trkpt lat="44.72719601316413" lon="10.473279226491284"><ele>66.0</ele><time>2026-04-11T12:02:35Z</time></trkpt><trkpt lat="44.72705879827537" lon="10.473190156342344"><ele>66.0</ele><time>2026-04-11T12:02:36Z</time></trkpt><trkpt lat="44.72691868154526" lon="10.473117005346053"><ele>66.0</ele><time>2026-04-11T12:02:37Z</time></trkpt><trkpt lat="44.72677438805117" lon="10.473062334020625"><ele>66.5</ele><time>2026-04-11T12:02:38Z</time></trkpt><trkpt lat="44.72663323966246" lon="10.4730129793575"><ele>67.0</ele><time>2026-04-11T12:02:39Z</time></trkpt><trkpt lat="44.72649258377466" lon="10.472973343315129"><ele>67.5</ele><time>2026-04-11T12:02:40Z</time></trkpt><trkpt lat="44.726356049842536" lon="10.472946216831339"><ele>68.0</ele><time>2026-04-11T12:02:41Z</time></trkpt><trkpt lat="44.726222312158654" lon="10.472928190120001"><ele>68.0</ele><time>2026-04-11T12:02:42Z</time></trkpt><trkpt lat="44.7260913517252" lon="10.472913639737024"><ele>68.0</ele><time>2026-04-11T12:02:43Z</time></trkpt><trkpt lat="44.725953383665754" lon="10.472904660021959"><ele>68.0</ele><time>2026-04-11T12:02:44Z</time></trkpt><trkpt lat="44.72581315480509" lon="10.472906941305737"><ele>68.0</ele><time>2026-04-11T12:02:45Z</time></trkpt><trkpt lat="44.725668559949824" lon="10.472923020399575"><ele>68.0</ele><time>2026-04-11T12:02:46Z</time></trkpt><trkpt lat="44.72552259829958" lon="10.47294496251941"><ele>68.0</ele><time>2026-04-11T12:02:47Z</time></trkpt><trkpt lat="44.725369067465124" lon="10.472970830721502"><ele>68.0</ele><time>2026-04-11T12:02:48Z</time></trkpt><trkpt lat="44.72521619432413" lon="10.472998611065623"><ele>68.33333333333334</ele><time>2026-04-11T12:02:49Z</time></trkpt><trkpt lat="44.72506186881619" lon="10.473029121288748"><ele>68.66666666666667</ele><time>2026-04-11T12:02:50Z</time></trkpt><trkpt lat="44.724904240058684" lon="10.47306002593667"><ele>69.0</ele><time>2026-04-11T12:02:51Z</time></trkpt><trkpt lat="44.724748367348354" lon="10.473088959143604"><ele>69.0</ele><time>2026-04-11T12:02:52Z</time></trkpt><trkpt lat="44.72458477243144" lon="10.473115417486794"><ele>69.0</ele><time>2026-04-11T12:02:53Z</time></trkpt><trkpt lat="44.72441978512583" lon="10.473145020397133"><ele>69.0</ele><time>2026-04-11T12:02:54Z</time></trkpt><trkpt lat="44.72425677020017" lon="10.473167834167324"><ele>68.66666666666667</ele><time>2026-04-11T12:02:55Z</time></trkpt><trkpt lat="44.72409337825521" lon="10.47318302115767"><ele>68.33333333333334</ele><time>2026-04-11T12:02:56Z</time></trkpt><trkpt lat="44.7239330474989" lon="10.47318988928671"><ele>68.0</ele><time>2026-04-11T12:02:57Z</time></trkpt><trkpt lat="44.72378303997588" lon="10.47318121113332"><ele>68.0</ele><time>2026-04-11T12:02:58Z</time></trkpt><trkpt lat="44.72363318917278" lon="10.473163356474627"><ele>68.0</ele><time>2026-04-11T12:02:59Z</time></trkpt><trkpt lat="44.723481902854545" lon="10.473138874163153"><ele>68.0</ele><time>2026-04-11T12:03:00Z</time></trkpt><trkpt lat="44.723332629994076" lon="10.473103772189301"><ele>68.0</ele><time>2026-04-11T12:03:01Z</time></trkpt><trkpt lat="44.72318477677669" lon="10.473061363069505"><ele>68.0</ele><time>2026-04-11T12:03:02Z</time></trkpt><trkpt lat="44.72303977941419" lon="10.473015614629375"><ele>68.0</ele><time>2026-04-11T12:03:03Z</time></trkpt><trkpt lat="44.72289062592674" lon="10.472968065024242"><ele>68.66666666666667</ele><time>2026-04-11T12:03:04Z</time></trkpt><trkpt lat="44.72273396445226" lon="10.472918632434565"><ele>69.33333333333333</ele><time>2026-04-11T12:03:05Z</time></trkpt><trkpt lat="44.72256692482788" lon="10.472865255496812"><ele>70.0</ele><time>2026-04-11T12:03:06Z</time></trkpt><trkpt lat="44.722388611101735" lon="10.472805562342796"><ele>70.33333333333333</ele><time>2026-04-11T12:03:07Z</time></trkpt><trkpt lat="44.722200456275885" lon="10.472723176368179"><ele>70.66666666666667</ele><time>2026-04-11T12:03:08Z</time></trkpt><trkpt lat="44.721999973567144" lon="10.47265109440457"><ele>71.0</ele><time>2026-04-11T12:03:09Z</time></trkpt><trkpt lat="44.72178307997515" lon="10.47261288917189"><ele>71.0</ele><time>2026-04-11T12:03:10Z</time></trkpt><trkpt lat="44.721568130479376" lon="10.472532474983847"><ele>71.0</ele><time>2026-04-11T12:03:11Z</time></trkpt><trkpt lat="44.721356679223135" lon="10.47245135300752"><ele>71.0</ele><time>2026-04-11T12:03:12Z</time></trkpt><trkpt lat="44.721127872325965" lon="10.472370795979314"><ele>70.5</ele><time>2026-04-11T12:03:13Z</time></trkpt><trkpt lat="44.72088139839476" lon="10.472250116827643"><ele>70.0</ele><time>2026-04-11T12:03:14Z</time></trkpt><trkpt lat="44.72063652171269" lon="10.472178324517698"><ele>70.5</ele><time>2026-04-11T12:03:15Z</time></trkpt><trkpt lat="44.720407357643516" lon="10.472098087976418"><ele>71.0</ele><time>2026-04-11T12:03:16Z</time></trkpt><trkpt lat="44.72019048478773" lon="10.472025084364002"><ele>71.33333333333334</ele><time>2026-04-11T12:03:17Z</time></trkpt><trkpt lat="44.71999327920142" lon="10.471932016324372"><ele>71.66666666666667</ele><time>2026-04-11T12:03:18Z</time></trkpt><trkpt lat="44.719802775888276" lon="10.471865783366265"><ele>72.0</ele><time>2026-04-11T12:03:19Z</time></trkpt><trkpt lat="44.719611823393684" lon="10.471799678095149"><ele>72.0</ele><time>2026-04-11T12:03:20Z</time></trkpt><trkpt lat="44.71944946430929" lon="10.471737988951551"><ele>72.0</ele><time>2026-04-11T12:03:21Z</time></trkpt><trkpt lat="44.71930978929906" lon="10.47167590442818"><ele>72.0</ele><time>2026-04-11T12:03:22Z</time></trkpt><trkpt lat="44.7191774584091" lon="10.47161029348343"><ele>72.0</ele><time>2026-04-11T12:03:23Z</time></trkpt><trkpt lat="44.719045562216664" lon="10.471557889315946"><ele>72.0</ele><time>2026-04-11T12:03:24Z</time></trkpt><trkpt lat="44.71891924217978" lon="10.471482899306096"><ele>72.0</ele><time>2026-04-11T12:03:25Z</time></trkpt><trkpt lat="44.71879472144167" lon="10.471407562009919"><ele>72.0</ele><time>2026-04-11T12:03:26Z</time></trkpt><trkpt lat="44.71867406719058" lon="10.471332444522831"><ele>72.2</ele><time>2026-04-11T12:03:27Z</time></trkpt><trkpt lat="44.71855928565278" lon="10.471265175357273"><ele>72.4</ele><time>2026-04-11T12:03:28Z</time></trkpt><trkpt lat="44.71845476702747" lon="10.471199184208569"><ele>72.6</ele><time>2026-04-11T12:03:29Z</time></trkpt><trkpt lat="44.718357507573096" lon="10.471137331020532"><ele>72.8</ele><time>2026-04-11T12:03:30Z</time></trkpt><trkpt lat="44.71826597117429" lon="10.471078043459423"><ele>73.0</ele><time>2026-04-11T12:03:31Z</time></trkpt><trkpt lat="44.718181878316244" lon="10.471021761847966"><ele>73.0</ele><time>2026-04-11T12:03:32Z</time></trkpt><trkpt lat="44.71810956895754" lon="10.470962904156822"><ele>73.0</ele><time>2026-04-11T12:03:33Z</time></trkpt><trkpt lat="44.71805079794694" lon="10.470889810871261"><ele>73.0</ele><time>2026-04-11T12:03:34Z</time></trkpt><trkpt lat="44.71800677587328" lon="10.470794208555663"><ele>73.0</ele><time>2026-04-11T12:03:35Z</time></trkpt><trkpt lat="44.71797263274676" lon="10.470685211798884"><ele>73.0</ele><time>2026-04-11T12:03:36Z</time></trkpt><trkpt lat="44.71792615677964" lon="10.470584510249822"><ele>73.0</ele><time>2026-04-11T12:03:37Z</time></trkpt><trkpt lat="44.71785566540839" lon="10.470506765315813"><ele>73.0</ele><time>2026-04-11T12:03:38Z</time></trkpt><trkpt lat="44.71777334570392" lon="10.47045817794413"><ele>73.0</ele><time>2026-04-11T12:03:39Z</time></trkpt><trkpt lat="44.71768060170286" lon="10.470438640596763"><ele>73.0</ele><time>2026-04-11T12:03:40Z</time></trkpt><trkpt lat="44.717636733174274" lon="10.470259997411997"><ele>73.0</ele><time>2026-04-11T12:03:41Z</time></trkpt><trkpt lat="44.71756553870546" lon="10.470136358441406"><ele>73.0</ele><time>2026-04-11T12:03:42Z</time></trkpt><trkpt lat="44.71748297089472" lon="10.470034593034859"><ele>73.75</ele><time>2026-04-11T12:03:43Z</time></trkpt><trkpt lat="44.71735297626298" lon="10.470027008169726"><ele>74.5</ele><time>2026-04-11T12:03:44Z</time></trkpt><trkpt lat="44.71719991879144" lon="10.469996470532836"><ele>75.25</ele><time>2026-04-11T12:03:45Z</time></trkpt><trkpt lat="44.71703949101942" lon="10.469976205222304"><ele>76.0</ele><time>2026-04-11T12:03:46Z</time></trkpt><trkpt lat="44.71689643608676" lon="10.469974274289479"><ele>76.0</ele><time>2026-04-11T12:03:47Z</time></trkpt><trkpt lat="44.716776965698614" lon="10.46989469349997"><ele>76.0</ele><time>2026-04-11T12:03:48Z</time></trkpt><trkpt lat="44.71670222064538" lon="10.469748780858021"><ele>76.0</ele><time>2026-04-11T12:03:49Z</time></trkpt><trkpt lat="44.7165978405961" lon="10.469614261713847"><ele>76.0</ele><time>2026-04-11T12:03:50Z</time></trkpt><trkpt lat="44.71650252152963" lon="10.46945601319799"><ele>76.0</ele><time>2026-04-11T12:03:51Z</time></trkpt><trkpt lat="44.716418388904174" lon="10.469277582007344"><ele>76.0</ele><time>2026-04-11T12:03:52Z</time></trkpt><trkpt lat="44.716326848096394" lon="10.46910146260765"><ele>76.0</ele><time>2026-04-11T12:03:53Z</time></trkpt><trkpt lat="44.716227747930006" lon="10.468933538018888"><ele>76.33333333333333</ele><time>2026-04-11T12:03:54Z</time></trkpt><trkpt lat="44.716144322271234" lon="10.46874554529274"><ele>76.66666666666667</ele><time>2026-04-11T12:03:55Z</time></trkpt><trkpt lat="44.71606447242469" lon="10.468561575692451"><ele>77.0</ele><time>2026-04-11T12:03:56Z</time></trkpt><trkpt lat="44.71600840673403" lon="10.468379883903314"><ele>77.5</ele><time>2026-04-11T12:03:57Z</time></trkpt><trkpt lat="44.715940272839596" lon="10.468212617889513"><ele>78.0</ele><time>2026-04-11T12:03:58Z</time></trkpt><trkpt lat="44.715870808333804" lon="10.468039818861033"><ele>78.5</ele><time>2026-04-11T12:03:59Z</time></trkpt><trkpt lat="44.7158028321928" lon="10.46786787603029"><ele>79.0</ele><time>2026-04-11T12:04:00Z</time></trkpt><trkpt lat="44.71573939002973" lon="10.467700181770052"><ele>79.25</ele><time>2026-04-11T12:04:01.001Z</time></trkpt><trkpt lat="44.715676277224915" lon="10.467532240191638"><ele>79.5</ele><time>2026-04-11T12:04:02.001Z</time></trkpt><trkpt lat="44.71561179087039" lon="10.467359026310717"><ele>79.75</ele><time>2026-04-11T12:04:03.001Z</time></trkpt><trkpt lat="44.715545365021725" lon="10.467178455212785"><ele>80.0</ele><time>2026-04-11T12:04:04.001Z</time></trkpt><trkpt lat="44.71547868884678" lon="10.466998460870801"><ele>80.0</ele><time>2026-04-11T12:04:05.001Z</time></trkpt><trkpt lat="44.71541114797323" lon="10.466816564064848"><ele>80.0</ele><time>2026-04-11T12:04:06.001Z</time></trkpt><trkpt lat="44.71534223559167" lon="10.46663138154399"><ele>80.0</ele><time>2026-04-11T12:04:07.001Z</time></trkpt><trkpt lat="44.71527179161169" lon="10.466444567585414"><ele>80.0</ele><time>2026-04-11T12:04:08.001Z</time></trkpt><trkpt lat="44.71520641909134" lon="10.466271202815268"><ele>80.2</ele><time>2026-04-11T12:04:09.001Z</time></trkpt><trkpt lat="44.71515694533239" lon="10.466127638003202"><ele>80.4</ele><time>2026-04-11T12:04:10.001Z</time></trkpt><trkpt lat="44.71512389477702" lon="10.466022199955521"><ele>80.6</ele><time>2026-04-11T12:04:11.001Z</time></trkpt><trkpt lat="44.71508595369703" lon="10.465894981525114"><ele>80.8</ele><time>2026-04-11T12:04:13.001Z</time></trkpt><trkpt lat="44.71501371370992" lon="10.465807255096507"><ele>81.0</ele><time>2026-04-11T12:04:14.001Z</time></trkpt><trkpt lat="44.71494626282183" lon="10.465727230891803"><ele>81.0</ele><time>2026-04-11T12:04:15.001Z</time></trkpt><trkpt lat="44.71486977488309" lon="10.465636485089895"><ele>81.0</ele><time>2026-04-11T12:04:16Z</time></trkpt><trkpt lat="44.71478871412409" lon="10.46553931831717"><ele>81.0</ele><time>2026-04-11T12:04:17Z</time></trkpt><trkpt lat="44.71468794510121" lon="10.465442407373938"><ele>81.0</ele><time>2026-04-11T12:04:18Z</time></trkpt><trkpt lat="44.71458931966593" lon="10.465320169659154"><ele>81.0</ele><time>2026-04-11T12:04:19Z</time></trkpt><trkpt lat="44.71448110941925" lon="10.465190930194275"><ele>81.0</ele><time>2026-04-11T12:04:20Z</time></trkpt><trkpt lat="44.71436622849483" lon="10.465053452512176"><ele>81.0</ele><time>2026-04-11T12:04:21Z</time></trkpt><trkpt lat="44.71425382040912" lon="10.464912748987214"><ele>81.0</ele><time>2026-04-11T12:04:22Z</time></trkpt><trkpt lat="44.71414139210521" lon="10.464771443048123"><ele>81.33333333333333</ele><time>2026-04-11T12:04:23Z</time></trkpt><trkpt lat="44.71402270089991" lon="10.464625863616074"><ele>81.66666666666666</ele><time>2026-04-11T12:04:24Z</time></trkpt><trkpt lat="44.71389779957655" lon="10.464480421071988"><ele>82.0</ele><time>2026-04-11T12:04:25Z</time></trkpt><trkpt lat="44.713768572681055" lon="10.464330644578366"><ele>82.0</ele><time>2026-04-11T12:04:26Z</time></trkpt><trkpt lat="44.71363776380217" lon="10.464173756579497"><ele>82.0</ele><time>2026-04-11T12:04:27Z</time></trkpt><trkpt lat="44.713508580017134" lon="10.464011951490322"><ele>82.0</ele><time>2026-04-11T12:04:28Z</time></trkpt><trkpt lat="44.713381285037904" lon="10.4638487192235"><ele>82.66666666666666</ele><time>2026-04-11T12:04:29Z</time></trkpt><trkpt lat="44.71324420448946" lon="10.463671089685821"><ele>83.33333333333333</ele><time>2026-04-11T12:04:30Z</time></trkpt><trkpt lat="44.71311479405932" lon="10.463488809430327"><ele>84.0</ele><time>2026-04-11T12:04:31Z</time></trkpt><trkpt lat="44.712984529886626" lon="10.463305675728778"><ele>84.0</ele><time>2026-04-11T12:04:32Z</time></trkpt><trkpt lat="44.712864686994244" lon="10.46312835789778"><ele>84.0</ele><time>2026-04-11T12:04:33Z</time></trkpt><trkpt lat="44.71277038701113" lon="10.462947987785585"><ele>84.0</ele><time>2026-04-11T12:04:34Z</time></trkpt><trkpt lat="44.71267916527662" lon="10.46278504248615"><ele>84.0</ele><time>2026-04-11T12:04:35Z</time></trkpt><trkpt lat="44.71257468235679" lon="10.462626748602846"><ele>84.0</ele><time>2026-04-11T12:04:36Z</time></trkpt><trkpt lat="44.712488757290664" lon="10.462442959692032"><ele>84.0</ele><time>2026-04-11T12:04:37Z</time></trkpt><trkpt lat="44.71239935237834" lon="10.462260980390962"><ele>83.66666666666667</ele><time>2026-04-11T12:04:38Z</time></trkpt><trkpt lat="44.712310112726215" lon="10.46207775796899"><ele>83.33333333333334</ele><time>2026-04-11T12:04:39Z</time></trkpt><trkpt lat="44.71222484965243" lon="10.461896107770611"><ele>83.0</ele><time>2026-04-11T12:04:40Z</time></trkpt><trkpt lat="44.712130736128465" lon="10.461702962773478"><ele>83.0</ele><time>2026-04-11T12:04:41Z</time></trkpt><trkpt lat="44.71202795862432" lon="10.461506628659741"><ele>83.0</ele><time>2026-04-11T12:04:42Z</time></trkpt><trkpt lat="44.71192285498829" lon="10.461332402643734"><ele>83.0</ele><time>2026-04-11T12:04:43Z</time></trkpt><trkpt lat="44.711837399287425" lon="10.46113373963086"><ele>83.66666666666667</ele><time>2026-04-11T12:04:44Z</time></trkpt><trkpt lat="44.71173610126183" lon="10.460950283807339"><ele>84.33333333333333</ele><time>2026-04-11T12:04:45Z</time></trkpt><trkpt lat="44.71163494568788" lon="10.460771993025183"><ele>85.0</ele><time>2026-04-11T12:04:46Z</time></trkpt><trkpt lat="44.71152849581697" lon="10.460591442471978"><ele>84.33333333333333</ele><time>2026-04-11T12:04:47Z</time></trkpt><trkpt lat="44.71141616171817" lon="10.460407649092136"><ele>83.66666666666667</ele><time>2026-04-11T12:04:48Z</time></trkpt><trkpt lat="44.71130559012081" lon="10.460224291453272"><ele>83.0</ele><time>2026-04-11T12:04:49Z</time></trkpt><trkpt lat="44.711194474260736" lon="10.460039177744099"><ele>83.33333333333334</ele><time>2026-04-11T12:04:50Z</time></trkpt><trkpt lat="44.711073141308056" lon="10.459869990047196"><ele>83.66666666666667</ele><time>2026-04-11T12:04:51Z</time></trkpt><trkpt lat="44.71096707394286" lon="10.459686297484778"><ele>84.0</ele><time>2026-04-11T12:04:52Z</time></trkpt><trkpt lat="44.710860121077125" lon="10.459507718597816"><ele>84.0</ele><time>2026-04-11T12:04:53Z</time></trkpt><trkpt lat="44.710753723581256" lon="10.459325329801988"><ele>84.0</ele><time>2026-04-11T12:04:54Z</time></trkpt><trkpt lat="44.710645683917015" lon="10.459141605064277"><ele>84.0</ele><time>2026-04-11T12:04:55Z</time></trkpt><trkpt lat="44.71053694842892" lon="10.458963848576767"><ele>84.0</ele><time>2026-04-11T12:04:56Z</time></trkpt><trkpt lat="44.71042672895473" lon="10.458787601637882"><ele>84.0</ele><time>2026-04-11T12:04:57Z</time></trkpt><trkpt lat="44.71028985658027" lon="10.458637779837396"><ele>84.0</ele><time>2026-04-11T12:04:58Z</time></trkpt><trkpt lat="44.71014335348439" lon="10.458497933597295"><ele>85.33333333333333</ele><time>2026-04-11T12:04:59Z</time></trkpt><trkpt lat="44.710007585062016" lon="10.458361702112805"><ele>86.66666666666666</ele><time>2026-04-11T12:05:00Z</time></trkpt><trkpt lat="44.70988582741463" lon="10.458231957354279"><ele>88.0</ele><time>2026-04-11T12:05:01.001Z</time></trkpt><trkpt lat="44.70977706833736" lon="10.45811774506198"><ele>88.0</ele><time>2026-04-11T12:05:02.001Z</time></trkpt><trkpt lat="44.70967371308415" lon="10.458010917507817"><ele>88.0</ele><time>2026-04-11T12:05:03.001Z</time></trkpt><trkpt lat="44.70957419270028" lon="10.457907063291893"><ele>88.0</ele><time>2026-04-11T12:05:04.001Z</time></trkpt><trkpt lat="44.70948056055218" lon="10.457811626214934"><ele>88.0</ele><time>2026-04-11T12:05:05.001Z</time></trkpt><trkpt lat="44.709393195949076" lon="10.45772074242248"><ele>88.0</ele><time>2026-04-11T12:05:06.001Z</time></trkpt><trkpt lat="44.709316863076445" lon="10.457637840748975"><ele>88.0</ele><time>2026-04-11T12:05:07.001Z</time></trkpt><trkpt lat="44.70925581534019" lon="10.457551989709057"><ele>88.0</ele><time>2026-04-11T12:05:08.001Z</time></trkpt><trkpt lat="44.70921660104434" lon="10.457454482921557"><ele>88.0</ele><time>2026-04-11T12:05:09.001Z</time></trkpt><trkpt lat="44.709210968914256" lon="10.457345075561545"><ele>88.0</ele><time>2026-04-11T12:05:10.001Z</time></trkpt><trkpt lat="44.70917741170404" lon="10.457266837434256"><ele>88.0</ele><time>2026-04-11T12:05:11.001Z</time></trkpt><trkpt lat="44.709028075923634" lon="10.457281585449644"><ele>88.0</ele><time>2026-04-11T12:05:13.001Z</time></trkpt><trkpt lat="44.708947046389945" lon="10.457274918521476"><ele>88.0</ele><time>2026-04-11T12:05:14.001Z</time></trkpt><trkpt lat="44.70886529269675" lon="10.457212232460838"><ele>88.0</ele><time>2026-04-11T12:05:15.001Z</time></trkpt><trkpt lat="44.70878855104081" lon="10.45711373528803"><ele>88.0</ele><time>2026-04-11T12:05:16.001Z</time></trkpt><trkpt lat="44.708707514223164" lon="10.457013763355825"><ele>88.0</ele><time>2026-04-11T12:05:17.001Z</time></trkpt><trkpt lat="44.70862510106091" lon="10.456931060663853"><ele>88.66666666666666</ele><time>2026-04-11T12:05:18.001Z</time></trkpt><trkpt lat="44.70855695856561" lon="10.456837765902376"><ele>89.33333333333333</ele><time>2026-04-11T12:05:19.001Z</time></trkpt><trkpt lat="44.7084858806297" lon="10.456764246831503"><ele>90.0</ele><time>2026-04-11T12:05:20.001Z</time></trkpt><trkpt lat="44.7084185465512" lon="10.456724276365389"><ele>90.66666666666667</ele><time>2026-04-11T12:05:21.001Z</time></trkpt><trkpt lat="44.70835450825936" lon="10.456661801990645"><ele>91.33333333333334</ele><time>2026-04-11T12:05:22.001Z</time></trkpt><trkpt lat="44.70828090110312" lon="10.456593011428756"><ele>92.0</ele><time>2026-04-11T12:05:23.001Z</time></trkpt><trkpt lat="44.708203925496775" lon="10.456520189595802"><ele>92.0</ele><time>2026-04-11T12:05:24.001Z</time></trkpt><trkpt lat="44.708114468405235" lon="10.456446982842516"><ele>92.0</ele><time>2026-04-11T12:05:25.001Z</time></trkpt><trkpt lat="44.708021896928926" lon="10.456373149018207"><ele>92.0</ele><time>2026-04-11T12:05:26.001Z</time></trkpt><trkpt lat="44.70792960068543" lon="10.456295733838566"><ele>92.0</ele><time>2026-04-11T12:05:27.001Z</time></trkpt><trkpt lat="44.70783027626068" lon="10.456211739849294"><ele>92.0</ele><time>2026-04-11T12:05:28.001Z</time></trkpt><trkpt lat="44.707728155439156" lon="10.456124820141698"><ele>91.75</ele><time>2026-04-11T12:05:29.001Z</time></trkpt><trkpt lat="44.707624114568084" lon="10.456035919098074"><ele>91.5</ele><time>2026-04-11T12:05:30.001Z</time></trkpt><trkpt lat="44.70752051506619" lon="10.455943648864329"><ele>91.25</ele><time>2026-04-11T12:05:31.001Z</time></trkpt><trkpt lat="44.707414370397544" lon="10.455844173518198"><ele>91.0</ele><time>2026-04-11T12:05:32.001Z</time></trkpt><trkpt lat="44.70730408502689" lon="10.455744252174469"><ele>91.0</ele><time>2026-04-11T12:05:33.001Z</time></trkpt><trkpt lat="44.70719538606917" lon="10.455642044014088"><ele>91.0</ele><time>2026-04-11T12:05:34.001Z</time></trkpt><trkpt lat="44.70709734599342" lon="10.455518781276183"><ele>91.0</ele><time>2026-04-11T12:05:35.001Z</time></trkpt><trkpt lat="44.706992616084" lon="10.45541454811729"><ele>91.0</ele><time>2026-04-11T12:05:36.001Z</time></trkpt><trkpt lat="44.706892865889735" lon="10.455315354625865"><ele>91.75</ele><time>2026-04-11T12:05:37.001Z</time></trkpt><trkpt lat="44.70678274370107" lon="10.45523842305107"><ele>92.5</ele><time>2026-04-11T12:05:38.001Z</time></trkpt><trkpt lat="44.70668425382955" lon="10.455137814521631"><ele>93.25</ele><time>2026-04-11T12:05:39.001Z</time></trkpt><trkpt lat="44.70657588413143" lon="10.455039343562987"><ele>94.0</ele><time>2026-04-11T12:05:40.001Z</time></trkpt><trkpt lat="44.706453231876274" lon="10.454930435118005"><ele>94.0</ele><time>2026-04-11T12:05:41.001Z</time></trkpt><trkpt lat="44.70634003226593" lon="10.454823953977186"><ele>94.0</ele><time>2026-04-11T12:05:42.001Z</time></trkpt><trkpt lat="44.70622136666447" lon="10.45471585243092"><ele>94.0</ele><time>2026-04-11T12:05:43.001Z</time></trkpt><trkpt lat="44.70609573930691" lon="10.454601835148942"><ele>94.0</ele><time>2026-04-11T12:05:44.001Z</time></trkpt><trkpt lat="44.705972409180234" lon="10.45449000795189"><ele>94.0</ele><time>2026-04-11T12:05:45.001Z</time></trkpt><trkpt lat="44.70585197090451" lon="10.454381936007103"><ele>94.0</ele><time>2026-04-11T12:05:46.001Z</time></trkpt><trkpt lat="44.70574221006769" lon="10.454285252077817"><ele>94.0</ele><time>2026-04-11T12:05:47.001Z</time></trkpt><trkpt lat="44.70564179573641" lon="10.454191873045081"><ele>94.0</ele><time>2026-04-11T12:05:48.001Z</time></trkpt><trkpt lat="44.70555200692562" lon="10.45409348497503"><ele>94.0</ele><time>2026-04-11T12:05:49.001Z</time></trkpt><trkpt lat="44.70549152997295" lon="10.453943984569344"><ele>94.0</ele><time>2026-04-11T12:05:50.001Z</time></trkpt><trkpt lat="44.70541936904791" lon="10.453784357573342"><ele>94.0</ele><time>2026-04-11T12:05:51.001Z</time></trkpt><trkpt lat="44.70532910718375" lon="10.453623034242998"><ele>94.0</ele><time>2026-04-11T12:05:52.001Z</time></trkpt><trkpt lat="44.70524568470418" lon="10.453448967787828"><ele>93.75</ele><time>2026-04-11T12:05:53.001Z</time></trkpt><trkpt lat="44.70517733978955" lon="10.453256014875732"><ele>93.5</ele><time>2026-04-11T12:05:54.001Z</time></trkpt><trkpt lat="44.70509653657673" lon="10.453079047203303"><ele>93.25</ele><time>2026-04-11T12:05:55.001Z</time></trkpt><trkpt lat="44.705020241438284" lon="10.452911954089458"><ele>93.0</ele><time>2026-04-11T12:05:56.001Z</time></trkpt><trkpt lat="44.70493013396944" lon="10.452750884202668"><ele>92.75</ele><time>2026-04-11T12:05:57.001Z</time></trkpt><trkpt lat="44.704853584917636" lon="10.452574958074564"><ele>92.5</ele><time>2026-04-11T12:05:58.001Z</time></trkpt><trkpt lat="44.70477745574377" lon="10.452408527816074"><ele>92.25</ele><time>2026-04-11T12:05:59.001Z</time></trkpt><trkpt lat="44.704706546602395" lon="10.452259611786351"><ele>92.0</ele><time>2026-04-11T12:06:00.001Z</time></trkpt><trkpt lat="44.70463877109888" lon="10.452116993671694"><ele>92.0</ele><time>2026-04-11T12:06:01.001Z</time></trkpt><trkpt lat="44.704581506991" lon="10.451991117555579"><ele>92.0</ele><time>2026-04-11T12:06:02.001Z</time></trkpt><trkpt lat="44.70455179724432" lon="10.451878806938511"><ele>92.0</ele><time>2026-04-11T12:06:03.001Z</time></trkpt><trkpt lat="44.70455215327728" lon="10.451768333635036"><ele>92.0</ele><time>2026-04-11T12:06:04.001Z</time></trkpt><trkpt lat="44.704538534860575" lon="10.451669696109457"><ele>92.0</ele><time>2026-04-11T12:06:05.001Z</time></trkpt><trkpt lat="44.70446975012883" lon="10.451583210183356"><ele>92.0</ele><time>2026-04-11T12:06:06.001Z</time></trkpt><trkpt lat="44.70437343738681" lon="10.451500459414339"><ele>92.0</ele><time>2026-04-11T12:06:07.001Z</time></trkpt><trkpt lat="44.70427338459049" lon="10.451398071525007"><ele>92.0</ele><time>2026-04-11T12:06:08.001Z</time></trkpt><trkpt lat="44.70417203157689" lon="10.45128272729263"><ele>92.0</ele><time>2026-04-11T12:06:09.001Z</time></trkpt><trkpt lat="44.70407813479813" lon="10.451175603389983"><ele>92.0</ele><time>2026-04-11T12:06:10.001Z</time></trkpt><trkpt lat="44.70399898876561" lon="10.451081026739603"><ele>91.83333333333334</ele><time>2026-04-11T12:06:11.001Z</time></trkpt><trkpt lat="44.70393617888677" lon="10.451000964972868"><ele>91.66666666666667</ele><time>2026-04-11T12:06:12.001Z</time></trkpt><trkpt lat="44.70386967608352" lon="10.450927037085727"><ele>91.5</ele><time>2026-04-11T12:06:13.001Z</time></trkpt><trkpt lat="44.7037991318047" lon="10.450852747568144"><ele>91.33333333333333</ele><time>2026-04-11T12:06:14.001Z</time></trkpt><trkpt lat="44.703738484920464" lon="10.45076233755002"><ele>91.16666666666666</ele><time>2026-04-11T12:06:15.001Z</time></trkpt><trkpt lat="44.70369457426387" lon="10.45066672852873"><ele>91.0</ele><time>2026-04-11T12:06:16.001Z</time></trkpt><trkpt lat="44.70360614860221" lon="10.450668125271548"><ele>91.4</ele><time>2026-04-11T12:06:17.001Z</time></trkpt><trkpt lat="44.7035279451495" lon="10.450692664910717"><ele>91.8</ele><time>2026-04-11T12:06:18.001Z</time></trkpt><trkpt lat="44.703434131607416" lon="10.450668749073728"><ele>92.2</ele><time>2026-04-11T12:06:19.001Z</time></trkpt><trkpt lat="44.703333961822786" lon="10.45060825243564"><ele>92.60000000000001</ele><time>2026-04-11T12:06:20.001Z</time></trkpt><trkpt lat="44.70322488520907" lon="10.450546098084606"><ele>93.0</ele><time>2026-04-11T12:06:21.001Z</time></trkpt><trkpt lat="44.70311104678323" lon="10.450479881707697"><ele>93.0</ele><time>2026-04-11T12:06:22.001Z</time></trkpt><trkpt lat="44.702998672414886" lon="10.450404773113567"><ele>93.0</ele><time>2026-04-11T12:06:23.001Z</time></trkpt><trkpt lat="44.70288349056315" lon="10.450319054439023"><ele>93.0</ele><time>2026-04-11T12:06:24.001Z</time></trkpt><trkpt lat="44.70276501837418" lon="10.450231531705173"><ele>93.0</ele><time>2026-04-11T12:06:25.001Z</time></trkpt><trkpt lat="44.702640985760915" lon="10.450145082178869"><ele>93.25</ele><time>2026-04-11T12:06:26.001Z</time></trkpt><trkpt lat="44.70253069114715" lon="10.450037547014993"><ele>93.5</ele><time>2026-04-11T12:06:27.001Z</time></trkpt><trkpt lat="44.70241547872731" lon="10.44997148364942"><ele>93.75</ele><time>2026-04-11T12:06:28.001Z</time></trkpt><trkpt lat="44.70231719570675" lon="10.449892079029295"><ele>94.0</ele><time>2026-04-11T12:06:29.001Z</time></trkpt><trkpt lat="44.702212549659755" lon="10.449830217124704"><ele>94.0</ele><time>2026-04-11T12:06:30.001Z</time></trkpt><trkpt lat="44.70210167344145" lon="10.44977372555373"><ele>94.0</ele><time>2026-04-11T12:06:31.001Z</time></trkpt><trkpt lat="44.70198081010178" lon="10.449713374125082"><ele>94.0</ele><time>2026-04-11T12:06:32.001Z</time></trkpt><trkpt lat="44.701850202035935" lon="10.44965409736212"><ele>94.0</ele><time>2026-04-11T12:06:33.001Z</time></trkpt><trkpt lat="44.70171388923543" lon="10.449590259547616"><ele>94.25</ele><time>2026-04-11T12:06:34.001Z</time></trkpt><trkpt lat="44.70157433205136" lon="10.449527280591203"><ele>94.5</ele><time>2026-04-11T12:06:35.001Z</time></trkpt><trkpt lat="44.701447948221265" lon="10.449470776140704"><ele>94.75</ele><time>2026-04-11T12:06:36.001Z</time></trkpt><trkpt lat="44.70133175576414" lon="10.449420871780124"><ele>95.0</ele><time>2026-04-11T12:06:37.001Z</time></trkpt><trkpt lat="44.70122410286895" lon="10.44937822288128"><ele>95.0</ele><time>2026-04-11T12:06:38.001Z</time></trkpt><trkpt lat="44.70112434701745" lon="10.449337138147945"><ele>95.0</ele><time>2026-04-11T12:06:39.001Z</time></trkpt><trkpt lat="44.701031302177846" lon="10.449297591145356"><ele>95.0</ele><time>2026-04-11T12:06:40.001Z</time></trkpt><trkpt lat="44.70094462254092" lon="10.44927639857726"><ele>95.0</ele><time>2026-04-11T12:06:41.001Z</time></trkpt><trkpt lat="44.700865040053394" lon="10.449280172610424"><ele>95.0</ele><time>2026-04-11T12:06:42.001Z</time></trkpt><trkpt lat="44.70079322705345" lon="10.449296856433842"><ele>95.0</ele><time>2026-04-11T12:06:43.001Z</time></trkpt><trkpt lat="44.70072801436282" lon="10.4493029393592"><ele>95.5</ele><time>2026-04-11T12:06:44.001Z</time></trkpt><trkpt lat="44.7006028603947" lon="10.449303901699137"><ele>96.0</ele><time>2026-04-11T12:06:46Z</time></trkpt><trkpt lat="44.70052150200471" lon="10.449318187925842"><ele>96.5</ele><time>2026-04-11T12:06:47Z</time></trkpt><trkpt lat="44.70043671831713" lon="10.44933418883719"><ele>97.0</ele><time>2026-04-11T12:06:48Z</time></trkpt><trkpt lat="44.70037195891946" lon="10.449324656102553"><ele>97.49999999999999</ele><time>2026-04-11T12:06:51Z</time></trkpt><trkpt lat="44.700309583129844" lon="10.449307375654849"><ele>98.0</ele><time>2026-04-11T12:06:54Z</time></trkpt><trkpt lat="44.70018712204679" lon="10.449275067032564"><ele>98.33333333333333</ele><time>2026-04-11T12:06:56Z</time></trkpt><trkpt lat="44.70012098904674" lon="10.449255150000777"><ele>98.66666666666666</ele><time>2026-04-11T12:06:57Z</time></trkpt><trkpt lat="44.700047689931964" lon="10.449234896539242"><ele>99.0</ele><time>2026-04-11T12:06:58Z</time></trkpt><trkpt lat="44.699968229304424" lon="10.449213745430857"><ele>99.33333333333334</ele><time>2026-04-11T12:06:59Z</time></trkpt><trkpt lat="44.699886089021355" lon="10.449195066058316"><ele>99.66666666666667</ele><time>2026-04-11T12:07:00Z</time></trkpt><trkpt lat="44.69980232364492" lon="10.449178885949184"><ele>100.0</ele><time>2026-04-11T12:07:01Z</time></trkpt><trkpt lat="44.69971204166348" lon="10.44915699946357"><ele>100.0</ele><time>2026-04-11T12:07:02Z</time></trkpt><trkpt lat="44.69962543661448" lon="10.44910223538122"><ele>100.0</ele><time>2026-04-11T12:07:03Z</time></trkpt><trkpt lat="44.699529053177784" lon="10.449089208650605"><ele>100.0</ele><time>2026-04-11T12:07:04Z</time></trkpt><trkpt lat="44.699437461366166" lon="10.449048423712775"><ele>100.0</ele><time>2026-04-11T12:07:05Z</time></trkpt><trkpt lat="44.69934675593653" lon="10.449007603651756"><ele>100.0</ele><time>2026-04-11T12:07:06Z</time></trkpt><trkpt lat="44.69925568291215" lon="10.448963403031604"><ele>100.2</ele><time>2026-04-11T12:07:07Z</time></trkpt><trkpt lat="44.69916750659876" lon="10.448918817693574"><ele>100.4</ele><time>2026-04-11T12:07:08Z</time></trkpt><trkpt lat="44.69907462735196" lon="10.448884684209697"><ele>100.6</ele><time>2026-04-11T12:07:09Z</time></trkpt><trkpt lat="44.69898574802828" lon="10.448853595186815"><ele>100.8</ele><time>2026-04-11T12:07:10Z</time></trkpt><trkpt lat="44.6988987703757" lon="10.44882767272899"><ele>101.0</ele><time>2026-04-11T12:07:11Z</time></trkpt><trkpt lat="44.69882029051776" lon="10.448802426504407"><ele>100.83333333333333</ele><time>2026-04-11T12:07:12Z</time></trkpt><trkpt lat="44.698748421897704" lon="10.448779059002845"><ele>100.66666666666666</ele><time>2026-04-11T12:07:13Z</time></trkpt><trkpt lat="44.69868565342773" lon="10.448749197028885"><ele>100.5</ele><time>2026-04-11T12:07:14Z</time></trkpt><trkpt lat="44.69858228721387" lon="10.44863985005591"><ele>100.33333333333334</ele><time>2026-04-11T12:07:16Z</time></trkpt><trkpt lat="44.69854290419807" lon="10.448550040610982"><ele>100.16666666666667</ele><time>2026-04-11T12:07:17Z</time></trkpt><trkpt lat="44.69851461476458" lon="10.448427178931766"><ele>100.0</ele><time>2026-04-11T12:07:18Z</time></trkpt><trkpt lat="44.69850827057324" lon="10.448286395765"><ele>100.0</ele><time>2026-04-11T12:07:19Z</time></trkpt><trkpt lat="44.698530033999354" lon="10.448130631496948"><ele>100.0</ele><time>2026-04-11T12:07:20Z</time></trkpt><trkpt lat="44.698562284762986" lon="10.447979624902931"><ele>100.0</ele><time>2026-04-11T12:07:21Z</time></trkpt><trkpt lat="44.69859812359421" lon="10.447816373671609"><ele>100.0</ele><time>2026-04-11T12:07:22Z</time></trkpt><trkpt lat="44.69863396585468" lon="10.447653582252679"><ele>100.0</ele><time>2026-04-11T12:07:23Z</time></trkpt><trkpt lat="44.698673245453456" lon="10.447489192826879"><ele>100.0</ele><time>2026-04-11T12:07:24Z</time></trkpt><trkpt lat="44.69871837367316" lon="10.4473155157932"><ele>100.0</ele><time>2026-04-11T12:07:25Z</time></trkpt><trkpt lat="44.69876941032849" lon="10.447134545134253"><ele>100.0</ele><time>2026-04-11T12:07:26Z</time></trkpt><trkpt lat="44.69881989610701" lon="10.446954804046767"><ele>99.75</ele><time>2026-04-11T12:07:27Z</time></trkpt><trkpt lat="44.69887139480016" lon="10.446774870190861"><ele>99.5</ele><time>2026-04-11T12:07:28Z</time></trkpt><trkpt lat="44.69892325400762" lon="10.44658099300537"><ele>99.25</ele><time>2026-04-11T12:07:29Z</time></trkpt><trkpt lat="44.69897099809155" lon="10.4463908141425"><ele>99.0</ele><time>2026-04-11T12:07:30Z</time></trkpt><trkpt lat="44.6990174352438" lon="10.446195682159463"><ele>99.0</ele><time>2026-04-11T12:07:31Z</time></trkpt><trkpt lat="44.69906368925103" lon="10.445997899326999"><ele>99.0</ele><time>2026-04-11T12:07:32Z</time></trkpt><trkpt lat="44.69911036155833" lon="10.445795644602129"><ele>99.0</ele><time>2026-04-11T12:07:33Z</time></trkpt><trkpt lat="44.69915520682815" lon="10.445592684525439"><ele>99.25</ele><time>2026-04-11T12:07:34Z</time></trkpt><trkpt lat="44.69919999737495" lon="10.445394156267513"><ele>99.5</ele><time>2026-04-11T12:07:35Z</time></trkpt><trkpt lat="44.69924661712529" lon="10.445195389772485"><ele>99.75</ele><time>2026-04-11T12:07:36Z</time></trkpt><trkpt lat="44.69929599167273" lon="10.444993679272741"><ele>100.0</ele><time>2026-04-11T12:07:37Z</time></trkpt><trkpt lat="44.69934780660766" lon="10.444801452272122"><ele>99.75</ele><time>2026-04-11T12:07:38Z</time></trkpt><trkpt lat="44.699399197909045" lon="10.44461926721099"><ele>99.5</ele><time>2026-04-11T12:07:39Z</time></trkpt><trkpt lat="44.69944854007989" lon="10.444436734568018"><ele>99.25</ele><time>2026-04-11T12:07:40Z</time></trkpt><trkpt lat="44.69949129216589" lon="10.444249357625363"><ele>99.0</ele><time>2026-04-11T12:07:41Z</time></trkpt><trkpt lat="44.69953138361918" lon="10.444050445023356"><ele>98.5</ele><time>2026-04-11T12:07:42Z</time></trkpt><trkpt lat="44.699561311743246" lon="10.443843546063194"><ele>98.0</ele><time>2026-04-11T12:07:43Z</time></trkpt><trkpt lat="44.69958739959657" lon="10.443634942186687"><ele>97.5</ele><time>2026-04-11T12:07:44Z</time></trkpt><trkpt lat="44.69960872875855" lon="10.44343286703534"><ele>97.0</ele><time>2026-04-11T12:07:45Z</time></trkpt><trkpt lat="44.69962181993707" lon="10.44322912324968"><ele>97.0</ele><time>2026-04-11T12:07:46Z</time></trkpt><trkpt lat="44.69963247928881" lon="10.443015919676498"><ele>97.0</ele><time>2026-04-11T12:07:47Z</time></trkpt><trkpt lat="44.699635144911824" lon="10.442797783976026"><ele>97.0</ele><time>2026-04-11T12:07:48Z</time></trkpt><trkpt lat="44.6996300267006" lon="10.442578174298896"><ele>97.0</ele><time>2026-04-11T12:07:49Z</time></trkpt><trkpt lat="44.69961609669638" lon="10.442362541144842"><ele>97.0</ele><time>2026-04-11T12:07:50Z</time></trkpt><trkpt lat="44.69959421619161" lon="10.44215465966859"><ele>97.0</ele><time>2026-04-11T12:07:51Z</time></trkpt><trkpt lat="44.699564587269954" lon="10.441952603367591"><ele>97.0</ele><time>2026-04-11T12:07:52Z</time></trkpt><trkpt lat="44.699527135441805" lon="10.441752434554953"><ele>97.0</ele><time>2026-04-11T12:07:53Z</time></trkpt><trkpt lat="44.69948373283916" lon="10.441555218827894"><ele>97.0</ele><time>2026-04-11T12:07:54Z</time></trkpt><trkpt lat="44.699431509155275" lon="10.441361394915937"><ele>97.0</ele><time>2026-04-11T12:07:55Z</time></trkpt><trkpt lat="44.699378538920065" lon="10.441172414400205"><ele>97.25</ele><time>2026-04-11T12:07:56Z</time></trkpt><trkpt lat="44.69932328786484" lon="10.440980917687913"><ele>97.5</ele><time>2026-04-11T12:07:57Z</time></trkpt><trkpt lat="44.69926882878105" lon="10.440801766751903"><ele>97.75</ele><time>2026-04-11T12:07:58Z</time></trkpt><trkpt lat="44.699216863299156" lon="10.440633183856654"><ele>98.0</ele><time>2026-04-11T12:07:59Z</time></trkpt><trkpt lat="44.699168588788794" lon="10.440468734203222"><ele>98.0</ele><time>2026-04-11T12:08:00Z</time></trkpt><trkpt lat="44.699121734086305" lon="10.440319162035767"><ele>98.0</ele><time>2026-04-11T12:08:01Z</time></trkpt><trkpt lat="44.69907790963004" lon="10.440164954379375"><ele>98.0</ele><time>2026-04-11T12:08:02Z</time></trkpt><trkpt lat="44.69903036377159" lon="10.44000566258453"><ele>98.0</ele><time>2026-04-11T12:08:03Z</time></trkpt><trkpt lat="44.69898140836944" lon="10.439845150800847"><ele>98.0</ele><time>2026-04-11T12:08:04Z</time></trkpt><trkpt lat="44.69893479780258" lon="10.439688986769523"><ele>98.0</ele><time>2026-04-11T12:08:05Z</time></trkpt><trkpt lat="44.69888859930642" lon="10.439531987653881"><ele>98.0</ele><time>2026-04-11T12:08:06Z</time></trkpt><trkpt lat="44.69883795692694" lon="10.439369024946732"><ele>98.0</ele><time>2026-04-11T12:08:07Z</time></trkpt><trkpt lat="44.69878910507514" lon="10.439202695480725"><ele>98.0</ele><time>2026-04-11T12:08:08Z</time></trkpt><trkpt lat="44.69873974614481" lon="10.439038147984181"><ele>98.0</ele><time>2026-04-11T12:08:09.001Z</time></trkpt><trkpt lat="44.69869090305164" lon="10.438872904605148"><ele>98.0</ele><time>2026-04-11T12:08:10.001Z</time></trkpt><trkpt lat="44.69864408868845" lon="10.43870808915105"><ele>98.0</ele><time>2026-04-11T12:08:11.001Z</time></trkpt><trkpt lat="44.69860207817732" lon="10.438539764009446"><ele>98.0</ele><time>2026-04-11T12:08:12.001Z</time></trkpt><trkpt lat="44.69856501139593" lon="10.438369832763513"><ele>98.0</ele><time>2026-04-11T12:08:13.001Z</time></trkpt><trkpt lat="44.69853499403464" lon="10.438196785168369"><ele>98.0</ele><time>2026-04-11T12:08:14.001Z</time></trkpt><trkpt lat="44.69851645551828" lon="10.43802232080659"><ele>98.0</ele><time>2026-04-11T12:08:15.001Z</time></trkpt><trkpt lat="44.69849867945108" lon="10.437865277762088"><ele>98.60000000000001</ele><time>2026-04-11T12:08:16.001Z</time></trkpt><trkpt lat="44.69848409490299" lon="10.437717037944209"><ele>99.2</ele><time>2026-04-11T12:08:17.001Z</time></trkpt><trkpt lat="44.69846867893751" lon="10.437579028897082"><ele>99.8</ele><time>2026-04-11T12:08:18.001Z</time></trkpt><trkpt lat="44.69844441081636" lon="10.437459371485396"><ele>100.4</ele><time>2026-04-11T12:08:19.001Z</time></trkpt><trkpt lat="44.698465066779534" lon="10.43737508204145"><ele>101.0</ele><time>2026-04-11T12:08:20.001Z</time></trkpt><trkpt lat="44.69836518323553" lon="10.437294963464442"><ele>100.99999999999999</ele><time>2026-04-11T12:08:21.001Z</time></trkpt><trkpt lat="44.69835035789232" lon="10.437190892207115"><ele>101.0</ele><time>2026-04-11T12:08:22.001Z</time></trkpt><trkpt lat="44.698347692128095" lon="10.437080109136678"><ele>101.0</ele><time>2026-04-11T12:08:23.001Z</time></trkpt><trkpt lat="44.69834763565927" lon="10.436965125715293"><ele>101.0</ele><time>2026-04-11T12:08:24.001Z</time></trkpt><trkpt lat="44.69834766361567" lon="10.436840587024337"><ele>100.99999999999999</ele><time>2026-04-11T12:08:25.001Z</time></trkpt><trkpt lat="44.69835415191611" lon="10.436710025006855"><ele>101.0</ele><time>2026-04-11T12:08:26.001Z</time></trkpt><trkpt lat="44.69836512398839" lon="10.436579750482641"><ele>100.99999999999999</ele><time>2026-04-11T12:08:27.001Z</time></trkpt><trkpt lat="44.69837838602288" lon="10.43645031106302"><ele>101.0</ele><time>2026-04-11T12:08:28Z</time></trkpt><trkpt lat="44.69839075570546" lon="10.43632487287823"><ele>101.0</ele><time>2026-04-11T12:08:29Z</time></trkpt><trkpt lat="44.69839777099769" lon="10.436210176470095"><ele>101.0</ele><time>2026-04-11T12:08:30Z</time></trkpt><trkpt lat="44.69839704024066" lon="10.436107882957533"><ele>100.99999999999999</ele><time>2026-04-11T12:08:31Z</time></trkpt><trkpt lat="44.69838737010226" lon="10.435974057186133"><ele>101.0</ele><time>2026-04-11T12:08:33Z</time></trkpt><trkpt lat="44.69837849985352" lon="10.435871814054764"><ele>101.0</ele><time>2026-04-11T12:08:35Z</time></trkpt><trkpt lat="44.698335914723216" lon="10.435697568434172"><ele>101.0</ele><time>2026-04-11T12:08:37Z</time></trkpt><trkpt lat="44.698316862854526" lon="10.435580121296296"><ele>101.0</ele><time>2026-04-11T12:08:38Z</time></trkpt><trkpt lat="44.69827254414301" lon="10.43546594240326"><ele>101.0</ele><time>2026-04-11T12:08:39Z</time></trkpt><trkpt lat="44.698223033044414" lon="10.435350636466588"><ele>101.0</ele><time>2026-04-11T12:08:40Z</time></trkpt><trkpt lat="44.69816548142896" lon="10.435233986546411"><ele>101.0</ele><time>2026-04-11T12:08:41Z</time></trkpt><trkpt lat="44.69809131231466" lon="10.43513141424383"><ele>101.0</ele><time>2026-04-11T12:08:42Z</time></trkpt><trkpt lat="44.69802717693351" lon="10.43501254134997"><ele>101.0</ele><time>2026-04-11T12:08:43Z</time></trkpt><trkpt lat="44.697958610025125" lon="10.434893942337759"><ele>101.0</ele><time>2026-04-11T12:08:44Z</time></trkpt><trkpt lat="44.69789301608997" lon="10.434775537960547"><ele>101.0</ele><time>2026-04-11T12:08:45Z</time></trkpt><trkpt lat="44.69783063232244" lon="10.434664032948294"><ele>100.4</ele><time>2026-04-11T12:08:46Z</time></trkpt><trkpt lat="44.69776959321633" lon="10.434554302736288"><ele>99.8</ele><time>2026-04-11T12:08:47Z</time></trkpt><trkpt lat="44.697706228361675" lon="10.434433797321674"><ele>99.2</ele><time>2026-04-11T12:08:48Z</time></trkpt><trkpt lat="44.69761255948005" lon="10.434340700678487"><ele>98.60000000000001</ele><time>2026-04-11T12:08:49Z</time></trkpt><trkpt lat="44.69750504804262" lon="10.434253512866388"><ele>98.0</ele><time>2026-04-11T12:08:50Z</time></trkpt><trkpt lat="44.69738664431701" lon="10.434187266231364"><ele>98.0</ele><time>2026-04-11T12:08:51Z</time></trkpt><trkpt lat="44.697267960250514" lon="10.434110844077788"><ele>98.0</ele><time>2026-04-11T12:08:52Z</time></trkpt><trkpt lat="44.69716199341466" lon="10.43400588500727"><ele>98.0</ele><time>2026-04-11T12:08:53Z</time></trkpt><trkpt lat="44.697057787578935" lon="10.433930055732105"><ele>98.0</ele><time>2026-04-11T12:08:54Z</time></trkpt><trkpt lat="44.696951347609826" lon="10.43387829429586"><ele>98.2</ele><time>2026-04-11T12:08:55Z</time></trkpt><trkpt lat="44.69685484627617" lon="10.433808690841841"><ele>98.4</ele><time>2026-04-11T12:08:56Z</time></trkpt><trkpt lat="44.69676483718211" lon="10.433745395791407"><ele>98.60000000000001</ele><time>2026-04-11T12:08:57Z</time></trkpt><trkpt lat="44.69668457888882" lon="10.433686595623769"><ele>98.80000000000001</ele><time>2026-04-11T12:08:58Z</time></trkpt><trkpt lat="44.696601125770904" lon="10.433629088392035"><ele>99.0</ele><time>2026-04-11T12:08:59Z</time></trkpt><trkpt lat="44.696418127804485" lon="10.433505973991501"><ele>99.0</ele><time>2026-04-11T12:09:01Z</time></trkpt><trkpt lat="44.696325820611165" lon="10.4334327461619"><ele>99.0</ele><time>2026-04-11T12:09:02Z</time></trkpt><trkpt lat="44.696226333611975" lon="10.43337533527294"><ele>99.0</ele><time>2026-04-11T12:09:03Z</time></trkpt><trkpt lat="44.69612862591372" lon="10.433339627468337"><ele>99.0</ele><time>2026-04-11T12:09:04Z</time></trkpt><trkpt lat="44.69602844134607" lon="10.433286289639344"><ele>99.0</ele><time>2026-04-11T12:09:05Z</time></trkpt><trkpt lat="44.69593482472364" lon="10.43321335843702"><ele>99.2</ele><time>2026-04-11T12:09:06Z</time></trkpt><trkpt lat="44.69583662980462" lon="10.43315735341178"><ele>99.4</ele><time>2026-04-11T12:09:07Z</time></trkpt><trkpt lat="44.69573722090231" lon="10.433119556013315"><ele>99.6</ele><time>2026-04-11T12:09:08Z</time></trkpt><trkpt lat="44.6956437561353" lon="10.43306121018195"><ele>99.8</ele><time>2026-04-11T12:09:09Z</time></trkpt><trkpt lat="44.695555886071666" lon="10.432993359996763"><ele>100.0</ele><time>2026-04-11T12:09:10Z</time></trkpt><trkpt lat="44.69546320325912" lon="10.432954372101825"><ele>99.6</ele><time>2026-04-11T12:09:11Z</time></trkpt><trkpt lat="44.6953797756368" lon="10.432902218325513"><ele>99.2</ele><time>2026-04-11T12:09:12Z</time></trkpt><trkpt lat="44.69529887652128" lon="10.432837293632847"><ele>98.80000000000001</ele><time>2026-04-11T12:09:13Z</time></trkpt><trkpt lat="44.69521608360735" lon="10.432775026676927"><ele>98.4</ele><time>2026-04-11T12:09:14Z</time></trkpt><trkpt lat="44.69513727961893" lon="10.432694484841015"><ele>98.0</ele><time>2026-04-11T12:09:15Z</time></trkpt><trkpt lat="44.69505978761771" lon="10.432635814773105"><ele>97.99999999999999</ele><time>2026-04-11T12:09:16Z</time></trkpt><trkpt lat="44.6949773530634" lon="10.432599896308684"><ele>98.0</ele><time>2026-04-11T12:09:17Z</time></trkpt><trkpt lat="44.69491238485791" lon="10.432524214498558"><ele>98.0</ele><time>2026-04-11T12:09:18Z</time></trkpt><trkpt lat="44.69483391691241" lon="10.432466052592758"><ele>98.0</ele><time>2026-04-11T12:09:19Z</time></trkpt><trkpt lat="44.69475195061892" lon="10.432405940491982"><ele>97.99999999999999</ele><time>2026-04-11T12:09:20Z</time></trkpt><trkpt lat="44.694666881996625" lon="10.43235896346928"><ele>98.0</ele><time>2026-04-11T12:09:21Z</time></trkpt><trkpt lat="44.69456446704055" lon="10.432337438632139"><ele>97.99999999999999</ele><time>2026-04-11T12:09:22Z</time></trkpt><trkpt lat="44.69446386496609" lon="10.432332030974411"><ele>98.0</ele><time>2026-04-11T12:09:23Z</time></trkpt><trkpt lat="44.69436420435365" lon="10.432365832999563"><ele>98.0</ele><time>2026-04-11T12:09:24Z</time></trkpt><trkpt lat="44.694274914556026" lon="10.432381694391315"><ele>98.0</ele><time>2026-04-11T12:09:25Z</time></trkpt><trkpt lat="44.694213694372685" lon="10.43245950212971"><ele>97.99999999999999</ele><time>2026-04-11T12:09:26Z</time></trkpt><trkpt lat="44.69416117113724" lon="10.432519491190767"><ele>98.0</ele><time>2026-04-11T12:09:27Z</time></trkpt><trkpt lat="44.69409892686948" lon="10.432582551044181"><ele>98.0</ele><time>2026-04-11T12:09:28Z</time></trkpt><trkpt lat="44.69402780281325" lon="10.432748423667421"><ele>98.0</ele><time>2026-04-11T12:09:30.001Z</time></trkpt><trkpt lat="44.69402489593129" lon="10.43292742408003"><ele>98.0</ele><time>2026-04-11T12:09:32.001Z</time></trkpt><trkpt lat="44.6940013967672" lon="10.433065168035203"><ele>98.0</ele><time>2026-04-11T12:09:34.001Z</time></trkpt><trkpt lat="44.69398419368763" lon="10.433151183009103"><ele>98.0</ele><time>2026-04-11T12:09:36.001Z</time></trkpt><trkpt lat="44.69393976374484" lon="10.433216412451372"><ele>98.0</ele><time>2026-04-11T12:09:42.001Z</time></trkpt><trkpt lat="44.69369333450773" lon="10.433066986162485"><ele>98.0</ele><time>2026-04-11T12:09:44.001Z</time></trkpt><trkpt lat="44.693734338304516" lon="10.432994656458796"><ele>98.0</ele><time>2026-04-11T12:09:45.001Z</time></trkpt><trkpt lat="44.69378066290628" lon="10.432889128713121"><ele>98.0</ele><time>2026-04-11T12:09:46.001Z</time></trkpt><trkpt lat="44.693845313755126" lon="10.432808077014949"><ele>98.2</ele><time>2026-04-11T12:09:47.001Z</time></trkpt><trkpt lat="44.69392191860527" lon="10.4327102672215"><ele>98.4</ele><time>2026-04-11T12:09:48.001Z</time></trkpt><trkpt lat="44.694002714279286" lon="10.432612677546059"><ele>98.60000000000001</ele><time>2026-04-11T12:09:49.001Z</time></trkpt><trkpt lat="44.6940765807272" lon="10.432532235676799"><ele>98.80000000000001</ele><time>2026-04-11T12:09:50.001Z</time></trkpt><trkpt lat="44.69414690192291" lon="10.432471708434795"><ele>99.0</ele><time>2026-04-11T12:09:51.001Z</time></trkpt><trkpt lat="44.69421204879958" lon="10.432428667337028"><ele>99.0</ele><time>2026-04-11T12:09:52.001Z</time></trkpt><trkpt lat="44.694315969994264" lon="10.43239439718834"><ele>99.0</ele><time>2026-04-11T12:09:54.001Z</time></trkpt><trkpt lat="44.694389127948675" lon="10.432340933560475"><ele>99.0</ele><time>2026-04-11T12:09:57.001Z</time></trkpt><trkpt lat="44.694412363029635" lon="10.432210788428051"><ele>99.0</ele><time>2026-04-11T12:10:00.001Z</time></trkpt><trkpt lat="44.69439344150689" lon="10.432116000555473"><ele>99.0</ele><time>2026-04-11T12:10:03.001Z</time></trkpt><trkpt lat="44.694352109037375" lon="10.432028274637284"><ele>99.0</ele><time>2026-04-11T12:10:06.001Z</time></trkpt><trkpt lat="44.694298360496646" lon="10.4319375871738"><ele>98.80000000000001</ele><time>2026-04-11T12:10:09.001Z</time></trkpt><trkpt lat="44.69423405491474" lon="10.431832817023599"><ele>98.60000000000001</ele><time>2026-04-11T12:10:12.001Z</time></trkpt><trkpt lat="44.69416252355322" lon="10.431721500118012"><ele>98.4</ele><time>2026-04-11T12:10:14.001Z</time></trkpt><trkpt lat="44.69408237664688" lon="10.431611344552756"><ele>98.2</ele><time>2026-04-11T12:10:16.001Z</time></trkpt><trkpt lat="44.69398736226028" lon="10.43149247007259"><ele>98.0</ele><time>2026-04-11T12:10:18.001Z</time></trkpt><trkpt lat="44.6939062652064" lon="10.431387677553719"><ele>97.83333333333333</ele><time>2026-04-11T12:10:20.001Z</time></trkpt><trkpt lat="44.69383380191863" lon="10.43129763187714"><ele>97.66666666666666</ele><time>2026-04-11T12:10:22.001Z</time></trkpt><trkpt lat="44.693730320893" lon="10.43119150238181"><ele>97.5</ele><time>2026-04-11T12:10:24.001Z</time></trkpt><trkpt lat="44.693664861479775" lon="10.431144108498488"><ele>97.33333333333334</ele><time>2026-04-11T12:10:25.001Z</time></trkpt><trkpt lat="44.69359378653589" lon="10.43112491894382"><ele>97.16666666666667</ele><time>2026-04-11T12:10:26.001Z</time></trkpt><trkpt lat="44.693524095560555" lon="10.43114504163704"><ele>97.0</ele><time>2026-04-11T12:10:27.001Z</time></trkpt><trkpt lat="44.693421293321016" lon="10.431147868828667"><ele>97.0</ele><time>2026-04-11T12:10:29.001Z</time></trkpt><trkpt lat="44.69330890221907" lon="10.431157049601294"><ele>97.0</ele><time>2026-04-11T12:10:31.001Z</time></trkpt><trkpt lat="44.69319272837181" lon="10.431144895003905"><ele>97.0</ele><time>2026-04-11T12:10:33.001Z</time></trkpt><trkpt lat="44.693077413390874" lon="10.431185474126817"><ele>97.0</ele><time>2026-04-11T12:10:35Z</time></trkpt><trkpt lat="44.69301435542862" lon="10.43118879998046"><ele>97.0</ele><time>2026-04-11T12:10:36Z</time></trkpt><trkpt lat="44.69294638261245" lon="10.431192089382684"><ele>97.00000000000001</ele><time>2026-04-11T12:10:37Z</time></trkpt><trkpt lat="44.69282105157377" lon="10.43119104808029"><ele>97.0</ele><time>2026-04-11T12:10:39Z</time></trkpt><trkpt lat="44.692753750783865" lon="10.43119470325818"><ele>97.0</ele><time>2026-04-11T12:10:40Z</time></trkpt><trkpt lat="44.69268617464848" lon="10.431194097980262"><ele>97.0</ele><time>2026-04-11T12:10:41Z</time></trkpt><trkpt lat="44.69261191049577" lon="10.431195145324255"><ele>97.00000000000001</ele><time>2026-04-11T12:10:42Z</time></trkpt><trkpt lat="44.69253708735355" lon="10.431197565506642"><ele>97.0</ele><time>2026-04-11T12:10:43Z</time></trkpt><trkpt lat="44.6924593617146" lon="10.431192736709448"><ele>97.50000000000001</ele><time>2026-04-11T12:10:44Z</time></trkpt><trkpt lat="44.69237927421013" lon="10.43119595138765"><ele>98.0</ele><time>2026-04-11T12:10:45Z</time></trkpt><trkpt lat="44.692297908658446" lon="10.431212437160125"><ele>98.5</ele><time>2026-04-11T12:10:46Z</time></trkpt><trkpt lat="44.69222919722041" lon="10.43123711600001"><ele>99.0</ele><time>2026-04-11T12:10:47Z</time></trkpt><trkpt lat="44.692169205019646" lon="10.431282893770142"><ele>99.50000000000001</ele><time>2026-04-11T12:10:48Z</time></trkpt><trkpt lat="44.692099164890735" lon="10.431339700660756"><ele>100.0</ele><time>2026-04-11T12:10:49Z</time></trkpt><trkpt lat="44.69202235900826" lon="10.431389715679263"><ele>100.33333333333334</ele><time>2026-04-11T12:10:50Z</time></trkpt><trkpt lat="44.69194423548164" lon="10.431405126761126"><ele>100.66666666666667</ele><time>2026-04-11T12:10:51Z</time></trkpt><trkpt lat="44.69188248989718" lon="10.431425111397354"><ele>101.0</ele><time>2026-04-11T12:10:52.001Z</time></trkpt><trkpt lat="44.69181837780255" lon="10.431435666761042"><ele>101.33333333333334</ele><time>2026-04-11T12:10:53.001Z</time></trkpt><trkpt lat="44.69175498905652" lon="10.431440870354892"><ele>101.66666666666667</ele><time>2026-04-11T12:10:54.001Z</time></trkpt><trkpt lat="44.69164717615685" lon="10.431412462238532"><ele>102.0</ele><time>2026-04-11T12:10:56.001Z</time></trkpt><trkpt lat="44.69154139212556" lon="10.43134092019471"><ele>101.33333333333333</ele><time>2026-04-11T12:10:58.001Z</time></trkpt><trkpt lat="44.691483064403606" lon="10.431301764413352"><ele>100.66666666666666</ele><time>2026-04-11T12:10:59.001Z</time></trkpt><trkpt lat="44.691393967938346" lon="10.431238012177154"><ele>100.0</ele><time>2026-04-11T12:11:01.001Z</time></trkpt><trkpt lat="44.691323874412106" lon="10.43117508621016"><ele>99.33333333333333</ele><time>2026-04-11T12:11:04.001Z</time></trkpt><trkpt lat="44.691273117086986" lon="10.431116064638706"><ele>98.66666666666666</ele><time>2026-04-11T12:13:44Z</time></trkpt><trkpt lat="44.69118771340068" lon="10.431046831832147"><ele>98.0</ele><time>2026-04-11T12:13:46Z</time></trkpt><trkpt lat="44.69112771597107" lon="10.430999509620516"><ele>98.49999999999999</ele><time>2026-04-11T12:13:48Z</time></trkpt><trkpt lat="44.69106472064231" lon="10.430960212017878"><ele>99.0</ele><time>2026-04-11T12:13:51.001Z</time></trkpt><trkpt lat="44.69099500682214" lon="10.430934185842839"><ele>99.5</ele><time>2026-04-11T12:13:55.001Z</time></trkpt><trkpt lat="44.69092892880262" lon="10.43092483872943"><ele>100.0</ele><time>2026-04-11T12:13:59.001Z</time></trkpt><trkpt lat="44.69086254540054" lon="10.430922095218307"><ele>100.49999999999999</ele><time>2026-04-11T12:14:02.001Z</time></trkpt><trkpt lat="44.69072663294082" lon="10.430919301540609"><ele>101.0</ele><time>2026-04-11T12:14:04.001Z</time></trkpt><trkpt lat="44.690648276254215" lon="10.430921716189475"><ele>100.99999999999999</ele><time>2026-04-11T12:14:05.001Z</time></trkpt><trkpt lat="44.690569240127004" lon="10.430919430655814"><ele>101.0</ele><time>2026-04-11T12:14:06.001Z</time></trkpt><trkpt lat="44.69049281268876" lon="10.430906192733936"><ele>101.0</ele><time>2026-04-11T12:14:07.001Z</time></trkpt><trkpt lat="44.69041474595439" lon="10.430903916860595"><ele>101.0</ele><time>2026-04-11T12:14:08.001Z</time></trkpt><trkpt lat="44.69034099958737" lon="10.430863174486186"><ele>100.99999999999999</ele><time>2026-04-11T12:14:09.001Z</time></trkpt><trkpt lat="44.69027236342456" lon="10.430817205901004"><ele>101.0</ele><time>2026-04-11T12:14:10.001Z</time></trkpt><trkpt lat="44.69022713890816" lon="10.43073695918322"><ele>101.33333333333333</ele><time>2026-04-11T12:14:11.001Z</time></trkpt><trkpt lat="44.69017532479056" lon="10.430656799880257"><ele>101.66666666666666</ele><time>2026-04-11T12:14:12.001Z</time></trkpt><trkpt lat="44.690110241809826" lon="10.430583806049704"><ele>102.0</ele><time>2026-04-11T12:14:13.001Z</time></trkpt><trkpt lat="44.69003621536561" lon="10.43052095291387"><ele>102.33333333333334</ele><time>2026-04-11T12:14:14.001Z</time></trkpt><trkpt lat="44.68995477587206" lon="10.430462868231219"><ele>102.66666666666667</ele><time>2026-04-11T12:14:15.001Z</time></trkpt><trkpt lat="44.689871085002956" lon="10.43042045867316"><ele>103.0</ele><time>2026-04-11T12:14:16.001Z</time></trkpt><trkpt lat="44.689795684541224" lon="10.430349473058536"><ele>103.0</ele><time>2026-04-11T12:14:17.001Z</time></trkpt><trkpt lat="44.68971333926595" lon="10.430290082508563"><ele>103.0</ele><time>2026-04-11T12:14:18.001Z</time></trkpt><trkpt lat="44.68962967734503" lon="10.430228401739166"><ele>103.0</ele><time>2026-04-11T12:14:19.001Z</time></trkpt><trkpt lat="44.689541942210965" lon="10.4301526391881"><ele>103.0</ele><time>2026-04-11T12:14:20.001Z</time></trkpt><trkpt lat="44.68945213960384" lon="10.43007023212462"><ele>103.0</ele><time>2026-04-11T12:14:21.001Z</time></trkpt><trkpt lat="44.68936582101226" lon="10.429984451308155"><ele>103.0</ele><time>2026-04-11T12:14:22.001Z</time></trkpt><trkpt lat="44.689277916977865" lon="10.429895496908745"><ele>103.0</ele><time>2026-04-11T12:14:23.001Z</time></trkpt><trkpt lat="44.68919406845092" lon="10.429806556535501"><ele>103.0</ele><time>2026-04-11T12:14:24.001Z</time></trkpt><trkpt lat="44.689116443745164" lon="10.4297227470989"><ele>103.0</ele><time>2026-04-11T12:14:25.001Z</time></trkpt><trkpt lat="44.68904329454323" lon="10.429643769769543"><ele>103.0</ele><time>2026-04-11T12:14:26.001Z</time></trkpt><trkpt lat="44.68897385570019" lon="10.429567403083173"><ele>103.00000000000001</ele><time>2026-04-11T12:14:27.001Z</time></trkpt><trkpt lat="44.68890321376023" lon="10.429488244023949"><ele>103.0</ele><time>2026-04-11T12:14:28.001Z</time></trkpt><trkpt lat="44.68883188644658" lon="10.429435445313498"><ele>103.0</ele><time>2026-04-11T12:14:29.001Z</time></trkpt><trkpt lat="44.68876616012916" lon="10.429377841495635"><ele>103.0</ele><time>2026-04-11T12:14:30.001Z</time></trkpt><trkpt lat="44.688699761379866" lon="10.429333460172142"><ele>103.00000000000001</ele><time>2026-04-11T12:14:31.001Z</time></trkpt><trkpt lat="44.68862926535136" lon="10.42929605721256"><ele>103.0</ele><time>2026-04-11T12:14:32.001Z</time></trkpt><trkpt lat="44.68855353623175" lon="10.42926010501346"><ele>103.50000000000001</ele><time>2026-04-11T12:14:33.001Z</time></trkpt><trkpt lat="44.688477984777066" lon="10.429195647299608"><ele>104.0</ele><time>2026-04-11T12:14:34.001Z</time></trkpt><trkpt lat="44.6883994090307" lon="10.429167153039824"><ele>104.5</ele><time>2026-04-11T12:14:35.001Z</time></trkpt><trkpt lat="44.68834612163666" lon="10.42908197964594"><ele>105.0</ele><time>2026-04-11T12:14:36.001Z</time></trkpt><trkpt lat="44.68829805005966" lon="10.429000240861608"><ele>105.50000000000001</ele><time>2026-04-11T12:14:37.001Z</time></trkpt><trkpt lat="44.68824892090697" lon="10.42892920695196"><ele>106.0</ele><time>2026-04-11T12:14:38.001Z</time></trkpt><trkpt lat="44.68815983477519" lon="10.428838893480357"><ele>106.0</ele><time>2026-04-11T12:14:40.001Z</time></trkpt><trkpt lat="44.68807961473874" lon="10.428767701264558"><ele>106.0</ele><time>2026-04-11T12:14:42.001Z</time></trkpt><trkpt lat="44.68800098011848" lon="10.428692442033924"><ele>106.0</ele><time>2026-04-11T12:14:44.001Z</time></trkpt><trkpt lat="44.68788359407022" lon="10.42891643365097"><ele>106.0</ele><time>2026-04-11T12:14:58Z</time></trkpt><trkpt lat="44.68783733517141" lon="10.429018762403535"><ele>106.00000000000001</ele><time>2026-04-11T12:15:00Z</time></trkpt><trkpt lat="44.68781729935422" lon="10.42910477604978"><ele>106.0</ele><time>2026-04-11T12:15:02Z</time></trkpt><trkpt lat="44.687802381184845" lon="10.429212727580339"><ele>106.0</ele><time>2026-04-11T12:15:05Z</time></trkpt><trkpt lat="44.68776645339703" lon="10.429346498416512"><ele>106.0</ele><time>2026-04-11T12:15:07Z</time></trkpt><trkpt lat="44.68773184540804" lon="10.429433195779737"><ele>106.00000000000001</ele><time>2026-04-11T12:15:08Z</time></trkpt><trkpt lat="44.68770108356449" lon="10.429531799897648"><ele>106.0</ele><time>2026-04-11T12:15:09Z</time></trkpt><trkpt lat="44.68766324486532" lon="10.429620273209686"><ele>105.4</ele><time>2026-04-11T12:15:10Z</time></trkpt><trkpt lat="44.68762097619067" lon="10.429706150289315"><ele>104.8</ele><time>2026-04-11T12:15:11Z</time></trkpt><trkpt lat="44.687569843986275" lon="10.42980217212098"><ele>104.2</ele><time>2026-04-11T12:15:12Z</time></trkpt><trkpt lat="44.68751730944652" lon="10.42991411907061"><ele>103.60000000000001</ele><time>2026-04-11T12:15:13Z</time></trkpt><trkpt lat="44.68745784004287" lon="10.430038844672964"><ele>103.0</ele><time>2026-04-11T12:15:14Z</time></trkpt><trkpt lat="44.68739283621337" lon="10.430178628135831"><ele>103.0</ele><time>2026-04-11T12:15:15Z</time></trkpt><trkpt lat="44.6873204173587" lon="10.430317269980257"><ele>103.0</ele><time>2026-04-11T12:15:16Z</time></trkpt><trkpt lat="44.687249380205294" lon="10.430459745270447"><ele>103.0</ele><time>2026-04-11T12:15:17.001Z</time></trkpt><trkpt lat="44.687178632674886" lon="10.430602682494262"><ele>103.0</ele><time>2026-04-11T12:15:18.001Z</time></trkpt><trkpt lat="44.68710795844711" lon="10.430742960330226"><ele>103.00000000000001</ele><time>2026-04-11T12:15:19.001Z</time></trkpt><trkpt lat="44.68704801075159" lon="10.43085351657822"><ele>103.0</ele><time>2026-04-11T12:15:20.001Z</time></trkpt><trkpt lat="44.687008398261966" lon="10.430940938015086"><ele>103.0</ele><time>2026-04-11T12:15:21.001Z</time></trkpt><trkpt lat="44.686965639878146" lon="10.431030761400978"><ele>103.0</ele><time>2026-04-11T12:15:23.001Z</time></trkpt><trkpt lat="44.68692872503821" lon="10.431113072522777"><ele>103.00000000000001</ele><time>2026-04-11T12:15:24.001Z</time></trkpt><trkpt lat="44.686873528212736" lon="10.431214505654934"><ele>103.0</ele><time>2026-04-11T12:15:25.001Z</time></trkpt><trkpt lat="44.68680636509621" lon="10.431352021116215"><ele>103.5</ele><time>2026-04-11T12:15:26.001Z</time></trkpt><trkpt lat="44.686724091280645" lon="10.431517484715418"><ele>104.0</ele><time>2026-04-11T12:15:27.001Z</time></trkpt><trkpt lat="44.68664591107473" lon="10.431675667103278"><ele>104.5</ele><time>2026-04-11T12:15:28.001Z</time></trkpt><trkpt lat="44.686580406624" lon="10.431808606995316"><ele>105.0</ele><time>2026-04-11T12:15:29.001Z</time></trkpt><trkpt lat="44.68652361350161" lon="10.431919821867767"><ele>105.0</ele><time>2026-04-11T12:15:30.001Z</time></trkpt><trkpt lat="44.686487480437854" lon="10.431994620074422"><ele>105.0</ele><time>2026-04-11T12:15:31.001Z</time></trkpt><trkpt lat="44.68629467174959" lon="10.431813290325906"><ele>105.0</ele><time>2026-04-11T12:15:38Z</time></trkpt><trkpt lat="44.686219757641965" lon="10.431754244450579"><ele>105.0</ele><time>2026-04-11T12:15:39Z</time></trkpt><trkpt lat="44.686126536678564" lon="10.431677131822635"><ele>104.75</ele><time>2026-04-11T12:15:40Z</time></trkpt><trkpt lat="44.686037281270856" lon="10.431600432683686"><ele>104.5</ele><time>2026-04-11T12:15:41Z</time></trkpt><trkpt lat="44.68594373396745" lon="10.431517778624993"><ele>104.25</ele><time>2026-04-11T12:15:42Z</time></trkpt><trkpt lat="44.685841371375105" lon="10.431430917467466"><ele>104.0</ele><time>2026-04-11T12:15:43Z</time></trkpt><trkpt lat="44.68573398742091" lon="10.43133746734316"><ele>104.25</ele><time>2026-04-11T12:15:44Z</time></trkpt><trkpt lat="44.6856230716793" lon="10.431243012577532"><ele>104.5</ele><time>2026-04-11T12:15:45Z</time></trkpt><trkpt lat="44.685509233127796" lon="10.431146486182339"><ele>104.75</ele><time>2026-04-11T12:15:46Z</time></trkpt><trkpt lat="44.68539407446283" lon="10.43104879191186"><ele>105.0</ele><time>2026-04-11T12:15:47Z</time></trkpt><trkpt lat="44.685277720426626" lon="10.430951828564757"><ele>105.0</ele><time>2026-04-11T12:15:48Z</time></trkpt><trkpt lat="44.68516324678674" lon="10.430857022574857"><ele>105.0</ele><time>2026-04-11T12:15:49Z</time></trkpt><trkpt lat="44.685051015733684" lon="10.43076067405087"><ele>105.0</ele><time>2026-04-11T12:15:50Z</time></trkpt><trkpt lat="44.684938852983876" lon="10.43066053286484"><ele>105.0</ele><time>2026-04-11T12:15:51Z</time></trkpt><trkpt lat="44.684830811542405" lon="10.430566970604804"><ele>105.0</ele><time>2026-04-11T12:15:52Z</time></trkpt><trkpt lat="44.68472843461238" lon="10.430474706679764"><ele>105.0</ele><time>2026-04-11T12:15:53Z</time></trkpt><trkpt lat="44.68463283064146" lon="10.430386189957405"><ele>105.0</ele><time>2026-04-11T12:15:54Z</time></trkpt><trkpt lat="44.68454753633193" lon="10.430293171179992"><ele>105.0</ele><time>2026-04-11T12:15:55Z</time></trkpt><trkpt lat="44.68446709754905" lon="10.43018701498809"><ele>105.25</ele><time>2026-04-11T12:15:56Z</time></trkpt><trkpt lat="44.68437860301632" lon="10.430095710457032"><ele>105.5</ele><time>2026-04-11T12:15:57Z</time></trkpt><trkpt lat="44.68427894333056" lon="10.430012694428704"><ele>105.75</ele><time>2026-04-11T12:15:58Z</time></trkpt><trkpt lat="44.684176310701154" lon="10.429929288933872"><ele>106.0</ele><time>2026-04-11T12:15:59Z</time></trkpt><trkpt lat="44.68407999938258" lon="10.429848841651634"><ele>106.0</ele><time>2026-04-11T12:16:00Z</time></trkpt><trkpt lat="44.68398331542964" lon="10.429770030344676"><ele>106.0</ele><time>2026-04-11T12:16:01Z</time></trkpt><trkpt lat="44.683886766783786" lon="10.429696964395683"><ele>106.0</ele><time>2026-04-11T12:16:02Z</time></trkpt><trkpt lat="44.683794582140024" lon="10.42962649632055"><ele>106.0</ele><time>2026-04-11T12:16:03Z</time></trkpt><trkpt lat="44.68369592723165" lon="10.429538541963804"><ele>106.0</ele><time>2026-04-11T12:16:04Z</time></trkpt><trkpt lat="44.68359803662218" lon="10.429444511821448"><ele>106.25</ele><time>2026-04-11T12:16:05Z</time></trkpt><trkpt lat="44.68349543386738" lon="10.429356117689705"><ele>106.5</ele><time>2026-04-11T12:16:06Z</time></trkpt><trkpt lat="44.68338741407572" lon="10.429260608326492"><ele>106.75</ele><time>2026-04-11T12:16:07Z</time></trkpt><trkpt lat="44.6832758464145" lon="10.42916674466925"><ele>107.0</ele><time>2026-04-11T12:16:08Z</time></trkpt><trkpt lat="44.68316271841175" lon="10.429068866684306"><ele>107.0</ele><time>2026-04-11T12:16:09Z</time></trkpt><trkpt lat="44.68304915617531" lon="10.428972815782375"><ele>107.0</ele><time>2026-04-11T12:16:10Z</time></trkpt><trkpt lat="44.68294320443525" lon="10.428884315157829"><ele>107.0</ele><time>2026-04-11T12:16:11Z</time></trkpt><trkpt lat="44.682842437529146" lon="10.428798899713975"><ele>107.0</ele><time>2026-04-11T12:16:12Z</time></trkpt><trkpt lat="44.68273579471933" lon="10.428708295769706"><ele>107.0</ele><time>2026-04-11T12:16:13Z</time></trkpt><trkpt lat="44.68262702332986" lon="10.428614558737351"><ele>107.0</ele><time>2026-04-11T12:16:14Z</time></trkpt><trkpt lat="44.68251853153485" lon="10.428520620611026"><ele>107.0</ele><time>2026-04-11T12:16:15Z</time></trkpt><trkpt lat="44.682409945136456" lon="10.42842700749527"><ele>107.0</ele><time>2026-04-11T12:16:16Z</time></trkpt><trkpt lat="44.682297402836184" lon="10.428329778025335"><ele>107.0</ele><time>2026-04-11T12:16:17Z</time></trkpt><trkpt lat="44.6821810465316" lon="10.428230708654846"><ele>107.0</ele><time>2026-04-11T12:16:18Z</time></trkpt><trkpt lat="44.68206676802715" lon="10.42813160817657"><ele>107.0</ele><time>2026-04-11T12:16:19Z</time></trkpt><trkpt lat="44.68194959968019" lon="10.428032736216155"><ele>107.0</ele><time>2026-04-11T12:16:20Z</time></trkpt><trkpt lat="44.681832308746515" lon="10.42793381621447"><ele>107.0</ele><time>2026-04-11T12:16:21Z</time></trkpt><trkpt lat="44.68171391374532" lon="10.427833723043548"><ele>107.0</ele><time>2026-04-11T12:16:22Z</time></trkpt><trkpt lat="44.68159644876876" lon="10.427732233166717"><ele>107.0</ele><time>2026-04-11T12:16:23Z</time></trkpt><trkpt lat="44.68148284404805" lon="10.427631496118462"><ele>107.0</ele><time>2026-04-11T12:16:24Z</time></trkpt><trkpt lat="44.681367068772424" lon="10.427533408005319"><ele>107.0</ele><time>2026-04-11T12:16:25Z</time></trkpt><trkpt lat="44.68125614703925" lon="10.427449192011908"><ele>107.0</ele><time>2026-04-11T12:16:26Z</time></trkpt><trkpt lat="44.68115632248421" lon="10.427372431306068"><ele>107.0</ele><time>2026-04-11T12:16:27Z</time></trkpt><trkpt lat="44.681059250820816" lon="10.427284679410535"><ele>107.0</ele><time>2026-04-11T12:16:28Z</time></trkpt><trkpt lat="44.680949889826785" lon="10.427184788783606"><ele>107.25</ele><time>2026-04-11T12:16:29Z</time></trkpt><trkpt lat="44.68083477175811" lon="10.427082824540683"><ele>107.5</ele><time>2026-04-11T12:16:30Z</time></trkpt><trkpt lat="44.680722674581446" lon="10.426985862789401"><ele>107.75</ele><time>2026-04-11T12:16:31Z</time></trkpt><trkpt lat="44.680623499131386" lon="10.426899506950512"><ele>108.0</ele><time>2026-04-11T12:16:32Z</time></trkpt><trkpt lat="44.68053481295765" lon="10.426824061575147"><ele>108.0</ele><time>2026-04-11T12:16:33Z</time></trkpt><trkpt lat="44.68045549475503" lon="10.426751895529028"><ele>108.00000000000001</ele><time>2026-04-11T12:16:34Z</time></trkpt><trkpt lat="44.68038130445192" lon="10.426691699796713"><ele>108.00000000000001</ele><time>2026-04-11T12:16:35Z</time></trkpt><trkpt lat="44.68030167390768" lon="10.42664758724793"><ele>108.0</ele><time>2026-04-11T12:16:36Z</time></trkpt><trkpt lat="44.68021196128166" lon="10.42661939396843"><ele>108.0</ele><time>2026-04-11T12:16:37Z</time></trkpt><trkpt lat="44.68011327327188" lon="10.426579968978013"><ele>108.5</ele><time>2026-04-11T12:16:38Z</time></trkpt><trkpt lat="44.680007825180404" lon="10.426529738477344"><ele>109.0</ele><time>2026-04-11T12:16:39Z</time></trkpt><trkpt lat="44.679894953473614" lon="10.426478541469528"><ele>109.5</ele><time>2026-04-11T12:16:40Z</time></trkpt><trkpt lat="44.6797749783445" lon="10.426418632222987"><ele>110.0</ele><time>2026-04-11T12:16:41Z</time></trkpt><trkpt lat="44.679651961127036" lon="10.42635585701025"><ele>109.5</ele><time>2026-04-11T12:16:42Z</time></trkpt><trkpt lat="44.679524889150876" lon="10.426298415015527"><ele>109.0</ele><time>2026-04-11T12:16:43Z</time></trkpt><trkpt lat="44.679393720755726" lon="10.426234554937501"><ele>108.5</ele><time>2026-04-11T12:16:44Z</time></trkpt><trkpt lat="44.6792592472823" lon="10.426167832622442"><ele>108.0</ele><time>2026-04-11T12:16:45Z</time></trkpt><trkpt lat="44.6791173978691" lon="10.426101291168452"><ele>109.33333333333334</ele><time>2026-04-11T12:16:46Z</time></trkpt><trkpt lat="44.678968828194705" lon="10.426029100951766"><ele>110.66666666666667</ele><time>2026-04-11T12:16:47Z</time></trkpt><trkpt lat="44.678817537827776" lon="10.425958056892295"><ele>112.0</ele><time>2026-04-11T12:16:48Z</time></trkpt><trkpt lat="44.67866601253528" lon="10.425884696604498"><ele>112.33333333333334</ele><time>2026-04-11T12:16:49Z</time></trkpt><trkpt lat="44.678512121458" lon="10.425803651057336"><ele>112.66666666666666</ele><time>2026-04-11T12:16:50Z</time></trkpt><trkpt lat="44.67836005494989" lon="10.425727291724861"><ele>113.0</ele><time>2026-04-11T12:16:51Z</time></trkpt><trkpt lat="44.67820418876285" lon="10.425650391075393"><ele>113.0</ele><time>2026-04-11T12:16:51.999Z</time></trkpt><trkpt lat="44.67805090793238" lon="10.425577444854056"><ele>113.0</ele><time>2026-04-11T12:16:52.999Z</time></trkpt><trkpt lat="44.677907675658176" lon="10.425508762617778"><ele>113.0</ele><time>2026-04-11T12:16:53.999Z</time></trkpt><trkpt lat="44.67777048057027" lon="10.425445826792055"><ele>112.75</ele><time>2026-04-11T12:16:54.999Z</time></trkpt><trkpt lat="44.677631530342126" lon="10.425376853992939"><ele>112.5</ele><time>2026-04-11T12:16:55.999Z</time></trkpt><trkpt lat="44.67749679426083" lon="10.425303101252435"><ele>112.25</ele><time>2026-04-11T12:16:56.999Z</time></trkpt><trkpt lat="44.677372582814975" lon="10.425244002742227"><ele>112.0</ele><time>2026-04-11T12:16:57.999Z</time></trkpt><trkpt lat="44.677257980963006" lon="10.425189939207348"><ele>112.0</ele><time>2026-04-11T12:16:58.999Z</time></trkpt><trkpt lat="44.67715218734225" lon="10.425133810487807"><ele>111.99999999999999</ele><time>2026-04-11T12:17:00Z</time></trkpt><trkpt lat="44.67705278540287" lon="10.425084044280293"><ele>111.99999999999999</ele><time>2026-04-11T12:17:01Z</time></trkpt><trkpt lat="44.67695917149646" lon="10.425041937715344"><ele>112.0</ele><time>2026-04-11T12:17:02Z</time></trkpt><trkpt lat="44.6768724179251" lon="10.425003422455267"><ele>112.0</ele><time>2026-04-11T12:17:03Z</time></trkpt><trkpt lat="44.676782447569536" lon="10.424956227397487"><ele>112.19999999999999</ele><time>2026-04-11T12:17:04Z</time></trkpt><trkpt lat="44.676690410566" lon="10.424909532409952"><ele>112.39999999999999</ele><time>2026-04-11T12:17:05Z</time></trkpt><trkpt lat="44.67662123402767" lon="10.42487343382131"><ele>112.60000000000001</ele><time>2026-04-11T12:17:06Z</time></trkpt><trkpt lat="44.67655783414742" lon="10.424843063742351"><ele>112.80000000000001</ele><time>2026-04-11T12:17:07Z</time></trkpt><trkpt lat="44.6764457170522" lon="10.424791404821326"><ele>113.0</ele><time>2026-04-11T12:17:09Z</time></trkpt><trkpt lat="44.67635008737933" lon="10.424749248515662"><ele>112.99999999999999</ele><time>2026-04-11T12:17:11Z</time></trkpt><trkpt lat="44.676290908442176" lon="10.424717176677074"><ele>113.0</ele><time>2026-04-11T12:17:12Z</time></trkpt><trkpt lat="44.676189946227424" lon="10.424670131167925"><ele>113.0</ele><time>2026-04-11T12:17:14Z</time></trkpt><trkpt lat="44.67611303371179" lon="10.424653754624561"><ele>113.0</ele><time>2026-04-11T12:17:16Z</time></trkpt><trkpt lat="44.676034538390475" lon="10.424618942531552"><ele>112.99999999999999</ele><time>2026-04-11T12:17:18Z</time></trkpt><trkpt lat="44.67599951458802" lon="10.424545219753243"><ele>113.0</ele><time>2026-04-11T12:17:19Z</time></trkpt><trkpt lat="44.67588252932603" lon="10.424486399694326"><ele>113.42857142857143</ele><time>2026-04-11T12:17:21Z</time></trkpt><trkpt lat="44.67581966491179" lon="10.424455956834953"><ele>113.85714285714286</ele><time>2026-04-11T12:17:22Z</time></trkpt><trkpt lat="44.675754345775005" lon="10.424428126686658"><ele>114.28571428571429</ele><time>2026-04-11T12:17:23Z</time></trkpt><trkpt lat="44.67569041637757" lon="10.424393742109244"><ele>114.71428571428572</ele><time>2026-04-11T12:17:24Z</time></trkpt><trkpt lat="44.675625431520004" lon="10.424351542338215"><ele>115.14285714285714</ele><time>2026-04-11T12:17:25Z</time></trkpt><trkpt lat="44.67555899440298" lon="10.424309173241479"><ele>115.57142857142858</ele><time>2026-04-11T12:17:26Z</time></trkpt><trkpt lat="44.67549633746697" lon="10.424281512874304"><ele>116.00000000000001</ele><time>2026-04-11T12:17:27Z</time></trkpt><trkpt lat="44.675391334860585" lon="10.424301154442368"><ele>116.0</ele><time>2026-04-11T12:17:29Z</time></trkpt><trkpt lat="44.67536080996603" lon="10.42439248531998"><ele>116.0</ele><time>2026-04-11T12:17:30Z</time></trkpt><trkpt lat="44.67530567181614" lon="10.424506353513305"><ele>116.0</ele><time>2026-04-11T12:17:32Z</time></trkpt><trkpt lat="44.67528068982889" lon="10.424703870205727"><ele>116.0</ele><time>2026-04-11T12:17:34Z</time></trkpt><trkpt lat="44.67526666987474" lon="10.424822724560034"><ele>116.0</ele><time>2026-04-11T12:17:35Z</time></trkpt><trkpt lat="44.675246259432534" lon="10.424958610481358"><ele>115.75</ele><time>2026-04-11T12:17:36Z</time></trkpt><trkpt lat="44.675223563017994" lon="10.42511037640583"><ele>115.5</ele><time>2026-04-11T12:17:37Z</time></trkpt><trkpt lat="44.67520085578318" lon="10.425278154681719"><ele>115.25</ele><time>2026-04-11T12:17:38Z</time></trkpt><trkpt lat="44.675177876173244" lon="10.425455394268491"><ele>115.0</ele><time>2026-04-11T12:17:39Z</time></trkpt><trkpt lat="44.67515084983015" lon="10.425638615825237"><ele>114.66666666666667</ele><time>2026-04-11T12:17:40Z</time></trkpt><trkpt lat="44.67512388827363" lon="10.42583592805907"><ele>114.33333333333334</ele><time>2026-04-11T12:17:41Z</time></trkpt><trkpt lat="44.67509709176946" lon="10.426054434209316"><ele>114.0</ele><time>2026-04-11T12:17:42Z</time></trkpt><trkpt lat="44.67506816537369" lon="10.426286935484091"><ele>114.66666666666666</ele><time>2026-04-11T12:17:43Z</time></trkpt><trkpt lat="44.67503585392995" lon="10.426531363172254"><ele>115.33333333333333</ele><time>2026-04-11T12:17:44Z</time></trkpt><trkpt lat="44.67500497399065" lon="10.426784209515041"><ele>116.0</ele><time>2026-04-11T12:17:45Z</time></trkpt><trkpt lat="44.67497434222634" lon="10.427043483406347"><ele>116.0</ele><time>2026-04-11T12:17:46Z</time></trkpt><trkpt lat="44.67494339376832" lon="10.427313555588816"><ele>116.0</ele><time>2026-04-11T12:17:47Z</time></trkpt><trkpt lat="44.67491500254005" lon="10.427588176697716"><ele>116.0</ele><time>2026-04-11T12:17:48Z</time></trkpt><trkpt lat="44.67488396956841" lon="10.427869227611424"><ele>116.0</ele><time>2026-04-11T12:17:49Z</time></trkpt><trkpt lat="44.67485650113164" lon="10.428140713705789"><ele>116.0</ele><time>2026-04-11T12:17:50Z</time></trkpt><trkpt lat="44.674832252103634" lon="10.428389859159013"><ele>116.0</ele><time>2026-04-11T12:17:51Z</time></trkpt><trkpt lat="44.67480745617172" lon="10.42862062245456"><ele>116.0</ele><time>2026-04-11T12:17:52Z</time></trkpt><trkpt lat="44.67478675380313" lon="10.428823651129225"><ele>116.0</ele><time>2026-04-11T12:17:53Z</time></trkpt><trkpt lat="44.67476778512997" lon="10.42900679005862"><ele>116.0</ele><time>2026-04-11T12:17:54Z</time></trkpt><trkpt lat="44.674747676053" lon="10.42917311223473"><ele>116.0</ele><time>2026-04-11T12:17:55Z</time></trkpt><trkpt lat="44.67472540111234" lon="10.42932848480398"><ele>116.0</ele><time>2026-04-11T12:17:56Z</time></trkpt><trkpt lat="44.67470124355865" lon="10.429474029925865"><ele>116.0</ele><time>2026-04-11T12:17:57Z</time></trkpt><trkpt lat="44.674680463493864" lon="10.429612901450454"><ele>116.0</ele><time>2026-04-11T12:17:58Z</time></trkpt><trkpt lat="44.67465675207903" lon="10.429744700221606"><ele>116.0</ele><time>2026-04-11T12:17:59Z</time></trkpt><trkpt lat="44.67463259336565" lon="10.429880032319565"><ele>116.0</ele><time>2026-04-11T12:18:00Z</time></trkpt><trkpt lat="44.67460417509224" lon="10.43001942596169"><ele>115.83333333333333</ele><time>2026-04-11T12:18:01Z</time></trkpt><trkpt lat="44.674575716232795" lon="10.430159616113784"><ele>115.66666666666666</ele><time>2026-04-11T12:18:02Z</time></trkpt><trkpt lat="44.67454772871389" lon="10.430291956501208"><ele>115.5</ele><time>2026-04-11T12:18:03Z</time></trkpt><trkpt lat="44.67452462864915" lon="10.430412408699617"><ele>115.33333333333334</ele><time>2026-04-11T12:18:04Z</time></trkpt><trkpt lat="44.674501746412595" lon="10.43052456232735"><ele>115.16666666666667</ele><time>2026-04-11T12:18:05Z</time></trkpt><trkpt lat="44.6744759348116" lon="10.430622072682668"><ele>115.0</ele><time>2026-04-11T12:18:06Z</time></trkpt><trkpt lat="44.67445219276842" lon="10.430720074191568"><ele>115.8</ele><time>2026-04-11T12:18:08Z</time></trkpt><trkpt lat="44.67434722277544" lon="10.430695987779625"><ele>116.6</ele><time>2026-04-11T12:18:10Z</time></trkpt><trkpt lat="44.674219368322085" lon="10.43066362286526"><ele>117.4</ele><time>2026-04-11T12:18:12Z</time></trkpt><trkpt lat="44.67413920923348" lon="10.430633436140377"><ele>118.2</ele><time>2026-04-11T12:18:13Z</time></trkpt><trkpt lat="44.67404661681036" lon="10.430602087984367"><ele>119.0</ele><time>2026-04-11T12:18:14Z</time></trkpt><trkpt lat="44.67394291603591" lon="10.430564968414213"><ele>119.0</ele><time>2026-04-11T12:18:15Z</time></trkpt><trkpt lat="44.6738275942939" lon="10.430518765269294"><ele>119.0</ele><time>2026-04-11T12:18:16Z</time></trkpt><trkpt lat="44.673698780534714" lon="10.430470087667302"><ele>119.0</ele><time>2026-04-11T12:18:17Z</time></trkpt><trkpt lat="44.67356293824773" lon="10.430421091172729"><ele>119.0</ele><time>2026-04-11T12:18:18Z</time></trkpt><trkpt lat="44.673423656903324" lon="10.430369900858928"><ele>118.66666666666666</ele><time>2026-04-11T12:18:19Z</time></trkpt><trkpt lat="44.67327587922346" lon="10.430316927635612"><ele>118.33333333333334</ele><time>2026-04-11T12:18:20Z</time></trkpt><trkpt lat="44.67312286380383" lon="10.430260717320099"><ele>118.0</ele><time>2026-04-11T12:18:21Z</time></trkpt><trkpt lat="44.672964717612274" lon="10.430203613856657"><ele>118.0</ele><time>2026-04-11T12:18:22Z</time></trkpt><trkpt lat="44.67279865902223" lon="10.430144125815733"><ele>118.0</ele><time>2026-04-11T12:18:23Z</time></trkpt><trkpt lat="44.67262694026623" lon="10.430083171744746"><ele>118.0</ele><time>2026-04-11T12:18:24Z</time></trkpt><trkpt lat="44.67245689321103" lon="10.430021187096962"><ele>118.33333333333334</ele><time>2026-04-11T12:18:25Z</time></trkpt><trkpt lat="44.67228164298211" lon="10.429958827662208"><ele>118.66666666666666</ele><time>2026-04-11T12:18:26Z</time></trkpt><trkpt lat="44.67210242411057" lon="10.429896366986195"><ele>119.0</ele><time>2026-04-11T12:18:27Z</time></trkpt><trkpt lat="44.671919458589386" lon="10.429843673273117"><ele>119.0</ele><time>2026-04-11T12:18:28Z</time></trkpt><trkpt lat="44.67173097459134" lon="10.429805754814927"><ele>119.0</ele><time>2026-04-11T12:18:29.001Z</time></trkpt><trkpt lat="44.671537042196995" lon="10.429777726844259"><ele>119.0</ele><time>2026-04-11T12:18:30.001Z</time></trkpt><trkpt lat="44.671342148460646" lon="10.429754153227575"><ele>119.0</ele><time>2026-04-11T12:18:31.001Z</time></trkpt><trkpt lat="44.671146676621625" lon="10.4297315506876"><ele>119.0</ele><time>2026-04-11T12:18:32.001Z</time></trkpt><trkpt lat="44.67095086028334" lon="10.429713825927474"><ele>119.0</ele><time>2026-04-11T12:18:33.001Z</time></trkpt><trkpt lat="44.67077025747983" lon="10.429697287468718"><ele>119.66666666666666</ele><time>2026-04-11T12:18:34.001Z</time></trkpt><trkpt lat="44.6706004325064" lon="10.429679780371576"><ele>120.33333333333334</ele><time>2026-04-11T12:18:35.001Z</time></trkpt><trkpt lat="44.67044119738305" lon="10.42966705000695"><ele>121.0</ele><time>2026-04-11T12:18:36.001Z</time></trkpt><trkpt lat="44.67029168382458" lon="10.429651410435637"><ele>121.19999999999999</ele><time>2026-04-11T12:18:37.001Z</time></trkpt><trkpt lat="44.67015526528659" lon="10.429637293186842"><ele>121.39999999999999</ele><time>2026-04-11T12:18:38.001Z</time></trkpt><trkpt lat="44.670047093787836" lon="10.42962884877138"><ele>121.6</ele><time>2026-04-11T12:18:39.001Z</time></trkpt><trkpt lat="44.669962709368576" lon="10.429618744662646"><ele>121.8</ele><time>2026-04-11T12:18:40.001Z</time></trkpt><trkpt lat="44.66989860292726" lon="10.429607192429296"><ele>122.0</ele><time>2026-04-11T12:18:41.001Z</time></trkpt><trkpt lat="44.669826391076285" lon="10.429581376568082"><ele>122.25</ele><time>2026-04-11T12:18:43.001Z</time></trkpt><trkpt lat="44.669966602692966" lon="10.42966801906639"><ele>122.5</ele><time>2026-04-11T12:18:48.001Z</time></trkpt><trkpt lat="44.67007372641554" lon="10.429664568208642"><ele>122.75</ele><time>2026-04-11T12:18:49.001Z</time></trkpt><trkpt lat="44.670182086053224" lon="10.429674109682217"><ele>123.0</ele><time>2026-04-11T12:18:50.001Z</time></trkpt><trkpt lat="44.6702725474511" lon="10.429680044214598"><ele>122.66666666666666</ele><time>2026-04-11T12:18:51.001Z</time></trkpt><trkpt lat="44.67040040236918" lon="10.429698182044026"><ele>122.33333333333333</ele><time>2026-04-11T12:18:53.001Z</time></trkpt><trkpt lat="44.67019145966366" lon="10.429638521735026"><ele>122.0</ele><time>2026-04-11T12:19:03Z</time></trkpt><trkpt lat="44.67008257432908" lon="10.429627039405233"><ele>122.0</ele><time>2026-04-11T12:19:04Z</time></trkpt><trkpt lat="44.669956108393194" lon="10.429614951040643"><ele>122.0</ele><time>2026-04-11T12:19:05Z</time></trkpt><trkpt lat="44.669818657807" lon="10.429601421537544"><ele>122.0</ele><time>2026-04-11T12:19:06Z</time></trkpt><trkpt lat="44.66967434552709" lon="10.42958797859906"><ele>122.0</ele><time>2026-04-11T12:19:07Z</time></trkpt><trkpt lat="44.669512719742514" lon="10.4295780134818"><ele>122.33333333333333</ele><time>2026-04-11T12:19:08Z</time></trkpt><trkpt lat="44.66935040865318" lon="10.429564711448572"><ele>122.66666666666666</ele><time>2026-04-11T12:19:09Z</time></trkpt><trkpt lat="44.66920019206589" lon="10.42954867816584"><ele>123.0</ele><time>2026-04-11T12:19:10Z</time></trkpt><trkpt lat="44.66906146968612" lon="10.429534827253535"><ele>123.0</ele><time>2026-04-11T12:19:11Z</time></trkpt><trkpt lat="44.668932990033014" lon="10.429521965509561"><ele>123.0</ele><time>2026-04-11T12:19:12Z</time></trkpt><trkpt lat="44.66881302069273" lon="10.429507839262701"><ele>123.0</ele><time>2026-04-11T12:19:13Z</time></trkpt><trkpt lat="44.66870344056285" lon="10.429467839648755"><ele>123.0</ele><time>2026-04-11T12:19:14Z</time></trkpt><trkpt lat="44.66859725110483" lon="10.429479579191359"><ele>123.5</ele><time>2026-04-11T12:19:15Z</time></trkpt><trkpt lat="44.66847202239697" lon="10.429465044316728"><ele>124.0</ele><time>2026-04-11T12:19:16Z</time></trkpt><trkpt lat="44.66832811644571" lon="10.429449581579746"><ele>124.5</ele><time>2026-04-11T12:19:17Z</time></trkpt><trkpt lat="44.66817306981689" lon="10.429430953841669"><ele>125.0</ele><time>2026-04-11T12:19:18Z</time></trkpt><trkpt lat="44.668010613183235" lon="10.429408697468265"><ele>125.0</ele><time>2026-04-11T12:19:19Z</time></trkpt><trkpt lat="44.66784498839115" lon="10.429376241197238"><ele>125.0</ele><time>2026-04-11T12:19:20Z</time></trkpt><trkpt lat="44.6676763010742" lon="10.429326196668903"><ele>125.0</ele><time>2026-04-11T12:19:21Z</time></trkpt><trkpt lat="44.66749755600549" lon="10.42926466143086"><ele>125.0</ele><time>2026-04-11T12:19:22Z</time></trkpt><trkpt lat="44.66732925698657" lon="10.429200515854967"><ele>125.0</ele><time>2026-04-11T12:19:23Z</time></trkpt><trkpt lat="44.667174225449735" lon="10.429139012688868"><ele>125.0</ele><time>2026-04-11T12:19:24Z</time></trkpt><trkpt lat="44.66702370890763" lon="10.429048995275963"><ele>124.75</ele><time>2026-04-11T12:19:25Z</time></trkpt><trkpt lat="44.66688362414175" lon="10.428986919591772"><ele>124.5</ele><time>2026-04-11T12:19:26Z</time></trkpt><trkpt lat="44.666746708272974" lon="10.428926248051052"><ele>124.25</ele><time>2026-04-11T12:19:27Z</time></trkpt><trkpt lat="44.66660544490152" lon="10.428863650036723"><ele>124.0</ele><time>2026-04-11T12:19:28Z</time></trkpt><trkpt lat="44.66645991657931" lon="10.428799163602266"><ele>124.0</ele><time>2026-04-11T12:19:29Z</time></trkpt><trkpt lat="44.6663104391932" lon="10.428733682444184"><ele>124.0</ele><time>2026-04-11T12:19:30Z</time></trkpt><trkpt lat="44.666157909585785" lon="10.42866604084837"><ele>124.0</ele><time>2026-04-11T12:19:31Z</time></trkpt><trkpt lat="44.66599787434586" lon="10.428617986949341"><ele>124.33333333333334</ele><time>2026-04-11T12:19:32Z</time></trkpt><trkpt lat="44.66584703481661" lon="10.42855126912161"><ele>124.66666666666666</ele><time>2026-04-11T12:19:33Z</time></trkpt><trkpt lat="44.66570084057036" lon="10.428484245420274"><ele>125.0</ele><time>2026-04-11T12:19:34.001Z</time></trkpt><trkpt lat="44.66555359208117" lon="10.42842278126879"><ele>125.0</ele><time>2026-04-11T12:19:35.001Z</time></trkpt><trkpt lat="44.66540366697585" lon="10.428376292698568"><ele>125.0</ele><time>2026-04-11T12:19:36.001Z</time></trkpt><trkpt lat="44.66526388535135" lon="10.428349748646296"><ele>125.0</ele><time>2026-04-11T12:19:37.001Z</time></trkpt><trkpt lat="44.66514461853769" lon="10.428337698537916"><ele>125.0</ele><time>2026-04-11T12:19:38.001Z</time></trkpt><trkpt lat="44.66503190108745" lon="10.42833623009348"><ele>124.75</ele><time>2026-04-11T12:19:39.001Z</time></trkpt><trkpt lat="44.66491171392432" lon="10.428341378877619"><ele>124.5</ele><time>2026-04-11T12:19:40.001Z</time></trkpt><trkpt lat="44.6647780034871" lon="10.428352632515367"><ele>124.25</ele><time>2026-04-11T12:19:41.001Z</time></trkpt><trkpt lat="44.66463184810391" lon="10.428365149157916"><ele>124.0</ele><time>2026-04-11T12:19:42.001Z</time></trkpt><trkpt lat="44.66448114915112" lon="10.428376078768588"><ele>124.0</ele><time>2026-04-11T12:19:43.001Z</time></trkpt><trkpt lat="44.664341428263604" lon="10.42838725937425"><ele>124.0</ele><time>2026-04-11T12:19:44.001Z</time></trkpt><trkpt lat="44.66420450986273" lon="10.428395808203378"><ele>124.0</ele><time>2026-04-11T12:19:45.001Z</time></trkpt><trkpt lat="44.66406257349319" lon="10.42840329891199"><ele>124.0</ele><time>2026-04-11T12:19:46.001Z</time></trkpt><trkpt lat="44.66391949991405" lon="10.428409187237705"><ele>124.0</ele><time>2026-04-11T12:19:47.001Z</time></trkpt><trkpt lat="44.663781492842965" lon="10.428409781022163"><ele>124.0</ele><time>2026-04-11T12:19:48.001Z</time></trkpt><trkpt lat="44.66364382025839" lon="10.428401953958208"><ele>124.0</ele><time>2026-04-11T12:19:49.001Z</time></trkpt><trkpt lat="44.66350359555466" lon="10.428381932757231"><ele>124.0</ele><time>2026-04-11T12:19:50.001Z</time></trkpt><trkpt lat="44.663360304542415" lon="10.42834383895461"><ele>124.66666666666667</ele><time>2026-04-11T12:19:51.001Z</time></trkpt><trkpt lat="44.663215044945034" lon="10.42828427013556"><ele>125.33333333333334</ele><time>2026-04-11T12:19:52.001Z</time></trkpt><trkpt lat="44.663072604579256" lon="10.428209176719697"><ele>126.0</ele><time>2026-04-11T12:19:53.001Z</time></trkpt><trkpt lat="44.662916583134475" lon="10.428125380691219"><ele>126.0</ele><time>2026-04-11T12:19:54.001Z</time></trkpt><trkpt lat="44.662765429319094" lon="10.42803248711282"><ele>126.0</ele><time>2026-04-11T12:19:55.001Z</time></trkpt><trkpt lat="44.66261040192708" lon="10.427942699675048"><ele>126.0</ele><time>2026-04-11T12:19:56Z</time></trkpt><trkpt lat="44.66246439767427" lon="10.427840878648789"><ele>126.0</ele><time>2026-04-11T12:19:57Z</time></trkpt><trkpt lat="44.66228578132897" lon="10.427762000753843"><ele>126.0</ele><time>2026-04-11T12:19:58Z</time></trkpt><trkpt lat="44.66211275956688" lon="10.427704198854585"><ele>126.0</ele><time>2026-04-11T12:19:59Z</time></trkpt><trkpt lat="44.66193467479278" lon="10.427682747908372"><ele>125.66666666666666</ele><time>2026-04-11T12:20:00Z</time></trkpt><trkpt lat="44.66175307902344" lon="10.427678799149287"><ele>125.33333333333333</ele><time>2026-04-11T12:20:01Z</time></trkpt><trkpt lat="44.66157194603052" lon="10.427668929636571"><ele>125.0</ele><time>2026-04-11T12:20:02Z</time></trkpt><trkpt lat="44.66138996259321" lon="10.42765759131576"><ele>125.0</ele><time>2026-04-11T12:20:03Z</time></trkpt><trkpt lat="44.661219029062856" lon="10.427656770596988"><ele>125.0</ele><time>2026-04-11T12:20:04Z</time></trkpt><trkpt lat="44.66106326706527" lon="10.427656453157828"><ele>125.0</ele><time>2026-04-11T12:20:05Z</time></trkpt><trkpt lat="44.66091835401141" lon="10.427653053437021"><ele>125.5</ele><time>2026-04-11T12:20:06Z</time></trkpt><trkpt lat="44.66077237551689" lon="10.427645634251633"><ele>126.0</ele><time>2026-04-11T12:20:07Z</time></trkpt><trkpt lat="44.66063848073254" lon="10.427640659518328"><ele>126.5</ele><time>2026-04-11T12:20:08Z</time></trkpt><trkpt lat="44.66052615859652" lon="10.42764059493716"><ele>127.0</ele><time>2026-04-11T12:20:09Z</time></trkpt><trkpt lat="44.66043677162569" lon="10.427643607532332"><ele>127.0</ele><time>2026-04-11T12:20:10Z</time></trkpt><trkpt lat="44.66035746290193" lon="10.427647290603401"><ele>126.99999999999999</ele><time>2026-04-11T12:20:11Z</time></trkpt><trkpt lat="44.66028765554747" lon="10.427645618944117"><ele>126.99999999999999</ele><time>2026-04-11T12:20:12Z</time></trkpt><trkpt lat="44.66022148740458" lon="10.427641702288359"><ele>127.0</ele><time>2026-04-11T12:20:13Z</time></trkpt><trkpt lat="44.66010519820462" lon="10.427616511828155"><ele>127.0</ele><time>2026-04-11T12:20:15Z</time></trkpt><trkpt lat="44.659989898591135" lon="10.427564303231684"><ele>127.33333333333334</ele><time>2026-04-11T12:20:17Z</time></trkpt><trkpt lat="44.6599237581681" lon="10.427535260775747"><ele>127.66666666666667</ele><time>2026-04-11T12:20:18Z</time></trkpt><trkpt lat="44.65985227418252" lon="10.427510297126915"><ele>128.0</ele><time>2026-04-11T12:20:19Z</time></trkpt><trkpt lat="44.65977567446882" lon="10.42748698871766"><ele>128.33333333333334</ele><time>2026-04-11T12:20:20Z</time></trkpt><trkpt lat="44.659694884595915" lon="10.427464695201406"><ele>128.66666666666666</ele><time>2026-04-11T12:20:21Z</time></trkpt><trkpt lat="44.65960941013952" lon="10.427435200620554"><ele>129.0</ele><time>2026-04-11T12:20:22Z</time></trkpt><trkpt lat="44.65951979808917" lon="10.427400718534015"><ele>129.2</ele><time>2026-04-11T12:20:23Z</time></trkpt><trkpt lat="44.659426150852525" lon="10.427365315805286"><ele>129.4</ele><time>2026-04-11T12:20:24Z</time></trkpt><trkpt lat="44.65932764170423" lon="10.427329154740146"><ele>129.6</ele><time>2026-04-11T12:20:25Z</time></trkpt><trkpt lat="44.659237961459056" lon="10.427291898514461"><ele>129.8</ele><time>2026-04-11T12:20:26Z</time></trkpt><trkpt lat="44.65915502815769" lon="10.427259405126193"><ele>130.0</ele><time>2026-04-11T12:20:27Z</time></trkpt><trkpt lat="44.65908360084009" lon="10.427231383503022"><ele>130.0</ele><time>2026-04-11T12:20:28Z</time></trkpt><trkpt lat="44.659020819401036" lon="10.427207923854251"><ele>130.0</ele><time>2026-04-11T12:20:29Z</time></trkpt><trkpt lat="44.65892176636537" lon="10.427145039023644"><ele>130.0</ele><time>2026-04-11T12:20:31Z</time></trkpt><trkpt lat="44.6588462527941" lon="10.427370052392027"><ele>130.0</ele><time>2026-04-11T12:20:35Z</time></trkpt><trkpt lat="44.65886076931079" lon="10.427457450005726"><ele>130.0</ele><time>2026-04-11T12:20:36Z</time></trkpt><trkpt lat="44.658885572918955" lon="10.427552701950724"><ele>130.0</ele><time>2026-04-11T12:20:37Z</time></trkpt><trkpt lat="44.65891298706132" lon="10.42766683302547"><ele>130.0</ele><time>2026-04-11T12:20:38Z</time></trkpt><trkpt lat="44.658940553092535" lon="10.427778040696396"><ele>130.0</ele><time>2026-04-11T12:20:39Z</time></trkpt><trkpt lat="44.658961874217624" lon="10.427881107417127"><ele>130.0</ele><time>2026-04-11T12:20:40Z</time></trkpt><trkpt lat="44.65896545318664" lon="10.427981182252546"><ele>130.0</ele><time>2026-04-11T12:20:41Z</time></trkpt><trkpt lat="44.65895904589974" lon="10.4280749412753"><ele>130.0</ele><time>2026-04-11T12:20:42Z</time></trkpt><trkpt lat="44.65894208843495" lon="10.428232496096975"><ele>130.4</ele><time>2026-04-11T12:20:44Z</time></trkpt><trkpt lat="44.65894758081183" lon="10.42837473623674"><ele>130.8</ele><time>2026-04-11T12:20:46Z</time></trkpt><trkpt lat="44.65896476410613" lon="10.428472280466154"><ele>131.2</ele><time>2026-04-11T12:20:48Z</time></trkpt><trkpt lat="44.65883467647853" lon="10.428581140102628"><ele>131.6</ele><time>2026-04-11T12:20:52Z</time></trkpt><trkpt lat="44.6587711519261" lon="10.42852478767215"><ele>132.0</ele><time>2026-04-11T12:20:53Z</time></trkpt><trkpt lat="44.65869214853845" lon="10.428486321132485"><ele>132.5</ele><time>2026-04-11T12:20:54Z</time></trkpt><trkpt lat="44.658602778985724" lon="10.428439572708676"><ele>133.0</ele><time>2026-04-11T12:20:55Z</time></trkpt><trkpt lat="44.65852835329639" lon="10.428400138001416"><ele>133.5</ele><time>2026-04-11T12:20:56Z</time></trkpt><trkpt lat="44.65846185151686" lon="10.428364901650873"><ele>134.0</ele><time>2026-04-11T12:20:57Z</time></trkpt><trkpt lat="44.65836147564261" lon="10.42830785354612"><ele>134.5</ele><time>2026-04-11T12:20:59Z</time></trkpt><trkpt lat="44.65828917214318" lon="10.42828633201476"><ele>135.0</ele><time>2026-04-11T12:21:02Z</time></trkpt><trkpt lat="44.65822470308691" lon="10.428508969396418"><ele>135.0</ele><time>2026-04-11T12:21:03Z</time></trkpt><trkpt lat="44.658170903869056" lon="10.4286141471435"><ele>135.0</ele><time>2026-04-11T12:21:04Z</time></trkpt><trkpt lat="44.65812842449245" lon="10.42874613063499"><ele>135.0</ele><time>2026-04-11T12:21:05Z</time></trkpt><trkpt lat="44.65810520146704" lon="10.42887085717435"><ele>135.0</ele><time>2026-04-11T12:21:06Z</time></trkpt><trkpt lat="44.65808475113551" lon="10.428969013402588"><ele>135.0</ele><time>2026-04-11T12:21:07Z</time></trkpt><trkpt lat="44.65804362892684" lon="10.429114203716292"><ele>135.0</ele><time>2026-04-11T12:21:08Z</time></trkpt><trkpt lat="44.658010147306875" lon="10.42922690770409"><ele>135.0</ele><time>2026-04-11T12:21:09Z</time></trkpt><trkpt lat="44.65796065077223" lon="10.429328207619106"><ele>135.0</ele><time>2026-04-11T12:21:10Z</time></trkpt><trkpt lat="44.65792273426822" lon="10.429440213366762"><ele>135.0</ele><time>2026-04-11T12:21:11Z</time></trkpt><trkpt lat="44.6578869339351" lon="10.429549814371944"><ele>135.0</ele><time>2026-04-11T12:21:12Z</time></trkpt><trkpt lat="44.6578383851518" lon="10.429672820178252"><ele>135.0</ele><time>2026-04-11T12:21:13Z</time></trkpt><trkpt lat="44.657789473670746" lon="10.429789966261259"><ele>134.8</ele><time>2026-04-11T12:21:14Z</time></trkpt><trkpt lat="44.65772786051268" lon="10.429897968419288"><ele>134.6</ele><time>2026-04-11T12:21:15Z</time></trkpt><trkpt lat="44.65767313934104" lon="10.4300263329075"><ele>134.4</ele><time>2026-04-11T12:21:16Z</time></trkpt><trkpt lat="44.65762202645271" lon="10.430146233366518"><ele>134.2</ele><time>2026-04-11T12:21:17Z</time></trkpt><trkpt lat="44.65758236203167" lon="10.430281147897757"><ele>134.0</ele><time>2026-04-11T12:21:18Z</time></trkpt><trkpt lat="44.65753415859537" lon="10.430398616124677"><ele>134.0</ele><time>2026-04-11T12:21:19Z</time></trkpt><trkpt lat="44.65749837769361" lon="10.430502148451428"><ele>134.0</ele><time>2026-04-11T12:21:20Z</time></trkpt><trkpt lat="44.65746080100037" lon="10.43060123863995"><ele>134.0</ele><time>2026-04-11T12:21:21Z</time></trkpt><trkpt lat="44.65742912312824" lon="10.430695941970622"><ele>134.0</ele><time>2026-04-11T12:21:22Z</time></trkpt><trkpt lat="44.65738871710954" lon="10.430805310307418"><ele>134.0</ele><time>2026-04-11T12:21:23Z</time></trkpt><trkpt lat="44.65734918104713" lon="10.430913892821989"><ele>134.0</ele><time>2026-04-11T12:21:24Z</time></trkpt><trkpt lat="44.657313725368276" lon="10.43104159159321"><ele>134.0</ele><time>2026-04-11T12:21:25Z</time></trkpt><trkpt lat="44.65726921237997" lon="10.4311795779815"><ele>134.0</ele><time>2026-04-11T12:21:26Z</time></trkpt><trkpt lat="44.65720111870623" lon="10.431308386226707"><ele>134.0</ele><time>2026-04-11T12:21:27Z</time></trkpt><trkpt lat="44.657145154616366" lon="10.431452860235629"><ele>134.0</ele><time>2026-04-11T12:21:28Z</time></trkpt><trkpt lat="44.6570759000653" lon="10.431587909028082"><ele>134.0</ele><time>2026-04-11T12:21:29Z</time></trkpt><trkpt lat="44.65694994107396" lon="10.431862841153958"><ele>134.0</ele><time>2026-04-11T12:21:31Z</time></trkpt><trkpt lat="44.65690034121658" lon="10.431985920545749"><ele>134.0</ele><time>2026-04-11T12:21:32Z</time></trkpt><trkpt lat="44.65684359430507" lon="10.432080401491401"><ele>134.0</ele><time>2026-04-11T12:21:33Z</time></trkpt><trkpt lat="44.65680720389773" lon="10.432180687588563"><ele>133.8</ele><time>2026-04-11T12:21:34Z</time></trkpt><trkpt lat="44.65675245522737" lon="10.432253649846498"><ele>133.60000000000002</ele><time>2026-04-11T12:21:35Z</time></trkpt><trkpt lat="44.65667812857187" lon="10.43238985075965"><ele>133.4</ele><time>2026-04-11T12:21:37Z</time></trkpt><trkpt lat="44.65667223550707" lon="10.432494785963485"><ele>133.20000000000002</ele><time>2026-04-11T12:21:38Z</time></trkpt><trkpt lat="44.65664384877218" lon="10.432602651702716"><ele>133.0</ele><time>2026-04-11T12:21:39Z</time></trkpt><trkpt lat="44.6566021496095" lon="10.432727671901816"><ele>133.0</ele><time>2026-04-11T12:21:40Z</time></trkpt><trkpt lat="44.656546975498706" lon="10.432868922099988"><ele>133.0</ele><time>2026-04-11T12:21:41Z</time></trkpt><trkpt lat="44.65648750134994" lon="10.433021488498321"><ele>133.0</ele><time>2026-04-11T12:21:42Z</time></trkpt><trkpt lat="44.65642817752163" lon="10.433180982876566"><ele>133.0</ele><time>2026-04-11T12:21:43Z</time></trkpt><trkpt lat="44.65637347267732" lon="10.433349804781658"><ele>132.5</ele><time>2026-04-11T12:21:44Z</time></trkpt><trkpt lat="44.65631160299757" lon="10.433513693797286"><ele>132.0</ele><time>2026-04-11T12:21:45Z</time></trkpt><trkpt lat="44.65626951882421" lon="10.433686312946728"><ele>131.5</ele><time>2026-04-11T12:21:46Z</time></trkpt><trkpt lat="44.65621184303489" lon="10.433848338531394"><ele>131.0</ele><time>2026-04-11T12:21:47Z</time></trkpt><trkpt lat="44.65617288919907" lon="10.434022071294331"><ele>131.0</ele><time>2026-04-11T12:21:48Z</time></trkpt><trkpt lat="44.65612830495675" lon="10.434197530454197"><ele>131.0</ele><time>2026-04-11T12:21:49Z</time></trkpt><trkpt lat="44.65609534285507" lon="10.434364253688361"><ele>131.0</ele><time>2026-04-11T12:21:50Z</time></trkpt><trkpt lat="44.65606834368582" lon="10.434514827797313"><ele>131.0</ele><time>2026-04-11T12:21:51Z</time></trkpt><trkpt lat="44.65602804906558" lon="10.434646545450125"><ele>131.5</ele><time>2026-04-11T12:21:52Z</time></trkpt><trkpt lat="44.65601094870907" lon="10.434797306829457"><ele>132.0</ele><time>2026-04-11T12:21:53Z</time></trkpt><trkpt lat="44.65597636991574" lon="10.434956112340943"><ele>132.5</ele><time>2026-04-11T12:21:54Z</time></trkpt><trkpt lat="44.65596546100095" lon="10.435126697319093"><ele>133.0</ele><time>2026-04-11T12:21:55Z</time></trkpt><trkpt lat="44.65594520321067" lon="10.435298283871735"><ele>133.0</ele><time>2026-04-11T12:21:56Z</time></trkpt><trkpt lat="44.655916498143704" lon="10.435468939251443"><ele>133.0</ele><time>2026-04-11T12:21:57Z</time></trkpt><trkpt lat="44.65590144298927" lon="10.435621350442434"><ele>133.0</ele><time>2026-04-11T12:21:58Z</time></trkpt><trkpt lat="44.65587879173217" lon="10.435758093847223"><ele>133.0</ele><time>2026-04-11T12:21:59Z</time></trkpt><trkpt lat="44.655856790542764" lon="10.435884635094647"><ele>133.0</ele><time>2026-04-11T12:22:00Z</time></trkpt><trkpt lat="44.65582238823219" lon="10.435995809066933"><ele>132.5</ele><time>2026-04-11T12:22:01Z</time></trkpt><trkpt lat="44.65582349427319" lon="10.436095254824409"><ele>132.0</ele><time>2026-04-11T12:22:02Z</time></trkpt><trkpt lat="44.65581926308843" lon="10.436189724560961"><ele>131.5</ele><time>2026-04-11T12:22:04Z</time></trkpt><trkpt lat="44.65570203145541" lon="10.436212159784056"><ele>131.0</ele><time>2026-04-11T12:22:08Z</time></trkpt><trkpt lat="44.65562560852316" lon="10.436210995957284"><ele>130.5</ele><time>2026-04-11T12:22:09Z</time></trkpt><trkpt lat="44.655529452425206" lon="10.436201428224338"><ele>130.0</ele><time>2026-04-11T12:22:10Z</time></trkpt><trkpt lat="44.655422829678095" lon="10.436184283277067"><ele>130.0</ele><time>2026-04-11T12:22:11Z</time></trkpt><trkpt lat="44.65530078718104" lon="10.436162076851113"><ele>130.0</ele><time>2026-04-11T12:22:12Z</time></trkpt><trkpt lat="44.65517038814153" lon="10.436137533502592"><ele>130.0</ele><time>2026-04-11T12:22:13Z</time></trkpt><trkpt lat="44.65502055308601" lon="10.436108659851373"><ele>130.0</ele><time>2026-04-11T12:22:14Z</time></trkpt><trkpt lat="44.65486663434353" lon="10.436078999183032"><ele>130.66666666666669</ele><time>2026-04-11T12:22:15Z</time></trkpt><trkpt lat="44.65470828849313" lon="10.436048410852301"><ele>131.33333333333334</ele><time>2026-04-11T12:22:16Z</time></trkpt><trkpt lat="44.654546106705084" lon="10.436016562500239"><ele>132.0</ele><time>2026-04-11T12:22:17Z</time></trkpt><trkpt lat="44.654381726456336" lon="10.436003665839975"><ele>132.25</ele><time>2026-04-11T12:22:18Z</time></trkpt><trkpt lat="44.65423567237541" lon="10.43597647635409"><ele>132.5</ele><time>2026-04-11T12:22:19Z</time></trkpt><trkpt lat="44.65410023448326" lon="10.435949402853849"><ele>132.75</ele><time>2026-04-11T12:22:20Z</time></trkpt><trkpt lat="44.65397351071593" lon="10.43592105992118"><ele>133.0</ele><time>2026-04-11T12:22:21Z</time></trkpt><trkpt lat="44.653855366937314" lon="10.435876988830229"><ele>133.0</ele><time>2026-04-11T12:22:22Z</time></trkpt><trkpt lat="44.653732272043285" lon="10.435892826771166"><ele>133.0</ele><time>2026-04-11T12:22:23Z</time></trkpt><trkpt lat="44.65359952083227" lon="10.435913180220888"><ele>133.0</ele><time>2026-04-11T12:22:24Z</time></trkpt><trkpt lat="44.653463386772" lon="10.435943801319711"><ele>133.0</ele><time>2026-04-11T12:22:25Z</time></trkpt><trkpt lat="44.653324784069866" lon="10.435927290444923"><ele>133.0</ele><time>2026-04-11T12:22:26Z</time></trkpt><trkpt lat="44.653190903923516" lon="10.435906314712955"><ele>133.0</ele><time>2026-04-11T12:22:27Z</time></trkpt><trkpt lat="44.65305393906865" lon="10.435891947020549"><ele>133.0</ele><time>2026-04-11T12:22:28Z</time></trkpt><trkpt lat="44.65293018499408" lon="10.435863523180116"><ele>133.0</ele><time>2026-04-11T12:22:29Z</time></trkpt><trkpt lat="44.65281348865121" lon="10.435847443448418"><ele>133.4</ele><time>2026-04-11T12:22:30Z</time></trkpt><trkpt lat="44.6527086054138" lon="10.435810439785449"><ele>133.8</ele><time>2026-04-11T12:22:31Z</time></trkpt><trkpt lat="44.65261919045856" lon="10.435810931127149"><ele>134.2</ele><time>2026-04-11T12:22:32Z</time></trkpt><trkpt lat="44.652556965364795" lon="10.435729741930487"><ele>134.6</ele><time>2026-04-11T12:22:33Z</time></trkpt><trkpt lat="44.652542389487664" lon="10.435603081471697"><ele>135.0</ele><time>2026-04-11T12:22:34.001Z</time></trkpt><trkpt lat="44.65248488037564" lon="10.435478830389055"><ele>135.0</ele><time>2026-04-11T12:22:35.001Z</time></trkpt><trkpt lat="44.65241847995327" lon="10.435353994771772"><ele>135.0</ele><time>2026-04-11T12:22:36.001Z</time></trkpt><trkpt lat="44.65228603319001" lon="10.435322964189147"><ele>135.0</ele><time>2026-04-11T12:22:37.001Z</time></trkpt><trkpt lat="44.65215352567648" lon="10.435241793235857"><ele>135.0</ele><time>2026-04-11T12:22:38.001Z</time></trkpt><trkpt lat="44.652003604082935" lon="10.43517702686352"><ele>135.66666666666666</ele><time>2026-04-11T12:22:39.001Z</time></trkpt><trkpt lat="44.65184361955621" lon="10.435110437540361"><ele>136.33333333333331</ele><time>2026-04-11T12:22:40.001Z</time></trkpt><trkpt lat="44.65168525937815" lon="10.435045909037008"><ele>137.0</ele><time>2026-04-11T12:22:41.001Z</time></trkpt><trkpt lat="44.65154345839307" lon="10.434989930013128"><ele>137.0</ele><time>2026-04-11T12:22:42.001Z</time></trkpt><trkpt lat="44.65141004868027" lon="10.43494144665754"><ele>137.0</ele><time>2026-04-11T12:22:43.001Z</time></trkpt><trkpt lat="44.65128575019418" lon="10.434897489551261"><ele>137.0</ele><time>2026-04-11T12:22:44.001Z</time></trkpt><trkpt lat="44.65116932076208" lon="10.434856315272976"><ele>137.0</ele><time>2026-04-11T12:22:45.001Z</time></trkpt><trkpt lat="44.65105798819556" lon="10.434817514031964"><ele>137.5</ele><time>2026-04-11T12:22:46.001Z</time></trkpt><trkpt lat="44.650946557180816" lon="10.43478327702105"><ele>138.0</ele><time>2026-04-11T12:22:47.001Z</time></trkpt><trkpt lat="44.65082699022614" lon="10.434753120438563"><ele>138.5</ele><time>2026-04-11T12:22:48.001Z</time></trkpt><trkpt lat="44.65069194895838" lon="10.434720653369492"><ele>139.0</ele><time>2026-04-11T12:22:49.001Z</time></trkpt><trkpt lat="44.65054168736903" lon="10.43470715765385"><ele>139.0</ele><time>2026-04-11T12:22:50.001Z</time></trkpt><trkpt lat="44.65037629603167" lon="10.434668377684078"><ele>139.0</ele><time>2026-04-11T12:22:51.001Z</time></trkpt><trkpt lat="44.650200442947025" lon="10.434602484292352"><ele>139.0</ele><time>2026-04-11T12:22:52.001Z</time></trkpt><trkpt lat="44.65001060085099" lon="10.434557414862875"><ele>139.33333333333334</ele><time>2026-04-11T12:22:53.001Z</time></trkpt><trkpt lat="44.649810839351936" lon="10.43450575854616"><ele>139.66666666666666</ele><time>2026-04-11T12:22:54.001Z</time></trkpt><trkpt lat="44.64960535657661" lon="10.434449693998308"><ele>140.0</ele><time>2026-04-11T12:22:55.001Z</time></trkpt><trkpt lat="44.64938357825005" lon="10.434397899070227"><ele>140.0</ele><time>2026-04-11T12:22:56.001Z</time></trkpt><trkpt lat="44.64913246441862" lon="10.434299535153176"><ele>140.0</ele><time>2026-04-11T12:22:57.001Z</time></trkpt><trkpt lat="44.64885679294898" lon="10.434165955039548"><ele>140.0</ele><time>2026-04-11T12:22:58.001Z</time></trkpt><trkpt lat="44.64861620841877" lon="10.434064706741445"><ele>140.0</ele><time>2026-04-11T12:22:59.001Z</time></trkpt><trkpt lat="44.64839839161766" lon="10.433967486799885"><ele>140.0</ele><time>2026-04-11T12:23:00.001Z</time></trkpt><trkpt lat="44.6481839276168" lon="10.433862024319856"><ele>140.0</ele><time>2026-04-11T12:23:01.001Z</time></trkpt><trkpt lat="44.64791823068174" lon="10.433733261393066"><ele>140.66666666666666</ele><time>2026-04-11T12:23:02.001Z</time></trkpt><trkpt lat="44.647692034334554" lon="10.433649057392104"><ele>141.33333333333334</ele><time>2026-04-11T12:23:03.001Z</time></trkpt><trkpt lat="44.64750037378318" lon="10.433534162357319"><ele>142.0</ele><time>2026-04-11T12:23:04.001Z</time></trkpt><trkpt lat="44.64732138115481" lon="10.43345007081607"><ele>142.0</ele><time>2026-04-11T12:23:05.001Z</time></trkpt><trkpt lat="44.647161096521096" lon="10.433380872166023"><ele>142.0</ele><time>2026-04-11T12:23:06.001Z</time></trkpt><trkpt lat="44.647026382403745" lon="10.433323743854244"><ele>142.0</ele><time>2026-04-11T12:23:07.001Z</time></trkpt><trkpt lat="44.64692413083145" lon="10.433282910879118"><ele>142.0</ele><time>2026-04-11T12:23:08.001Z</time></trkpt><trkpt lat="44.64684363501963" lon="10.433236511845903"><ele>142.0</ele><time>2026-04-11T12:23:10Z</time></trkpt><trkpt lat="44.64682807102731" lon="10.433148915183278"><ele>142.0</ele><time>2026-04-11T12:23:12Z</time></trkpt><trkpt lat="44.64675007537871" lon="10.433117512242886"><ele>142.0</ele><time>2026-04-11T12:23:13Z</time></trkpt><trkpt lat="44.646660510595744" lon="10.433058060331316"><ele>142.0</ele><time>2026-04-11T12:23:14Z</time></trkpt><trkpt lat="44.64654293639235" lon="10.43296665743669"><ele>142.0</ele><time>2026-04-11T12:23:15Z</time></trkpt><trkpt lat="44.646409735452835" lon="10.432883061613206"><ele>142.0</ele><time>2026-04-11T12:23:16Z</time></trkpt><trkpt lat="44.64628010633736" lon="10.432802376606737"><ele>142.0</ele><time>2026-04-11T12:23:17Z</time></trkpt><trkpt lat="44.64613768416897" lon="10.432709888945462"><ele>142.0</ele><time>2026-04-11T12:23:18Z</time></trkpt><trkpt lat="44.64598777097689" lon="10.432613414524033"><ele>141.66666666666669</ele><time>2026-04-11T12:23:19Z</time></trkpt><trkpt lat="44.645831160819945" lon="10.432515032247368"><ele>141.33333333333334</ele><time>2026-04-11T12:23:20Z</time></trkpt><trkpt lat="44.64566337446909" lon="10.432437717730846"><ele>141.0</ele><time>2026-04-11T12:23:21Z</time></trkpt><trkpt lat="44.64549661318793" lon="10.432342189086295"><ele>141.0</ele><time>2026-04-11T12:23:22Z</time></trkpt><trkpt lat="44.64532357177152" lon="10.432240241634064"><ele>141.0</ele><time>2026-04-11T12:23:23Z</time></trkpt><trkpt lat="44.645146822778486" lon="10.432120951479401"><ele>141.0</ele><time>2026-04-11T12:23:24Z</time></trkpt><trkpt lat="44.64497130300753" lon="10.43202249568712"><ele>142.0</ele><time>2026-04-11T12:23:25Z</time></trkpt><trkpt lat="44.644819141452295" lon="10.431937011202667"><ele>143.0</ele><time>2026-04-11T12:23:26Z</time></trkpt><trkpt lat="44.644675666520044" lon="10.431850717174788"><ele>144.0</ele><time>2026-04-11T12:23:27Z</time></trkpt><trkpt lat="44.64452652388336" lon="10.431768034089009"><ele>145.33333333333334</ele><time>2026-04-11T12:23:28Z</time></trkpt><trkpt lat="44.64438337480952" lon="10.431687969988609"><ele>146.66666666666669</ele><time>2026-04-11T12:23:29Z</time></trkpt><trkpt lat="44.64423610988341" lon="10.431602858723705"><ele>148.0</ele><time>2026-04-11T12:23:30Z</time></trkpt><trkpt lat="44.64408115872159" lon="10.431523230065713"><ele>148.0</ele><time>2026-04-11T12:23:31Z</time></trkpt><trkpt lat="44.643912349642875" lon="10.43147873897755"><ele>148.0</ele><time>2026-04-11T12:23:32Z</time></trkpt><trkpt lat="44.643745743584496" lon="10.431425965900276"><ele>148.0</ele><time>2026-04-11T12:23:33Z</time></trkpt><trkpt lat="44.64356867209949" lon="10.43136065375171"><ele>148.33333333333334</ele><time>2026-04-11T12:23:34Z</time></trkpt><trkpt lat="44.643388531119676" lon="10.431306055440652"><ele>148.66666666666666</ele><time>2026-04-11T12:23:35Z</time></trkpt><trkpt lat="44.64320511606496" lon="10.431280417672514"><ele>149.0</ele><time>2026-04-11T12:23:36Z</time></trkpt><trkpt lat="44.64301988326184" lon="10.431237205639679"><ele>149.0</ele><time>2026-04-11T12:23:37Z</time></trkpt><trkpt lat="44.64283222950034" lon="10.431178846034872"><ele>149.0</ele><time>2026-04-11T12:23:38Z</time></trkpt><trkpt lat="44.64264289621367" lon="10.431139955729554"><ele>149.0</ele><time>2026-04-11T12:23:39.001Z</time></trkpt><trkpt lat="44.642470125719576" lon="10.431091556315451"><ele>148.66666666666666</ele><time>2026-04-11T12:23:40.001Z</time></trkpt><trkpt lat="44.64231202631305" lon="10.431048306171608"><ele>148.33333333333334</ele><time>2026-04-11T12:23:41.001Z</time></trkpt><trkpt lat="44.642160064183884" lon="10.431025770603165"><ele>148.0</ele><time>2026-04-11T12:23:42.001Z</time></trkpt><trkpt lat="44.64199709141433" lon="10.430985007628385"><ele>148.66666666666669</ele><time>2026-04-11T12:23:43.001Z</time></trkpt><trkpt lat="44.64183759218888" lon="10.430903740058996"><ele>149.33333333333334</ele><time>2026-04-11T12:23:44.001Z</time></trkpt><trkpt lat="44.64166447465695" lon="10.430839251825125"><ele>150.0</ele><time>2026-04-11T12:23:45.001Z</time></trkpt><trkpt lat="44.64149474024086" lon="10.430797719405692"><ele>150.0</ele><time>2026-04-11T12:23:46.001Z</time></trkpt><trkpt lat="44.64134880509526" lon="10.43075038290312"><ele>150.0</ele><time>2026-04-11T12:23:47.001Z</time></trkpt><trkpt lat="44.64122163196026" lon="10.430686576601218"><ele>150.0</ele><time>2026-04-11T12:23:48.001Z</time></trkpt><trkpt lat="44.641119084938985" lon="10.43064792800261"><ele>150.0</ele><time>2026-04-11T12:23:49.001Z</time></trkpt><trkpt lat="44.64104724720141" lon="10.430608835699287"><ele>150.0</ele><time>2026-04-11T12:23:50.001Z</time></trkpt><trkpt lat="44.64100346278592" lon="10.430467693667605"><ele>150.0</ele><time>2026-04-11T12:23:52.001Z</time></trkpt><trkpt lat="44.641007319925556" lon="10.430347610277225"><ele>150.0</ele><time>2026-04-11T12:23:53.001Z</time></trkpt><trkpt lat="44.64098699771224" lon="10.430194520559102"><ele>150.0</ele><time>2026-04-11T12:23:54.001Z</time></trkpt><trkpt lat="44.64095892053286" lon="10.430061971529339"><ele>150.0</ele><time>2026-04-11T12:23:55.001Z</time></trkpt><trkpt lat="44.64090652093068" lon="10.429945584890497"><ele>150.0</ele><time>2026-04-11T12:23:56.001Z</time></trkpt><trkpt lat="44.64082527307459" lon="10.429851424966182"><ele>150.0</ele><time>2026-04-11T12:23:57.001Z</time></trkpt><trkpt lat="44.640734911792585" lon="10.429779445179907"><ele>150.0</ele><time>2026-04-11T12:23:58.001Z</time></trkpt><trkpt lat="44.64062852746354" lon="10.42972433003202"><ele>150.0</ele><time>2026-04-11T12:23:59.001Z</time></trkpt><trkpt lat="44.640505414193946" lon="10.429666005022465"><ele>150.0</ele><time>2026-04-11T12:24:00.001Z</time></trkpt><trkpt lat="44.64038276165931" lon="10.429609717218648"><ele>150.0</ele><time>2026-04-11T12:24:01.001Z</time></trkpt><trkpt lat="44.6402512883589" lon="10.4295510021011"><ele>150.0</ele><time>2026-04-11T12:24:02.001Z</time></trkpt><trkpt lat="44.64010778248682" lon="10.429486044001736"><ele>150.0</ele><time>2026-04-11T12:24:03.001Z</time></trkpt><trkpt lat="44.63996429789162" lon="10.429428600849437"><ele>150.25</ele><time>2026-04-11T12:24:04.001Z</time></trkpt><trkpt lat="44.63982617251684" lon="10.42936132499372"><ele>150.5</ele><time>2026-04-11T12:24:05.001Z</time></trkpt><trkpt lat="44.63969182211955" lon="10.42930326551178"><ele>150.75</ele><time>2026-04-11T12:24:06.001Z</time></trkpt><trkpt lat="44.63957271135199" lon="10.429240574592997"><ele>151.0</ele><time>2026-04-11T12:24:07.001Z</time></trkpt><trkpt lat="44.63945904995894" lon="10.429211947352089"><ele>151.4</ele><time>2026-04-11T12:24:08.001Z</time></trkpt><trkpt lat="44.63936523876078" lon="10.429174085814857"><ele>151.8</ele><time>2026-04-11T12:24:09.001Z</time></trkpt><trkpt lat="44.63929055276647" lon="10.429136364802833"><ele>152.20000000000002</ele><time>2026-04-11T12:24:10.001Z</time></trkpt><trkpt lat="44.6392041433929" lon="10.429096583562167"><ele>152.6</ele><time>2026-04-11T12:24:12.001Z</time></trkpt><trkpt lat="44.63911565907413" lon="10.429226654904454"><ele>153.0</ele><time>2026-04-11T12:24:23Z</time></trkpt><trkpt lat="44.63912804117434" lon="10.429420346710947"><ele>153.0</ele><time>2026-04-11T12:24:25Z</time></trkpt><trkpt lat="44.639125257831545" lon="10.429525939796562"><ele>153.0</ele><time>2026-04-11T12:24:26Z</time></trkpt><trkpt lat="44.639119393683835" lon="10.42964581166903"><ele>153.0</ele><time>2026-04-11T12:24:27Z</time></trkpt><trkpt lat="44.63911072094992" lon="10.429776009991556"><ele>153.0</ele><time>2026-04-11T12:24:28Z</time></trkpt><trkpt lat="44.6391026394153" lon="10.429911211888204"><ele>153.0</ele><time>2026-04-11T12:24:29Z</time></trkpt><trkpt lat="44.63908898215862" lon="10.430046500574308"><ele>153.0</ele><time>2026-04-11T12:24:30Z</time></trkpt><trkpt lat="44.639059645128526" lon="10.430187261024106"><ele>153.0</ele><time>2026-04-11T12:24:31Z</time></trkpt><trkpt lat="44.639022689013025" lon="10.430335822062547"><ele>153.0</ele><time>2026-04-11T12:24:32Z</time></trkpt><trkpt lat="44.638986356579366" lon="10.43049136568973"><ele>153.0</ele><time>2026-04-11T12:24:33Z</time></trkpt><trkpt lat="44.63894784259785" lon="10.430649701946566"><ele>153.0</ele><time>2026-04-11T12:24:34Z</time></trkpt><trkpt lat="44.638906984956435" lon="10.43081350728074"><ele>153.0</ele><time>2026-04-11T12:24:35Z</time></trkpt><trkpt lat="44.63886456093127" lon="10.43097927941275"><ele>153.0</ele><time>2026-04-11T12:24:36Z</time></trkpt><trkpt lat="44.63881892357921" lon="10.43114522722853"><ele>153.0</ele><time>2026-04-11T12:24:37Z</time></trkpt><trkpt lat="44.63877123730636" lon="10.431315169803044"><ele>153.0</ele><time>2026-04-11T12:24:38Z</time></trkpt><trkpt lat="44.63872330283535" lon="10.431483161374384"><ele>153.75</ele><time>2026-04-11T12:24:39Z</time></trkpt><trkpt lat="44.63867634134783" lon="10.431652597274692"><ele>154.5</ele><time>2026-04-11T12:24:40Z</time></trkpt><trkpt lat="44.63862982701752" lon="10.431824367379605"><ele>155.25</ele><time>2026-04-11T12:24:41Z</time></trkpt><trkpt lat="44.6385808548372" lon="10.431996329764393"><ele>156.0</ele><time>2026-04-11T12:24:42Z</time></trkpt><trkpt lat="44.63852539309488" lon="10.432164134986639"><ele>156.0</ele><time>2026-04-11T12:24:43Z</time></trkpt><trkpt lat="44.638452670842625" lon="10.432304365899325"><ele>156.0</ele><time>2026-04-11T12:24:44Z</time></trkpt><trkpt lat="44.638398737816196" lon="10.432440482906214"><ele>156.0</ele><time>2026-04-11T12:24:45Z</time></trkpt><trkpt lat="44.638361391833214" lon="10.432573685311027"><ele>156.0</ele><time>2026-04-11T12:24:46Z</time></trkpt><trkpt lat="44.63831952584988" lon="10.432675793095123"><ele>156.0</ele><time>2026-04-11T12:24:47Z</time></trkpt><trkpt lat="44.63826258243721" lon="10.4327854207559"><ele>156.0</ele><time>2026-04-11T12:24:49Z</time></trkpt><trkpt lat="44.638182346472526" lon="10.432739315141898"><ele>156.0</ele><time>2026-04-11T12:24:50Z</time></trkpt><trkpt lat="44.63810465972805" lon="10.432751411143366"><ele>156.0</ele><time>2026-04-11T12:24:51Z</time></trkpt><trkpt lat="44.63802061501462" lon="10.43273438860924"><ele>156.0</ele><time>2026-04-11T12:24:52Z</time></trkpt><trkpt lat="44.637921791850125" lon="10.432728421698421"><ele>156.0</ele><time>2026-04-11T12:24:53Z</time></trkpt><trkpt lat="44.637811006820534" lon="10.432723662518105"><ele>156.25</ele><time>2026-04-11T12:24:54Z</time></trkpt><trkpt lat="44.63769381541748" lon="10.432707801183243"><ele>156.5</ele><time>2026-04-11T12:24:55Z</time></trkpt><trkpt lat="44.63756514149015" lon="10.432681983157815"><ele>156.75</ele><time>2026-04-11T12:24:56Z</time></trkpt><trkpt lat="44.63743040813016" lon="10.432659314588475"><ele>157.0</ele><time>2026-04-11T12:24:57Z</time></trkpt><trkpt lat="44.63729031852489" lon="10.432626362508433"><ele>157.0</ele><time>2026-04-11T12:24:58Z</time></trkpt><trkpt lat="44.63714566889852" lon="10.43259626243129"><ele>157.0</ele><time>2026-04-11T12:24:59Z</time></trkpt><trkpt lat="44.637000991320534" lon="10.43253747684424"><ele>157.0</ele><time>2026-04-11T12:25:00Z</time></trkpt><trkpt lat="44.6368541804293" lon="10.432492809862635"><ele>157.0</ele><time>2026-04-11T12:25:01Z</time></trkpt><trkpt lat="44.63670240586612" lon="10.432445130146354"><ele>157.66666666666669</ele><time>2026-04-11T12:25:02Z</time></trkpt><trkpt lat="44.63654321360256" lon="10.432413897457943"><ele>158.33333333333334</ele><time>2026-04-11T12:25:03Z</time></trkpt><trkpt lat="44.636388860000764" lon="10.432359069280155"><ele>159.0</ele><time>2026-04-11T12:25:04Z</time></trkpt><trkpt lat="44.63623974287891" lon="10.432304313279758"><ele>159.0</ele><time>2026-04-11T12:25:05Z</time></trkpt><trkpt lat="44.636094410732646" lon="10.43224808859992"><ele>159.0</ele><time>2026-04-11T12:25:06Z</time></trkpt><trkpt lat="44.635956726522465" lon="10.432197624842784"><ele>159.0</ele><time>2026-04-11T12:25:07Z</time></trkpt><trkpt lat="44.635831145541836" lon="10.432128706142917"><ele>159.0</ele><time>2026-04-11T12:25:08Z</time></trkpt><trkpt lat="44.635711598140425" lon="10.432083217903468"><ele>159.0</ele><time>2026-04-11T12:25:09Z</time></trkpt><trkpt lat="44.63560085985342" lon="10.432044135607695"><ele>159.0</ele><time>2026-04-11T12:25:10Z</time></trkpt><trkpt lat="44.63548863101102" lon="10.432033658561624"><ele>159.0</ele><time>2026-04-11T12:25:11Z</time></trkpt><trkpt lat="44.6353851284056" lon="10.432003485663271"><ele>159.0</ele><time>2026-04-11T12:25:12Z</time></trkpt><trkpt lat="44.63528950350561" lon="10.431977872265312"><ele>159.0</ele><time>2026-04-11T12:25:13Z</time></trkpt><trkpt lat="44.635202844559416" lon="10.431955328462006"><ele>159.16666666666666</ele><time>2026-04-11T12:25:14Z</time></trkpt><trkpt lat="44.63513871411309" lon="10.43190451017476"><ele>159.33333333333334</ele><time>2026-04-11T12:25:15Z</time></trkpt><trkpt lat="44.63508158265232" lon="10.431862676680268"><ele>159.5</ele><time>2026-04-11T12:25:16Z</time></trkpt><trkpt lat="44.635029408610656" lon="10.431736540272055"><ele>159.66666666666669</ele><time>2026-04-11T12:25:18Z</time></trkpt><trkpt lat="44.634984317859754" lon="10.431656267975164"><ele>159.83333333333334</ele><time>2026-04-11T12:25:21Z</time></trkpt><trkpt lat="44.63504870034936" lon="10.431578581615646"><ele>160.0</ele><time>2026-04-11T12:25:27Z</time></trkpt><trkpt lat="44.63508139975197" lon="10.431476006844091"><ele>160.0</ele><time>2026-04-11T12:25:29Z</time></trkpt><trkpt lat="44.63513310895814" lon="10.431412641491445"><ele>160.0</ele><time>2026-04-11T12:25:58Z</time></trkpt><trkpt lat="44.635017026828095" lon="10.43150790630992"><ele>160.0</ele><time>2026-04-11T12:26:12Z</time></trkpt><trkpt lat="44.63496809075779" lon="10.431588771457587"><ele>160.0</ele><time>2026-04-11T12:26:13Z</time></trkpt><trkpt lat="44.634908341390016" lon="10.431670783222529"><ele>160.0</ele><time>2026-04-11T12:26:14Z</time></trkpt><trkpt lat="44.63483602880397" lon="10.431755721484006"><ele>160.0</ele><time>2026-04-11T12:26:15Z</time></trkpt><trkpt lat="44.6347619421492" lon="10.431835712064917"><ele>160.0</ele><time>2026-04-11T12:26:16Z</time></trkpt><trkpt lat="44.634686183990944" lon="10.431922878077003"><ele>160.0</ele><time>2026-04-11T12:26:17Z</time></trkpt><trkpt lat="44.634604252512936" lon="10.432015429257312"><ele>160.0</ele><time>2026-04-11T12:26:18Z</time></trkpt><trkpt lat="44.63452001678934" lon="10.432112299999662"><ele>160.0</ele><time>2026-04-11T12:26:19Z</time></trkpt><trkpt lat="44.63442762444621" lon="10.432213643717862"><ele>160.5</ele><time>2026-04-11T12:26:20Z</time></trkpt><trkpt lat="44.63433164147817" lon="10.43232344972064"><ele>161.0</ele><time>2026-04-11T12:26:21Z</time></trkpt><trkpt lat="44.63423223698166" lon="10.432440236377811"><ele>161.5</ele><time>2026-04-11T12:26:22Z</time></trkpt><trkpt lat="44.6341307613787" lon="10.432552709597092"><ele>162.0</ele><time>2026-04-11T12:26:23Z</time></trkpt><trkpt lat="44.634025208812375" lon="10.432667088069191"><ele>162.0</ele><time>2026-04-11T12:26:24Z</time></trkpt><trkpt lat="44.63392145785114" lon="10.432783081881118"><ele>162.0</ele><time>2026-04-11T12:26:25Z</time></trkpt><trkpt lat="44.6338209517382" lon="10.432896228980105"><ele>162.0</ele><time>2026-04-11T12:26:26.001Z</time></trkpt><trkpt lat="44.63371201632581" lon="10.433018066674807"><ele>162.0</ele><time>2026-04-11T12:26:27.001Z</time></trkpt><trkpt lat="44.63359989277532" lon="10.433138108911734"><ele>163.25</ele><time>2026-04-11T12:26:28.001Z</time></trkpt><trkpt lat="44.63348412742301" lon="10.433259193891802"><ele>164.5</ele><time>2026-04-11T12:26:29.001Z</time></trkpt><trkpt lat="44.63337050642038" lon="10.433378378591456"><ele>165.75</ele><time>2026-04-11T12:26:30.001Z</time></trkpt><trkpt lat="44.63327289555803" lon="10.433474103532557"><ele>167.0</ele><time>2026-04-11T12:26:31.001Z</time></trkpt><trkpt lat="44.633200534813895" lon="10.433529568081319"><ele>167.0</ele><time>2026-04-11T12:26:32.001Z</time></trkpt><trkpt lat="44.63313634456323" lon="10.433531280996537"><ele>167.0</ele><time>2026-04-11T12:26:33.001Z</time></trkpt><trkpt lat="44.63300909135999" lon="10.433479034987645"><ele>167.0</ele><time>2026-04-11T12:26:35.001Z</time></trkpt><trkpt lat="44.632939335578236" lon="10.433369108377255"><ele>167.0</ele><time>2026-04-11T12:26:36.001Z</time></trkpt><trkpt lat="44.63286630612524" lon="10.433289084010944"><ele>167.0</ele><time>2026-04-11T12:26:37.001Z</time></trkpt><trkpt lat="44.632782510078826" lon="10.43320057203521"><ele>167.25</ele><time>2026-04-11T12:26:38.001Z</time></trkpt><trkpt lat="44.63269193213842" lon="10.433108006087382"><ele>167.5</ele><time>2026-04-11T12:26:39.001Z</time></trkpt><trkpt lat="44.63259598666275" lon="10.433011683235929"><ele>167.75</ele><time>2026-04-11T12:26:40.001Z</time></trkpt><trkpt lat="44.632496782573114" lon="10.432906615665924"><ele>168.0</ele><time>2026-04-11T12:26:41.001Z</time></trkpt><trkpt lat="44.63239501668586" lon="10.43279514752878"><ele>168.0</ele><time>2026-04-11T12:26:42.001Z</time></trkpt><trkpt lat="44.63228937336122" lon="10.43268290832673"><ele>168.0</ele><time>2026-04-11T12:26:43.001Z</time></trkpt><trkpt lat="44.63218750533666" lon="10.432572298931534"><ele>168.0</ele><time>2026-04-11T12:26:44.001Z</time></trkpt><trkpt lat="44.632085386393754" lon="10.432467275601253"><ele>168.0</ele><time>2026-04-11T12:26:45.001Z</time></trkpt><trkpt lat="44.63198013770898" lon="10.43236112904947"><ele>168.25</ele><time>2026-04-11T12:26:46.001Z</time></trkpt><trkpt lat="44.6318699722681" lon="10.432248893319189"><ele>168.5</ele><time>2026-04-11T12:26:47.001Z</time></trkpt><trkpt lat="44.631760462678066" lon="10.43213423574399"><ele>168.75</ele><time>2026-04-11T12:26:48.001Z</time></trkpt><trkpt lat="44.63165318671398" lon="10.432015110157334"><ele>169.0</ele><time>2026-04-11T12:26:49.001Z</time></trkpt><trkpt lat="44.63154590996712" lon="10.431894715266539"><ele>168.75</ele><time>2026-04-11T12:26:50.001Z</time></trkpt><trkpt lat="44.63143585438124" lon="10.431785226118187"><ele>168.5</ele><time>2026-04-11T12:26:51.001Z</time></trkpt><trkpt lat="44.63132947080405" lon="10.431685455878428"><ele>168.25</ele><time>2026-04-11T12:26:52.001Z</time></trkpt><trkpt lat="44.63123961961945" lon="10.431569139962637"><ele>168.0</ele><time>2026-04-11T12:26:53.001Z</time></trkpt><trkpt lat="44.631138364904714" lon="10.431482981387628"><ele>168.0</ele><time>2026-04-11T12:26:54.001Z</time></trkpt><trkpt lat="44.631032720925504" lon="10.431370227660777"><ele>168.0</ele><time>2026-04-11T12:26:55.001Z</time></trkpt><trkpt lat="44.63092146841696" lon="10.431251691537856"><ele>168.0</ele><time>2026-04-11T12:26:56.001Z</time></trkpt><trkpt lat="44.63080827620761" lon="10.431135571845209"><ele>168.0</ele><time>2026-04-11T12:26:57.001Z</time></trkpt><trkpt lat="44.630699480280484" lon="10.431018490188178"><ele>167.75</ele><time>2026-04-11T12:26:58.001Z</time></trkpt><trkpt lat="44.630596414988815" lon="10.430898958639288"><ele>167.5</ele><time>2026-04-11T12:26:59.001Z</time></trkpt><trkpt lat="44.63050004144441" lon="10.430785888077267"><ele>167.25</ele><time>2026-04-11T12:27:00.001Z</time></trkpt><trkpt lat="44.63040199312717" lon="10.430675704375078"><ele>167.0</ele><time>2026-04-11T12:27:01.001Z</time></trkpt><trkpt lat="44.6303104697739" lon="10.43057769486729"><ele>167.0</ele><time>2026-04-11T12:27:02.001Z</time></trkpt><trkpt lat="44.630224433630886" lon="10.430484342387707"><ele>167.0</ele><time>2026-04-11T12:27:03.001Z</time></trkpt><trkpt lat="44.63014672178904" lon="10.430397336611339"><ele>167.0</ele><time>2026-04-11T12:27:04.001Z</time></trkpt><trkpt lat="44.63008011162911" lon="10.430325996258528"><ele>167.0</ele><time>2026-04-11T12:27:05.001Z</time></trkpt><trkpt lat="44.63001140156545" lon="10.430254865492376"><ele>167.0</ele><time>2026-04-11T12:27:07.001Z</time></trkpt><trkpt lat="44.62995392242269" lon="10.430199539349408"><ele>167.0</ele><time>2026-04-11T12:27:12.001Z</time></trkpt><trkpt lat="44.62992176986659" lon="10.430109477306154"><ele>167.0</ele><time>2026-04-11T12:27:16.001Z</time></trkpt><trkpt lat="44.6298595689696" lon="10.430038824076172"><ele>167.0</ele><time>2026-04-11T12:27:19.001Z</time></trkpt><trkpt lat="44.62989647304089" lon="10.429877784338917"><ele>167.0</ele><time>2026-04-11T12:27:20.001Z</time></trkpt><trkpt lat="44.629902783735" lon="10.429789437689958"><ele>167.0</ele><time>2026-04-11T12:27:21.001Z</time></trkpt><trkpt lat="44.62989474269814" lon="10.429699900865646"><ele>167.0</ele><time>2026-04-11T12:27:22Z</time></trkpt><trkpt lat="44.629881199262535" lon="10.429549096456968"><ele>167.0</ele><time>2026-04-11T12:27:24Z</time></trkpt><trkpt lat="44.629740232656765" lon="10.429490792070768"><ele>166.8</ele><time>2026-04-11T12:27:26Z</time></trkpt><trkpt lat="44.629679020961056" lon="10.42946203711522"><ele>166.6</ele><time>2026-04-11T12:27:27Z</time></trkpt><trkpt lat="44.62956594566552" lon="10.429379642038532"><ele>166.4</ele><time>2026-04-11T12:27:29Z</time></trkpt><trkpt lat="44.62949134388177" lon="10.429323726731422"><ele>166.20000000000002</ele><time>2026-04-11T12:27:30Z</time></trkpt><trkpt lat="44.62940540540392" lon="10.429260956247237"><ele>166.0</ele><time>2026-04-11T12:27:31Z</time></trkpt><trkpt lat="44.62932181871724" lon="10.429204066407868"><ele>166.8</ele><time>2026-04-11T12:27:32Z</time></trkpt><trkpt lat="44.629243416959625" lon="10.429150573842934"><ele>167.60000000000002</ele><time>2026-04-11T12:27:33Z</time></trkpt><trkpt lat="44.629169315997686" lon="10.429070529342807"><ele>168.4</ele><time>2026-04-11T12:27:34Z</time></trkpt><trkpt lat="44.62907742121526" lon="10.429002646230376"><ele>169.2</ele><time>2026-04-11T12:27:35Z</time></trkpt><trkpt lat="44.6289744691314" lon="10.428931936136774"><ele>170.0</ele><time>2026-04-11T12:27:36Z</time></trkpt><trkpt lat="44.62886785756487" lon="10.428859873993513"><ele>169.75</ele><time>2026-04-11T12:27:37Z</time></trkpt><trkpt lat="44.628758114587555" lon="10.428785695263427"><ele>169.5</ele><time>2026-04-11T12:27:38Z</time></trkpt><trkpt lat="44.62863836860166" lon="10.428728940851554"><ele>169.25</ele><time>2026-04-11T12:27:39Z</time></trkpt><trkpt lat="44.62853079310764" lon="10.428627357214076"><ele>169.0</ele><time>2026-04-11T12:27:40Z</time></trkpt><trkpt lat="44.628405640146845" lon="10.428563339354026"><ele>169.5</ele><time>2026-04-11T12:27:41Z</time></trkpt><trkpt lat="44.62828753728911" lon="10.428475364176844"><ele>170.0</ele><time>2026-04-11T12:27:42Z</time></trkpt><trkpt lat="44.628168566224254" lon="10.428389628508128"><ele>170.5</ele><time>2026-04-11T12:27:43Z</time></trkpt><trkpt lat="44.62805023243802" lon="10.428306327623082"><ele>171.0</ele><time>2026-04-11T12:27:44Z</time></trkpt><trkpt lat="44.62793931952301" lon="10.428227790322813"><ele>171.0</ele><time>2026-04-11T12:27:45Z</time></trkpt><trkpt lat="44.62783609499384" lon="10.428164860341322"><ele>171.0</ele><time>2026-04-11T12:27:46Z</time></trkpt><trkpt lat="44.627720658646034" lon="10.428121967908956"><ele>171.0</ele><time>2026-04-11T12:27:47Z</time></trkpt><trkpt lat="44.627590897948316" lon="10.428066428151924"><ele>171.0</ele><time>2026-04-11T12:27:48Z</time></trkpt><trkpt lat="44.62744453435185" lon="10.42803476962955"><ele>172.0</ele><time>2026-04-11T12:27:49Z</time></trkpt><trkpt lat="44.627294485257174" lon="10.428000580217981"><ele>173.0</ele><time>2026-04-11T12:27:50Z</time></trkpt><trkpt lat="44.62713529864557" lon="10.427964438502872"><ele>174.0</ele><time>2026-04-11T12:27:51Z</time></trkpt><trkpt lat="44.62698945778173" lon="10.42793381079292"><ele>174.0</ele><time>2026-04-11T12:27:52Z</time></trkpt><trkpt lat="44.62685929673941" lon="10.427906475908571"><ele>174.0</ele><time>2026-04-11T12:27:53.001Z</time></trkpt><trkpt lat="44.626743082059214" lon="10.427882071755267"><ele>174.0</ele><time>2026-04-11T12:27:54.001Z</time></trkpt><trkpt lat="44.62664126122859" lon="10.427860688562847"><ele>174.0</ele><time>2026-04-11T12:27:55.001Z</time></trkpt><trkpt lat="44.62653838161912" lon="10.427860536673862"><ele>174.0</ele><time>2026-04-11T12:27:56.001Z</time></trkpt><trkpt lat="44.62643463617407" lon="10.427828479066015"><ele>174.0</ele><time>2026-04-11T12:27:57.001Z</time></trkpt><trkpt lat="44.626317837615886" lon="10.427799851705407"><ele>174.0</ele><time>2026-04-11T12:27:58.001Z</time></trkpt><trkpt lat="44.62619204659726" lon="10.42777358667802"><ele>174.0</ele><time>2026-04-11T12:27:59.001Z</time></trkpt><trkpt lat="44.62606989142218" lon="10.427747979005922"><ele>174.6</ele><time>2026-04-11T12:28:00.001Z</time></trkpt><trkpt lat="44.6259658757255" lon="10.427700221970996"><ele>175.2</ele><time>2026-04-11T12:28:01.001Z</time></trkpt><trkpt lat="44.62586730735367" lon="10.427680314038803"><ele>175.79999999999998</ele><time>2026-04-11T12:28:02.001Z</time></trkpt><trkpt lat="44.62577594963732" lon="10.427669781915135"><ele>176.39999999999998</ele><time>2026-04-11T12:28:03.001Z</time></trkpt><trkpt lat="44.62570540438125" lon="10.427598223297995"><ele>177.0</ele><time>2026-04-11T12:28:04.001Z</time></trkpt><trkpt lat="44.62565163132327" lon="10.42749383187145"><ele>177.0</ele><time>2026-04-11T12:28:05.001Z</time></trkpt><trkpt lat="44.62559754827145" lon="10.427376865768808"><ele>177.0</ele><time>2026-04-11T12:28:06.001Z</time></trkpt><trkpt lat="44.62554190640232" lon="10.427261855303223"><ele>177.0</ele><time>2026-04-11T12:28:07.001Z</time></trkpt><trkpt lat="44.62547965815692" lon="10.427174874676261"><ele>177.0</ele><time>2026-04-11T12:28:08.001Z</time></trkpt><trkpt lat="44.62541353804272" lon="10.427139828185574"><ele>177.0</ele><time>2026-04-11T12:28:09.001Z</time></trkpt><trkpt lat="44.625335471297554" lon="10.42713596901357"><ele>177.0</ele><time>2026-04-11T12:28:11.001Z</time></trkpt><trkpt lat="44.62526112683745" lon="10.427365521972048"><ele>177.75</ele><time>2026-04-11T12:28:15.001Z</time></trkpt><trkpt lat="44.6252477009917" lon="10.42750644551479"><ele>178.5</ele><time>2026-04-11T12:28:16.001Z</time></trkpt><trkpt lat="44.62523036258259" lon="10.427665591028964"><ele>179.25</ele><time>2026-04-11T12:28:17.001Z</time></trkpt><trkpt lat="44.6252103980474" lon="10.4278527332815"><ele>180.0</ele><time>2026-04-11T12:28:18.001Z</time></trkpt><trkpt lat="44.62519306950853" lon="10.42803749320033"><ele>180.25</ele><time>2026-04-11T12:28:19.001Z</time></trkpt><trkpt lat="44.62517490776723" lon="10.428224905659103"><ele>180.5</ele><time>2026-04-11T12:28:20.001Z</time></trkpt><trkpt lat="44.62515685424421" lon="10.428395323146907"><ele>180.75</ele><time>2026-04-11T12:28:21.001Z</time></trkpt><trkpt lat="44.62513532734572" lon="10.428577279037494"><ele>181.0</ele><time>2026-04-11T12:28:22.001Z</time></trkpt><trkpt lat="44.62511670030755" lon="10.428761262149195"><ele>181.5</ele><time>2026-04-11T12:28:23.001Z</time></trkpt><trkpt lat="44.625097077741046" lon="10.42893871341943"><ele>182.0</ele><time>2026-04-11T12:28:24.001Z</time></trkpt><trkpt lat="44.625077712935514" lon="10.429110801167974"><ele>182.5</ele><time>2026-04-11T12:28:25.001Z</time></trkpt><trkpt lat="44.625062168938406" lon="10.429274536190832"><ele>183.0</ele><time>2026-04-11T12:28:26.001Z</time></trkpt><trkpt lat="44.62504664832041" lon="10.42942223754115"><ele>183.0</ele><time>2026-04-11T12:28:27.001Z</time></trkpt><trkpt lat="44.62503143801987" lon="10.429545933236762"><ele>183.0</ele><time>2026-04-11T12:28:28.001Z</time></trkpt><trkpt lat="44.62500546009639" lon="10.429666903034757"><ele>183.0</ele><time>2026-04-11T12:28:30.001Z</time></trkpt><trkpt lat="44.6249816944882" lon="10.429760112591362"><ele>183.0</ele><time>2026-04-11T12:28:34.001Z</time></trkpt><trkpt lat="44.625020375552204" lon="10.42966914770544"><ele>183.0</ele><time>2026-04-11T12:28:39.001Z</time></trkpt><trkpt lat="44.62497917224334" lon="10.429579845494459"><ele>183.0</ele><time>2026-04-11T12:28:41.001Z</time></trkpt><trkpt lat="44.62475442748108" lon="10.429432554402238"><ele>183.0</ele><time>2026-04-11T12:28:43Z</time></trkpt><trkpt lat="44.6246884483447" lon="10.429384134237669"><ele>183.0</ele><time>2026-04-11T12:28:44Z</time></trkpt><trkpt lat="44.62462840629359" lon="10.429335161507382"><ele>183.0</ele><time>2026-04-11T12:28:45Z</time></trkpt><trkpt lat="44.62457142048341" lon="10.429290846689673"><ele>183.0</ele><time>2026-04-11T12:28:46Z</time></trkpt><trkpt lat="44.6245086121734" lon="10.429242593221913"><ele>183.0</ele><time>2026-04-11T12:28:47Z</time></trkpt><trkpt lat="44.624444404392186" lon="10.429210645174175"><ele>183.0</ele><time>2026-04-11T12:28:48Z</time></trkpt><trkpt lat="44.62431447283454" lon="10.429208819014509"><ele>183.60000000000002</ele><time>2026-04-11T12:28:50Z</time></trkpt><trkpt lat="44.62423679243363" lon="10.429241977075128"><ele>184.20000000000002</ele><time>2026-04-11T12:28:51Z</time></trkpt><trkpt lat="44.62414483298072" lon="10.429281199671383"><ele>184.8</ele><time>2026-04-11T12:28:52Z</time></trkpt><trkpt lat="44.62404107566438" lon="10.429312824990285"><ele>185.4</ele><time>2026-04-11T12:28:53Z</time></trkpt><trkpt lat="44.62393099035" lon="10.429341113285622"><ele>186.0</ele><time>2026-04-11T12:28:54Z</time></trkpt><trkpt lat="44.62381228397062" lon="10.429365594281112"><ele>186.0</ele><time>2026-04-11T12:28:55Z</time></trkpt><trkpt lat="44.6236902190147" lon="10.429382674113603"><ele>186.0</ele><time>2026-04-11T12:28:56Z</time></trkpt><trkpt lat="44.623580660936156" lon="10.429396188512325"><ele>186.0</ele><time>2026-04-11T12:28:57Z</time></trkpt><trkpt lat="44.62348485481096" lon="10.429407906323789"><ele>186.0</ele><time>2026-04-11T12:28:58Z</time></trkpt><trkpt lat="44.623382676621645" lon="10.429402007753252"><ele>186.0</ele><time>2026-04-11T12:28:59Z</time></trkpt><trkpt lat="44.62327874493676" lon="10.429373807998617"><ele>186.20000000000002</ele><time>2026-04-11T12:29:00Z</time></trkpt><trkpt lat="44.62317483822435" lon="10.429338972538169"><ele>186.4</ele><time>2026-04-11T12:29:01Z</time></trkpt><trkpt lat="44.62307772721662" lon="10.429314927890395"><ele>186.6</ele><time>2026-04-11T12:29:02Z</time></trkpt><trkpt lat="44.62298220505485" lon="10.429309880780307"><ele>186.8</ele><time>2026-04-11T12:29:03Z</time></trkpt><trkpt lat="44.62289649477437" lon="10.429307563182345"><ele>187.0</ele><time>2026-04-11T12:29:04Z</time></trkpt><trkpt lat="44.62282173120249" lon="10.429302345417401"><ele>188.0</ele><time>2026-04-11T12:29:05Z</time></trkpt><trkpt lat="44.622756062871616" lon="10.429295433051564"><ele>189.0</ele><time>2026-04-11T12:29:06Z</time></trkpt><trkpt lat="44.62263844046465" lon="10.429298103682099"><ele>190.0</ele><time>2026-04-11T12:29:08Z</time></trkpt><trkpt lat="44.622561381730264" lon="10.429403568344203"><ele>191.0</ele><time>2026-04-11T12:29:10Z</time></trkpt><trkpt lat="44.62247627282205" lon="10.429495685793981"><ele>192.0</ele><time>2026-04-11T12:29:12Z</time></trkpt><trkpt lat="44.6223628126992" lon="10.429459057480909"><ele>192.0</ele><time>2026-04-11T12:29:14Z</time></trkpt><trkpt lat="44.62225081030912" lon="10.429443692571393"><ele>192.0</ele><time>2026-04-11T12:29:16Z</time></trkpt><trkpt lat="44.62214587055705" lon="10.429413011508627"><ele>192.0</ele><time>2026-04-11T12:29:18Z</time></trkpt><trkpt lat="44.62207762574449" lon="10.429405987945053"><ele>192.0</ele><time>2026-04-11T12:29:19Z</time></trkpt><trkpt lat="44.622009534970736" lon="10.429403712455514"><ele>192.0</ele><time>2026-04-11T12:29:20Z</time></trkpt><trkpt lat="44.621936539726654" lon="10.429386018636748"><ele>192.0</ele><time>2026-04-11T12:29:21Z</time></trkpt><trkpt lat="44.621861409493675" lon="10.429413873054314"><ele>192.5</ele><time>2026-04-11T12:29:22Z</time></trkpt><trkpt lat="44.621781982625144" lon="10.42942452095432"><ele>193.0</ele><time>2026-04-11T12:29:23Z</time></trkpt><trkpt lat="44.6216951989059" lon="10.429440918526401"><ele>193.5</ele><time>2026-04-11T12:29:24Z</time></trkpt><trkpt lat="44.62162019913393" lon="10.429432472297563"><ele>194.0</ele><time>2026-04-11T12:29:25Z</time></trkpt><trkpt lat="44.62151935624507" lon="10.429451649269614"><ele>194.5</ele><time>2026-04-11T12:29:27Z</time></trkpt><trkpt lat="44.62145503111482" lon="10.429434610601229"><ele>195.0</ele><time>2026-04-11T12:29:30Z</time></trkpt><trkpt lat="44.62143086889852" lon="10.429299387374247"><ele>195.0</ele><time>2026-04-11T12:29:31Z</time></trkpt><trkpt lat="44.621392180652734" lon="10.429131134829795"><ele>195.0</ele><time>2026-04-11T12:29:33Z</time></trkpt><trkpt lat="44.62138949683333" lon="10.429036384049935"><ele>195.0</ele><time>2026-04-11T12:29:34Z</time></trkpt><trkpt lat="44.621419491371846" lon="10.428950264594608"><ele>195.0</ele><time>2026-04-11T12:29:35Z</time></trkpt><trkpt lat="44.621464881196964" lon="10.428873271076034"><ele>195.0</ele><time>2026-04-11T12:29:36Z</time></trkpt><trkpt lat="44.62154860928896" lon="10.428784195614485"><ele>195.0</ele><time>2026-04-11T12:29:38Z</time></trkpt><trkpt lat="44.62160333452401" lon="10.428692419072199"><ele>195.8</ele><time>2026-04-11T12:29:41Z</time></trkpt><trkpt lat="44.62160780265714" lon="10.428598331355605"><ele>196.6</ele><time>2026-04-11T12:29:43Z</time></trkpt><trkpt lat="44.6216116027593" lon="10.428468710399757"><ele>197.39999999999998</ele><time>2026-04-11T12:29:45Z</time></trkpt><trkpt lat="44.62161593155113" lon="10.428307105308935"><ele>198.2</ele><time>2026-04-11T12:29:47Z</time></trkpt><trkpt lat="44.621481469511025" lon="10.428203412311419"><ele>199.0</ele><time>2026-04-11T12:29:48Z</time></trkpt><trkpt lat="44.62144606293371" lon="10.428096581019549"><ele>199.0</ele><time>2026-04-11T12:29:49Z</time></trkpt><trkpt lat="44.62140959257551" lon="10.427986095942241"><ele>199.0</ele><time>2026-04-11T12:29:50Z</time></trkpt><trkpt lat="44.62136974071406" lon="10.42787509286548"><ele>199.0</ele><time>2026-04-11T12:29:51Z</time></trkpt><trkpt lat="44.62132198908659" lon="10.427756947470373"><ele>199.0</ele><time>2026-04-11T12:29:52Z</time></trkpt><trkpt lat="44.62127008477427" lon="10.427635896196538"><ele>199.0</ele><time>2026-04-11T12:29:53Z</time></trkpt><trkpt lat="44.62121734121371" lon="10.427516018432481"><ele>199.2</ele><time>2026-04-11T12:29:54Z</time></trkpt><trkpt lat="44.62116515426103" lon="10.427399717665352"><ele>199.39999999999998</ele><time>2026-04-11T12:29:55Z</time></trkpt><trkpt lat="44.62111870214278" lon="10.42728242970013"><ele>199.6</ele><time>2026-04-11T12:29:56Z</time></trkpt><trkpt lat="44.621072956979106" lon="10.427173685962654"><ele>199.8</ele><time>2026-04-11T12:29:57Z</time></trkpt><trkpt lat="44.62103151555368" lon="10.427063871016951"><ele>200.0</ele><time>2026-04-11T12:29:58Z</time></trkpt><trkpt lat="44.62099913825848" lon="10.426956360683166"><ele>200.00000000000003</ele><time>2026-04-11T12:29:59Z</time></trkpt><trkpt lat="44.62096229900951" lon="10.426852078307613"><ele>200.0</ele><time>2026-04-11T12:30:00Z</time></trkpt><trkpt lat="44.620918791149855" lon="10.426747655736149"><ele>200.0</ele><time>2026-04-11T12:30:01Z</time></trkpt><trkpt lat="44.62086173157939" lon="10.426657973274663"><ele>200.0</ele><time>2026-04-11T12:30:02Z</time></trkpt><trkpt lat="44.62080457658574" lon="10.426568968889114"><ele>200.00000000000003</ele><time>2026-04-11T12:30:03Z</time></trkpt><trkpt lat="44.62075026902453" lon="10.426474665816205"><ele>200.0</ele><time>2026-04-11T12:30:04Z</time></trkpt><trkpt lat="44.620691770251064" lon="10.426387282586228"><ele>198.00000000000003</ele><time>2026-04-11T12:30:05Z</time></trkpt><trkpt lat="44.62062472914621" lon="10.426288733091457"><ele>196.0</ele><time>2026-04-11T12:30:06Z</time></trkpt><trkpt lat="44.620556796065905" lon="10.426195128784064"><ele>194.0</ele><time>2026-04-11T12:30:07Z</time></trkpt><trkpt lat="44.62049815272193" lon="10.426090446688132"><ele>192.0</ele><time>2026-04-11T12:30:08Z</time></trkpt><trkpt lat="44.62045587463547" lon="10.425989866580801"><ele>190.0</ele><time>2026-04-11T12:30:09Z</time></trkpt><trkpt lat="44.62041343061444" lon="10.42590439586615"><ele>188.0</ele><time>2026-04-11T12:30:10Z</time></trkpt><trkpt lat="44.620370516035294" lon="10.425829258842853"><ele>190.0</ele><time>2026-04-11T12:30:11Z</time></trkpt><trkpt lat="44.62028127079095" lon="10.4257139186029"><ele>192.0</ele><time>2026-04-11T12:30:13Z</time></trkpt><trkpt lat="44.620220498667855" lon="10.42557433639386"><ele>194.0</ele><time>2026-04-11T12:30:15Z</time></trkpt><trkpt lat="44.62017646279246" lon="10.42542658109389"><ele>196.0</ele><time>2026-04-11T12:30:17Z</time></trkpt><trkpt lat="44.62016086598497" lon="10.425328914842643"><ele>198.0</ele><time>2026-04-11T12:30:18Z</time></trkpt><trkpt lat="44.62015348242632" lon="10.425233141895152"><ele>198.0</ele><time>2026-04-11T12:30:19Z</time></trkpt><trkpt lat="44.62013161784232" lon="10.42513420847837"><ele>198.0</ele><time>2026-04-11T12:30:20Z</time></trkpt><trkpt lat="44.62010380390206" lon="10.425017672232775"><ele>198.0</ele><time>2026-04-11T12:30:21Z</time></trkpt><trkpt lat="44.62007195862225" lon="10.424903084563313"><ele>198.0</ele><time>2026-04-11T12:30:22Z</time></trkpt><trkpt lat="44.6200368196787" lon="10.424798641397482"><ele>198.0</ele><time>2026-04-11T12:30:23Z</time></trkpt><trkpt lat="44.61999211300344" lon="10.42469782641067"><ele>198.0</ele><time>2026-04-11T12:30:24Z</time></trkpt><trkpt lat="44.61996235066426" lon="10.424594069212691"><ele>196.42857142857144</ele><time>2026-04-11T12:30:25Z</time></trkpt><trkpt lat="44.61994106879858" lon="10.424491744387238"><ele>194.85714285714283</ele><time>2026-04-11T12:30:26Z</time></trkpt><trkpt lat="44.61992094276756" lon="10.424398291153198"><ele>193.28571428571428</ele><time>2026-04-11T12:30:27Z</time></trkpt><trkpt lat="44.61990346155024" lon="10.42431184242045"><ele>191.71428571428572</ele><time>2026-04-11T12:30:28Z</time></trkpt><trkpt lat="44.61987794947467" lon="10.424226157125453"><ele>190.14285714285717</ele><time>2026-04-11T12:30:29Z</time></trkpt><trkpt lat="44.619845929776616" lon="10.424148694204115"><ele>188.57142857142856</ele><time>2026-04-11T12:30:30Z</time></trkpt><trkpt lat="44.61980082628479" lon="10.424060047413484"><ele>187.0</ele><time>2026-04-11T12:30:31Z</time></trkpt><trkpt lat="44.61975354404286" lon="10.423975401137701"><ele>187.0</ele><time>2026-04-11T12:30:32Z</time></trkpt><trkpt lat="44.61971852354719" lon="10.423881193627478"><ele>187.0</ele><time>2026-04-11T12:30:33Z</time></trkpt><trkpt lat="44.619695691369195" lon="10.423792435818115"><ele>187.0</ele><time>2026-04-11T12:30:34Z</time></trkpt><trkpt lat="44.619664468617934" lon="10.423638898136698"><ele>187.0</ele><time>2026-04-11T12:30:36Z</time></trkpt><trkpt lat="44.61963962324301" lon="10.423477890144754"><ele>187.0</ele><time>2026-04-11T12:30:38Z</time></trkpt><trkpt lat="44.61962130207199" lon="10.423391860700914"><ele>187.0</ele><time>2026-04-11T12:30:39Z</time></trkpt><trkpt lat="44.6195576939842" lon="10.423243652144336"><ele>186.0</ele><time>2026-04-11T12:30:41Z</time></trkpt><trkpt lat="44.61950624419305" lon="10.423148045876422"><ele>185.0</ele><time>2026-04-11T12:30:43Z</time></trkpt><trkpt lat="44.61951904832485" lon="10.423034715196943"><ele>184.0</ele><time>2026-04-11T12:30:45Z</time></trkpt><trkpt lat="44.61959092266559" lon="10.422876798146733"><ele>183.0</ele><time>2026-04-11T12:30:47Z</time></trkpt><trkpt lat="44.61963356253493" lon="10.422768273427444"><ele>182.0</ele><time>2026-04-11T12:30:48Z</time></trkpt><trkpt lat="44.619681795267255" lon="10.422640009986022"><ele>182.0</ele><time>2026-04-11T12:30:49Z</time></trkpt><trkpt lat="44.61972784869957" lon="10.422510522843181"><ele>182.0</ele><time>2026-04-11T12:30:50Z</time></trkpt><trkpt lat="44.61976942925871" lon="10.422398675319224"><ele>182.0</ele><time>2026-04-11T12:30:51Z</time></trkpt><trkpt lat="44.6198051451038" lon="10.422293488510057"><ele>182.0</ele><time>2026-04-11T12:30:52Z</time></trkpt><trkpt lat="44.61983525800815" lon="10.42220131787563"><ele>182.0</ele><time>2026-04-11T12:30:53Z</time></trkpt><trkpt lat="44.619899280872325" lon="10.422115558754644"><ele>182.0</ele><time>2026-04-11T12:30:55Z</time></trkpt><trkpt lat="44.61993305210418" lon="10.421254958638878"><ele>182.0</ele><time>2026-04-11T12:31:01Z</time></trkpt><trkpt lat="44.619852696658874" lon="10.421210777472687"><ele>182.0</ele><time>2026-04-11T12:31:02Z</time></trkpt><trkpt lat="44.619778546039626" lon="10.42117000774157"><ele>182.0</ele><time>2026-04-11T12:31:03Z</time></trkpt><trkpt lat="44.619697920066244" lon="10.421125677681681"><ele>182.0</ele><time>2026-04-11T12:31:04Z</time></trkpt><trkpt lat="44.61961084285687" lon="10.421077800611803"><ele>182.0</ele><time>2026-04-11T12:31:05Z</time></trkpt><trkpt lat="44.61952775294487" lon="10.421029451217674"><ele>182.0</ele><time>2026-04-11T12:31:06Z</time></trkpt><trkpt lat="44.61942875164632" lon="10.42097045789176"><ele>182.0</ele><time>2026-04-11T12:31:07Z</time></trkpt><trkpt lat="44.61933359920767" lon="10.420913758599832"><ele>182.0</ele><time>2026-04-11T12:31:08Z</time></trkpt><trkpt lat="44.619239019794676" lon="10.420857401405577"><ele>182.0</ele><time>2026-04-11T12:31:09Z</time></trkpt><trkpt lat="44.61914850100872" lon="10.42080346374091"><ele>182.0</ele><time>2026-04-11T12:31:10Z</time></trkpt><trkpt lat="44.61883553660728" lon="10.421482894934414"><ele>182.2</ele><time>2026-04-11T12:31:11Z</time></trkpt><trkpt lat="44.618749754342865" lon="10.421433342553298"><ele>182.39999999999998</ele><time>2026-04-11T12:31:12Z</time></trkpt><trkpt lat="44.61867609141592" lon="10.421378650093246"><ele>182.60000000000002</ele><time>2026-04-11T12:31:13Z</time></trkpt><trkpt lat="44.61860197465204" lon="10.421315758823411"><ele>182.8</ele><time>2026-04-11T12:31:14Z</time></trkpt><trkpt lat="44.618522370281795" lon="10.421258211560387"><ele>183.0</ele><time>2026-04-11T12:31:15Z</time></trkpt><trkpt lat="44.61843133172044" lon="10.42120763562131"><ele>183.4</ele><time>2026-04-11T12:31:16Z</time></trkpt><trkpt lat="44.61834004939436" lon="10.42115681172929"><ele>183.8</ele><time>2026-04-11T12:31:17.001Z</time></trkpt><trkpt lat="44.61824421666064" lon="10.421098321747817"><ele>184.2</ele><time>2026-04-11T12:31:18.001Z</time></trkpt><trkpt lat="44.61815510243733" lon="10.421048228282228"><ele>184.6</ele><time>2026-04-11T12:31:19.001Z</time></trkpt><trkpt lat="44.618054798770835" lon="10.42099680019469"><ele>185.0</ele><time>2026-04-11T12:31:20.001Z</time></trkpt><trkpt lat="44.61795303359934" lon="10.420951463990775"><ele>185.0</ele><time>2026-04-11T12:31:21.001Z</time></trkpt><trkpt lat="44.61784508277441" lon="10.420904818409667"><ele>185.0</ele><time>2026-04-11T12:31:22.001Z</time></trkpt><trkpt lat="44.61773308737601" lon="10.420859919360552"><ele>185.0</ele><time>2026-04-11T12:31:23.001Z</time></trkpt><trkpt lat="44.617617485726264" lon="10.420813089432139"><ele>185.0</ele><time>2026-04-11T12:31:24.001Z</time></trkpt><trkpt lat="44.61749587324656" lon="10.420771318862938"><ele>185.5</ele><time>2026-04-11T12:31:25.001Z</time></trkpt><trkpt lat="44.617368093602835" lon="10.420724129450077"><ele>186.0</ele><time>2026-04-11T12:31:26.001Z</time></trkpt><trkpt lat="44.61723943374249" lon="10.42067803307825"><ele>186.5</ele><time>2026-04-11T12:31:27.001Z</time></trkpt><trkpt lat="44.61711950670316" lon="10.420642391062406"><ele>187.0</ele><time>2026-04-11T12:31:28.001Z</time></trkpt><trkpt lat="44.61701439904965" lon="10.420605044974145"><ele>187.8</ele><time>2026-04-11T12:31:29.001Z</time></trkpt><trkpt lat="44.616920038960636" lon="10.420572014456535"><ele>188.6</ele><time>2026-04-11T12:31:30.001Z</time></trkpt><trkpt lat="44.6168368861635" lon="10.420543351003358"><ele>189.4</ele><time>2026-04-11T12:31:31.001Z</time></trkpt><trkpt lat="44.616749355257426" lon="10.420513146683566"><ele>190.20000000000002</ele><time>2026-04-11T12:31:33.001Z</time></trkpt><trkpt lat="44.61670007261378" lon="10.420589505387955"><ele>191.0</ele><time>2026-04-11T12:31:35Z</time></trkpt><trkpt lat="44.61667009050647" lon="10.420737191159233"><ele>191.0</ele><time>2026-04-11T12:31:37Z</time></trkpt><trkpt lat="44.61661926567051" lon="10.420811155961553"><ele>191.0</ele><time>2026-04-11T12:31:51Z</time></trkpt><trkpt lat="44.61653279310984" lon="10.420821232220264"><ele>191.0</ele><time>2026-04-11T12:31:53Z</time></trkpt><trkpt lat="44.616469560560425" lon="10.42080754049268"><ele>191.0</ele><time>2026-04-11T12:31:54Z</time></trkpt><trkpt lat="44.61640147024887" lon="10.420790907951375"><ele>191.0</ele><time>2026-04-11T12:31:55Z</time></trkpt><trkpt lat="44.61633181489848" lon="10.420771681875337"><ele>191.0</ele><time>2026-04-11T12:31:56Z</time></trkpt><trkpt lat="44.61625391694895" lon="10.420748196731358"><ele>191.0</ele><time>2026-04-11T12:31:57Z</time></trkpt><trkpt lat="44.61616787889803" lon="10.420727444458002"><ele>191.16666666666666</ele><time>2026-04-11T12:31:58Z</time></trkpt><trkpt lat="44.616078858196545" lon="10.420704817885554"><ele>191.33333333333331</ele><time>2026-04-11T12:31:59Z</time></trkpt><trkpt lat="44.615994837060306" lon="10.42067768570228"><ele>191.5</ele><time>2026-04-11T12:32:00Z</time></trkpt><trkpt lat="44.615913093836355" lon="10.420660827437528"><ele>191.66666666666666</ele><time>2026-04-11T12:32:01Z</time></trkpt><trkpt lat="44.61582320049078" lon="10.420643297515143"><ele>191.83333333333334</ele><time>2026-04-11T12:32:02Z</time></trkpt><trkpt lat="44.61572637560604" lon="10.420623990826664"><ele>192.0</ele><time>2026-04-11T12:32:03Z</time></trkpt><trkpt lat="44.61562603291659" lon="10.420604971979595"><ele>192.0</ele><time>2026-04-11T12:32:04Z</time></trkpt><trkpt lat="44.61552821659083" lon="10.42058279231737"><ele>192.0</ele><time>2026-04-11T12:32:05Z</time></trkpt><trkpt lat="44.615429765411676" lon="10.420571922329785"><ele>192.0</ele><time>2026-04-11T12:32:06Z</time></trkpt><trkpt lat="44.61532868183642" lon="10.420570445266986"><ele>192.0</ele><time>2026-04-11T12:32:07Z</time></trkpt><trkpt lat="44.61522978841342" lon="10.420577976220688"><ele>192.0</ele><time>2026-04-11T12:32:08Z</time></trkpt><trkpt lat="44.61512667142206" lon="10.420588894984784"><ele>192.8</ele><time>2026-04-11T12:32:09Z</time></trkpt><trkpt lat="44.615031319267224" lon="10.420599939940596"><ele>193.6</ele><time>2026-04-11T12:32:10Z</time></trkpt><trkpt lat="44.6149368171875" lon="10.420614728853781"><ele>194.4</ele><time>2026-04-11T12:32:11Z</time></trkpt><trkpt lat="44.61483667129471" lon="10.420631948338478"><ele>195.20000000000002</ele><time>2026-04-11T12:32:12Z</time></trkpt><trkpt lat="44.614738547249054" lon="10.42065354617352"><ele>196.0</ele><time>2026-04-11T12:32:13Z</time></trkpt><trkpt lat="44.61464210603278" lon="10.420687752665367"><ele>196.0</ele><time>2026-04-11T12:32:14Z</time></trkpt><trkpt lat="44.614534279775256" lon="10.420731678691642"><ele>196.0</ele><time>2026-04-11T12:32:15Z</time></trkpt><trkpt lat="44.614423695364486" lon="10.420766269534179"><ele>196.0</ele><time>2026-04-11T12:32:16Z</time></trkpt><trkpt lat="44.61431404761752" lon="10.420795210048343"><ele>196.0</ele><time>2026-04-11T12:32:17Z</time></trkpt><trkpt lat="44.61420944950992" lon="10.420813153761173"><ele>196.0</ele><time>2026-04-11T12:32:18Z</time></trkpt><trkpt lat="44.614098952456644" lon="10.42083891966591"><ele>196.0</ele><time>2026-04-11T12:32:19Z</time></trkpt><trkpt lat="44.61398313173509" lon="10.42086960386133"><ele>196.0</ele><time>2026-04-11T12:32:20Z</time></trkpt><trkpt lat="44.61386164546343" lon="10.42090022216617"><ele>196.0</ele><time>2026-04-11T12:32:21Z</time></trkpt><trkpt lat="44.61373971911327" lon="10.420938416554959"><ele>196.0</ele><time>2026-04-11T12:32:22Z</time></trkpt><trkpt lat="44.61361587483059" lon="10.420969250935928"><ele>196.75</ele><time>2026-04-11T12:32:23Z</time></trkpt><trkpt lat="44.61349381862924" lon="10.420998069783117"><ele>197.5</ele><time>2026-04-11T12:32:24Z</time></trkpt><trkpt lat="44.613374484765686" lon="10.421025148973431"><ele>198.25</ele><time>2026-04-11T12:32:25Z</time></trkpt><trkpt lat="44.613258577446906" lon="10.421056606089236"><ele>199.0</ele><time>2026-04-11T12:32:26Z</time></trkpt><trkpt lat="44.613147494427984" lon="10.421094691801036"><ele>198.99999999999997</ele><time>2026-04-11T12:32:27Z</time></trkpt><trkpt lat="44.61304516487141" lon="10.421129258285363"><ele>199.0</ele><time>2026-04-11T12:32:28Z</time></trkpt><trkpt lat="44.61295449433768" lon="10.42115805340241"><ele>199.0</ele><time>2026-04-11T12:32:29.001Z</time></trkpt><trkpt lat="44.61286559877848" lon="10.421177382535687"><ele>199.0</ele><time>2026-04-11T12:32:30.001Z</time></trkpt><trkpt lat="44.612789231703545" lon="10.421178747942289"><ele>198.99999999999997</ele><time>2026-04-11T12:32:31.001Z</time></trkpt><trkpt lat="44.61271047951725" lon="10.42117558762266"><ele>199.0</ele><time>2026-04-11T12:32:32.001Z</time></trkpt><trkpt lat="44.61262302214915" lon="10.421179822067558"><ele>199.16666666666666</ele><time>2026-04-11T12:32:33.001Z</time></trkpt><trkpt lat="44.612537485479564" lon="10.421196125910807"><ele>199.33333333333331</ele><time>2026-04-11T12:32:34.001Z</time></trkpt><trkpt lat="44.612466222754364" lon="10.42121274437518"><ele>199.5</ele><time>2026-04-11T12:32:35.001Z</time></trkpt><trkpt lat="44.61239143204719" lon="10.421216068021709"><ele>199.66666666666669</ele><time>2026-04-11T12:32:36.001Z</time></trkpt><trkpt lat="44.61229756206381" lon="10.421225308021052"><ele>199.83333333333334</ele><time>2026-04-11T12:32:37.001Z</time></trkpt><trkpt lat="44.61220381715355" lon="10.421245693252025"><ele>200.0</ele><time>2026-04-11T12:32:38.001Z</time></trkpt><trkpt lat="44.612099786195074" lon="10.421265769335216"><ele>200.00000000000003</ele><time>2026-04-11T12:32:39.001Z</time></trkpt><trkpt lat="44.61200111308658" lon="10.421291350652815"><ele>200.0</ele><time>2026-04-11T12:32:40.001Z</time></trkpt><trkpt lat="44.61191846545971" lon="10.421317558051141"><ele>200.0</ele><time>2026-04-11T12:32:41.001Z</time></trkpt><trkpt lat="44.611840053514804" lon="10.421270450041533"><ele>200.0</ele><time>2026-04-11T12:32:42.001Z</time></trkpt><trkpt lat="44.61176125033273" lon="10.421252738475857"><ele>200.00000000000003</ele><time>2026-04-11T12:32:43.001Z</time></trkpt><trkpt lat="44.6116684636516" lon="10.421237978811392"><ele>200.0</ele><time>2026-04-11T12:32:44.001Z</time></trkpt><trkpt lat="44.61156954815552" lon="10.421174165869749"><ele>200.6</ele><time>2026-04-11T12:32:45.001Z</time></trkpt><trkpt lat="44.61145920142219" lon="10.421127403556035"><ele>201.2</ele><time>2026-04-11T12:32:46.001Z</time></trkpt><trkpt lat="44.6113499636835" lon="10.421074309836563"><ele>201.8</ele><time>2026-04-11T12:32:47.001Z</time></trkpt><trkpt lat="44.6112456141348" lon="10.42102139559233"><ele>202.4</ele><time>2026-04-11T12:32:48.001Z</time></trkpt><trkpt lat="44.61115237824739" lon="10.420966858044283"><ele>203.0</ele><time>2026-04-11T12:32:49.001Z</time></trkpt><trkpt lat="44.611063016725865" lon="10.420895742337258"><ele>205.0</ele><time>2026-04-11T12:32:50.001Z</time></trkpt><trkpt lat="44.61096125089844" lon="10.420810598613771"><ele>207.0</ele><time>2026-04-11T12:32:51.001Z</time></trkpt><trkpt lat="44.610859555739864" lon="10.42071258939152"><ele>209.0</ele><time>2026-04-11T12:32:52.001Z</time></trkpt><trkpt lat="44.61076506538717" lon="10.420606470562792"><ele>211.0</ele><time>2026-04-11T12:32:53.001Z</time></trkpt><trkpt lat="44.610660959494915" lon="10.420519528944236"><ele>209.25</ele><time>2026-04-11T12:32:54.001Z</time></trkpt><trkpt lat="44.6105631776877" lon="10.420406384633885"><ele>207.5</ele><time>2026-04-11T12:32:55.001Z</time></trkpt><trkpt lat="44.61046662455569" lon="10.420296595545253"><ele>205.75</ele><time>2026-04-11T12:32:56.001Z</time></trkpt><trkpt lat="44.61035991227466" lon="10.420206535644574"><ele>204.0</ele><time>2026-04-11T12:32:57.001Z</time></trkpt><trkpt lat="44.610240846757684" lon="10.42011959142005"><ele>204.0</ele><time>2026-04-11T12:32:58.001Z</time></trkpt><trkpt lat="44.61012438805438" lon="10.42002685937468"><ele>204.0</ele><time>2026-04-11T12:32:59.001Z</time></trkpt><trkpt lat="44.610003993604" lon="10.419930993436415"><ele>204.0</ele><time>2026-04-11T12:33:00.001Z</time></trkpt><trkpt lat="44.60987936722566" lon="10.419850675402213"><ele>204.0</ele><time>2026-04-11T12:33:01.001Z</time></trkpt><trkpt lat="44.6097808097255" lon="10.419743330405172"><ele>204.0</ele><time>2026-04-11T12:33:02.001Z</time></trkpt><trkpt lat="44.609682848188264" lon="10.419661810063287"><ele>204.0</ele><time>2026-04-11T12:33:03.001Z</time></trkpt><trkpt lat="44.60958967269074" lon="10.41958881359574"><ele>204.0</ele><time>2026-04-11T12:33:04.001Z</time></trkpt><trkpt lat="44.60949218148749" lon="10.419536433717676"><ele>204.0</ele><time>2026-04-11T12:33:05.001Z</time></trkpt><trkpt lat="44.609387976165216" lon="10.419462707124996"><ele>204.0</ele><time>2026-04-11T12:33:06Z</time></trkpt><trkpt lat="44.60927700966998" lon="10.419399851101092"><ele>202.5</ele><time>2026-04-11T12:33:07Z</time></trkpt><trkpt lat="44.60916546311557" lon="10.419334495705469"><ele>201.0</ele><time>2026-04-11T12:33:08Z</time></trkpt><trkpt lat="44.60905156258964" lon="10.419267595222463"><ele>199.5</ele><time>2026-04-11T12:33:09Z</time></trkpt><trkpt lat="44.60893867851822" lon="10.419201291743763"><ele>198.0</ele><time>2026-04-11T12:33:10Z</time></trkpt><trkpt lat="44.6088321583857" lon="10.419163819787297"><ele>198.0</ele><time>2026-04-11T12:33:11Z</time></trkpt><trkpt lat="44.60873777324106" lon="10.41910085323546"><ele>198.0</ele><time>2026-04-11T12:33:12Z</time></trkpt><trkpt lat="44.60864318248279" lon="10.419045252697915"><ele>198.0</ele><time>2026-04-11T12:33:13Z</time></trkpt><trkpt lat="44.60857923612821" lon="10.418925201517922"><ele>198.0</ele><time>2026-04-11T12:33:14Z</time></trkpt><trkpt lat="44.608462137019636" lon="10.418906568511433"><ele>198.0</ele><time>2026-04-11T12:33:15Z</time></trkpt><trkpt lat="44.60837547027358" lon="10.418850586159627"><ele>198.2</ele><time>2026-04-11T12:33:16Z</time></trkpt><trkpt lat="44.60832121278935" lon="10.418795207319295"><ele>198.4</ele><time>2026-04-11T12:33:17Z</time></trkpt><trkpt lat="44.60821628339605" lon="10.41881397871815"><ele>198.6</ele><time>2026-04-11T12:33:19Z</time></trkpt><trkpt lat="44.60817521788086" lon="10.418930462272266"><ele>198.79999999999998</ele><time>2026-04-11T12:33:22Z</time></trkpt><trkpt lat="44.60820333304187" lon="10.418850762702615"><ele>199.0</ele><time>2026-04-11T12:33:39Z</time></trkpt><trkpt lat="44.608070942610446" lon="10.41874975042313"><ele>198.99999999999997</ele><time>2026-04-11T12:33:47Z</time></trkpt><trkpt lat="44.608006444719734" lon="10.418721957224081"><ele>199.0</ele><time>2026-04-11T12:33:48Z</time></trkpt><trkpt lat="44.607942254594896" lon="10.41870885518044"><ele>199.0</ele><time>2026-04-11T12:33:49Z</time></trkpt><trkpt lat="44.607822353890086" lon="10.418719086480458"><ele>199.0</ele><time>2026-04-11T12:33:51Z</time></trkpt><trkpt lat="44.607720477187115" lon="10.418736261243248"><ele>198.99999999999997</ele><time>2026-04-11T12:33:53Z</time></trkpt><trkpt lat="44.60762885137696" lon="10.418756719557509"><ele>199.0</ele><time>2026-04-11T12:33:55Z</time></trkpt><trkpt lat="44.60755064880925" lon="10.41877134794065"><ele>198.83333333333331</ele><time>2026-04-11T12:33:57Z</time></trkpt><trkpt lat="44.607483256253616" lon="10.418780696109982"><ele>198.66666666666666</ele><time>2026-04-11T12:34:00Z</time></trkpt><trkpt lat="44.607403958355484" lon="10.418780696108701"><ele>198.5</ele><time>2026-04-11T12:34:03Z</time></trkpt><trkpt lat="44.6073201711065" lon="10.418782668050408"><ele>198.33333333333331</ele><time>2026-04-11T12:34:07Z</time></trkpt><trkpt lat="44.60721482640593" lon="10.41881182861931"><ele>198.16666666666666</ele><time>2026-04-11T12:34:11Z</time></trkpt><trkpt lat="44.607133795633" lon="10.418885292003655"><ele>198.0</ele><time>2026-04-11T12:34:13Z</time></trkpt><trkpt lat="44.607077980959524" lon="10.418946169187038"><ele>198.0</ele><time>2026-04-11T12:34:15Z</time></trkpt><trkpt lat="44.60700643218607" lon="10.418995023440242"><ele>198.0</ele><time>2026-04-11T12:34:17Z</time></trkpt><trkpt lat="44.60693558519801" lon="10.418933269999822"><ele>198.0</ele><time>2026-04-11T12:34:21Z</time></trkpt><trkpt lat="44.60688493741981" lon="10.418873745720807"><ele>198.0</ele><time>2026-04-11T12:34:46Z</time></trkpt><trkpt lat="44.60681861123375" lon="10.418837572943099"><ele>198.0</ele><time>2026-04-11T12:34:49Z</time></trkpt><trkpt lat="44.606747326283525" lon="10.418862852953508"><ele>198.0</ele><time>2026-04-11T12:34:52Z</time></trkpt><trkpt lat="44.60667207900818" lon="10.41888022380645"><ele>198.2</ele><time>2026-04-11T12:35:03Z</time></trkpt><trkpt lat="44.6066185028252" lon="10.418832826124548"><ele>198.4</ele><time>2026-04-11T12:35:05Z</time></trkpt><trkpt lat="44.606562796802805" lon="10.41877766971969"><ele>198.6</ele><time>2026-04-11T12:35:07Z</time></trkpt><trkpt lat="44.60653134431852" lon="10.418674442554686"><ele>198.79999999999998</ele><time>2026-04-11T12:35:10Z</time></trkpt><trkpt lat="44.60654040299494" lon="10.418522620761097"><ele>199.0</ele><time>2026-04-11T12:35:13Z</time></trkpt><trkpt lat="44.606536294933676" lon="10.41833987495441"><ele>199.0</ele><time>2026-04-11T12:35:15Z</time></trkpt><trkpt lat="44.60650809391279" lon="10.418162847260897"><ele>199.0</ele><time>2026-04-11T12:35:17Z</time></trkpt><trkpt lat="44.60647163214539" lon="10.418070219856952"><ele>199.0</ele><time>2026-04-11T12:35:18Z</time></trkpt><trkpt lat="44.606432578494925" lon="10.418000152233482"><ele>199.0</ele><time>2026-04-11T12:35:19Z</time></trkpt><trkpt lat="44.60633570700848" lon="10.417903002873853"><ele>199.0</ele><time>2026-04-11T12:35:21Z</time></trkpt><trkpt lat="44.60627709027085" lon="10.417861228292875"><ele>199.16666666666666</ele><time>2026-04-11T12:35:22Z</time></trkpt><trkpt lat="44.60620998240693" lon="10.417824684121616"><ele>199.33333333333331</ele><time>2026-04-11T12:35:23Z</time></trkpt><trkpt lat="44.60612382050757" lon="10.417797852689029"><ele>199.5</ele><time>2026-04-11T12:35:24.001Z</time></trkpt><trkpt lat="44.60603145993284" lon="10.417771911036482"><ele>199.66666666666669</ele><time>2026-04-11T12:35:25.001Z</time></trkpt><trkpt lat="44.605938581332666" lon="10.417732421278902"><ele>199.83333333333334</ele><time>2026-04-11T12:35:26.001Z</time></trkpt><trkpt lat="44.60584755825586" lon="10.417692532869335"><ele>200.0</ele><time>2026-04-11T12:35:27.001Z</time></trkpt><trkpt lat="44.60577663833527" lon="10.41766562810787"><ele>200.33333333333334</ele><time>2026-04-11T12:35:28.001Z</time></trkpt><trkpt lat="44.605715363159014" lon="10.417634476104801"><ele>200.66666666666669</ele><time>2026-04-11T12:35:29.001Z</time></trkpt><trkpt lat="44.60562681446172" lon="10.417535095441249"><ele>201.0</ele><time>2026-04-11T12:35:31.001Z</time></trkpt><trkpt lat="44.60556983648629" lon="10.417488504744865"><ele>201.33333333333331</ele><time>2026-04-11T12:35:32.001Z</time></trkpt><trkpt lat="44.60548963742317" lon="10.41748334936008"><ele>201.66666666666666</ele><time>2026-04-11T12:35:33.001Z</time></trkpt><trkpt lat="44.6054234139315" lon="10.417452914202508"><ele>202.0</ele><time>2026-04-11T12:35:34.001Z</time></trkpt><trkpt lat="44.605322236717264" lon="10.417452019240955"><ele>202.0</ele><time>2026-04-11T12:35:36.001Z</time></trkpt><trkpt lat="44.605216871879065" lon="10.417368317080971"><ele>202.0</ele><time>2026-04-11T12:35:38.001Z</time></trkpt><trkpt lat="44.60515938609818" lon="10.41730210163275"><ele>202.0</ele><time>2026-04-11T12:35:39.001Z</time></trkpt><trkpt lat="44.605079942013184" lon="10.417178314177479"><ele>202.0</ele><time>2026-04-11T12:35:41.001Z</time></trkpt><trkpt lat="44.60500380243992" lon="10.417020860685133"><ele>202.0</ele><time>2026-04-11T12:35:43.001Z</time></trkpt><trkpt lat="44.6049794352186" lon="10.416920035684775"><ele>202.0</ele><time>2026-04-11T12:35:44.001Z</time></trkpt><trkpt lat="44.60484553531868" lon="10.416894513787723"><ele>202.0</ele><time>2026-04-11T12:35:45.001Z</time></trkpt><trkpt lat="44.60475702541429" lon="10.416833665064432"><ele>202.0</ele><time>2026-04-11T12:35:46Z</time></trkpt><trkpt lat="44.604669454944414" lon="10.41676286391224"><ele>202.0</ele><time>2026-04-11T12:35:47Z</time></trkpt><trkpt lat="44.60457716245236" lon="10.416676874608058"><ele>202.2</ele><time>2026-04-11T12:35:48Z</time></trkpt><trkpt lat="44.60448329338172" lon="10.416583909547334"><ele>202.39999999999998</ele><time>2026-04-11T12:35:49Z</time></trkpt><trkpt lat="44.60439431142064" lon="10.41648933806497"><ele>202.60000000000002</ele><time>2026-04-11T12:35:50Z</time></trkpt><trkpt lat="44.604315399982475" lon="10.416401463884133"><ele>202.8</ele><time>2026-04-11T12:35:51Z</time></trkpt><trkpt lat="44.604238085654195" lon="10.416314648495748"><ele>203.0</ele><time>2026-04-11T12:35:52Z</time></trkpt><trkpt lat="44.60415779883182" lon="10.416215204345772"><ele>203.0</ele><time>2026-04-11T12:35:53Z</time></trkpt><trkpt lat="44.604072589690276" lon="10.416111622959438"><ele>203.0</ele><time>2026-04-11T12:35:54Z</time></trkpt><trkpt lat="44.60398643800725" lon="10.41600491552574"><ele>203.0</ele><time>2026-04-11T12:35:55Z</time></trkpt><trkpt lat="44.60389518380212" lon="10.41590573712071"><ele>203.0</ele><time>2026-04-11T12:35:56Z</time></trkpt><trkpt lat="44.60379487883402" lon="10.415816349282546"><ele>203.0</ele><time>2026-04-11T12:35:57Z</time></trkpt><trkpt lat="44.603684019031974" lon="10.415740208811945"><ele>203.0</ele><time>2026-04-11T12:35:58Z</time></trkpt><trkpt lat="44.60358018397336" lon="10.415658549262695"><ele>203.0</ele><time>2026-04-11T12:35:59Z</time></trkpt><trkpt lat="44.60348433809436" lon="10.41558372128076"><ele>203.0</ele><time>2026-04-11T12:36:00Z</time></trkpt><trkpt lat="44.603282699364314" lon="10.415433982079051"><ele>203.25</ele><time>2026-04-11T12:36:02Z</time></trkpt><trkpt lat="44.603181387060495" lon="10.415347843882854"><ele>203.5</ele><time>2026-04-11T12:36:03Z</time></trkpt><trkpt lat="44.60307576164401" lon="10.415244951288013"><ele>203.75</ele><time>2026-04-11T12:36:04Z</time></trkpt><trkpt lat="44.60296798423111" lon="10.415133538457642"><ele>204.0</ele><time>2026-04-11T12:36:05Z</time></trkpt><trkpt lat="44.60287196743886" lon="10.41503778156589"><ele>204.5</ele><time>2026-04-11T12:36:06Z</time></trkpt><trkpt lat="44.6027732529071" lon="10.414950051050686"><ele>205.0</ele><time>2026-04-11T12:36:07Z</time></trkpt><trkpt lat="44.602665077271574" lon="10.414866909723507"><ele>205.5</ele><time>2026-04-11T12:36:08Z</time></trkpt><trkpt lat="44.60256014137977" lon="10.41480673465491"><ele>206.0</ele><time>2026-04-11T12:36:09Z</time></trkpt><trkpt lat="44.6024650599246" lon="10.414763302243713"><ele>206.0</ele><time>2026-04-11T12:36:10Z</time></trkpt><trkpt lat="44.60238157990294" lon="10.414690500407918"><ele>206.0</ele><time>2026-04-11T12:36:11Z</time></trkpt><trkpt lat="44.60228637378331" lon="10.414633035977252"><ele>206.0</ele><time>2026-04-11T12:36:12Z</time></trkpt><trkpt lat="44.602189211268694" lon="10.414573995933978"><ele>206.0</ele><time>2026-04-11T12:36:13Z</time></trkpt><trkpt lat="44.602106171817915" lon="10.414517705545963"><ele>206.0</ele><time>2026-04-11T12:36:14Z</time></trkpt><trkpt lat="44.60203076742639" lon="10.41445137025583"><ele>205.66666666666669</ele><time>2026-04-11T12:36:15Z</time></trkpt><trkpt lat="44.60195821110275" lon="10.414376942899397"><ele>205.33333333333334</ele><time>2026-04-11T12:36:16Z</time></trkpt><trkpt lat="44.6018921491221" lon="10.414303274724386"><ele>205.0</ele><time>2026-04-11T12:36:17Z</time></trkpt><trkpt lat="44.60182851674051" lon="10.414232153313366"><ele>204.66666666666669</ele><time>2026-04-11T12:36:18Z</time></trkpt><trkpt lat="44.60176556250383" lon="10.41416678046439"><ele>204.33333333333334</ele><time>2026-04-11T12:36:19Z</time></trkpt><trkpt lat="44.60170135380255" lon="10.41410010494421"><ele>204.0</ele><time>2026-04-11T12:36:20Z</time></trkpt><trkpt lat="44.601643076227155" lon="10.414038710562293"><ele>204.0</ele><time>2026-04-11T12:36:21Z</time></trkpt><trkpt lat="44.60158435908588" lon="10.413974740339036"><ele>204.0</ele><time>2026-04-11T12:36:22Z</time></trkpt><trkpt lat="44.6015270602574" lon="10.413912315285332"><ele>204.0</ele><time>2026-04-11T12:36:23Z</time></trkpt><trkpt lat="44.60146569099387" lon="10.413847430242598"><ele>204.0</ele><time>2026-04-11T12:36:24Z</time></trkpt><trkpt lat="44.60140751124227" lon="10.41379273861695"><ele>204.0</ele><time>2026-04-11T12:36:25Z</time></trkpt><trkpt lat="44.60133347493989" lon="10.413703260006033"><ele>204.0</ele><time>2026-04-11T12:36:27Z</time></trkpt><trkpt lat="44.60135510973785" lon="10.413564984327195"><ele>203.5</ele><time>2026-04-11T12:36:29Z</time></trkpt><trkpt lat="44.601389779675095" lon="10.413480265717158"><ele>203.0</ele><time>2026-04-11T12:36:30Z</time></trkpt><trkpt lat="44.60142944908153" lon="10.413382735781443"><ele>202.5</ele><time>2026-04-11T12:36:31Z</time></trkpt><trkpt lat="44.60146683254922" lon="10.413285721309236"><ele>202.0</ele><time>2026-04-11T12:36:32Z</time></trkpt><trkpt lat="44.601506945755" lon="10.413192010912843"><ele>201.5</ele><time>2026-04-11T12:36:33Z</time></trkpt><trkpt lat="44.60154521827232" lon="10.413094739579225"><ele>201.0</ele><time>2026-04-11T12:36:34Z</time></trkpt><trkpt lat="44.601586486131524" lon="10.413002163470184"><ele>200.16666666666666</ele><time>2026-04-11T12:36:35Z</time></trkpt><trkpt lat="44.601624746273295" lon="10.412911582830057"><ele>199.33333333333331</ele><time>2026-04-11T12:36:36Z</time></trkpt><trkpt lat="44.60165630376926" lon="10.412832396440974"><ele>198.5</ele><time>2026-04-11T12:36:37Z</time></trkpt><trkpt lat="44.60170262777103" lon="10.4127092420076"><ele>197.66666666666666</ele><time>2026-04-11T12:36:39Z</time></trkpt><trkpt lat="44.601720773834444" lon="10.412601982245498"><ele>196.83333333333331</ele><time>2026-04-11T12:36:43Z</time></trkpt><trkpt lat="44.60160442684954" lon="10.412581169949954"><ele>196.0</ele><time>2026-04-11T12:36:45Z</time></trkpt><trkpt lat="44.60154333241446" lon="10.41261308650308"><ele>195.99999999999997</ele><time>2026-04-11T12:36:46Z</time></trkpt><trkpt lat="44.60146378872159" lon="10.412644072229362"><ele>196.0</ele><time>2026-04-11T12:36:47.001Z</time></trkpt><trkpt lat="44.60138382132829" lon="10.412665067961157"><ele>196.0</ele><time>2026-04-11T12:36:48.001Z</time></trkpt><trkpt lat="44.6013167176642" lon="10.412683260634807"><ele>196.0</ele><time>2026-04-11T12:36:49.001Z</time></trkpt><trkpt lat="44.60119436551216" lon="10.412714717396476"><ele>195.99999999999997</ele><time>2026-04-11T12:36:51.001Z</time></trkpt><trkpt lat="44.60111223370364" lon="10.412730506098496"><ele>196.0</ele><time>2026-04-11T12:36:52.001Z</time></trkpt><trkpt lat="44.60101978835403" lon="10.412732339857035"><ele>196.4</ele><time>2026-04-11T12:36:53.001Z</time></trkpt><trkpt lat="44.60092774952102" lon="10.412712302626806"><ele>196.8</ele><time>2026-04-11T12:36:54.001Z</time></trkpt><trkpt lat="44.600835254631804" lon="10.41266856562303"><ele>197.20000000000002</ele><time>2026-04-11T12:36:55.001Z</time></trkpt><trkpt lat="44.600741732786496" lon="10.412606372658306"><ele>197.60000000000002</ele><time>2026-04-11T12:36:56.001Z</time></trkpt><trkpt lat="44.600653016195906" lon="10.412534911940732"><ele>198.0</ele><time>2026-04-11T12:36:57.001Z</time></trkpt><trkpt lat="44.600568544365686" lon="10.412466538591337"><ele>198.0</ele><time>2026-04-11T12:36:58.001Z</time></trkpt><trkpt lat="44.60049073615497" lon="10.412406803224487"><ele>198.0</ele><time>2026-04-11T12:36:59.001Z</time></trkpt><trkpt lat="44.60041873769097" lon="10.41235658473587"><ele>198.0</ele><time>2026-04-11T12:37:00.001Z</time></trkpt><trkpt lat="44.60035624813593" lon="10.412324666494742"><ele>198.0</ele><time>2026-04-11T12:37:01.001Z</time></trkpt><trkpt lat="44.60025308601707" lon="10.412235359948047"><ele>198.0</ele><time>2026-04-11T12:37:03.001Z</time></trkpt><trkpt lat="44.60020308131395" lon="10.412173729840656"><ele>198.0</ele><time>2026-04-11T12:37:04.001Z</time></trkpt><trkpt lat="44.60014420076038" lon="10.412129446960243"><ele>198.8</ele><time>2026-04-11T12:37:05.001Z</time></trkpt><trkpt lat="44.600027743990815" lon="10.412157865475777"><ele>199.60000000000002</ele><time>2026-04-11T12:37:07.001Z</time></trkpt><trkpt lat="44.599971358695655" lon="10.412285507474332"><ele>200.39999999999998</ele><time>2026-04-11T12:37:09.001Z</time></trkpt><trkpt lat="44.59997605148698" lon="10.412414389998819"><ele>201.2</ele><time>2026-04-11T12:37:11.001Z</time></trkpt><trkpt lat="44.600048838577145" lon="10.412471820142743"><ele>202.0</ele><time>2026-04-11T12:37:12.001Z</time></trkpt><trkpt lat="44.60010966467264" lon="10.41249986104893"><ele>201.99999999999997</ele><time>2026-04-11T12:39:04Z</time></trkpt><trkpt lat="44.60016323274774" lon="10.412552942420488"><ele>202.0</ele><time>2026-04-11T12:39:07Z</time></trkpt><trkpt lat="44.60019651241256" lon="10.412465419554104"><ele>202.0</ele><time>2026-04-11T12:39:12Z</time></trkpt><trkpt lat="44.60025722252167" lon="10.412372697509952"><ele>202.0</ele><time>2026-04-11T12:39:14Z</time></trkpt><trkpt lat="44.600362706050404" lon="10.412368740630574"><ele>201.99999999999997</ele><time>2026-04-11T12:39:16Z</time></trkpt><trkpt lat="44.60044536024461" lon="10.412384822895547"><ele>202.0</ele><time>2026-04-11T12:39:17Z</time></trkpt><trkpt lat="44.60052086320939" lon="10.412443357411746"><ele>201.2</ele><time>2026-04-11T12:39:18Z</time></trkpt><trkpt lat="44.60060154839899" lon="10.412503194799266"><ele>200.39999999999998</ele><time>2026-04-11T12:39:19Z</time></trkpt><trkpt lat="44.600683367228" lon="10.412581174223956"><ele>199.60000000000002</ele><time>2026-04-11T12:39:20Z</time></trkpt><trkpt lat="44.60077540187526" lon="10.412662361537025"><ele>198.8</ele><time>2026-04-11T12:39:21Z</time></trkpt><trkpt lat="44.600866889424296" lon="10.412743573099592"><ele>198.0</ele><time>2026-04-11T12:39:22Z</time></trkpt><trkpt lat="44.600965170939865" lon="10.412789527289492"><ele>198.0</ele><time>2026-04-11T12:39:23Z</time></trkpt><trkpt lat="44.60108414118831" lon="10.412783120565008"><ele>198.0</ele><time>2026-04-11T12:39:24Z</time></trkpt><trkpt lat="44.60121942284383" lon="10.412740802153554"><ele>198.0</ele><time>2026-04-11T12:39:25Z</time></trkpt><trkpt lat="44.60134988345486" lon="10.412701788252662"><ele>198.0</ele><time>2026-04-11T12:39:26Z</time></trkpt><trkpt lat="44.60148054350373" lon="10.412651653815633"><ele>197.5</ele><time>2026-04-11T12:39:27Z</time></trkpt><trkpt lat="44.601613710024914" lon="10.412618321759924"><ele>197.0</ele><time>2026-04-11T12:39:28Z</time></trkpt><trkpt lat="44.60173916440257" lon="10.412598904313718"><ele>196.5</ele><time>2026-04-11T12:39:29Z</time></trkpt><trkpt lat="44.601853165879724" lon="10.412583832330212"><ele>196.0</ele><time>2026-04-11T12:39:30Z</time></trkpt><trkpt lat="44.60196040976348" lon="10.412576453441833"><ele>197.25</ele><time>2026-04-11T12:39:31Z</time></trkpt><trkpt lat="44.60207177401454" lon="10.412570127942233"><ele>198.5</ele><time>2026-04-11T12:39:32Z</time></trkpt><trkpt lat="44.60218807370764" lon="10.41256985795911"><ele>199.75</ele><time>2026-04-11T12:39:33Z</time></trkpt><trkpt lat="44.602306428729506" lon="10.412573180366342"><ele>201.0</ele><time>2026-04-11T12:39:34Z</time></trkpt><trkpt lat="44.60242230795638" lon="10.412574661413297"><ele>201.0</ele><time>2026-04-11T12:39:35Z</time></trkpt><trkpt lat="44.60254162966636" lon="10.412576470534225"><ele>201.0</ele><time>2026-04-11T12:39:36Z</time></trkpt><trkpt lat="44.602661059182914" lon="10.412582014771703"><ele>201.0</ele><time>2026-04-11T12:39:37Z</time></trkpt><trkpt lat="44.60277889966683" lon="10.412590195955882"><ele>201.0</ele><time>2026-04-11T12:39:38Z</time></trkpt><trkpt lat="44.602896177600115" lon="10.412601159042044"><ele>201.5</ele><time>2026-04-11T12:39:39Z</time></trkpt><trkpt lat="44.60302130502028" lon="10.41261445819874"><ele>202.0</ele><time>2026-04-11T12:39:40Z</time></trkpt><trkpt lat="44.603153449307946" lon="10.412627130386209"><ele>202.5</ele><time>2026-04-11T12:39:41Z</time></trkpt><trkpt lat="44.603289545392634" lon="10.412638768000388"><ele>203.0</ele><time>2026-04-11T12:39:42Z</time></trkpt><trkpt lat="44.60342175515186" lon="10.412655719918959"><ele>203.0</ele><time>2026-04-11T12:39:43Z</time></trkpt><trkpt lat="44.60355291491802" lon="10.412672006297669"><ele>203.0</ele><time>2026-04-11T12:39:44Z</time></trkpt><trkpt lat="44.60369089311618" lon="10.412688506149918"><ele>203.0</ele><time>2026-04-11T12:39:45Z</time></trkpt><trkpt lat="44.60382814515934" lon="10.412707582169514"><ele>203.0</ele><time>2026-04-11T12:39:46Z</time></trkpt><trkpt lat="44.60395706464624" lon="10.412731452493109"><ele>202.25</ele><time>2026-04-11T12:39:47Z</time></trkpt><trkpt lat="44.60407205810328" lon="10.412757896080723"><ele>201.5</ele><time>2026-04-11T12:39:48Z</time></trkpt><trkpt lat="44.604188983984926" lon="10.412786659619053"><ele>200.75</ele><time>2026-04-11T12:39:49Z</time></trkpt><trkpt lat="44.60431157443795" lon="10.412820212370436"><ele>200.0</ele><time>2026-04-11T12:39:50Z</time></trkpt><trkpt lat="44.60443922856319" lon="10.41285620479791"><ele>199.75</ele><time>2026-04-11T12:39:51Z</time></trkpt><trkpt lat="44.604568931581056" lon="10.412891790942732"><ele>199.5</ele><time>2026-04-11T12:39:52Z</time></trkpt><trkpt lat="44.604702280698305" lon="10.412926956571367"><ele>199.25</ele><time>2026-04-11T12:39:53Z</time></trkpt><trkpt lat="44.604838264378415" lon="10.41296633436014"><ele>199.0</ele><time>2026-04-11T12:39:54Z</time></trkpt><trkpt lat="44.60497636182669" lon="10.413008924032939"><ele>199.0</ele><time>2026-04-11T12:39:55.001Z</time></trkpt><trkpt lat="44.60511789567993" lon="10.413047797389263"><ele>199.0</ele><time>2026-04-11T12:39:56.001Z</time></trkpt><trkpt lat="44.60526459030493" lon="10.413086912882822"><ele>199.0</ele><time>2026-04-11T12:39:57.001Z</time></trkpt><trkpt lat="44.60540845123494" lon="10.413130135047592"><ele>199.0</ele><time>2026-04-11T12:39:57.999Z</time></trkpt><trkpt lat="44.60555453348229" lon="10.413170823564004"><ele>199.0</ele><time>2026-04-11T12:39:58.999Z</time></trkpt><trkpt lat="44.6056957367597" lon="10.41321112599493"><ele>199.0</ele><time>2026-04-11T12:39:59.999Z</time></trkpt><trkpt lat="44.60583945684929" lon="10.413248619601745"><ele>199.0</ele><time>2026-04-11T12:40:00.999Z</time></trkpt><trkpt lat="44.605968498836376" lon="10.41328170113757"><ele>199.0</ele><time>2026-04-11T12:40:01.999Z</time></trkpt><trkpt lat="44.606089303693054" lon="10.413319513321634"><ele>198.6</ele><time>2026-04-11T12:40:02.999Z</time></trkpt><trkpt lat="44.606197339650265" lon="10.413348901702115"><ele>198.2</ele><time>2026-04-11T12:40:03.999Z</time></trkpt><trkpt lat="44.606298128641264" lon="10.413381905662975"><ele>197.79999999999998</ele><time>2026-04-11T12:40:04.999Z</time></trkpt><trkpt lat="44.606394947290596" lon="10.413414995298407"><ele>197.39999999999998</ele><time>2026-04-11T12:40:05.999Z</time></trkpt><trkpt lat="44.6065001959265" lon="10.413469598933402"><ele>197.0</ele><time>2026-04-11T12:40:06.999Z</time></trkpt><trkpt lat="44.60660556561825" lon="10.41352914852526"><ele>197.0</ele><time>2026-04-11T12:40:07.999Z</time></trkpt><trkpt lat="44.606705797141316" lon="10.413561144009744"><ele>197.0</ele><time>2026-04-11T12:40:08.999Z</time></trkpt><trkpt lat="44.60680376662321" lon="10.413559168093688"><ele>197.0</ele><time>2026-04-11T12:40:09.999Z</time></trkpt><trkpt lat="44.606896899159416" lon="10.41354833288213"><ele>197.0</ele><time>2026-04-11T12:40:10.999Z</time></trkpt><trkpt lat="44.60698012616377" lon="10.4135584543578"><ele>197.0</ele><time>2026-04-11T12:40:11.999Z</time></trkpt><trkpt lat="44.60705071252843" lon="10.41358298427439"><ele>196.6</ele><time>2026-04-11T12:40:12.999Z</time></trkpt><trkpt lat="44.60713187317536" lon="10.413695161428667"><ele>196.2</ele><time>2026-04-11T12:40:14.999Z</time></trkpt><trkpt lat="44.60720210572268" lon="10.413807058732228"><ele>195.8</ele><time>2026-04-11T12:40:16.999Z</time></trkpt><trkpt lat="44.60725801085473" lon="10.413858694428503"><ele>195.4</ele><time>2026-04-11T12:40:19Z</time></trkpt><trkpt lat="44.60732548110752" lon="10.41383585121684"><ele>195.0</ele><time>2026-04-11T12:40:22Z</time></trkpt><trkpt lat="44.607418195458465" lon="10.413914802454011"><ele>195.0</ele><time>2026-04-11T12:40:29Z</time></trkpt><trkpt lat="44.60731225626279" lon="10.413724829104808"><ele>195.0</ele><time>2026-04-11T12:40:35Z</time></trkpt><trkpt lat="44.607280146269744" lon="10.413878041805932"><ele>195.0</ele><time>2026-04-11T12:40:42Z</time></trkpt><trkpt lat="44.607314913384144" lon="10.413967078722914"><ele>195.0</ele><time>2026-04-11T12:46:41.001Z</time></trkpt><trkpt lat="44.60740964317129" lon="10.41394413433142"><ele>195.0</ele><time>2026-04-11T12:50:48Z</time></trkpt><trkpt lat="44.60747157720191" lon="10.413846959860143"><ele>195.0</ele><time>2026-04-11T12:50:50Z</time></trkpt><trkpt lat="44.60745612666591" lon="10.41375967408506"><ele>195.0</ele><time>2026-04-11T12:50:53Z</time></trkpt><trkpt lat="44.6073677094933" lon="10.413676253353072"><ele>195.0</ele><time>2026-04-11T12:50:58Z</time></trkpt><trkpt lat="44.60725098713648" lon="10.41362957961202"><ele>195.0</ele><time>2026-04-11T12:50:59Z</time></trkpt><trkpt lat="44.607134665561375" lon="10.413601497598034"><ele>195.0</ele><time>2026-04-11T12:51:00Z</time></trkpt><trkpt lat="44.60704293900116" lon="10.413576172500315"><ele>195.0</ele><time>2026-04-11T12:51:01Z</time></trkpt><trkpt lat="44.606971061174896" lon="10.413549386445984"><ele>195.0</ele><time>2026-04-11T12:51:02Z</time></trkpt><trkpt lat="44.60690388249965" lon="10.4135118890492"><ele>195.0</ele><time>2026-04-11T12:51:03Z</time></trkpt><trkpt lat="44.606846157905" lon="10.413462535119145"><ele>195.0</ele><time>2026-04-11T12:51:04Z</time></trkpt><trkpt lat="44.60672717766642" lon="10.413356608567137"><ele>195.0</ele><time>2026-04-11T12:51:06Z</time></trkpt><trkpt lat="44.60664392604263" lon="10.413287979621188"><ele>195.5</ele><time>2026-04-11T12:51:07Z</time></trkpt><trkpt lat="44.60652844946491" lon="10.413325413434514"><ele>196.0</ele><time>2026-04-11T12:51:08Z</time></trkpt><trkpt lat="44.60640723063924" lon="10.413366997752043"><ele>196.5</ele><time>2026-04-11T12:51:09Z</time></trkpt><trkpt lat="44.60627260426234" lon="10.41331793618309"><ele>197.0</ele><time>2026-04-11T12:51:10Z</time></trkpt><trkpt lat="44.606119186067716" lon="10.413303535466177"><ele>197.66666666666669</ele><time>2026-04-11T12:51:11Z</time></trkpt><trkpt lat="44.60595050695366" lon="10.413253268252577"><ele>198.33333333333331</ele><time>2026-04-11T12:51:12Z</time></trkpt><trkpt lat="44.605780065853615" lon="10.413203469907671"><ele>199.0</ele><time>2026-04-11T12:51:13Z</time></trkpt><trkpt lat="44.60560213731864" lon="10.41314950140121"><ele>199.0</ele><time>2026-04-11T12:51:14Z</time></trkpt><trkpt lat="44.605414974799615" lon="10.41309633326704"><ele>199.0</ele><time>2026-04-11T12:51:15Z</time></trkpt><trkpt lat="44.60522455936472" lon="10.413040652438255"><ele>199.0</ele><time>2026-04-11T12:51:16Z</time></trkpt><trkpt lat="44.605032654101585" lon="10.41298346923734"><ele>199.0</ele><time>2026-04-11T12:51:17Z</time></trkpt><trkpt lat="44.60485458414968" lon="10.412932626228148"><ele>199.0</ele><time>2026-04-11T12:51:18Z</time></trkpt><trkpt lat="44.60469396652335" lon="10.41288765878048"><ele>199.0</ele><time>2026-04-11T12:51:19Z</time></trkpt><trkpt lat="44.604555405828755" lon="10.412850262910789"><ele>199.25</ele><time>2026-04-11T12:51:20Z</time></trkpt><trkpt lat="44.60443860653855" lon="10.412818949309514"><ele>199.5</ele><time>2026-04-11T12:51:21Z</time></trkpt><trkpt lat="44.60432561278698" lon="10.412786678132537"><ele>199.75</ele><time>2026-04-11T12:51:22Z</time></trkpt><trkpt lat="44.604218730791715" lon="10.412754126934805"><ele>200.0</ele><time>2026-04-11T12:51:23Z</time></trkpt><trkpt lat="44.604103911977184" lon="10.41272425845672"><ele>200.0</ele><time>2026-04-11T12:51:24Z</time></trkpt><trkpt lat="44.60397609343039" lon="10.412697040827736"><ele>200.0</ele><time>2026-04-11T12:51:25Z</time></trkpt><trkpt lat="44.60383895321551" lon="10.412671372338746"><ele>200.0</ele><time>2026-04-11T12:51:26Z</time></trkpt><trkpt lat="44.60369281789469" lon="10.4126491384986"><ele>200.0</ele><time>2026-04-11T12:51:27Z</time></trkpt><trkpt lat="44.60354041384985" lon="10.412628560627585"><ele>201.0</ele><time>2026-04-11T12:51:28Z</time></trkpt><trkpt lat="44.603384134279736" lon="10.412611800602006"><ele>202.0</ele><time>2026-04-11T12:51:29Z</time></trkpt><trkpt lat="44.60323326123145" lon="10.412596981271028"><ele>203.0</ele><time>2026-04-11T12:51:30Z</time></trkpt><trkpt lat="44.60308749025669" lon="10.412582932338374"><ele>203.0</ele><time>2026-04-11T12:51:31Z</time></trkpt><trkpt lat="44.6029462921151" lon="10.412571454933065"><ele>203.0</ele><time>2026-04-11T12:51:32Z</time></trkpt><trkpt lat="44.60280209267403" lon="10.412561296545672"><ele>203.0</ele><time>2026-04-11T12:51:33Z</time></trkpt><trkpt lat="44.602656342457955" lon="10.412553371993708"><ele>203.0</ele><time>2026-04-11T12:51:34Z</time></trkpt><trkpt lat="44.602509951528766" lon="10.412548839636912"><ele>202.5</ele><time>2026-04-11T12:51:35Z</time></trkpt><trkpt lat="44.60236125799316" lon="10.412545371348882"><ele>202.0</ele><time>2026-04-11T12:51:36Z</time></trkpt><trkpt lat="44.602220738746915" lon="10.412548535564094"><ele>201.5</ele><time>2026-04-11T12:51:37Z</time></trkpt><trkpt lat="44.60208681898928" lon="10.412555424913165"><ele>201.0</ele><time>2026-04-11T12:51:38Z</time></trkpt><trkpt lat="44.60195746064397" lon="10.412563062561503"><ele>199.33333333333331</ele><time>2026-04-11T12:51:39Z</time></trkpt><trkpt lat="44.60183148408124" lon="10.412544425830777"><ele>197.66666666666666</ele><time>2026-04-11T12:51:40Z</time></trkpt><trkpt lat="44.60170579801231" lon="10.412567416889"><ele>196.0</ele><time>2026-04-11T12:51:41Z</time></trkpt><trkpt lat="44.60144393507807" lon="10.412634556956865"><ele>196.0</ele><time>2026-04-11T12:51:43Z</time></trkpt><trkpt lat="44.60131627357757" lon="10.41269475432645"><ele>196.0</ele><time>2026-04-11T12:51:44Z</time></trkpt><trkpt lat="44.6011836683698" lon="10.41272647933571"><ele>196.0</ele><time>2026-04-11T12:51:45Z</time></trkpt><trkpt lat="44.601051795383306" lon="10.412736571564349"><ele>196.0</ele><time>2026-04-11T12:51:46Z</time></trkpt><trkpt lat="44.60092542113682" lon="10.412714536768025"><ele>196.5</ele><time>2026-04-11T12:51:47Z</time></trkpt><trkpt lat="44.60080523371151" lon="10.412663355177513"><ele>197.0</ele><time>2026-04-11T12:51:48Z</time></trkpt><trkpt lat="44.600701096974795" lon="10.412570593007654"><ele>197.5</ele><time>2026-04-11T12:51:49Z</time></trkpt><trkpt lat="44.60060475846863" lon="10.41248539086248"><ele>198.0</ele><time>2026-04-11T12:51:50Z</time></trkpt><trkpt lat="44.60051111093628" lon="10.412419081081858"><ele>198.0</ele><time>2026-04-11T12:51:51Z</time></trkpt><trkpt lat="44.60042337833428" lon="10.412367420147783"><ele>198.0</ele><time>2026-04-11T12:51:52Z</time></trkpt><trkpt lat="44.60034965341495" lon="10.412323811076117"><ele>198.0</ele><time>2026-04-11T12:51:53Z</time></trkpt><trkpt lat="44.600250356802476" lon="10.412232408243622"><ele>198.0</ele><time>2026-04-11T12:51:55Z</time></trkpt><trkpt lat="44.60018830862294" lon="10.412163627871577"><ele>198.0</ele><time>2026-04-11T12:51:56Z</time></trkpt><trkpt lat="44.60011487898871" lon="10.412131422544064"><ele>199.0</ele><time>2026-04-11T12:51:57Z</time></trkpt><trkpt lat="44.60004813987385" lon="10.412162942729301"><ele>200.0</ele><time>2026-04-11T12:51:58Z</time></trkpt><trkpt lat="44.59999483619189" lon="10.412355782075638"><ele>201.0</ele><time>2026-04-11T12:52:00Z</time></trkpt><trkpt lat="44.600089692384515" lon="10.41250098779611"><ele>202.0</ele><time>2026-04-11T12:52:02Z</time></trkpt><trkpt lat="44.60007705754895" lon="10.412656329031766"><ele>201.99999999999997</ele><time>2026-04-11T12:52:04Z</time></trkpt><trkpt lat="44.60002086262536" lon="10.412823464664571"><ele>202.0</ele><time>2026-04-11T12:52:06Z</time></trkpt><trkpt lat="44.59998915593843" lon="10.412913384130764"><ele>202.0</ele><time>2026-04-11T12:52:07Z</time></trkpt><trkpt lat="44.59995995476567" lon="10.413010466083373"><ele>202.0</ele><time>2026-04-11T12:52:08Z</time></trkpt><trkpt lat="44.59992885081865" lon="10.413113696657218"><ele>201.99999999999997</ele><time>2026-04-11T12:52:09Z</time></trkpt><trkpt lat="44.59990177936785" lon="10.413223407496885"><ele>202.0</ele><time>2026-04-11T12:52:10Z</time></trkpt><trkpt lat="44.59987718507841" lon="10.41332702768713"><ele>201.8</ele><time>2026-04-11T12:52:11Z</time></trkpt><trkpt lat="44.59985495356771" lon="10.413438139625077"><ele>201.6</ele><time>2026-04-11T12:52:12Z</time></trkpt><trkpt lat="44.59985091991678" lon="10.41355266742266"><ele>201.4</ele><time>2026-04-11T12:52:13Z</time></trkpt><trkpt lat="44.59982984513001" lon="10.413647657259775"><ele>201.20000000000002</ele><time>2026-04-11T12:52:14Z</time></trkpt><trkpt lat="44.5998014113727" lon="10.413804595899116"><ele>201.0</ele><time>2026-04-11T12:52:16Z</time></trkpt><trkpt lat="44.5997786624463" lon="10.413948448421449"><ele>201.0</ele><time>2026-04-11T12:52:18Z</time></trkpt><trkpt lat="44.59973744062436" lon="10.414107930802105"><ele>201.0</ele><time>2026-04-11T12:52:20Z</time></trkpt><trkpt lat="44.59971422801497" lon="10.414192982821731"><ele>201.0</ele><time>2026-04-11T12:52:21Z</time></trkpt><trkpt lat="44.59968395589" lon="10.414278961518624"><ele>201.0</ele><time>2026-04-11T12:52:22Z</time></trkpt><trkpt lat="44.599655873877815" lon="10.414360483615045"><ele>201.0</ele><time>2026-04-11T12:52:23Z</time></trkpt><trkpt lat="44.59960021103855" lon="10.414496173570063"><ele>201.0</ele><time>2026-04-11T12:52:25Z</time></trkpt><trkpt lat="44.59956225244571" lon="10.41460904087622"><ele>200.83333333333334</ele><time>2026-04-11T12:52:27Z</time></trkpt><trkpt lat="44.59960919443351" lon="10.41469735038418"><ele>200.66666666666669</ele><time>2026-04-11T12:52:29Z</time></trkpt><trkpt lat="44.599711009843226" lon="10.414783692071603"><ele>200.5</ele><time>2026-04-11T12:52:31Z</time></trkpt><trkpt lat="44.59977283040283" lon="10.414814810290496"><ele>200.33333333333334</ele><time>2026-04-11T12:52:32Z</time></trkpt><trkpt lat="44.59982807175497" lon="10.414871239381874"><ele>200.16666666666669</ele><time>2026-04-11T12:52:33Z</time></trkpt><trkpt lat="44.5998818196328" lon="10.414928112434156"><ele>200.0</ele><time>2026-04-11T12:52:34Z</time></trkpt><trkpt lat="44.599942591999294" lon="10.414987447069311"><ele>200.0</ele><time>2026-04-11T12:52:35Z</time></trkpt><trkpt lat="44.60000347897235" lon="10.415036242424566"><ele>200.0</ele><time>2026-04-11T12:52:36Z</time></trkpt><trkpt lat="44.60008914010147" lon="10.415121301803019"><ele>200.0</ele><time>2026-04-11T12:52:38Z</time></trkpt><trkpt lat="44.6000570309009" lon="10.415321341402258"><ele>200.0</ele><time>2026-04-11T12:52:42Z</time></trkpt><trkpt lat="44.600025252572955" lon="10.415412359535821"><ele>200.0</ele><time>2026-04-11T12:52:43Z</time></trkpt><trkpt lat="44.599982162751736" lon="10.415522706491714"><ele>199.5</ele><time>2026-04-11T12:52:44Z</time></trkpt><trkpt lat="44.59993124674253" lon="10.415650295324207"><ele>199.0</ele><time>2026-04-11T12:52:45Z</time></trkpt><trkpt lat="44.59987324393693" lon="10.415790902811423"><ele>198.5</ele><time>2026-04-11T12:52:46Z</time></trkpt><trkpt lat="44.59981375472419" lon="10.415935113555761"><ele>198.0</ele><time>2026-04-11T12:52:47Z</time></trkpt><trkpt lat="44.599751027143554" lon="10.416087174626494"><ele>198.0</ele><time>2026-04-11T12:52:48Z</time></trkpt><trkpt lat="44.599685036009916" lon="10.41624714707774"><ele>198.0</ele><time>2026-04-11T12:52:49Z</time></trkpt><trkpt lat="44.59962093020933" lon="10.416410085568726"><ele>198.0</ele><time>2026-04-11T12:52:50Z</time></trkpt><trkpt lat="44.599561140733385" lon="10.416564804089436"><ele>198.0</ele><time>2026-04-11T12:52:51Z</time></trkpt><trkpt lat="44.59951092213449" lon="10.416707516917949"><ele>198.60000000000002</ele><time>2026-04-11T12:52:52Z</time></trkpt><trkpt lat="44.59946781192872" lon="10.416839717498013"><ele>199.20000000000002</ele><time>2026-04-11T12:52:53Z</time></trkpt><trkpt lat="44.5994247162926" lon="10.416972267862775"><ele>199.8</ele><time>2026-04-11T12:52:54Z</time></trkpt><trkpt lat="44.599381218860124" lon="10.417106054019706"><ele>200.4</ele><time>2026-04-11T12:52:55Z</time></trkpt><trkpt lat="44.59934093750734" lon="10.41722302598284"><ele>201.0</ele><time>2026-04-11T12:52:56Z</time></trkpt><trkpt lat="44.599299299198016" lon="10.417328347936003"><ele>201.0</ele><time>2026-04-11T12:52:57Z</time></trkpt><trkpt lat="44.59925281173372" lon="10.417422901776717"><ele>201.0</ele><time>2026-04-11T12:52:58Z</time></trkpt><trkpt lat="44.59919121722387" lon="10.417516170501022"><ele>201.0</ele><time>2026-04-11T12:53:00Z</time></trkpt><trkpt lat="44.59909966883462" lon="10.417612843908541"><ele>201.0</ele><time>2026-04-11T12:53:02Z</time></trkpt><trkpt lat="44.5990153188206" lon="10.417629112617243"><ele>201.0</ele><time>2026-04-11T12:53:04Z</time></trkpt><trkpt lat="44.598916699111115" lon="10.417648698129268"><ele>201.0</ele><time>2026-04-11T12:53:07Z</time></trkpt><trkpt lat="44.59884114377408" lon="10.417648262475586"><ele>201.0</ele><time>2026-04-11T12:53:08Z</time></trkpt><trkpt lat="44.59875399700774" lon="10.417645117213908"><ele>201.0</ele><time>2026-04-11T12:53:09Z</time></trkpt><trkpt lat="44.598654822253515" lon="10.417644598131032"><ele>201.0</ele><time>2026-04-11T12:53:10Z</time></trkpt><trkpt lat="44.598551847414086" lon="10.41766063165746"><ele>201.0</ele><time>2026-04-11T12:53:11Z</time></trkpt><trkpt lat="44.59845552158192" lon="10.4177070901728"><ele>201.33333333333334</ele><time>2026-04-11T12:53:12Z</time></trkpt><trkpt lat="44.5983777040317" lon="10.417750858260401"><ele>201.66666666666669</ele><time>2026-04-11T12:53:13Z</time></trkpt><trkpt lat="44.59829723579805" lon="10.417806883498692"><ele>202.0</ele><time>2026-04-11T12:53:14Z</time></trkpt><trkpt lat="44.59821757485137" lon="10.41787047288247"><ele>202.33333333333334</ele><time>2026-04-11T12:53:15Z</time></trkpt><trkpt lat="44.59815021267965" lon="10.417928813759124"><ele>202.66666666666669</ele><time>2026-04-11T12:53:16Z</time></trkpt><trkpt lat="44.59809370886337" lon="10.417977925100283"><ele>203.0</ele><time>2026-04-11T12:53:17Z</time></trkpt><trkpt lat="44.59800174786939" lon="10.418080581149768"><ele>203.33333333333334</ele><time>2026-04-11T12:53:19Z</time></trkpt><trkpt lat="44.5979499309791" lon="10.418164882435892"><ele>203.66666666666669</ele><time>2026-04-11T12:53:20Z</time></trkpt><trkpt lat="44.59792893934086" lon="10.418261267694193"><ele>204.0</ele><time>2026-04-11T12:53:21Z</time></trkpt><trkpt lat="44.59788318704153" lon="10.418429588328697"><ele>204.33333333333331</ele><time>2026-04-11T12:53:23Z</time></trkpt><trkpt lat="44.59786268662474" lon="10.418528105517199"><ele>204.66666666666666</ele><time>2026-04-11T12:53:24Z</time></trkpt><trkpt lat="44.59785142701584" lon="10.418639536255654"><ele>205.0</ele><time>2026-04-11T12:53:25Z</time></trkpt><trkpt lat="44.597826102191284" lon="10.418762425905415"><ele>205.66666666666666</ele><time>2026-04-11T12:53:26Z</time></trkpt><trkpt lat="44.59780845227119" lon="10.418889897554088"><ele>206.33333333333331</ele><time>2026-04-11T12:53:27Z</time></trkpt><trkpt lat="44.597793113846336" lon="10.41900067505967"><ele>207.0</ele><time>2026-04-11T12:53:28Z</time></trkpt><trkpt lat="44.59777732660167" lon="10.419110999260868"><ele>207.66666666666669</ele><time>2026-04-11T12:53:29Z</time></trkpt><trkpt lat="44.59776272035824" lon="10.419229454929168"><ele>208.33333333333334</ele><time>2026-04-11T12:53:30Z</time></trkpt><trkpt lat="44.597743933329156" lon="10.41934825249471"><ele>209.0</ele><time>2026-04-11T12:53:31Z</time></trkpt><trkpt lat="44.597728222230344" lon="10.419454211552509"><ele>209.0</ele><time>2026-04-11T12:53:32Z</time></trkpt><trkpt lat="44.597715781695626" lon="10.419545487083528"><ele>209.0</ele><time>2026-04-11T12:53:33Z</time></trkpt><trkpt lat="44.59770881008381" lon="10.419636262159239"><ele>209.0</ele><time>2026-04-11T12:53:34Z</time></trkpt><trkpt lat="44.59770116855477" lon="10.419725393248566"><ele>209.0</ele><time>2026-04-11T12:53:35Z</time></trkpt><trkpt lat="44.597687498761104" lon="10.419816594530609"><ele>209.0</ele><time>2026-04-11T12:53:36Z</time></trkpt><trkpt lat="44.59767217126725" lon="10.419920188286163"><ele>209.0</ele><time>2026-04-11T12:53:37Z</time></trkpt><trkpt lat="44.59765220408919" lon="10.42003234524934"><ele>209.0</ele><time>2026-04-11T12:53:38Z</time></trkpt><trkpt lat="44.59761783711133" lon="10.420153717297758"><ele>209.0</ele><time>2026-04-11T12:53:39Z</time></trkpt><trkpt lat="44.597575023050126" lon="10.420274238021605"><ele>209.0</ele><time>2026-04-11T12:53:40Z</time></trkpt><trkpt lat="44.59752146429014" lon="10.420390068691711"><ele>209.0</ele><time>2026-04-11T12:53:41Z</time></trkpt><trkpt lat="44.597462485574745" lon="10.42050805259407"><ele>209.0</ele><time>2026-04-11T12:53:42Z</time></trkpt><trkpt lat="44.59741075123878" lon="10.420613280310294"><ele>209.0</ele><time>2026-04-11T12:53:43Z</time></trkpt><trkpt lat="44.59736259908989" lon="10.420706931725988"><ele>209.16666666666669</ele><time>2026-04-11T12:53:44Z</time></trkpt><trkpt lat="44.59730769153748" lon="10.420798633568586"><ele>209.33333333333334</ele><time>2026-04-11T12:53:45Z</time></trkpt><trkpt lat="44.59724340652832" lon="10.420879447771233"><ele>209.5</ele><time>2026-04-11T12:53:46Z</time></trkpt><trkpt lat="44.59717596362937" lon="10.420942139799633"><ele>209.66666666666669</ele><time>2026-04-11T12:53:47Z</time></trkpt><trkpt lat="44.597099935982584" lon="10.420972640986603"><ele>209.83333333333334</ele><time>2026-04-11T12:53:48Z</time></trkpt><trkpt lat="44.59703740237168" lon="10.421013733711568"><ele>210.0</ele><time>2026-04-11T12:53:49Z</time></trkpt><trkpt lat="44.59697076802461" lon="10.421054837819824"><ele>210.33333333333334</ele><time>2026-04-11T12:53:50Z</time></trkpt><trkpt lat="44.59685426405613" lon="10.421116721815324"><ele>210.66666666666669</ele><time>2026-04-11T12:53:52Z</time></trkpt><trkpt lat="44.596792309572976" lon="10.421149346913417"><ele>211.0</ele><time>2026-04-11T12:53:53Z</time></trkpt><trkpt lat="44.59672954146742" lon="10.421195981936382"><ele>211.33333333333334</ele><time>2026-04-11T12:53:54Z</time></trkpt><trkpt lat="44.59665239400242" lon="10.421208479309954"><ele>211.66666666666669</ele><time>2026-04-11T12:53:55Z</time></trkpt><trkpt lat="44.59657368242564" lon="10.421223444584427"><ele>212.0</ele><time>2026-04-11T12:53:56Z</time></trkpt><trkpt lat="44.596483764232985" lon="10.4212469512241"><ele>212.0</ele><time>2026-04-11T12:53:57Z</time></trkpt><trkpt lat="44.596394494579414" lon="10.421276972157058"><ele>212.0</ele><time>2026-04-11T12:53:58Z</time></trkpt><trkpt lat="44.59630208458674" lon="10.421322502789462"><ele>212.0</ele><time>2026-04-11T12:53:59Z</time></trkpt><trkpt lat="44.596222732451054" lon="10.421384850700672"><ele>212.0</ele><time>2026-04-11T12:54:00Z</time></trkpt><trkpt lat="44.596148347195005" lon="10.421443709653518"><ele>212.0</ele><time>2026-04-11T12:54:01Z</time></trkpt><trkpt lat="44.59609477254538" lon="10.421542586987675"><ele>213.00000000000003</ele><time>2026-04-11T12:54:02.001Z</time></trkpt><trkpt lat="44.59604975228712" lon="10.421638659703184"><ele>214.0</ele><time>2026-04-11T12:54:03.001Z</time></trkpt><trkpt lat="44.596028264172105" lon="10.421732445077954"><ele>215.0</ele><time>2026-04-11T12:54:04.001Z</time></trkpt><trkpt lat="44.59598926443055" lon="10.421858485604332"><ele>216.0</ele><time>2026-04-11T12:54:06.001Z</time></trkpt><trkpt lat="44.59598433892021" lon="10.421967022844873"><ele>217.00000000000003</ele><time>2026-04-11T12:54:08.001Z</time></trkpt><trkpt lat="44.59594463227555" lon="10.422044056232085"><ele>218.0</ele><time>2026-04-11T12:54:19.001Z</time></trkpt><trkpt lat="44.595826518284284" lon="10.422055652912332"><ele>218.00000000000003</ele><time>2026-04-11T12:54:20.001Z</time></trkpt><trkpt lat="44.59576735356686" lon="10.422104618338777"><ele>218.0</ele><time>2026-04-11T12:54:21.001Z</time></trkpt><trkpt lat="44.59569517232015" lon="10.422121355714179"><ele>218.0</ele><time>2026-04-11T12:54:22.001Z</time></trkpt><trkpt lat="44.595621821597206" lon="10.422155977482491"><ele>218.0</ele><time>2026-04-11T12:54:23.001Z</time></trkpt><trkpt lat="44.59553591651609" lon="10.42219333545617"><ele>218.00000000000003</ele><time>2026-04-11T12:54:24.001Z</time></trkpt><trkpt lat="44.59544766786788" lon="10.422232121352138"><ele>218.0</ele><time>2026-04-11T12:54:25.001Z</time></trkpt><trkpt lat="44.59536802796005" lon="10.422271764060547"><ele>217.33333333333334</ele><time>2026-04-11T12:54:26.001Z</time></trkpt><trkpt lat="44.59530865685733" lon="10.422305599853017"><ele>216.66666666666669</ele><time>2026-04-11T12:54:27.001Z</time></trkpt><trkpt lat="44.59525709940669" lon="10.422365646152882"><ele>216.0</ele><time>2026-04-11T12:54:29.001Z</time></trkpt><trkpt lat="44.595324832445144" lon="10.422450018356335"><ele>215.33333333333331</ele><time>2026-04-11T12:54:31.001Z</time></trkpt><trkpt lat="44.59538804982749" lon="10.422484322660338"><ele>214.66666666666666</ele><time>2026-04-11T12:55:09.999Z</time></trkpt><trkpt lat="44.595370484575724" lon="10.422580907284747"><ele>214.0</ele><time>2026-04-11T12:55:25.999Z</time></trkpt><trkpt lat="44.59528217020933" lon="10.422618502474352"><ele>215.66666666666666</ele><time>2026-04-11T12:55:27.999Z</time></trkpt><trkpt lat="44.595204618300336" lon="10.42263435935969"><ele>217.33333333333331</ele><time>2026-04-11T12:55:29.999Z</time></trkpt><trkpt lat="44.59517812414713" lon="10.422736121168278"><ele>219.0</ele><time>2026-04-11T12:55:31.999Z</time></trkpt><trkpt lat="44.59516755884864" lon="10.422868410644142"><ele>220.66666666666669</ele><time>2026-04-11T12:55:33.999Z</time></trkpt><trkpt lat="44.595155558909596" lon="10.42295719292179"><ele>222.33333333333334</ele><time>2026-04-11T12:55:35.999Z</time></trkpt><trkpt lat="44.5951074827274" lon="10.423065627735118"><ele>224.0</ele><time>2026-04-11T12:55:37.999Z</time></trkpt><trkpt lat="44.59503220180021" lon="10.423168681966656"><ele>225.39999999999998</ele><time>2026-04-11T12:55:39.999Z</time></trkpt><trkpt lat="44.59496522361402" lon="10.42322405870784"><ele>226.79999999999998</ele><time>2026-04-11T12:55:42Z</time></trkpt><trkpt lat="44.59487637649341" lon="10.423278143569586"><ele>228.20000000000002</ele><time>2026-04-11T12:55:44Z</time></trkpt><trkpt lat="44.5947961754776" lon="10.423333592741841"><ele>229.60000000000002</ele><time>2026-04-11T12:55:46Z</time></trkpt><trkpt lat="44.59471114123248" lon="10.42339126822091"><ele>231.0</ele><time>2026-04-11T12:55:48Z</time></trkpt><trkpt lat="44.594605757435076" lon="10.423459425858757"><ele>231.0</ele><time>2026-04-11T12:55:50Z</time></trkpt><trkpt lat="44.59452140924018" lon="10.423541028013473"><ele>231.00000000000003</ele><time>2026-04-11T12:55:52Z</time></trkpt><trkpt lat="44.59442161863484" lon="10.423577871207618"><ele>231.00000000000003</ele><time>2026-04-11T12:55:54Z</time></trkpt><trkpt lat="44.59431094758461" lon="10.423651208812341"><ele>231.0</ele><time>2026-04-11T12:55:56Z</time></trkpt><trkpt lat="44.59420217027473" lon="10.423698165245671"><ele>231.0</ele><time>2026-04-11T12:55:58Z</time></trkpt><trkpt lat="44.594096786530386" lon="10.423767862175882"><ele>236.60000000000002</ele><time>2026-04-11T12:56:00Z</time></trkpt><trkpt lat="44.594010856442075" lon="10.423834610172138"><ele>242.20000000000002</ele><time>2026-04-11T12:56:02Z</time></trkpt><trkpt lat="44.593933172920735" lon="10.423928692168454"><ele>247.79999999999998</ele><time>2026-04-11T12:56:04Z</time></trkpt><trkpt lat="44.59383816362136" lon="10.424000458545553"><ele>253.39999999999998</ele><time>2026-04-11T12:56:06Z</time></trkpt><trkpt lat="44.59374060848653" lon="10.424085429231237"><ele>259.0</ele><time>2026-04-11T12:56:08Z</time></trkpt><trkpt lat="44.59364479779295" lon="10.42418112190984"><ele>260.3333333333333</ele><time>2026-04-11T12:56:10Z</time></trkpt><trkpt lat="44.593584652535554" lon="10.424250311315758"><ele>261.66666666666663</ele><time>2026-04-11T12:56:12Z</time></trkpt><trkpt lat="44.5935110905255" lon="10.424310439128691"><ele>263.0</ele><time>2026-04-11T12:56:14Z</time></trkpt><trkpt lat="44.59345115881169" lon="10.424348266604985"><ele>264.3333333333333</ele><time>2026-04-11T12:56:15Z</time></trkpt><trkpt lat="44.59339245416716" lon="10.424385278142784"><ele>265.6666666666667</ele><time>2026-04-11T12:56:16Z</time></trkpt><trkpt lat="44.593291742443" lon="10.424429818688003"><ele>267.0</ele><time>2026-04-11T12:56:18Z</time></trkpt><trkpt lat="44.5931934118995" lon="10.424473639029406"><ele>267.0</ele><time>2026-04-11T12:56:20Z</time></trkpt><trkpt lat="44.59307944449226" lon="10.424487224437481"><ele>267.0</ele><time>2026-04-11T12:56:22Z</time></trkpt><trkpt lat="44.59297373578994" lon="10.424534336058933"><ele>267.0</ele><time>2026-04-11T12:56:24Z</time></trkpt><trkpt lat="44.59286225208567" lon="10.424602795871406"><ele>267.0</ele><time>2026-04-11T12:56:26Z</time></trkpt><trkpt lat="44.59276186158433" lon="10.424725181495454"><ele>269.8333333333333</ele><time>2026-04-11T12:56:28Z</time></trkpt><trkpt lat="44.592710382699956" lon="10.424786703513584"><ele>272.6666666666667</ele><time>2026-04-11T12:56:29Z</time></trkpt><trkpt lat="44.592655525139264" lon="10.424847632189504"><ele>275.5</ele><time>2026-04-11T12:56:30Z</time></trkpt><trkpt lat="44.592600929042206" lon="10.424907422989651"><ele>278.33333333333337</ele><time>2026-04-11T12:56:31Z</time></trkpt><trkpt lat="44.5924802736824" lon="10.424917951936658"><ele>281.1666666666667</ele><time>2026-04-11T12:56:33Z</time></trkpt><trkpt lat="44.59235991300224" lon="10.424918375760662"><ele>284.0</ele><time>2026-04-11T12:56:35Z</time></trkpt><trkpt lat="44.592279243511335" lon="10.424928904160627"><ele>284.0</ele><time>2026-04-11T12:56:36Z</time></trkpt><trkpt lat="44.5921993393001" lon="10.424947195141982"><ele>284.0</ele><time>2026-04-11T12:56:37Z</time></trkpt><trkpt lat="44.592129095169554" lon="10.424980726536194"><ele>284.0</ele><time>2026-04-11T12:56:38Z</time></trkpt><trkpt lat="44.59205592205364" lon="10.424997798514749"><ele>284.0</ele><time>2026-04-11T12:56:39Z</time></trkpt><trkpt lat="44.59198437448448" lon="10.425017302773922"><ele>284.0</ele><time>2026-04-11T12:56:40Z</time></trkpt><trkpt lat="44.591907716041774" lon="10.425041821663841"><ele>284.0</ele><time>2026-04-11T12:56:41Z</time></trkpt><trkpt lat="44.591833757138744" lon="10.425038597982276"><ele>285.7142857142857</ele><time>2026-04-11T12:56:42Z</time></trkpt><trkpt lat="44.591763881010756" lon="10.42505439536296"><ele>287.4285714285714</ele><time>2026-04-11T12:56:43Z</time></trkpt><trkpt lat="44.59169287811471" lon="10.425092602261946"><ele>289.1428571428571</ele><time>2026-04-11T12:56:43.999Z</time></trkpt><trkpt lat="44.591615683503484" lon="10.425079699423154"><ele>290.85714285714283</ele><time>2026-04-11T12:56:44.999Z</time></trkpt><trkpt lat="44.591539273104694" lon="10.425098933831187"><ele>292.57142857142856</ele><time>2026-04-11T12:56:45.999Z</time></trkpt><trkpt lat="44.59146322285593" lon="10.425104371439142"><ele>294.2857142857143</ele><time>2026-04-11T12:56:46.999Z</time></trkpt><trkpt lat="44.5913930809014" lon="10.425116340219931"><ele>296.0</ele><time>2026-04-11T12:56:47.999Z</time></trkpt><trkpt lat="44.591319501009714" lon="10.425131194381102"><ele>296.0</ele><time>2026-04-11T12:56:48.999Z</time></trkpt><trkpt lat="44.59125562995018" lon="10.425150762289919"><ele>296.0</ele><time>2026-04-11T12:56:49.999Z</time></trkpt><trkpt lat="44.59118080714459" lon="10.42516940913936"><ele>296.0</ele><time>2026-04-11T12:56:50.999Z</time></trkpt><trkpt lat="44.59110549216674" lon="10.42517835526697"><ele>296.0</ele><time>2026-04-11T12:56:51.999Z</time></trkpt><trkpt lat="44.591042821160976" lon="10.42519643071197"><ele>296.0</ele><time>2026-04-11T12:56:52.999Z</time></trkpt><trkpt lat="44.59097515118403" lon="10.425221328911682"><ele>296.0</ele><time>2026-04-11T12:56:53.999Z</time></trkpt><trkpt lat="44.59090485432819" lon="10.425255749149855"><ele>296.0</ele><time>2026-04-11T12:56:54.999Z</time></trkpt><trkpt lat="44.59083762402663" lon="10.425298990578765"><ele>298.14285714285717</ele><time>2026-04-11T12:56:55.999Z</time></trkpt><trkpt lat="44.59077390361759" lon="10.42534623367622"><ele>300.2857142857143</ele><time>2026-04-11T12:56:56.999Z</time></trkpt><trkpt lat="44.5907142818072" lon="10.42539145124895"><ele>302.42857142857144</ele><time>2026-04-11T12:56:57.999Z</time></trkpt><trkpt lat="44.590656541571285" lon="10.425436744856578"><ele>304.57142857142856</ele><time>2026-04-11T12:56:58.999Z</time></trkpt><trkpt lat="44.590593857546295" lon="10.42547924583508"><ele>306.7142857142857</ele><time>2026-04-11T12:56:59.999Z</time></trkpt><trkpt lat="44.59052783109034" lon="10.42547623338365"><ele>308.85714285714283</ele><time>2026-04-11T12:57:00.999Z</time></trkpt><trkpt lat="44.59045382411249" lon="10.425498760892607"><ele>311.0</ele><time>2026-04-11T12:57:01.999Z</time></trkpt><trkpt lat="44.59035930250055" lon="10.425560841899953"><ele>314.33333333333337</ele><time>2026-04-11T12:57:03.999Z</time></trkpt><trkpt lat="44.59030131626418" lon="10.42559879951465"><ele>317.6666666666667</ele><time>2026-04-11T12:57:04.999Z</time></trkpt><trkpt lat="44.590242754194016" lon="10.425632099998111"><ele>321.0</ele><time>2026-04-11T12:57:05.999Z</time></trkpt><trkpt lat="44.59018609125647" lon="10.425670753997428"><ele>324.3333333333333</ele><time>2026-04-11T12:57:06.999Z</time></trkpt><trkpt lat="44.590124911564914" lon="10.4256927255013"><ele>327.66666666666663</ele><time>2026-04-11T12:57:07.999Z</time></trkpt><trkpt lat="44.590039165565045" lon="10.425751342835056"><ele>331.0</ele><time>2026-04-11T12:57:09.999Z</time></trkpt><trkpt lat="44.589958572296204" lon="10.425849719318213"><ele>331.0</ele><time>2026-04-11T12:57:12.999Z</time></trkpt><trkpt lat="44.58988393330532" lon="10.425978543071107"><ele>331.0</ele><time>2026-04-11T12:57:14.999Z</time></trkpt><trkpt lat="44.58978280434504" lon="10.426061509494549"><ele>331.0</ele><time>2026-04-11T12:57:16.999Z</time></trkpt><trkpt lat="44.58968930923961" lon="10.426092968682221"><ele>331.0</ele><time>2026-04-11T12:57:19Z</time></trkpt><trkpt lat="44.58959596819025" lon="10.426076274298282"><ele>331.0</ele><time>2026-04-11T12:57:21Z</time></trkpt><trkpt lat="44.58948092766821" lon="10.426073448021294"><ele>333.0</ele><time>2026-04-11T12:57:23Z</time></trkpt><trkpt lat="44.5894175841027" lon="10.426070625468688"><ele>335.0</ele><time>2026-04-11T12:57:24Z</time></trkpt><trkpt lat="44.58935426367174" lon="10.426065151274317"><ele>337.0</ele><time>2026-04-11T12:57:25Z</time></trkpt><trkpt lat="44.58929696001144" lon="10.426139584731741"><ele>339.0</ele><time>2026-04-11T12:57:26Z</time></trkpt><trkpt lat="44.58919498691292" lon="10.426143463385534"><ele>341.0</ele><time>2026-04-11T12:57:28Z</time></trkpt><trkpt lat="44.58912465319697" lon="10.426126008954691"><ele>343.0</ele><time>2026-04-11T12:57:31Z</time></trkpt><trkpt lat="44.58905790939999" lon="10.426081023705812"><ele>343.0</ele><time>2026-04-11T12:57:32Z</time></trkpt><trkpt lat="44.588966171133144" lon="10.426044942074189"><ele>343.0</ele><time>2026-04-11T12:57:33Z</time></trkpt><trkpt lat="44.588867017712204" lon="10.42601887582728"><ele>343.0</ele><time>2026-04-11T12:57:34Z</time></trkpt><trkpt lat="44.588775258356655" lon="10.425967367875264"><ele>343.0</ele><time>2026-04-11T12:57:35Z</time></trkpt><trkpt lat="44.58867960118397" lon="10.425978186352776"><ele>343.0</ele><time>2026-04-11T12:57:36Z</time></trkpt><trkpt lat="44.58860077827228" lon="10.425964647848271"><ele>344.59999999999997</ele><time>2026-04-11T12:57:37Z</time></trkpt><trkpt lat="44.58850886153316" lon="10.425934757099963"><ele>346.2</ele><time>2026-04-11T12:57:39Z</time></trkpt><trkpt lat="44.58840440060358" lon="10.425894722524339"><ele>347.8</ele><time>2026-04-11T12:58:37Z</time></trkpt><trkpt lat="44.58831463567841" lon="10.425855486041009"><ele>349.4</ele><time>2026-04-11T12:58:38Z</time></trkpt><trkpt lat="44.58822134102126" lon="10.425842238687641"><ele>351.0</ele><time>2026-04-11T12:58:39Z</time></trkpt><trkpt lat="44.58812328453601" lon="10.425824011449503"><ele>351.0</ele><time>2026-04-11T12:58:40Z</time></trkpt><trkpt lat="44.58802500612702" lon="10.425804399928126"><ele>351.0</ele><time>2026-04-11T12:58:41Z</time></trkpt><trkpt lat="44.58793691139543" lon="10.425786477892128"><ele>351.0</ele><time>2026-04-11T12:58:42Z</time></trkpt><trkpt lat="44.587857032370174" lon="10.42576896829696"><ele>351.0</ele><time>2026-04-11T12:58:43Z</time></trkpt><trkpt lat="44.58778552479782" lon="10.425758526536839"><ele>351.0</ele><time>2026-04-11T12:58:44Z</time></trkpt><trkpt lat="44.58771541161604" lon="10.425765250144389"><ele>351.0</ele><time>2026-04-11T12:58:45Z</time></trkpt><trkpt lat="44.58764584718803" lon="10.425755304445401"><ele>352.7142857142857</ele><time>2026-04-11T12:58:46Z</time></trkpt><trkpt lat="44.5875810216781" lon="10.425750118797986"><ele>354.42857142857144</ele><time>2026-04-11T12:58:47Z</time></trkpt><trkpt lat="44.587518006660396" lon="10.425732770385979"><ele>356.1428571428571</ele><time>2026-04-11T12:58:48Z</time></trkpt><trkpt lat="44.58744343140135" lon="10.425728272226236"><ele>357.8571428571429</ele><time>2026-04-11T12:58:49Z</time></trkpt><trkpt lat="44.58737246482491" lon="10.425710396710995"><ele>359.57142857142856</ele><time>2026-04-11T12:58:49.999Z</time></trkpt><trkpt lat="44.58730327305521" lon="10.425694423762804"><ele>361.2857142857143</ele><time>2026-04-11T12:58:50.999Z</time></trkpt><trkpt lat="44.58722525279855" lon="10.42567947429038"><ele>363.0</ele><time>2026-04-11T12:58:51.999Z</time></trkpt><trkpt lat="44.587158323102955" lon="10.425671824251603"><ele>363.0</ele><time>2026-04-11T12:58:52.999Z</time></trkpt><trkpt lat="44.58709489148917" lon="10.425671342824762"><ele>363.0</ele><time>2026-04-11T12:58:53.999Z</time></trkpt><trkpt lat="44.58702451060413" lon="10.42568640470929"><ele>363.0</ele><time>2026-04-11T12:58:54.999Z</time></trkpt><trkpt lat="44.586948617674885" lon="10.425711654305442"><ele>363.0</ele><time>2026-04-11T12:58:55.999Z</time></trkpt><trkpt lat="44.58685982246926" lon="10.425743265419007"><ele>363.0</ele><time>2026-04-11T12:58:56.999Z</time></trkpt><trkpt lat="44.58677730961899" lon="10.425798658943531"><ele>363.0</ele><time>2026-04-11T12:58:57.999Z</time></trkpt><trkpt lat="44.586690404299645" lon="10.425867058092322"><ele>365.5</ele><time>2026-04-11T12:58:58.999Z</time></trkpt><trkpt lat="44.58661998632161" lon="10.425931581481361"><ele>368.0</ele><time>2026-04-11T12:58:59.999Z</time></trkpt><trkpt lat="44.58655570416545" lon="10.425977525739881"><ele>370.5</ele><time>2026-04-11T12:59:00.999Z</time></trkpt><trkpt lat="44.58649098188738" lon="10.426031687535778"><ele>373.0</ele><time>2026-04-11T12:59:01.999Z</time></trkpt><trkpt lat="44.586413281547465" lon="10.426107669676174"><ele>375.5</ele><time>2026-04-11T12:59:02.999Z</time></trkpt><trkpt lat="44.5863152902891" lon="10.426172265217035"><ele>378.0</ele><time>2026-04-11T12:59:03.999Z</time></trkpt><trkpt lat="44.58624084965243" lon="10.42623227822113"><ele>380.79999999999995</ele><time>2026-04-11T12:59:04.999Z</time></trkpt><trkpt lat="44.586143580573854" lon="10.426275165571877"><ele>383.6</ele><time>2026-04-11T12:59:06.999Z</time></trkpt><trkpt lat="44.58604756348267" lon="10.426299560258814"><ele>386.4</ele><time>2026-04-11T12:59:08.999Z</time></trkpt><trkpt lat="44.585925478583796" lon="10.426284827629212"><ele>389.20000000000005</ele><time>2026-04-11T12:59:10.999Z</time></trkpt><trkpt lat="44.58586002027726" lon="10.426283815789573"><ele>392.0</ele><time>2026-04-11T12:59:11.999Z</time></trkpt><trkpt lat="44.585785424469535" lon="10.426280341815428"><ele>391.99999999999994</ele><time>2026-04-11T12:59:12.999Z</time></trkpt><trkpt lat="44.58571955790638" lon="10.426295098573538"><ele>392.0</ele><time>2026-04-11T12:59:13.999Z</time></trkpt><trkpt lat="44.58564233360639" lon="10.42628670811052"><ele>392.0</ele><time>2026-04-11T12:59:14.999Z</time></trkpt><trkpt lat="44.58556958941445" lon="10.426279462562603"><ele>392.0</ele><time>2026-04-11T12:59:16Z</time></trkpt><trkpt lat="44.58549687066147" lon="10.426266506155569"><ele>391.99999999999994</ele><time>2026-04-11T12:59:17Z</time></trkpt><trkpt lat="44.58540714713917" lon="10.426254620739629"><ele>392.0</ele><time>2026-04-11T12:59:18Z</time></trkpt><trkpt lat="44.5853165473116" lon="10.42624080605771"><ele>392.66666666666663</ele><time>2026-04-11T12:59:19Z</time></trkpt><trkpt lat="44.585241617172485" lon="10.42623229778115"><ele>393.3333333333333</ele><time>2026-04-11T12:59:20Z</time></trkpt><trkpt lat="44.585178516244554" lon="10.426212534166309"><ele>394.0</ele><time>2026-04-11T12:59:21Z</time></trkpt><trkpt lat="44.58511311886957" lon="10.426171897301616"><ele>394.66666666666663</ele><time>2026-04-11T12:59:22Z</time></trkpt><trkpt lat="44.58505102760161" lon="10.426124720288671"><ele>395.3333333333333</ele><time>2026-04-11T12:59:23Z</time></trkpt><trkpt lat="44.584921680757745" lon="10.426100854771342"><ele>396.0</ele><time>2026-04-11T12:59:25Z</time></trkpt><trkpt lat="44.58486117124798" lon="10.426127730197896"><ele>396.0</ele><time>2026-04-11T12:59:25.999Z</time></trkpt><trkpt lat="44.58478991427149" lon="10.426184550393215"><ele>396.0</ele><time>2026-04-11T12:59:27.999Z</time></trkpt><trkpt lat="44.58466388677024" lon="10.426402441196613"><ele>396.0</ele><time>2026-04-11T12:59:30.999Z</time></trkpt><trkpt lat="44.5846195361836" lon="10.42647093154397"><ele>396.0</ele><time>2026-04-11T12:59:31.999Z</time></trkpt><trkpt lat="44.584566286724645" lon="10.426526887243547"><ele>396.0</ele><time>2026-04-11T12:59:33.999Z</time></trkpt><trkpt lat="44.584499573099286" lon="10.426587778081847"><ele>397.8</ele><time>2026-04-11T12:59:38.999Z</time></trkpt><trkpt lat="44.58446188085923" lon="10.426663816527544"><ele>399.6</ele><time>2026-04-11T12:59:40.999Z</time></trkpt><trkpt lat="44.58436491284798" lon="10.426757445212804"><ele>401.4</ele><time>2026-04-11T12:59:52.999Z</time></trkpt><trkpt lat="44.58429118944725" lon="10.426837705857652"><ele>403.2</ele><time>2026-04-11T12:59:53.999Z</time></trkpt><trkpt lat="44.584222876349614" lon="10.426917631258284"><ele>405.0</ele><time>2026-04-11T12:59:54.999Z</time></trkpt><trkpt lat="44.58414803763124" lon="10.427001851432218"><ele>405.0</ele><time>2026-04-11T12:59:55.999Z</time></trkpt><trkpt lat="44.58409081482345" lon="10.427072939148337"><ele>405.0</ele><time>2026-04-11T12:59:56.999Z</time></trkpt><trkpt lat="44.58402859026806" lon="10.427112078736284"><ele>405.0</ele><time>2026-04-11T12:59:57.999Z</time></trkpt><trkpt lat="44.583936006708306" lon="10.427184323582539"><ele>405.0</ele><time>2026-04-11T12:59:59.999Z</time></trkpt><trkpt lat="44.58383679766547" lon="10.42724151463826"><ele>405.0</ele><time>2026-04-11T13:00:01.999Z</time></trkpt><trkpt lat="44.58371001514668" lon="10.427282301438114"><ele>407.4</ele><time>2026-04-11T13:00:03.999Z</time></trkpt><trkpt lat="44.58362997287481" lon="10.42734955366009"><ele>409.8</ele><time>2026-04-11T13:00:05.999Z</time></trkpt><trkpt lat="44.583570176234495" lon="10.427321646647279"><ele>412.20000000000005</ele><time>2026-04-11T13:00:08.999Z</time></trkpt><trkpt lat="44.583493984574005" lon="10.427269475880527"><ele>414.6</ele><time>2026-04-11T13:00:10.999Z</time></trkpt><trkpt lat="44.5833994071007" lon="10.427174222957891"><ele>417.0</ele><time>2026-04-11T13:00:12.999Z</time></trkpt><trkpt lat="44.58330253837094" lon="10.427070736422987"><ele>418.0</ele><time>2026-04-11T13:00:14.999Z</time></trkpt><trkpt lat="44.58322857491232" lon="10.426943537036145"><ele>419.0</ele><time>2026-04-11T13:00:16.999Z</time></trkpt><trkpt lat="44.583173277746845" lon="10.426846538628102"><ele>420.0</ele><time>2026-04-11T13:00:18.999Z</time></trkpt><trkpt lat="44.58311580262989" lon="10.42676337993001"><ele>421.0</ele><time>2026-04-11T13:00:21Z</time></trkpt><trkpt lat="44.5830363568729" lon="10.426710354309057"><ele>422.0</ele><time>2026-04-11T13:00:23Z</time></trkpt><trkpt lat="44.582927066965034" lon="10.426683235789781"><ele>424.40000000000003</ele><time>2026-04-11T13:00:25Z</time></trkpt><trkpt lat="44.58280574201679" lon="10.426636424425306"><ele>426.8</ele><time>2026-04-11T13:00:27Z</time></trkpt><trkpt lat="44.58273273488739" lon="10.426623569642528"><ele>429.2</ele><time>2026-04-11T13:00:28Z</time></trkpt><trkpt lat="44.58265244306581" lon="10.426604633692317"><ele>431.6</ele><time>2026-04-11T13:00:29Z</time></trkpt><trkpt lat="44.58256413559997" lon="10.426578760783048"><ele>434.0</ele><time>2026-04-11T13:00:30Z</time></trkpt><trkpt lat="44.58247390708436" lon="10.426545642052885"><ele>434.0</ele><time>2026-04-11T13:00:31Z</time></trkpt><trkpt lat="44.58237913284295" lon="10.42651458161696"><ele>434.0</ele><time>2026-04-11T13:00:32Z</time></trkpt><trkpt lat="44.5822841639194" lon="10.42649595942152"><ele>434.0</ele><time>2026-04-11T13:00:33Z</time></trkpt><trkpt lat="44.5821969786756" lon="10.426487848127978"><ele>434.0</ele><time>2026-04-11T13:00:34Z</time></trkpt><trkpt lat="44.5821290858518" lon="10.426489017765949"><ele>434.0</ele><time>2026-04-11T13:00:35Z</time></trkpt><trkpt lat="44.58199583088594" lon="10.42647514876972"><ele>434.49999999999994</ele><time>2026-04-11T13:00:37Z</time></trkpt><trkpt lat="44.58192051607455" lon="10.426460860800589"><ele>435.0</ele><time>2026-04-11T13:00:38Z</time></trkpt><trkpt lat="44.58178405428419" lon="10.426438786475037"><ele>435.5</ele><time>2026-04-11T13:00:40Z</time></trkpt><trkpt lat="44.5817155658569" lon="10.42640145215885"><ele>436.0</ele><time>2026-04-11T13:00:41Z</time></trkpt><trkpt lat="44.581656168772525" lon="10.426351197054723"><ele>436.49999999999994</ele><time>2026-04-11T13:00:42Z</time></trkpt><trkpt lat="44.581607089837874" lon="10.426292388396723"><ele>437.0</ele><time>2026-04-11T13:00:43Z</time></trkpt><trkpt lat="44.5815517558904" lon="10.426221549230942"><ele>436.99999999999994</ele><time>2026-04-11T13:00:45Z</time></trkpt><trkpt lat="44.581472401987" lon="10.426256481844018"><ele>437.0</ele><time>2026-04-11T13:00:47Z</time></trkpt><trkpt lat="44.581383149368236" lon="10.426320650914292"><ele>437.0</ele><time>2026-04-11T13:00:49Z</time></trkpt><trkpt lat="44.581327472346445" lon="10.426363095764088"><ele>437.0</ele><time>2026-04-11T13:00:50Z</time></trkpt><trkpt lat="44.581275390298046" lon="10.426432618047105"><ele>436.99999999999994</ele><time>2026-04-11T13:00:51Z</time></trkpt><trkpt lat="44.58121481704674" lon="10.426472133550972"><ele>437.0</ele><time>2026-04-11T13:00:52Z</time></trkpt><trkpt lat="44.58115968888557" lon="10.42652531140621"><ele>436.7142857142857</ele><time>2026-04-11T13:00:53Z</time></trkpt><trkpt lat="44.58110015816638" lon="10.42657016505174"><ele>436.42857142857144</ele><time>2026-04-11T13:00:54Z</time></trkpt><trkpt lat="44.5810424972236" lon="10.426627414747248"><ele>436.14285714285717</ele><time>2026-04-11T13:00:55Z</time></trkpt><trkpt lat="44.58098422483952" lon="10.42667772457002"><ele>435.8571428571429</ele><time>2026-04-11T13:00:55.998Z</time></trkpt><trkpt lat="44.5809236773583" lon="10.426729564214815"><ele>435.57142857142856</ele><time>2026-04-11T13:00:56.998Z</time></trkpt><trkpt lat="44.580859646101" lon="10.426790054999017"><ele>435.28571428571433</ele><time>2026-04-11T13:00:57.998Z</time></trkpt><trkpt lat="44.580791345340835" lon="10.426853606114868"><ele>435.0</ele><time>2026-04-11T13:00:58.998Z</time></trkpt><trkpt lat="44.58072887538623" lon="10.426907353631663"><ele>435.0</ele><time>2026-04-11T13:00:59.998Z</time></trkpt><trkpt lat="44.58062763356336" lon="10.426956098355616"><ele>435.0</ele><time>2026-04-11T13:01:01.998Z</time></trkpt><trkpt lat="44.58056169267635" lon="10.426916307493993"><ele>435.0</ele><time>2026-04-11T13:01:04.998Z</time></trkpt><trkpt lat="44.580504694140316" lon="10.427003035781505"><ele>435.0</ele><time>2026-04-11T13:01:05.998Z</time></trkpt><trkpt lat="44.580458596706634" lon="10.427155192769773"><ele>435.0</ele><time>2026-04-11T13:01:07.999Z</time></trkpt><trkpt lat="44.5804280131505" lon="10.427247533646812"><ele>433.6</ele><time>2026-04-11T13:01:08.999Z</time></trkpt><trkpt lat="44.58039870225388" lon="10.42734654417383"><ele>432.2</ele><time>2026-04-11T13:01:09.999Z</time></trkpt><trkpt lat="44.58036162665437" lon="10.427461864901304"><ele>430.79999999999995</ele><time>2026-04-11T13:01:10.999Z</time></trkpt><trkpt lat="44.58032165373415" lon="10.427588009940884"><ele>429.4</ele><time>2026-04-11T13:01:11.999Z</time></trkpt><trkpt lat="44.58028082122329" lon="10.427723654898193"><ele>428.0</ele><time>2026-04-11T13:01:12.999Z</time></trkpt><trkpt lat="44.58023738880587" lon="10.427857588240373"><ele>427.49999999999994</ele><time>2026-04-11T13:01:13.999Z</time></trkpt><trkpt lat="44.58019897962099" lon="10.427981247140663"><ele>427.0</ele><time>2026-04-11T13:01:14.999Z</time></trkpt><trkpt lat="44.58016315381608" lon="10.428097270505875"><ele>426.5</ele><time>2026-04-11T13:01:15.999Z</time></trkpt><trkpt lat="44.58012669765091" lon="10.428204467236219"><ele>426.0</ele><time>2026-04-11T13:01:16.999Z</time></trkpt><trkpt lat="44.58009399266369" lon="10.42830563818047"><ele>425.49999999999994</ele><time>2026-04-11T13:01:17.999Z</time></trkpt><trkpt lat="44.580063790539874" lon="10.428400607859139"><ele>425.0</ele><time>2026-04-11T13:01:18.999Z</time></trkpt><trkpt lat="44.580031709485375" lon="10.428490042501874"><ele>425.0</ele><time>2026-04-11T13:01:19.999Z</time></trkpt><trkpt lat="44.579998266443255" lon="10.428571678723559"><ele>425.0</ele><time>2026-04-11T13:01:20.999Z</time></trkpt><trkpt lat="44.57996738788436" lon="10.428651041017046"><ele>425.0</ele><time>2026-04-11T13:01:21.999Z</time></trkpt><trkpt lat="44.5799400051525" lon="10.428743581717953"><ele>425.0</ele><time>2026-04-11T13:01:22.999Z</time></trkpt><trkpt lat="44.579913636177615" lon="10.428846056228757"><ele>425.0</ele><time>2026-04-11T13:01:23.999Z</time></trkpt><trkpt lat="44.57989512833378" lon="10.428939272510481"><ele>425.0</ele><time>2026-04-11T13:01:24.999Z</time></trkpt><trkpt lat="44.579878566389056" lon="10.4290253608823"><ele>425.0</ele><time>2026-04-11T13:01:25.999Z</time></trkpt><trkpt lat="44.57984653124802" lon="10.429185610471503"><ele>424.99999999999994</ele><time>2026-04-11T13:01:27.999Z</time></trkpt><trkpt lat="44.57980912797501" lon="10.429328393104333"><ele>425.0</ele><time>2026-04-11T13:01:29.999Z</time></trkpt><trkpt lat="44.57977208062677" lon="10.42942116425126"><ele>425.0</ele><time>2026-04-11T13:01:30.999Z</time></trkpt><trkpt lat="44.579720613717846" lon="10.429479515304402"><ele>425.0</ele><time>2026-04-11T13:01:31.999Z</time></trkpt><trkpt lat="44.579702507606235" lon="10.42939205255867"><ele>424.99999999999994</ele><time>2026-04-11T13:01:35.999Z</time></trkpt><trkpt lat="44.57974432194632" lon="10.429276047548006"><ele>425.0</ele><time>2026-04-11T13:01:36.999Z</time></trkpt><trkpt lat="44.5797751090525" lon="10.429165689294361"><ele>425.0</ele><time>2026-04-11T13:01:37.999Z</time></trkpt><trkpt lat="44.579778429392505" lon="10.429039377963441"><ele>425.0</ele><time>2026-04-11T13:01:38.999Z</time></trkpt><trkpt lat="44.57978144770649" lon="10.42891718901059"><ele>425.0</ele><time>2026-04-11T13:01:39.999Z</time></trkpt><trkpt lat="44.5797814287025" lon="10.428806698043774"><ele>425.0</ele><time>2026-04-11T13:01:41Z</time></trkpt><trkpt lat="44.57979572614175" lon="10.428631693012218"><ele>425.0</ele><time>2026-04-11T13:01:43Z</time></trkpt><trkpt lat="44.57979674363317" lon="10.42853402421434"><ele>425.0</ele><time>2026-04-11T13:01:45Z</time></trkpt><trkpt lat="44.579738024827115" lon="10.428457513106334"><ele>425.0</ele><time>2026-04-11T13:01:48Z</time></trkpt><trkpt lat="44.579759758952534" lon="10.428260052078434"><ele>425.0</ele><time>2026-04-11T13:01:56Z</time></trkpt><trkpt lat="44.57974463850639" lon="10.428168384326"><ele>425.0</ele><time>2026-04-11T13:01:59Z</time></trkpt><trkpt lat="44.579759381595586" lon="10.42828569951532"><ele>425.0</ele><time>2026-04-11T13:02:25Z</time></trkpt><trkpt lat="44.57975780334648" lon="10.428425666233613"><ele>424.99999999999994</ele><time>2026-04-11T13:02:27Z</time></trkpt><trkpt lat="44.579699345438335" lon="10.42849692974569"><ele>425.0</ele><time>2026-04-11T13:02:28Z</time></trkpt><trkpt lat="44.579658085448536" lon="10.428591150373475"><ele>425.0</ele><time>2026-04-11T13:02:29Z</time></trkpt><trkpt lat="44.579628689246285" lon="10.428697949148484"><ele>425.0</ele><time>2026-04-11T13:02:30Z</time></trkpt><trkpt lat="44.579598687937725" lon="10.428811570866442"><ele>424.99999999999994</ele><time>2026-04-11T13:02:31Z</time></trkpt><trkpt lat="44.57956372327432" lon="10.42892923697996"><ele>425.0</ele><time>2026-04-11T13:02:32Z</time></trkpt><trkpt lat="44.57949829813555" lon="10.429052258364896"><ele>422.5</ele><time>2026-04-11T13:02:33Z</time></trkpt><trkpt lat="44.57939539786049" lon="10.429150395063965"><ele>420.0</ele><time>2026-04-11T13:02:34Z</time></trkpt><trkpt lat="44.57926335289354" lon="10.429207934186776"><ele>417.5</ele><time>2026-04-11T13:02:35Z</time></trkpt><trkpt lat="44.579155880629116" lon="10.429317024407283"><ele>415.0</ele><time>2026-04-11T13:02:36Z</time></trkpt><trkpt lat="44.579048917054465" lon="10.429410139855921"><ele>415.0</ele><time>2026-04-11T13:02:37Z</time></trkpt><trkpt lat="44.578943894189784" lon="10.429498043549215"><ele>415.0</ele><time>2026-04-11T13:02:38Z</time></trkpt><trkpt lat="44.57883448204342" lon="10.429555527567521"><ele>415.0</ele><time>2026-04-11T13:02:39Z</time></trkpt><trkpt lat="44.578722469751554" lon="10.42960408863888"><ele>415.0</ele><time>2026-04-11T13:02:40Z</time></trkpt><trkpt lat="44.578593028319155" lon="10.42967276652876"><ele>413.0</ele><time>2026-04-11T13:02:41Z</time></trkpt><trkpt lat="44.57846124921972" lon="10.429745875889466"><ele>411.0</ele><time>2026-04-11T13:02:42Z</time></trkpt><trkpt lat="44.57832591966994" lon="10.42980895508777"><ele>409.0</ele><time>2026-04-11T13:02:43Z</time></trkpt><trkpt lat="44.5781885452515" lon="10.4298573830082"><ele>407.0</ele><time>2026-04-11T13:02:44Z</time></trkpt><trkpt lat="44.57805580981253" lon="10.429915209499203"><ele>407.0</ele><time>2026-04-11T13:02:45Z</time></trkpt><trkpt lat="44.5779302641587" lon="10.430001343195283"><ele>407.0</ele><time>2026-04-11T13:02:46Z</time></trkpt><trkpt lat="44.57781441948623" lon="10.430100575624012"><ele>407.0</ele><time>2026-04-11T13:02:47Z</time></trkpt><trkpt lat="44.57770049982186" lon="10.43018571899645"><ele>407.0</ele><time>2026-04-11T13:02:48.001Z</time></trkpt><trkpt lat="44.57757824670874" lon="10.43022355986164"><ele>406.0</ele><time>2026-04-11T13:02:49.001Z</time></trkpt><trkpt lat="44.57747224201183" lon="10.430298227329358"><ele>405.0</ele><time>2026-04-11T13:02:50.001Z</time></trkpt><trkpt lat="44.57737537493932" lon="10.430375605811925"><ele>404.0</ele><time>2026-04-11T13:02:51.001Z</time></trkpt><trkpt lat="44.57729443656642" lon="10.430454302768553"><ele>403.0</ele><time>2026-04-11T13:02:52.001Z</time></trkpt><trkpt lat="44.57721930143527" lon="10.43052976651097"><ele>402.0</ele><time>2026-04-11T13:02:53.001Z</time></trkpt><trkpt lat="44.57715916776477" lon="10.43064317262994"><ele>402.0</ele><time>2026-04-11T13:02:54.001Z</time></trkpt><trkpt lat="44.57710411443399" lon="10.430779717628974"><ele>402.0</ele><time>2026-04-11T13:02:55.001Z</time></trkpt><trkpt lat="44.57706141956892" lon="10.430931903777822"><ele>402.0</ele><time>2026-04-11T13:02:56.001Z</time></trkpt><trkpt lat="44.57702840332096" lon="10.431093438578378"><ele>402.0</ele><time>2026-04-11T13:02:57.001Z</time></trkpt><trkpt lat="44.577005842555096" lon="10.43124259799221"><ele>399.8</ele><time>2026-04-11T13:02:58.001Z</time></trkpt><trkpt lat="44.57698367261304" lon="10.431376574044052"><ele>397.6</ele><time>2026-04-11T13:02:59.001Z</time></trkpt><trkpt lat="44.576968485126464" lon="10.431508827633264"><ele>395.40000000000003</ele><time>2026-04-11T13:03:00.001Z</time></trkpt><trkpt lat="44.57691062801261" lon="10.431619677057137"><ele>393.20000000000005</ele><time>2026-04-11T13:03:00.999Z</time></trkpt><trkpt lat="44.57682585816321" lon="10.431703140649844"><ele>391.0</ele><time>2026-04-11T13:03:01.999Z</time></trkpt><trkpt lat="44.576724391061624" lon="10.43170816493496"><ele>391.0</ele><time>2026-04-11T13:03:02.999Z</time></trkpt><trkpt lat="44.5766322316956" lon="10.431700046332335"><ele>391.0</ele><time>2026-04-11T13:03:03.999Z</time></trkpt><trkpt lat="44.57654269903014" lon="10.43166404935903"><ele>391.0</ele><time>2026-04-11T13:03:04.999Z</time></trkpt><trkpt lat="44.57644879485097" lon="10.431617347991995"><ele>391.0</ele><time>2026-04-11T13:03:05.999Z</time></trkpt><trkpt lat="44.57636259128936" lon="10.43155811577905"><ele>391.0</ele><time>2026-04-11T13:03:06.999Z</time></trkpt><trkpt lat="44.5762739256732" lon="10.431543227186445"><ele>390.0</ele><time>2026-04-11T13:03:07.999Z</time></trkpt><trkpt lat="44.57617176110054" lon="10.431560911642414"><ele>389.0</ele><time>2026-04-11T13:03:08.999Z</time></trkpt><trkpt lat="44.57606460573209" lon="10.431587698206153"><ele>388.0</ele><time>2026-04-11T13:03:09.999Z</time></trkpt><trkpt lat="44.57596777460957" lon="10.43162421354944"><ele>387.0</ele><time>2026-04-11T13:03:10.999Z</time></trkpt><trkpt lat="44.57588508299456" lon="10.43166499926142"><ele>386.0</ele><time>2026-04-11T13:03:11.999Z</time></trkpt><trkpt lat="44.57581320379193" lon="10.431711967816566"><ele>385.99999999999994</ele><time>2026-04-11T13:03:12.999Z</time></trkpt><trkpt lat="44.575749211263776" lon="10.431761658695068"><ele>386.0</ele><time>2026-04-11T13:03:13.999Z</time></trkpt><trkpt lat="44.575692814513296" lon="10.431812613597598"><ele>386.0</ele><time>2026-04-11T13:03:14.999Z</time></trkpt><trkpt lat="44.57564117719199" lon="10.431866042103131"><ele>386.0</ele><time>2026-04-11T13:03:15.999Z</time></trkpt><trkpt lat="44.57558102766285" lon="10.431898977936408"><ele>385.99999999999994</ele><time>2026-04-11T13:03:16.999Z</time></trkpt><trkpt lat="44.57547911031089" lon="10.431977630158672"><ele>386.0</ele><time>2026-04-11T13:03:18.999Z</time></trkpt><trkpt lat="44.57535331495552" lon="10.431964632613782"><ele>384.99999999999994</ele><time>2026-04-11T13:03:21Z</time></trkpt><trkpt lat="44.575232215672585" lon="10.431981763417376"><ele>384.0</ele><time>2026-04-11T13:03:23Z</time></trkpt><trkpt lat="44.57511571789708" lon="10.431936884752737"><ele>383.0</ele><time>2026-04-11T13:03:25Z</time></trkpt><trkpt lat="44.57506059551171" lon="10.43188612639929"><ele>382.0</ele><time>2026-04-11T13:03:26Z</time></trkpt><trkpt lat="44.5750037443951" lon="10.431833071791996"><ele>381.0</ele><time>2026-04-11T13:03:27Z</time></trkpt><trkpt lat="44.574943851367365" lon="10.431779757039381"><ele>380.0</ele><time>2026-04-11T13:03:28Z</time></trkpt><trkpt lat="44.57488592169042" lon="10.431726748958775"><ele>380.0</ele><time>2026-04-11T13:03:29Z</time></trkpt><trkpt lat="44.57482723181822" lon="10.431669311288829"><ele>380.0</ele><time>2026-04-11T13:03:30Z</time></trkpt><trkpt lat="44.57474924021952" lon="10.431600526104253"><ele>380.0</ele><time>2026-04-11T13:03:32Z</time></trkpt><trkpt lat="44.57466750386768" lon="10.431518804029507"><ele>380.0</ele><time>2026-04-11T13:03:34Z</time></trkpt><trkpt lat="44.5745712812634" lon="10.431429765403788"><ele>380.0</ele><time>2026-04-11T13:03:36Z</time></trkpt><trkpt lat="44.57447978292611" lon="10.431353725054645"><ele>377.0</ele><time>2026-04-11T13:03:38Z</time></trkpt><trkpt lat="44.5743611593127" lon="10.431274799899494"><ele>374.0</ele><time>2026-04-11T13:03:40Z</time></trkpt><trkpt lat="44.57429091187738" lon="10.431248424757156"><ele>371.0</ele><time>2026-04-11T13:03:41Z</time></trkpt><trkpt lat="44.57420058481891" lon="10.431220599233884"><ele>368.0</ele><time>2026-04-11T13:03:42Z</time></trkpt><trkpt lat="44.574102435182546" lon="10.431170472735705"><ele>365.0</ele><time>2026-04-11T13:03:43Z</time></trkpt><trkpt lat="44.57401113733849" lon="10.431103201262811"><ele>365.0</ele><time>2026-04-11T13:03:44Z</time></trkpt><trkpt lat="44.5739267741868" lon="10.43101729576092"><ele>365.0</ele><time>2026-04-11T13:03:45Z</time></trkpt><trkpt lat="44.57383746684789" lon="10.430937553353592"><ele>365.0</ele><time>2026-04-11T13:03:45.999Z</time></trkpt><trkpt lat="44.573755656650675" lon="10.43086406427324"><ele>365.0</ele><time>2026-04-11T13:03:46.999Z</time></trkpt><trkpt lat="44.57368445900091" lon="10.430791746268163"><ele>365.0</ele><time>2026-04-11T13:03:47.999Z</time></trkpt><trkpt lat="44.57362742742807" lon="10.430719768980468"><ele>365.0</ele><time>2026-04-11T13:03:48.999Z</time></trkpt><trkpt lat="44.57357333518133" lon="10.430636605827184"><ele>365.0</ele><time>2026-04-11T13:03:49.999Z</time></trkpt><trkpt lat="44.573524403397855" lon="10.43053961984165"><ele>365.0</ele><time>2026-04-11T13:03:50.999Z</time></trkpt><trkpt lat="44.57348038321002" lon="10.430458804870588"><ele>365.0</ele><time>2026-04-11T13:03:51.999Z</time></trkpt><trkpt lat="44.573409597114406" lon="10.430326791984585"><ele>365.0</ele><time>2026-04-11T13:03:53.999Z</time></trkpt><trkpt lat="44.57337042290061" lon="10.430256075404685"><ele>365.0</ele><time>2026-04-11T13:03:54.999Z</time></trkpt><trkpt lat="44.57330645065747" lon="10.43014814072864"><ele>365.0</ele><time>2026-04-11T13:03:56.999Z</time></trkpt><trkpt lat="44.573229528198056" lon="10.430036279885906"><ele>365.0</ele><time>2026-04-11T13:03:58.999Z</time></trkpt><trkpt lat="44.57318667789866" lon="10.429904461550372"><ele>365.0</ele><time>2026-04-11T13:04:00.999Z</time></trkpt><trkpt lat="44.57319062133623" lon="10.4297568498005"><ele>365.0</ele><time>2026-04-11T13:04:03Z</time></trkpt><trkpt lat="44.57321344479858" lon="10.429615281283226"><ele>365.0</ele><time>2026-04-11T13:04:05Z</time></trkpt><trkpt lat="44.573238853169755" lon="10.429530260536957"><ele>363.0</ele><time>2026-04-11T13:04:06Z</time></trkpt><trkpt lat="44.57326882076108" lon="10.42942328559355"><ele>361.0</ele><time>2026-04-11T13:04:07Z</time></trkpt><trkpt lat="44.573296992806114" lon="10.429310632608036"><ele>359.0</ele><time>2026-04-11T13:04:08Z</time></trkpt><trkpt lat="44.57332415480502" lon="10.42919527065709"><ele>357.0</ele><time>2026-04-11T13:04:09Z</time></trkpt><trkpt lat="44.57334286450001" lon="10.429080613468255"><ele>355.0</ele><time>2026-04-11T13:04:10Z</time></trkpt><trkpt lat="44.573358705812474" lon="10.428961671175559"><ele>353.0</ele><time>2026-04-11T13:04:11Z</time></trkpt><trkpt lat="44.57338139322277" lon="10.428837784869666"><ele>350.59999999999997</ele><time>2026-04-11T13:04:12Z</time></trkpt><trkpt lat="44.57340309024539" lon="10.428741714492073"><ele>348.2</ele><time>2026-04-11T13:04:13Z</time></trkpt><trkpt lat="44.573463038616744" lon="10.428576489673667"><ele>345.8</ele><time>2026-04-11T13:04:15Z</time></trkpt><trkpt lat="44.57349902368173" lon="10.428487207758284"><ele>343.4</ele><time>2026-04-11T13:04:16Z</time></trkpt><trkpt lat="44.5735156331076" lon="10.428328700025308"><ele>341.0</ele><time>2026-04-11T13:04:18Z</time></trkpt><trkpt lat="44.57348044891951" lon="10.428158290898054"><ele>341.0</ele><time>2026-04-11T13:04:20Z</time></trkpt><trkpt lat="44.573438065067485" lon="10.428075019110524"><ele>341.0</ele><time>2026-04-11T13:04:21Z</time></trkpt><trkpt lat="44.57338254004819" lon="10.427990369819144"><ele>341.0</ele><time>2026-04-11T13:04:22Z</time></trkpt><trkpt lat="44.5733360436866" lon="10.427916550398118"><ele>341.0</ele><time>2026-04-11T13:04:23Z</time></trkpt><trkpt lat="44.573272485593215" lon="10.427798244368448"><ele>341.0</ele><time>2026-04-11T13:04:25Z</time></trkpt><trkpt lat="44.57320540783886" lon="10.427683455978162"><ele>341.0</ele><time>2026-04-11T13:04:27Z</time></trkpt><trkpt lat="44.57313440141541" lon="10.427573646266826"><ele>339.1666666666667</ele><time>2026-04-11T13:04:29Z</time></trkpt><trkpt lat="44.573051129088014" lon="10.427530367965609"><ele>337.33333333333337</ele><time>2026-04-11T13:04:31Z</time></trkpt><trkpt lat="44.57296206183058" lon="10.427560427378932"><ele>335.5</ele><time>2026-04-11T13:04:33Z</time></trkpt><trkpt lat="44.57288607769857" lon="10.427569729758675"><ele>333.6666666666667</ele><time>2026-04-11T13:04:35Z</time></trkpt><trkpt lat="44.572798046902314" lon="10.427607615865197"><ele>331.8333333333333</ele><time>2026-04-11T13:04:37Z</time></trkpt><trkpt lat="44.57273773855877" lon="10.427690378505588"><ele>330.0</ele><time>2026-04-11T13:04:39Z</time></trkpt><trkpt lat="44.57268580582351" lon="10.427786543404075"><ele>328.6666666666667</ele><time>2026-04-11T13:04:43Z</time></trkpt><trkpt lat="44.57263319789335" lon="10.427842972510309"><ele>327.3333333333333</ele><time>2026-04-11T13:04:46Z</time></trkpt><trkpt lat="44.57256405676315" lon="10.427881492708966"><ele>326.0</ele><time>2026-04-11T13:04:48Z</time></trkpt><trkpt lat="44.572519034939916" lon="10.427978824103489"><ele>324.66666666666663</ele><time>2026-04-11T13:04:50Z</time></trkpt><trkpt lat="44.572470097762334" lon="10.42809955152806"><ele>323.3333333333333</ele><time>2026-04-11T13:04:52Z</time></trkpt><trkpt lat="44.57240720880021" lon="10.428145770852089"><ele>322.0</ele><time>2026-04-11T13:04:54Z</time></trkpt><trkpt lat="44.572334096676514" lon="10.428133408253368"><ele>322.0</ele><time>2026-04-11T13:04:57Z</time></trkpt><trkpt lat="44.57226622294868" lon="10.428152589229478"><ele>322.0</ele><time>2026-04-11T13:04:59Z</time></trkpt><trkpt lat="44.572189675110344" lon="10.428188831906239"><ele>322.0</ele><time>2026-04-11T13:05:02Z</time></trkpt><trkpt lat="44.572099702340665" lon="10.42820719967564"><ele>322.0</ele><time>2026-04-11T13:05:05.001Z</time></trkpt><trkpt lat="44.57202068143062" lon="10.428207626251984"><ele>322.0</ele><time>2026-04-11T13:05:07.999Z</time></trkpt><trkpt lat="44.571942246936786" lon="10.428204079824752"><ele>322.0</ele><time>2026-04-11T13:05:10.999Z</time></trkpt><trkpt lat="44.57183553040935" lon="10.428199466470902"><ele>318.0</ele><time>2026-04-11T13:05:14.999Z</time></trkpt><trkpt lat="44.571768950107646" lon="10.428208543103327"><ele>314.0</ele><time>2026-04-11T13:05:16.999Z</time></trkpt><trkpt lat="44.57165882585924" lon="10.428226170223372"><ele>310.0</ele><time>2026-04-11T13:05:18.999Z</time></trkpt><trkpt lat="44.57158453485977" lon="10.428288650522804"><ele>306.0</ele><time>2026-04-11T13:05:20.999Z</time></trkpt><trkpt lat="44.5715489752473" lon="10.42837346191696"><ele>302.0</ele><time>2026-04-11T13:05:22.999Z</time></trkpt><trkpt lat="44.571514969782456" lon="10.428502175500565"><ele>298.0</ele><time>2026-04-11T13:05:24.999Z</time></trkpt><trkpt lat="44.57145958176618" lon="10.428652588676465"><ele>298.0</ele><time>2026-04-11T13:05:26.999Z</time></trkpt><trkpt lat="44.57142470054859" lon="10.428727097911707"><ele>298.0</ele><time>2026-04-11T13:05:27.999Z</time></trkpt><trkpt lat="44.57135789812688" lon="10.428823586007717"><ele>298.0</ele><time>2026-04-11T13:05:29.999Z</time></trkpt><trkpt lat="44.57131264327836" lon="10.428896458108445"><ele>298.0</ele><time>2026-04-11T13:05:33Z</time></trkpt><trkpt lat="44.57126832775502" lon="10.428992482047494"><ele>298.0</ele><time>2026-04-11T13:05:35Z</time></trkpt><trkpt lat="44.57117799982433" lon="10.429111477722879"><ele>298.0</ele><time>2026-04-11T13:05:37Z</time></trkpt><trkpt lat="44.571117859443056" lon="10.429156255788259"><ele>298.8</ele><time>2026-04-11T13:05:38Z</time></trkpt><trkpt lat="44.57103834248559" lon="10.429209963988772"><ele>299.6</ele><time>2026-04-11T13:05:40Z</time></trkpt><trkpt lat="44.57096095179001" lon="10.429230642763615"><ele>300.4</ele><time>2026-04-11T13:05:43Z</time></trkpt><trkpt lat="44.57086938159766" lon="10.429308034370047"><ele>301.2</ele><time>2026-04-11T13:05:46Z</time></trkpt><trkpt lat="44.570789527161494" lon="10.429389713801598"><ele>302.0</ele><time>2026-04-11T13:05:48Z</time></trkpt><trkpt lat="44.57070639994577" lon="10.429436083373515"><ele>302.0</ele><time>2026-04-11T13:05:50Z</time></trkpt><trkpt lat="44.57064375469775" lon="10.429455990854361"><ele>302.0</ele><time>2026-04-11T13:05:51Z</time></trkpt><trkpt lat="44.57057899956741" lon="10.429476663661347"><ele>302.0</ele><time>2026-04-11T13:05:52Z</time></trkpt><trkpt lat="44.570468864567744" lon="10.429501959767006"><ele>302.0</ele><time>2026-04-11T13:05:54Z</time></trkpt><trkpt lat="44.57037402065231" lon="10.429475864161798"><ele>302.0</ele><time>2026-04-11T13:05:56Z</time></trkpt><trkpt lat="44.57029506817224" lon="10.429479583172219"><ele>302.0</ele><time>2026-04-11T13:05:58Z</time></trkpt><trkpt lat="44.570232525790495" lon="10.429525066704006"><ele>304.1666666666667</ele><time>2026-04-11T13:05:59Z</time></trkpt><trkpt lat="44.570172490013384" lon="10.42957101672511"><ele>306.33333333333337</ele><time>2026-04-11T13:06:00Z</time></trkpt><trkpt lat="44.57009133284113" lon="10.42955251875194"><ele>308.5</ele><time>2026-04-11T13:06:03Z</time></trkpt><trkpt lat="44.57001369090191" lon="10.42947440581511"><ele>310.6666666666667</ele><time>2026-04-11T13:06:05Z</time></trkpt><trkpt lat="44.56996420322493" lon="10.429415626478367"><ele>312.8333333333333</ele><time>2026-04-11T13:06:06Z</time></trkpt><trkpt lat="44.56988556333737" lon="10.429312958242171"><ele>315.0</ele><time>2026-04-11T13:06:08Z</time></trkpt><trkpt lat="44.569814107144815" lon="10.429205799308797"><ele>315.0</ele><time>2026-04-11T13:06:10Z</time></trkpt><trkpt lat="44.56978028639708" lon="10.429091264540435"><ele>315.0</ele><time>2026-04-11T13:06:12Z</time></trkpt><trkpt lat="44.56980944088963" lon="10.428984558690757"><ele>315.0</ele><time>2026-04-11T13:06:14Z</time></trkpt><trkpt lat="44.569858951695956" lon="10.4289069560977"><ele>315.0</ele><time>2026-04-11T13:06:16Z</time></trkpt><trkpt lat="44.56990930185718" lon="10.428848222030458"><ele>315.0</ele><time>2026-04-11T13:06:17Z</time></trkpt><trkpt lat="44.56995330488774" lon="10.428775636069878"><ele>315.0</ele><time>2026-04-11T13:06:18.001Z</time></trkpt><trkpt lat="44.57000422949522" lon="10.428702904751143"><ele>318.0</ele><time>2026-04-11T13:06:19.001Z</time></trkpt><trkpt lat="44.57008415580224" lon="10.428588369163858"><ele>321.0</ele><time>2026-04-11T13:06:21.001Z</time></trkpt><trkpt lat="44.57014604930151" lon="10.428450211775314"><ele>324.0</ele><time>2026-04-11T13:06:23.001Z</time></trkpt><trkpt lat="44.57015885322903" lon="10.428305228203033"><ele>327.0</ele><time>2026-04-11T13:06:25.001Z</time></trkpt><trkpt lat="44.57013718760237" lon="10.428220944778884"><ele>330.0</ele><time>2026-04-11T13:06:26.001Z</time></trkpt><trkpt lat="44.570097633727116" lon="10.428139432956172"><ele>330.0</ele><time>2026-04-11T13:06:27.001Z</time></trkpt><trkpt lat="44.57003690192393" lon="10.42808833856616"><ele>330.0</ele><time>2026-04-11T13:06:28.001Z</time></trkpt><trkpt lat="44.569977814698795" lon="10.4280545384983"><ele>330.0</ele><time>2026-04-11T13:06:29.001Z</time></trkpt><trkpt lat="44.56992789271013" lon="10.427941966793599"><ele>330.0</ele><time>2026-04-11T13:06:31.001Z</time></trkpt><trkpt lat="44.56993575234371" lon="10.427824340322042"><ele>330.0</ele><time>2026-04-11T13:06:33.001Z</time></trkpt><trkpt lat="44.56987745541522" lon="10.427671910236294"><ele>330.0</ele><time>2026-04-11T13:06:35.001Z</time></trkpt><trkpt lat="44.5697759907031" lon="10.427614594474068"><ele>330.8</ele><time>2026-04-11T13:06:37.001Z</time></trkpt><trkpt lat="44.56967473651961" lon="10.427548146676243"><ele>331.6</ele><time>2026-04-11T13:06:39.001Z</time></trkpt><trkpt lat="44.569586176403426" lon="10.427515411536872"><ele>332.4</ele><time>2026-04-11T13:06:41.001Z</time></trkpt><trkpt lat="44.56947117155056" lon="10.427510620549416"><ele>333.2</ele><time>2026-04-11T13:06:44.001Z</time></trkpt><trkpt lat="44.56939783625752" lon="10.427492851938965"><ele>334.0</ele><time>2026-04-11T13:06:45.001Z</time></trkpt><trkpt lat="44.5693273586692" lon="10.427475694969555"><ele>338.0</ele><time>2026-04-11T13:06:47.001Z</time></trkpt><trkpt lat="44.56923857942785" lon="10.427455274280723"><ele>342.0</ele><time>2026-04-11T13:06:49.001Z</time></trkpt><trkpt lat="44.56914750766087" lon="10.42752350588666"><ele>346.0</ele><time>2026-04-11T13:06:51.001Z</time></trkpt><trkpt lat="44.56905354042854" lon="10.427601031988619"><ele>350.0</ele><time>2026-04-11T13:06:53.001Z</time></trkpt><trkpt lat="44.568937956744065" lon="10.427604960171417"><ele>354.0</ele><time>2026-04-11T13:06:55.001Z</time></trkpt><trkpt lat="44.5688247925692" lon="10.427603996955142"><ele>354.0</ele><time>2026-04-11T13:06:57.001Z</time></trkpt><trkpt lat="44.5686969049138" lon="10.427603935618293"><ele>354.0</ele><time>2026-04-11T13:06:59.001Z</time></trkpt><trkpt lat="44.568605260008994" lon="10.427594541996797"><ele>354.0</ele><time>2026-04-11T13:07:01.001Z</time></trkpt><trkpt lat="44.56852268815389" lon="10.427544497952946"><ele>354.0</ele><time>2026-04-11T13:07:03.001Z</time></trkpt><trkpt lat="44.56841840118703" lon="10.42757842494305"><ele>354.0</ele><time>2026-04-11T13:07:05.001Z</time></trkpt><trkpt lat="44.568344988382705" lon="10.427624757851037"><ele>357.4</ele><time>2026-04-11T13:07:07.001Z</time></trkpt><trkpt lat="44.5682427146711" lon="10.42763424221252"><ele>360.79999999999995</ele><time>2026-04-11T13:07:10.001Z</time></trkpt><trkpt lat="44.56813863093296" lon="10.42765467791167"><ele>364.20000000000005</ele><time>2026-04-11T13:07:12.001Z</time></trkpt><trkpt lat="44.568051613530756" lon="10.427570512747366"><ele>367.6</ele><time>2026-04-11T13:07:14Z</time></trkpt><trkpt lat="44.567978739143115" lon="10.427517409583531"><ele>371.0</ele><time>2026-04-11T13:07:16Z</time></trkpt><trkpt lat="44.5679101621527" lon="10.427427626315923"><ele>373.5</ele><time>2026-04-11T13:07:19Z</time></trkpt><trkpt lat="44.567845341520254" lon="10.427379971779601"><ele>376.0</ele><time>2026-04-11T13:08:59.001Z</time></trkpt><trkpt lat="44.567761770232835" lon="10.427330219790974"><ele>378.5</ele><time>2026-04-11T13:09:01.001Z</time></trkpt><trkpt lat="44.56765858916647" lon="10.427262681063896"><ele>381.0</ele><time>2026-04-11T13:09:03.001Z</time></trkpt><trkpt lat="44.56759152113812" lon="10.427195049243027"><ele>383.49999999999994</ele><time>2026-04-11T13:09:05.001Z</time></trkpt><trkpt lat="44.567508387867825" lon="10.427174021591545"><ele>386.0</ele><time>2026-04-11T13:09:07.001Z</time></trkpt><trkpt lat="44.56741925232067" lon="10.427089467305247"><ele>387.6</ele><time>2026-04-11T13:09:09.001Z</time></trkpt><trkpt lat="44.5673536804754" lon="10.426977014176227"><ele>389.20000000000005</ele><time>2026-04-11T13:09:11.001Z</time></trkpt><trkpt lat="44.56729785278463" lon="10.426917148840317"><ele>390.79999999999995</ele><time>2026-04-11T13:09:13.001Z</time></trkpt><trkpt lat="44.567278301647896" lon="10.426760510499523"><ele>392.4</ele><time>2026-04-11T13:09:16.001Z</time></trkpt><trkpt lat="44.567187989280164" lon="10.426622728347352"><ele>394.0</ele><time>2026-04-11T13:09:18.001Z</time></trkpt><trkpt lat="44.56713473782246" lon="10.426527376901875"><ele>394.00000000000006</ele><time>2026-04-11T13:09:19Z</time></trkpt><trkpt lat="44.567078336972074" lon="10.42644263110055"><ele>394.0</ele><time>2026-04-11T13:09:20Z</time></trkpt><trkpt lat="44.56701546490505" lon="10.426361582013948"><ele>394.0</ele><time>2026-04-11T13:09:21Z</time></trkpt><trkpt lat="44.56695800067458" lon="10.42628256702538"><ele>394.0</ele><time>2026-04-11T13:09:22Z</time></trkpt><trkpt lat="44.56690099509331" lon="10.426193756343064"><ele>394.00000000000006</ele><time>2026-04-11T13:09:23Z</time></trkpt><trkpt lat="44.56683952188327" lon="10.426111241790123"><ele>394.0</ele><time>2026-04-11T13:09:24Z</time></trkpt><trkpt lat="44.56676690656351" lon="10.42604146406894"><ele>395.6666666666667</ele><time>2026-04-11T13:09:25Z</time></trkpt><trkpt lat="44.56670144900003" lon="10.425991813138088"><ele>397.33333333333337</ele><time>2026-04-11T13:09:26Z</time></trkpt><trkpt lat="44.56665150019051" lon="10.425927756855932"><ele>399.0</ele><time>2026-04-11T13:09:27Z</time></trkpt><trkpt lat="44.56661941673818" lon="10.425844927044864"><ele>400.66666666666663</ele><time>2026-04-11T13:09:28Z</time></trkpt><trkpt lat="44.56659458725453" lon="10.425658094774201"><ele>402.3333333333333</ele><time>2026-04-11T13:09:30Z</time></trkpt><trkpt lat="44.56656378013826" lon="10.425566068909948"><ele>404.0</ele><time>2026-04-11T13:09:31Z</time></trkpt><trkpt lat="44.56652314165865" lon="10.425490630681123"><ele>403.8333333333333</ele><time>2026-04-11T13:09:32Z</time></trkpt><trkpt lat="44.5664853655566" lon="10.425398244283278"><ele>403.66666666666663</ele><time>2026-04-11T13:09:33Z</time></trkpt><trkpt lat="44.566469458427626" lon="10.425273866381419"><ele>403.5</ele><time>2026-04-11T13:09:34Z</time></trkpt><trkpt lat="44.56645050836828" lon="10.425135947943692"><ele>403.33333333333337</ele><time>2026-04-11T13:09:35Z</time></trkpt><trkpt lat="44.56643577708954" lon="10.425016243833902"><ele>403.1666666666667</ele><time>2026-04-11T13:09:36Z</time></trkpt><trkpt lat="44.56643360657805" lon="10.42488911717302"><ele>403.0</ele><time>2026-04-11T13:09:38Z</time></trkpt><trkpt lat="44.56649162928411" lon="10.4247158043105"><ele>403.4</ele><time>2026-04-11T13:09:40Z</time></trkpt><trkpt lat="44.56652768965531" lon="10.424588729924603"><ele>403.79999999999995</ele><time>2026-04-11T13:09:41Z</time></trkpt><trkpt lat="44.566562873955235" lon="10.424440449636787"><ele>404.2</ele><time>2026-04-11T13:09:42Z</time></trkpt><trkpt lat="44.56659169510905" lon="10.424285793216058"><ele>404.6</ele><time>2026-04-11T13:09:43Z</time></trkpt><trkpt lat="44.56661352235387" lon="10.42412497357576"><ele>405.0</ele><time>2026-04-11T13:09:44Z</time></trkpt><trkpt lat="44.56663769759362" lon="10.42395599915067"><ele>405.0</ele><time>2026-04-11T13:09:45Z</time></trkpt><trkpt lat="44.5666629001334" lon="10.423805260349658"><ele>405.0</ele><time>2026-04-11T13:09:46Z</time></trkpt><trkpt lat="44.56669022064077" lon="10.423678404356208"><ele>405.0</ele><time>2026-04-11T13:09:47Z</time></trkpt><trkpt lat="44.56672480431485" lon="10.423589155135316"><ele>405.0</ele><time>2026-04-11T13:09:49Z</time></trkpt><trkpt lat="44.56677433028138" lon="10.423451640100119"><ele>405.0</ele><time>2026-04-11T13:09:52.001Z</time></trkpt><trkpt lat="44.566842690707304" lon="10.423305034681954"><ele>405.0</ele><time>2026-04-11T13:09:54.001Z</time></trkpt><trkpt lat="44.566912035258625" lon="10.42325064260042"><ele>405.0</ele><time>2026-04-11T13:09:55.001Z</time></trkpt><trkpt lat="44.566984743476034" lon="10.42320326869941"><ele>405.0</ele><time>2026-04-11T13:09:56.001Z</time></trkpt><trkpt lat="44.56705352233268" lon="10.423151870391061"><ele>405.0</ele><time>2026-04-11T13:09:57.001Z</time></trkpt><trkpt lat="44.56711878307237" lon="10.423114145561023"><ele>405.0</ele><time>2026-04-11T13:09:58.001Z</time></trkpt><trkpt lat="44.567230641143745" lon="10.423042525282769"><ele>405.0</ele><time>2026-04-11T13:10:00.001Z</time></trkpt><trkpt lat="44.5672703780454" lon="10.422893510858913"><ele>404.5</ele><time>2026-04-11T13:10:02.001Z</time></trkpt><trkpt lat="44.56727546444143" lon="10.422782925602725"><ele>404.0</ele><time>2026-04-11T13:10:03.001Z</time></trkpt><trkpt lat="44.567308280523825" lon="10.42266711718378"><ele>403.5</ele><time>2026-04-11T13:10:04.001Z</time></trkpt><trkpt lat="44.56732924590128" lon="10.422543286203009"><ele>403.0</ele><time>2026-04-11T13:10:05.001Z</time></trkpt><trkpt lat="44.56734953943512" lon="10.422441562401382"><ele>402.5</ele><time>2026-04-11T13:10:06.001Z</time></trkpt><trkpt lat="44.56737979468486" lon="10.42231348120834"><ele>402.0</ele><time>2026-04-11T13:10:08.001Z</time></trkpt><trkpt lat="44.56741847536201" lon="10.422193301557868"><ele>402.5</ele><time>2026-04-11T13:10:10.001Z</time></trkpt><trkpt lat="44.56745423807147" lon="10.422094344882513"><ele>403.0</ele><time>2026-04-11T13:10:11.001Z</time></trkpt><trkpt lat="44.56750214034314" lon="10.421972836799947"><ele>403.5</ele><time>2026-04-11T13:10:12.001Z</time></trkpt><trkpt lat="44.567545960449166" lon="10.421859583786631"><ele>404.0</ele><time>2026-04-11T13:10:13.001Z</time></trkpt><trkpt lat="44.56758715635876" lon="10.421757166938788"><ele>404.5</ele><time>2026-04-11T13:10:14.001Z</time></trkpt><trkpt lat="44.567626749981144" lon="10.421658733526588"><ele>405.0</ele><time>2026-04-11T13:10:15.001Z</time></trkpt><trkpt lat="44.567657123015174" lon="10.421554489018945"><ele>405.0</ele><time>2026-04-11T13:10:16.001Z</time></trkpt><trkpt lat="44.56767202584741" lon="10.421449490571701"><ele>405.0</ele><time>2026-04-11T13:10:17.001Z</time></trkpt><trkpt lat="44.56762668823254" lon="10.421335060889849"><ele>405.0</ele><time>2026-04-11T13:10:18.001Z</time></trkpt><trkpt lat="44.5675526317364" lon="10.421286484124783"><ele>405.0</ele><time>2026-04-11T13:10:19.001Z</time></trkpt><trkpt lat="44.56748785494452" lon="10.421240250611932"><ele>405.0</ele><time>2026-04-11T13:10:20.001Z</time></trkpt><trkpt lat="44.567413768278364" lon="10.421184291420023"><ele>405.0</ele><time>2026-04-11T13:10:21.001Z</time></trkpt><trkpt lat="44.567330901465816" lon="10.421115067293076"><ele>405.1666666666667</ele><time>2026-04-11T13:10:22.001Z</time></trkpt><trkpt lat="44.567241953730885" lon="10.421032304184381"><ele>405.33333333333337</ele><time>2026-04-11T13:10:23.001Z</time></trkpt><trkpt lat="44.567153297117095" lon="10.42095937331219"><ele>405.5</ele><time>2026-04-11T13:10:24.001Z</time></trkpt><trkpt lat="44.56708169080358" lon="10.420900848484061"><ele>405.6666666666667</ele><time>2026-04-11T13:10:25.001Z</time></trkpt><trkpt lat="44.56702659629873" lon="10.4208367430333"><ele>405.83333333333337</ele><time>2026-04-11T13:10:26.001Z</time></trkpt><trkpt lat="44.566987061169584" lon="10.420738829150967"><ele>406.0</ele><time>2026-04-11T13:10:27.001Z</time></trkpt><trkpt lat="44.5669684304356" lon="10.420601442477457"><ele>408.0</ele><time>2026-04-11T13:10:28.001Z</time></trkpt><trkpt lat="44.56695025238951" lon="10.42045262813165"><ele>410.0</ele><time>2026-04-11T13:10:29.001Z</time></trkpt><trkpt lat="44.56692539410645" lon="10.420287778446406"><ele>412.0</ele><time>2026-04-11T13:10:30.001Z</time></trkpt><trkpt lat="44.56694375217335" lon="10.420122949699241"><ele>414.0</ele><time>2026-04-11T13:10:31.001Z</time></trkpt><trkpt lat="44.56695138319778" lon="10.419977949081396"><ele>414.0</ele><time>2026-04-11T13:10:32.001Z</time></trkpt><trkpt lat="44.56697409450069" lon="10.419857181262733"><ele>414.0</ele><time>2026-04-11T13:10:33.001Z</time></trkpt><trkpt lat="44.567005692614224" lon="10.419752198067897"><ele>414.0</ele><time>2026-04-11T13:10:34.001Z</time></trkpt><trkpt lat="44.56704046202341" lon="10.419660532969626"><ele>414.0</ele><time>2026-04-11T13:10:35.001Z</time></trkpt><trkpt lat="44.56707058578153" lon="10.419572614682505"><ele>414.0</ele><time>2026-04-11T13:10:36.001Z</time></trkpt><trkpt lat="44.56707100618779" lon="10.419468686287155"><ele>414.0</ele><time>2026-04-11T13:10:37.001Z</time></trkpt><trkpt lat="44.567080187899876" lon="10.419368655244353"><ele>413.0</ele><time>2026-04-11T13:10:38.001Z</time></trkpt><trkpt lat="44.567046179761164" lon="10.4192220946725"><ele>412.0</ele><time>2026-04-11T13:10:40.001Z</time></trkpt><trkpt lat="44.567037826007805" lon="10.419123560670778"><ele>411.0</ele><time>2026-04-11T13:10:42.001Z</time></trkpt><trkpt lat="44.56687029377931" lon="10.419160252083236"><ele>410.0</ele><time>2026-04-11T13:10:44.001Z</time></trkpt><trkpt lat="44.56678074470282" lon="10.419193793211907"><ele>409.0</ele><time>2026-04-11T13:10:45.001Z</time></trkpt><trkpt lat="44.56667446616985" lon="10.41920949388832"><ele>411.5</ele><time>2026-04-11T13:10:46.001Z</time></trkpt><trkpt lat="44.56655694943041" lon="10.41921432932785"><ele>414.0</ele><time>2026-04-11T13:10:47.001Z</time></trkpt><trkpt lat="44.566437561644904" lon="10.41922171606076"><ele>416.5</ele><time>2026-04-11T13:10:48.001Z</time></trkpt><trkpt lat="44.566308690319644" lon="10.41922529571242"><ele>419.0</ele><time>2026-04-11T13:10:49.001Z</time></trkpt><trkpt lat="44.566172281372424" lon="10.419235333470159"><ele>419.0</ele><time>2026-04-11T13:10:50.001Z</time></trkpt><trkpt lat="44.566036019540626" lon="10.419244599840994"><ele>419.0</ele><time>2026-04-11T13:10:51.001Z</time></trkpt><trkpt lat="44.56591957351169" lon="10.419249106274119"><ele>419.0</ele><time>2026-04-11T13:10:52.001Z</time></trkpt><trkpt lat="44.565838415593" lon="10.419250483811133"><ele>419.0</ele><time>2026-04-11T13:10:53.001Z</time></trkpt><trkpt lat="44.56577462715819" lon="10.419245250723165"><ele>419.0</ele><time>2026-04-11T13:10:54.002Z</time></trkpt><trkpt lat="44.565674143755416" lon="10.41918750106861"><ele>419.0</ele><time>2026-04-11T13:10:56.002Z</time></trkpt><trkpt lat="44.56563755510822" lon="10.419007362247578"><ele>419.0</ele><time>2026-04-11T13:10:57.002Z</time></trkpt><trkpt lat="44.565597080170264" lon="10.418887042377644"><ele>419.0</ele><time>2026-04-11T13:10:58.002Z</time></trkpt><trkpt lat="44.56555227187812" lon="10.418744876315758"><ele>419.0</ele><time>2026-04-11T13:10:59.002Z</time></trkpt><trkpt lat="44.56550237277148" lon="10.418587174052938"><ele>420.0</ele><time>2026-04-11T13:11:00.002Z</time></trkpt><trkpt lat="44.565444348477996" lon="10.418411700415707"><ele>421.0</ele><time>2026-04-11T13:11:01.002Z</time></trkpt><trkpt lat="44.56538744433903" lon="10.418217374411089"><ele>422.0</ele><time>2026-04-11T13:11:02.002Z</time></trkpt><trkpt lat="44.565326265003854" lon="10.418015226717698"><ele>423.0</ele><time>2026-04-11T13:11:03.002Z</time></trkpt><trkpt lat="44.565257839457225" lon="10.417809120920104"><ele>425.33333333333337</ele><time>2026-04-11T13:11:04.002Z</time></trkpt><trkpt lat="44.56519237980383" lon="10.41760135517814"><ele>427.6666666666667</ele><time>2026-04-11T13:11:05.002Z</time></trkpt><trkpt lat="44.565131892563784" lon="10.417390108512548"><ele>430.0</ele><time>2026-04-11T13:11:06.002Z</time></trkpt><trkpt lat="44.5650644241474" lon="10.417174442734863"><ele>432.0</ele><time>2026-04-11T13:11:07.002Z</time></trkpt><trkpt lat="44.5650076961443" lon="10.416951996569788"><ele>434.0</ele><time>2026-04-11T13:11:08.002Z</time></trkpt><trkpt lat="44.564926228609316" lon="10.416743946542068"><ele>436.0</ele><time>2026-04-11T13:11:09.002Z</time></trkpt><trkpt lat="44.564869673680114" lon="10.416544974721498"><ele>436.0</ele><time>2026-04-11T13:11:10.002Z</time></trkpt><trkpt lat="44.56482093694062" lon="10.416378979695656"><ele>436.0</ele><time>2026-04-11T13:11:11.002Z</time></trkpt><trkpt lat="44.5647815080248" lon="10.41622986676899"><ele>436.0</ele><time>2026-04-11T13:11:12.002Z</time></trkpt><trkpt lat="44.564742211613826" lon="10.416102593234957"><ele>436.0</ele><time>2026-04-11T13:11:13.002Z</time></trkpt><trkpt lat="44.564682708019006" lon="10.416014041062583"><ele>436.0</ele><time>2026-04-11T13:11:14.002Z</time></trkpt><trkpt lat="44.56459292235988" lon="10.41596923327516"><ele>437.6</ele><time>2026-04-11T13:11:15.002Z</time></trkpt><trkpt lat="44.56449732362727" lon="10.41597182680679"><ele>439.20000000000005</ele><time>2026-04-11T13:11:16.002Z</time></trkpt><trkpt lat="44.56439911544744" lon="10.415990948797734"><ele>440.79999999999995</ele><time>2026-04-11T13:11:17.002Z</time></trkpt><trkpt lat="44.564297898287144" lon="10.415996279768708"><ele>442.4</ele><time>2026-04-11T13:11:18.002Z</time></trkpt><trkpt lat="44.56420098922383" lon="10.415975783679453"><ele>444.0</ele><time>2026-04-11T13:11:19.002Z</time></trkpt><trkpt lat="44.5641176699271" lon="10.415913894608781"><ele>444.0</ele><time>2026-04-11T13:11:20.002Z</time></trkpt><trkpt lat="44.56401823591385" lon="10.415949212697942"><ele>444.0</ele><time>2026-04-11T13:11:24.002Z</time></trkpt><trkpt lat="44.5639475753076" lon="10.41598840822915"><ele>444.0</ele><time>2026-04-11T13:11:25.001Z</time></trkpt><trkpt lat="44.56386813914203" lon="10.416068856873219"><ele>444.0</ele><time>2026-04-11T13:11:26.001Z</time></trkpt><trkpt lat="44.56375777416431" lon="10.416121549446359"><ele>444.0</ele><time>2026-04-11T13:11:27.001Z</time></trkpt><trkpt lat="44.56365849767282" lon="10.416175200149814"><ele>444.0</ele><time>2026-04-11T13:11:28.001Z</time></trkpt><trkpt lat="44.563574451269105" lon="10.41622040497896"><ele>444.0</ele><time>2026-04-11T13:11:29.001Z</time></trkpt><trkpt lat="44.563511469492965" lon="10.416239042708575"><ele>444.0</ele><time>2026-04-11T13:11:31.001Z</time></trkpt><trkpt lat="44.56347658743097" lon="10.416144003125325"><ele>444.0</ele><time>2026-04-11T13:11:32.001Z</time></trkpt><trkpt lat="44.56335784607038" lon="10.416127359468174"><ele>444.0</ele><time>2026-04-11T13:11:34.001Z</time></trkpt><trkpt lat="44.56324876271631" lon="10.416112069550381"><ele>441.75</ele><time>2026-04-11T13:11:36.001Z</time></trkpt><trkpt lat="44.56312445043013" lon="10.416412422417833"><ele>439.5</ele><time>2026-04-11T13:11:38.001Z</time></trkpt><trkpt lat="44.56302012134731" lon="10.41645403595049"><ele>437.25</ele><time>2026-04-11T13:11:40.001Z</time></trkpt><trkpt lat="44.56295540228337" lon="10.4164762811113"><ele>435.0</ele><time>2026-04-11T13:11:41.001Z</time></trkpt><trkpt lat="44.562887286264576" lon="10.416497262353648"><ele>435.14285714285717</ele><time>2026-04-11T13:11:42.001Z</time></trkpt><trkpt lat="44.56282025001222" lon="10.416519035140864"><ele>435.2857142857143</ele><time>2026-04-11T13:11:43.001Z</time></trkpt><trkpt lat="44.56275505819615" lon="10.41654344375209"><ele>435.42857142857144</ele><time>2026-04-11T13:11:44.001Z</time></trkpt><trkpt lat="44.562677638979544" lon="10.416570941751718"><ele>435.57142857142856</ele><time>2026-04-11T13:11:45.001Z</time></trkpt><trkpt lat="44.56260494837427" lon="10.416600943162662"><ele>435.7142857142857</ele><time>2026-04-11T13:11:46.001Z</time></trkpt><trkpt lat="44.56253338011701" lon="10.416632244416787"><ele>435.8571428571429</ele><time>2026-04-11T13:11:47.001Z</time></trkpt><trkpt lat="44.56245911379345" lon="10.416661152975303"><ele>436.0</ele><time>2026-04-11T13:11:48.001Z</time></trkpt><trkpt lat="44.56234602295406" lon="10.416724960210091"><ele>436.00000000000006</ele><time>2026-04-11T13:11:50.001Z</time></trkpt><trkpt lat="44.56228180939285" lon="10.416760233060732"><ele>436.0</ele><time>2026-04-11T13:11:51.001Z</time></trkpt><trkpt lat="44.562181129036844" lon="10.41682956439871"><ele>436.0</ele><time>2026-04-11T13:11:53.001Z</time></trkpt><trkpt lat="44.56208661265101" lon="10.416898357333887"><ele>436.0</ele><time>2026-04-11T13:11:55.001Z</time></trkpt><trkpt lat="44.562029748570346" lon="10.41694314685504"><ele>436.00000000000006</ele><time>2026-04-11T13:11:56.001Z</time></trkpt><trkpt lat="44.561972552767806" lon="10.416995500438968"><ele>436.0</ele><time>2026-04-11T13:11:57.001Z</time></trkpt><trkpt lat="44.56191104311096" lon="10.417048731910912"><ele>436.00000000000006</ele><time>2026-04-11T13:11:58.001Z</time></trkpt><trkpt lat="44.56184911444879" lon="10.417110197966828"><ele>436.0</ele><time>2026-04-11T13:11:59.001Z</time></trkpt><trkpt lat="44.56178717680639" lon="10.417175874972989"><ele>436.0</ele><time>2026-04-11T13:12:00.001Z</time></trkpt><trkpt lat="44.56172378718951" lon="10.417246949656331"><ele>436.0</ele><time>2026-04-11T13:12:01.001Z</time></trkpt><trkpt lat="44.56165904452741" lon="10.41732172240651"><ele>436.00000000000006</ele><time>2026-04-11T13:12:02.001Z</time></trkpt><trkpt lat="44.56159096255712" lon="10.417402287824428"><ele>436.0</ele><time>2026-04-11T13:12:03.001Z</time></trkpt><trkpt lat="44.56151995209455" lon="10.417498689240455"><ele>436.0</ele><time>2026-04-11T13:12:04.001Z</time></trkpt><trkpt lat="44.561450420565606" lon="10.417596578364632"><ele>436.0</ele><time>2026-04-11T13:12:05.001Z</time></trkpt><trkpt lat="44.56138424496925" lon="10.417693302800979"><ele>436.0</ele><time>2026-04-11T13:12:06.001Z</time></trkpt><trkpt lat="44.561331612653625" lon="10.417770684601757"><ele>436.0</ele><time>2026-04-11T13:12:07.001Z</time></trkpt><trkpt lat="44.56125020334338" lon="10.417903325985336"><ele>436.0</ele><time>2026-04-11T13:12:09.001Z</time></trkpt><trkpt lat="44.56119588057823" lon="10.417976002471965"><ele>437.0</ele><time>2026-04-11T13:12:10.001Z</time></trkpt><trkpt lat="44.56114132681284" lon="10.418052567039542"><ele>438.0</ele><time>2026-04-11T13:12:11.001Z</time></trkpt><trkpt lat="44.561084731436125" lon="10.418115637178515"><ele>439.0</ele><time>2026-04-11T13:12:12.001Z</time></trkpt><trkpt lat="44.561029167458855" lon="10.418161899722984"><ele>440.0</ele><time>2026-04-11T13:12:13.001Z</time></trkpt><trkpt lat="44.56097445754543" lon="10.418215588225177"><ele>441.0</ele><time>2026-04-11T13:12:14.001Z</time></trkpt><trkpt lat="44.56092248060176" lon="10.418274760898155"><ele>442.0</ele><time>2026-04-11T13:12:15.001Z</time></trkpt><trkpt lat="44.56083449829702" lon="10.418332765074402"><ele>443.0</ele><time>2026-04-11T13:12:17.001Z</time></trkpt><trkpt lat="44.560727244800546" lon="10.418362606426046"><ele>443.0</ele><time>2026-04-11T13:12:19.001Z</time></trkpt><trkpt lat="44.5606024585922" lon="10.41839202425291"><ele>442.99999999999994</ele><time>2026-04-11T13:12:21.001Z</time></trkpt><trkpt lat="44.56054044590861" lon="10.418408253794656"><ele>442.99999999999994</ele><time>2026-04-11T13:12:22.001Z</time></trkpt><trkpt lat="44.56041197897767" lon="10.418421626371146"><ele>443.0</ele><time>2026-04-11T13:12:24.001Z</time></trkpt><trkpt lat="44.56034065160922" lon="10.418427814761824"><ele>443.0</ele><time>2026-04-11T13:12:25.001Z</time></trkpt><trkpt lat="44.560263929801216" lon="10.418253844801294"><ele>444.0</ele><time>2026-04-11T13:12:26.001Z</time></trkpt><trkpt lat="44.560163011275606" lon="10.418270776306118"><ele>444.99999999999994</ele><time>2026-04-11T13:12:28Z</time></trkpt><trkpt lat="44.560092185972906" lon="10.418282658955457"><ele>445.99999999999994</ele><time>2026-04-11T13:12:43.001Z</time></trkpt><trkpt lat="44.56013071554611" lon="10.418153573071038"><ele>447.0</ele><time>2026-04-11T13:12:49.001Z</time></trkpt><trkpt lat="44.56012233585582" lon="10.41800345413935"><ele>448.0</ele><time>2026-04-11T13:12:51.001Z</time></trkpt><trkpt lat="44.56012100984761" lon="10.41789020200075"><ele>449.79999999999995</ele><time>2026-04-11T13:12:53.001Z</time></trkpt><trkpt lat="44.560101324969544" lon="10.417755698728362"><ele>451.59999999999997</ele><time>2026-04-11T13:12:55.001Z</time></trkpt><trkpt lat="44.56006574086618" lon="10.417616797663205"><ele>453.40000000000003</ele><time>2026-04-11T13:12:57.001Z</time></trkpt><trkpt lat="44.56005741317004" lon="10.417483470176416"><ele>455.20000000000005</ele><time>2026-04-11T13:12:59.001Z</time></trkpt><trkpt lat="44.56010584099218" lon="10.417356296989322"><ele>457.0</ele><time>2026-04-11T13:13:01.001Z</time></trkpt><trkpt lat="44.56017548131862" lon="10.417213503582913"><ele>457.7142857142858</ele><time>2026-04-11T13:13:03.001Z</time></trkpt><trkpt lat="44.560212342155204" lon="10.417140680478717"><ele>458.42857142857144</ele><time>2026-04-11T13:13:04.001Z</time></trkpt><trkpt lat="44.56022586123077" lon="10.417050798296083"><ele>459.14285714285717</ele><time>2026-04-11T13:13:05.001Z</time></trkpt><trkpt lat="44.56022083985058" lon="10.416954759802453"><ele>459.8571428571429</ele><time>2026-04-11T13:13:06.001Z</time></trkpt><trkpt lat="44.560189998277046" lon="10.416856912778485"><ele>460.57142857142856</ele><time>2026-04-11T13:13:07.001Z</time></trkpt><trkpt lat="44.560177418547354" lon="10.416761819161577"><ele>461.2857142857143</ele><time>2026-04-11T13:13:08.001Z</time></trkpt><trkpt lat="44.56016822258066" lon="10.416672346628706"><ele>462.0</ele><time>2026-04-11T13:13:09.001Z</time></trkpt><trkpt lat="44.560165960214874" lon="10.416539526171414"><ele>462.0</ele><time>2026-04-11T13:13:11.001Z</time></trkpt><trkpt lat="44.56003912337083" lon="10.416498432425751"><ele>462.00000000000006</ele><time>2026-04-11T13:13:14.001Z</time></trkpt><trkpt lat="44.55995725326818" lon="10.416510399478092"><ele>462.00000000000006</ele><time>2026-04-11T13:13:15.001Z</time></trkpt><trkpt lat="44.559862792726385" lon="10.416522746413303"><ele>462.0</ele><time>2026-04-11T13:13:16.001Z</time></trkpt><trkpt lat="44.55976442921733" lon="10.416532062241046"><ele>462.0</ele><time>2026-04-11T13:13:17.001Z</time></trkpt><trkpt lat="44.55966099846511" lon="10.416527516565536"><ele>462.0</ele><time>2026-04-11T13:13:18.001Z</time></trkpt><trkpt lat="44.559558832014076" lon="10.41652066152547"><ele>462.00000000000006</ele><time>2026-04-11T13:13:19.001Z</time></trkpt><trkpt lat="44.55945551908111" lon="10.416514792655756"><ele>462.00000000000006</ele><time>2026-04-11T13:13:20.001Z</time></trkpt><trkpt lat="44.55935505103613" lon="10.416515273800291"><ele>462.0</ele><time>2026-04-11T13:13:21.001Z</time></trkpt><trkpt lat="44.55925581253557" lon="10.416514906833878"><ele>462.0</ele><time>2026-04-11T13:13:22.001Z</time></trkpt><trkpt lat="44.559154816237964" lon="10.416512770596636"><ele>462.0</ele><time>2026-04-11T13:13:23.001Z</time></trkpt><trkpt lat="44.5590527453403" lon="10.416513593255631"><ele>462.00000000000006</ele><time>2026-04-11T13:13:24.001Z</time></trkpt><trkpt lat="44.55894904745096" lon="10.416515341033412"><ele>462.00000000000006</ele><time>2026-04-11T13:13:25.001Z</time></trkpt><trkpt lat="44.5588495580006" lon="10.416523980485328"><ele>462.0</ele><time>2026-04-11T13:13:26.001Z</time></trkpt><trkpt lat="44.55876291959002" lon="10.416541172627824"><ele>462.0</ele><time>2026-04-11T13:13:27.001Z</time></trkpt><trkpt lat="44.5586667050709" lon="10.416554308733064"><ele>462.0</ele><time>2026-04-11T13:13:29.001Z</time></trkpt><trkpt lat="44.558790608024196" lon="10.416517006312779"><ele>462.0</ele><time>2026-04-11T13:13:47Z</time></trkpt><trkpt lat="44.55885368910233" lon="10.416456548636535"><ele>462.0</ele><time>2026-04-11T13:13:49Z</time></trkpt><trkpt lat="44.558842628128446" lon="10.416330166065265"><ele>462.0</ele><time>2026-04-11T13:13:51Z</time></trkpt><trkpt lat="44.558839025465296" lon="10.41624017629279"><ele>462.0</ele><time>2026-04-11T13:13:53Z</time></trkpt><trkpt lat="44.55885296508298" lon="10.41612460671489"><ele>462.0</ele><time>2026-04-11T13:13:56Z</time></trkpt><trkpt lat="44.558864573853064" lon="10.416031160298544"><ele>460.8333333333333</ele><time>2026-04-11T13:13:58Z</time></trkpt><trkpt lat="44.55885209348949" lon="10.415905617273904"><ele>459.66666666666663</ele><time>2026-04-11T13:14:00Z</time></trkpt><trkpt lat="44.55880439000387" lon="10.415776807243207"><ele>458.5</ele><time>2026-04-11T13:14:02Z</time></trkpt><trkpt lat="44.55875959049216" lon="10.415710569736632"><ele>457.3333333333333</ele><time>2026-04-11T13:14:04Z</time></trkpt><trkpt lat="44.55869240642696" lon="10.41568821600772"><ele>456.16666666666663</ele><time>2026-04-11T13:14:06Z</time></trkpt><trkpt lat="44.55860828749255" lon="10.415644558494991"><ele>455.0</ele><time>2026-04-11T13:14:17Z</time></trkpt><trkpt lat="44.55855027168225" lon="10.415565671449604"><ele>451.2</ele><time>2026-04-11T13:14:19Z</time></trkpt><trkpt lat="44.558493342098814" lon="10.415472862849278"><ele>447.4</ele><time>2026-04-11T13:14:21Z</time></trkpt><trkpt lat="44.558432989596966" lon="10.415377788585594"><ele>443.6</ele><time>2026-04-11T13:14:23Z</time></trkpt><trkpt lat="44.55836235029611" lon="10.415237589342436"><ele>439.8</ele><time>2026-04-11T13:14:25.001Z</time></trkpt><trkpt lat="44.5583336024957" lon="10.4151589502196"><ele>436.0</ele><time>2026-04-11T13:14:26.001Z</time></trkpt><trkpt lat="44.55830434067227" lon="10.41502167381511"><ele>436.00000000000006</ele><time>2026-04-11T13:14:28.001Z</time></trkpt><trkpt lat="44.55827168266735" lon="10.414909535385354"><ele>436.0</ele><time>2026-04-11T13:14:30.001Z</time></trkpt><trkpt lat="44.55824251269491" lon="10.414814520888767"><ele>436.0</ele><time>2026-04-11T13:14:32.001Z</time></trkpt><trkpt lat="44.55822421877683" lon="10.414708522833013"><ele>436.0</ele><time>2026-04-11T13:14:34.001Z</time></trkpt><trkpt lat="44.55820638415994" lon="10.414615223706239"><ele>436.00000000000006</ele><time>2026-04-11T13:14:36.001Z</time></trkpt><trkpt lat="44.55816417481192" lon="10.414537158873328"><ele>436.0</ele><time>2026-04-11T13:14:39.001Z</time></trkpt><trkpt lat="44.558094479428675" lon="10.41445429182561"><ele>433.83333333333337</ele><time>2026-04-11T13:14:42.001Z</time></trkpt><trkpt lat="44.55808997046132" lon="10.41434917583703"><ele>431.6666666666667</ele><time>2026-04-11T13:14:44.001Z</time></trkpt><trkpt lat="44.55812605781677" lon="10.4142184626349"><ele>429.5</ele><time>2026-04-11T13:14:46.001Z</time></trkpt><trkpt lat="44.55813574202068" lon="10.414126541943183"><ele>427.33333333333337</ele><time>2026-04-11T13:14:48.001Z</time></trkpt><trkpt lat="44.5580916668197" lon="10.414041324640802"><ele>425.1666666666667</ele><time>2026-04-11T13:14:52.001Z</time></trkpt><trkpt lat="44.558028755019016" lon="10.414088555204158"><ele>423.0</ele><time>2026-04-11T13:14:54.001Z</time></trkpt><trkpt lat="44.55795189350825" lon="10.41415615619938"><ele>423.0</ele><time>2026-04-11T13:14:56.001Z</time></trkpt><trkpt lat="44.55787411752415" lon="10.414173589658338"><ele>423.0</ele><time>2026-04-11T13:14:58.001Z</time></trkpt><trkpt lat="44.55779808799807" lon="10.414215034541186"><ele>423.0</ele><time>2026-04-11T13:15:00.001Z</time></trkpt><trkpt lat="44.557696566722726" lon="10.414294361925803"><ele>423.0</ele><time>2026-04-11T13:15:02.001Z</time></trkpt><trkpt lat="44.55761209406905" lon="10.414352331521865"><ele>423.0</ele><time>2026-04-11T13:15:04.001Z</time></trkpt><trkpt lat="44.55751903072279" lon="10.41436923913524"><ele>422.0</ele><time>2026-04-11T13:15:06.001Z</time></trkpt><trkpt lat="44.55744322188857" lon="10.414346361893887"><ele>421.0</ele><time>2026-04-11T13:15:12.001Z</time></trkpt><trkpt lat="44.557379071600145" lon="10.414339695812556"><ele>420.0</ele><time>2026-04-11T13:15:16.001Z</time></trkpt><trkpt lat="44.55728722625442" lon="10.41433907350394"><ele>419.0</ele><time>2026-04-11T13:15:19.001Z</time></trkpt><trkpt lat="44.557209406686106" lon="10.414321378430955"><ele>418.0</ele><time>2026-04-11T13:15:21.001Z</time></trkpt><trkpt lat="44.55711347346126" lon="10.414283793271167"><ele>417.0</ele><time>2026-04-11T13:15:23.001Z</time></trkpt><trkpt lat="44.55705148996242" lon="10.41426100523146"><ele>415.6</ele><time>2026-04-11T13:15:25.002Z</time></trkpt><trkpt lat="44.55699319971944" lon="10.414217595127479"><ele>414.20000000000005</ele><time>2026-04-11T13:15:27.002Z</time></trkpt><trkpt lat="44.556908217022254" lon="10.41422317112581"><ele>412.8</ele><time>2026-04-11T13:15:30.002Z</time></trkpt><trkpt lat="44.55682347494459" lon="10.414282204038244"><ele>411.4</ele><time>2026-04-11T13:15:32.002Z</time></trkpt><trkpt lat="44.55672056394448" lon="10.414258322612874"><ele>410.0</ele><time>2026-04-11T13:15:34.002Z</time></trkpt><trkpt lat="44.556615504103206" lon="10.414247953059716"><ele>410.0</ele><time>2026-04-11T13:15:36.002Z</time></trkpt><trkpt lat="44.55651300310796" lon="10.41426279604902"><ele>410.0</ele><time>2026-04-11T13:15:38Z</time></trkpt><trkpt lat="44.55642424815519" lon="10.414309579654871"><ele>410.0</ele><time>2026-04-11T13:15:40Z</time></trkpt><trkpt lat="44.55634461756513" lon="10.414332277979955"><ele>410.0</ele><time>2026-04-11T13:15:42Z</time></trkpt><trkpt lat="44.556248173234366" lon="10.414298997394933"><ele>410.0</ele><time>2026-04-11T13:15:44Z</time></trkpt><trkpt lat="44.55615197741096" lon="10.414281686987538"><ele>410.49999999999994</ele><time>2026-04-11T13:15:46Z</time></trkpt><trkpt lat="44.55608524885115" lon="10.414324891116832"><ele>411.0</ele><time>2026-04-11T13:15:48Z</time></trkpt><trkpt lat="44.55601749861136" lon="10.414422559352015"><ele>411.5</ele><time>2026-04-11T13:15:51Z</time></trkpt><trkpt lat="44.55593170660108" lon="10.41445442538828"><ele>412.0</ele><time>2026-04-11T13:15:54Z</time></trkpt><trkpt lat="44.55586611729772" lon="10.414387587740089"><ele>412.49999999999994</ele><time>2026-04-11T13:15:56Z</time></trkpt><trkpt lat="44.55583254593996" lon="10.414310283053855"><ele>413.0</ele><time>2026-04-11T13:15:58Z</time></trkpt><trkpt lat="44.55576279600648" lon="10.414241212963494"><ele>412.99999999999994</ele><time>2026-04-11T13:16:02Z</time></trkpt><trkpt lat="44.55568924725829" lon="10.414247589011014"><ele>413.0</ele><time>2026-04-11T13:16:05Z</time></trkpt><trkpt lat="44.55558130066815" lon="10.414268839870294"><ele>413.0</ele><time>2026-04-11T13:16:07Z</time></trkpt><trkpt lat="44.5554776777929" lon="10.414200820842417"><ele>413.0</ele><time>2026-04-11T13:16:09Z</time></trkpt><trkpt lat="44.55541755423017" lon="10.414115433111723"><ele>412.99999999999994</ele><time>2026-04-11T13:16:11.001Z</time></trkpt><trkpt lat="44.555381698510814" lon="10.414041286799742"><ele>413.0</ele><time>2026-04-11T13:16:14.001Z</time></trkpt><trkpt lat="44.555332209837" lon="10.413909595542455"><ele>418.0</ele><time>2026-04-11T13:16:16.001Z</time></trkpt><trkpt lat="44.55528665734563" lon="10.413769261125582"><ele>423.0</ele><time>2026-04-11T13:16:18.001Z</time></trkpt><trkpt lat="44.555265549946284" lon="10.413678730277809"><ele>427.99999999999994</ele><time>2026-04-11T13:16:19.001Z</time></trkpt><trkpt lat="44.555269373552036" lon="10.413526635661524"><ele>433.0</ele><time>2026-04-11T13:16:21.001Z</time></trkpt><trkpt lat="44.555303207776404" lon="10.413394879521215"><ele>438.0</ele><time>2026-04-11T13:16:23.001Z</time></trkpt><trkpt lat="44.55531169749413" lon="10.413267049918632"><ele>438.0</ele><time>2026-04-11T13:16:25.001Z</time></trkpt><trkpt lat="44.55528864579891" lon="10.413109770633717"><ele>437.99999999999994</ele><time>2026-04-11T13:16:27.001Z</time></trkpt><trkpt lat="44.55526091917986" lon="10.41298230894102"><ele>437.99999999999994</ele><time>2026-04-11T13:16:29.001Z</time></trkpt><trkpt lat="44.555214666643344" lon="10.41285894149017"><ele>438.0</ele><time>2026-04-11T13:16:31.001Z</time></trkpt><trkpt lat="44.555132068768515" lon="10.412768525428023"><ele>438.0</ele><time>2026-04-11T13:16:33.001Z</time></trkpt><trkpt lat="44.55499553010009" lon="10.412721082229263"><ele>436.79999999999995</ele><time>2026-04-11T13:16:35.001Z</time></trkpt><trkpt lat="44.554922892687735" lon="10.412711890306454"><ele>435.59999999999997</ele><time>2026-04-11T13:16:36.001Z</time></trkpt><trkpt lat="44.554846582175834" lon="10.412706499320144"><ele>434.40000000000003</ele><time>2026-04-11T13:16:37.001Z</time></trkpt><trkpt lat="44.55477121554088" lon="10.412701568152285"><ele>433.20000000000005</ele><time>2026-04-11T13:16:38.001Z</time></trkpt><trkpt lat="44.554655888883374" lon="10.412690888100942"><ele>432.0</ele><time>2026-04-11T13:16:40.001Z</time></trkpt><trkpt lat="44.55454035821742" lon="10.412681766300592"><ele>432.3333333333333</ele><time>2026-04-11T13:16:42.001Z</time></trkpt><trkpt lat="44.554470587523696" lon="10.412677603692996"><ele>432.66666666666663</ele><time>2026-04-11T13:16:43.001Z</time></trkpt><trkpt lat="44.55434586789519" lon="10.412680725948222"><ele>433.0</ele><time>2026-04-11T13:16:45.001Z</time></trkpt><trkpt lat="44.554271662518424" lon="10.4126876280041"><ele>433.3333333333333</ele><time>2026-04-11T13:16:46.001Z</time></trkpt><trkpt lat="44.55419735983763" lon="10.41270048678207"><ele>433.66666666666663</ele><time>2026-04-11T13:16:47Z</time></trkpt><trkpt lat="44.55411719773386" lon="10.412719535366042"><ele>434.0</ele><time>2026-04-11T13:16:48Z</time></trkpt><trkpt lat="44.55403582706134" lon="10.412745996097263"><ele>433.99999999999994</ele><time>2026-04-11T13:16:49Z</time></trkpt><trkpt lat="44.55395943465348" lon="10.412774723724185"><ele>434.0</ele><time>2026-04-11T13:16:50Z</time></trkpt><trkpt lat="44.55389237838714" lon="10.412802475678065"><ele>434.0</ele><time>2026-04-11T13:16:51Z</time></trkpt><trkpt lat="44.55383104704779" lon="10.412828009090209"><ele>434.0</ele><time>2026-04-11T13:16:52Z</time></trkpt><trkpt lat="44.553770388583764" lon="10.412851948264468"><ele>433.99999999999994</ele><time>2026-04-11T13:16:53Z</time></trkpt><trkpt lat="44.55367720294762" lon="10.412914722882753"><ele>434.0</ele><time>2026-04-11T13:16:55Z</time></trkpt><trkpt lat="44.55359489903553" lon="10.412902786660007"><ele>436.79999999999995</ele><time>2026-04-11T13:16:58Z</time></trkpt><trkpt lat="44.55353680646937" lon="10.412794344981554"><ele>439.59999999999997</ele><time>2026-04-11T13:17:00Z</time></trkpt><trkpt lat="44.55350845666996" lon="10.412640980127186"><ele>442.4</ele><time>2026-04-11T13:17:02Z</time></trkpt><trkpt lat="44.553487507273964" lon="10.412541871951342"><ele>445.2</ele><time>2026-04-11T13:17:03Z</time></trkpt><trkpt lat="44.55345743117694" lon="10.412426922460615"><ele>448.0</ele><time>2026-04-11T13:17:04Z</time></trkpt><trkpt lat="44.55342274097505" lon="10.41230610483054"><ele>448.00000000000006</ele><time>2026-04-11T13:17:05Z</time></trkpt><trkpt lat="44.553398026782595" lon="10.412202911329658"><ele>448.0</ele><time>2026-04-11T13:17:06Z</time></trkpt><trkpt lat="44.55336231080929" lon="10.412086960438165"><ele>448.0</ele><time>2026-04-11T13:17:08.001Z</time></trkpt><trkpt lat="44.55335837347555" lon="10.411922325848835"><ele>448.0</ele><time>2026-04-11T13:17:09.001Z</time></trkpt><trkpt lat="44.55336418989062" lon="10.411808579426848"><ele>448.00000000000006</ele><time>2026-04-11T13:17:10.001Z</time></trkpt><trkpt lat="44.55336856268662" lon="10.41170463842998"><ele>448.0</ele><time>2026-04-11T13:17:11.001Z</time></trkpt><trkpt lat="44.55340226843818" lon="10.411600864644036"><ele>447.6666666666667</ele><time>2026-04-11T13:17:12.001Z</time></trkpt><trkpt lat="44.55345808663485" lon="10.411500936522213"><ele>447.33333333333337</ele><time>2026-04-11T13:17:13.001Z</time></trkpt><trkpt lat="44.55352024850899" lon="10.411430831342141"><ele>447.0</ele><time>2026-04-11T13:17:14.001Z</time></trkpt><trkpt lat="44.553588207310725" lon="10.411375768601944"><ele>446.66666666666663</ele><time>2026-04-11T13:17:15.001Z</time></trkpt><trkpt lat="44.553638271956935" lon="10.411257938133229"><ele>446.3333333333333</ele><time>2026-04-11T13:17:17.001Z</time></trkpt><trkpt lat="44.5535894734536" lon="10.411151082536016"><ele>446.0</ele><time>2026-04-11T13:17:19.001Z</time></trkpt><trkpt lat="44.553525139338554" lon="10.411111834064174"><ele>445.99999999999994</ele><time>2026-04-11T13:17:20.001Z</time></trkpt><trkpt lat="44.5534483431514" lon="10.411047304139354"><ele>446.0</ele><time>2026-04-11T13:17:21.001Z</time></trkpt><trkpt lat="44.55337157603361" lon="10.4109949707177"><ele>446.0</ele><time>2026-04-11T13:17:22.001Z</time></trkpt><trkpt lat="44.55330096568072" lon="10.410940568816672"><ele>446.0</ele><time>2026-04-11T13:17:23.001Z</time></trkpt><trkpt lat="44.55321784952786" lon="10.410908358681086"><ele>445.99999999999994</ele><time>2026-04-11T13:17:24.001Z</time></trkpt><trkpt lat="44.55315850688495" lon="10.410865397092163"><ele>446.0</ele><time>2026-04-11T13:17:25.001Z</time></trkpt><trkpt lat="44.55305442621727" lon="10.41080682289736"><ele>445.99999999999994</ele><time>2026-04-11T13:17:27.001Z</time></trkpt><trkpt lat="44.552979229847544" lon="10.41074882870969"><ele>446.0</ele><time>2026-04-11T13:17:29.001Z</time></trkpt><trkpt lat="44.552945149325204" lon="10.41064962590535"><ele>446.0</ele><time>2026-04-11T13:17:31.001Z</time></trkpt><trkpt lat="44.55294961773456" lon="10.410543398262899"><ele>446.0</ele><time>2026-04-11T13:17:32.001Z</time></trkpt><trkpt lat="44.552981968929885" lon="10.4104568483719"><ele>445.99999999999994</ele><time>2026-04-11T13:17:33.001Z</time></trkpt><trkpt lat="44.553028069768686" lon="10.41039309846116"><ele>446.0</ele><time>2026-04-11T13:17:34.001Z</time></trkpt><trkpt lat="44.55306633980545" lon="10.410291111269926"><ele>447.0</ele><time>2026-04-11T13:17:36.001Z</time></trkpt><trkpt lat="44.55312425981459" lon="10.41012556945362"><ele>448.0</ele><time>2026-04-11T13:17:38.001Z</time></trkpt><trkpt lat="44.55317923151674" lon="10.409977023559463"><ele>449.0</ele><time>2026-04-11T13:17:40.001Z</time></trkpt><trkpt lat="44.5532711686743" lon="10.409869862495302"><ele>450.0</ele><time>2026-04-11T13:17:42.001Z</time></trkpt><trkpt lat="44.553368055766015" lon="10.409768660422142"><ele>450.0</ele><time>2026-04-11T13:17:43.999Z</time></trkpt><trkpt lat="44.553456165465626" lon="10.409705975437364"><ele>450.0</ele><time>2026-04-11T13:17:45.999Z</time></trkpt><trkpt lat="44.55347867823635" lon="10.409577129505498"><ele>450.0</ele><time>2026-04-11T13:17:47.999Z</time></trkpt><trkpt lat="44.55342306105807" lon="10.409480037730212"><ele>450.0</ele><time>2026-04-11T13:17:57Z</time></trkpt><trkpt lat="44.55338426359282" lon="10.409389344323124"><ele>450.0</ele><time>2026-04-11T13:17:59Z</time></trkpt><trkpt lat="44.553411980443215" lon="10.409295002205138"><ele>450.0</ele><time>2026-04-11T13:18:01Z</time></trkpt><trkpt lat="44.55343690700279" lon="10.40921009098825"><ele>452.4</ele><time>2026-04-11T13:18:02Z</time></trkpt><trkpt lat="44.55345836681473" lon="10.409042548888367"><ele>454.8</ele><time>2026-04-11T13:18:04Z</time></trkpt><trkpt lat="44.553434342054786" lon="10.4089455547794"><ele>457.20000000000005</ele><time>2026-04-11T13:18:06Z</time></trkpt><trkpt lat="44.553384823278776" lon="10.40880656481879"><ele>459.6</ele><time>2026-04-11T13:18:08Z</time></trkpt><trkpt lat="44.55334304578985" lon="10.40873822810191"><ele>462.0</ele><time>2026-04-11T13:18:09Z</time></trkpt><trkpt lat="44.55325002561363" lon="10.40870940830606"><ele>463.0</ele><time>2026-04-11T13:18:11Z</time></trkpt><trkpt lat="44.55317583647291" lon="10.408687034777632"><ele>464.0</ele><time>2026-04-11T13:18:12Z</time></trkpt><trkpt lat="44.55309153041889" lon="10.408661072428977"><ele>465.0</ele><time>2026-04-11T13:18:13Z</time></trkpt><trkpt lat="44.55298136209859" lon="10.408603838859415"><ele>466.0</ele><time>2026-04-11T13:18:15Z</time></trkpt><trkpt lat="44.55290748596678" lon="10.40857696594521"><ele>467.0</ele><time>2026-04-11T13:18:16Z</time></trkpt><trkpt lat="44.552844034595196" lon="10.408574369078876"><ele>468.0</ele><time>2026-04-11T13:18:17Z</time></trkpt><trkpt lat="44.55275042238511" lon="10.408511802873983"><ele>470.0</ele><time>2026-04-11T13:18:19Z</time></trkpt><trkpt lat="44.5527114157833" lon="10.408430797601005"><ele>472.0</ele><time>2026-04-11T13:18:21Z</time></trkpt><trkpt lat="44.55268913475151" lon="10.40827733274662"><ele>474.0</ele><time>2026-04-11T13:18:23Z</time></trkpt><trkpt lat="44.552697564297524" lon="10.408182733971103"><ele>476.0</ele><time>2026-04-11T13:18:24Z</time></trkpt><trkpt lat="44.55272305724838" lon="10.408027480989748"><ele>478.0</ele><time>2026-04-11T13:18:26Z</time></trkpt><trkpt lat="44.55272997896948" lon="10.407931597631825"><ele>480.0</ele><time>2026-04-11T13:18:28Z</time></trkpt><trkpt lat="44.55263692475493" lon="10.407865388481133"><ele>480.0</ele><time>2026-04-11T13:18:30Z</time></trkpt><trkpt lat="44.55254570624896" lon="10.407863516808817"><ele>480.0</ele><time>2026-04-11T13:18:32Z</time></trkpt><trkpt lat="44.552465884816094" lon="10.4078648568767"><ele>480.0</ele><time>2026-04-11T13:18:34Z</time></trkpt><trkpt lat="44.55240408563119" lon="10.40783205227741"><ele>480.0</ele><time>2026-04-11T13:18:35Z</time></trkpt><trkpt lat="44.5523277311834" lon="10.407839474962993"><ele>480.0</ele><time>2026-04-11T13:18:37Z</time></trkpt><trkpt lat="44.55225440128651" lon="10.40786814208976"><ele>480.0</ele><time>2026-04-11T13:18:39Z</time></trkpt><trkpt lat="44.552147903628125" lon="10.407856173882056"><ele>480.0</ele><time>2026-04-11T13:18:41Z</time></trkpt><trkpt lat="44.552063412198684" lon="10.407841534786387"><ele>480.0</ele><time>2026-04-11T13:18:43.001Z</time></trkpt><trkpt lat="44.55202637787975" lon="10.407945767549016"><ele>480.0</ele><time>2026-04-11T13:18:46.001Z</time></trkpt><trkpt lat="44.55200035901299" lon="10.408083063581483"><ele>480.0</ele><time>2026-04-11T13:18:48.001Z</time></trkpt><trkpt lat="44.5519304481688" lon="10.408193466307793"><ele>480.0</ele><time>2026-04-11T13:18:50.001Z</time></trkpt><trkpt lat="44.55180573271425" lon="10.408282843109976"><ele>484.5</ele><time>2026-04-11T13:18:52.001Z</time></trkpt><trkpt lat="44.551742433654965" lon="10.408337785163353"><ele>489.0</ele><time>2026-04-11T13:18:53.001Z</time></trkpt><trkpt lat="44.551662170322714" lon="10.408374236076222"><ele>493.5</ele><time>2026-04-11T13:18:55.001Z</time></trkpt><trkpt lat="44.55158088534659" lon="10.408346847785982"><ele>498.0</ele><time>2026-04-11T13:18:57.001Z</time></trkpt><trkpt lat="44.551502383394244" lon="10.408269999064295"><ele>502.5</ele><time>2026-04-11T13:18:59.001Z</time></trkpt><trkpt lat="44.55144164436824" lon="10.408226615870952"><ele>507.0</ele><time>2026-04-11T13:19:00.001Z</time></trkpt><trkpt lat="44.55137771982366" lon="10.408191758300967"><ele>507.0</ele><time>2026-04-11T13:19:01.001Z</time></trkpt><trkpt lat="44.55126577110134" lon="10.408202427462362"><ele>507.00000000000006</ele><time>2026-04-11T13:19:03.001Z</time></trkpt><trkpt lat="44.55114009858257" lon="10.408258956309634"><ele>507.00000000000006</ele><time>2026-04-11T13:19:05.001Z</time></trkpt><trkpt lat="44.551038503453455" lon="10.408260709101095"><ele>507.0</ele><time>2026-04-11T13:19:07.001Z</time></trkpt><trkpt lat="44.550968635669996" lon="10.408175606091413"><ele>507.0</ele><time>2026-04-11T13:19:09.001Z</time></trkpt><trkpt lat="44.550951744510954" lon="10.408036769903669"><ele>509.6666666666667</ele><time>2026-04-11T13:19:11.001Z</time></trkpt><trkpt lat="44.55087649081197" lon="10.408015579720818"><ele>512.3333333333334</ele><time>2026-04-11T13:19:13.001Z</time></trkpt><trkpt lat="44.55082109436564" lon="10.408091988840805"><ele>515.0</ele><time>2026-04-11T13:19:14.001Z</time></trkpt><trkpt lat="44.55076134613764" lon="10.408176805800998"><ele>517.6666666666667</ele><time>2026-04-11T13:19:15.001Z</time></trkpt><trkpt lat="44.5506910769079" lon="10.408244213581995"><ele>520.3333333333334</ele><time>2026-04-11T13:19:16.001Z</time></trkpt><trkpt lat="44.55062529643486" lon="10.40828226438847"><ele>523.0</ele><time>2026-04-11T13:19:17.001Z</time></trkpt><trkpt lat="44.55055085183112" lon="10.408326282626033"><ele>523.0</ele><time>2026-04-11T13:19:18.001Z</time></trkpt><trkpt lat="44.55047751935339" lon="10.40839696616434"><ele>523.0</ele><time>2026-04-11T13:19:19.001Z</time></trkpt><trkpt lat="44.550414420381614" lon="10.408461773709462"><ele>523.0</ele><time>2026-04-11T13:19:20.001Z</time></trkpt><trkpt lat="44.550358409947314" lon="10.408505696654732"><ele>523.0</ele><time>2026-04-11T13:19:21.001Z</time></trkpt><trkpt lat="44.55026915032174" lon="10.408586436621674"><ele>523.0</ele><time>2026-04-11T13:19:23.001Z</time></trkpt><trkpt lat="44.55020274040888" lon="10.408641224477744"><ele>523.0</ele><time>2026-04-11T13:19:24.001Z</time></trkpt><trkpt lat="44.55012409335244" lon="10.408706944670904"><ele>525.6</ele><time>2026-04-11T13:19:25.001Z</time></trkpt><trkpt lat="44.55003131710671" lon="10.408762947047403"><ele>528.1999999999999</ele><time>2026-04-11T13:19:27.001Z</time></trkpt><trkpt lat="44.54994314605885" lon="10.408810716984298"><ele>530.8</ele><time>2026-04-11T13:19:29.001Z</time></trkpt><trkpt lat="44.54983532950463" lon="10.408855879847195"><ele>533.4</ele><time>2026-04-11T13:19:31.001Z</time></trkpt><trkpt lat="44.54974405289527" lon="10.408967109252753"><ele>536.0</ele><time>2026-04-11T13:19:33.001Z</time></trkpt><trkpt lat="44.54969474922282" lon="10.409036050934066"><ele>536.0</ele><time>2026-04-11T13:19:34.001Z</time></trkpt><trkpt lat="44.54961120688289" lon="10.409144914140908"><ele>536.0</ele><time>2026-04-11T13:19:36.001Z</time></trkpt><trkpt lat="44.54953827185483" lon="10.409212958366055"><ele>536.0</ele><time>2026-04-11T13:19:38.001Z</time></trkpt><trkpt lat="44.549433841395846" lon="10.409325679515298"><ele>536.0</ele><time>2026-04-11T13:19:40.002Z</time></trkpt><trkpt lat="44.54936961341467" lon="10.4093882152181"><ele>536.0</ele><time>2026-04-11T13:19:41.002Z</time></trkpt><trkpt lat="44.54927465710323" lon="10.409453545928226"><ele>538.2</ele><time>2026-04-11T13:19:43.002Z</time></trkpt><trkpt lat="44.5491316498362" lon="10.409507378711671"><ele>540.4000000000001</ele><time>2026-04-11T13:19:45.002Z</time></trkpt><trkpt lat="44.549029168611774" lon="10.409558553205713"><ele>542.6</ele><time>2026-04-11T13:19:46.002Z</time></trkpt><trkpt lat="44.54893757407463" lon="10.409603898201322"><ele>544.8000000000001</ele><time>2026-04-11T13:19:47.002Z</time></trkpt><trkpt lat="44.54886673801474" lon="10.409639086536837"><ele>547.0</ele><time>2026-04-11T13:19:48.002Z</time></trkpt><trkpt lat="44.54877221535868" lon="10.409672972396372"><ele>549.8333333333334</ele><time>2026-04-11T13:19:49Z</time></trkpt><trkpt lat="44.54868499134424" lon="10.409700279250245"><ele>552.6666666666667</ele><time>2026-04-11T13:19:50Z</time></trkpt><trkpt lat="44.54859541907041" lon="10.409725699624616"><ele>555.5</ele><time>2026-04-11T13:19:51Z</time></trkpt><trkpt lat="44.54851618114837" lon="10.40977288309134"><ele>558.3333333333334</ele><time>2026-04-11T13:19:52Z</time></trkpt><trkpt lat="44.54844183645438" lon="10.409834731366043"><ele>561.1666666666666</ele><time>2026-04-11T13:19:53Z</time></trkpt><trkpt lat="44.54836038211926" lon="10.409904268379728"><ele>564.0</ele><time>2026-04-11T13:19:54Z</time></trkpt><trkpt lat="44.54828926465992" lon="10.40996893036186"><ele>564.0</ele><time>2026-04-11T13:19:55Z</time></trkpt><trkpt lat="44.5482221733872" lon="10.410043805051432"><ele>564.0</ele><time>2026-04-11T13:19:56Z</time></trkpt><trkpt lat="44.548150028850344" lon="10.410109087199396"><ele>564.0</ele><time>2026-04-11T13:19:57.001Z</time></trkpt><trkpt lat="44.54807836404595" lon="10.410182686311733"><ele>564.0</ele><time>2026-04-11T13:19:58.001Z</time></trkpt><trkpt lat="44.54800439148707" lon="10.410287296025684"><ele>564.0</ele><time>2026-04-11T13:19:59Z</time></trkpt><trkpt lat="44.547936017022955" lon="10.410399366723754"><ele>565.2</ele><time>2026-04-11T13:20:00.001Z</time></trkpt><trkpt lat="44.54785785474036" lon="10.41050284282941"><ele>566.4</ele><time>2026-04-11T13:20:01.001Z</time></trkpt><trkpt lat="44.547775221839885" lon="10.410609272060793"><ele>567.6</ele><time>2026-04-11T13:20:02Z</time></trkpt><trkpt lat="44.547703519074744" lon="10.4107239094497"><ele>568.8</ele><time>2026-04-11T13:20:03.001Z</time></trkpt><trkpt lat="44.547626651468974" lon="10.410803549468202"><ele>570.0</ele><time>2026-04-11T13:20:04.001Z</time></trkpt><trkpt lat="44.54755858639746" lon="10.41085548511217"><ele>570.0</ele><time>2026-04-11T13:20:05.001Z</time></trkpt><trkpt lat="44.54746958201105" lon="10.41095702603038"><ele>570.0</ele><time>2026-04-11T13:20:07.001Z</time></trkpt><trkpt lat="44.54736283747475" lon="10.411044605617644"><ele>570.0</ele><time>2026-04-11T13:20:09.001Z</time></trkpt><trkpt lat="44.547281943356765" lon="10.411062645741127"><ele>570.0</ele><time>2026-04-11T13:20:10.001Z</time></trkpt><trkpt lat="44.54720196133545" lon="10.41103299326419"><ele>570.0</ele><time>2026-04-11T13:20:11.001Z</time></trkpt><trkpt lat="44.54714209447146" lon="10.411073902076907"><ele>570.0</ele><time>2026-04-11T13:20:12.001Z</time></trkpt><trkpt lat="44.54707614141576" lon="10.411109360982053"><ele>570.0</ele><time>2026-04-11T13:20:13.001Z</time></trkpt><trkpt lat="44.547011740664985" lon="10.411152719612076"><ele>570.0</ele><time>2026-04-11T13:20:14.001Z</time></trkpt><trkpt lat="44.54693942659014" lon="10.411191545107712"><ele>570.0</ele><time>2026-04-11T13:20:15.001Z</time></trkpt><trkpt lat="44.54686104785024" lon="10.411258974056837"><ele>570.0</ele><time>2026-04-11T13:20:16.001Z</time></trkpt><trkpt lat="44.54677643378109" lon="10.411324478572235"><ele>570.0</ele><time>2026-04-11T13:20:17.001Z</time></trkpt><trkpt lat="44.54668630933855" lon="10.41139626662444"><ele>569.8333333333334</ele><time>2026-04-11T13:20:18.001Z</time></trkpt><trkpt lat="44.54659810278127" lon="10.411462012997848"><ele>569.6666666666666</ele><time>2026-04-11T13:20:19.001Z</time></trkpt><trkpt lat="44.54652140016682" lon="10.411510537988802"><ele>569.5</ele><time>2026-04-11T13:20:20.001Z</time></trkpt><trkpt lat="44.546443577496895" lon="10.41156430094019"><ele>569.3333333333333</ele><time>2026-04-11T13:20:21.001Z</time></trkpt><trkpt lat="44.54636361487295" lon="10.411609801646462"><ele>569.1666666666666</ele><time>2026-04-11T13:20:22.001Z</time></trkpt><trkpt lat="44.546297333580604" lon="10.411658027612331"><ele>569.0</ele><time>2026-04-11T13:20:23.001Z</time></trkpt><trkpt lat="44.54624613299921" lon="10.411728859371049"><ele>570.1666666666666</ele><time>2026-04-11T13:20:24.001Z</time></trkpt><trkpt lat="44.54620605528313" lon="10.411798735324023"><ele>571.3333333333333</ele><time>2026-04-11T13:20:25.001Z</time></trkpt><trkpt lat="44.54615056064394" lon="10.411855546821052"><ele>572.5</ele><time>2026-04-11T13:20:26.001Z</time></trkpt><trkpt lat="44.5460729624858" lon="10.411895673712577"><ele>573.6666666666666</ele><time>2026-04-11T13:20:27.001Z</time></trkpt><trkpt lat="44.54598565649781" lon="10.41188918234617"><ele>574.8333333333334</ele><time>2026-04-11T13:20:28.001Z</time></trkpt><trkpt lat="44.54591926870842" lon="10.411835320787839"><ele>576.0</ele><time>2026-04-11T13:20:29.001Z</time></trkpt><trkpt lat="44.54584316199082" lon="10.411774636920931"><ele>576.0</ele><time>2026-04-11T13:20:30.001Z</time></trkpt><trkpt lat="44.545767128158616" lon="10.411732367717741"><ele>576.0</ele><time>2026-04-11T13:20:31.001Z</time></trkpt><trkpt lat="44.54570544804366" lon="10.411689964727444"><ele>576.0</ele><time>2026-04-11T13:20:32.001Z</time></trkpt><trkpt lat="44.54561549748001" lon="10.411675509140876"><ele>576.0</ele><time>2026-04-11T13:20:33.001Z</time></trkpt><trkpt lat="44.545518765252126" lon="10.411654796249213"><ele>576.0</ele><time>2026-04-11T13:20:34.001Z</time></trkpt><trkpt lat="44.54541624612618" lon="10.411662012559969"><ele>576.0</ele><time>2026-04-11T13:20:35.001Z</time></trkpt><trkpt lat="44.54530749991495" lon="10.411651996357246"><ele>577.8</ele><time>2026-04-11T13:20:36.001Z</time></trkpt><trkpt lat="44.545202593222044" lon="10.41163051750766"><ele>579.6</ele><time>2026-04-11T13:20:37.001Z</time></trkpt><trkpt lat="44.545074176508734" lon="10.41160211728357"><ele>581.4</ele><time>2026-04-11T13:20:38.001Z</time></trkpt><trkpt lat="44.54496926402867" lon="10.411569045138247"><ele>583.2</ele><time>2026-04-11T13:20:39.001Z</time></trkpt><trkpt lat="44.54489762912981" lon="10.411540892973047"><ele>585.0</ele><time>2026-04-11T13:20:40.001Z</time></trkpt><trkpt lat="44.54479581253711" lon="10.411461261088375"><ele>585.0</ele><time>2026-04-11T13:20:42.001Z</time></trkpt><trkpt lat="44.544692886681666" lon="10.411428259483111"><ele>585.0</ele><time>2026-04-11T13:20:44.001Z</time></trkpt><trkpt lat="44.544622605723625" lon="10.411432700957556"><ele>585.0</ele><time>2026-04-11T13:20:46.001Z</time></trkpt><trkpt lat="44.54450599013091" lon="10.41142581500474"><ele>585.0</ele><time>2026-04-11T13:20:48.001Z</time></trkpt><trkpt lat="44.54440407943699" lon="10.411441197438716"><ele>585.0</ele><time>2026-04-11T13:20:50.001Z</time></trkpt><trkpt lat="44.54431539849833" lon="10.411439983645831"><ele>584.2</ele><time>2026-04-11T13:20:52.001Z</time></trkpt><trkpt lat="44.544295741475956" lon="10.411549561710382"><ele>583.4</ele><time>2026-04-11T13:20:54.001Z</time></trkpt><trkpt lat="44.5443118292199" lon="10.411745417039473"><ele>582.6</ele><time>2026-04-11T13:20:56.001Z</time></trkpt><trkpt lat="44.54430117002799" lon="10.411893289502014"><ele>581.8</ele><time>2026-04-11T13:20:57.001Z</time></trkpt><trkpt lat="44.544306994445705" lon="10.412039229679916"><ele>581.0</ele><time>2026-04-11T13:20:58.001Z</time></trkpt><trkpt lat="44.54432636979954" lon="10.412166384303838"><ele>580.5</ele><time>2026-04-11T13:20:59.001Z</time></trkpt><trkpt lat="44.544326613645694" lon="10.412285514680073"><ele>580.0</ele><time>2026-04-11T13:21:00.001Z</time></trkpt><trkpt lat="44.54432630654553" lon="10.412396382129872"><ele>579.5</ele><time>2026-04-11T13:21:01.001Z</time></trkpt><trkpt lat="44.54432858652537" lon="10.412516102742273"><ele>579.0</ele><time>2026-04-11T13:21:02.001Z</time></trkpt><trkpt lat="44.54433338266286" lon="10.412645420403019"><ele>578.5</ele><time>2026-04-11T13:21:03.001Z</time></trkpt><trkpt lat="44.54433553961217" lon="10.412762191346584"><ele>578.0</ele><time>2026-04-11T13:21:04.001Z</time></trkpt><trkpt lat="44.54433650749722" lon="10.412872869273558"><ele>578.0</ele><time>2026-04-11T13:21:05.001Z</time></trkpt><trkpt lat="44.54433565247281" lon="10.412982710831146"><ele>578.0</ele><time>2026-04-11T13:21:06.001Z</time></trkpt><trkpt lat="44.544335039585675" lon="10.413095032978852"><ele>578.0</ele><time>2026-04-11T13:21:07.002Z</time></trkpt><trkpt lat="44.54433916077284" lon="10.413226706586771"><ele>578.0</ele><time>2026-04-11T13:21:08.001Z</time></trkpt><trkpt lat="44.54433095172548" lon="10.41335149699237"><ele>578.0</ele><time>2026-04-11T13:21:09.001Z</time></trkpt><trkpt lat="44.54432466565833" lon="10.413460996639662"><ele>578.0</ele><time>2026-04-11T13:21:10.001Z</time></trkpt><trkpt lat="44.54430840130641" lon="10.413551667923262"><ele>577.1999999999999</ele><time>2026-04-11T13:21:11.001Z</time></trkpt><trkpt lat="44.54422840159644" lon="10.41359065306191"><ele>576.4</ele><time>2026-04-11T13:21:12.001Z</time></trkpt><trkpt lat="44.54412816913795" lon="10.413554523913138"><ele>575.5999999999999</ele><time>2026-04-11T13:21:13.001Z</time></trkpt><trkpt lat="44.544022312197534" lon="10.413491320975774"><ele>574.8</ele><time>2026-04-11T13:21:14.001Z</time></trkpt><trkpt lat="44.543905307244785" lon="10.413440564589028"><ele>574.0</ele><time>2026-04-11T13:21:15.001Z</time></trkpt><trkpt lat="44.54378380379245" lon="10.41338785677967"><ele>572.2</ele><time>2026-04-11T13:21:16.001Z</time></trkpt><trkpt lat="44.5436701866975" lon="10.41335431301623"><ele>570.4</ele><time>2026-04-11T13:21:17.001Z</time></trkpt><trkpt lat="44.543570395017305" lon="10.413300103157884"><ele>568.6</ele><time>2026-04-11T13:21:18.001Z</time></trkpt><trkpt lat="44.5434860818979" lon="10.413248551196286"><ele>566.8</ele><time>2026-04-11T13:21:19.001Z</time></trkpt><trkpt lat="44.543409650421026" lon="10.4131968668648"><ele>565.0</ele><time>2026-04-11T13:21:21.001Z</time></trkpt><trkpt lat="44.54334220261883" lon="10.413156822854052"><ele>565.0</ele><time>2026-04-11T13:21:23.001Z</time></trkpt><trkpt lat="44.543259696353985" lon="10.413122306337943"><ele>565.0</ele><time>2026-04-11T13:21:24.001Z</time></trkpt><trkpt lat="44.54316010600808" lon="10.413083613240124"><ele>565.0</ele><time>2026-04-11T13:21:25.001Z</time></trkpt><trkpt lat="44.54305728690318" lon="10.413048057839108"><ele>565.0</ele><time>2026-04-11T13:21:26.001Z</time></trkpt><trkpt lat="44.54296326687056" lon="10.413021843868025"><ele>565.0</ele><time>2026-04-11T13:21:27.001Z</time></trkpt><trkpt lat="44.542867388085746" lon="10.413006916309788"><ele>563.8</ele><time>2026-04-11T13:21:28.001Z</time></trkpt><trkpt lat="44.542773002869374" lon="10.413000508082899"><ele>562.6</ele><time>2026-04-11T13:21:29.001Z</time></trkpt><trkpt lat="44.54268098390502" lon="10.41299763385868"><ele>561.4</ele><time>2026-04-11T13:21:30.001Z</time></trkpt><trkpt lat="44.542587068833384" lon="10.412991556425151"><ele>560.2</ele><time>2026-04-11T13:21:31.001Z</time></trkpt><trkpt lat="44.54249841896583" lon="10.412980910678797"><ele>559.0</ele><time>2026-04-11T13:21:32.001Z</time></trkpt><trkpt lat="44.54241134603402" lon="10.412963038627492"><ele>558.2</ele><time>2026-04-11T13:21:33.001Z</time></trkpt><trkpt lat="44.54232291951007" lon="10.4129405311353"><ele>557.4</ele><time>2026-04-11T13:21:34.001Z</time></trkpt><trkpt lat="44.542232131771485" lon="10.412913385448077"><ele>556.6</ele><time>2026-04-11T13:21:35.001Z</time></trkpt><trkpt lat="44.54214517185492" lon="10.412869037506098"><ele>555.8</ele><time>2026-04-11T13:21:36.001Z</time></trkpt><trkpt lat="44.54205896476841" lon="10.412814427437539"><ele>555.0</ele><time>2026-04-11T13:21:37.001Z</time></trkpt><trkpt lat="44.54197079772383" lon="10.412754135323834"><ele>553.0</ele><time>2026-04-11T13:21:38.001Z</time></trkpt><trkpt lat="44.54188032663961" lon="10.412684078084057"><ele>551.0</ele><time>2026-04-11T13:21:39.001Z</time></trkpt><trkpt lat="44.54179032011736" lon="10.412588645873189"><ele>549.0</ele><time>2026-04-11T13:21:40.001Z</time></trkpt><trkpt lat="44.541700502598275" lon="10.412510963341749"><ele>547.0</ele><time>2026-04-11T13:21:41.001Z</time></trkpt><trkpt lat="44.54160296976904" lon="10.412455214256521"><ele>545.0</ele><time>2026-04-11T13:21:42.001Z</time></trkpt><trkpt lat="44.54149819975077" lon="10.412421766777106"><ele>545.0</ele><time>2026-04-11T13:21:43.001Z</time></trkpt><trkpt lat="44.541399545378596" lon="10.412374265120956"><ele>545.0</ele><time>2026-04-11T13:21:44.001Z</time></trkpt><trkpt lat="44.54130057872965" lon="10.412332633102215"><ele>545.0</ele><time>2026-04-11T13:21:45.001Z</time></trkpt><trkpt lat="44.541215307623276" lon="10.41230086418479"><ele>545.0</ele><time>2026-04-11T13:21:46.001Z</time></trkpt><trkpt lat="44.54115199737956" lon="10.412259640078052"><ele>545.0</ele><time>2026-04-11T13:21:47.001Z</time></trkpt><trkpt lat="44.54109047837635" lon="10.412219448741446"><ele>545.0</ele><time>2026-04-11T13:21:48.001Z</time></trkpt><trkpt lat="44.54101910174142" lon="10.412191850305065"><ele>541.8</ele><time>2026-04-11T13:21:49.001Z</time></trkpt><trkpt lat="44.54095554238554" lon="10.412095663865534"><ele>538.6</ele><time>2026-04-11T13:21:50.001Z</time></trkpt><trkpt lat="44.54089918545006" lon="10.411988290707882"><ele>535.4</ele><time>2026-04-11T13:21:51.001Z</time></trkpt><trkpt lat="44.54085814434363" lon="10.411880666983283"><ele>532.2</ele><time>2026-04-11T13:21:52.001Z</time></trkpt><trkpt lat="44.54081247830485" lon="10.411807414007411"><ele>529.0</ele><time>2026-04-11T13:21:53.001Z</time></trkpt><trkpt lat="44.54068519728658" lon="10.41178963576038"><ele>529.0</ele><time>2026-04-11T13:21:55Z</time></trkpt><trkpt lat="44.5406145317584" lon="10.411824632231852"><ele>529.0</ele><time>2026-04-11T13:21:56Z</time></trkpt><trkpt lat="44.540536356831986" lon="10.411866339111546"><ele>529.0</ele><time>2026-04-11T13:21:57Z</time></trkpt><trkpt lat="44.54046243769236" lon="10.411890533278257"><ele>529.0</ele><time>2026-04-11T13:21:58Z</time></trkpt><trkpt lat="44.54039719702103" lon="10.411895738438842"><ele>529.0</ele><time>2026-04-11T13:21:59Z</time></trkpt><trkpt lat="44.54028304662738" lon="10.411798249685935"><ele>529.0</ele><time>2026-04-11T13:22:01Z</time></trkpt><trkpt lat="44.54022817509248" lon="10.411727082801756"><ele>527.8571428571429</ele><time>2026-04-11T13:22:02Z</time></trkpt><trkpt lat="44.540176334213406" lon="10.411658365473036"><ele>526.7142857142857</ele><time>2026-04-11T13:22:03Z</time></trkpt><trkpt lat="44.540122010685025" lon="10.411600894163195"><ele>525.5714285714286</ele><time>2026-04-11T13:22:04Z</time></trkpt><trkpt lat="44.54005871996536" lon="10.411557954218756"><ele>524.4285714285714</ele><time>2026-04-11T13:22:05Z</time></trkpt><trkpt lat="44.539999143177226" lon="10.411517257493893"><ele>523.2857142857143</ele><time>2026-04-11T13:22:06Z</time></trkpt><trkpt lat="44.53993483591443" lon="10.411484382675734"><ele>522.1428571428571</ele><time>2026-04-11T13:22:07Z</time></trkpt><trkpt lat="44.53986886820592" lon="10.411462808674358"><ele>521.0</ele><time>2026-04-11T13:22:08Z</time></trkpt><trkpt lat="44.53976456350254" lon="10.411443666399148"><ele>521.0</ele><time>2026-04-11T13:22:10Z</time></trkpt><trkpt lat="44.539649692318875" lon="10.411519494613719"><ele>521.0</ele><time>2026-04-11T13:22:12Z</time></trkpt><trkpt lat="44.5395941536912" lon="10.4115635168566"><ele>521.0</ele><time>2026-04-11T13:22:13Z</time></trkpt><trkpt lat="44.53950453068122" lon="10.411644669876347"><ele>521.0</ele><time>2026-04-11T13:22:15Z</time></trkpt><trkpt lat="44.53941260011932" lon="10.411742508649446"><ele>521.0</ele><time>2026-04-11T13:22:17Z</time></trkpt><trkpt lat="44.53931112068446" lon="10.411774344295294"><ele>520.6666666666666</ele><time>2026-04-11T13:22:19Z</time></trkpt><trkpt lat="44.53924833988846" lon="10.41174607685899"><ele>520.3333333333333</ele><time>2026-04-11T13:22:20Z</time></trkpt><trkpt lat="44.539178892038436" lon="10.411707283740697"><ele>520.0</ele><time>2026-04-11T13:22:21Z</time></trkpt><trkpt lat="44.539113968044404" lon="10.411675776881024"><ele>519.6666666666666</ele><time>2026-04-11T13:22:22Z</time></trkpt><trkpt lat="44.538972668780495" lon="10.411624616855347"><ele>519.3333333333334</ele><time>2026-04-11T13:22:24Z</time></trkpt><trkpt lat="44.53888941063716" lon="10.411604474523894"><ele>519.0</ele><time>2026-04-11T13:22:25Z</time></trkpt><trkpt lat="44.53880651863244" lon="10.411580165363862"><ele>519.0</ele><time>2026-04-11T13:22:26Z</time></trkpt><trkpt lat="44.53873050125522" lon="10.411555732923267"><ele>519.0</ele><time>2026-04-11T13:22:27Z</time></trkpt><trkpt lat="44.53866487314884" lon="10.411536641026029"><ele>519.0</ele><time>2026-04-11T13:22:28Z</time></trkpt><trkpt lat="44.53860437793593" lon="10.411506006994017"><ele>519.0</ele><time>2026-04-11T13:22:29Z</time></trkpt><trkpt lat="44.538511718118464" lon="10.411455282110607"><ele>519.0</ele><time>2026-04-11T13:22:31Z</time></trkpt><trkpt lat="44.53843106973772" lon="10.411447863080072"><ele>519.0</ele><time>2026-04-11T13:22:33Z</time></trkpt><trkpt lat="44.53831969654673" lon="10.411451504030996"><ele>518.6</ele><time>2026-04-11T13:22:35Z</time></trkpt><trkpt lat="44.538205466155915" lon="10.41146511129795"><ele>518.2</ele><time>2026-04-11T13:22:37Z</time></trkpt><trkpt lat="44.53810087170005" lon="10.411470264940888"><ele>517.8000000000001</ele><time>2026-04-11T13:22:39Z</time></trkpt><trkpt lat="44.53802195745938" lon="10.411477652587028"><ele>517.4</ele><time>2026-04-11T13:22:41.001Z</time></trkpt><trkpt lat="44.53794003330871" lon="10.411475101774338"><ele>517.0</ele><time>2026-04-11T13:22:43.001Z</time></trkpt><trkpt lat="44.53783558538961" lon="10.411455352080164"><ele>516.5</ele><time>2026-04-11T13:22:48.001Z</time></trkpt><trkpt lat="44.53772595756966" lon="10.411437249056794"><ele>516.0</ele><time>2026-04-11T13:22:50.001Z</time></trkpt><trkpt lat="44.537634029750635" lon="10.411451019139658"><ele>515.5</ele><time>2026-04-11T13:22:52.001Z</time></trkpt><trkpt lat="44.53755434396006" lon="10.41151927178161"><ele>515.0</ele><time>2026-04-11T13:22:54.001Z</time></trkpt><trkpt lat="44.53748261091884" lon="10.41157063299945"><ele>514.5</ele><time>2026-04-11T13:22:56.001Z</time></trkpt><trkpt lat="44.537424548659736" lon="10.411610646242298"><ele>514.0</ele><time>2026-04-11T13:22:59.001Z</time></trkpt><trkpt lat="44.537346952242494" lon="10.411617284622315"><ele>514.0</ele><time>2026-04-11T13:23:01.001Z</time></trkpt><trkpt lat="44.53725052785379" lon="10.411598977769264"><ele>514.0</ele><time>2026-04-11T13:23:03.001Z</time></trkpt><trkpt lat="44.537177494555316" lon="10.411585854367903"><ele>514.0</ele><time>2026-04-11T13:23:15.001Z</time></trkpt><trkpt lat="44.53711444998203" lon="10.411572034052991"><ele>514.0</ele><time>2026-04-11T13:23:20.001Z</time></trkpt><trkpt lat="44.53704944955214" lon="10.411580070513361"><ele>514.0</ele><time>2026-04-11T13:24:06.001Z</time></trkpt><trkpt lat="44.53698497690315" lon="10.411581008705372"><ele>514.0</ele><time>2026-04-11T13:24:20.001Z</time></trkpt><trkpt lat="44.53692289015517" lon="10.4115514155822"><ele>514.0</ele><time>2026-04-11T13:24:32.001Z</time></trkpt><trkpt lat="44.5368751100139" lon="10.411623924214485"><ele>514.5</ele><time>2026-04-11T13:31:23Z</time></trkpt><trkpt lat="44.536803117942995" lon="10.411644749592783"><ele>515.0</ele><time>2026-04-11T13:31:35.001Z</time></trkpt><trkpt lat="44.53674279193203" lon="10.411723816899775"><ele>515.5</ele><time>2026-04-11T13:31:51.001Z</time></trkpt><trkpt lat="44.53673426989159" lon="10.411841586503083"><ele>516.0</ele><time>2026-04-11T13:31:53.001Z</time></trkpt><trkpt lat="44.5367387084031" lon="10.41198372480901"><ele>516.5</ele><time>2026-04-11T13:31:55.001Z</time></trkpt><trkpt lat="44.53673064885651" lon="10.412124803293134"><ele>517.0</ele><time>2026-04-11T13:31:57.001Z</time></trkpt><trkpt lat="44.536732945065765" lon="10.412281650998684"><ele>517.8333333333334</ele><time>2026-04-11T13:31:59.001Z</time></trkpt><trkpt lat="44.53673854063342" lon="10.412460019330023"><ele>518.6666666666667</ele><time>2026-04-11T13:32:01.001Z</time></trkpt><trkpt lat="44.53673942067589" lon="10.412551359346176"><ele>519.5</ele><time>2026-04-11T13:32:02.001Z</time></trkpt><trkpt lat="44.536741323042946" lon="10.412647869704847"><ele>520.3333333333334</ele><time>2026-04-11T13:32:03.001Z</time></trkpt><trkpt lat="44.5367446157547" lon="10.412740107804945"><ele>521.1666666666666</ele><time>2026-04-11T13:32:04.001Z</time></trkpt><trkpt lat="44.53675476370891" lon="10.412829853820728"><ele>522.0</ele><time>2026-04-11T13:32:05.001Z</time></trkpt><trkpt lat="44.536824055866674" lon="10.412969359168027"><ele>523.8333333333334</ele><time>2026-04-11T13:32:07.001Z</time></trkpt><trkpt lat="44.53686951853496" lon="10.413054414310283"><ele>525.6666666666666</ele><time>2026-04-11T13:32:08.001Z</time></trkpt><trkpt lat="44.53691002459148" lon="10.41315274510982"><ele>527.5</ele><time>2026-04-11T13:32:09.001Z</time></trkpt><trkpt lat="44.536944870468744" lon="10.413254440964817"><ele>529.3333333333333</ele><time>2026-04-11T13:32:10.001Z</time></trkpt><trkpt lat="44.53698775400911" lon="10.41336589322599"><ele>531.1666666666666</ele><time>2026-04-11T13:32:11.001Z</time></trkpt><trkpt lat="44.53702862613842" lon="10.413482775211525"><ele>533.0</ele><time>2026-04-11T13:32:12.001Z</time></trkpt><trkpt lat="44.53706859901888" lon="10.41359437821539"><ele>533.0</ele><time>2026-04-11T13:32:13.001Z</time></trkpt><trkpt lat="44.53710280753058" lon="10.413690701023171"><ele>533.0</ele><time>2026-04-11T13:32:14.001Z</time></trkpt><trkpt lat="44.53713882657023" lon="10.413812435085566"><ele>533.0</ele><time>2026-04-11T13:32:16.001Z</time></trkpt><trkpt lat="44.53705070735645" lon="10.413811974332662"><ele>533.0</ele><time>2026-04-11T13:32:19.001Z</time></trkpt><trkpt lat="44.53697914292379" lon="10.41379162780911"><ele>533.0</ele><time>2026-04-11T13:32:20.001Z</time></trkpt><trkpt lat="44.53691339619647" lon="10.413794743489273"><ele>533.0</ele><time>2026-04-11T13:32:21.001Z</time></trkpt><trkpt lat="44.536854412589726" lon="10.413825951235925"><ele>534.8333333333333</ele><time>2026-04-11T13:32:22.001Z</time></trkpt><trkpt lat="44.5367987779605" lon="10.41387244226259"><ele>536.6666666666666</ele><time>2026-04-11T13:32:23.001Z</time></trkpt><trkpt lat="44.536731993784684" lon="10.413925956113383"><ele>538.5</ele><time>2026-04-11T13:32:24.001Z</time></trkpt><trkpt lat="44.536660973638924" lon="10.413968759125835"><ele>540.3333333333334</ele><time>2026-04-11T13:32:25Z</time></trkpt><trkpt lat="44.53657409738095" lon="10.41399254049496"><ele>542.1666666666667</ele><time>2026-04-11T13:32:27Z</time></trkpt><trkpt lat="44.5364790548674" lon="10.413964407931637"><ele>544.0</ele><time>2026-04-11T13:32:29Z</time></trkpt><trkpt lat="44.53640816762916" lon="10.413962617610695"><ele>544.0</ele><time>2026-04-11T13:32:30Z</time></trkpt><trkpt lat="44.53634231568717" lon="10.413962464140065"><ele>544.0</ele><time>2026-04-11T13:32:31Z</time></trkpt><trkpt lat="44.53626789146565" lon="10.413975008970487"><ele>544.0</ele><time>2026-04-11T13:32:32Z</time></trkpt><trkpt lat="44.536198098214854" lon="10.413995041044446"><ele>544.0</ele><time>2026-04-11T13:32:33Z</time></trkpt><trkpt lat="44.536136346654864" lon="10.414018260092249"><ele>544.0</ele><time>2026-04-11T13:32:34Z</time></trkpt><trkpt lat="44.53600217010871" lon="10.414040079294564"><ele>544.0</ele><time>2026-04-11T13:32:36Z</time></trkpt><trkpt lat="44.53593320749084" lon="10.414031413815104"><ele>544.1666666666667</ele><time>2026-04-11T13:32:37Z</time></trkpt><trkpt lat="44.53587001126332" lon="10.414023980304908"><ele>544.3333333333334</ele><time>2026-04-11T13:32:38Z</time></trkpt><trkpt lat="44.53574527337616" lon="10.41404739175044"><ele>544.5</ele><time>2026-04-11T13:32:40Z</time></trkpt><trkpt lat="44.53567565981033" lon="10.414055288075241"><ele>544.6666666666666</ele><time>2026-04-11T13:32:41Z</time></trkpt><trkpt lat="44.53559824952769" lon="10.41404017629647"><ele>544.8333333333333</ele><time>2026-04-11T13:32:42Z</time></trkpt><trkpt lat="44.53552979353801" lon="10.414029037797778"><ele>545.0</ele><time>2026-04-11T13:32:43Z</time></trkpt><trkpt lat="44.53542465746704" lon="10.414053348641946"><ele>545.6666666666666</ele><time>2026-04-11T13:32:45Z</time></trkpt><trkpt lat="44.53534732384099" lon="10.414067936742402"><ele>546.3333333333333</ele><time>2026-04-11T13:32:47Z</time></trkpt><trkpt lat="44.535279836572435" lon="10.414066193036186"><ele>547.0</ele><time>2026-04-11T13:32:50Z</time></trkpt><trkpt lat="44.53520701386253" lon="10.414042601619723"><ele>547.6666666666666</ele><time>2026-04-11T13:33:05Z</time></trkpt><trkpt lat="44.53512881657144" lon="10.413938273392734"><ele>548.3333333333334</ele><time>2026-04-11T13:33:07Z</time></trkpt><trkpt lat="44.535078253050195" lon="10.413875760041613"><ele>549.0</ele><time>2026-04-11T13:33:08Z</time></trkpt><trkpt lat="44.53502689983293" lon="10.413821445022826"><ele>545.8</ele><time>2026-04-11T13:33:09Z</time></trkpt><trkpt lat="44.534924169815596" lon="10.413743311369178"><ele>542.5999999999999</ele><time>2026-04-11T13:33:11Z</time></trkpt><trkpt lat="44.53479584947172" lon="10.413716671455784"><ele>539.4</ele><time>2026-04-11T13:33:13Z</time></trkpt><trkpt lat="44.53472337930738" lon="10.413721526948708"><ele>536.1999999999999</ele><time>2026-04-11T13:33:14Z</time></trkpt><trkpt lat="44.534647585264274" lon="10.413740501988213"><ele>533.0</ele><time>2026-04-11T13:33:15Z</time></trkpt><trkpt lat="44.53457256471201" lon="10.413765033133988"><ele>533.5</ele><time>2026-04-11T13:33:16Z</time></trkpt><trkpt lat="44.53448678497165" lon="10.413791117791362"><ele>534.0</ele><time>2026-04-11T13:33:17Z</time></trkpt><trkpt lat="44.53439547406539" lon="10.413818264140286"><ele>534.5</ele><time>2026-04-11T13:33:18Z</time></trkpt><trkpt lat="44.534309544095294" lon="10.413849071117854"><ele>535.0</ele><time>2026-04-11T13:33:19Z</time></trkpt><trkpt lat="44.53423340605431" lon="10.41387914911955"><ele>535.5</ele><time>2026-04-11T13:33:20.001Z</time></trkpt><trkpt lat="44.53414950144433" lon="10.413907695888893"><ele>536.0</ele><time>2026-04-11T13:33:21.001Z</time></trkpt><trkpt lat="44.53406674599764" lon="10.413904898759135"><ele>536.0</ele><time>2026-04-11T13:33:22.001Z</time></trkpt><trkpt lat="44.5339859197126" lon="10.41386655381269"><ele>536.0</ele><time>2026-04-11T13:33:23.001Z</time></trkpt><trkpt lat="44.53390467969595" lon="10.413806720574943"><ele>536.0</ele><time>2026-04-11T13:33:24.001Z</time></trkpt><trkpt lat="44.53383230812586" lon="10.413764941718316"><ele>536.0</ele><time>2026-04-11T13:33:25.001Z</time></trkpt><trkpt lat="44.53376162187208" lon="10.413735172898608"><ele>536.0</ele><time>2026-04-11T13:33:26.001Z</time></trkpt><trkpt lat="44.53369345140304" lon="10.413722256649844"><ele>536.0</ele><time>2026-04-11T13:33:27.001Z</time></trkpt><trkpt lat="44.533626459291334" lon="10.413716623547533"><ele>537.0</ele><time>2026-04-11T13:33:28.001Z</time></trkpt><trkpt lat="44.53356318322029" lon="10.41372106601314"><ele>538.0</ele><time>2026-04-11T13:33:29.001Z</time></trkpt><trkpt lat="44.53349985529715" lon="10.413715080522381"><ele>539.0</ele><time>2026-04-11T13:33:30.001Z</time></trkpt><trkpt lat="44.53343472591119" lon="10.413717388981535"><ele>540.0</ele><time>2026-04-11T13:33:31.001Z</time></trkpt><trkpt lat="44.53335709751237" lon="10.413736254450011"><ele>541.0</ele><time>2026-04-11T13:33:32.001Z</time></trkpt><trkpt lat="44.533265752661734" lon="10.413764096464059"><ele>542.0</ele><time>2026-04-11T13:33:33.001Z</time></trkpt><trkpt lat="44.53316845339795" lon="10.413785624388218"><ele>542.0</ele><time>2026-04-11T13:33:34.001Z</time></trkpt><trkpt lat="44.533071703866796" lon="10.413801881468283"><ele>542.0</ele><time>2026-04-11T13:33:35.001Z</time></trkpt><trkpt lat="44.53297611894118" lon="10.413817148550018"><ele>542.0</ele><time>2026-04-11T13:33:36.001Z</time></trkpt><trkpt lat="44.53290289793648" lon="10.413835396876696"><ele>542.0</ele><time>2026-04-11T13:33:37.001Z</time></trkpt><trkpt lat="44.53283803328347" lon="10.41385368823447"><ele>542.0</ele><time>2026-04-11T13:33:38.001Z</time></trkpt><trkpt lat="44.532721026820795" lon="10.413876308643298"><ele>542.3333333333333</ele><time>2026-04-11T13:33:40.001Z</time></trkpt><trkpt lat="44.53265316865748" lon="10.41385448067559"><ele>542.6666666666666</ele><time>2026-04-11T13:33:41.001Z</time></trkpt><trkpt lat="44.532590428155764" lon="10.413798480245527"><ele>543.0</ele><time>2026-04-11T13:33:42.001Z</time></trkpt><trkpt lat="44.532527387950225" lon="10.413724091510097"><ele>543.3333333333334</ele><time>2026-04-11T13:33:43.001Z</time></trkpt><trkpt lat="44.53245310602973" lon="10.413650984351316"><ele>543.6666666666667</ele><time>2026-04-11T13:33:44.001Z</time></trkpt><trkpt lat="44.53237184060476" lon="10.41358458730106"><ele>544.0</ele><time>2026-04-11T13:33:45.001Z</time></trkpt><trkpt lat="44.532289546313336" lon="10.41352341026232"><ele>544.0</ele><time>2026-04-11T13:33:46.001Z</time></trkpt><trkpt lat="44.532200821750436" lon="10.413465882301292"><ele>544.0</ele><time>2026-04-11T13:33:47.001Z</time></trkpt><trkpt lat="44.53211403567968" lon="10.413403340648006"><ele>544.0</ele><time>2026-04-11T13:33:48.001Z</time></trkpt><trkpt lat="44.532032789700494" lon="10.413345927067194"><ele>544.0</ele><time>2026-04-11T13:33:49.001Z</time></trkpt><trkpt lat="44.53197560014278" lon="10.413294334058088"><ele>544.0</ele><time>2026-04-11T13:33:50.001Z</time></trkpt><trkpt lat="44.531921944140414" lon="10.413229724016494"><ele>544.0</ele><time>2026-04-11T13:33:51.001Z</time></trkpt><trkpt lat="44.531855227477706" lon="10.413162444356804"><ele>544.8571428571428</ele><time>2026-04-11T13:33:52.001Z</time></trkpt><trkpt lat="44.53179736826231" lon="10.413106737861028"><ele>545.7142857142857</ele><time>2026-04-11T13:33:53.001Z</time></trkpt><trkpt lat="44.531735969364256" lon="10.413050332849304"><ele>546.5714285714286</ele><time>2026-04-11T13:33:54.001Z</time></trkpt><trkpt lat="44.53167935089322" lon="10.413002795482043"><ele>547.4285714285713</ele><time>2026-04-11T13:33:55.001Z</time></trkpt><trkpt lat="44.531624803944695" lon="10.41294501884876"><ele>548.2857142857142</ele><time>2026-04-11T13:33:56.001Z</time></trkpt><trkpt lat="44.531570661862396" lon="10.4128787878703"><ele>549.1428571428571</ele><time>2026-04-11T13:33:57.001Z</time></trkpt><trkpt lat="44.5315048225455" lon="10.412809634568422"><ele>550.0</ele><time>2026-04-11T13:33:58.001Z</time></trkpt><trkpt lat="44.53144238260244" lon="10.412747387879786"><ele>549.8333333333334</ele><time>2026-04-11T13:33:59.001Z</time></trkpt><trkpt lat="44.5313823000445" lon="10.412683385932889"><ele>549.6666666666667</ele><time>2026-04-11T13:34:00.001Z</time></trkpt><trkpt lat="44.53132809838893" lon="10.412609907740817"><ele>549.5</ele><time>2026-04-11T13:34:01.001Z</time></trkpt><trkpt lat="44.53128817250089" lon="10.412511534587328"><ele>549.3333333333334</ele><time>2026-04-11T13:34:02.001Z</time></trkpt><trkpt lat="44.53125211162938" lon="10.412417874003607"><ele>549.1666666666666</ele><time>2026-04-11T13:34:03.001Z</time></trkpt><trkpt lat="44.531202198518415" lon="10.4123314974192"><ele>549.0</ele><time>2026-04-11T13:34:04.001Z</time></trkpt><trkpt lat="44.53114277471488" lon="10.412255085033513"><ele>549.0</ele><time>2026-04-11T13:34:05.001Z</time></trkpt><trkpt lat="44.53108863567565" lon="10.412184929858578"><ele>549.0</ele><time>2026-04-11T13:34:06.001Z</time></trkpt><trkpt lat="44.53103996307965" lon="10.412112225298449"><ele>549.0</ele><time>2026-04-11T13:34:07.001Z</time></trkpt><trkpt lat="44.5309841439763" lon="10.412042885416659"><ele>549.0</ele><time>2026-04-11T13:34:08.001Z</time></trkpt><trkpt lat="44.53093319110862" lon="10.411985591736237"><ele>549.0</ele><time>2026-04-11T13:34:09.001Z</time></trkpt><trkpt lat="44.53086548770367" lon="10.411872022693796"><ele>549.0</ele><time>2026-04-11T13:34:11Z</time></trkpt><trkpt lat="44.530839878860064" lon="10.411722172518505"><ele>548.0</ele><time>2026-04-11T13:34:13Z</time></trkpt><trkpt lat="44.53082696448338" lon="10.411628989500882"><ele>547.0</ele><time>2026-04-11T13:34:14Z</time></trkpt><trkpt lat="44.53081634526918" lon="10.411533229445604"><ele>546.0</ele><time>2026-04-11T13:34:15Z</time></trkpt><trkpt lat="44.53081464052526" lon="10.411420497675405"><ele>545.0</ele><time>2026-04-11T13:34:16Z</time></trkpt><trkpt lat="44.5308065390745" lon="10.41130941109841"><ele>544.0</ele><time>2026-04-11T13:34:17Z</time></trkpt><trkpt lat="44.53078319719767" lon="10.411208009939738"><ele>543.0</ele><time>2026-04-11T13:34:18Z</time></trkpt><trkpt lat="44.53075328658722" lon="10.411091903587428"><ele>542.6</ele><time>2026-04-11T13:34:19Z</time></trkpt><trkpt lat="44.53075128248965" lon="10.410964052037789"><ele>542.1999999999999</ele><time>2026-04-11T13:34:20Z</time></trkpt><trkpt lat="44.53075707341914" lon="10.410809758712778"><ele>541.8</ele><time>2026-04-11T13:34:21Z</time></trkpt><trkpt lat="44.53075938317367" lon="10.41066509873666"><ele>541.4</ele><time>2026-04-11T13:34:22Z</time></trkpt><trkpt lat="44.53075375323714" lon="10.410525615868849"><ele>541.0</ele><time>2026-04-11T13:34:23Z</time></trkpt><trkpt lat="44.53074149237726" lon="10.410394943069774"><ele>542.6</ele><time>2026-04-11T13:34:24Z</time></trkpt><trkpt lat="44.530734492084385" lon="10.410261238780848"><ele>544.2</ele><time>2026-04-11T13:34:25Z</time></trkpt><trkpt lat="44.53073051502773" lon="10.410132884240376"><ele>545.8</ele><time>2026-04-11T13:34:26Z</time></trkpt><trkpt lat="44.53071902986588" lon="10.410005987628393"><ele>547.4</ele><time>2026-04-11T13:34:27.001Z</time></trkpt><trkpt lat="44.53070963440364" lon="10.40987621915628"><ele>549.0</ele><time>2026-04-11T13:34:28.001Z</time></trkpt><trkpt lat="44.53070331721246" lon="10.409749123730945"><ele>550.8333333333334</ele><time>2026-04-11T13:34:29.001Z</time></trkpt><trkpt lat="44.530704716076166" lon="10.409627398210892"><ele>552.6666666666666</ele><time>2026-04-11T13:34:30.001Z</time></trkpt><trkpt lat="44.53071028725462" lon="10.409501165218375"><ele>554.5</ele><time>2026-04-11T13:34:30.999Z</time></trkpt><trkpt lat="44.53070080820619" lon="10.409399766292431"><ele>556.3333333333333</ele><time>2026-04-11T13:34:31.999Z</time></trkpt><trkpt lat="44.53065840031284" lon="10.409283553307466"><ele>558.1666666666666</ele><time>2026-04-11T13:34:32.999Z</time></trkpt><trkpt lat="44.53062516902089" lon="10.409172534021012"><ele>560.0</ele><time>2026-04-11T13:34:33.999Z</time></trkpt><trkpt lat="44.530606336625034" lon="10.409061801564997"><ele>560.0</ele><time>2026-04-11T13:34:34.999Z</time></trkpt><trkpt lat="44.53044226258383" lon="10.408979967671213"><ele>560.0</ele><time>2026-04-11T13:34:35.999Z</time></trkpt><trkpt lat="44.530417641430624" lon="10.408845784609033"><ele>560.0</ele><time>2026-04-11T13:34:37.999Z</time></trkpt><trkpt lat="44.5303377599943" lon="10.408782446425816"><ele>560.0</ele><time>2026-04-11T13:34:39.999Z</time></trkpt><trkpt lat="44.530395556782146" lon="10.408530992948485"><ele>562.1666666666666</ele><time>2026-04-11T13:34:41.999Z</time></trkpt><trkpt lat="44.53032206386895" lon="10.40861029352218"><ele>564.3333333333333</ele><time>2026-04-11T13:34:44.999Z</time></trkpt><trkpt lat="44.530266362218875" lon="10.408687414282742"><ele>566.5</ele><time>2026-04-11T13:34:46.999Z</time></trkpt><trkpt lat="44.5301930363661" lon="10.408689438700192"><ele>568.6666666666666</ele><time>2026-04-11T13:34:47.999Z</time></trkpt><trkpt lat="44.53011625432274" lon="10.408735138171675"><ele>570.8333333333334</ele><time>2026-04-11T13:34:48.999Z</time></trkpt><trkpt lat="44.530026441654954" lon="10.40878669428"><ele>573.0</ele><time>2026-04-11T13:34:49.999Z</time></trkpt><trkpt lat="44.52994381163985" lon="10.408822380664981"><ele>572.6</ele><time>2026-04-11T13:34:50.999Z</time></trkpt><trkpt lat="44.52985690164364" lon="10.408847834419422"><ele>572.1999999999999</ele><time>2026-04-11T13:34:51.999Z</time></trkpt><trkpt lat="44.52976444085824" lon="10.40887105762903"><ele>571.8</ele><time>2026-04-11T13:34:52.999Z</time></trkpt><trkpt lat="44.52966747728" lon="10.408891830712687"><ele>571.4</ele><time>2026-04-11T13:34:53.999Z</time></trkpt><trkpt lat="44.52956736244246" lon="10.408900928138102"><ele>571.0</ele><time>2026-04-11T13:34:54.999Z</time></trkpt><trkpt lat="44.529466032310744" lon="10.408912617052733"><ele>572.6666666666667</ele><time>2026-04-11T13:34:55.999Z</time></trkpt><trkpt lat="44.529372583181136" lon="10.408900258075823"><ele>574.3333333333334</ele><time>2026-04-11T13:34:56.999Z</time></trkpt><trkpt lat="44.5292849117822" lon="10.408884650677296"><ele>576.0</ele><time>2026-04-11T13:34:57.999Z</time></trkpt><trkpt lat="44.529200404552874" lon="10.40886771566695"><ele>577.6666666666666</ele><time>2026-04-11T13:34:58.999Z</time></trkpt><trkpt lat="44.52912050906947" lon="10.408845777463103"><ele>579.3333333333333</ele><time>2026-04-11T13:34:59.999Z</time></trkpt><trkpt lat="44.52903486891613" lon="10.408820089788362"><ele>581.0</ele><time>2026-04-11T13:35:00.999Z</time></trkpt><trkpt lat="44.52895126042364" lon="10.40878060516614"><ele>581.5</ele><time>2026-04-11T13:35:01.999Z</time></trkpt><trkpt lat="44.52888217864416" lon="10.40868784708284"><ele>582.0</ele><time>2026-04-11T13:35:02.999Z</time></trkpt><trkpt lat="44.528819395392716" lon="10.408644769452021"><ele>582.5</ele><time>2026-04-11T13:35:03.999Z</time></trkpt><trkpt lat="44.52876063041406" lon="10.408604448834545"><ele>583.0</ele><time>2026-04-11T13:35:04.999Z</time></trkpt><trkpt lat="44.52865988708597" lon="10.408682669309885"><ele>583.5</ele><time>2026-04-11T13:35:06Z</time></trkpt><trkpt lat="44.52858059907411" lon="10.408703263956994"><ele>584.0</ele><time>2026-04-11T13:35:07Z</time></trkpt><trkpt lat="44.528490396174334" lon="10.408721088058185"><ele>586.0</ele><time>2026-04-11T13:35:08Z</time></trkpt><trkpt lat="44.5283930095394" lon="10.408734344077775"><ele>588.0</ele><time>2026-04-11T13:35:09Z</time></trkpt><trkpt lat="44.528291957499746" lon="10.408746321964468"><ele>590.0</ele><time>2026-04-11T13:35:10Z</time></trkpt><trkpt lat="44.52818641758319" lon="10.408757802958654"><ele>592.0</ele><time>2026-04-11T13:35:11Z</time></trkpt><trkpt lat="44.528081374447005" lon="10.408768822398793"><ele>594.0</ele><time>2026-04-11T13:35:12Z</time></trkpt><trkpt lat="44.52797642891828" lon="10.408778287463292"><ele>595.8</ele><time>2026-04-11T13:35:13Z</time></trkpt><trkpt lat="44.527872217598194" lon="10.408760342563005"><ele>597.5999999999999</ele><time>2026-04-11T13:35:14Z</time></trkpt><trkpt lat="44.52776904125187" lon="10.40875933156326"><ele>599.4</ele><time>2026-04-11T13:35:15Z</time></trkpt><trkpt lat="44.52766966379259" lon="10.408783352865182"><ele>601.1999999999999</ele><time>2026-04-11T13:35:16Z</time></trkpt><trkpt lat="44.52757322656399" lon="10.408784555010303"><ele>603.0</ele><time>2026-04-11T13:35:17Z</time></trkpt><trkpt lat="44.527488398305344" lon="10.408780689621175"><ele>603.0</ele><time>2026-04-11T13:35:18Z</time></trkpt><trkpt lat="44.52741097489555" lon="10.408778628471177"><ele>603.0</ele><time>2026-04-11T13:35:19Z</time></trkpt><trkpt lat="44.52734166680335" lon="10.408793069062725"><ele>603.0</ele><time>2026-04-11T13:35:20Z</time></trkpt><trkpt lat="44.52724727065382" lon="10.40878215295439"><ele>603.0</ele><time>2026-04-11T13:35:22Z</time></trkpt><trkpt lat="44.52714017776418" lon="10.408801106150289"><ele>603.0</ele><time>2026-04-11T13:35:24Z</time></trkpt><trkpt lat="44.527027413449915" lon="10.408784872176048"><ele>604.1666666666666</ele><time>2026-04-11T13:35:26Z</time></trkpt><trkpt lat="44.526902358792206" lon="10.40875607408174"><ele>605.3333333333334</ele><time>2026-04-11T13:35:28Z</time></trkpt><trkpt lat="44.52683726350152" lon="10.40872290667396"><ele>606.5</ele><time>2026-04-11T13:35:29Z</time></trkpt><trkpt lat="44.526769127580806" lon="10.40876702833743"><ele>607.6666666666667</ele><time>2026-04-11T13:35:30Z</time></trkpt><trkpt lat="44.52670418033631" lon="10.408792511824378"><ele>608.8333333333334</ele><time>2026-04-11T13:35:31Z</time></trkpt><trkpt lat="44.526636215174484" lon="10.408791761518025"><ele>610.0</ele><time>2026-04-11T13:35:32Z</time></trkpt><trkpt lat="44.52657256146178" lon="10.408811275112765"><ele>610.0</ele><time>2026-04-11T13:35:33Z</time></trkpt><trkpt lat="44.526461260869254" lon="10.40884539532057"><ele>610.0</ele><time>2026-04-11T13:35:35Z</time></trkpt><trkpt lat="44.52653951852188" lon="10.408825092621727"><ele>610.0</ele><time>2026-04-11T13:35:50Z</time></trkpt><trkpt lat="44.52660290740972" lon="10.408801972306598"><ele>610.0</ele><time>2026-04-11T13:35:53Z</time></trkpt><trkpt lat="44.526718155248574" lon="10.40878603250803"><ele>610.0</ele><time>2026-04-11T13:36:55Z</time></trkpt><trkpt lat="44.5267842757191" lon="10.40876468261448"><ele>610.0</ele><time>2026-04-11T13:36:56Z</time></trkpt><trkpt lat="44.52688322925409" lon="10.408740816373959"><ele>610.0</ele><time>2026-04-11T13:36:58Z</time></trkpt><trkpt lat="44.52694848279058" lon="10.40877892784802"><ele>610.0</ele><time>2026-04-11T13:37:04Z</time></trkpt><trkpt lat="44.52694946338299" lon="10.408905306688943"><ele>610.0</ele><time>2026-04-11T13:37:07Z</time></trkpt><trkpt lat="44.52690292666106" lon="10.408996475417094"><ele>610.0</ele><time>2026-04-11T13:37:09Z</time></trkpt><trkpt lat="44.52687164861866" lon="10.409109307215498"><ele>610.0</ele><time>2026-04-11T13:37:11Z</time></trkpt><trkpt lat="44.52683057839785" lon="10.40922892866683"><ele>610.0</ele><time>2026-04-11T13:37:13Z</time></trkpt><trkpt lat="44.52678323084486" lon="10.409351998684093"><ele>610.4</ele><time>2026-04-11T13:37:15Z</time></trkpt><trkpt lat="44.52674689437484" lon="10.409489498909268"><ele>610.8</ele><time>2026-04-11T13:37:17Z</time></trkpt><trkpt lat="44.52673271388056" lon="10.409629346898043"><ele>611.2</ele><time>2026-04-11T13:37:19Z</time></trkpt><trkpt lat="44.52672093462627" lon="10.40977374027691"><ele>611.6</ele><time>2026-04-11T13:37:21Z</time></trkpt><trkpt lat="44.52671665931795" lon="10.40992139851854"><ele>612.0</ele><time>2026-04-11T13:37:23Z</time></trkpt><trkpt lat="44.52672051053794" lon="10.410056109841856"><ele>612.8000000000001</ele><time>2026-04-11T13:37:25.001Z</time></trkpt><trkpt lat="44.52672824137345" lon="10.41019817564148"><ele>613.6</ele><time>2026-04-11T13:37:27.001Z</time></trkpt><trkpt lat="44.5267332525747" lon="10.410324939240551"><ele>614.4000000000001</ele><time>2026-04-11T13:37:29.001Z</time></trkpt><trkpt lat="44.52674725642352" lon="10.410217781247871"><ele>615.2</ele><time>2026-04-11T13:37:58.001Z</time></trkpt><trkpt lat="44.526729428224755" lon="10.41007870753696"><ele>616.0</ele><time>2026-04-11T13:38:00.001Z</time></trkpt><trkpt lat="44.52672103208131" lon="10.409935213721354"><ele>616.0</ele><time>2026-04-11T13:38:02.001Z</time></trkpt><trkpt lat="44.526727992166016" lon="10.409745522838247"><ele>616.0</ele><time>2026-04-11T13:38:04.001Z</time></trkpt><trkpt lat="44.526735521607975" lon="10.409656245366032"><ele>616.0</ele><time>2026-04-11T13:38:05.001Z</time></trkpt><trkpt lat="44.5267564180753" lon="10.40949374521578"><ele>616.0</ele><time>2026-04-11T13:38:07.001Z</time></trkpt><trkpt lat="44.52680334261987" lon="10.409342699065265"><ele>616.0</ele><time>2026-04-11T13:38:09.001Z</time></trkpt><trkpt lat="44.52685032493996" lon="10.409219355729984"><ele>615.3333333333334</ele><time>2026-04-11T13:38:11.001Z</time></trkpt><trkpt lat="44.52690387039441" lon="10.409081836548387"><ele>614.6666666666667</ele><time>2026-04-11T13:38:13.001Z</time></trkpt><trkpt lat="44.52692805798367" lon="10.408991107472804"><ele>614.0</ele><time>2026-04-11T13:38:14.001Z</time></trkpt><trkpt lat="44.52694777130314" lon="10.408905714647576"><ele>613.3333333333334</ele><time>2026-04-11T13:38:15.001Z</time></trkpt><trkpt lat="44.526984840310035" lon="10.408795608355177"><ele>612.6666666666666</ele><time>2026-04-11T13:38:17.001Z</time></trkpt><trkpt lat="44.527069277180594" lon="10.408786138110074"><ele>612.0</ele><time>2026-04-11T13:38:19.001Z</time></trkpt><trkpt lat="44.52712916018097" lon="10.40882529033827"><ele>610.2</ele><time>2026-04-11T13:38:20.001Z</time></trkpt><trkpt lat="44.527192418037245" lon="10.408807593099915"><ele>608.4000000000001</ele><time>2026-04-11T13:38:21.002Z</time></trkpt><trkpt lat="44.52729989807829" lon="10.408804747377115"><ele>606.5999999999999</ele><time>2026-04-11T13:38:23.002Z</time></trkpt><trkpt lat="44.527421616778376" lon="10.408816534380918"><ele>604.8</ele><time>2026-04-11T13:38:25.002Z</time></trkpt><trkpt lat="44.52752946247473" lon="10.408812557549364"><ele>603.0</ele><time>2026-04-11T13:38:27.002Z</time></trkpt><trkpt lat="44.52760337316199" lon="10.408810167012165"><ele>603.0</ele><time>2026-04-11T13:38:29.002Z</time></trkpt><trkpt lat="44.52769654751199" lon="10.408807757645375"><ele>603.0</ele><time>2026-04-11T13:38:31.001Z</time></trkpt><trkpt lat="44.52785599915501" lon="10.408804197786033"><ele>603.0</ele><time>2026-04-11T13:38:34.001Z</time></trkpt><trkpt lat="44.52797953838132" lon="10.408803204400572"><ele>603.0</ele><time>2026-04-11T13:38:36.001Z</time></trkpt><trkpt lat="44.52804305267713" lon="10.408779460369722"><ele>603.0</ele><time>2026-04-11T13:38:37.001Z</time></trkpt><trkpt lat="44.528151151339" lon="10.408770931261687"><ele>601.5</ele><time>2026-04-11T13:38:39.001Z</time></trkpt><trkpt lat="44.528234863277184" lon="10.408755692302494"><ele>600.0</ele><time>2026-04-11T13:38:41.001Z</time></trkpt><trkpt lat="44.52832669281773" lon="10.40874822680122"><ele>598.5</ele><time>2026-04-11T13:38:44Z</time></trkpt><trkpt lat="44.52841196532052" lon="10.408742046358077"><ele>597.0</ele><time>2026-04-11T13:38:47Z</time></trkpt><trkpt lat="44.52848850512732" lon="10.408726867865777"><ele>595.5</ele><time>2026-04-11T13:38:51Z</time></trkpt><trkpt lat="44.528585258441716" lon="10.40872775476131"><ele>594.0</ele><time>2026-04-11T13:38:53Z</time></trkpt><trkpt lat="44.52868990427312" lon="10.408709856450612"><ele>592.3333333333334</ele><time>2026-04-11T13:38:55Z</time></trkpt><trkpt lat="44.52881128124924" lon="10.408683364548544"><ele>590.6666666666666</ele><time>2026-04-11T13:38:57Z</time></trkpt><trkpt lat="44.528873842343984" lon="10.408726346101854"><ele>589.0</ele><time>2026-04-11T13:38:58Z</time></trkpt><trkpt lat="44.52892811728349" lon="10.408784388013185"><ele>587.3333333333333</ele><time>2026-04-11T13:38:59Z</time></trkpt><trkpt lat="44.52899480763236" lon="10.40883411539872"><ele>585.6666666666666</ele><time>2026-04-11T13:39:00Z</time></trkpt><trkpt lat="44.529067973847454" lon="10.408853514263036"><ele>584.0</ele><time>2026-04-11T13:39:01Z</time></trkpt><trkpt lat="44.52913229237448" lon="10.4088619754101"><ele>583.5</ele><time>2026-04-11T13:39:02Z</time></trkpt><trkpt lat="44.52919679785463" lon="10.408893800129334"><ele>583.0</ele><time>2026-04-11T13:39:03Z</time></trkpt><trkpt lat="44.52926747704912" lon="10.408907928222778"><ele>582.5</ele><time>2026-04-11T13:39:04Z</time></trkpt><trkpt lat="44.52934502078575" lon="10.408900549474994"><ele>582.0</ele><time>2026-04-11T13:39:05Z</time></trkpt><trkpt lat="44.529422150834904" lon="10.408915736601855"><ele>581.5</ele><time>2026-04-11T13:39:06Z</time></trkpt><trkpt lat="44.52950264175445" lon="10.408930987350983"><ele>581.0</ele><time>2026-04-11T13:39:07Z</time></trkpt><trkpt lat="44.52958189775909" lon="10.40893477771702"><ele>579.3333333333333</ele><time>2026-04-11T13:39:08Z</time></trkpt><trkpt lat="44.529659392537546" lon="10.408921103488861"><ele>577.6666666666666</ele><time>2026-04-11T13:39:09Z</time></trkpt><trkpt lat="44.529736583475234" lon="10.40890535205924"><ele>576.0</ele><time>2026-04-11T13:39:10Z</time></trkpt><trkpt lat="44.52981484022427" lon="10.408905687893409"><ele>574.3333333333334</ele><time>2026-04-11T13:39:11Z</time></trkpt><trkpt lat="44.52988817515447" lon="10.408887268489405"><ele>572.6666666666667</ele><time>2026-04-11T13:39:12Z</time></trkpt><trkpt lat="44.52996302053982" lon="10.408863819886152"><ele>571.0</ele><time>2026-04-11T13:39:13Z</time></trkpt><trkpt lat="44.53003522426345" lon="10.408832228018852"><ele>571.0</ele><time>2026-04-11T13:39:14Z</time></trkpt><trkpt lat="44.5301039526055" lon="10.408793046413862"><ele>571.0</ele><time>2026-04-11T13:39:15Z</time></trkpt><trkpt lat="44.53016946294821" lon="10.408754055683698"><ele>571.0</ele><time>2026-04-11T13:39:16Z</time></trkpt><trkpt lat="44.530261321832" lon="10.408702111239176"><ele>571.0</ele><time>2026-04-11T13:39:18Z</time></trkpt><trkpt lat="44.53029744976878" lon="10.408811532928656"><ele>571.0</ele><time>2026-04-11T13:39:22Z</time></trkpt><trkpt lat="44.53023123890985" lon="10.408898639506138"><ele>571.0</ele><time>2026-04-11T13:39:24Z</time></trkpt><trkpt lat="44.530165218237144" lon="10.40900235129591"><ele>571.0</ele><time>2026-04-11T13:39:26Z</time></trkpt><trkpt lat="44.53008303312628" lon="10.409123714014564"><ele>571.0</ele><time>2026-04-11T13:39:28Z</time></trkpt><trkpt lat="44.53003230348526" lon="10.409187331024466"><ele>571.0</ele><time>2026-04-11T13:39:29Z</time></trkpt><trkpt lat="44.52997861226229" lon="10.409252711958102"><ele>571.0</ele><time>2026-04-11T13:39:30Z</time></trkpt><trkpt lat="44.52989547007598" lon="10.409359473246614"><ele>571.0</ele><time>2026-04-11T13:39:32Z</time></trkpt><trkpt lat="44.52982643495538" lon="10.409419612620654"><ele>571.0</ele><time>2026-04-11T13:39:34Z</time></trkpt><trkpt lat="44.52977463309748" lon="10.409472270621034"><ele>571.0</ele><time>2026-04-11T13:40:09.001Z</time></trkpt><trkpt lat="44.529694439587175" lon="10.409553547289892"><ele>571.0</ele><time>2026-04-11T13:41:00Z</time></trkpt><trkpt lat="44.529638173948335" lon="10.40961057288415"><ele>571.0</ele><time>2026-04-11T13:41:01Z</time></trkpt><trkpt lat="44.52954030502226" lon="10.409705471855691"><ele>571.0</ele><time>2026-04-11T13:41:03Z</time></trkpt><trkpt lat="44.52949065018958" lon="10.409762324754015"><ele>571.0</ele><time>2026-04-11T13:41:04Z</time></trkpt><trkpt lat="44.52942737164828" lon="10.40980171326296"><ele>571.0</ele><time>2026-04-11T13:41:05Z</time></trkpt><trkpt lat="44.52936260056927" lon="10.4098370275708"><ele>571.0</ele><time>2026-04-11T13:41:06Z</time></trkpt><trkpt lat="44.529294964846066" lon="10.409868995287605"><ele>571.0</ele><time>2026-04-11T13:41:07Z</time></trkpt><trkpt lat="44.529207077994684" lon="10.409895463935495"><ele>571.0</ele><time>2026-04-11T13:41:08Z</time></trkpt><trkpt lat="44.52909497289992" lon="10.40992388877436"><ele>571.0</ele><time>2026-04-11T13:41:09Z</time></trkpt><trkpt lat="44.52896889365592" lon="10.40995413762424"><ele>571.0</ele><time>2026-04-11T13:41:10Z</time></trkpt><trkpt lat="44.5288501630581" lon="10.410031744108128"><ele>571.0</ele><time>2026-04-11T13:41:11Z</time></trkpt><trkpt lat="44.52872941282817" lon="10.410123686879677"><ele>571.0</ele><time>2026-04-11T13:41:12Z</time></trkpt><trkpt lat="44.528622110667726" lon="10.41020082782612"><ele>571.0</ele><time>2026-04-11T13:41:13Z</time></trkpt><trkpt lat="44.52852049781644" lon="10.410256857852021"><ele>572.6</ele><time>2026-04-11T13:41:14Z</time></trkpt><trkpt lat="44.52841829341083" lon="10.410253823349809"><ele>574.2</ele><time>2026-04-11T13:41:15Z</time></trkpt><trkpt lat="44.528326309817025" lon="10.410249802268565"><ele>575.8</ele><time>2026-04-11T13:41:16Z</time></trkpt><trkpt lat="44.52824440218875" lon="10.410289433217162"><ele>577.4</ele><time>2026-04-11T13:41:17Z</time></trkpt><trkpt lat="44.52818476440517" lon="10.41038111315872"><ele>579.0</ele><time>2026-04-11T13:41:18Z</time></trkpt><trkpt lat="44.528165464529785" lon="10.410503117039294"><ele>579.0</ele><time>2026-04-11T13:41:19Z</time></trkpt><trkpt lat="44.528165267443526" lon="10.410638807887036"><ele>579.0</ele><time>2026-04-11T13:41:20Z</time></trkpt><trkpt lat="44.52818298925674" lon="10.410785755945831"><ele>579.0</ele><time>2026-04-11T13:41:21Z</time></trkpt><trkpt lat="44.52816058696159" lon="10.41094820195319"><ele>579.0</ele><time>2026-04-11T13:41:22Z</time></trkpt><trkpt lat="44.528158757916415" lon="10.411131050836612"><ele>579.0</ele><time>2026-04-11T13:41:23Z</time></trkpt><trkpt lat="44.52814269439666" lon="10.411317654208759"><ele>579.0</ele><time>2026-04-11T13:41:24.001Z</time></trkpt><trkpt lat="44.528128173624076" lon="10.411504526164135"><ele>579.0</ele><time>2026-04-11T13:41:25.001Z</time></trkpt><trkpt lat="44.52811323251201" lon="10.411675725992993"><ele>579.0</ele><time>2026-04-11T13:41:26.001Z</time></trkpt><trkpt lat="44.528105866977434" lon="10.411828049176489"><ele>579.2</ele><time>2026-04-11T13:41:27.001Z</time></trkpt><trkpt lat="44.528098454262725" lon="10.411964438004931"><ele>579.4</ele><time>2026-04-11T13:41:28.001Z</time></trkpt><trkpt lat="44.52809643931903" lon="10.412095518902056"><ele>579.6</ele><time>2026-04-11T13:41:29.001Z</time></trkpt><trkpt lat="44.52811656583851" lon="10.412246977550074"><ele>579.8</ele><time>2026-04-11T13:41:30.001Z</time></trkpt><trkpt lat="44.52817149586573" lon="10.412388348018366"><ele>580.0</ele><time>2026-04-11T13:41:31.001Z</time></trkpt><trkpt lat="44.52825435133227" lon="10.41251435211507"><ele>581.25</ele><time>2026-04-11T13:41:32.001Z</time></trkpt><trkpt lat="44.528325091711956" lon="10.412641979551543"><ele>582.5</ele><time>2026-04-11T13:41:33.001Z</time></trkpt><trkpt lat="44.52841240951693" lon="10.41276051083869"><ele>583.75</ele><time>2026-04-11T13:41:34.001Z</time></trkpt><trkpt lat="44.52849044505923" lon="10.412901456110534"><ele>585.0</ele><time>2026-04-11T13:41:35.001Z</time></trkpt><trkpt lat="44.528563766778774" lon="10.413046162179645"><ele>584.0</ele><time>2026-04-11T13:41:36.001Z</time></trkpt><trkpt lat="44.52863999525348" lon="10.413181269980173"><ele>583.0</ele><time>2026-04-11T13:41:37.001Z</time></trkpt><trkpt lat="44.52870931676655" lon="10.41330451746151"><ele>582.0</ele><time>2026-04-11T13:41:38.001Z</time></trkpt><trkpt lat="44.52877057893539" lon="10.413420724483105"><ele>581.0</ele><time>2026-04-11T13:41:39.001Z</time></trkpt><trkpt lat="44.52882782035461" lon="10.41352494179339"><ele>580.0</ele><time>2026-04-11T13:41:40.001Z</time></trkpt><trkpt lat="44.5288828984046" lon="10.413614135580746"><ele>580.0</ele><time>2026-04-11T13:41:41.001Z</time></trkpt><trkpt lat="44.52893987971294" lon="10.413698577857122"><ele>580.0</ele><time>2026-04-11T13:41:42.001Z</time></trkpt><trkpt lat="44.52900247535137" lon="10.413786278984956"><ele>580.0</ele><time>2026-04-11T13:41:43.001Z</time></trkpt><trkpt lat="44.52905001269293" lon="10.413878543834265"><ele>580.0</ele><time>2026-04-11T13:41:44.001Z</time></trkpt><trkpt lat="44.529101131672526" lon="10.413946014088149"><ele>580.0</ele><time>2026-04-11T13:41:45.001Z</time></trkpt><trkpt lat="44.529147926572136" lon="10.414007777124933"><ele>580.0</ele><time>2026-04-11T13:41:46.001Z</time></trkpt><trkpt lat="44.52919557518204" lon="10.414066709933218"><ele>580.3333333333334</ele><time>2026-04-11T13:41:47.001Z</time></trkpt><trkpt lat="44.52925003057286" lon="10.414122826017477"><ele>580.6666666666667</ele><time>2026-04-11T13:41:48.001Z</time></trkpt><trkpt lat="44.5293138543575" lon="10.414177371056113"><ele>581.0</ele><time>2026-04-11T13:41:49.001Z</time></trkpt><trkpt lat="44.52938612356824" lon="10.41422692451255"><ele>581.3333333333334</ele><time>2026-04-11T13:41:50.001Z</time></trkpt><trkpt lat="44.52946959218939" lon="10.414266165641404"><ele>581.6666666666666</ele><time>2026-04-11T13:41:51.001Z</time></trkpt><trkpt lat="44.52954191477311" lon="10.41429844837557"><ele>582.0</ele><time>2026-04-11T13:41:52.001Z</time></trkpt><trkpt lat="44.52960924740829" lon="10.414333868294605"><ele>582.0</ele><time>2026-04-11T13:41:53.001Z</time></trkpt><trkpt lat="44.52967446198998" lon="10.414358786509938"><ele>582.0</ele><time>2026-04-11T13:41:54.001Z</time></trkpt><trkpt lat="44.529758623361204" lon="10.41449343277917"><ele>582.0</ele><time>2026-04-11T13:41:56.001Z</time></trkpt><trkpt lat="44.52980698592079" lon="10.414565998475501"><ele>582.0</ele><time>2026-04-11T13:41:57.001Z</time></trkpt><trkpt lat="44.52985899903644" lon="10.414645802895842"><ele>582.0</ele><time>2026-04-11T13:41:58.001Z</time></trkpt><trkpt lat="44.52991797494565" lon="10.414734899158999"><ele>582.0</ele><time>2026-04-11T13:41:59.001Z</time></trkpt><trkpt lat="44.52998859011381" lon="10.414833230883772"><ele>583.1666666666666</ele><time>2026-04-11T13:42:00.001Z</time></trkpt><trkpt lat="44.530067045948506" lon="10.414927536238233"><ele>584.3333333333334</ele><time>2026-04-11T13:42:01.001Z</time></trkpt><trkpt lat="44.53013632684662" lon="10.415004454176792"><ele>585.5</ele><time>2026-04-11T13:42:02.001Z</time></trkpt><trkpt lat="44.53020239093907" lon="10.41507125046413"><ele>586.6666666666667</ele><time>2026-04-11T13:42:03.001Z</time></trkpt><trkpt lat="44.530265253985846" lon="10.415152161173099"><ele>587.8333333333334</ele><time>2026-04-11T13:42:05.001Z</time></trkpt><trkpt lat="44.5301791189571" lon="10.415171552646852"><ele>589.0</ele><time>2026-04-11T13:42:08.001Z</time></trkpt><trkpt lat="44.53011175803971" lon="10.415169570955234"><ele>589.0</ele><time>2026-04-11T13:42:09.001Z</time></trkpt><trkpt lat="44.53004005596705" lon="10.41515915159751"><ele>589.0</ele><time>2026-04-11T13:42:10.001Z</time></trkpt><trkpt lat="44.52995600348309" lon="10.415160334233738"><ele>589.0</ele><time>2026-04-11T13:42:11.001Z</time></trkpt><trkpt lat="44.52988792195805" lon="10.415172162676544"><ele>589.0</ele><time>2026-04-11T13:42:12.001Z</time></trkpt><trkpt lat="44.5297931535662" lon="10.41523034207542"><ele>589.0</ele><time>2026-04-11T13:42:14.001Z</time></trkpt><trkpt lat="44.52972974474722" lon="10.41522402518806"><ele>589.0</ele><time>2026-04-11T13:42:16.001Z</time></trkpt><trkpt lat="44.52969076999818" lon="10.415118825728088"><ele>589.0</ele><time>2026-04-11T13:42:18.001Z</time></trkpt><trkpt lat="44.52963129430197" lon="10.415019062943765"><ele>589.0</ele><time>2026-04-11T13:42:20.002Z</time></trkpt><trkpt lat="44.52958045363725" lon="10.414911078999218"><ele>589.0</ele><time>2026-04-11T13:42:23.002Z</time></trkpt><trkpt lat="44.529542652579416" lon="10.414722482639135"><ele>589.0</ele><time>2026-04-11T13:42:25.002Z</time></trkpt><trkpt lat="44.529452985539834" lon="10.414632410839769"><ele>589.0</ele><time>2026-04-11T13:42:27.002Z</time></trkpt><trkpt lat="44.52934637241534" lon="10.414547295445779"><ele>589.6</ele><time>2026-04-11T13:42:29.002Z</time></trkpt><trkpt lat="44.529262669397475" lon="10.414492912220929"><ele>590.2</ele><time>2026-04-11T13:42:31.002Z</time></trkpt><trkpt lat="44.529167648886826" lon="10.414419607205929"><ele>590.8000000000001</ele><time>2026-04-11T13:42:33.002Z</time></trkpt><trkpt lat="44.5291127131911" lon="10.41437274092152"><ele>591.4</ele><time>2026-04-11T13:42:34.002Z</time></trkpt><trkpt lat="44.52900339855866" lon="10.41427560682556"><ele>592.0</ele><time>2026-04-11T13:42:36.002Z</time></trkpt><trkpt lat="44.528933501651316" lon="10.414211594260518"><ele>592.0</ele><time>2026-04-11T13:42:37.002Z</time></trkpt><trkpt lat="44.528866833619084" lon="10.414147017716841"><ele>592.0</ele><time>2026-04-11T13:42:38.002Z</time></trkpt><trkpt lat="44.52880261506776" lon="10.414078526025177"><ele>592.0</ele><time>2026-04-11T13:42:39.002Z</time></trkpt><trkpt lat="44.52873725646238" lon="10.414007306373616"><ele>592.0</ele><time>2026-04-11T13:42:40.002Z</time></trkpt><trkpt lat="44.52866185763612" lon="10.413925053125363"><ele>592.0</ele><time>2026-04-11T13:42:41.002Z</time></trkpt><trkpt lat="44.528595411063904" lon="10.413850268314762"><ele>592.0</ele><time>2026-04-11T13:42:42.002Z</time></trkpt><trkpt lat="44.528529524530924" lon="10.413775828094662"><ele>592.3333333333334</ele><time>2026-04-11T13:42:43.002Z</time></trkpt><trkpt lat="44.52847890739388" lon="10.41371727066109"><ele>592.6666666666667</ele><time>2026-04-11T13:42:44.002Z</time></trkpt><trkpt lat="44.52841805572754" lon="10.41364601503949"><ele>593.0</ele><time>2026-04-11T13:42:45.002Z</time></trkpt><trkpt lat="44.52836394412933" lon="10.413579052354933"><ele>593.3333333333334</ele><time>2026-04-11T13:42:46.002Z</time></trkpt><trkpt lat="44.528299464020016" lon="10.413500111723383"><ele>593.6666666666666</ele><time>2026-04-11T13:42:47.002Z</time></trkpt><trkpt lat="44.52824456366489" lon="10.413433282646455"><ele>594.0</ele><time>2026-04-11T13:42:48.002Z</time></trkpt><trkpt lat="44.52816701028589" lon="10.413345230675647"><ele>594.0</ele><time>2026-04-11T13:42:49.002Z</time></trkpt><trkpt lat="44.528109972248075" lon="10.4132846277617"><ele>594.0</ele><time>2026-04-11T13:42:50.002Z</time></trkpt><trkpt lat="44.52805878676723" lon="10.413230243191876"><ele>594.0</ele><time>2026-04-11T13:42:51.001Z</time></trkpt><trkpt lat="44.52796444961118" lon="10.413123354037257"><ele>594.0</ele><time>2026-04-11T13:42:53.001Z</time></trkpt><trkpt lat="44.52787183384276" lon="10.413031240739588"><ele>594.0</ele><time>2026-04-11T13:42:54.999Z</time></trkpt><trkpt lat="44.52724888704212" lon="10.413548070607632"><ele>596.6666666666666</ele><time>2026-04-11T13:42:57.999Z</time></trkpt><trkpt lat="44.527184149552774" lon="10.413506983400588"><ele>599.3333333333334</ele><time>2026-04-11T13:42:58.999Z</time></trkpt><trkpt lat="44.52712403725127" lon="10.413460111913391"><ele>602.0</ele><time>2026-04-11T13:42:59.999Z</time></trkpt><trkpt lat="44.52705274359475" lon="10.413409088140734"><ele>604.6666666666667</ele><time>2026-04-11T13:43:00.999Z</time></trkpt><trkpt lat="44.52697342350467" lon="10.413352611366964"><ele>607.3333333333334</ele><time>2026-04-11T13:43:01.999Z</time></trkpt><trkpt lat="44.526893342331284" lon="10.413305891984036"><ele>610.0</ele><time>2026-04-11T13:43:02.999Z</time></trkpt><trkpt lat="44.5268155818226" lon="10.413284411833812"><ele>612.4</ele><time>2026-04-11T13:43:03.999Z</time></trkpt><trkpt lat="44.52675067217144" lon="10.413269684421133"><ele>614.8</ele><time>2026-04-11T13:43:04.999Z</time></trkpt><trkpt lat="44.52664560017937" lon="10.413288507765712"><ele>617.2</ele><time>2026-04-11T13:43:06.999Z</time></trkpt><trkpt lat="44.52655364123817" lon="10.413264289010714"><ele>619.6</ele><time>2026-04-11T13:43:08.999Z</time></trkpt><trkpt lat="44.526464382771685" lon="10.413213493395038"><ele>622.0</ele><time>2026-04-11T13:43:10.999Z</time></trkpt><trkpt lat="44.526378536191245" lon="10.413142165560268"><ele>622.0</ele><time>2026-04-11T13:43:12.999Z</time></trkpt><trkpt lat="44.52628323582301" lon="10.41310891303175"><ele>622.0</ele><time>2026-04-11T13:43:14.999Z</time></trkpt><trkpt lat="44.52620377984658" lon="10.41307419890145"><ele>622.0</ele><time>2026-04-11T13:43:15.999Z</time></trkpt><trkpt lat="44.52613429183792" lon="10.41303681825985"><ele>622.0</ele><time>2026-04-11T13:43:16.999Z</time></trkpt><trkpt lat="44.52606462652214" lon="10.413007113338649"><ele>622.0</ele><time>2026-04-11T13:43:17.999Z</time></trkpt><trkpt lat="44.52600186808137" lon="10.412975495029228"><ele>622.0</ele><time>2026-04-11T13:43:18.999Z</time></trkpt><trkpt lat="44.52591068646576" lon="10.41296405243307"><ele>624.6666666666667</ele><time>2026-04-11T13:43:21Z</time></trkpt><trkpt lat="44.525834380088774" lon="10.412954263104123"><ele>627.3333333333334</ele><time>2026-04-11T13:43:30Z</time></trkpt><trkpt lat="44.52573531233296" lon="10.412949869101414"><ele>630.0</ele><time>2026-04-11T13:43:32Z</time></trkpt><trkpt lat="44.52566272866233" lon="10.41293072711562"><ele>632.6666666666666</ele><time>2026-04-11T13:43:33Z</time></trkpt><trkpt lat="44.52559331588534" lon="10.412898544100466"><ele>635.3333333333333</ele><time>2026-04-11T13:43:34Z</time></trkpt><trkpt lat="44.52552072792017" lon="10.41286142903318"><ele>638.0</ele><time>2026-04-11T13:43:36Z</time></trkpt><trkpt lat="44.52543633632966" lon="10.412806253253759"><ele>638.8333333333333</ele><time>2026-04-11T13:43:38Z</time></trkpt><trkpt lat="44.525371206641246" lon="10.41278930668029"><ele>639.6666666666666</ele><time>2026-04-11T13:43:39Z</time></trkpt><trkpt lat="44.525298845935474" lon="10.41277988393702"><ele>640.5</ele><time>2026-04-11T13:43:41Z</time></trkpt><trkpt lat="44.52520585297863" lon="10.412761242934849"><ele>641.3333333333334</ele><time>2026-04-11T13:43:43Z</time></trkpt><trkpt lat="44.52513886804307" lon="10.41276896662891"><ele>642.1666666666667</ele><time>2026-04-11T13:43:44Z</time></trkpt><trkpt lat="44.5250501179693" lon="10.412755923442965"><ele>643.0</ele><time>2026-04-11T13:43:46Z</time></trkpt><trkpt lat="44.52495746917969" lon="10.412759302728588"><ele>643.0</ele><time>2026-04-11T13:43:48Z</time></trkpt><trkpt lat="44.524873781177995" lon="10.412767408867875"><ele>643.0</ele><time>2026-04-11T13:43:49Z</time></trkpt><trkpt lat="44.52477665189624" lon="10.412764768246715"><ele>643.0</ele><time>2026-04-11T13:43:50Z</time></trkpt><trkpt lat="44.524698788561864" lon="10.412767806486716"><ele>643.0</ele><time>2026-04-11T13:43:51Z</time></trkpt><trkpt lat="44.52461791248068" lon="10.412776630485544"><ele>643.0</ele><time>2026-04-11T13:43:52Z</time></trkpt><trkpt lat="44.52453796910881" lon="10.41276778220433"><ele>643.0</ele><time>2026-04-11T13:43:53Z</time></trkpt><trkpt lat="44.52445638229457" lon="10.41275476091837"><ele>642.6666666666667</ele><time>2026-04-11T13:43:54Z</time></trkpt><trkpt lat="44.52437445952647" lon="10.412730803604141"><ele>642.3333333333334</ele><time>2026-04-11T13:43:55Z</time></trkpt><trkpt lat="44.52431039940926" lon="10.412715490977106"><ele>642.0</ele><time>2026-04-11T13:43:56Z</time></trkpt><trkpt lat="44.52421311027836" lon="10.412661803420274"><ele>641.6666666666666</ele><time>2026-04-11T13:43:58Z</time></trkpt><trkpt lat="44.52412698380514" lon="10.412581731629341"><ele>641.3333333333333</ele><time>2026-04-11T13:44:00Z</time></trkpt><trkpt lat="44.52404795193019" lon="10.412516381343943"><ele>641.0</ele><time>2026-04-11T13:44:02Z</time></trkpt><trkpt lat="44.52394897381084" lon="10.412490040411429"><ele>641.0</ele><time>2026-04-11T13:44:04Z</time></trkpt><trkpt lat="44.52388224568639" lon="10.412517950724023"><ele>641.0</ele><time>2026-04-11T13:44:05Z</time></trkpt><trkpt lat="44.52381587592412" lon="10.412550696905956"><ele>641.0</ele><time>2026-04-11T13:44:06Z</time></trkpt><trkpt lat="44.52375057607831" lon="10.412571733351962"><ele>641.0</ele><time>2026-04-11T13:44:07Z</time></trkpt><trkpt lat="44.5236537314119" lon="10.412579929033114"><ele>641.0</ele><time>2026-04-11T13:44:09Z</time></trkpt><trkpt lat="44.523554702818906" lon="10.412588896799905"><ele>641.0</ele><time>2026-04-11T13:44:11.001Z</time></trkpt><trkpt lat="44.52347894301644" lon="10.412622889624293"><ele>640.5</ele><time>2026-04-11T13:44:13.001Z</time></trkpt><trkpt lat="44.52343140918163" lon="10.412683638324332"><ele>640.0</ele><time>2026-04-11T13:44:15.001Z</time></trkpt><trkpt lat="44.52341504335664" lon="10.412804581847084"><ele>639.5</ele><time>2026-04-11T13:44:37.001Z</time></trkpt><trkpt lat="44.523319127135764" lon="10.41288425418679"><ele>639.0</ele><time>2026-04-11T13:44:39.001Z</time></trkpt><trkpt lat="44.52324811008645" lon="10.412983748803825"><ele>638.5</ele><time>2026-04-11T13:44:41.001Z</time></trkpt><trkpt lat="44.52319503415634" lon="10.413076558437396"><ele>638.0</ele><time>2026-04-11T13:45:11Z</time></trkpt><trkpt lat="44.5231413701725" lon="10.413167571810758"><ele>638.0</ele><time>2026-04-11T13:45:13Z</time></trkpt><trkpt lat="44.523083447196115" lon="10.413254029486277"><ele>638.0</ele><time>2026-04-11T13:45:14Z</time></trkpt><trkpt lat="44.52298726470227" lon="10.413359550816713"><ele>638.0</ele><time>2026-04-11T13:45:16Z</time></trkpt><trkpt lat="44.52293655946826" lon="10.413413095060964"><ele>638.0</ele><time>2026-04-11T13:45:17Z</time></trkpt><trkpt lat="44.5228709414024" lon="10.413534645321208"><ele>638.0</ele><time>2026-04-11T13:45:19Z</time></trkpt><trkpt lat="44.522805212499975" lon="10.413637621539959"><ele>640.1666666666666</ele><time>2026-04-11T13:45:21Z</time></trkpt><trkpt lat="44.522731357686865" lon="10.413719576009331"><ele>642.3333333333333</ele><time>2026-04-11T13:45:23Z</time></trkpt><trkpt lat="44.52265800236502" lon="10.413688228361089"><ele>644.5</ele><time>2026-04-11T13:45:25Z</time></trkpt><trkpt lat="44.52257210746344" lon="10.41364940689738"><ele>646.6666666666666</ele><time>2026-04-11T13:45:27Z</time></trkpt><trkpt lat="44.52252293690197" lon="10.413593366153073"><ele>648.8333333333334</ele><time>2026-04-11T13:45:29Z</time></trkpt><trkpt lat="44.52248437012629" lon="10.413459862531392"><ele>651.0</ele><time>2026-04-11T13:45:31Z</time></trkpt><trkpt lat="44.5224336833185" lon="10.413405378842812"><ele>651.0</ele><time>2026-04-11T13:45:32Z</time></trkpt><trkpt lat="44.52237599241553" lon="10.413344493947172"><ele>651.0</ele><time>2026-04-11T13:45:33Z</time></trkpt><trkpt lat="44.52233037806749" lon="10.413254222217102"><ele>651.0</ele><time>2026-04-11T13:45:35Z</time></trkpt><trkpt lat="44.52226047808396" lon="10.413342791219012"><ele>651.0</ele><time>2026-04-11T13:45:39Z</time></trkpt><trkpt lat="44.522186619860406" lon="10.413393835516542"><ele>651.0</ele><time>2026-04-11T13:45:41.001Z</time></trkpt><trkpt lat="44.522069540415664" lon="10.413355589461103"><ele>651.0</ele><time>2026-04-11T13:45:43.001Z</time></trkpt><trkpt lat="44.52200893897247" lon="10.413328512114019"><ele>649.5999999999999</ele><time>2026-04-11T13:45:44.001Z</time></trkpt><trkpt lat="44.52194302080284" lon="10.41331212820045"><ele>648.2</ele><time>2026-04-11T13:45:45.001Z</time></trkpt><trkpt lat="44.521834723109514" lon="10.4132821395423"><ele>646.8</ele><time>2026-04-11T13:45:47.001Z</time></trkpt><trkpt lat="44.521738978453186" lon="10.41323960548262"><ele>645.4000000000001</ele><time>2026-04-11T13:45:49.001Z</time></trkpt><trkpt lat="44.52165304558834" lon="10.413173906888314"><ele>644.0</ele><time>2026-04-11T13:45:51.001Z</time></trkpt><trkpt lat="44.5215726330115" lon="10.413134812839038"><ele>644.0</ele><time>2026-04-11T13:45:53.001Z</time></trkpt><trkpt lat="44.52149252249278" lon="10.413076964194149"><ele>644.0</ele><time>2026-04-11T13:45:55.001Z</time></trkpt><trkpt lat="44.521425301333025" lon="10.412995249700211"><ele>644.0</ele><time>2026-04-11T13:45:57.001Z</time></trkpt><trkpt lat="44.52136372786851" lon="10.412922139323232"><ele>644.0</ele><time>2026-04-11T13:45:59.001Z</time></trkpt><trkpt lat="44.52129739819355" lon="10.41281171403895"><ele>644.0</ele><time>2026-04-11T13:46:01.001Z</time></trkpt><trkpt lat="44.52122964552644" lon="10.412725463626165"><ele>642.6666666666666</ele><time>2026-04-11T13:46:03.001Z</time></trkpt><trkpt lat="44.52115920592322" lon="10.412630288193325"><ele>641.3333333333333</ele><time>2026-04-11T13:46:05.001Z</time></trkpt><trkpt lat="44.5211202553981" lon="10.412543917219342"><ele>640.0</ele><time>2026-04-11T13:46:07.001Z</time></trkpt><trkpt lat="44.52109495033161" lon="10.41242459284938"><ele>638.6666666666666</ele><time>2026-04-11T13:46:10.001Z</time></trkpt><trkpt lat="44.5210343691561" lon="10.412327866586185"><ele>637.3333333333334</ele><time>2026-04-11T13:46:12.001Z</time></trkpt><trkpt lat="44.520966699334366" lon="10.412261237920749"><ele>636.0</ele><time>2026-04-11T13:46:14.001Z</time></trkpt><trkpt lat="44.520886301606765" lon="10.412184138611096"><ele>636.0</ele><time>2026-04-11T13:46:16.001Z</time></trkpt><trkpt lat="44.520795470910215" lon="10.412211668077074"><ele>636.0</ele><time>2026-04-11T13:46:18.001Z</time></trkpt><trkpt lat="44.520718588282456" lon="10.412236609185484"><ele>636.0</ele><time>2026-04-11T13:46:20.001Z</time></trkpt><trkpt lat="44.5206461958086" lon="10.412255215631891"><ele>636.0</ele><time>2026-04-11T13:46:22.001Z</time></trkpt><trkpt lat="44.52054345134148" lon="10.412275501414026"><ele>636.0</ele><time>2026-04-11T13:46:24.001Z</time></trkpt><trkpt lat="44.52044967250322" lon="10.412315140284376"><ele>636.0</ele><time>2026-04-11T13:46:26.001Z</time></trkpt><trkpt lat="44.52039620170969" lon="10.41237819840156"><ele>635.6</ele><time>2026-04-11T13:46:28.001Z</time></trkpt><trkpt lat="44.52030674762712" lon="10.412445270828561"><ele>635.2</ele><time>2026-04-11T13:46:30.001Z</time></trkpt><trkpt lat="44.52022580373353" lon="10.412514973042656"><ele>634.8</ele><time>2026-04-11T13:46:32.002Z</time></trkpt><trkpt lat="44.520137860012866" lon="10.412556644972664"><ele>634.4</ele><time>2026-04-11T13:46:34.002Z</time></trkpt><trkpt lat="44.52004281520943" lon="10.412564447127933"><ele>634.0</ele><time>2026-04-11T13:46:36.002Z</time></trkpt><trkpt lat="44.51994843029862" lon="10.412554039802238"><ele>634.0</ele><time>2026-04-11T13:46:38.002Z</time></trkpt><trkpt lat="44.519862097583264" lon="10.412532291701513"><ele>634.0</ele><time>2026-04-11T13:46:40.002Z</time></trkpt><trkpt lat="44.519769830607025" lon="10.412503095146223"><ele>634.0</ele><time>2026-04-11T13:46:43.002Z</time></trkpt><trkpt lat="44.51967970692483" lon="10.412493196100177"><ele>634.0</ele><time>2026-04-11T13:46:45.002Z</time></trkpt><trkpt lat="44.519550093479694" lon="10.412506982327097"><ele>634.0</ele><time>2026-04-11T13:46:46.002Z</time></trkpt><trkpt lat="44.51943486414904" lon="10.412514937597374"><ele>634.8333333333334</ele><time>2026-04-11T13:46:48.002Z</time></trkpt><trkpt lat="44.5193607007603" lon="10.412547021418959"><ele>635.6666666666667</ele><time>2026-04-11T13:46:50.002Z</time></trkpt><trkpt lat="44.519287519620256" lon="10.412620613286183"><ele>636.5</ele><time>2026-04-11T13:46:52.002Z</time></trkpt><trkpt lat="44.519233491187286" lon="10.412666740776842"><ele>637.3333333333334</ele><time>2026-04-11T13:46:53.002Z</time></trkpt><trkpt lat="44.51915367182501" lon="10.412746336112033"><ele>638.1666666666666</ele><time>2026-04-11T13:46:55.002Z</time></trkpt><trkpt lat="44.519070399767635" lon="10.412815760941811"><ele>639.0</ele><time>2026-04-11T13:46:57.002Z</time></trkpt><trkpt lat="44.5190020269398" lon="10.412872022619606"><ele>639.0</ele><time>2026-04-11T13:46:59.002Z</time></trkpt><trkpt lat="44.51892947849226" lon="10.41292688062772"><ele>639.0</ele><time>2026-04-11T13:47:01.002Z</time></trkpt><trkpt lat="44.518840994016735" lon="10.41292892414476"><ele>639.0</ele><time>2026-04-11T13:47:03.002Z</time></trkpt><trkpt lat="44.518748191362555" lon="10.412879263128486"><ele>639.0</ele><time>2026-04-11T13:47:05.002Z</time></trkpt><trkpt lat="44.518666680660566" lon="10.412816049991806"><ele>639.0</ele><time>2026-04-11T13:47:07.001Z</time></trkpt><trkpt lat="44.5186004597289" lon="10.412722588923675"><ele>637.4</ele><time>2026-04-11T13:47:09.001Z</time></trkpt><trkpt lat="44.51853856905887" lon="10.412638102749586"><ele>635.8</ele><time>2026-04-11T13:47:11Z</time></trkpt><trkpt lat="44.51847746824202" lon="10.412531629279687"><ele>634.2</ele><time>2026-04-11T13:47:13Z</time></trkpt><trkpt lat="44.518403550792584" lon="10.412476132934875"><ele>632.6</ele><time>2026-04-11T13:47:15Z</time></trkpt><trkpt lat="44.51831612929233" lon="10.412412973097377"><ele>631.0</ele><time>2026-04-11T13:47:17Z</time></trkpt><trkpt lat="44.5182392214879" lon="10.41231398619224"><ele>631.0</ele><time>2026-04-11T13:47:19Z</time></trkpt><trkpt lat="44.518155202737184" lon="10.412226403187177"><ele>631.0</ele><time>2026-04-11T13:47:21Z</time></trkpt><trkpt lat="44.51809925225695" lon="10.41214072827292"><ele>631.0</ele><time>2026-04-11T13:47:23Z</time></trkpt><trkpt lat="44.51804949870661" lon="10.411996570215617"><ele>631.0</ele><time>2026-04-11T13:47:25Z</time></trkpt><trkpt lat="44.5180173703601" lon="10.411856090505756"><ele>631.0</ele><time>2026-04-11T13:47:27Z</time></trkpt><trkpt lat="44.5179788402628" lon="10.411715421022222"><ele>631.1666666666667</ele><time>2026-04-11T13:47:29Z</time></trkpt><trkpt lat="44.51793828710139" lon="10.411610598797253"><ele>631.3333333333334</ele><time>2026-04-11T13:47:31Z</time></trkpt><trkpt lat="44.51791313762728" lon="10.411504168833753"><ele>631.5</ele><time>2026-04-11T13:47:34Z</time></trkpt><trkpt lat="44.517891376151574" lon="10.41138945959028"><ele>631.6666666666666</ele><time>2026-04-11T13:47:36Z</time></trkpt><trkpt lat="44.51788850005913" lon="10.411278691155221"><ele>631.8333333333333</ele><time>2026-04-11T13:47:38Z</time></trkpt><trkpt lat="44.51790007488223" lon="10.411144160149075"><ele>632.0</ele><time>2026-04-11T13:47:40Z</time></trkpt><trkpt lat="44.51792275522247" lon="10.41100128928597"><ele>631.8000000000001</ele><time>2026-04-11T13:47:42Z</time></trkpt><trkpt lat="44.5179403742184" lon="10.410864229819666"><ele>631.6</ele><time>2026-04-11T13:47:44Z</time></trkpt><trkpt lat="44.51796521430914" lon="10.41077353814549"><ele>631.4000000000001</ele><time>2026-04-11T13:47:45Z</time></trkpt><trkpt lat="44.517989367079885" lon="10.410653793112893"><ele>631.2</ele><time>2026-04-11T13:47:46Z</time></trkpt><trkpt lat="44.51797262766452" lon="10.410521477317852"><ele>631.0</ele><time>2026-04-11T13:47:47Z</time></trkpt><trkpt lat="44.51791493998494" lon="10.41039746996074"><ele>628.6</ele><time>2026-04-11T13:47:48Z</time></trkpt><trkpt lat="44.517853753421946" lon="10.410281524408008"><ele>626.2</ele><time>2026-04-11T13:47:49Z</time></trkpt><trkpt lat="44.517796676559456" lon="10.410165233250554"><ele>623.8</ele><time>2026-04-11T13:47:50Z</time></trkpt><trkpt lat="44.51774682988948" lon="10.410051200209764"><ele>621.4</ele><time>2026-04-11T13:47:51Z</time></trkpt><trkpt lat="44.517699332828066" lon="10.409937734136568"><ele>619.0</ele><time>2026-04-11T13:47:52Z</time></trkpt><trkpt lat="44.51765417343278" lon="10.409823836212414"><ele>619.0</ele><time>2026-04-11T13:47:53Z</time></trkpt><trkpt lat="44.517617945669414" lon="10.409728423065072"><ele>619.0</ele><time>2026-04-11T13:47:54Z</time></trkpt><trkpt lat="44.51758366251599" lon="10.409642952764694"><ele>619.0</ele><time>2026-04-11T13:47:55Z</time></trkpt><trkpt lat="44.517555565810305" lon="10.40956316654737"><ele>619.0</ele><time>2026-04-11T13:47:56Z</time></trkpt><trkpt lat="44.51752761023764" lon="10.409481354392195"><ele>619.0</ele><time>2026-04-11T13:47:57Z</time></trkpt><trkpt lat="44.51749724848047" lon="10.40938796575797"><ele>619.0</ele><time>2026-04-11T13:47:58Z</time></trkpt><trkpt lat="44.51747021853065" lon="10.40928432529652"><ele>619.0</ele><time>2026-04-11T13:47:59Z</time></trkpt><trkpt lat="44.5174342968001" lon="10.409187428830187"><ele>619.8</ele><time>2026-04-11T13:48:00Z</time></trkpt><trkpt lat="44.51737305177479" lon="10.409108308294792"><ele>620.5999999999999</ele><time>2026-04-11T13:48:01Z</time></trkpt><trkpt lat="44.51728775738583" lon="10.409070809548243"><ele>621.4</ele><time>2026-04-11T13:48:02Z</time></trkpt><trkpt lat="44.51718832337496" lon="10.409083108936418"><ele>622.1999999999999</ele><time>2026-04-11T13:48:03Z</time></trkpt><trkpt lat="44.51708775591772" lon="10.409127813582145"><ele>623.0</ele><time>2026-04-11T13:48:04Z</time></trkpt><trkpt lat="44.51698567282029" lon="10.40916718191062"><ele>623.0</ele><time>2026-04-11T13:48:05.001Z</time></trkpt><trkpt lat="44.516877738295136" lon="10.40920515344947"><ele>623.0</ele><time>2026-04-11T13:48:06.001Z</time></trkpt><trkpt lat="44.51677399180346" lon="10.409244003659813"><ele>623.0</ele><time>2026-04-11T13:48:07.001Z</time></trkpt><trkpt lat="44.51666490787536" lon="10.40928262190346"><ele>623.0</ele><time>2026-04-11T13:48:08.001Z</time></trkpt><trkpt lat="44.51655870596177" lon="10.409324843636131"><ele>623.0</ele><time>2026-04-11T13:48:09.001Z</time></trkpt><trkpt lat="44.51645825722257" lon="10.409362272163996"><ele>623.0</ele><time>2026-04-11T13:48:10.001Z</time></trkpt><trkpt lat="44.51635856811974" lon="10.409396376787928"><ele>623.0</ele><time>2026-04-11T13:48:11.001Z</time></trkpt><trkpt lat="44.5162592166081" lon="10.409431848054357"><ele>623.0</ele><time>2026-04-11T13:48:12.001Z</time></trkpt><trkpt lat="44.5161575230484" lon="10.409462126911128"><ele>623.0</ele><time>2026-04-11T13:48:13.001Z</time></trkpt><trkpt lat="44.516054374018715" lon="10.409482119719566"><ele>623.0</ele><time>2026-04-11T13:48:14.001Z</time></trkpt><trkpt lat="44.515949959525734" lon="10.409492460179553"><ele>623.4</ele><time>2026-04-11T13:48:15.001Z</time></trkpt><trkpt lat="44.515843573329185" lon="10.409477023958276"><ele>623.8</ele><time>2026-04-11T13:48:16.001Z</time></trkpt><trkpt lat="44.515734670140084" lon="10.409449270313912"><ele>624.2</ele><time>2026-04-11T13:48:17.001Z</time></trkpt><trkpt lat="44.515626716697874" lon="10.409414947665159"><ele>624.6</ele><time>2026-04-11T13:48:18.001Z</time></trkpt><trkpt lat="44.515518945888154" lon="10.409373537146596"><ele>625.0</ele><time>2026-04-11T13:48:19.001Z</time></trkpt><trkpt lat="44.51541340074811" lon="10.409329647191207"><ele>623.8</ele><time>2026-04-11T13:48:20.001Z</time></trkpt><trkpt lat="44.515312031955084" lon="10.409279642264263"><ele>622.6</ele><time>2026-04-11T13:48:21.001Z</time></trkpt><trkpt lat="44.515221204192095" lon="10.409205312166055"><ele>621.4</ele><time>2026-04-11T13:48:22.001Z</time></trkpt><trkpt lat="44.51512896632559" lon="10.409140995830164"><ele>620.2</ele><time>2026-04-11T13:48:23.001Z</time></trkpt><trkpt lat="44.515026856923704" lon="10.4090792638507"><ele>619.0</ele><time>2026-04-11T13:48:24.001Z</time></trkpt><trkpt lat="44.5149348782334" lon="10.409000022218812"><ele>619.0</ele><time>2026-04-11T13:48:25.001Z</time></trkpt><trkpt lat="44.51483783695303" lon="10.408923454403688"><ele>619.0</ele><time>2026-04-11T13:48:26.001Z</time></trkpt><trkpt lat="44.5147428464415" lon="10.408856370168134"><ele>619.0</ele><time>2026-04-11T13:48:27.001Z</time></trkpt><trkpt lat="44.51464773648544" lon="10.408795087856578"><ele>619.0</ele><time>2026-04-11T13:48:28.001Z</time></trkpt><trkpt lat="44.51456000785232" lon="10.408709883448175"><ele>619.0</ele><time>2026-04-11T13:48:29.001Z</time></trkpt><trkpt lat="44.51446916846133" lon="10.408638923453479"><ele>617.2</ele><time>2026-04-11T13:48:30.001Z</time></trkpt><trkpt lat="44.514380659056656" lon="10.408558092495745"><ele>615.4</ele><time>2026-04-11T13:48:31.001Z</time></trkpt><trkpt lat="44.5142979065069" lon="10.408466902149634"><ele>613.6</ele><time>2026-04-11T13:48:32.001Z</time></trkpt><trkpt lat="44.51420632588762" lon="10.408387744525024"><ele>611.8</ele><time>2026-04-11T13:48:33.001Z</time></trkpt><trkpt lat="44.51412944770433" lon="10.408285857947382"><ele>610.0</ele><time>2026-04-11T13:48:34.001Z</time></trkpt><trkpt lat="44.51404913508985" lon="10.408185264055088"><ele>610.0</ele><time>2026-04-11T13:48:35.001Z</time></trkpt><trkpt lat="44.513966652059516" lon="10.408091832134984"><ele>610.0</ele><time>2026-04-11T13:48:36.001Z</time></trkpt><trkpt lat="44.51388067739579" lon="10.408004232027157"><ele>610.0</ele><time>2026-04-11T13:48:37.001Z</time></trkpt><trkpt lat="44.51379821790729" lon="10.407909148125745"><ele>610.0</ele><time>2026-04-11T13:48:38.001Z</time></trkpt><trkpt lat="44.51371333671823" lon="10.407820936188964"><ele>610.0</ele><time>2026-04-11T13:48:39.001Z</time></trkpt><trkpt lat="44.51363649938418" lon="10.407718618568573"><ele>608.4</ele><time>2026-04-11T13:48:40.001Z</time></trkpt><trkpt lat="44.51355186826685" lon="10.407631110833993"><ele>606.8</ele><time>2026-04-11T13:48:41.001Z</time></trkpt><trkpt lat="44.51353224682881" lon="10.40747984138142"><ele>605.2</ele><time>2026-04-11T13:48:42.001Z</time></trkpt><trkpt lat="44.51351467937788" lon="10.407339389081882"><ele>603.6</ele><time>2026-04-11T13:48:43.001Z</time></trkpt><trkpt lat="44.51348183592507" lon="10.407196351843808"><ele>602.0</ele><time>2026-04-11T13:48:44.001Z</time></trkpt><trkpt lat="44.51345985741953" lon="10.407051306708436"><ele>602.0</ele><time>2026-04-11T13:48:45.001Z</time></trkpt><trkpt lat="44.513440026310874" lon="10.406901389419957"><ele>602.0</ele><time>2026-04-11T13:48:46.001Z</time></trkpt><trkpt lat="44.51342210328666" lon="10.4067530767813"><ele>602.0</ele><time>2026-04-11T13:48:47.001Z</time></trkpt><trkpt lat="44.513405578315734" lon="10.40660819799014"><ele>602.0</ele><time>2026-04-11T13:48:48.001Z</time></trkpt><trkpt lat="44.513394667121396" lon="10.406459587783836"><ele>602.0</ele><time>2026-04-11T13:48:49.001Z</time></trkpt><trkpt lat="44.51339193381769" lon="10.406310572029566"><ele>600.4</ele><time>2026-04-11T13:48:50.001Z</time></trkpt><trkpt lat="44.51341196279995" lon="10.406170289872499"><ele>598.8000000000001</ele><time>2026-04-11T13:48:51.001Z</time></trkpt><trkpt lat="44.513492056833265" lon="10.406064925315427"><ele>597.2</ele><time>2026-04-11T13:48:52.001Z</time></trkpt><trkpt lat="44.513570039875255" lon="10.405972802685445"><ele>595.6</ele><time>2026-04-11T13:48:53.001Z</time></trkpt><trkpt lat="44.51361560626065" lon="10.405888041312087"><ele>594.0</ele><time>2026-04-11T13:48:54.001Z</time></trkpt><trkpt lat="44.51355485152495" lon="10.405791468407259"><ele>594.0</ele><time>2026-04-11T13:48:57.001Z</time></trkpt><trkpt lat="44.51344362181105" lon="10.405826349861295"><ele>594.0</ele><time>2026-04-11T13:48:59.002Z</time></trkpt><trkpt lat="44.513363392109724" lon="10.4058509034946"><ele>594.0</ele><time>2026-04-11T13:49:00.002Z</time></trkpt><trkpt lat="44.51326525557195" lon="10.405843775209107"><ele>594.0</ele><time>2026-04-11T13:49:01.002Z</time></trkpt><trkpt lat="44.51316675890769" lon="10.40585174510513"><ele>594.0</ele><time>2026-04-11T13:49:02.002Z</time></trkpt><trkpt lat="44.51308369042462" lon="10.405871149145327"><ele>594.0</ele><time>2026-04-11T13:49:03.002Z</time></trkpt><trkpt lat="44.5130084599301" lon="10.405875531872463"><ele>594.0</ele><time>2026-04-11T13:49:04.002Z</time></trkpt><trkpt lat="44.51294066470702" lon="10.405879495792254"><ele>594.0</ele><time>2026-04-11T13:49:05.002Z</time></trkpt><trkpt lat="44.512863236636235" lon="10.405833884264045"><ele>594.0</ele><time>2026-04-11T13:49:06.002Z</time></trkpt><trkpt lat="44.512822454357085" lon="10.40571460861063"><ele>594.0</ele><time>2026-04-11T13:49:07.002Z</time></trkpt><trkpt lat="44.51274917138693" lon="10.405657763164953"><ele>594.0</ele><time>2026-04-11T13:49:08.002Z</time></trkpt><trkpt lat="44.51269322699204" lon="10.405606440759975"><ele>591.6</ele><time>2026-04-11T13:49:09.002Z</time></trkpt><trkpt lat="44.51261244961938" lon="10.405665015084772"><ele>589.2</ele><time>2026-04-11T13:49:10.002Z</time></trkpt><trkpt lat="44.51254999866261" lon="10.40574010299084"><ele>586.8000000000001</ele><time>2026-04-11T13:49:11.002Z</time></trkpt><trkpt lat="44.51249656180707" lon="10.40584262312461"><ele>584.4</ele><time>2026-04-11T13:49:12.002Z</time></trkpt><trkpt lat="44.5124399764216" lon="10.40594995728683"><ele>582.0</ele><time>2026-04-11T13:49:13Z</time></trkpt><trkpt lat="44.51238303712391" lon="10.406059370936642"><ele>582.0</ele><time>2026-04-11T13:49:14Z</time></trkpt><trkpt lat="44.51230043436706" lon="10.406154139523698"><ele>582.0</ele><time>2026-04-11T13:49:15Z</time></trkpt><trkpt lat="44.51222364571695" lon="10.40626874463879"><ele>582.0</ele><time>2026-04-11T13:49:16Z</time></trkpt><trkpt lat="44.51214595363215" lon="10.40638508523478"><ele>582.0</ele><time>2026-04-11T13:49:17Z</time></trkpt><trkpt lat="44.512077021201755" lon="10.406516222248609"><ele>582.0</ele><time>2026-04-11T13:49:18Z</time></trkpt><trkpt lat="44.51200121450852" lon="10.406640681749794"><ele>581.2</ele><time>2026-04-11T13:49:19Z</time></trkpt><trkpt lat="44.5119357953225" lon="10.406771836995787"><ele>580.4000000000001</ele><time>2026-04-11T13:49:20Z</time></trkpt><trkpt lat="44.51186262670321" lon="10.406882576916878"><ele>579.5999999999999</ele><time>2026-04-11T13:49:21Z</time></trkpt><trkpt lat="44.511803838232076" lon="10.406984949494765"><ele>578.8</ele><time>2026-04-11T13:49:22Z</time></trkpt><trkpt lat="44.51175597360017" lon="10.407047610160673"><ele>578.0</ele><time>2026-04-11T13:49:23Z</time></trkpt><trkpt lat="44.51169081272143" lon="10.407081116235467"><ele>578.5</ele><time>2026-04-11T13:49:33Z</time></trkpt><trkpt lat="44.511593119995396" lon="10.407261557162144"><ele>579.0</ele><time>2026-04-11T13:49:41.001Z</time></trkpt><trkpt lat="44.51161333963675" lon="10.407704021683266"><ele>579.0</ele><time>2026-04-11T13:49:46.001Z</time></trkpt><trkpt lat="44.51162018715788" lon="10.407864033083223"><ele>579.0</ele><time>2026-04-11T13:49:48.001Z</time></trkpt><trkpt lat="44.51161661498522" lon="10.407971207217063"><ele>579.0</ele><time>2026-04-11T13:49:49.001Z</time></trkpt><trkpt lat="44.51162321084991" lon="10.408076263723583"><ele>579.0</ele><time>2026-04-11T13:49:50.001Z</time></trkpt><trkpt lat="44.51163006087892" lon="10.408168395477384"><ele>579.0</ele><time>2026-04-11T13:49:51.001Z</time></trkpt><trkpt lat="44.511644458055066" lon="10.408313077061914"><ele>579.0</ele><time>2026-04-11T13:49:53.001Z</time></trkpt><trkpt lat="44.51166916414237" lon="10.408479840892122"><ele>577.8</ele><time>2026-04-11T13:49:55.001Z</time></trkpt><trkpt lat="44.511707429247096" lon="10.408615744503553"><ele>576.5999999999999</ele><time>2026-04-11T13:49:57.001Z</time></trkpt><trkpt lat="44.51176001891159" lon="10.408793971958945"><ele>575.4</ele><time>2026-04-11T13:49:59.001Z</time></trkpt><trkpt lat="44.51179588839755" lon="10.408896670005932"><ele>574.1999999999999</ele><time>2026-04-11T13:50:00.001Z</time></trkpt><trkpt lat="44.51184481896043" lon="10.40902042797771"><ele>573.0</ele><time>2026-04-11T13:50:01.001Z</time></trkpt><trkpt lat="44.511890573495656" lon="10.409146401132665"><ele>573.4</ele><time>2026-04-11T13:50:02.001Z</time></trkpt><trkpt lat="44.511943733660694" lon="10.409273085399613"><ele>573.8</ele><time>2026-04-11T13:50:03.001Z</time></trkpt><trkpt lat="44.511996440982" lon="10.409394068224183"><ele>574.2</ele><time>2026-04-11T13:50:04.001Z</time></trkpt><trkpt lat="44.51204263755696" lon="10.409499489778298"><ele>574.6</ele><time>2026-04-11T13:50:05.001Z</time></trkpt><trkpt lat="44.512081901306914" lon="10.409594350233688"><ele>575.0</ele><time>2026-04-11T13:50:06.001Z</time></trkpt><trkpt lat="44.512119271377955" lon="10.409711949303782"><ele>573.8333333333333</ele><time>2026-04-11T13:50:08.001Z</time></trkpt><trkpt lat="44.512081131049385" lon="10.409826157156926"><ele>572.6666666666666</ele><time>2026-04-11T13:50:10.001Z</time></trkpt><trkpt lat="44.51198905467396" lon="10.409921138829223"><ele>571.5</ele><time>2026-04-11T13:50:12.001Z</time></trkpt><trkpt lat="44.51193366297548" lon="10.409976949783166"><ele>570.3333333333334</ele><time>2026-04-11T13:50:13.001Z</time></trkpt><trkpt lat="44.5118805213311" lon="10.410032463477327"><ele>569.1666666666667</ele><time>2026-04-11T13:50:14.001Z</time></trkpt><trkpt lat="44.51182502979518" lon="10.410093980140461"><ele>568.0</ele><time>2026-04-11T13:50:15.001Z</time></trkpt><trkpt lat="44.51176524572677" lon="10.410145981243538"><ele>566.5</ele><time>2026-04-11T13:50:16.001Z</time></trkpt><trkpt lat="44.5117078486353" lon="10.410207929172103"><ele>565.0</ele><time>2026-04-11T13:50:17.001Z</time></trkpt><trkpt lat="44.51166675932055" lon="10.410275598624409"><ele>563.5</ele><time>2026-04-11T13:50:18.001Z</time></trkpt><trkpt lat="44.5116427638511" lon="10.410381666554663"><ele>562.0</ele><time>2026-04-11T13:50:20.001Z</time></trkpt><trkpt lat="44.511677863108694" lon="10.410538599761672"><ele>560.5</ele><time>2026-04-11T13:50:22.001Z</time></trkpt><trkpt lat="44.5117242854252" lon="10.410605487062272"><ele>559.0</ele><time>2026-04-11T13:50:23.001Z</time></trkpt><trkpt lat="44.51176684469134" lon="10.410681768491186"><ele>558.6</ele><time>2026-04-11T13:50:24.001Z</time></trkpt><trkpt lat="44.511777749953986" lon="10.410840849315216"><ele>558.2</ele><time>2026-04-11T13:50:26.001Z</time></trkpt><trkpt lat="44.51169103667348" lon="10.410974276605451"><ele>557.8000000000001</ele><time>2026-04-11T13:50:28.001Z</time></trkpt><trkpt lat="44.511631737199544" lon="10.411042680947217"><ele>557.4</ele><time>2026-04-11T13:50:29.001Z</time></trkpt><trkpt lat="44.51157802886707" lon="10.41111260349199"><ele>557.0</ele><time>2026-04-11T13:50:30.001Z</time></trkpt><trkpt lat="44.511526016937864" lon="10.411183758900158"><ele>557.0</ele><time>2026-04-11T13:50:31.001Z</time></trkpt><trkpt lat="44.511474003109925" lon="10.411248108838823"><ele>557.0</ele><time>2026-04-11T13:50:32.001Z</time></trkpt><trkpt lat="44.51137994321756" lon="10.411348556681975"><ele>557.0</ele><time>2026-04-11T13:50:34.001Z</time></trkpt><trkpt lat="44.51128586958412" lon="10.411436097055576"><ele>557.0</ele><time>2026-04-11T13:50:36.001Z</time></trkpt><trkpt lat="44.511241958221774" lon="10.411551770178157"><ele>557.0</ele><time>2026-04-11T13:50:38.002Z</time></trkpt><trkpt lat="44.51127420989911" lon="10.41168777761272"><ele>556.6666666666666</ele><time>2026-04-11T13:50:40.002Z</time></trkpt><trkpt lat="44.51131806242294" lon="10.41178106729495"><ele>556.3333333333333</ele><time>2026-04-11T13:50:41.002Z</time></trkpt><trkpt lat="44.51135970871567" lon="10.411874605127405"><ele>556.0</ele><time>2026-04-11T13:50:42.002Z</time></trkpt><trkpt lat="44.511384142577086" lon="10.411961042861673"><ele>555.6666666666666</ele><time>2026-04-11T13:50:43.002Z</time></trkpt><trkpt lat="44.5114226769728" lon="10.412112783194246"><ele>555.3333333333334</ele><time>2026-04-11T13:50:45.002Z</time></trkpt><trkpt lat="44.511444812746305" lon="10.412202073365286"><ele>555.0</ele><time>2026-04-11T13:50:46.002Z</time></trkpt><trkpt lat="44.51146928253247" lon="10.412310203065228"><ele>553.2</ele><time>2026-04-11T13:50:48.002Z</time></trkpt><trkpt lat="44.51148914549973" lon="10.412416390135906"><ele>551.4</ele><time>2026-04-11T13:51:03.002Z</time></trkpt><trkpt lat="44.511531895464394" lon="10.412508681382038"><ele>549.6</ele><time>2026-04-11T13:51:05.002Z</time></trkpt><trkpt lat="44.511607075586625" lon="10.412583994953582"><ele>547.8</ele><time>2026-04-11T13:51:07.002Z</time></trkpt><trkpt lat="44.51169651428618" lon="10.412642654810854"><ele>546.0</ele><time>2026-04-11T13:51:09.002Z</time></trkpt><trkpt lat="44.511778871932364" lon="10.412747656528333"><ele>546.0</ele><time>2026-04-11T13:51:11.002Z</time></trkpt><trkpt lat="44.51182309643523" lon="10.412867943980318"><ele>546.0</ele><time>2026-04-11T13:51:13.002Z</time></trkpt><trkpt lat="44.51187023177406" lon="10.412984524059796"><ele>546.0</ele><time>2026-04-11T13:51:15.002Z</time></trkpt><trkpt lat="44.511931783826526" lon="10.413074172146416"><ele>546.0</ele><time>2026-04-11T13:51:17.002Z</time></trkpt><trkpt lat="44.511971778964465" lon="10.413143298585425"><ele>546.0</ele><time>2026-04-11T13:51:19.001Z</time></trkpt><trkpt lat="44.51200511138105" lon="10.413221157657194"><ele>546.0</ele><time>2026-04-11T13:51:20.001Z</time></trkpt><trkpt lat="44.51200739956137" lon="10.413392702959015"><ele>543.8</ele><time>2026-04-11T13:51:22.001Z</time></trkpt><trkpt lat="44.511990150051304" lon="10.413537167430766"><ele>541.6</ele><time>2026-04-11T13:51:24.001Z</time></trkpt><trkpt lat="44.51194828348011" lon="10.413647925843637"><ele>539.4</ele><time>2026-04-11T13:51:26.001Z</time></trkpt><trkpt lat="44.51192482598175" lon="10.413767788552967"><ele>537.2</ele><time>2026-04-11T13:51:28.001Z</time></trkpt><trkpt lat="44.511958035687094" lon="10.413906566330162"><ele>535.0</ele><time>2026-04-11T13:51:30.001Z</time></trkpt><trkpt lat="44.51198882499212" lon="10.414002529110487"><ele>533.4285714285714</ele><time>2026-04-11T13:51:31.001Z</time></trkpt><trkpt lat="44.51201464886611" lon="10.414099932821719"><ele>531.8571428571429</ele><time>2026-04-11T13:51:32Z</time></trkpt><trkpt lat="44.51200730432967" lon="10.414213859055378"><ele>530.2857142857143</ele><time>2026-04-11T13:51:33Z</time></trkpt><trkpt lat="44.51201795719627" lon="10.414317095651946"><ele>528.7142857142858</ele><time>2026-04-11T13:51:34Z</time></trkpt><trkpt lat="44.51201139223934" lon="10.414424070809593"><ele>527.1428571428572</ele><time>2026-04-11T13:51:35Z</time></trkpt><trkpt lat="44.51199198138931" lon="10.414518548890529"><ele>525.5714285714286</ele><time>2026-04-11T13:51:36Z</time></trkpt><trkpt lat="44.51196018877475" lon="10.414603609321318"><ele>524.0</ele><time>2026-04-11T13:51:37Z</time></trkpt><trkpt lat="44.51191965974872" lon="10.414694468322091"><ele>522.6666666666666</ele><time>2026-04-11T13:51:38Z</time></trkpt><trkpt lat="44.51187544710623" lon="10.414771733111797"><ele>521.3333333333333</ele><time>2026-04-11T13:51:39Z</time></trkpt><trkpt lat="44.51183370238549" lon="10.41484626871747"><ele>520.0</ele><time>2026-04-11T13:51:40Z</time></trkpt><trkpt lat="44.511793123398725" lon="10.414917630396776"><ele>518.6666666666666</ele><time>2026-04-11T13:51:41Z</time></trkpt><trkpt lat="44.51171686020901" lon="10.415051399236537"><ele>517.3333333333334</ele><time>2026-04-11T13:51:43Z</time></trkpt><trkpt lat="44.51168585142391" lon="10.415129895173054"><ele>516.0</ele><time>2026-04-11T13:51:44Z</time></trkpt><trkpt lat="44.51161968117629" lon="10.415240250202258"><ele>516.0</ele><time>2026-04-11T13:51:46Z</time></trkpt><trkpt lat="44.51151896024874" lon="10.415291386858781"><ele>516.0</ele><time>2026-04-11T13:51:48Z</time></trkpt><trkpt lat="44.51140727282311" lon="10.415295115377418"><ele>516.0</ele><time>2026-04-11T13:51:50Z</time></trkpt><trkpt lat="44.51129711282737" lon="10.415360865117213"><ele>516.0</ele><time>2026-04-11T13:51:52Z</time></trkpt><trkpt lat="44.511234487557175" lon="10.41539309166734"><ele>516.0</ele><time>2026-04-11T13:51:53Z</time></trkpt><trkpt lat="44.51116838127537" lon="10.415400427127391"><ele>512.8</ele><time>2026-04-11T13:51:54Z</time></trkpt><trkpt lat="44.5110743671372" lon="10.415343649192625"><ele>509.6</ele><time>2026-04-11T13:51:56Z</time></trkpt><trkpt lat="44.51097898796419" lon="10.415262434518693"><ele>506.4</ele><time>2026-04-11T13:51:58Z</time></trkpt><trkpt lat="44.51090080928491" lon="10.415259471553984"><ele>503.2</ele><time>2026-04-11T13:52:00Z</time></trkpt><trkpt lat="44.51082628920711" lon="10.415330866147022"><ele>500.0</ele><time>2026-04-11T13:52:02Z</time></trkpt><trkpt lat="44.510734561823604" lon="10.415416696060094"><ele>498.0</ele><time>2026-04-11T13:52:04Z</time></trkpt><trkpt lat="44.510652100417545" lon="10.415502806168801"><ele>496.0</ele><time>2026-04-11T13:52:06Z</time></trkpt><trkpt lat="44.5106020564853" lon="10.41559571289642"><ele>494.0</ele><time>2026-04-11T13:52:08.001Z</time></trkpt><trkpt lat="44.51059527537753" lon="10.415718688780013"><ele>492.0</ele><time>2026-04-11T13:52:10.001Z</time></trkpt><trkpt lat="44.51059681996995" lon="10.415872547062378"><ele>490.0</ele><time>2026-04-11T13:52:12.001Z</time></trkpt><trkpt lat="44.51059051196107" lon="10.415987203620011"><ele>490.0</ele><time>2026-04-11T13:52:15.001Z</time></trkpt><trkpt lat="44.51053349363194" lon="10.416090487775351"><ele>490.0</ele><time>2026-04-11T13:52:17.001Z</time></trkpt><trkpt lat="44.51046061569824" lon="10.416133655677097"><ele>490.0</ele><time>2026-04-11T13:52:19.001Z</time></trkpt><trkpt lat="44.51037579869496" lon="10.41613965438324"><ele>490.0</ele><time>2026-04-11T13:52:22.001Z</time></trkpt><trkpt lat="44.510287943692894" lon="10.416101942287215"><ele>490.0</ele><time>2026-04-11T13:52:24.001Z</time></trkpt><trkpt lat="44.510183478709145" lon="10.416062380565952"><ele>486.50000000000006</ele><time>2026-04-11T13:52:26.001Z</time></trkpt><trkpt lat="44.510114866211346" lon="10.416024441148197"><ele>483.0</ele><time>2026-04-11T13:52:27.001Z</time></trkpt><trkpt lat="44.510054579372316" lon="10.415981614848148"><ele>479.5</ele><time>2026-04-11T13:52:28.001Z</time></trkpt><trkpt lat="44.50996972370692" lon="10.415950168373906"><ele>476.0</ele><time>2026-04-11T13:52:30.001Z</time></trkpt><trkpt lat="44.5099130215547" lon="10.415998632210533"><ele>472.50000000000006</ele><time>2026-04-11T13:52:32.001Z</time></trkpt><trkpt lat="44.509874289988936" lon="10.416115731974756"><ele>469.0</ele><time>2026-04-11T13:52:34.001Z</time></trkpt><trkpt lat="44.50980763855322" lon="10.416182061247733"><ele>469.00000000000006</ele><time>2026-04-11T13:52:36.001Z</time></trkpt><trkpt lat="44.509721688967154" lon="10.416232288548137"><ele>469.0</ele><time>2026-04-11T13:52:39.001Z</time></trkpt><trkpt lat="44.50962857757713" lon="10.416267628069058"><ele>469.0</ele><time>2026-04-11T13:52:42.001Z</time></trkpt><trkpt lat="44.50958585609756" lon="10.4163376979642"><ele>469.0</ele><time>2026-04-11T13:52:44.001Z</time></trkpt><trkpt lat="44.50960582927706" lon="10.416423065147205"><ele>469.00000000000006</ele><time>2026-04-11T13:52:50.001Z</time></trkpt><trkpt lat="44.50964645799203" lon="10.416498844539431"><ele>469.0</ele><time>2026-04-11T13:52:53.001Z</time></trkpt><trkpt lat="44.50971415206723" lon="10.41660007871886"><ele>467.50000000000006</ele><time>2026-04-11T13:52:56.001Z</time></trkpt><trkpt lat="44.50978288378914" lon="10.416670678401903"><ele>466.0</ele><time>2026-04-11T13:52:58.001Z</time></trkpt><trkpt lat="44.50982827894032" lon="10.416759810067202"><ele>464.5</ele><time>2026-04-11T13:53:00.001Z</time></trkpt><trkpt lat="44.50983516350351" lon="10.416864198011908"><ele>463.0</ele><time>2026-04-11T13:53:02.001Z</time></trkpt><trkpt lat="44.5098225971947" lon="10.416980315361066"><ele>461.50000000000006</ele><time>2026-04-11T13:53:06.002Z</time></trkpt><trkpt lat="44.50977714154553" lon="10.417094099136511"><ele>460.0</ele><time>2026-04-11T13:53:08.002Z</time></trkpt><trkpt lat="44.50974639029132" lon="10.417178384949418"><ele>456.83333333333337</ele><time>2026-04-11T13:53:10.002Z</time></trkpt><trkpt lat="44.509729218949595" lon="10.417300527394474"><ele>453.6666666666667</ele><time>2026-04-11T13:53:13.002Z</time></trkpt><trkpt lat="44.50970087393526" lon="10.417399002873909"><ele>450.5</ele><time>2026-04-11T13:53:15.002Z</time></trkpt><trkpt lat="44.50959828712381" lon="10.41744302983871"><ele>447.33333333333337</ele><time>2026-04-11T13:53:17.002Z</time></trkpt><trkpt lat="44.50953529334901" lon="10.417443185706272"><ele>444.1666666666667</ele><time>2026-04-11T13:53:18.002Z</time></trkpt><trkpt lat="44.509467436751756" lon="10.417429971216624"><ele>441.0</ele><time>2026-04-11T13:53:19.002Z</time></trkpt><trkpt lat="44.509397279106736" lon="10.417420720613697"><ele>439.3333333333333</ele><time>2026-04-11T13:53:20.002Z</time></trkpt><trkpt lat="44.50933068829162" lon="10.417424529648342"><ele>437.66666666666663</ele><time>2026-04-11T13:53:21.002Z</time></trkpt><trkpt lat="44.50923126308889" lon="10.41744248082581"><ele>436.0</ele><time>2026-04-11T13:53:23.002Z</time></trkpt><trkpt lat="44.50914267200935" lon="10.417450240399905"><ele>434.3333333333333</ele><time>2026-04-11T13:53:25.001Z</time></trkpt><trkpt lat="44.50905233731806" lon="10.417458236436852"><ele>432.66666666666663</ele><time>2026-04-11T13:53:27.001Z</time></trkpt><trkpt lat="44.50895327470355" lon="10.417488611254537"><ele>431.0</ele><time>2026-04-11T13:53:29.001Z</time></trkpt><trkpt lat="44.508888606546385" lon="10.417498063512586"><ele>430.99999999999994</ele><time>2026-04-11T13:53:30.001Z</time></trkpt><trkpt lat="44.508815555385276" lon="10.417512336425258"><ele>431.0</ele><time>2026-04-11T13:53:31.001Z</time></trkpt><trkpt lat="44.50874199780098" lon="10.417525717049053"><ele>431.0</ele><time>2026-04-11T13:53:32.001Z</time></trkpt><trkpt lat="44.50867077817548" lon="10.417548046365669"><ele>431.0</ele><time>2026-04-11T13:53:33.001Z</time></trkpt><trkpt lat="44.50860030588051" lon="10.417561409789688"><ele>430.99999999999994</ele><time>2026-04-11T13:53:34.001Z</time></trkpt><trkpt lat="44.50850525449091" lon="10.41757831936361"><ele>431.0</ele><time>2026-04-11T13:53:36.001Z</time></trkpt><trkpt lat="44.508413966992265" lon="10.41757112942899"><ele>428.20000000000005</ele><time>2026-04-11T13:53:38.001Z</time></trkpt><trkpt lat="44.50832252142493" lon="10.417587244089882"><ele>425.40000000000003</ele><time>2026-04-11T13:53:40.001Z</time></trkpt><trkpt lat="44.50821950608453" lon="10.41762823834785"><ele>422.6</ele><time>2026-04-11T13:53:42.001Z</time></trkpt><trkpt lat="44.508128726568465" lon="10.417710462517904"><ele>419.8</ele><time>2026-04-11T13:53:44.001Z</time></trkpt><trkpt lat="44.50805607397146" lon="10.417827321689616"><ele>417.0</ele><time>2026-04-11T13:53:46.001Z</time></trkpt><trkpt lat="44.507988213081504" lon="10.417936153312382"><ele>415.1666666666667</ele><time>2026-04-11T13:53:48.001Z</time></trkpt><trkpt lat="44.507932566853526" lon="10.418031424028626"><ele>413.33333333333337</ele><time>2026-04-11T13:53:50.001Z</time></trkpt><trkpt lat="44.507882555404315" lon="10.418117542193963"><ele>411.5</ele><time>2026-04-11T13:53:55.001Z</time></trkpt><trkpt lat="44.507838529459896" lon="10.418233303249124"><ele>409.6666666666667</ele><time>2026-04-11T13:53:57.001Z</time></trkpt><trkpt lat="44.50780128729342" lon="10.41832841419338"><ele>407.83333333333337</ele><time>2026-04-11T13:53:59.001Z</time></trkpt><trkpt lat="44.50772615795859" lon="10.41834595082416"><ele>406.0</ele><time>2026-04-11T13:54:02.001Z</time></trkpt><trkpt lat="44.507649621020974" lon="10.41823736314986"><ele>404.20000000000005</ele><time>2026-04-11T13:54:04.001Z</time></trkpt><trkpt lat="44.507557044476876" lon="10.418204408789462"><ele>402.40000000000003</ele><time>2026-04-11T13:54:06.001Z</time></trkpt><trkpt lat="44.50747725906301" lon="10.41827345769451"><ele>400.6</ele><time>2026-04-11T13:54:08.001Z</time></trkpt><trkpt lat="44.50741375728508" lon="10.418366001787838"><ele>398.8</ele><time>2026-04-11T13:54:10.001Z</time></trkpt><trkpt lat="44.50732793484562" lon="10.418457425241364"><ele>397.0</ele><time>2026-04-11T13:54:12.001Z</time></trkpt><trkpt lat="44.507240643292775" lon="10.418511255660704"><ele>397.0</ele><time>2026-04-11T13:54:14.001Z</time></trkpt><trkpt lat="44.5071552358101" lon="10.418512436419318"><ele>397.0</ele><time>2026-04-11T13:54:16.001Z</time></trkpt><trkpt lat="44.50705195823861" lon="10.418482305626327"><ele>397.0</ele><time>2026-04-11T13:54:18.001Z</time></trkpt><trkpt lat="44.50693823240114" lon="10.418443441154935"><ele>397.0</ele><time>2026-04-11T13:54:20.001Z</time></trkpt><trkpt lat="44.50686397640615" lon="10.41832408175584"><ele>397.0</ele><time>2026-04-11T13:54:22.001Z</time></trkpt><trkpt lat="44.50682138860675" lon="10.418167379845586"><ele>396.6</ele><time>2026-04-11T13:54:24.001Z</time></trkpt><trkpt lat="44.50677198658702" lon="10.41804246157653"><ele>396.20000000000005</ele><time>2026-04-11T13:54:26.001Z</time></trkpt><trkpt lat="44.506689347709994" lon="10.41795612300876"><ele>395.8</ele><time>2026-04-11T13:54:28.001Z</time></trkpt><trkpt lat="44.50662541018192" lon="10.417950418034724"><ele>395.4</ele><time>2026-04-11T13:54:29.001Z</time></trkpt><trkpt lat="44.506535497045064" lon="10.417951642571971"><ele>395.0</ele><time>2026-04-11T13:54:31.001Z</time></trkpt><trkpt lat="44.5064404672399" lon="10.417958453213036"><ele>395.0</ele><time>2026-04-11T13:54:33.001Z</time></trkpt><trkpt lat="44.50633884582035" lon="10.417947045474751"><ele>395.0</ele><time>2026-04-11T13:54:35.001Z</time></trkpt><trkpt lat="44.5062299333256" lon="10.41796116780075"><ele>395.0</ele><time>2026-04-11T13:54:37.001Z</time></trkpt><trkpt lat="44.50611839630102" lon="10.417957950872001"><ele>395.0</ele><time>2026-04-11T13:54:39.001Z</time></trkpt><trkpt lat="44.50600670819978" lon="10.41791329807857"><ele>395.0</ele><time>2026-04-11T13:54:41.001Z</time></trkpt><trkpt lat="44.505906504844845" lon="10.41787637561558"><ele>392.49999999999994</ele><time>2026-04-11T13:54:43.001Z</time></trkpt><trkpt lat="44.505793960248276" lon="10.41781827320374"><ele>390.0</ele><time>2026-04-11T13:54:45.001Z</time></trkpt><trkpt lat="44.50572404894911" lon="10.417810118767589"><ele>387.5</ele><time>2026-04-11T13:54:46.001Z</time></trkpt><trkpt lat="44.50565177540478" lon="10.417765186168767"><ele>385.0</ele><time>2026-04-11T13:54:47.001Z</time></trkpt><trkpt lat="44.50558745692415" lon="10.417723818389755"><ele>382.5</ele><time>2026-04-11T13:54:48.001Z</time></trkpt><trkpt lat="44.505519874955404" lon="10.417659299507394"><ele>380.0</ele><time>2026-04-11T13:54:49.001Z</time></trkpt><trkpt lat="44.50544353232383" lon="10.417612300560936"><ele>377.8571428571429</ele><time>2026-04-11T13:54:50.001Z</time></trkpt><trkpt lat="44.505364710939475" lon="10.417585676439508"><ele>375.7142857142857</ele><time>2026-04-11T13:54:51.002Z</time></trkpt><trkpt lat="44.50528478081314" lon="10.417596787695945"><ele>373.57142857142856</ele><time>2026-04-11T13:54:52.002Z</time></trkpt><trkpt lat="44.50521466212563" lon="10.417599448556055"><ele>371.42857142857144</ele><time>2026-04-11T13:54:53.002Z</time></trkpt><trkpt lat="44.50515047195033" lon="10.417619110179764"><ele>369.2857142857143</ele><time>2026-04-11T13:54:54.002Z</time></trkpt><trkpt lat="44.50509040739979" lon="10.41764659107238"><ele>367.14285714285717</ele><time>2026-04-11T13:54:55.002Z</time></trkpt><trkpt lat="44.5050282092628" lon="10.417662146373523"><ele>365.0</ele><time>2026-04-11T13:54:56.002Z</time></trkpt><trkpt lat="44.504963022785105" lon="10.417672939544778"><ele>365.0</ele><time>2026-04-11T13:54:57.002Z</time></trkpt><trkpt lat="44.504896622132144" lon="10.417688120694743"><ele>365.0</ele><time>2026-04-11T13:54:58.002Z</time></trkpt><trkpt lat="44.50482589419915" lon="10.417707088596748"><ele>365.0</ele><time>2026-04-11T13:54:59.002Z</time></trkpt><trkpt lat="44.50475810599929" lon="10.417726634785803"><ele>365.0</ele><time>2026-04-11T13:55:00.002Z</time></trkpt><trkpt lat="44.504650226424936" lon="10.417723319329902"><ele>365.0</ele><time>2026-04-11T13:55:02.002Z</time></trkpt><trkpt lat="44.50464125137536" lon="10.417596521080979"><ele>365.0</ele><time>2026-04-11T13:55:04.002Z</time></trkpt><trkpt lat="44.50465117106039" lon="10.41745077126952"><ele>365.0</ele><time>2026-04-11T13:55:06.002Z</time></trkpt><trkpt lat="44.50467291671488" lon="10.417355002247971"><ele>365.0</ele><time>2026-04-11T13:55:07.002Z</time></trkpt><trkpt lat="44.504668173791615" lon="10.417262767348138"><ele>365.0</ele><time>2026-04-11T13:55:08.002Z</time></trkpt><trkpt lat="44.504594730862046" lon="10.417127492024484"><ele>365.0</ele><time>2026-04-11T13:55:10.002Z</time></trkpt><trkpt lat="44.50454926566102" lon="10.417059871392649"><ele>365.0</ele><time>2026-04-11T13:55:12.002Z</time></trkpt><trkpt lat="44.50448207535465" lon="10.41697955971371"><ele>365.0</ele><time>2026-04-11T13:55:15.002Z</time></trkpt><trkpt lat="44.50442701060481" lon="10.416922151838103"><ele>364.8571428571429</ele><time>2026-04-11T13:55:17.002Z</time></trkpt><trkpt lat="44.504375393452825" lon="10.416871113030519"><ele>364.7142857142857</ele><time>2026-04-11T13:55:18.002Z</time></trkpt><trkpt lat="44.504307221640836" lon="10.416812391834288"><ele>364.57142857142856</ele><time>2026-04-11T13:55:19.002Z</time></trkpt><trkpt lat="44.504243646712496" lon="10.416763339988405"><ele>364.42857142857144</ele><time>2026-04-11T13:55:20.002Z</time></trkpt><trkpt lat="44.50417460208043" lon="10.416703252457493"><ele>364.2857142857143</ele><time>2026-04-11T13:55:21.002Z</time></trkpt><trkpt lat="44.50411906598397" lon="10.416645541344378"><ele>364.14285714285717</ele><time>2026-04-11T13:55:22.002Z</time></trkpt><trkpt lat="44.504074453323526" lon="10.416582245384337"><ele>364.0</ele><time>2026-04-11T13:55:23.002Z</time></trkpt><trkpt lat="44.50401662772744" lon="10.416455576403727"><ele>364.0</ele><time>2026-04-11T13:55:25.002Z</time></trkpt><trkpt lat="44.50398372061786" lon="10.416362917094249"><ele>364.0</ele><time>2026-04-11T13:55:26.002Z</time></trkpt><trkpt lat="44.50395902987252" lon="10.416278706516758"><ele>364.0</ele><time>2026-04-11T13:55:27.002Z</time></trkpt><trkpt lat="44.5039214146954" lon="10.416114780979468"><ele>364.0</ele><time>2026-04-11T13:55:29.002Z</time></trkpt><trkpt lat="44.50390972391246" lon="10.416025977525196"><ele>364.0</ele><time>2026-04-11T13:55:30.002Z</time></trkpt><trkpt lat="44.50387279804943" lon="10.4158735846077"><ele>364.0</ele><time>2026-04-11T13:55:32.001Z</time></trkpt><trkpt lat="44.50380217671855" lon="10.415769826780068"><ele>363.57142857142856</ele><time>2026-04-11T13:55:34.001Z</time></trkpt><trkpt lat="44.503736930525704" lon="10.415756199659707"><ele>363.1428571428571</ele><time>2026-04-11T13:55:36.001Z</time></trkpt><trkpt lat="44.50367314966493" lon="10.415785675084045"><ele>362.7142857142857</ele><time>2026-04-11T13:55:41.001Z</time></trkpt><trkpt lat="44.5036111090263" lon="10.415801939347462"><ele>362.2857142857143</ele><time>2026-04-11T13:55:46.001Z</time></trkpt><trkpt lat="44.50353642029288" lon="10.415772973777512"><ele>361.85714285714283</ele><time>2026-04-11T13:55:50.001Z</time></trkpt><trkpt lat="44.503461595070895" lon="10.415672451929352"><ele>361.42857142857144</ele><time>2026-04-11T13:55:53Z</time></trkpt><trkpt lat="44.50340500612697" lon="10.41562536184388"><ele>361.0</ele><time>2026-04-11T13:55:55Z</time></trkpt><trkpt lat="44.50329197023149" lon="10.415593714709628"><ele>361.0</ele><time>2026-04-11T13:55:57Z</time></trkpt><trkpt lat="44.503203990332686" lon="10.415549730344058"><ele>361.0</ele><time>2026-04-11T13:55:59Z</time></trkpt><trkpt lat="44.50311531232058" lon="10.415519423223865"><ele>361.0</ele><time>2026-04-11T13:56:01Z</time></trkpt><trkpt lat="44.50302188787663" lon="10.415503230238114"><ele>361.0</ele><time>2026-04-11T13:56:03Z</time></trkpt><trkpt lat="44.50294461758895" lon="10.415452414081802"><ele>361.0</ele><time>2026-04-11T13:56:05Z</time></trkpt><trkpt lat="44.50285278773268" lon="10.415371498041123"><ele>360.6</ele><time>2026-04-11T13:56:07Z</time></trkpt><trkpt lat="44.50274511776143" lon="10.415333281814306"><ele>360.20000000000005</ele><time>2026-04-11T13:56:09Z</time></trkpt><trkpt lat="44.50264798235965" lon="10.415293966182379"><ele>359.79999999999995</ele><time>2026-04-11T13:56:11Z</time></trkpt><trkpt lat="44.50254932741025" lon="10.415245973512874"><ele>359.4</ele><time>2026-04-11T13:56:13Z</time></trkpt><trkpt lat="44.50246305889327" lon="10.415211304905343"><ele>359.0</ele><time>2026-04-11T13:56:15Z</time></trkpt><trkpt lat="44.502375879288465" lon="10.415199742917096"><ele>359.0</ele><time>2026-04-11T13:56:17Z</time></trkpt><trkpt lat="44.50229254470886" lon="10.415198993697741"><ele>359.0</ele><time>2026-04-11T13:56:19Z</time></trkpt><trkpt lat="44.50221270155972" lon="10.415202823633047"><ele>359.0</ele><time>2026-04-11T13:56:21Z</time></trkpt><trkpt lat="44.5021401043952" lon="10.41521438769503"><ele>359.0</ele><time>2026-04-11T13:56:23Z</time></trkpt><trkpt lat="44.50206702360049" lon="10.415228376767635"><ele>359.0</ele><time>2026-04-11T13:56:25Z</time></trkpt><trkpt lat="44.5019959716508" lon="10.41524197746246"><ele>359.0</ele><time>2026-04-11T13:56:27Z</time></trkpt><trkpt lat="44.501927444328516" lon="10.415249883068466"><ele>358.79999999999995</ele><time>2026-04-11T13:56:29Z</time></trkpt><trkpt lat="44.50183921658743" lon="10.415256686317537"><ele>358.59999999999997</ele><time>2026-04-11T13:56:31Z</time></trkpt><trkpt lat="44.50176439657484" lon="10.415243673205437"><ele>358.4</ele><time>2026-04-11T13:56:33Z</time></trkpt><trkpt lat="44.5017007117925" lon="10.41512898337939"><ele>358.2</ele><time>2026-04-11T13:56:36.001Z</time></trkpt><trkpt lat="44.50163909188166" lon="10.414989518687223"><ele>358.0</ele><time>2026-04-11T13:56:38.001Z</time></trkpt><trkpt lat="44.501584634701096" lon="10.414837491101178"><ele>358.0</ele><time>2026-04-11T13:56:40.001Z</time></trkpt><trkpt lat="44.5015226056571" lon="10.414684030997666"><ele>358.0</ele><time>2026-04-11T13:56:42.001Z</time></trkpt><trkpt lat="44.50144956739961" lon="10.414644384781795"><ele>358.0</ele><time>2026-04-11T13:56:43.001Z</time></trkpt><trkpt lat="44.5013837778961" lon="10.414592744256657"><ele>358.0</ele><time>2026-04-11T13:56:44.001Z</time></trkpt><trkpt lat="44.50132977353713" lon="10.414517996817715"><ele>358.0</ele><time>2026-04-11T13:56:45.001Z</time></trkpt><trkpt lat="44.501270243283436" lon="10.414447606457072"><ele>358.0</ele><time>2026-04-11T13:56:46.001Z</time></trkpt><trkpt lat="44.50121313592033" lon="10.414380595408424"><ele>357.3333333333333</ele><time>2026-04-11T13:56:47.001Z</time></trkpt><trkpt lat="44.50115213328367" lon="10.414307705821038"><ele>356.66666666666663</ele><time>2026-04-11T13:56:48.001Z</time></trkpt><trkpt lat="44.50108200314373" lon="10.414253805268597"><ele>356.0</ele><time>2026-04-11T13:56:49.001Z</time></trkpt><trkpt lat="44.50100336838735" lon="10.414236805236234"><ele>355.3333333333333</ele><time>2026-04-11T13:56:50.001Z</time></trkpt><trkpt lat="44.500893526086685" lon="10.41420945689831"><ele>354.6666666666667</ele><time>2026-04-11T13:56:52.001Z</time></trkpt><trkpt lat="44.50081896385095" lon="10.414187260291245"><ele>354.0</ele><time>2026-04-11T13:56:54.001Z</time></trkpt><trkpt lat="44.500758819121025" lon="10.414135968638783"><ele>354.0</ele><time>2026-04-11T13:56:57.001Z</time></trkpt><trkpt lat="44.5006864510955" lon="10.414063460133924"><ele>354.0</ele><time>2026-04-11T13:56:59.001Z</time></trkpt><trkpt lat="44.500645804987506" lon="10.413994782009791"><ele>354.0</ele><time>2026-04-11T13:57:00.001Z</time></trkpt><trkpt lat="44.50060801155986" lon="10.41391692575299"><ele>354.0</ele><time>2026-04-11T13:57:01.001Z</time></trkpt><trkpt lat="44.50054817521012" lon="10.413874183632657"><ele>354.0</ele><time>2026-04-11T13:57:02.001Z</time></trkpt><trkpt lat="44.50048437832367" lon="10.413863671037312"><ele>354.0</ele><time>2026-04-11T13:57:03.001Z</time></trkpt><trkpt lat="44.50041953175664" lon="10.4138676381202"><ele>354.0</ele><time>2026-04-11T13:57:04.001Z</time></trkpt><trkpt lat="44.50034972997887" lon="10.413919551417104"><ele>354.3333333333333</ele><time>2026-04-11T13:57:05.001Z</time></trkpt><trkpt lat="44.50025114040974" lon="10.414054228310036"><ele>354.6666666666667</ele><time>2026-04-11T13:57:07.001Z</time></trkpt><trkpt lat="44.50020575663271" lon="10.41413025324585"><ele>355.0</ele><time>2026-04-11T13:57:08.001Z</time></trkpt><trkpt lat="44.500155653277936" lon="10.41420943847408"><ele>355.33333333333337</ele><time>2026-04-11T13:57:09.001Z</time></trkpt><trkpt lat="44.500106924336215" lon="10.41427580345269"><ele>355.6666666666667</ele><time>2026-04-11T13:57:10.001Z</time></trkpt><trkpt lat="44.500056000888634" lon="10.414331173143452"><ele>356.0</ele><time>2026-04-11T13:57:11.001Z</time></trkpt><trkpt lat="44.499995781498086" lon="10.414376913508061"><ele>356.0</ele><time>2026-04-11T13:57:12.001Z</time></trkpt><trkpt lat="44.49994081224406" lon="10.414425012017713"><ele>356.0</ele><time>2026-04-11T13:57:13.001Z</time></trkpt><trkpt lat="44.49987230586067" lon="10.414444991622789"><ele>356.0</ele><time>2026-04-11T13:57:14.001Z</time></trkpt><trkpt lat="44.49979520859097" lon="10.41442689040163"><ele>356.0</ele><time>2026-04-11T13:57:15.001Z</time></trkpt><trkpt lat="44.49971856189014" lon="10.414421416186466"><ele>356.0</ele><time>2026-04-11T13:57:16.001Z</time></trkpt><trkpt lat="44.49963213347762" lon="10.414402390730416"><ele>356.0</ele><time>2026-04-11T13:57:17.001Z</time></trkpt><trkpt lat="44.49954152880468" lon="10.414375280297513"><ele>356.20000000000005</ele><time>2026-04-11T13:57:18.001Z</time></trkpt><trkpt lat="44.49945064918457" lon="10.414350565201323"><ele>356.40000000000003</ele><time>2026-04-11T13:57:19.001Z</time></trkpt><trkpt lat="44.49935944848676" lon="10.414334673350217"><ele>356.6</ele><time>2026-04-11T13:57:20.001Z</time></trkpt><trkpt lat="44.49926498504328" lon="10.414332488212226"><ele>356.8</ele><time>2026-04-11T13:57:21.001Z</time></trkpt><trkpt lat="44.499163392923634" lon="10.41433993022266"><ele>357.0</ele><time>2026-04-11T13:57:22.001Z</time></trkpt><trkpt lat="44.499054429987815" lon="10.414363776057579"><ele>357.0</ele><time>2026-04-11T13:57:23.001Z</time></trkpt><trkpt lat="44.498955839365" lon="10.414414594495877"><ele>357.0</ele><time>2026-04-11T13:57:24.001Z</time></trkpt><trkpt lat="44.49886218825106" lon="10.414495151274677"><ele>357.0</ele><time>2026-04-11T13:57:25.001Z</time></trkpt><trkpt lat="44.498782381780515" lon="10.414635567878662"><ele>357.0</ele><time>2026-04-11T13:57:26.001Z</time></trkpt><trkpt lat="44.498730994975155" lon="10.414804001408577"><ele>358.0</ele><time>2026-04-11T13:57:27.001Z</time></trkpt><trkpt lat="44.49867273895542" lon="10.414986635465107"><ele>359.0</ele><time>2026-04-11T13:57:28.001Z</time></trkpt><trkpt lat="44.49859925732901" lon="10.41516915853651"><ele>360.0</ele><time>2026-04-11T13:57:29.001Z</time></trkpt><trkpt lat="44.498534054442196" lon="10.41535132390415"><ele>361.0</ele><time>2026-04-11T13:57:30.001Z</time></trkpt><trkpt lat="44.49844935000238" lon="10.415524095710492"><ele>361.0</ele><time>2026-04-11T13:57:31.001Z</time></trkpt><trkpt lat="44.49834339756263" lon="10.415679433668346"><ele>361.0</ele><time>2026-04-11T13:57:32.001Z</time></trkpt><trkpt lat="44.498234093644385" lon="10.415836974263536"><ele>361.0</ele><time>2026-04-11T13:57:33.001Z</time></trkpt><trkpt lat="44.49813091561558" lon="10.415997478786736"><ele>361.0</ele><time>2026-04-11T13:57:34.001Z</time></trkpt><trkpt lat="44.4980304603321" lon="10.41615922693107"><ele>361.0</ele><time>2026-04-11T13:57:35.001Z</time></trkpt><trkpt lat="44.49794169451907" lon="10.416305497369546"><ele>361.0</ele><time>2026-04-11T13:57:36.001Z</time></trkpt><trkpt lat="44.49786056086929" lon="10.416440723226659"><ele>361.0</ele><time>2026-04-11T13:57:37Z</time></trkpt><trkpt lat="44.49778575632699" lon="10.416565787689146"><ele>361.4</ele><time>2026-04-11T13:57:38Z</time></trkpt><trkpt lat="44.4977148431389" lon="10.416684346272673"><ele>361.8</ele><time>2026-04-11T13:57:39Z</time></trkpt><trkpt lat="44.49765020009233" lon="10.416795042266736"><ele>362.2</ele><time>2026-04-11T13:57:40Z</time></trkpt><trkpt lat="44.49760945052968" lon="10.416920836426705"><ele>362.59999999999997</ele><time>2026-04-11T13:57:41Z</time></trkpt><trkpt lat="44.4975738531017" lon="10.41703154270104"><ele>363.0</ele><time>2026-04-11T13:57:42Z</time></trkpt><trkpt lat="44.497528924336194" lon="10.417135557839885"><ele>362.5</ele><time>2026-04-11T13:57:43Z</time></trkpt><trkpt lat="44.49749857973123" lon="10.41724316250545"><ele>362.0</ele><time>2026-04-11T13:57:44Z</time></trkpt><trkpt lat="44.49746900979061" lon="10.417341449073112"><ele>361.5</ele><time>2026-04-11T13:57:45Z</time></trkpt><trkpt lat="44.497398527037234" lon="10.417414829596437"><ele>361.0</ele><time>2026-04-11T13:57:48Z</time></trkpt><trkpt lat="44.49734367272062" lon="10.417472866048172"><ele>360.5</ele><time>2026-04-11T13:57:49Z</time></trkpt><trkpt lat="44.497278916653954" lon="10.417555074143353"><ele>360.0</ele><time>2026-04-11T13:57:50Z</time></trkpt><trkpt lat="44.49722186722362" lon="10.417677844265965"><ele>360.0</ele><time>2026-04-11T13:57:51Z</time></trkpt><trkpt lat="44.49715765437935" lon="10.417825565000237"><ele>360.0</ele><time>2026-04-11T13:57:52Z</time></trkpt><trkpt lat="44.497089396113616" lon="10.417971114212543"><ele>360.0</ele><time>2026-04-11T13:57:53Z</time></trkpt><trkpt lat="44.4970056851289" lon="10.418110743353838"><ele>360.0</ele><time>2026-04-11T13:57:54Z</time></trkpt><trkpt lat="44.49692064533202" lon="10.418246701149624"><ele>361.75</ele><time>2026-04-11T13:57:55Z</time></trkpt><trkpt lat="44.49685779279102" lon="10.418393802790197"><ele>363.5</ele><time>2026-04-11T13:57:56Z</time></trkpt><trkpt lat="44.4968358777178" lon="10.418574039013277"><ele>365.25</ele><time>2026-04-11T13:57:57Z</time></trkpt><trkpt lat="44.496786534990406" lon="10.418722610989555"><ele>367.0</ele><time>2026-04-11T13:57:58Z</time></trkpt><trkpt lat="44.496752058196826" lon="10.418868849929304"><ele>367.0</ele><time>2026-04-11T13:57:59Z</time></trkpt><trkpt lat="44.496706009840416" lon="10.419000635391871"><ele>367.0</ele><time>2026-04-11T13:58:00Z</time></trkpt><trkpt lat="44.49665144343473" lon="10.419130746354018"><ele>367.0</ele><time>2026-04-11T13:58:01Z</time></trkpt><trkpt lat="44.49659390887757" lon="10.419267128190294"><ele>367.0</ele><time>2026-04-11T13:58:02Z</time></trkpt><trkpt lat="44.49654557943336" lon="10.419409340734465"><ele>367.0</ele><time>2026-04-11T13:58:03Z</time></trkpt><trkpt lat="44.496515751229765" lon="10.419560095324753"><ele>366.8</ele><time>2026-04-11T13:58:04Z</time></trkpt><trkpt lat="44.496500899176425" lon="10.419718304645311"><ele>366.6</ele><time>2026-04-11T13:58:05Z</time></trkpt><trkpt lat="44.496479299913844" lon="10.419864379007823"><ele>366.40000000000003</ele><time>2026-04-11T13:58:06Z</time></trkpt><trkpt lat="44.496445613448834" lon="10.419994387469917"><ele>366.20000000000005</ele><time>2026-04-11T13:58:07Z</time></trkpt><trkpt lat="44.496392977794024" lon="10.420125984604514"><ele>366.0</ele><time>2026-04-11T13:58:08Z</time></trkpt><trkpt lat="44.496329775970516" lon="10.420258435955883"><ele>366.0</ele><time>2026-04-11T13:58:09Z</time></trkpt><trkpt lat="44.49626700793496" lon="10.420390911178076"><ele>366.0</ele><time>2026-04-11T13:58:10Z</time></trkpt><trkpt lat="44.4962291733905" lon="10.420525200222897"><ele>366.0</ele><time>2026-04-11T13:58:11Z</time></trkpt><trkpt lat="44.49616334053232" lon="10.42061666293838"><ele>366.0</ele><time>2026-04-11T13:58:12.001Z</time></trkpt><trkpt lat="44.49609756765827" lon="10.420688043835037"><ele>366.0</ele><time>2026-04-11T13:58:13.001Z</time></trkpt><trkpt lat="44.49602658199583" lon="10.420765901104387"><ele>366.0</ele><time>2026-04-11T13:58:14.001Z</time></trkpt><trkpt lat="44.49593653478268" lon="10.420820174428483"><ele>366.0</ele><time>2026-04-11T13:58:15.001Z</time></trkpt><trkpt lat="44.495843487557984" lon="10.420882247589416"><ele>366.0</ele><time>2026-04-11T13:58:16.001Z</time></trkpt><trkpt lat="44.49574577011072" lon="10.42092928189171"><ele>366.0</ele><time>2026-04-11T13:58:17.001Z</time></trkpt><trkpt lat="44.49564371576911" lon="10.420972758822906"><ele>366.0</ele><time>2026-04-11T13:58:18.001Z</time></trkpt><trkpt lat="44.49553743441246" lon="10.42101181838396"><ele>366.0</ele><time>2026-04-11T13:58:19.001Z</time></trkpt><trkpt lat="44.49542738716652" lon="10.421036324958504"><ele>366.0</ele><time>2026-04-11T13:58:20.001Z</time></trkpt><trkpt lat="44.495320276891974" lon="10.421053161416342"><ele>366.0</ele><time>2026-04-11T13:58:21.001Z</time></trkpt><trkpt lat="44.495208491492896" lon="10.421060984167974"><ele>366.0</ele><time>2026-04-11T13:58:22.001Z</time></trkpt><trkpt lat="44.4950926088441" lon="10.421065417124616"><ele>366.0</ele><time>2026-04-11T13:58:23.001Z</time></trkpt><trkpt lat="44.49496245306487" lon="10.421032566258546"><ele>367.0</ele><time>2026-04-11T13:58:24.001Z</time></trkpt><trkpt lat="44.4948409499724" lon="10.421036272319295"><ele>368.0</ele><time>2026-04-11T13:58:25.001Z</time></trkpt><trkpt lat="44.49471809683083" lon="10.421041548600988"><ele>369.0</ele><time>2026-04-11T13:58:26.001Z</time></trkpt><trkpt lat="44.49458453596555" lon="10.421013975251991"><ele>370.0</ele><time>2026-04-11T13:58:27.001Z</time></trkpt><trkpt lat="44.4944558491295" lon="10.421019111030953"><ele>370.5</ele><time>2026-04-11T13:58:28.001Z</time></trkpt><trkpt lat="44.49433219919142" lon="10.421024273670016"><ele>371.0</ele><time>2026-04-11T13:58:29.001Z</time></trkpt><trkpt lat="44.494210944633686" lon="10.421018856736522"><ele>371.5</ele><time>2026-04-11T13:58:30.001Z</time></trkpt><trkpt lat="44.49409974566055" lon="10.421019216028556"><ele>372.0</ele><time>2026-04-11T13:58:31.001Z</time></trkpt><trkpt lat="44.493986479825686" lon="10.421058655447514"><ele>372.0</ele><time>2026-04-11T13:58:32.001Z</time></trkpt><trkpt lat="44.493870849406775" lon="10.421102965351416"><ele>372.0</ele><time>2026-04-11T13:58:33.001Z</time></trkpt><trkpt lat="44.49375576922653" lon="10.421122921826804"><ele>372.0</ele><time>2026-04-11T13:58:34.001Z</time></trkpt><trkpt lat="44.49363766652114" lon="10.421142335498027"><ele>372.0</ele><time>2026-04-11T13:58:35.001Z</time></trkpt><trkpt lat="44.49352373184457" lon="10.42114407321776"><ele>372.0</ele><time>2026-04-11T13:58:36.001Z</time></trkpt><trkpt lat="44.49342813245649" lon="10.421181744825926"><ele>372.0</ele><time>2026-04-11T13:58:37.001Z</time></trkpt><trkpt lat="44.49335334399072" lon="10.421296507445923"><ele>372.0</ele><time>2026-04-11T13:58:38.001Z</time></trkpt><trkpt lat="44.49328610926391" lon="10.421313729889862"><ele>372.0</ele><time>2026-04-11T13:58:39.001Z</time></trkpt><trkpt lat="44.49321866909146" lon="10.42135071900638"><ele>372.0</ele><time>2026-04-11T13:58:40.001Z</time></trkpt><trkpt lat="44.49313716843213" lon="10.421319284168842"><ele>372.0</ele><time>2026-04-11T13:58:41.001Z</time></trkpt><trkpt lat="44.493115883160044" lon="10.421181850076911"><ele>372.0</ele><time>2026-04-11T13:58:42.001Z</time></trkpt><trkpt lat="44.49302315147374" lon="10.421120532401314"><ele>372.0</ele><time>2026-04-11T13:58:44.001Z</time></trkpt><trkpt lat="44.49291532325407" lon="10.421050834692393"><ele>372.0</ele><time>2026-04-11T13:58:46.001Z</time></trkpt><trkpt lat="44.49282801026294" lon="10.421030666236355"><ele>372.0</ele><time>2026-04-11T13:58:47.001Z</time></trkpt><trkpt lat="44.492719940751485" lon="10.420992193071337"><ele>372.0</ele><time>2026-04-11T13:58:48.001Z</time></trkpt><trkpt lat="44.4925975812222" lon="10.420961006681411"><ele>372.0</ele><time>2026-04-11T13:58:49.001Z</time></trkpt><trkpt lat="44.492471211692816" lon="10.420917851831597"><ele>372.0</ele><time>2026-04-11T13:58:50.001Z</time></trkpt><trkpt lat="44.49233487857534" lon="10.420868277379856"><ele>372.0</ele><time>2026-04-11T13:58:51.001Z</time></trkpt><trkpt lat="44.49220789028653" lon="10.420826341034404"><ele>372.0</ele><time>2026-04-11T13:58:52.001Z</time></trkpt><trkpt lat="44.492097157485915" lon="10.42080235275498"><ele>373.0</ele><time>2026-04-11T13:58:53.001Z</time></trkpt><trkpt lat="44.492001443971326" lon="10.420741961941374"><ele>374.0</ele><time>2026-04-11T13:58:54.001Z</time></trkpt><trkpt lat="44.49192850710636" lon="10.420654137578131"><ele>375.0</ele><time>2026-04-11T13:58:55.001Z</time></trkpt><trkpt lat="44.49183535996133" lon="10.420595876957861"><ele>376.0</ele><time>2026-04-11T13:58:56.001Z</time></trkpt><trkpt lat="44.49178160393112" lon="10.420515198755504"><ele>377.0</ele><time>2026-04-11T13:58:57.001Z</time></trkpt><trkpt lat="44.491716207062716" lon="10.420380960746579"><ele>377.0</ele><time>2026-04-11T13:58:59.001Z</time></trkpt><trkpt lat="44.491659900661794" lon="10.42028610472081"><ele>377.0</ele><time>2026-04-11T13:59:01.001Z</time></trkpt><trkpt lat="44.49160492135815" lon="10.420196258198853"><ele>377.0</ele><time>2026-04-11T13:59:04.001Z</time></trkpt><trkpt lat="44.49154883650204" lon="10.420104604855045"><ele>377.0</ele><time>2026-04-11T13:59:06.001Z</time></trkpt><trkpt lat="44.491501211114965" lon="10.42002677594694"><ele>377.0</ele><time>2026-04-11T13:59:07.001Z</time></trkpt><trkpt lat="44.491381601344045" lon="10.420018182845835"><ele>377.0</ele><time>2026-04-11T13:59:08.001Z</time></trkpt><trkpt lat="44.491310931492976" lon="10.41995321688024"><ele>377.0</ele><time>2026-04-11T13:59:09.001Z</time></trkpt><trkpt lat="44.49125886935718" lon="10.419875994893067"><ele>377.0</ele><time>2026-04-11T13:59:10.001Z</time></trkpt><trkpt lat="44.49120969973177" lon="10.41979178542949"><ele>377.0</ele><time>2026-04-11T13:59:11.001Z</time></trkpt><trkpt lat="44.49115975125623" lon="10.419688600252513"><ele>377.0</ele><time>2026-04-11T13:59:12.001Z</time></trkpt><trkpt lat="44.49112229523242" lon="10.419600444041897"><ele>377.0</ele><time>2026-04-11T13:59:13.001Z</time></trkpt><trkpt lat="44.491084282638425" lon="10.419498895455384"><ele>377.0</ele><time>2026-04-11T13:59:14.001Z</time></trkpt><trkpt lat="44.491046257570254" lon="10.419384825350729"><ele>377.0</ele><time>2026-04-11T13:59:15.001Z</time></trkpt><trkpt lat="44.491014444256216" lon="10.419285469467564"><ele>377.0</ele><time>2026-04-11T13:59:16.001Z</time></trkpt><trkpt lat="44.49097508040654" lon="10.419164035169898"><ele>377.0</ele><time>2026-04-11T13:59:18.001Z</time></trkpt><trkpt lat="44.490917114796495" lon="10.419068352012227"><ele>377.0</ele><time>2026-04-11T13:59:20.001Z</time></trkpt><trkpt lat="44.49087058075788" lon="10.418991415287234"><ele>377.0</ele><time>2026-04-11T13:59:22.002Z</time></trkpt><trkpt lat="44.49083602403732" lon="10.41891313103078"><ele>377.1666666666667</ele><time>2026-04-11T13:59:23.002Z</time></trkpt><trkpt lat="44.490832054837064" lon="10.41875129987196"><ele>377.33333333333337</ele><time>2026-04-11T13:59:25.002Z</time></trkpt><trkpt lat="44.49083677438413" lon="10.418649807256644"><ele>377.5</ele><time>2026-04-11T13:59:26.002Z</time></trkpt><trkpt lat="44.490812309962784" lon="10.418544383248562"><ele>377.6666666666667</ele><time>2026-04-11T13:59:27.002Z</time></trkpt><trkpt lat="44.49077578836277" lon="10.418443337315665"><ele>377.8333333333333</ele><time>2026-04-11T13:59:28.002Z</time></trkpt><trkpt lat="44.49074609053298" lon="10.418339322731686"><ele>378.0</ele><time>2026-04-11T13:59:29.002Z</time></trkpt><trkpt lat="44.490725280938754" lon="10.418232397520132"><ele>378.0</ele><time>2026-04-11T13:59:30.002Z</time></trkpt><trkpt lat="44.49070308588196" lon="10.418123320896058"><ele>378.0</ele><time>2026-04-11T13:59:31.002Z</time></trkpt><trkpt lat="44.49068470518848" lon="10.41801974672503"><ele>378.0</ele><time>2026-04-11T13:59:32.002Z</time></trkpt><trkpt lat="44.4906623488313" lon="10.417917612645336"><ele>378.0</ele><time>2026-04-11T13:59:33.002Z</time></trkpt><trkpt lat="44.490630872887806" lon="10.417820999101005"><ele>378.0</ele><time>2026-04-11T13:59:34.002Z</time></trkpt><trkpt lat="44.49059445896345" lon="10.41772051465892"><ele>378.0</ele><time>2026-04-11T13:59:35.002Z</time></trkpt><trkpt lat="44.49056550915921" lon="10.417630390000397"><ele>378.1666666666667</ele><time>2026-04-11T13:59:36.002Z</time></trkpt><trkpt lat="44.4905332346313" lon="10.417550637443224"><ele>378.3333333333333</ele><time>2026-04-11T13:59:37.002Z</time></trkpt><trkpt lat="44.49049724492922" lon="10.417471220347203"><ele>378.5</ele><time>2026-04-11T13:59:38.002Z</time></trkpt><trkpt lat="44.490468741207714" lon="10.417390991320978"><ele>378.66666666666663</ele><time>2026-04-11T13:59:39.002Z</time></trkpt><trkpt lat="44.4904378508392" lon="10.417311222506124"><ele>378.8333333333333</ele><time>2026-04-11T13:59:40.002Z</time></trkpt><trkpt lat="44.490352309180594" lon="10.417178794705462"><ele>379.0</ele><time>2026-04-11T13:59:42.002Z</time></trkpt><trkpt lat="44.49030086287291" lon="10.417106431118452"><ele>380.0</ele><time>2026-04-11T13:59:43.001Z</time></trkpt><trkpt lat="44.49024495868146" lon="10.41703191858214"><ele>381.0</ele><time>2026-04-11T13:59:44.001Z</time></trkpt><trkpt lat="44.49020522380085" lon="10.41695997127547"><ele>382.0</ele><time>2026-04-11T13:59:45.001Z</time></trkpt><trkpt lat="44.490140822047245" lon="10.416832436468164"><ele>383.0</ele><time>2026-04-11T13:59:47.001Z</time></trkpt><trkpt lat="44.49010703655359" lon="10.416743203000964"><ele>384.00000000000006</ele><time>2026-04-11T13:59:50.001Z</time></trkpt><trkpt lat="44.490047747648205" lon="10.41667190743263"><ele>385.0</ele><time>2026-04-11T13:59:54.001Z</time></trkpt><trkpt lat="44.490006053528674" lon="10.41653892252396"><ele>385.0</ele><time>2026-04-11T13:59:56.001Z</time></trkpt><trkpt lat="44.48996529287713" lon="10.416471117973426"><ele>385.0</ele><time>2026-04-11T13:59:57.001Z</time></trkpt><trkpt lat="44.48986912197229" lon="10.416362991344315"><ele>385.0</ele><time>2026-04-11T13:59:59.001Z</time></trkpt><trkpt lat="44.48980715311367" lon="10.416270285988084"><ele>385.0</ele><time>2026-04-11T14:00:00.001Z</time></trkpt><trkpt lat="44.48973448151527" lon="10.416134226929964"><ele>385.0</ele><time>2026-04-11T14:00:01.001Z</time></trkpt><trkpt lat="44.489663536606294" lon="10.416000367488794"><ele>385.1666666666667</ele><time>2026-04-11T14:00:02.001Z</time></trkpt><trkpt lat="44.48960999246689" lon="10.415887952889268"><ele>385.33333333333337</ele><time>2026-04-11T14:00:03.001Z</time></trkpt><trkpt lat="44.48957199563113" lon="10.415794197762548"><ele>385.5</ele><time>2026-04-11T14:00:04.001Z</time></trkpt><trkpt lat="44.489538282599575" lon="10.415708304039551"><ele>385.66666666666663</ele><time>2026-04-11T14:00:05.001Z</time></trkpt><trkpt lat="44.489465153072906" lon="10.415615722933278"><ele>385.8333333333333</ele><time>2026-04-11T14:00:07.001Z</time></trkpt><trkpt lat="44.48939520808996" lon="10.41560616297492"><ele>386.0</ele><time>2026-04-11T14:00:09.001Z</time></trkpt><trkpt lat="44.48930004786762" lon="10.415567705168938"><ele>391.0</ele><time>2026-04-11T14:00:11.001Z</time></trkpt><trkpt lat="44.48922730293202" lon="10.415452746719692"><ele>386.0</ele><time>2026-04-11T14:00:13.001Z</time></trkpt><trkpt lat="44.48922160582231" lon="10.415314212451515"><ele>386.0</ele><time>2026-04-11T14:00:14Z</time></trkpt></trkseg><trkseg><trkpt lat="44.485239746597465" lon="10.411939641631426"><ele>397.0</ele><time>2026-04-11T14:01:46.001Z</time></trkpt><trkpt lat="44.48518192417455" lon="10.411853133036603"><ele>397.0</ele><time>2026-04-11T14:01:49.001Z</time></trkpt><trkpt lat="44.48509250586199" lon="10.411730904219752"><ele>397.0</ele><time>2026-04-11T14:01:51.001Z</time></trkpt><trkpt lat="44.48503386174966" lon="10.411685944757894"><ele>397.0</ele><time>2026-04-11T14:01:52.001Z</time></trkpt><trkpt lat="44.484925270257136" lon="10.411612778390555"><ele>397.0</ele><time>2026-04-11T14:01:54.001Z</time></trkpt><trkpt lat="44.48486485452734" lon="10.411578291934132"><ele>397.0</ele><time>2026-04-11T14:01:55.001Z</time></trkpt><trkpt lat="44.48476709197767" lon="10.411562090010094"><ele>397.0</ele><time>2026-04-11T14:01:57.001Z</time></trkpt><trkpt lat="44.48467099997336" lon="10.411607225167756"><ele>397.0</ele><time>2026-04-11T14:01:59.001Z</time></trkpt><trkpt lat="44.484576149773446" lon="10.411697412065624"><ele>397.0</ele><time>2026-04-11T14:02:01.001Z</time></trkpt><trkpt lat="44.48451990253406" lon="10.411755031657652"><ele>397.0</ele><time>2026-04-11T14:02:02.001Z</time></trkpt><trkpt lat="44.48441592922181" lon="10.411833535955921"><ele>397.33333333333337</ele><time>2026-04-11T14:02:04.001Z</time></trkpt><trkpt lat="44.48432689916213" lon="10.411931494762085"><ele>397.6666666666667</ele><time>2026-04-11T14:02:06.001Z</time></trkpt><trkpt lat="44.484291963274124" lon="10.412013614119099"><ele>398.0</ele><time>2026-04-11T14:02:07.001Z</time></trkpt><trkpt lat="44.48425505452045" lon="10.412092253789675"><ele>398.33333333333337</ele><time>2026-04-11T14:02:08.001Z</time></trkpt><trkpt lat="44.48420818823109" lon="10.412159509389435"><ele>398.6666666666667</ele><time>2026-04-11T14:02:09.001Z</time></trkpt><trkpt lat="44.48413369263378" lon="10.412240308911073"><ele>399.0</ele><time>2026-04-11T14:02:11.001Z</time></trkpt><trkpt lat="44.48407533924978" lon="10.412306439485699"><ele>399.0</ele><time>2026-04-11T14:02:13.001Z</time></trkpt><trkpt lat="44.48398118313489" lon="10.412411664683832"><ele>399.0</ele><time>2026-04-11T14:02:15.001Z</time></trkpt><trkpt lat="44.48391272301803" lon="10.412460419389438"><ele>399.0</ele><time>2026-04-11T14:02:16.001Z</time></trkpt><trkpt lat="44.48383928398218" lon="10.412504296147992"><ele>399.0</ele><time>2026-04-11T14:02:17.001Z</time></trkpt><trkpt lat="44.48377659029781" lon="10.412536542726803"><ele>399.0</ele><time>2026-04-11T14:02:18.001Z</time></trkpt><trkpt lat="44.483714052778154" lon="10.412552898076225"><ele>399.0</ele><time>2026-04-11T14:02:19.001Z</time></trkpt><trkpt lat="44.48361989276769" lon="10.412552374589342"><ele>399.0</ele><time>2026-04-11T14:02:21.001Z</time></trkpt><trkpt lat="44.48352486805926" lon="10.412554217544585"><ele>399.0</ele><time>2026-04-11T14:02:23.001Z</time></trkpt><trkpt lat="44.48343163042335" lon="10.412545127336013"><ele>399.0</ele><time>2026-04-11T14:02:25.001Z</time></trkpt><trkpt lat="44.48335124862086" lon="10.412456414498683"><ele>399.0</ele><time>2026-04-11T14:02:27.001Z</time></trkpt><trkpt lat="44.48327557401142" lon="10.412330567276605"><ele>399.0</ele><time>2026-04-11T14:02:29.001Z</time></trkpt><trkpt lat="44.4832010305838" lon="10.412215135718926"><ele>400.0</ele><time>2026-04-11T14:02:31.001Z</time></trkpt><trkpt lat="44.48314731631105" lon="10.412116606124991"><ele>401.0</ele><time>2026-04-11T14:02:33.001Z</time></trkpt><trkpt lat="44.48308030835966" lon="10.412014949561309"><ele>402.0</ele><time>2026-04-11T14:02:35.001Z</time></trkpt><trkpt lat="44.483000389387136" lon="10.411948959448718"><ele>403.0</ele><time>2026-04-11T14:02:37.001Z</time></trkpt><trkpt lat="44.48294250680326" lon="10.411832820786794"><ele>404.0</ele><time>2026-04-11T14:02:40.001Z</time></trkpt><trkpt lat="44.482876311417485" lon="10.411733749920916"><ele>404.7142857142857</ele><time>2026-04-11T14:02:42.001Z</time></trkpt><trkpt lat="44.48281172671287" lon="10.411700827563527"><ele>405.42857142857144</ele><time>2026-04-11T14:02:46.001Z</time></trkpt><trkpt lat="44.48273628966379" lon="10.41166892616287"><ele>406.1428571428571</ele><time>2026-04-11T14:02:49.001Z</time></trkpt><trkpt lat="44.48267256924775" lon="10.411666602956318"><ele>406.8571428571429</ele><time>2026-04-11T14:02:52.001Z</time></trkpt><trkpt lat="44.48259962886493" lon="10.411696901607442"><ele>407.5714285714286</ele><time>2026-04-11T14:02:55.001Z</time></trkpt><trkpt lat="44.48254581286504" lon="10.411754927005115"><ele>408.2857142857143</ele><time>2026-04-11T14:02:58.001Z</time></trkpt><trkpt lat="44.48246985932639" lon="10.411770995562588"><ele>409.0</ele><time>2026-04-11T14:03:00.001Z</time></trkpt><trkpt lat="44.48237191220358" lon="10.411741434007618"><ele>409.00000000000006</ele><time>2026-04-11T14:03:02.001Z</time></trkpt><trkpt lat="44.4823120549335" lon="10.411676683777362"><ele>409.0</ele><time>2026-04-11T14:03:03.001Z</time></trkpt><trkpt lat="44.482259614105004" lon="10.411609043655917"><ele>409.0</ele><time>2026-04-11T14:03:04.001Z</time></trkpt><trkpt lat="44.482172585821004" lon="10.411523118960632"><ele>409.0</ele><time>2026-04-11T14:03:06.001Z</time></trkpt><trkpt lat="44.482089093406096" lon="10.411516997209523"><ele>409.00000000000006</ele><time>2026-04-11T14:03:08.001Z</time></trkpt><trkpt lat="44.482002812695455" lon="10.411570562951152"><ele>409.0</ele><time>2026-04-11T14:03:10.001Z</time></trkpt><trkpt lat="44.481898967058115" lon="10.411636220550951"><ele>410.0</ele><time>2026-04-11T14:03:12.001Z</time></trkpt><trkpt lat="44.481817887895616" lon="10.41170104954901"><ele>411.0</ele><time>2026-04-11T14:03:14.001Z</time></trkpt><trkpt lat="44.48174850238008" lon="10.411803588622217"><ele>412.0</ele><time>2026-04-11T14:03:16.001Z</time></trkpt><trkpt lat="44.48170817513819" lon="10.411952931281455"><ele>413.0</ele><time>2026-04-11T14:03:18.001Z</time></trkpt><trkpt lat="44.48166305470199" lon="10.412099408331207"><ele>414.0</ele><time>2026-04-11T14:03:20.001Z</time></trkpt><trkpt lat="44.48164581123878" lon="10.41225585905022"><ele>414.0</ele><time>2026-04-11T14:03:22.001Z</time></trkpt><trkpt lat="44.481624717688625" lon="10.412416914098761"><ele>414.0</ele><time>2026-04-11T14:03:24.001Z</time></trkpt><trkpt lat="44.48158654971272" lon="10.412501918046488"><ele>414.0</ele><time>2026-04-11T14:03:25.001Z</time></trkpt><trkpt lat="44.48153764065592" lon="10.412563633408684"><ele>414.0</ele><time>2026-04-11T14:03:26.001Z</time></trkpt><trkpt lat="44.481422042060906" lon="10.412635061427316"><ele>414.0</ele><time>2026-04-11T14:03:28.001Z</time></trkpt><trkpt lat="44.481350321828806" lon="10.412702263463094"><ele>414.0</ele><time>2026-04-11T14:03:29.001Z</time></trkpt><trkpt lat="44.48127864883735" lon="10.412748411427593"><ele>414.0</ele><time>2026-04-11T14:03:30.001Z</time></trkpt><trkpt lat="44.48121911324718" lon="10.412790876789122"><ele>414.0</ele><time>2026-04-11T14:03:31.001Z</time></trkpt><trkpt lat="44.48115685534114" lon="10.412823898578146"><ele>414.0</ele><time>2026-04-11T14:03:32.001Z</time></trkpt><trkpt lat="44.48103378858365" lon="10.412892702468339"><ele>414.0</ele><time>2026-04-11T14:03:34.001Z</time></trkpt><trkpt lat="44.48097300007559" lon="10.412936313412686"><ele>414.0</ele><time>2026-04-11T14:03:35.001Z</time></trkpt><trkpt lat="44.48090739891432" lon="10.413092949540138"><ele>415.0</ele><time>2026-04-11T14:03:37.001Z</time></trkpt><trkpt lat="44.48089048717036" lon="10.413178788827523"><ele>416.0</ele><time>2026-04-11T14:03:38.001Z</time></trkpt><trkpt lat="44.48085702230064" lon="10.413347668770918"><ele>417.0</ele><time>2026-04-11T14:03:40.002Z</time></trkpt><trkpt lat="44.48081662759466" lon="10.4134410712909"><ele>418.0</ele><time>2026-04-11T14:03:42.002Z</time></trkpt><trkpt lat="44.48085559603503" lon="10.413370591698824"><ele>419.0</ele><time>2026-04-11T14:03:44.002Z</time></trkpt><trkpt lat="44.48084024069418" lon="10.413456427106397"><ele>420.0</ele><time>2026-04-11T14:05:36.001Z</time></trkpt><trkpt lat="44.48076276324385" lon="10.413474991599337"><ele>420.0</ele><time>2026-04-11T14:05:38.001Z</time></trkpt><trkpt lat="44.48065433573334" lon="10.41344098165488"><ele>420.0</ele><time>2026-04-11T14:05:40.001Z</time></trkpt><trkpt lat="44.4805455031405" lon="10.41341513023351"><ele>420.0</ele><time>2026-04-11T14:05:42.001Z</time></trkpt><trkpt lat="44.4804761501814" lon="10.41342894821414"><ele>420.0</ele><time>2026-04-11T14:05:45.001Z</time></trkpt><trkpt lat="44.48037748681817" lon="10.413458959856463"><ele>420.0</ele><time>2026-04-11T14:05:56.001Z</time></trkpt><trkpt lat="44.48028269728045" lon="10.413491043211682"><ele>421.5</ele><time>2026-04-11T14:05:58.001Z</time></trkpt><trkpt lat="44.48020695749554" lon="10.41347325206831"><ele>423.0</ele><time>2026-04-11T14:06:00.001Z</time></trkpt><trkpt lat="44.480122277466094" lon="10.413516693696417"><ele>424.5</ele><time>2026-04-11T14:06:02Z</time></trkpt><trkpt lat="44.48004542803046" lon="10.413551716514435"><ele>426.0</ele><time>2026-04-11T14:06:04Z</time></trkpt><trkpt lat="44.47994520299313" lon="10.41360136847541"><ele>427.5</ele><time>2026-04-11T14:06:06Z</time></trkpt><trkpt lat="44.47987257124519" lon="10.413630399237805"><ele>429.0</ele><time>2026-04-11T14:06:07Z</time></trkpt><trkpt lat="44.47976349922041" lon="10.413685087817546"><ele>429.0</ele><time>2026-04-11T14:06:09Z</time></trkpt><trkpt lat="44.47968033764324" lon="10.41372006041108"><ele>429.0</ele><time>2026-04-11T14:06:10Z</time></trkpt><trkpt lat="44.479613155184566" lon="10.4137412929258"><ele>429.0</ele><time>2026-04-11T14:06:11Z</time></trkpt><trkpt lat="44.47954967629149" lon="10.413763980115048"><ele>429.0</ele><time>2026-04-11T14:06:12Z</time></trkpt><trkpt lat="44.479484833591556" lon="10.413767414147436"><ele>429.0</ele><time>2026-04-11T14:06:13Z</time></trkpt><trkpt lat="44.479417113201755" lon="10.413777523800459"><ele>429.0</ele><time>2026-04-11T14:06:14Z</time></trkpt><trkpt lat="44.47934064947449" lon="10.413798198994554"><ele>429.0</ele><time>2026-04-11T14:06:15Z</time></trkpt><trkpt lat="44.47927465624283" lon="10.413824570683175"><ele>428.6666666666667</ele><time>2026-04-11T14:06:16Z</time></trkpt><trkpt lat="44.47921097228163" lon="10.413860315262973"><ele>428.33333333333337</ele><time>2026-04-11T14:06:17Z</time></trkpt><trkpt lat="44.47911472420604" lon="10.413873280540196"><ele>428.0</ele><time>2026-04-11T14:06:19Z</time></trkpt><trkpt lat="44.47903557831237" lon="10.413864516275623"><ele>427.6666666666667</ele><time>2026-04-11T14:06:21Z</time></trkpt><trkpt lat="44.478957821767125" lon="10.41382907005816"><ele>427.33333333333337</ele><time>2026-04-11T14:06:23Z</time></trkpt><trkpt lat="44.47887199120499" lon="10.413762700029267"><ele>427.0</ele><time>2026-04-11T14:06:25Z</time></trkpt><trkpt lat="44.478799177182914" lon="10.413713256510167"><ele>428.42857142857144</ele><time>2026-04-11T14:06:27Z</time></trkpt><trkpt lat="44.47873898358289" lon="10.413670023542092"><ele>429.8571428571429</ele><time>2026-04-11T14:06:30Z</time></trkpt><trkpt lat="44.47868955608075" lon="10.413599203421441"><ele>431.2857142857143</ele><time>2026-04-11T14:06:32Z</time></trkpt><trkpt lat="44.478618719846246" lon="10.41355299611997"><ele>432.7142857142857</ele><time>2026-04-11T14:06:34Z</time></trkpt><trkpt lat="44.47858840012534" lon="10.413656640365993"><ele>434.14285714285717</ele><time>2026-04-11T14:06:37Z</time></trkpt><trkpt lat="44.47858877453943" lon="10.413754154573883"><ele>435.57142857142856</ele><time>2026-04-11T14:06:40Z</time></trkpt><trkpt lat="44.47859995930331" lon="10.413842638484176"><ele>437.0</ele><time>2026-04-11T14:06:42Z</time></trkpt><trkpt lat="44.47861578520226" lon="10.413931405024357"><ele>436.99999999999994</ele><time>2026-04-11T14:06:44Z</time></trkpt><trkpt lat="44.47865438005396" lon="10.414010869108775"><ele>437.0</ele><time>2026-04-11T14:06:46.001Z</time></trkpt><trkpt lat="44.478689967931906" lon="10.41413026814761"><ele>437.0</ele><time>2026-04-11T14:06:49.001Z</time></trkpt><trkpt lat="44.478730711323806" lon="10.414246762854308"><ele>437.0</ele><time>2026-04-11T14:06:51.001Z</time></trkpt><trkpt lat="44.47873958365356" lon="10.414342740005786"><ele>436.99999999999994</ele><time>2026-04-11T14:06:53.001Z</time></trkpt><trkpt lat="44.478746550591225" lon="10.414460982030993"><ele>437.0</ele><time>2026-04-11T14:06:55.001Z</time></trkpt><trkpt lat="44.47872891626942" lon="10.414565573227542"><ele>435.99999999999994</ele><time>2026-04-11T14:06:57.001Z</time></trkpt><trkpt lat="44.47873236561951" lon="10.414657885779071"><ele>435.0</ele><time>2026-04-11T14:06:59.001Z</time></trkpt><trkpt lat="44.47869749293433" lon="10.414745328248904"><ele>434.0</ele><time>2026-04-11T14:07:01.001Z</time></trkpt><trkpt lat="44.478647065459946" lon="10.414837743512688"><ele>433.0</ele><time>2026-04-11T14:07:03.001Z</time></trkpt><trkpt lat="44.47858479619889" lon="10.414921745925833"><ele>431.99999999999994</ele><time>2026-04-11T14:07:05.001Z</time></trkpt><trkpt lat="44.47850167452957" lon="10.414948082039325"><ele>431.0</ele><time>2026-04-11T14:07:07.001Z</time></trkpt><trkpt lat="44.47842025426065" lon="10.414856716963738"><ele>431.0</ele><time>2026-04-11T14:07:09.001Z</time></trkpt><trkpt lat="44.47836903607417" lon="10.414734468740694"><ele>431.0</ele><time>2026-04-11T14:07:11.001Z</time></trkpt><trkpt lat="44.47832950936707" lon="10.414605444394725"><ele>431.0</ele><time>2026-04-11T14:07:13.001Z</time></trkpt><trkpt lat="44.478264839627045" lon="10.414475366968569"><ele>431.0</ele><time>2026-04-11T14:07:15.001Z</time></trkpt><trkpt lat="44.47826437546727" lon="10.414386072588481"><ele>431.0</ele><time>2026-04-11T14:07:16.001Z</time></trkpt><trkpt lat="44.47823297644448" lon="10.414233812847446"><ele>432.20000000000005</ele><time>2026-04-11T14:07:18.001Z</time></trkpt><trkpt lat="44.478181400619754" lon="10.414124479282368"><ele>433.40000000000003</ele><time>2026-04-11T14:07:20.001Z</time></trkpt><trkpt lat="44.47809042927262" lon="10.41406604734371"><ele>434.6</ele><time>2026-04-11T14:07:22.001Z</time></trkpt><trkpt lat="44.47802816165974" lon="10.414214702699786"><ele>435.8</ele><time>2026-04-11T14:07:24.001Z</time></trkpt><trkpt lat="44.478010320556514" lon="10.414314364148444"><ele>437.0</ele><time>2026-04-11T14:07:26.001Z</time></trkpt><trkpt lat="44.47797625310035" lon="10.41441876396028"><ele>436.99999999999994</ele><time>2026-04-11T14:07:28.001Z</time></trkpt><trkpt lat="44.47795283153241" lon="10.414510318148059"><ele>437.0</ele><time>2026-04-11T14:07:30.001Z</time></trkpt><trkpt lat="44.477887117490134" lon="10.414523440734213"><ele>437.0</ele><time>2026-04-11T14:07:32.001Z</time></trkpt><trkpt lat="44.47780474927376" lon="10.414608574401285"><ele>437.0</ele><time>2026-04-11T14:07:33.001Z</time></trkpt><trkpt lat="44.477749479639805" lon="10.414652427748303"><ele>436.99999999999994</ele><time>2026-04-11T14:07:35.001Z</time></trkpt><trkpt lat="44.477640693240744" lon="10.414618476524877"><ele>437.0</ele><time>2026-04-11T14:07:37.001Z</time></trkpt><trkpt lat="44.47755814260037" lon="10.414590368265381"><ele>441.49999999999994</ele><time>2026-04-11T14:07:38.001Z</time></trkpt><trkpt lat="44.47747969726475" lon="10.414557307956338"><ele>446.0</ele><time>2026-04-11T14:07:39.001Z</time></trkpt><trkpt lat="44.47739820740464" lon="10.414552507810477"><ele>450.5</ele><time>2026-04-11T14:07:40.001Z</time></trkpt><trkpt lat="44.47731565401111" lon="10.414554270368507"><ele>455.0</ele><time>2026-04-11T14:07:41.001Z</time></trkpt><trkpt lat="44.47723461771065" lon="10.414547256663383"><ele>459.49999999999994</ele><time>2026-04-11T14:07:42.001Z</time></trkpt><trkpt lat="44.47716332135307" lon="10.414551053271959"><ele>464.0</ele><time>2026-04-11T14:07:43.001Z</time></trkpt><trkpt lat="44.47705887108524" lon="10.41458956922217"><ele>464.8333333333333</ele><time>2026-04-11T14:07:45.001Z</time></trkpt><trkpt lat="44.476995105055884" lon="10.41461239128793"><ele>465.66666666666663</ele><time>2026-04-11T14:07:46.001Z</time></trkpt><trkpt lat="44.47687448175419" lon="10.414695405528358"><ele>466.5</ele><time>2026-04-11T14:07:48.001Z</time></trkpt><trkpt lat="44.4768037800292" lon="10.41475461771001"><ele>467.33333333333337</ele><time>2026-04-11T14:07:49.001Z</time></trkpt><trkpt lat="44.476748230428925" lon="10.41482025404292"><ele>468.1666666666667</ele><time>2026-04-11T14:07:50.001Z</time></trkpt><trkpt lat="44.47669394183006" lon="10.414870607574569"><ele>469.0</ele><time>2026-04-11T14:07:51.001Z</time></trkpt><trkpt lat="44.476631562514704" lon="10.41496351435402"><ele>464.33333333333337</ele><time>2026-04-11T14:07:53.001Z</time></trkpt><trkpt lat="44.476556418886055" lon="10.415084727720169"><ele>459.6666666666667</ele><time>2026-04-11T14:07:55.001Z</time></trkpt><trkpt lat="44.47648214686124" lon="10.41510564865979"><ele>455.0</ele><time>2026-04-11T14:07:56.001Z</time></trkpt><trkpt lat="44.476393737045264" lon="10.415102196656383"><ele>450.33333333333337</ele><time>2026-04-11T14:07:57.001Z</time></trkpt><trkpt lat="44.476321718600886" lon="10.415105541178741"><ele>445.6666666666667</ele><time>2026-04-11T14:07:58.001Z</time></trkpt><trkpt lat="44.47625020159894" lon="10.41508448603038"><ele>441.0</ele><time>2026-04-11T14:07:59.001Z</time></trkpt><trkpt lat="44.47621004110817" lon="10.415003624446385"><ele>440.6</ele><time>2026-04-11T14:08:01.001Z</time></trkpt><trkpt lat="44.476204506804635" lon="10.414871076090762"><ele>440.20000000000005</ele><time>2026-04-11T14:08:03.001Z</time></trkpt><trkpt lat="44.476133950715464" lon="10.414735626330952"><ele>439.79999999999995</ele><time>2026-04-11T14:08:05.001Z</time></trkpt><trkpt lat="44.47603840117294" lon="10.414638859077389"><ele>439.4</ele><time>2026-04-11T14:08:07Z</time></trkpt><trkpt lat="44.47597348532625" lon="10.414615458447228"><ele>439.0</ele><time>2026-04-11T14:08:08Z</time></trkpt><trkpt lat="44.47591431669297" lon="10.414658357398855"><ele>439.0</ele><time>2026-04-11T14:08:09Z</time></trkpt><trkpt lat="44.47590897155753" lon="10.41479101123474"><ele>439.0</ele><time>2026-04-11T14:08:11Z</time></trkpt><trkpt lat="44.47585602977579" lon="10.414919328548072"><ele>439.0</ele><time>2026-04-11T14:08:13Z</time></trkpt><trkpt lat="44.47575078241502" lon="10.415030316834278"><ele>439.0</ele><time>2026-04-11T14:08:15Z</time></trkpt><trkpt lat="44.47570031515393" lon="10.415085920062147"><ele>439.0</ele><time>2026-04-11T14:08:16Z</time></trkpt><trkpt lat="44.47563270388147" lon="10.41514344867762"><ele>439.0</ele><time>2026-04-11T14:08:18Z</time></trkpt><trkpt lat="44.475556936232216" lon="10.41522176735527"><ele>439.0</ele><time>2026-04-11T14:08:21Z</time></trkpt><trkpt lat="44.47547667376961" lon="10.415263607127056"><ele>439.0</ele><time>2026-04-11T14:08:23Z</time></trkpt><trkpt lat="44.4754011161695" lon="10.415324689824352"><ele>439.0</ele><time>2026-04-11T14:08:26Z</time></trkpt><trkpt lat="44.47536646678455" lon="10.415428639787715"><ele>439.0</ele><time>2026-04-11T14:08:29.001Z</time></trkpt><trkpt lat="44.47538350625963" lon="10.415603131916916"><ele>437.6</ele><time>2026-04-11T14:08:31.001Z</time></trkpt><trkpt lat="44.47541001544942" lon="10.415725127916009"><ele>436.2</ele><time>2026-04-11T14:08:33.001Z</time></trkpt><trkpt lat="44.475342614626605" lon="10.415746529219264"><ele>434.80000000000007</ele><time>2026-04-11T14:08:35.001Z</time></trkpt><trkpt lat="44.475256146670674" lon="10.415764302510896"><ele>433.40000000000003</ele><time>2026-04-11T14:08:37.001Z</time></trkpt><trkpt lat="44.475158866828615" lon="10.415805169583274"><ele>432.0</ele><time>2026-04-11T14:08:39.001Z</time></trkpt><trkpt lat="44.47501432540544" lon="10.415884572493935"><ele>432.0</ele><time>2026-04-11T14:08:40.001Z</time></trkpt><trkpt lat="44.47495188453314" lon="10.415917555155213"><ele>432.0</ele><time>2026-04-11T14:08:41.001Z</time></trkpt><trkpt lat="44.47488414733088" lon="10.415957457372302"><ele>432.0</ele><time>2026-04-11T14:08:42.001Z</time></trkpt><trkpt lat="44.474816998855346" lon="10.415994579101884"><ele>432.0</ele><time>2026-04-11T14:08:43.001Z</time></trkpt><trkpt lat="44.47470520662279" lon="10.416034841075364"><ele>432.0</ele><time>2026-04-11T14:08:45.001Z</time></trkpt><trkpt lat="44.4746458502238" lon="10.416067307790781"><ele>432.0</ele><time>2026-04-11T14:08:46.001Z</time></trkpt><trkpt lat="44.474562554999736" lon="10.4161119456205"><ele>434.0</ele><time>2026-04-11T14:08:48.001Z</time></trkpt><trkpt lat="44.47446779022713" lon="10.416115746676622"><ele>436.00000000000006</ele><time>2026-04-11T14:08:51.001Z</time></trkpt><trkpt lat="44.474352190634235" lon="10.416105758345687"><ele>438.00000000000006</ele><time>2026-04-11T14:08:53.001Z</time></trkpt><trkpt lat="44.47427730665244" lon="10.416071172358137"><ele>440.0</ele><time>2026-04-11T14:08:54.001Z</time></trkpt><trkpt lat="44.47419764924132" lon="10.415994122701564"><ele>442.0</ele><time>2026-04-11T14:08:55.001Z</time></trkpt><trkpt lat="44.474118627290586" lon="10.415928118408615"><ele>442.0</ele><time>2026-04-11T14:08:56.001Z</time></trkpt><trkpt lat="44.47403318617322" lon="10.41585607004459"><ele>442.00000000000006</ele><time>2026-04-11T14:08:57.001Z</time></trkpt><trkpt lat="44.4739356437395" lon="10.415783724131883"><ele>442.00000000000006</ele><time>2026-04-11T14:08:58.001Z</time></trkpt><trkpt lat="44.473849113429914" lon="10.415717974242284"><ele>442.0</ele><time>2026-04-11T14:08:59.001Z</time></trkpt><trkpt lat="44.473750173735894" lon="10.4155996006704"><ele>442.0</ele><time>2026-04-11T14:09:00Z</time></trkpt><trkpt lat="44.473657159223606" lon="10.415531739955155"><ele>444.8</ele><time>2026-04-11T14:09:01Z</time></trkpt><trkpt lat="44.473583178019545" lon="10.415477089757697"><ele>447.6</ele><time>2026-04-11T14:09:02Z</time></trkpt><trkpt lat="44.473495013528876" lon="10.415394668898294"><ele>450.40000000000003</ele><time>2026-04-11T14:09:03Z</time></trkpt><trkpt lat="44.473394455673386" lon="10.4153160862769"><ele>453.20000000000005</ele><time>2026-04-11T14:09:04Z</time></trkpt><trkpt lat="44.47329654729772" lon="10.415271032935793"><ele>456.0</ele><time>2026-04-11T14:09:05Z</time></trkpt><trkpt lat="44.47320026232121" lon="10.415232534984787"><ele>456.0</ele><time>2026-04-11T14:09:06Z</time></trkpt><trkpt lat="44.473111679713426" lon="10.415206391577144"><ele>456.0</ele><time>2026-04-11T14:09:07Z</time></trkpt><trkpt lat="44.47301452354558" lon="10.415181040634415"><ele>456.0</ele><time>2026-04-11T14:09:08Z</time></trkpt><trkpt lat="44.47285639293229" lon="10.415157707054252"><ele>456.0</ele><time>2026-04-11T14:09:09Z</time></trkpt><trkpt lat="44.47273633373653" lon="10.415163803350405"><ele>455.5</ele><time>2026-04-11T14:09:10Z</time></trkpt><trkpt lat="44.47261790113032" lon="10.415179584384044"><ele>455.0</ele><time>2026-04-11T14:09:11Z</time></trkpt><trkpt lat="44.472502596974984" lon="10.415195365329414"><ele>454.5</ele><time>2026-04-11T14:09:12Z</time></trkpt><trkpt lat="44.47239060087775" lon="10.415208430644856"><ele>454.0</ele><time>2026-04-11T14:09:13Z</time></trkpt><trkpt lat="44.472273782754776" lon="10.415216245311818"><ele>454.0</ele><time>2026-04-11T14:09:14Z</time></trkpt><trkpt lat="44.472157043607716" lon="10.415230992286576"><ele>454.0</ele><time>2026-04-11T14:09:15Z</time></trkpt><trkpt lat="44.47204101092213" lon="10.415247494789607"><ele>454.0</ele><time>2026-04-11T14:09:16Z</time></trkpt><trkpt lat="44.47192237296357" lon="10.415266961732623"><ele>454.0</ele><time>2026-04-11T14:09:17Z</time></trkpt><trkpt lat="44.47180727848484" lon="10.415283317207816"><ele>454.25</ele><time>2026-04-11T14:09:18Z</time></trkpt><trkpt lat="44.47169056183907" lon="10.415280729189725"><ele>454.5</ele><time>2026-04-11T14:09:19Z</time></trkpt><trkpt lat="44.47157557173318" lon="10.415244530851886"><ele>454.75</ele><time>2026-04-11T14:09:20Z</time></trkpt><trkpt lat="44.47146530875006" lon="10.41517320052147"><ele>455.0</ele><time>2026-04-11T14:09:21Z</time></trkpt><trkpt lat="44.471361006393664" lon="10.415092652137641"><ele>453.5</ele><time>2026-04-11T14:09:22Z</time></trkpt><trkpt lat="44.47125103928478" lon="10.41504023617366"><ele>452.0</ele><time>2026-04-11T14:09:23Z</time></trkpt><trkpt lat="44.47113355647648" lon="10.415018905701839"><ele>450.5</ele><time>2026-04-11T14:09:24Z</time></trkpt><trkpt lat="44.47101545773069" lon="10.415014794755502"><ele>449.0</ele><time>2026-04-11T14:09:25Z</time></trkpt><trkpt lat="44.470897048936486" lon="10.415006511270619"><ele>449.0</ele><time>2026-04-11T14:09:26Z</time></trkpt><trkpt lat="44.47077817352043" lon="10.414995162996876"><ele>449.0</ele><time>2026-04-11T14:09:27Z</time></trkpt><trkpt lat="44.470660324811924" lon="10.414983260798653"><ele>449.0</ele><time>2026-04-11T14:09:28Z</time></trkpt><trkpt lat="44.47054355522406" lon="10.41497237754936"><ele>449.0</ele><time>2026-04-11T14:09:29Z</time></trkpt><trkpt lat="44.47042465174759" lon="10.414957556495109"><ele>448.4</ele><time>2026-04-11T14:09:30Z</time></trkpt><trkpt lat="44.47030839229332" lon="10.414954005594067"><ele>447.79999999999995</ele><time>2026-04-11T14:09:31Z</time></trkpt><trkpt lat="44.47019000213496" lon="10.414949447808006"><ele>447.20000000000005</ele><time>2026-04-11T14:09:32Z</time></trkpt><trkpt lat="44.47007880799736" lon="10.41493947814206"><ele>446.6</ele><time>2026-04-11T14:09:33Z</time></trkpt><trkpt lat="44.46999555833515" lon="10.414926501950907"><ele>446.0</ele><time>2026-04-11T14:09:34Z</time></trkpt><trkpt lat="44.46990558503449" lon="10.414911123663323"><ele>445.99999999999994</ele><time>2026-04-11T14:09:36Z</time></trkpt><trkpt lat="44.469834450734076" lon="10.414904381212393"><ele>446.0</ele><time>2026-04-11T14:09:39Z</time></trkpt><trkpt lat="44.469749813612594" lon="10.41490225622377"><ele>446.0</ele><time>2026-04-11T14:09:42Z</time></trkpt><trkpt lat="44.46964070110283" lon="10.414889863520745"><ele>446.0</ele><time>2026-04-11T14:09:44Z</time></trkpt><trkpt lat="44.46956097821902" lon="10.414887721036918"><ele>445.99999999999994</ele><time>2026-04-11T14:09:45Z</time></trkpt><trkpt lat="44.469478052396454" lon="10.414887121397838"><ele>446.0</ele><time>2026-04-11T14:09:46Z</time></trkpt><trkpt lat="44.46938041877142" lon="10.414883999098471"><ele>446.20000000000005</ele><time>2026-04-11T14:09:47Z</time></trkpt><trkpt lat="44.46928315410602" lon="10.414875934771503"><ele>446.40000000000003</ele><time>2026-04-11T14:09:48Z</time></trkpt><trkpt lat="44.46918858812331" lon="10.414865554965951"><ele>446.6</ele><time>2026-04-11T14:09:49Z</time></trkpt><trkpt lat="44.46910494510798" lon="10.414852367934362"><ele>446.8</ele><time>2026-04-11T14:09:50Z</time></trkpt><trkpt lat="44.46903558827206" lon="10.41484267665202"><ele>447.0</ele><time>2026-04-11T14:09:51Z</time></trkpt><trkpt lat="44.46892042407513" lon="10.414819301422432"><ele>447.0</ele><time>2026-04-11T14:09:53Z</time></trkpt><trkpt lat="44.46878654818667" lon="10.414768085747086"><ele>447.00000000000006</ele><time>2026-04-11T14:09:55Z</time></trkpt><trkpt lat="44.468719730067484" lon="10.414728646462082"><ele>447.00000000000006</ele><time>2026-04-11T14:09:56Z</time></trkpt><trkpt lat="44.46861167421521" lon="10.414659299608122"><ele>447.0</ele><time>2026-04-11T14:09:58Z</time></trkpt><trkpt lat="44.46853704031112" lon="10.414647995945641"><ele>447.0</ele><time>2026-04-11T14:10:00Z</time></trkpt><trkpt lat="44.46854272671262" lon="10.414745632665397"><ele>447.0</ele><time>2026-04-11T14:10:11.001Z</time></trkpt><trkpt lat="44.46860046952261" lon="10.414822648486684"><ele>447.00000000000006</ele><time>2026-04-11T14:10:14Z</time></trkpt><trkpt lat="44.468690100687844" lon="10.414899476124585"><ele>447.00000000000006</ele><time>2026-04-11T14:10:16Z</time></trkpt><trkpt lat="44.468765383508256" lon="10.414967234314137"><ele>447.0</ele><time>2026-04-11T14:10:18Z</time></trkpt><trkpt lat="44.46884698556134" lon="10.415052562418422"><ele>447.0</ele><time>2026-04-11T14:11:37.001Z</time></trkpt><trkpt lat="44.468916825304625" lon="10.415148229607823"><ele>447.0</ele><time>2026-04-11T14:11:39.001Z</time></trkpt><trkpt lat="44.46899894214938" lon="10.415243423357595"><ele>447.0</ele><time>2026-04-11T14:11:41.001Z</time></trkpt><trkpt lat="44.469085768845204" lon="10.415366609980735"><ele>447.0</ele><time>2026-04-11T14:11:43.001Z</time></trkpt><trkpt lat="44.46913304336235" lon="10.415430039448989"><ele>447.0</ele><time>2026-04-11T14:11:44.001Z</time></trkpt><trkpt lat="44.46917974468324" lon="10.415492820400782"><ele>447.0</ele><time>2026-04-11T14:11:45.001Z</time></trkpt><trkpt lat="44.46922820709994" lon="10.415557033484633"><ele>447.0</ele><time>2026-04-11T14:11:46.001Z</time></trkpt><trkpt lat="44.469278670946295" lon="10.415616488410599"><ele>448.0</ele><time>2026-04-11T14:11:47.001Z</time></trkpt><trkpt lat="44.46932786953833" lon="10.415674268726459"><ele>449.00000000000006</ele><time>2026-04-11T14:11:48.001Z</time></trkpt><trkpt lat="44.46937590270971" lon="10.415731814541966"><ele>450.00000000000006</ele><time>2026-04-11T14:11:49.001Z</time></trkpt><trkpt lat="44.46947395927657" lon="10.41583963966936"><ele>451.0</ele><time>2026-04-11T14:11:52.001Z</time></trkpt><trkpt lat="44.469567272768316" lon="10.41588479161471"><ele>452.0</ele><time>2026-04-11T14:11:55.001Z</time></trkpt><trkpt lat="44.46968314552955" lon="10.415897946748036"><ele>452.0</ele><time>2026-04-11T14:11:57.001Z</time></trkpt><trkpt lat="44.46975276970487" lon="10.415888197086216"><ele>452.00000000000006</ele><time>2026-04-11T14:11:58.001Z</time></trkpt><trkpt lat="44.469836857874725" lon="10.415887292237048"><ele>452.00000000000006</ele><time>2026-04-11T14:11:59.001Z</time></trkpt><trkpt lat="44.46990526261128" lon="10.415889608910561"><ele>452.0</ele><time>2026-04-11T14:12:00.001Z</time></trkpt><trkpt lat="44.47001159524041" lon="10.41592016235825"><ele>452.0</ele><time>2026-04-11T14:12:02.001Z</time></trkpt><trkpt lat="44.47011193370284" lon="10.416049130373878"><ele>451.99999999999994</ele><time>2026-04-11T14:12:04.001Z</time></trkpt><trkpt lat="44.47016710696957" lon="10.416136740406149"><ele>452.0</ele><time>2026-04-11T14:12:05.001Z</time></trkpt><trkpt lat="44.4701900205716" lon="10.41622744225448"><ele>452.0</ele><time>2026-04-11T14:12:06.001Z</time></trkpt><trkpt lat="44.47022498164749" lon="10.416310291803319"><ele>452.0</ele><time>2026-04-11T14:12:08.001Z</time></trkpt><trkpt lat="44.47029996152241" lon="10.416319413278746"><ele>451.99999999999994</ele><time>2026-04-11T14:12:10.001Z</time></trkpt><trkpt lat="44.47040393233598" lon="10.416275069975582"><ele>452.0</ele><time>2026-04-11T14:12:12.001Z</time></trkpt><trkpt lat="44.470341981418635" lon="10.416316448636021"><ele>451.99999999999994</ele><time>2026-04-11T14:19:59.001Z</time></trkpt><trkpt lat="44.47040937627604" lon="10.416289967692405"><ele>452.0</ele><time>2026-04-11T14:21:10Z</time></trkpt><trkpt lat="44.470476730476356" lon="10.416272288103603"><ele>452.0</ele><time>2026-04-11T14:21:18Z</time></trkpt><trkpt lat="44.47054916010791" lon="10.416233481456727"><ele>452.0</ele><time>2026-04-11T14:21:27.001Z</time></trkpt><trkpt lat="44.47064689787548" lon="10.416228876073596"><ele>451.99999999999994</ele><time>2026-04-11T14:22:31Z</time></trkpt><trkpt lat="44.470770477454884" lon="10.416251887444885"><ele>452.0</ele><time>2026-04-11T14:22:33Z</time></trkpt><trkpt lat="44.47083729033265" lon="10.41626002369327"><ele>451.8333333333333</ele><time>2026-04-11T14:22:34Z</time></trkpt><trkpt lat="44.47091066758988" lon="10.41626742792857"><ele>451.66666666666663</ele><time>2026-04-11T14:22:35Z</time></trkpt><trkpt lat="44.47097929899232" lon="10.416273471503834"><ele>451.5</ele><time>2026-04-11T14:22:36.001Z</time></trkpt><trkpt lat="44.47104233953123" lon="10.416282832960755"><ele>451.33333333333337</ele><time>2026-04-11T14:22:37.001Z</time></trkpt><trkpt lat="44.471111955134624" lon="10.41628921249933"><ele>451.1666666666667</ele><time>2026-04-11T14:22:38.001Z</time></trkpt><trkpt lat="44.47117716841986" lon="10.416303910234546"><ele>451.0</ele><time>2026-04-11T14:22:39.001Z</time></trkpt><trkpt lat="44.471290978707536" lon="10.41634658356379"><ele>454.33333333333337</ele><time>2026-04-11T14:22:41.001Z</time></trkpt><trkpt lat="44.47139421933778" lon="10.416436243695259"><ele>457.6666666666667</ele><time>2026-04-11T14:22:43.001Z</time></trkpt><trkpt lat="44.47144587247743" lon="10.416489777901086"><ele>461.0</ele><time>2026-04-11T14:22:44.001Z</time></trkpt><trkpt lat="44.47149822297522" lon="10.416543085926609"><ele>464.33333333333337</ele><time>2026-04-11T14:22:45.001Z</time></trkpt><trkpt lat="44.4715950894771" lon="10.416652815585383"><ele>467.6666666666667</ele><time>2026-04-11T14:22:46.999Z</time></trkpt><trkpt lat="44.47164744724049" lon="10.416712921449777"><ele>471.0</ele><time>2026-04-11T14:22:47.999Z</time></trkpt><trkpt lat="44.47174170138631" lon="10.416810506206932"><ele>471.0</ele><time>2026-04-11T14:22:49.999Z</time></trkpt><trkpt lat="44.471847599926775" lon="10.416865661063945"><ele>471.0</ele><time>2026-04-11T14:22:51.999Z</time></trkpt><trkpt lat="44.47192608177036" lon="10.416880628248851"><ele>471.0</ele><time>2026-04-11T14:22:52.999Z</time></trkpt><trkpt lat="44.47200579220459" lon="10.416898748781737"><ele>471.0</ele><time>2026-04-11T14:22:53.999Z</time></trkpt><trkpt lat="44.47207230839725" lon="10.416930353714015"><ele>471.0</ele><time>2026-04-11T14:22:54.999Z</time></trkpt><trkpt lat="44.47214214823538" lon="10.416967638979841"><ele>471.0</ele><time>2026-04-11T14:22:55.999Z</time></trkpt><trkpt lat="44.47220109208055" lon="10.417002529528236"><ele>470.4285714285715</ele><time>2026-04-11T14:22:56.999Z</time></trkpt><trkpt lat="44.47226140667592" lon="10.417047862394293"><ele>469.8571428571429</ele><time>2026-04-11T14:22:57.999Z</time></trkpt><trkpt lat="44.472321970752496" lon="10.417104516603615"><ele>469.2857142857143</ele><time>2026-04-11T14:22:58.999Z</time></trkpt><trkpt lat="44.47237394322625" lon="10.417159319032272"><ele>468.7142857142857</ele><time>2026-04-11T14:22:59.999Z</time></trkpt><trkpt lat="44.472421993999866" lon="10.417219897167865"><ele>468.1428571428571</ele><time>2026-04-11T14:23:00.999Z</time></trkpt><trkpt lat="44.47247125768626" lon="10.417282671178254"><ele>467.5714285714285</ele><time>2026-04-11T14:23:01.999Z</time></trkpt><trkpt lat="44.47251495197533" lon="10.417354706302612"><ele>466.99999999999994</ele><time>2026-04-11T14:23:02.999Z</time></trkpt><trkpt lat="44.472556353012735" lon="10.417436550645276"><ele>469.99999999999994</ele><time>2026-04-11T14:23:03.999Z</time></trkpt><trkpt lat="44.47260244678289" lon="10.417518495534999"><ele>473.0</ele><time>2026-04-11T14:23:04.999Z</time></trkpt><trkpt lat="44.472656068748165" lon="10.417598950508275"><ele>476.0</ele><time>2026-04-11T14:23:05.999Z</time></trkpt><trkpt lat="44.47270927261428" lon="10.417684482853177"><ele>479.0</ele><time>2026-04-11T14:23:06.999Z</time></trkpt><trkpt lat="44.47275251101286" lon="10.417760573073533"><ele>481.99999999999994</ele><time>2026-04-11T14:23:07.999Z</time></trkpt><trkpt lat="44.47279669933609" lon="10.417867307163544"><ele>485.0</ele><time>2026-04-11T14:23:09.999Z</time></trkpt><trkpt lat="44.47273205668455" lon="10.417929402650294"><ele>484.99999999999994</ele><time>2026-04-11T14:23:13Z</time></trkpt><trkpt lat="44.47263573745614" lon="10.417963898957"><ele>485.0</ele><time>2026-04-11T14:23:15Z</time></trkpt><trkpt lat="44.47256609561141" lon="10.418050318007783"><ele>485.0</ele><time>2026-04-11T14:23:17Z</time></trkpt><trkpt lat="44.47250674438493" lon="10.418079959615529"><ele>485.0</ele><time>2026-04-11T14:23:19Z</time></trkpt><trkpt lat="44.47243284473923" lon="10.418077028638075"><ele>484.99999999999994</ele><time>2026-04-11T14:23:22Z</time></trkpt><trkpt lat="44.47234545549334" lon="10.418064120961052"><ele>485.0</ele><time>2026-04-11T14:23:25Z</time></trkpt><trkpt lat="44.472261754152065" lon="10.418031001048785"><ele>484.99999999999994</ele><time>2026-04-11T14:23:28Z</time></trkpt><trkpt lat="44.47218653537624" lon="10.417957891019443"><ele>485.0</ele><time>2026-04-11T14:23:31Z</time></trkpt><trkpt lat="44.472110806810875" lon="10.41791800513282"><ele>485.0</ele><time>2026-04-11T14:23:33Z</time></trkpt><trkpt lat="44.47208419227049" lon="10.418011795053703"><ele>485.0</ele><time>2026-04-11T14:23:36Z</time></trkpt><trkpt lat="44.472062603118914" lon="10.418127510624856"><ele>484.99999999999994</ele><time>2026-04-11T14:23:38Z</time></trkpt><trkpt lat="44.47203182328527" lon="10.418248834809173"><ele>485.0</ele><time>2026-04-11T14:23:41Z</time></trkpt><trkpt lat="44.47201955444979" lon="10.41835867954194"><ele>487.49999999999994</ele><time>2026-04-11T14:23:44Z</time></trkpt><trkpt lat="44.472062169195304" lon="10.418491349060337"><ele>490.0</ele><time>2026-04-11T14:23:47Z</time></trkpt><trkpt lat="44.472097257232264" lon="10.418576850652249"><ele>492.5</ele><time>2026-04-11T14:23:49Z</time></trkpt><trkpt lat="44.47211993085174" lon="10.418672583664417"><ele>495.0</ele><time>2026-04-11T14:23:52Z</time></trkpt><trkpt lat="44.47210740923525" lon="10.418796415118257"><ele>497.49999999999994</ele><time>2026-04-11T14:23:54Z</time></trkpt><trkpt lat="44.47201914362094" lon="10.418816633880905"><ele>500.0</ele><time>2026-04-11T14:23:56Z</time></trkpt><trkpt lat="44.47192026096714" lon="10.418851179249081"><ele>508.0</ele><time>2026-04-11T14:23:58Z</time></trkpt><trkpt lat="44.47184564229396" lon="10.418965525843639"><ele>516.0</ele><time>2026-04-11T14:24:00Z</time></trkpt><trkpt lat="44.471749596431046" lon="10.419020648746747"><ele>524.0</ele><time>2026-04-11T14:24:02Z</time></trkpt><trkpt lat="44.47166719159491" lon="10.419089633112"><ele>532.0</ele><time>2026-04-11T14:24:04Z</time></trkpt><trkpt lat="44.471653518332666" lon="10.419185558861694"><ele>540.0</ele><time>2026-04-11T14:24:06Z</time></trkpt><trkpt lat="44.47161162031045" lon="10.419300359291823"><ele>540.0</ele><time>2026-04-11T14:24:08Z</time></trkpt><trkpt lat="44.47157050407603" lon="10.419376687583028"><ele>540.0</ele><time>2026-04-11T14:24:09.001Z</time></trkpt><trkpt lat="44.47151079875675" lon="10.419464680795322"><ele>540.0</ele><time>2026-04-11T14:24:11.001Z</time></trkpt><trkpt lat="44.47142624601904" lon="10.419553884569902"><ele>540.0</ele><time>2026-04-11T14:24:13.001Z</time></trkpt><trkpt lat="44.4713649139234" lon="10.419600345433413"><ele>540.0</ele><time>2026-04-11T14:24:15.001Z</time></trkpt><trkpt lat="44.47130782050999" lon="10.419644110190996"><ele>540.0</ele><time>2026-04-11T14:24:17.001Z</time></trkpt><trkpt lat="44.47122635364545" lon="10.419681462404368"><ele>542.2</ele><time>2026-04-11T14:24:21.001Z</time></trkpt><trkpt lat="44.471159404106864" lon="10.419727779177538"><ele>544.4</ele><time>2026-04-11T14:24:23.001Z</time></trkpt><trkpt lat="44.4710499064438" lon="10.419778992993507"><ele>546.6</ele><time>2026-04-11T14:24:25.001Z</time></trkpt><trkpt lat="44.470941094716885" lon="10.419818206267585"><ele>548.8</ele><time>2026-04-11T14:24:27.001Z</time></trkpt><trkpt lat="44.47086896249705" lon="10.419877871681217"><ele>551.0</ele><time>2026-04-11T14:24:29.001Z</time></trkpt><trkpt lat="44.47077477875425" lon="10.419973863088247"><ele>551.0</ele><time>2026-04-11T14:24:31.001Z</time></trkpt><trkpt lat="44.47068408278464" lon="10.420002218702198"><ele>551.0</ele><time>2026-04-11T14:24:33.001Z</time></trkpt><trkpt lat="44.47059444823073" lon="10.420015235952556"><ele>551.0</ele><time>2026-04-11T14:24:35.001Z</time></trkpt><trkpt lat="44.47049984359374" lon="10.420043361935997"><ele>551.0</ele><time>2026-04-11T14:24:37.001Z</time></trkpt><trkpt lat="44.47037381308225" lon="10.42003273791423"><ele>551.0</ele><time>2026-04-11T14:24:39.001Z</time></trkpt><trkpt lat="44.470253689810704" lon="10.42008093714104"><ele>554.4</ele><time>2026-04-11T14:24:41.001Z</time></trkpt><trkpt lat="44.470175505126214" lon="10.42014526158941"><ele>557.8</ele><time>2026-04-11T14:24:42.001Z</time></trkpt><trkpt lat="44.470084060739865" lon="10.420229149975519"><ele>561.1999999999999</ele><time>2026-04-11T14:24:43.001Z</time></trkpt><trkpt lat="44.47000240967907" lon="10.420297722051274"><ele>564.6</ele><time>2026-04-11T14:24:44.001Z</time></trkpt><trkpt lat="44.46993665955666" lon="10.4203715174389"><ele>568.0</ele><time>2026-04-11T14:24:45.001Z</time></trkpt><trkpt lat="44.46986578597618" lon="10.420447144191522"><ele>565.1999999999999</ele><time>2026-04-11T14:24:46.001Z</time></trkpt><trkpt lat="44.46980129114756" lon="10.420511613187909"><ele>562.4</ele><time>2026-04-11T14:24:47.001Z</time></trkpt><trkpt lat="44.46973660644638" lon="10.420574529038632"><ele>559.5999999999999</ele><time>2026-04-11T14:24:48.001Z</time></trkpt><trkpt lat="44.46965525070038" lon="10.420701015062322"><ele>556.8</ele><time>2026-04-11T14:24:50.001Z</time></trkpt><trkpt lat="44.469590356244304" lon="10.420826320940222"><ele>554.0</ele><time>2026-04-11T14:24:51.999Z</time></trkpt><trkpt lat="44.469538651285895" lon="10.420961677508856"><ele>554.0</ele><time>2026-04-11T14:24:53.999Z</time></trkpt><trkpt lat="44.46950060684967" lon="10.42105914500958"><ele>554.0</ele><time>2026-04-11T14:24:54.999Z</time></trkpt><trkpt lat="44.46945639182036" lon="10.421159944628188"><ele>554.0</ele><time>2026-04-11T14:24:55.999Z</time></trkpt><trkpt lat="44.46941590321835" lon="10.42124301773561"><ele>554.0</ele><time>2026-04-11T14:24:56.999Z</time></trkpt><trkpt lat="44.46935748557382" lon="10.421310905100757"><ele>554.0</ele><time>2026-04-11T14:24:57.999Z</time></trkpt><trkpt lat="44.4692875833475" lon="10.421370698549437"><ele>554.0</ele><time>2026-04-11T14:24:58.999Z</time></trkpt><trkpt lat="44.46922704876477" lon="10.421444663939157"><ele>556.5</ele><time>2026-04-11T14:24:59.999Z</time></trkpt><trkpt lat="44.46918861061623" lon="10.421522533357235"><ele>559.0</ele><time>2026-04-11T14:25:00.999Z</time></trkpt><trkpt lat="44.46914180144347" lon="10.421678483168623"><ele>561.5</ele><time>2026-04-11T14:25:02.999Z</time></trkpt><trkpt lat="44.46908012180756" lon="10.421819134249516"><ele>564.0</ele><time>2026-04-11T14:25:04.999Z</time></trkpt><trkpt lat="44.469037140142625" lon="10.421890701647731"><ele>566.5</ele><time>2026-04-11T14:25:05.999Z</time></trkpt><trkpt lat="44.46899361899028" lon="10.421969908918177"><ele>569.0</ele><time>2026-04-11T14:25:06.999Z</time></trkpt><trkpt lat="44.468929348667345" lon="10.422101976947157"><ele>568.2</ele><time>2026-04-11T14:25:09Z</time></trkpt><trkpt lat="44.46889433015678" lon="10.42220707815387"><ele>567.4</ele><time>2026-04-11T14:25:11Z</time></trkpt><trkpt lat="44.46884851203029" lon="10.422291470354846"><ele>566.6</ele><time>2026-04-11T14:25:13Z</time></trkpt><trkpt lat="44.46873161448691" lon="10.422405771784305"><ele>565.8</ele><time>2026-04-11T14:25:15Z</time></trkpt><trkpt lat="44.46865379619372" lon="10.422476900617259"><ele>565.0</ele><time>2026-04-11T14:25:16Z</time></trkpt><trkpt lat="44.46857886611794" lon="10.422549423522481"><ele>565.0</ele><time>2026-04-11T14:25:17Z</time></trkpt><trkpt lat="44.46849043766556" lon="10.422630275547293"><ele>565.0</ele><time>2026-04-11T14:25:18Z</time></trkpt><trkpt lat="44.46831932899048" lon="10.42279549266479"><ele>565.0</ele><time>2026-04-11T14:25:20Z</time></trkpt><trkpt lat="44.46823508523687" lon="10.422873883626767"><ele>565.0</ele><time>2026-04-11T14:25:21Z</time></trkpt><trkpt lat="44.46815458639438" lon="10.422946122150197"><ele>565.6666666666667</ele><time>2026-04-11T14:25:22Z</time></trkpt><trkpt lat="44.468074278950304" lon="10.423009486199298"><ele>566.3333333333334</ele><time>2026-04-11T14:25:23Z</time></trkpt><trkpt lat="44.4679967627856" lon="10.423084685853947"><ele>567.0</ele><time>2026-04-11T14:25:24Z</time></trkpt><trkpt lat="44.467925550006626" lon="10.423173588011883"><ele>567.6666666666666</ele><time>2026-04-11T14:25:25Z</time></trkpt><trkpt lat="44.46787754868315" lon="10.423254049027026"><ele>568.3333333333333</ele><time>2026-04-11T14:25:26Z</time></trkpt><trkpt lat="44.467838326573556" lon="10.423326105171299"><ele>569.0</ele><time>2026-04-11T14:25:27Z</time></trkpt><trkpt lat="44.467760531431935" lon="10.423448581503632"><ele>569.5</ele><time>2026-04-11T14:25:29Z</time></trkpt><trkpt lat="44.46770892752993" lon="10.423513002470507"><ele>570.0</ele><time>2026-04-11T14:25:30Z</time></trkpt><trkpt lat="44.46765062268379" lon="10.423577766895667"><ele>570.5</ele><time>2026-04-11T14:25:31Z</time></trkpt><trkpt lat="44.467587932365994" lon="10.423644906113308"><ele>571.0</ele><time>2026-04-11T14:25:32Z</time></trkpt><trkpt lat="44.46750835769958" lon="10.423726357631436"><ele>571.5</ele><time>2026-04-11T14:25:33Z</time></trkpt><trkpt lat="44.46742308153122" lon="10.423814672510305"><ele>572.0</ele><time>2026-04-11T14:25:34Z</time></trkpt><trkpt lat="44.46733774534213" lon="10.423899030922684"><ele>572.8333333333333</ele><time>2026-04-11T14:25:35Z</time></trkpt><trkpt lat="44.467259759867076" lon="10.423964735172023"><ele>573.6666666666666</ele><time>2026-04-11T14:25:36Z</time></trkpt><trkpt lat="44.4672014040567" lon="10.42404658536544"><ele>574.5</ele><time>2026-04-11T14:25:37Z</time></trkpt><trkpt lat="44.46713472980218" lon="10.424104787045858"><ele>575.3333333333334</ele><time>2026-04-11T14:25:38Z</time></trkpt><trkpt lat="44.467090729933" lon="10.424209963025707"><ele>576.1666666666667</ele><time>2026-04-11T14:25:39Z</time></trkpt><trkpt lat="44.46702934485949" lon="10.424305671083218"><ele>577.0</ele><time>2026-04-11T14:25:40Z</time></trkpt><trkpt lat="44.46695810664914" lon="10.424393247426082"><ele>577.2</ele><time>2026-04-11T14:25:41Z</time></trkpt><trkpt lat="44.46687332755907" lon="10.424463155809049"><ele>577.4000000000001</ele><time>2026-04-11T14:25:42Z</time></trkpt><trkpt lat="44.466778236457145" lon="10.42448925860697"><ele>577.5999999999999</ele><time>2026-04-11T14:25:43Z</time></trkpt><trkpt lat="44.46669058260816" lon="10.424524856757442"><ele>577.8</ele><time>2026-04-11T14:25:44Z</time></trkpt><trkpt lat="44.466608505745924" lon="10.42458226128255"><ele>578.0</ele><time>2026-04-11T14:25:45Z</time></trkpt><trkpt lat="44.46652307051003" lon="10.424619249249611"><ele>577.5</ele><time>2026-04-11T14:25:46Z</time></trkpt><trkpt lat="44.466440547270565" lon="10.42465831124963"><ele>577.0</ele><time>2026-04-11T14:25:47Z</time></trkpt><trkpt lat="44.46635850965789" lon="10.424696073448724"><ele>576.5</ele><time>2026-04-11T14:25:48Z</time></trkpt><trkpt lat="44.466277507022866" lon="10.42473414631741"><ele>576.0</ele><time>2026-04-11T14:25:49Z</time></trkpt><trkpt lat="44.466197291284374" lon="10.42474604012444"><ele>575.5</ele><time>2026-04-11T14:25:50Z</time></trkpt><trkpt lat="44.46612208813753" lon="10.424778492049645"><ele>575.0</ele><time>2026-04-11T14:25:51.001Z</time></trkpt><trkpt lat="44.46605262082438" lon="10.424813947229223"><ele>576.2</ele><time>2026-04-11T14:25:52.001Z</time></trkpt><trkpt lat="44.465995122463724" lon="10.424876630121048"><ele>577.4</ele><time>2026-04-11T14:25:53.001Z</time></trkpt><trkpt lat="44.4659335533603" lon="10.424912977262194"><ele>578.6</ele><time>2026-04-11T14:25:54.001Z</time></trkpt><trkpt lat="44.465815684964575" lon="10.424948806128729"><ele>579.8</ele><time>2026-04-11T14:25:56.001Z</time></trkpt><trkpt lat="44.465733054691505" lon="10.425045401060686"><ele>581.0</ele><time>2026-04-11T14:25:58.001Z</time></trkpt><trkpt lat="44.46564152600174" lon="10.425009102520331"><ele>581.0</ele><time>2026-04-11T14:26:00.001Z</time></trkpt><trkpt lat="44.465534572066844" lon="10.425058132054863"><ele>581.0</ele><time>2026-04-11T14:26:02.001Z</time></trkpt><trkpt lat="44.465461311669586" lon="10.425174813409313"><ele>581.0</ele><time>2026-04-11T14:26:04.001Z</time></trkpt><trkpt lat="44.46540946725146" lon="10.425227982326808"><ele>581.0</ele><time>2026-04-11T14:26:05.001Z</time></trkpt><trkpt lat="44.46533863365283" lon="10.425244799897676"><ele>581.0</ele><time>2026-04-11T14:26:06.001Z</time></trkpt><trkpt lat="44.465267485743084" lon="10.425266234410978"><ele>581.0</ele><time>2026-04-11T14:26:07.001Z</time></trkpt><trkpt lat="44.4651931611589" lon="10.425280967472796"><ele>581.5</ele><time>2026-04-11T14:26:08.001Z</time></trkpt><trkpt lat="44.46511829548616" lon="10.425297637049793"><ele>582.0</ele><time>2026-04-11T14:26:09.001Z</time></trkpt><trkpt lat="44.46504746735396" lon="10.425341089812864"><ele>582.5</ele><time>2026-04-11T14:26:10.001Z</time></trkpt><trkpt lat="44.46497756177386" lon="10.425378818935524"><ele>583.0</ele><time>2026-04-11T14:26:11.001Z</time></trkpt><trkpt lat="44.46491134741958" lon="10.425423145615568"><ele>583.5</ele><time>2026-04-11T14:26:12.001Z</time></trkpt><trkpt lat="44.46488020162803" lon="10.425536861558687"><ele>584.0</ele><time>2026-04-11T14:26:13.001Z</time></trkpt><trkpt lat="44.46486477736453" lon="10.425644950659317"><ele>584.0</ele><time>2026-04-11T14:26:14.001Z</time></trkpt><trkpt lat="44.464866007951386" lon="10.42575573575232"><ele>584.0</ele><time>2026-04-11T14:26:15.001Z</time></trkpt><trkpt lat="44.464868723100174" lon="10.425861712394294"><ele>584.0</ele><time>2026-04-11T14:26:16.001Z</time></trkpt><trkpt lat="44.46486471920367" lon="10.425975395745551"><ele>584.0</ele><time>2026-04-11T14:26:17.001Z</time></trkpt><trkpt lat="44.464872169315576" lon="10.42609367899126"><ele>584.0</ele><time>2026-04-11T14:26:18.001Z</time></trkpt><trkpt lat="44.46489822797458" lon="10.426210920068907"><ele>584.0</ele><time>2026-04-11T14:26:19.001Z</time></trkpt><trkpt lat="44.46493781631108" lon="10.426323935209858"><ele>585.3333333333333</ele><time>2026-04-11T14:26:20.001Z</time></trkpt><trkpt lat="44.46498501647351" lon="10.426428420815448"><ele>586.6666666666666</ele><time>2026-04-11T14:26:21.001Z</time></trkpt><trkpt lat="44.46503127481133" lon="10.42652902055775"><ele>588.0</ele><time>2026-04-11T14:26:22.001Z</time></trkpt><trkpt lat="44.465078411377064" lon="10.426632428293171"><ele>589.3333333333334</ele><time>2026-04-11T14:26:23.001Z</time></trkpt><trkpt lat="44.465122617005854" lon="10.426739846594526"><ele>590.6666666666667</ele><time>2026-04-11T14:26:24Z</time></trkpt><trkpt lat="44.46514534210088" lon="10.426842638261366"><ele>592.0</ele><time>2026-04-11T14:26:25Z</time></trkpt><trkpt lat="44.46512857400015" lon="10.426937508967548"><ele>592.0</ele><time>2026-04-11T14:26:26Z</time></trkpt><trkpt lat="44.46507792956787" lon="10.427005717903826"><ele>592.0</ele><time>2026-04-11T14:26:27Z</time></trkpt><trkpt lat="44.465020748730765" lon="10.427068924625281"><ele>592.0</ele><time>2026-04-11T14:26:28Z</time></trkpt><trkpt lat="44.46496890652573" lon="10.427127126144386"><ele>592.0</ele><time>2026-04-11T14:26:29Z</time></trkpt><trkpt lat="44.46491907167949" lon="10.427195065756418"><ele>592.0</ele><time>2026-04-11T14:26:30Z</time></trkpt><trkpt lat="44.46486284563576" lon="10.427272803416328"><ele>592.0</ele><time>2026-04-11T14:26:31Z</time></trkpt><trkpt lat="44.464800137264156" lon="10.427366243227068"><ele>592.3333333333334</ele><time>2026-04-11T14:26:32Z</time></trkpt><trkpt lat="44.464741253563886" lon="10.427464151214581"><ele>592.6666666666667</ele><time>2026-04-11T14:26:33Z</time></trkpt><trkpt lat="44.46466473682318" lon="10.427541603444348"><ele>593.0</ele><time>2026-04-11T14:26:34Z</time></trkpt><trkpt lat="44.46461260042191" lon="10.427644422548843"><ele>593.3333333333334</ele><time>2026-04-11T14:26:35Z</time></trkpt><trkpt lat="44.46453666442047" lon="10.427705485288275"><ele>593.6666666666666</ele><time>2026-04-11T14:26:36Z</time></trkpt><trkpt lat="44.46448081774289" lon="10.427781729954207"><ele>594.0</ele><time>2026-04-11T14:26:37Z</time></trkpt><trkpt lat="44.46440776798387" lon="10.427791328889427"><ele>597.1666666666666</ele><time>2026-04-11T14:26:38Z</time></trkpt><trkpt lat="44.46434494248451" lon="10.427759464120564"><ele>600.3333333333334</ele><time>2026-04-11T14:26:39Z</time></trkpt><trkpt lat="44.4643017280717" lon="10.427668746657927"><ele>603.5</ele><time>2026-04-11T14:26:40Z</time></trkpt><trkpt lat="44.46423744023187" lon="10.427615788116126"><ele>606.6666666666667</ele><time>2026-04-11T14:26:41Z</time></trkpt><trkpt lat="44.46416306309012" lon="10.427574097364587"><ele>609.8333333333334</ele><time>2026-04-11T14:26:42Z</time></trkpt><trkpt lat="44.46408235847175" lon="10.427529843392852"><ele>613.0</ele><time>2026-04-11T14:26:43Z</time></trkpt><trkpt lat="44.46398296351216" lon="10.42751178457752"><ele>613.0</ele><time>2026-04-11T14:26:44Z</time></trkpt><trkpt lat="44.4638555113061" lon="10.427503443024246"><ele>613.0</ele><time>2026-04-11T14:26:45Z</time></trkpt><trkpt lat="44.46373650052423" lon="10.427507434043775"><ele>613.0</ele><time>2026-04-11T14:26:46Z</time></trkpt><trkpt lat="44.463651487119925" lon="10.427468061537176"><ele>613.0</ele><time>2026-04-11T14:26:47Z</time></trkpt><trkpt lat="44.46357514482821" lon="10.427404265891902"><ele>613.0</ele><time>2026-04-11T14:26:48Z</time></trkpt><trkpt lat="44.46349042631174" lon="10.427326507506173"><ele>611.75</ele><time>2026-04-11T14:26:49Z</time></trkpt><trkpt lat="44.4633938660384" lon="10.427246446871642"><ele>610.5</ele><time>2026-04-11T14:26:50.001Z</time></trkpt><trkpt lat="44.463301053516666" lon="10.427149871948478"><ele>609.25</ele><time>2026-04-11T14:26:51.001Z</time></trkpt><trkpt lat="44.46320292688582" lon="10.427067997579107"><ele>608.0</ele><time>2026-04-11T14:26:52.001Z</time></trkpt><trkpt lat="44.46311552223318" lon="10.426972254462417"><ele>608.0</ele><time>2026-04-11T14:26:53.001Z</time></trkpt><trkpt lat="44.46302176334908" lon="10.42693778196394"><ele>608.0</ele><time>2026-04-11T14:26:54.001Z</time></trkpt><trkpt lat="44.46295171435656" lon="10.426904489093276"><ele>608.0</ele><time>2026-04-11T14:26:55.001Z</time></trkpt><trkpt lat="44.46283879658711" lon="10.426944712331256"><ele>608.0</ele><time>2026-04-11T14:26:57.001Z</time></trkpt><trkpt lat="44.46279969517189" lon="10.427045648694627"><ele>608.0</ele><time>2026-04-11T14:26:57.999Z</time></trkpt><trkpt lat="44.462808836400924" lon="10.42715946851293"><ele>609.5</ele><time>2026-04-11T14:26:58.999Z</time></trkpt><trkpt lat="44.46281998920565" lon="10.427282897564497"><ele>611.0</ele><time>2026-04-11T14:26:59.999Z</time></trkpt><trkpt lat="44.46281706255889" lon="10.427405030252562"><ele>612.5</ele><time>2026-04-11T14:27:00.999Z</time></trkpt><trkpt lat="44.46279735676713" lon="10.427526042256797"><ele>614.0</ele><time>2026-04-11T14:27:01.999Z</time></trkpt><trkpt lat="44.46276367266905" lon="10.427641594216883"><ele>615.5</ele><time>2026-04-11T14:27:02.999Z</time></trkpt><trkpt lat="44.46271707837497" lon="10.427754797296428"><ele>617.0</ele><time>2026-04-11T14:27:03.999Z</time></trkpt><trkpt lat="44.46266636668999" lon="10.427863126616625"><ele>617.0</ele><time>2026-04-11T14:27:04.999Z</time></trkpt><trkpt lat="44.46261160798794" lon="10.427973417880873"><ele>617.0</ele><time>2026-04-11T14:27:05.999Z</time></trkpt><trkpt lat="44.46253243772656" lon="10.428029176337633"><ele>617.0</ele><time>2026-04-11T14:27:06.999Z</time></trkpt><trkpt lat="44.46244934371047" lon="10.428059937703589"><ele>617.0</ele><time>2026-04-11T14:27:07.999Z</time></trkpt><trkpt lat="44.462361424298706" lon="10.428076372932402"><ele>617.0</ele><time>2026-04-11T14:27:08.999Z</time></trkpt><trkpt lat="44.4622776089854" lon="10.428106762431709"><ele>617.0</ele><time>2026-04-11T14:27:09.999Z</time></trkpt><trkpt lat="44.46219408925431" lon="10.428123028181384"><ele>617.0</ele><time>2026-04-11T14:27:10.999Z</time></trkpt><trkpt lat="44.46210876141271" lon="10.428171600042083"><ele>617.0</ele><time>2026-04-11T14:27:11.999Z</time></trkpt><trkpt lat="44.46201706596157" lon="10.428199006588635"><ele>617.0</ele><time>2026-04-11T14:27:12.999Z</time></trkpt><trkpt lat="44.46194242752035" lon="10.42827042033744"><ele>617.0</ele><time>2026-04-11T14:27:13.999Z</time></trkpt><trkpt lat="44.46187479434971" lon="10.428337939384548"><ele>617.0</ele><time>2026-04-11T14:27:14.999Z</time></trkpt><trkpt lat="44.46182230655596" lon="10.428411462327247"><ele>617.0</ele><time>2026-04-11T14:27:15.999Z</time></trkpt><trkpt lat="44.46178172412285" lon="10.428486921943275"><ele>617.0</ele><time>2026-04-11T14:27:16.999Z</time></trkpt><trkpt lat="44.46171619115327" lon="10.428649191427162"><ele>617.0</ele><time>2026-04-11T14:27:18.999Z</time></trkpt><trkpt lat="44.46167836987766" lon="10.428761279630207"><ele>617.0</ele><time>2026-04-11T14:27:19.999Z</time></trkpt><trkpt lat="44.461645339179405" lon="10.428885961617109"><ele>617.0</ele><time>2026-04-11T14:27:20.999Z</time></trkpt><trkpt lat="44.461605865665966" lon="10.429010868617947"><ele>617.0</ele><time>2026-04-11T14:27:21.999Z</time></trkpt><trkpt lat="44.461587687463826" lon="10.429147952719317"><ele>615.6</ele><time>2026-04-11T14:27:22.999Z</time></trkpt><trkpt lat="44.46154259354424" lon="10.429261973030993"><ele>614.2</ele><time>2026-04-11T14:27:23.999Z</time></trkpt><trkpt lat="44.46149085381125" lon="10.429353047564726"><ele>612.8</ele><time>2026-04-11T14:27:24.999Z</time></trkpt><trkpt lat="44.46143614075724" lon="10.42943134223263"><ele>611.4</ele><time>2026-04-11T14:27:26Z</time></trkpt><trkpt lat="44.46138041016152" lon="10.429494866527486"><ele>610.0</ele><time>2026-04-11T14:27:27Z</time></trkpt><trkpt lat="44.46126679371747" lon="10.42957020119077"><ele>610.0</ele><time>2026-04-11T14:27:29Z</time></trkpt><trkpt lat="44.461197795799045" lon="10.429596378496289"><ele>610.0</ele><time>2026-04-11T14:27:30Z</time></trkpt><trkpt lat="44.46111864520597" lon="10.429620319257657"><ele>610.0</ele><time>2026-04-11T14:27:31Z</time></trkpt><trkpt lat="44.461029149192136" lon="10.429632156142034"><ele>610.0</ele><time>2026-04-11T14:27:32Z</time></trkpt><trkpt lat="44.46093574722503" lon="10.429634002079462"><ele>610.0</ele><time>2026-04-11T14:27:33Z</time></trkpt><trkpt lat="44.46084132103114" lon="10.429648681663418"><ele>610.0</ele><time>2026-04-11T14:27:34Z</time></trkpt><trkpt lat="44.46075211712451" lon="10.429685672720106"><ele>610.6</ele><time>2026-04-11T14:27:35Z</time></trkpt><trkpt lat="44.46067222028216" lon="10.429743485297495"><ele>611.2</ele><time>2026-04-11T14:27:36Z</time></trkpt><trkpt lat="44.460589151136" lon="10.42979055600743"><ele>611.8</ele><time>2026-04-11T14:27:37Z</time></trkpt><trkpt lat="44.460510973689665" lon="10.429840220627247"><ele>612.4</ele><time>2026-04-11T14:27:38Z</time></trkpt><trkpt lat="44.46043284657113" lon="10.429905257681952"><ele>613.0</ele><time>2026-04-11T14:27:39Z</time></trkpt><trkpt lat="44.46034174684727" lon="10.429948940217837"><ele>615.0</ele><time>2026-04-11T14:27:40Z</time></trkpt><trkpt lat="44.460247193572776" lon="10.429996647223014"><ele>617.0</ele><time>2026-04-11T14:27:41Z</time></trkpt><trkpt lat="44.46014640525196" lon="10.430035888052434"><ele>619.0</ele><time>2026-04-11T14:27:42Z</time></trkpt><trkpt lat="44.460040930147116" lon="10.430062781554271"><ele>621.0</ele><time>2026-04-11T14:27:43Z</time></trkpt><trkpt lat="44.459934622800475" lon="10.430080807172562"><ele>623.0</ele><time>2026-04-11T14:27:44Z</time></trkpt><trkpt lat="44.459823857751346" lon="10.430107759755407"><ele>623.0</ele><time>2026-04-11T14:27:45Z</time></trkpt><trkpt lat="44.45971305122884" lon="10.430121336219312"><ele>623.0</ele><time>2026-04-11T14:27:46Z</time></trkpt><trkpt lat="44.45959665108478" lon="10.430124437660279"><ele>623.0</ele><time>2026-04-11T14:27:47Z</time></trkpt><trkpt lat="44.45948370958197" lon="10.430133477482833"><ele>623.0</ele><time>2026-04-11T14:27:48Z</time></trkpt><trkpt lat="44.459373916783605" lon="10.430144179140862"><ele>623.1999999999999</ele><time>2026-04-11T14:27:49Z</time></trkpt><trkpt lat="44.45926981381302" lon="10.430155365565433"><ele>623.4</ele><time>2026-04-11T14:27:50Z</time></trkpt><trkpt lat="44.45916993213058" lon="10.43013865661762"><ele>623.5999999999999</ele><time>2026-04-11T14:27:51Z</time></trkpt><trkpt lat="44.459073709384185" lon="10.430127440044316"><ele>623.8</ele><time>2026-04-11T14:27:52Z</time></trkpt><trkpt lat="44.45898102930465" lon="10.430085201882733"><ele>624.0</ele><time>2026-04-11T14:27:53Z</time></trkpt><trkpt lat="44.458889099486015" lon="10.430037063593142"><ele>624.0</ele><time>2026-04-11T14:27:54Z</time></trkpt><trkpt lat="44.458795471247186" lon="10.430002189436905"><ele>624.0</ele><time>2026-04-11T14:27:55Z</time></trkpt><trkpt lat="44.45873389410774" lon="10.429922777201572"><ele>624.0</ele><time>2026-04-11T14:27:56Z</time></trkpt><trkpt lat="44.458665853470585" lon="10.429845079583409"><ele>624.0</ele><time>2026-04-11T14:27:57Z</time></trkpt><trkpt lat="44.458590468087294" lon="10.429761163759482"><ele>624.0</ele><time>2026-04-11T14:27:58Z</time></trkpt><trkpt lat="44.45852558413017" lon="10.429689831275047"><ele>624.0</ele><time>2026-04-11T14:27:59Z</time></trkpt><trkpt lat="44.458459286404505" lon="10.42962377915084"><ele>624.8333333333334</ele><time>2026-04-11T14:28:00Z</time></trkpt><trkpt lat="44.45839430277457" lon="10.429574542550617"><ele>625.6666666666666</ele><time>2026-04-11T14:28:01Z</time></trkpt><trkpt lat="44.458322856357924" lon="10.429563931713597"><ele>626.5</ele><time>2026-04-11T14:28:02Z</time></trkpt><trkpt lat="44.458256800261495" lon="10.429545928561467"><ele>627.3333333333333</ele><time>2026-04-11T14:28:03Z</time></trkpt><trkpt lat="44.4581826999887" lon="10.429551163931148"><ele>628.1666666666666</ele><time>2026-04-11T14:28:04Z</time></trkpt><trkpt lat="44.45809195775252" lon="10.429561617510082"><ele>629.0</ele><time>2026-04-11T14:28:05Z</time></trkpt><trkpt lat="44.45799415803869" lon="10.429562644896778"><ele>628.8</ele><time>2026-04-11T14:28:06Z</time></trkpt><trkpt lat="44.457895169602196" lon="10.42953321199445"><ele>628.5999999999999</ele><time>2026-04-11T14:28:07Z</time></trkpt><trkpt lat="44.457795048953834" lon="10.429521559720106"><ele>628.4</ele><time>2026-04-11T14:28:08Z</time></trkpt><trkpt lat="44.45768768512385" lon="10.429516742931884"><ele>628.1999999999999</ele><time>2026-04-11T14:28:09Z</time></trkpt><trkpt lat="44.457587760247726" lon="10.429481688604612"><ele>628.0</ele><time>2026-04-11T14:28:10Z</time></trkpt><trkpt lat="44.457485600629255" lon="10.42943612867556"><ele>628.0</ele><time>2026-04-11T14:28:11Z</time></trkpt><trkpt lat="44.45738079016152" lon="10.429384765741657"><ele>628.0</ele><time>2026-04-11T14:28:12Z</time></trkpt><trkpt lat="44.457276815101274" lon="10.429308594140124"><ele>628.0</ele><time>2026-04-11T14:28:13Z</time></trkpt><trkpt lat="44.457163404303735" lon="10.429249545426472"><ele>628.0</ele><time>2026-04-11T14:28:14Z</time></trkpt><trkpt lat="44.45703961025844" lon="10.429211478222108"><ele>627.0</ele><time>2026-04-11T14:28:15Z</time></trkpt><trkpt lat="44.45692163421057" lon="10.429161372504963"><ele>626.0</ele><time>2026-04-11T14:28:16.001Z</time></trkpt><trkpt lat="44.456806129141064" lon="10.429129153576186"><ele>625.0</ele><time>2026-04-11T14:28:17.001Z</time></trkpt><trkpt lat="44.456702010471815" lon="10.42910520396478"><ele>624.0</ele><time>2026-04-11T14:28:18.001Z</time></trkpt><trkpt lat="44.456606934333706" lon="10.429080408291373"><ele>623.0</ele><time>2026-04-11T14:28:19.001Z</time></trkpt><trkpt lat="44.45651973854874" lon="10.429059525002247"><ele>623.0</ele><time>2026-04-11T14:28:20.001Z</time></trkpt><trkpt lat="44.456441515348395" lon="10.429034362092509"><ele>623.0</ele><time>2026-04-11T14:28:21.001Z</time></trkpt><trkpt lat="44.45636397700115" lon="10.429014070301463"><ele>623.0</ele><time>2026-04-11T14:28:22.001Z</time></trkpt><trkpt lat="44.45628224583365" lon="10.429000343565006"><ele>623.0</ele><time>2026-04-11T14:28:23.001Z</time></trkpt><trkpt lat="44.45619473833361" lon="10.42897667557876"><ele>623.0</ele><time>2026-04-11T14:28:24.001Z</time></trkpt><trkpt lat="44.45610424680985" lon="10.428951781700427"><ele>623.0</ele><time>2026-04-11T14:28:25.001Z</time></trkpt><trkpt lat="44.456014566855785" lon="10.428902918616263"><ele>624.1999999999999</ele><time>2026-04-11T14:28:26.001Z</time></trkpt><trkpt lat="44.45592238257129" lon="10.428873380226445"><ele>625.4</ele><time>2026-04-11T14:28:27.001Z</time></trkpt><trkpt lat="44.45584012768237" lon="10.428842180663468"><ele>626.5999999999999</ele><time>2026-04-11T14:28:28.001Z</time></trkpt><trkpt lat="44.45577765838804" lon="10.428792943803963"><ele>627.8</ele><time>2026-04-11T14:28:29.001Z</time></trkpt><trkpt lat="44.455698897479344" lon="10.42868792448966"><ele>629.0</ele><time>2026-04-11T14:28:31.001Z</time></trkpt><trkpt lat="44.45566471048751" lon="10.428518449052087"><ele>629.0</ele><time>2026-04-11T14:28:33.001Z</time></trkpt><trkpt lat="44.455645886273786" lon="10.428427789249424"><ele>629.0</ele><time>2026-04-11T14:28:34.001Z</time></trkpt><trkpt lat="44.45562888410576" lon="10.428330034875307"><ele>629.0</ele><time>2026-04-11T14:28:35.001Z</time></trkpt><trkpt lat="44.45560510361637" lon="10.428235406666909"><ele>629.0</ele><time>2026-04-11T14:28:36.001Z</time></trkpt><trkpt lat="44.4555999915011" lon="10.428130642885337"><ele>629.0</ele><time>2026-04-11T14:28:37.001Z</time></trkpt><trkpt lat="44.45556934607513" lon="10.42804250699776"><ele>629.0</ele><time>2026-04-11T14:28:38.001Z</time></trkpt><trkpt lat="44.45555228674293" lon="10.427947147732011"><ele>629.0</ele><time>2026-04-11T14:28:39.001Z</time></trkpt><trkpt lat="44.45552943869422" lon="10.427851648067941"><ele>628.1666666666666</ele><time>2026-04-11T14:28:40.001Z</time></trkpt><trkpt lat="44.455505074142046" lon="10.42773942862262"><ele>627.3333333333333</ele><time>2026-04-11T14:28:41.001Z</time></trkpt><trkpt lat="44.45549876017626" lon="10.427625305220362"><ele>626.5</ele><time>2026-04-11T14:28:42.001Z</time></trkpt><trkpt lat="44.45548333460079" lon="10.427521377210011"><ele>625.6666666666666</ele><time>2026-04-11T14:28:43.001Z</time></trkpt><trkpt lat="44.455472071146936" lon="10.427428261958477"><ele>624.8333333333334</ele><time>2026-04-11T14:28:44.001Z</time></trkpt><trkpt lat="44.45546400458253" lon="10.427337197007216"><ele>624.0</ele><time>2026-04-11T14:28:45.001Z</time></trkpt><trkpt lat="44.45544451135661" lon="10.42717261323606"><ele>629.0</ele><time>2026-04-11T14:28:47.001Z</time></trkpt><trkpt lat="44.455453440995264" lon="10.427077491508545"><ele>634.0</ele><time>2026-04-11T14:28:48.001Z</time></trkpt><trkpt lat="44.455446381496735" lon="10.426968943939533"><ele>639.0</ele><time>2026-04-11T14:28:49.001Z</time></trkpt><trkpt lat="44.4554254669381" lon="10.426863254670165"><ele>644.0</ele><time>2026-04-11T14:28:50.001Z</time></trkpt><trkpt lat="44.455396597567" lon="10.426754712257315"><ele>649.0</ele><time>2026-04-11T14:28:51.001Z</time></trkpt><trkpt lat="44.45535647030122" lon="10.426654358851954"><ele>654.0</ele><time>2026-04-11T14:28:52.001Z</time></trkpt><trkpt lat="44.455303716810214" lon="10.426567092851622"><ele>654.0</ele><time>2026-04-11T14:28:53.001Z</time></trkpt><trkpt lat="44.45524033591574" lon="10.426494672854574"><ele>654.0</ele><time>2026-04-11T14:28:54.001Z</time></trkpt><trkpt lat="44.45516825161123" lon="10.426448372963234"><ele>654.0</ele><time>2026-04-11T14:28:55.001Z</time></trkpt><trkpt lat="44.45508006782535" lon="10.426421478533479"><ele>654.0</ele><time>2026-04-11T14:28:56.001Z</time></trkpt><trkpt lat="44.454991946801385" lon="10.426416052351128"><ele>654.0</ele><time>2026-04-11T14:28:57.001Z</time></trkpt><trkpt lat="44.454915240929886" lon="10.426417286415358"><ele>654.0</ele><time>2026-04-11T14:28:58.001Z</time></trkpt><trkpt lat="44.45483489618313" lon="10.42642196074297"><ele>654.0</ele><time>2026-04-11T14:28:59.001Z</time></trkpt><trkpt lat="44.454740620080415" lon="10.426428262124299"><ele>654.0</ele><time>2026-04-11T14:29:00.001Z</time></trkpt><trkpt lat="44.454657727144664" lon="10.426448393569526"><ele>654.0</ele><time>2026-04-11T14:29:01.001Z</time></trkpt><trkpt lat="44.454591195224666" lon="10.426470557225258"><ele>654.0</ele><time>2026-04-11T14:29:02.001Z</time></trkpt><trkpt lat="44.45450886272651" lon="10.426501122624193"><ele>654.0</ele><time>2026-04-11T14:29:04Z</time></trkpt><trkpt lat="44.454571310432925" lon="10.426459261973678"><ele>654.0</ele><time>2026-04-11T14:29:57.001Z</time></trkpt><trkpt lat="44.454512487072996" lon="10.42649463600929"><ele>653.4000000000001</ele><time>2026-04-11T14:30:17.001Z</time></trkpt><trkpt lat="44.45445958318598" lon="10.426549026225974"><ele>652.8</ele><time>2026-04-11T14:30:46.001Z</time></trkpt><trkpt lat="44.454336501500514" lon="10.426606918362937"><ele>652.2</ele><time>2026-04-11T14:32:41.001Z</time></trkpt><trkpt lat="44.45424629450386" lon="10.426678011532633"><ele>651.5999999999999</ele><time>2026-04-11T14:32:42.001Z</time></trkpt><trkpt lat="44.45414849361653" lon="10.4267774246525"><ele>651.0</ele><time>2026-04-11T14:32:44.001Z</time></trkpt><trkpt lat="44.454090267509535" lon="10.426851600259635"><ele>651.0</ele><time>2026-04-11T14:32:45.001Z</time></trkpt><trkpt lat="44.45401705788162" lon="10.426906201345842"><ele>651.0</ele><time>2026-04-11T14:32:46.001Z</time></trkpt><trkpt lat="44.453937999105925" lon="10.426929564892978"><ele>651.0</ele><time>2026-04-11T14:32:47.001Z</time></trkpt><trkpt lat="44.453867108010385" lon="10.426977164342135"><ele>651.0</ele><time>2026-04-11T14:32:48.001Z</time></trkpt><trkpt lat="44.453795279588185" lon="10.427014097298198"><ele>651.0</ele><time>2026-04-11T14:32:49.001Z</time></trkpt><trkpt lat="44.453721114497874" lon="10.427060653695522"><ele>651.0</ele><time>2026-04-11T14:32:50.002Z</time></trkpt><trkpt lat="44.453651708415514" lon="10.427116405883044"><ele>654.4</ele><time>2026-04-11T14:32:51.002Z</time></trkpt><trkpt lat="44.4535877407869" lon="10.427184159157536"><ele>657.8</ele><time>2026-04-11T14:32:52.002Z</time></trkpt><trkpt lat="44.453461254881994" lon="10.427306648352054"><ele>661.1999999999999</ele><time>2026-04-11T14:32:54.002Z</time></trkpt><trkpt lat="44.45339349132389" lon="10.427363988274736"><ele>664.5999999999999</ele><time>2026-04-11T14:32:55.002Z</time></trkpt><trkpt lat="44.453320665088434" lon="10.427396316397154"><ele>668.0</ele><time>2026-04-11T14:32:56.002Z</time></trkpt><trkpt lat="44.45324758446931" lon="10.427414061055504"><ele>668.0</ele><time>2026-04-11T14:32:57.002Z</time></trkpt><trkpt lat="44.45317407620353" lon="10.427424520710067"><ele>668.0</ele><time>2026-04-11T14:32:58.002Z</time></trkpt><trkpt lat="44.45309524468829" lon="10.427445573761604"><ele>668.0</ele><time>2026-04-11T14:32:59.002Z</time></trkpt><trkpt lat="44.45302143884239" lon="10.427464088876789"><ele>668.0</ele><time>2026-04-11T14:33:00.002Z</time></trkpt><trkpt lat="44.4529419693253" lon="10.427484541403343"><ele>668.0</ele><time>2026-04-11T14:33:01.002Z</time></trkpt><trkpt lat="44.45286207686158" lon="10.427504447846609"><ele>668.0</ele><time>2026-04-11T14:33:02.002Z</time></trkpt><trkpt lat="44.45278450397485" lon="10.427521971069035"><ele>667.7142857142857</ele><time>2026-04-11T14:33:03.002Z</time></trkpt><trkpt lat="44.45270806094376" lon="10.427542105564024"><ele>667.4285714285714</ele><time>2026-04-11T14:33:04.002Z</time></trkpt><trkpt lat="44.45263263462832" lon="10.427556684106346"><ele>667.1428571428571</ele><time>2026-04-11T14:33:05.002Z</time></trkpt><trkpt lat="44.45256277353454" lon="10.427573972766632"><ele>666.8571428571429</ele><time>2026-04-11T14:33:06.002Z</time></trkpt><trkpt lat="44.45248867777738" lon="10.427587866840407"><ele>666.5714285714286</ele><time>2026-04-11T14:33:07.002Z</time></trkpt><trkpt lat="44.45241382493654" lon="10.427608380132765"><ele>666.2857142857143</ele><time>2026-04-11T14:33:08.002Z</time></trkpt><trkpt lat="44.45234421474964" lon="10.427632067671965"><ele>666.0</ele><time>2026-04-11T14:33:09.002Z</time></trkpt><trkpt lat="44.452270463795614" lon="10.427658854358288"><ele>666.0</ele><time>2026-04-11T14:33:10.002Z</time></trkpt><trkpt lat="44.452200883414164" lon="10.427688609205994"><ele>666.0</ele><time>2026-04-11T14:33:11.002Z</time></trkpt><trkpt lat="44.45213091438296" lon="10.427699599866905"><ele>666.0</ele><time>2026-04-11T14:33:12.002Z</time></trkpt><trkpt lat="44.45206099151777" lon="10.427669421290156"><ele>666.0</ele><time>2026-04-11T14:33:13.002Z</time></trkpt><trkpt lat="44.451996518048276" lon="10.42762574165745"><ele>666.0</ele><time>2026-04-11T14:33:14.002Z</time></trkpt><trkpt lat="44.4519381447185" lon="10.427567497840135"><ele>666.0</ele><time>2026-04-11T14:33:15.002Z</time></trkpt><trkpt lat="44.451880241328354" lon="10.427501705796262"><ele>666.0</ele><time>2026-04-11T14:33:16.001Z</time></trkpt><trkpt lat="44.45181044346304" lon="10.427419853318838"><ele>667.5999999999999</ele><time>2026-04-11T14:33:17.001Z</time></trkpt><trkpt lat="44.45172490640164" lon="10.427347248479263"><ele>669.2</ele><time>2026-04-11T14:33:18.001Z</time></trkpt><trkpt lat="44.45163884061614" lon="10.42727192883444"><ele>670.8</ele><time>2026-04-11T14:33:19.001Z</time></trkpt><trkpt lat="44.45153557745677" lon="10.427212682964285"><ele>672.4000000000001</ele><time>2026-04-11T14:33:20.001Z</time></trkpt><trkpt lat="44.45144813895473" lon="10.427127675948185"><ele>674.0</ele><time>2026-04-11T14:33:21.001Z</time></trkpt><trkpt lat="44.45136312392986" lon="10.427061881530523"><ele>674.0</ele><time>2026-04-11T14:33:22.001Z</time></trkpt><trkpt lat="44.45128837754817" lon="10.426990937274297"><ele>674.0</ele><time>2026-04-11T14:33:23.001Z</time></trkpt><trkpt lat="44.451249864071194" lon="10.426900668769967"><ele>674.0</ele><time>2026-04-11T14:33:24.001Z</time></trkpt><trkpt lat="44.4512441736412" lon="10.42679033833298"><ele>674.0</ele><time>2026-04-11T14:33:25.001Z</time></trkpt><trkpt lat="44.45127517731676" lon="10.42668516136755"><ele>674.0</ele><time>2026-04-11T14:33:26.001Z</time></trkpt><trkpt lat="44.451294768879876" lon="10.42656293548053"><ele>674.0</ele><time>2026-04-11T14:33:27.001Z</time></trkpt><trkpt lat="44.4513163214705" lon="10.42646186105062"><ele>674.0</ele><time>2026-04-11T14:33:28.001Z</time></trkpt><trkpt lat="44.451335577220156" lon="10.426373776615039"><ele>674.0</ele><time>2026-04-11T14:33:29.001Z</time></trkpt><trkpt lat="44.45134554513" lon="10.426212167919564"><ele>674.0</ele><time>2026-04-11T14:33:31.001Z</time></trkpt><trkpt lat="44.45130640384742" lon="10.426139712647377"><ele>674.0</ele><time>2026-04-11T14:33:32.001Z</time></trkpt><trkpt lat="44.45122187784425" lon="10.426071718833253"><ele>674.0</ele><time>2026-04-11T14:33:34.001Z</time></trkpt><trkpt lat="44.451090888246654" lon="10.426090952180433"><ele>673.4000000000001</ele><time>2026-04-11T14:33:36.001Z</time></trkpt><trkpt lat="44.45101172889693" lon="10.42606387218959"><ele>672.8</ele><time>2026-04-11T14:33:37.001Z</time></trkpt><trkpt lat="44.45086356692031" lon="10.426060569364035"><ele>672.2</ele><time>2026-04-11T14:33:39.001Z</time></trkpt><trkpt lat="44.450788032538966" lon="10.426080823313221"><ele>671.5999999999999</ele><time>2026-04-11T14:33:40.001Z</time></trkpt><trkpt lat="44.45070994985459" lon="10.426076237868958"><ele>671.0</ele><time>2026-04-11T14:33:41.001Z</time></trkpt><trkpt lat="44.45063524584732" lon="10.426076475949069"><ele>671.0</ele><time>2026-04-11T14:33:42.001Z</time></trkpt><trkpt lat="44.45056025614297" lon="10.426070929538378"><ele>671.0</ele><time>2026-04-11T14:33:43.001Z</time></trkpt><trkpt lat="44.45048863133184" lon="10.426071839640144"><ele>671.0</ele><time>2026-04-11T14:33:44.001Z</time></trkpt><trkpt lat="44.45041921637841" lon="10.426072716691621"><ele>671.0</ele><time>2026-04-11T14:33:45.001Z</time></trkpt><trkpt lat="44.450354069739035" lon="10.426074239762908"><ele>671.0</ele><time>2026-04-11T14:33:46.001Z</time></trkpt><trkpt lat="44.45029075759948" lon="10.426068711506423"><ele>671.0</ele><time>2026-04-11T14:33:47.001Z</time></trkpt><trkpt lat="44.45019234218429" lon="10.42606473226524"><ele>671.0</ele><time>2026-04-11T14:33:49.001Z</time></trkpt><trkpt lat="44.45010140302322" lon="10.426056714624584"><ele>669.1999999999999</ele><time>2026-04-11T14:33:51.001Z</time></trkpt><trkpt lat="44.45002025890242" lon="10.426063679063684"><ele>667.4</ele><time>2026-04-11T14:33:52.001Z</time></trkpt><trkpt lat="44.4499175484479" lon="10.42606843357539"><ele>665.6</ele><time>2026-04-11T14:33:53.001Z</time></trkpt><trkpt lat="44.44980560469393" lon="10.426067263544649"><ele>663.8</ele><time>2026-04-11T14:33:54.001Z</time></trkpt><trkpt lat="44.449687968916415" lon="10.426066675499042"><ele>662.0</ele><time>2026-04-11T14:33:55.001Z</time></trkpt><trkpt lat="44.44956096167037" lon="10.426075228347056"><ele>661.75</ele><time>2026-04-11T14:33:56.001Z</time></trkpt><trkpt lat="44.44943120853758" lon="10.426075291541945"><ele>661.5</ele><time>2026-04-11T14:33:57.001Z</time></trkpt><trkpt lat="44.44930641604675" lon="10.426016263708927"><ele>661.25</ele><time>2026-04-11T14:33:58.001Z</time></trkpt><trkpt lat="44.44918024031557" lon="10.425955897647356"><ele>661.0</ele><time>2026-04-11T14:33:59.001Z</time></trkpt><trkpt lat="44.44904956501954" lon="10.425911579561085"><ele>661.0</ele><time>2026-04-11T14:34:00.001Z</time></trkpt><trkpt lat="44.44893412730591" lon="10.425839513029024"><ele>661.0</ele><time>2026-04-11T14:34:01.001Z</time></trkpt><trkpt lat="44.44882574567848" lon="10.425783937694707"><ele>661.0</ele><time>2026-04-11T14:34:02.001Z</time></trkpt><trkpt lat="44.44872661683371" lon="10.425747770102356"><ele>661.0</ele><time>2026-04-11T14:34:03.001Z</time></trkpt><trkpt lat="44.448635442526815" lon="10.425723117380077"><ele>661.0</ele><time>2026-04-11T14:34:04.001Z</time></trkpt><trkpt lat="44.448545673274936" lon="10.42571598149152"><ele>662.8</ele><time>2026-04-11T14:34:05.001Z</time></trkpt><trkpt lat="44.448447390359654" lon="10.425715213824855"><ele>664.5999999999999</ele><time>2026-04-11T14:34:06.001Z</time></trkpt><trkpt lat="44.44834700166717" lon="10.425727026068536"><ele>666.4</ele><time>2026-04-11T14:34:07.001Z</time></trkpt><trkpt lat="44.44824922421999" lon="10.425739980659639"><ele>668.2</ele><time>2026-04-11T14:34:08.001Z</time></trkpt><trkpt lat="44.44815667865868" lon="10.42576226404456"><ele>670.0</ele><time>2026-04-11T14:34:09.001Z</time></trkpt><trkpt lat="44.44807513539775" lon="10.425801026147147"><ele>670.0</ele><time>2026-04-11T14:34:10.001Z</time></trkpt><trkpt lat="44.44800038964424" lon="10.425859290582782"><ele>670.0</ele><time>2026-04-11T14:34:11.001Z</time></trkpt><trkpt lat="44.447940223654136" lon="10.425933162309088"><ele>670.0</ele><time>2026-04-11T14:34:12.001Z</time></trkpt><trkpt lat="44.44788779365903" lon="10.42600186718431"><ele>670.0</ele><time>2026-04-11T14:34:13.001Z</time></trkpt><trkpt lat="44.44783150497321" lon="10.426065109756106"><ele>670.0</ele><time>2026-04-11T14:34:14.001Z</time></trkpt><trkpt lat="44.447769381858166" lon="10.426125220616925"><ele>670.0</ele><time>2026-04-11T14:34:15.001Z</time></trkpt><trkpt lat="44.4476937112178" lon="10.426172699726528"><ele>671.0</ele><time>2026-04-11T14:34:16.001Z</time></trkpt><trkpt lat="44.4476063838096" lon="10.426204020291548"><ele>672.0</ele><time>2026-04-11T14:34:17.001Z</time></trkpt><trkpt lat="44.44751502610743" lon="10.426241141983187"><ele>673.0</ele><time>2026-04-11T14:34:18.001Z</time></trkpt><trkpt lat="44.44741990376925" lon="10.42628294431752"><ele>674.0</ele><time>2026-04-11T14:34:19.001Z</time></trkpt><trkpt lat="44.447317415642615" lon="10.426319213116493"><ele>675.0</ele><time>2026-04-11T14:34:20.002Z</time></trkpt><trkpt lat="44.44721382634899" lon="10.426356815957309"><ele>672.4</ele><time>2026-04-11T14:34:21.002Z</time></trkpt><trkpt lat="44.44711102476641" lon="10.42639745065122"><ele>669.8</ele><time>2026-04-11T14:34:22.002Z</time></trkpt><trkpt lat="44.44701338961953" lon="10.426442985529766"><ele>667.2</ele><time>2026-04-11T14:34:23.002Z</time></trkpt><trkpt lat="44.446919254457484" lon="10.42649209535511"><ele>664.6</ele><time>2026-04-11T14:34:24.002Z</time></trkpt><trkpt lat="44.44683000239973" lon="10.426541959489686"><ele>662.0</ele><time>2026-04-11T14:34:25.002Z</time></trkpt><trkpt lat="44.446745376305245" lon="10.426591741446735"><ele>662.0</ele><time>2026-04-11T14:34:26.002Z</time></trkpt><trkpt lat="44.446660660097585" lon="10.426630949419145"><ele>662.0</ele><time>2026-04-11T14:34:27.002Z</time></trkpt><trkpt lat="44.44657976911784" lon="10.426677667963835"><ele>662.0</ele><time>2026-04-11T14:34:28.002Z</time></trkpt><trkpt lat="44.446496171540836" lon="10.426717172017229"><ele>662.0</ele><time>2026-04-11T14:34:29.002Z</time></trkpt><trkpt lat="44.446409676260565" lon="10.42675357477051"><ele>662.0</ele><time>2026-04-11T14:34:30.002Z</time></trkpt><trkpt lat="44.44632255571693" lon="10.42679640183494"><ele>662.0</ele><time>2026-04-11T14:34:31.002Z</time></trkpt><trkpt lat="44.446234219527966" lon="10.426837241168183"><ele>661.2</ele><time>2026-04-11T14:34:32.002Z</time></trkpt><trkpt lat="44.446146828484075" lon="10.426877478795902"><ele>660.4000000000001</ele><time>2026-04-11T14:34:33.002Z</time></trkpt><trkpt lat="44.44606645045489" lon="10.426945299940746"><ele>659.5999999999999</ele><time>2026-04-11T14:34:34.002Z</time></trkpt><trkpt lat="44.445987860844525" lon="10.427009527450533"><ele>658.8</ele><time>2026-04-11T14:34:35.002Z</time></trkpt><trkpt lat="44.445909463966245" lon="10.427072211283548"><ele>658.0</ele><time>2026-04-11T14:34:36.002Z</time></trkpt><trkpt lat="44.44582818447799" lon="10.42713134285167"><ele>659.0</ele><time>2026-04-11T14:34:37.002Z</time></trkpt><trkpt lat="44.44574186693217" lon="10.427170785942986"><ele>660.0</ele><time>2026-04-11T14:34:38.002Z</time></trkpt><trkpt lat="44.445650487509326" lon="10.427189755585648"><ele>661.0</ele><time>2026-04-11T14:34:39.002Z</time></trkpt><trkpt lat="44.44555559139172" lon="10.427186483372203"><ele>662.0</ele><time>2026-04-11T14:34:40.002Z</time></trkpt><trkpt lat="44.44546525464058" lon="10.427154361899325"><ele>663.0</ele><time>2026-04-11T14:34:41.002Z</time></trkpt><trkpt lat="44.445390398513055" lon="10.427099873880222"><ele>663.0</ele><time>2026-04-11T14:34:42.002Z</time></trkpt><trkpt lat="44.44529922942" lon="10.427054881270184"><ele>663.0</ele><time>2026-04-11T14:34:43.002Z</time></trkpt><trkpt lat="44.44520229273081" lon="10.427027777604122"><ele>663.0</ele><time>2026-04-11T14:34:44.002Z</time></trkpt><trkpt lat="44.445109613916344" lon="10.427004507934008"><ele>663.0</ele><time>2026-04-11T14:34:45.002Z</time></trkpt><trkpt lat="44.44501594570486" lon="10.427029351119073"><ele>663.0</ele><time>2026-04-11T14:34:46.002Z</time></trkpt><trkpt lat="44.44492667097379" lon="10.427101025576652"><ele>665.2</ele><time>2026-04-11T14:34:47.002Z</time></trkpt><trkpt lat="44.444840548354726" lon="10.427190763401939"><ele>667.4</ele><time>2026-04-11T14:34:48.002Z</time></trkpt><trkpt lat="44.444762524458994" lon="10.427290207719793"><ele>669.6</ele><time>2026-04-11T14:34:49.002Z</time></trkpt><trkpt lat="44.444689450126766" lon="10.42739806006034"><ele>671.8000000000001</ele><time>2026-04-11T14:34:50.002Z</time></trkpt><trkpt lat="44.44460200655836" lon="10.427479830074304"><ele>674.0</ele><time>2026-04-11T14:34:51.002Z</time></trkpt><trkpt lat="44.44453212726365" lon="10.42759665639439"><ele>674.0</ele><time>2026-04-11T14:34:52.002Z</time></trkpt><trkpt lat="44.44444674969227" lon="10.427699298876592"><ele>674.0</ele><time>2026-04-11T14:34:53.002Z</time></trkpt><trkpt lat="44.44434856115575" lon="10.427785131946212"><ele>674.0</ele><time>2026-04-11T14:34:54.002Z</time></trkpt><trkpt lat="44.444256284346125" lon="10.427860996355191"><ele>674.0</ele><time>2026-04-11T14:34:55.002Z</time></trkpt><trkpt lat="44.44417558449855" lon="10.427932067197219"><ele>674.0</ele><time>2026-04-11T14:34:56.002Z</time></trkpt><trkpt lat="44.44409943787955" lon="10.428017337866105"><ele>675.6</ele><time>2026-04-11T14:34:57.002Z</time></trkpt><trkpt lat="44.4440260355484" lon="10.428125354959109"><ele>677.2</ele><time>2026-04-11T14:34:58.002Z</time></trkpt><trkpt lat="44.44395942052222" lon="10.428247767323851"><ele>678.8000000000001</ele><time>2026-04-11T14:34:59.002Z</time></trkpt><trkpt lat="44.44389815375827" lon="10.428382399637746"><ele>680.4000000000001</ele><time>2026-04-11T14:35:00.002Z</time></trkpt><trkpt lat="44.4438338884872" lon="10.428516903418394"><ele>682.0</ele><time>2026-04-11T14:35:01.002Z</time></trkpt><trkpt lat="44.443778337635145" lon="10.428654181702246"><ele>679.25</ele><time>2026-04-11T14:35:02.002Z</time></trkpt><trkpt lat="44.443717972238396" lon="10.428788157983496"><ele>676.5</ele><time>2026-04-11T14:35:03.002Z</time></trkpt><trkpt lat="44.4436558610455" lon="10.428923905001776"><ele>673.75</ele><time>2026-04-11T14:35:04.002Z</time></trkpt><trkpt lat="44.44359385804325" lon="10.429063807769213"><ele>671.0</ele><time>2026-04-11T14:35:05.002Z</time></trkpt><trkpt lat="44.44353373718082" lon="10.429205554283802"><ele>671.0</ele><time>2026-04-11T14:35:06.002Z</time></trkpt><trkpt lat="44.44347231424351" lon="10.429354672188326"><ele>671.0</ele><time>2026-04-11T14:35:07.001Z</time></trkpt><trkpt lat="44.443407759770245" lon="10.429495721881551"><ele>671.0</ele><time>2026-04-11T14:35:08.001Z</time></trkpt><trkpt lat="44.44334428975635" lon="10.429635767458318"><ele>671.0</ele><time>2026-04-11T14:35:09.001Z</time></trkpt><trkpt lat="44.4432822621654" lon="10.429779488320793"><ele>672.0</ele><time>2026-04-11T14:35:10.001Z</time></trkpt><trkpt lat="44.443221392753514" lon="10.429920966448497"><ele>673.0</ele><time>2026-04-11T14:35:11.001Z</time></trkpt><trkpt lat="44.443158435106255" lon="10.430061196133169"><ele>674.0</ele><time>2026-04-11T14:35:12.001Z</time></trkpt><trkpt lat="44.44310034902621" lon="10.430197279568562"><ele>675.0</ele><time>2026-04-11T14:35:13.001Z</time></trkpt><trkpt lat="44.44304347948338" lon="10.43033377457931"><ele>675.0</ele><time>2026-04-11T14:35:14.001Z</time></trkpt><trkpt lat="44.4429851703373" lon="10.43046392699515"><ele>675.0</ele><time>2026-04-11T14:35:15.001Z</time></trkpt><trkpt lat="44.4429150798305" lon="10.430598400298708"><ele>675.0</ele><time>2026-04-11T14:35:16.001Z</time></trkpt><trkpt lat="44.44283495861309" lon="10.430731642041073"><ele>675.0</ele><time>2026-04-11T14:35:17.001Z</time></trkpt><trkpt lat="44.44274985678464" lon="10.430868160527389"><ele>675.75</ele><time>2026-04-11T14:35:18.001Z</time></trkpt><trkpt lat="44.442670660974" lon="10.431009936475682"><ele>676.5</ele><time>2026-04-11T14:35:19.001Z</time></trkpt><trkpt lat="44.44258706012258" lon="10.431151932890792"><ele>677.25</ele><time>2026-04-11T14:35:20.001Z</time></trkpt><trkpt lat="44.4424879937173" lon="10.431280321777528"><ele>678.0</ele><time>2026-04-11T14:35:21.001Z</time></trkpt><trkpt lat="44.44236570892154" lon="10.431357048235984"><ele>678.0</ele><time>2026-04-11T14:35:22.001Z</time></trkpt><trkpt lat="44.442253348613235" lon="10.43146033278388"><ele>678.0</ele><time>2026-04-11T14:35:23.001Z</time></trkpt><trkpt lat="44.44212753670371" lon="10.431543370688054"><ele>678.0</ele><time>2026-04-11T14:35:24.001Z</time></trkpt><trkpt lat="44.442002856557565" lon="10.43162401197405"><ele>678.0</ele><time>2026-04-11T14:35:25.001Z</time></trkpt><trkpt lat="44.441875728575376" lon="10.43169603818234"><ele>677.25</ele><time>2026-04-11T14:35:26.001Z</time></trkpt><trkpt lat="44.441746331997194" lon="10.431716361075056"><ele>676.5</ele><time>2026-04-11T14:35:27.001Z</time></trkpt><trkpt lat="44.44163132181818" lon="10.431709434805567"><ele>675.75</ele><time>2026-04-11T14:35:28.001Z</time></trkpt><trkpt lat="44.44153202762561" lon="10.4316592696688"><ele>675.0</ele><time>2026-04-11T14:35:29.001Z</time></trkpt><trkpt lat="44.4414499659024" lon="10.431567089220872"><ele>675.0</ele><time>2026-04-11T14:35:30.001Z</time></trkpt><trkpt lat="44.44135913400658" lon="10.431469171984228"><ele>675.0</ele><time>2026-04-11T14:35:31.001Z</time></trkpt><trkpt lat="44.44126009816579" lon="10.4314004497854"><ele>675.0</ele><time>2026-04-11T14:35:32.001Z</time></trkpt><trkpt lat="44.44116502035182" lon="10.431345984942663"><ele>675.0</ele><time>2026-04-11T14:35:33.001Z</time></trkpt><trkpt lat="44.44105304059562" lon="10.43133028675862"><ele>675.0</ele><time>2026-04-11T14:35:34.001Z</time></trkpt><trkpt lat="44.44093222957464" lon="10.431342268817334"><ele>676.0</ele><time>2026-04-11T14:35:35.001Z</time></trkpt><trkpt lat="44.44080705081949" lon="10.431358293510486"><ele>677.0</ele><time>2026-04-11T14:35:36.001Z</time></trkpt><trkpt lat="44.44067992213368" lon="10.431364599256893"><ele>678.0</ele><time>2026-04-11T14:35:37Z</time></trkpt><trkpt lat="44.44055410950012" lon="10.431359937069256"><ele>679.0</ele><time>2026-04-11T14:35:38Z</time></trkpt><trkpt lat="44.44043137700617" lon="10.431348117181912"><ele>679.0</ele><time>2026-04-11T14:35:39Z</time></trkpt><trkpt lat="44.44030333360489" lon="10.4313340643263"><ele>679.0</ele><time>2026-04-11T14:35:40Z</time></trkpt><trkpt lat="44.440173900615015" lon="10.431328421577817"><ele>679.0</ele><time>2026-04-11T14:35:41Z</time></trkpt><trkpt lat="44.44003898435913" lon="10.431333876932637"><ele>679.0</ele><time>2026-04-11T14:35:42Z</time></trkpt><trkpt lat="44.43990495942222" lon="10.431322951233792"><ele>679.0</ele><time>2026-04-11T14:35:43Z</time></trkpt><trkpt lat="44.4397682342618" lon="10.431316148216734"><ele>679.0</ele><time>2026-04-11T14:35:44Z</time></trkpt><trkpt lat="44.43963686477198" lon="10.431317123375202"><ele>679.0</ele><time>2026-04-11T14:35:45Z</time></trkpt><trkpt lat="44.439509068377184" lon="10.431316797933844"><ele>679.0</ele><time>2026-04-11T14:35:46Z</time></trkpt><trkpt lat="44.43938686499361" lon="10.431308189988018"><ele>676.6</ele><time>2026-04-11T14:35:47Z</time></trkpt><trkpt lat="44.439274450338594" lon="10.431295942319073"><ele>674.2</ele><time>2026-04-11T14:35:48Z</time></trkpt><trkpt lat="44.43916894405374" lon="10.431288166874074"><ele>671.8000000000001</ele><time>2026-04-11T14:35:49Z</time></trkpt><trkpt lat="44.4390650134868" lon="10.431285324994509"><ele>669.4000000000001</ele><time>2026-04-11T14:35:50Z</time></trkpt><trkpt lat="44.438958594608394" lon="10.431284205446564"><ele>667.0</ele><time>2026-04-11T14:35:51Z</time></trkpt><trkpt lat="44.43884344408293" lon="10.43128239662058"><ele>667.5</ele><time>2026-04-11T14:35:52Z</time></trkpt><trkpt lat="44.438726956218645" lon="10.431286689868323"><ele>668.0</ele><time>2026-04-11T14:35:53Z</time></trkpt><trkpt lat="44.43860538092912" lon="10.431289876614127"><ele>668.5</ele><time>2026-04-11T14:35:54.001Z</time></trkpt><trkpt lat="44.43848322774245" lon="10.431277042712765"><ele>669.0</ele><time>2026-04-11T14:35:55.001Z</time></trkpt><trkpt lat="44.43836305446758" lon="10.43123947429646"><ele>669.0</ele><time>2026-04-11T14:35:56.001Z</time></trkpt><trkpt lat="44.43824790596376" lon="10.431181091936532"><ele>669.0</ele><time>2026-04-11T14:35:57.001Z</time></trkpt><trkpt lat="44.43813440239628" lon="10.43110523776836"><ele>669.0</ele><time>2026-04-11T14:35:58.001Z</time></trkpt><trkpt lat="44.43801505318225" lon="10.431031255237121"><ele>669.0</ele><time>2026-04-11T14:35:59.001Z</time></trkpt><trkpt lat="44.43789880471278" lon="10.430959030965678"><ele>670.0</ele><time>2026-04-11T14:36:00.001Z</time></trkpt><trkpt lat="44.43778055625421" lon="10.430890783837558"><ele>671.0</ele><time>2026-04-11T14:36:01.001Z</time></trkpt><trkpt lat="44.437672441484786" lon="10.43082780551848"><ele>672.0</ele><time>2026-04-11T14:36:02.001Z</time></trkpt><trkpt lat="44.43757934238297" lon="10.430776634456214"><ele>673.0</ele><time>2026-04-11T14:36:03.001Z</time></trkpt><trkpt lat="44.43749971584459" lon="10.430736981785246"><ele>674.0</ele><time>2026-04-11T14:36:04.001Z</time></trkpt><trkpt lat="44.437425872732895" lon="10.430707647380705"><ele>674.0</ele><time>2026-04-11T14:36:05.001Z</time></trkpt><trkpt lat="44.43736996339567" lon="10.430656241429537"><ele>674.0</ele><time>2026-04-11T14:36:06.001Z</time></trkpt><trkpt lat="44.437326188028" lon="10.430564128601974"><ele>674.0</ele><time>2026-04-11T14:36:07.001Z</time></trkpt><trkpt lat="44.43729310790394" lon="10.430451892413085"><ele>674.0</ele><time>2026-04-11T14:36:08.001Z</time></trkpt><trkpt lat="44.43725303644542" lon="10.43033189315784"><ele>674.0</ele><time>2026-04-11T14:36:09.001Z</time></trkpt><trkpt lat="44.43720775675664" lon="10.430208127326965"><ele>674.0</ele><time>2026-04-11T14:36:10.001Z</time></trkpt><trkpt lat="44.43715760840803" lon="10.430088863486342"><ele>673.0</ele><time>2026-04-11T14:36:11.001Z</time></trkpt><trkpt lat="44.437102035824054" lon="10.429964179021066"><ele>672.0</ele><time>2026-04-11T14:36:12.001Z</time></trkpt><trkpt lat="44.43704162966689" lon="10.4298379529099"><ele>671.0</ele><time>2026-04-11T14:36:13.001Z</time></trkpt><trkpt lat="44.43698957540793" lon="10.429707971698853"><ele>670.0</ele><time>2026-04-11T14:36:14.001Z</time></trkpt><trkpt lat="44.436951764165656" lon="10.429580662549917"><ele>669.0</ele><time>2026-04-11T14:36:15.001Z</time></trkpt><trkpt lat="44.43692960082729" lon="10.429475618428805"><ele>669.0</ele><time>2026-04-11T14:36:16.001Z</time></trkpt><trkpt lat="44.43691656071787" lon="10.429371175409944"><ele>669.0</ele><time>2026-04-11T14:36:17.001Z</time></trkpt><trkpt lat="44.43689906448816" lon="10.429255682116688"><ele>669.0</ele><time>2026-04-11T14:36:18.001Z</time></trkpt><trkpt lat="44.436886533225206" lon="10.429128984213316"><ele>669.0</ele><time>2026-04-11T14:36:19.001Z</time></trkpt><trkpt lat="44.43688163829197" lon="10.428992701194229"><ele>669.0</ele><time>2026-04-11T14:36:20.001Z</time></trkpt><trkpt lat="44.43688269227728" lon="10.428846810763444"><ele>669.0</ele><time>2026-04-11T14:36:21.001Z</time></trkpt><trkpt lat="44.4368845230712" lon="10.428696356132349"><ele>669.0</ele><time>2026-04-11T14:36:22.001Z</time></trkpt><trkpt lat="44.436886303439536" lon="10.42854263201335"><ele>669.0</ele><time>2026-04-11T14:36:23.001Z</time></trkpt><trkpt lat="44.43688591458175" lon="10.4283936573877"><ele>669.0</ele><time>2026-04-11T14:36:24.001Z</time></trkpt><trkpt lat="44.43687981845603" lon="10.428244751113914"><ele>669.0</ele><time>2026-04-11T14:36:25.001Z</time></trkpt><trkpt lat="44.4368686476276" lon="10.428097552195947"><ele>668.4000000000001</ele><time>2026-04-11T14:36:26.001Z</time></trkpt><trkpt lat="44.436852963039" lon="10.427945796974889"><ele>667.8</ele><time>2026-04-11T14:36:27.001Z</time></trkpt><trkpt lat="44.43684131783441" lon="10.427794432884756"><ele>667.2</ele><time>2026-04-11T14:36:28.001Z</time></trkpt><trkpt lat="44.43681945211619" lon="10.42764913185172"><ele>666.5999999999999</ele><time>2026-04-11T14:36:29.001Z</time></trkpt><trkpt lat="44.43680107134845" lon="10.427508650447336"><ele>666.0</ele><time>2026-04-11T14:36:30.001Z</time></trkpt><trkpt lat="44.43678446116889" lon="10.427371752315118"><ele>666.0</ele><time>2026-04-11T14:36:31.001Z</time></trkpt><trkpt lat="44.43676231410637" lon="10.427238577686916"><ele>666.0</ele><time>2026-04-11T14:36:32.001Z</time></trkpt><trkpt lat="44.436730077526974" lon="10.427110008976117"><ele>666.0</ele><time>2026-04-11T14:36:33.001Z</time></trkpt><trkpt lat="44.43669667360431" lon="10.426982207893072"><ele>666.0</ele><time>2026-04-11T14:36:34.001Z</time></trkpt><trkpt lat="44.436663449341474" lon="10.42685708006383"><ele>666.0</ele><time>2026-04-11T14:36:35.001Z</time></trkpt><trkpt lat="44.4366317289673" lon="10.426729919816463"><ele>665.1999999999999</ele><time>2026-04-11T14:36:36.001Z</time></trkpt><trkpt lat="44.436599508232995" lon="10.426609394860032"><ele>664.4</ele><time>2026-04-11T14:36:37.001Z</time></trkpt><trkpt lat="44.4365651887883" lon="10.426490138536504"><ele>663.6</ele><time>2026-04-11T14:36:38.001Z</time></trkpt><trkpt lat="44.436533753587355" lon="10.42637015640874"><ele>662.8</ele><time>2026-04-11T14:36:39.001Z</time></trkpt><trkpt lat="44.436498363615804" lon="10.42625385599516"><ele>662.0</ele><time>2026-04-11T14:36:40.001Z</time></trkpt><trkpt lat="44.436454622111206" lon="10.426145678588535"><ele>661.6666666666666</ele><time>2026-04-11T14:36:41.001Z</time></trkpt><trkpt lat="44.436391516983065" lon="10.426068027402438"><ele>661.3333333333333</ele><time>2026-04-11T14:36:42.001Z</time></trkpt><trkpt lat="44.436308534935264" lon="10.426026971899827"><ele>661.0</ele><time>2026-04-11T14:36:43.001Z</time></trkpt><trkpt lat="44.43622649651061" lon="10.426001595187167"><ele>660.6666666666666</ele><time>2026-04-11T14:36:44.001Z</time></trkpt><trkpt lat="44.43614926588603" lon="10.425981006112979"><ele>660.3333333333334</ele><time>2026-04-11T14:36:45.001Z</time></trkpt><trkpt lat="44.43607778008103" lon="10.42595515268604"><ele>660.0</ele><time>2026-04-11T14:36:46.001Z</time></trkpt><trkpt lat="44.43601026158592" lon="10.425927992502881"><ele>660.0</ele><time>2026-04-11T14:36:47.001Z</time></trkpt><trkpt lat="44.435947984371786" lon="10.425901142664088"><ele>660.0</ele><time>2026-04-11T14:36:48.001Z</time></trkpt><trkpt lat="44.43586686618635" lon="10.425917706039874"><ele>660.0</ele><time>2026-04-11T14:36:50.001Z</time></trkpt><trkpt lat="44.43580720104655" lon="10.425875656304726"><ele>660.0</ele><time>2026-04-11T14:36:52.001Z</time></trkpt><trkpt lat="44.43573993076103" lon="10.425796371557668"><ele>660.0</ele><time>2026-04-11T14:36:54.001Z</time></trkpt><trkpt lat="44.43566387227787" lon="10.425700684788984"><ele>660.0</ele><time>2026-04-11T14:36:56.001Z</time></trkpt><trkpt lat="44.435577559596254" lon="10.425588974675158"><ele>660.0000000000001</ele><time>2026-04-11T14:36:58.001Z</time></trkpt><trkpt lat="44.435531140556236" lon="10.42552152669027"><ele>660.0</ele><time>2026-04-11T14:36:59.001Z</time></trkpt><trkpt lat="44.43549270771329" lon="10.425435901646201"><ele>660.0</ele><time>2026-04-11T14:37:00.001Z</time></trkpt><trkpt lat="44.435461817628095" lon="10.425338909760338"><ele>660.0</ele><time>2026-04-11T14:37:01.001Z</time></trkpt><trkpt lat="44.43545562871964" lon="10.425228695880525"><ele>660.0</ele><time>2026-04-11T14:37:02.001Z</time></trkpt><trkpt lat="44.43546334482098" lon="10.425123304907133"><ele>660.0000000000001</ele><time>2026-04-11T14:37:03.001Z</time></trkpt><trkpt lat="44.43545427148508" lon="10.425026361174469"><ele>660.0</ele><time>2026-04-11T14:37:04.001Z</time></trkpt><trkpt lat="44.43537194025894" lon="10.42491070098127"><ele>661.0</ele><time>2026-04-11T14:37:06.001Z</time></trkpt><trkpt lat="44.435286608708175" lon="10.424867094492772"><ele>662.0</ele><time>2026-04-11T14:37:07.001Z</time></trkpt><trkpt lat="44.435217033147474" lon="10.42479495957452"><ele>663.0</ele><time>2026-04-11T14:37:08.001Z</time></trkpt><trkpt lat="44.435196527668005" lon="10.424694584508263"><ele>664.0</ele><time>2026-04-11T14:37:09.001Z</time></trkpt><trkpt lat="44.43521795216511" lon="10.42458912843743"><ele>665.0</ele><time>2026-04-11T14:37:10.001Z</time></trkpt><trkpt lat="44.435253316101814" lon="10.424440254575508"><ele>666.0</ele><time>2026-04-11T14:37:11.001Z</time></trkpt><trkpt lat="44.43526495219177" lon="10.424272322534026"><ele>668.0</ele><time>2026-04-11T14:37:12.001Z</time></trkpt><trkpt lat="44.43524577044641" lon="10.424118119951913"><ele>670.0</ele><time>2026-04-11T14:37:13.001Z</time></trkpt><trkpt lat="44.435217460298965" lon="10.423949249908055"><ele>672.0</ele><time>2026-04-11T14:37:14.001Z</time></trkpt><trkpt lat="44.43515813111986" lon="10.42379885778531"><ele>674.0</ele><time>2026-04-11T14:37:15.001Z</time></trkpt><trkpt lat="44.43511290749852" lon="10.423633844284703"><ele>674.0</ele><time>2026-04-11T14:37:16.001Z</time></trkpt><trkpt lat="44.43506488618229" lon="10.423463017684341"><ele>674.0</ele><time>2026-04-11T14:37:17.001Z</time></trkpt><trkpt lat="44.43501586472802" lon="10.423286884097445"><ele>674.0</ele><time>2026-04-11T14:37:18.001Z</time></trkpt><trkpt lat="44.43496493124646" lon="10.423106297566312"><ele>674.0</ele><time>2026-04-11T14:37:19.001Z</time></trkpt><trkpt lat="44.43491107635699" lon="10.422927610675988"><ele>673.0</ele><time>2026-04-11T14:37:20.002Z</time></trkpt><trkpt lat="44.43483920094208" lon="10.422764829184116"><ele>672.0</ele><time>2026-04-11T14:37:21.002Z</time></trkpt><trkpt lat="44.43473284097816" lon="10.422633085033377"><ele>671.0</ele><time>2026-04-11T14:37:22.002Z</time></trkpt><trkpt lat="44.43460885812867" lon="10.422524572758462"><ele>670.0</ele><time>2026-04-11T14:37:23.002Z</time></trkpt><trkpt lat="44.43448115713091" lon="10.422420750367861"><ele>672.0</ele><time>2026-04-11T14:37:24.002Z</time></trkpt><trkpt lat="44.43436931608018" lon="10.422324269298413"><ele>674.0</ele><time>2026-04-11T14:37:25.002Z</time></trkpt><trkpt lat="44.434266706666506" lon="10.422236250454686"><ele>676.0</ele><time>2026-04-11T14:37:26.002Z</time></trkpt><trkpt lat="44.43418169754705" lon="10.422160383391995"><ele>678.0</ele><time>2026-04-11T14:37:27.002Z</time></trkpt><trkpt lat="44.43411917309691" lon="10.422096282400076"><ele>680.0</ele><time>2026-04-11T14:37:28.001Z</time></trkpt><trkpt lat="44.43406534198662" lon="10.422033655785592"><ele>681.0</ele><time>2026-04-11T14:37:30.001Z</time></trkpt><trkpt lat="44.4341018480045" lon="10.422290809080842"><ele>682.0</ele><time>2026-04-11T14:37:33.001Z</time></trkpt><trkpt lat="44.4341698259076" lon="10.422375993841467"><ele>683.0</ele><time>2026-04-11T14:37:34.001Z</time></trkpt><trkpt lat="44.43423194170135" lon="10.422490116498096"><ele>684.0</ele><time>2026-04-11T14:37:35.001Z</time></trkpt><trkpt lat="44.43429603340151" lon="10.422618993602109"><ele>684.0</ele><time>2026-04-11T14:37:36.001Z</time></trkpt><trkpt lat="44.434348220983566" lon="10.42275584962892"><ele>684.0</ele><time>2026-04-11T14:37:37.001Z</time></trkpt><trkpt lat="44.43438733373993" lon="10.422906319809432"><ele>684.0</ele><time>2026-04-11T14:37:38.001Z</time></trkpt><trkpt lat="44.43441197527478" lon="10.42307004413056"><ele>684.0</ele><time>2026-04-11T14:37:39.001Z</time></trkpt><trkpt lat="44.43442217085609" lon="10.423245526669469"><ele>685.0</ele><time>2026-04-11T14:37:40.001Z</time></trkpt><trkpt lat="44.43442990236711" lon="10.423419351793598"><ele>686.0</ele><time>2026-04-11T14:37:41.001Z</time></trkpt><trkpt lat="44.434436578166064" lon="10.423600434726962"><ele>687.0</ele><time>2026-04-11T14:37:42.001Z</time></trkpt><trkpt lat="44.43443672562337" lon="10.423756449759079"><ele>688.0</ele><time>2026-04-11T14:37:43.001Z</time></trkpt><trkpt lat="44.43440841222812" lon="10.423899027652352"><ele>688.0</ele><time>2026-04-11T14:37:44.001Z</time></trkpt><trkpt lat="44.43434771804509" lon="10.424031886014872"><ele>688.0</ele><time>2026-04-11T14:37:45.001Z</time></trkpt><trkpt lat="44.43425375607493" lon="10.424137444742524"><ele>688.0</ele><time>2026-04-11T14:37:46.001Z</time></trkpt><trkpt lat="44.43412180073609" lon="10.424260982579636"><ele>688.0</ele><time>2026-04-11T14:37:47.001Z</time></trkpt><trkpt lat="44.4339502004494" lon="10.424425606161714"><ele>690.0</ele><time>2026-04-11T14:37:48.001Z</time></trkpt><trkpt lat="44.433787219732956" lon="10.424570149194457"><ele>692.0</ele><time>2026-04-11T14:37:49.001Z</time></trkpt><trkpt lat="44.43364481233691" lon="10.424681712233834"><ele>694.0</ele><time>2026-04-11T14:37:50.001Z</time></trkpt><trkpt lat="44.4335290657123" lon="10.424816543841327"><ele>694.0</ele><time>2026-04-11T14:37:51.001Z</time></trkpt><trkpt lat="44.43342523198344" lon="10.424929041651602"><ele>694.0</ele><time>2026-04-11T14:37:52.001Z</time></trkpt><trkpt lat="44.4333234284137" lon="10.425077628447255"><ele>694.0</ele><time>2026-04-11T14:37:53.001Z</time></trkpt><trkpt lat="44.43327319472473" lon="10.425254689609122"><ele>694.0</ele><time>2026-04-11T14:37:54.001Z</time></trkpt><trkpt lat="44.43325883318623" lon="10.425403093495959"><ele>694.0</ele><time>2026-04-11T14:37:55.001Z</time></trkpt><trkpt lat="44.43324568344388" lon="10.425546783439373"><ele>694.0</ele><time>2026-04-11T14:37:56.001Z</time></trkpt><trkpt lat="44.433232613325075" lon="10.425675447297683"><ele>694.0</ele><time>2026-04-11T14:37:57.001Z</time></trkpt><trkpt lat="44.433217861680745" lon="10.425801028616863"><ele>694.0</ele><time>2026-04-11T14:37:58.001Z</time></trkpt><trkpt lat="44.43321537306419" lon="10.425937880729851"><ele>694.0</ele><time>2026-04-11T14:37:59.001Z</time></trkpt><trkpt lat="44.433199015618776" lon="10.42608177680665"><ele>694.0</ele><time>2026-04-11T14:38:00.001Z</time></trkpt><trkpt lat="44.433186031651836" lon="10.426226624527674"><ele>694.0</ele><time>2026-04-11T14:38:01.001Z</time></trkpt><trkpt lat="44.4331718050016" lon="10.426374627355171"><ele>694.0</ele><time>2026-04-11T14:38:02.001Z</time></trkpt><trkpt lat="44.433155572018265" lon="10.426521961513807"><ele>694.0</ele><time>2026-04-11T14:38:03.001Z</time></trkpt><trkpt lat="44.43313027202863" lon="10.42666990934283"><ele>694.0</ele><time>2026-04-11T14:38:04.001Z</time></trkpt><trkpt lat="44.43308377469122" lon="10.426808031191667"><ele>694.0</ele><time>2026-04-11T14:38:05.001Z</time></trkpt><trkpt lat="44.43300983669911" lon="10.426921803883195"><ele>694.0</ele><time>2026-04-11T14:38:06.001Z</time></trkpt><trkpt lat="44.432912798700364" lon="10.427018304523752"><ele>694.0</ele><time>2026-04-11T14:38:07.001Z</time></trkpt><trkpt lat="44.4328202374207" lon="10.427140910706923"><ele>694.0</ele><time>2026-04-11T14:38:08.001Z</time></trkpt><trkpt lat="44.43275286798195" lon="10.427299111145674"><ele>697.25</ele><time>2026-04-11T14:38:09.001Z</time></trkpt><trkpt lat="44.43270795011722" lon="10.427475273946712"><ele>700.5</ele><time>2026-04-11T14:38:10.001Z</time></trkpt><trkpt lat="44.4326801455855" lon="10.42766789184586"><ele>703.75</ele><time>2026-04-11T14:38:11.001Z</time></trkpt><trkpt lat="44.4326565031214" lon="10.4278713891138"><ele>707.0</ele><time>2026-04-11T14:38:12.001Z</time></trkpt><trkpt lat="44.43264113508092" lon="10.428079272566924"><ele>707.0</ele><time>2026-04-11T14:38:13.001Z</time></trkpt><trkpt lat="44.43263245705477" lon="10.428274477447802"><ele>707.0</ele><time>2026-04-11T14:38:14.001Z</time></trkpt><trkpt lat="44.432619030357955" lon="10.428442901701032"><ele>707.0</ele><time>2026-04-11T14:38:15.001Z</time></trkpt><trkpt lat="44.43259859180584" lon="10.428584784531603"><ele>707.0</ele><time>2026-04-11T14:38:16.001Z</time></trkpt><trkpt lat="44.432593630953335" lon="10.428704358607925"><ele>707.6</ele><time>2026-04-11T14:38:17.001Z</time></trkpt><trkpt lat="44.432616354325454" lon="10.428813161555999"><ele>708.2</ele><time>2026-04-11T14:38:18.001Z</time></trkpt><trkpt lat="44.43265922514017" lon="10.428939273538166"><ele>708.8</ele><time>2026-04-11T14:38:19.001Z</time></trkpt><trkpt lat="44.43268617953854" lon="10.429083053394072"><ele>709.4</ele><time>2026-04-11T14:38:20.001Z</time></trkpt><trkpt lat="44.43268361919562" lon="10.429220656366441"><ele>710.0</ele><time>2026-04-11T14:38:21.001Z</time></trkpt><trkpt lat="44.43263695526989" lon="10.429317438253943"><ele>710.0</ele><time>2026-04-11T14:38:22.001Z</time></trkpt><trkpt lat="44.43256301396909" lon="10.429339862585516"><ele>710.0</ele><time>2026-04-11T14:38:23.001Z</time></trkpt><trkpt lat="44.43246913634322" lon="10.42931707192412"><ele>710.0</ele><time>2026-04-11T14:38:24.001Z</time></trkpt><trkpt lat="44.432376497816335" lon="10.429259240874751"><ele>710.0</ele><time>2026-04-11T14:38:25.001Z</time></trkpt><trkpt lat="44.432281146406105" lon="10.429186085740957"><ele>710.0</ele><time>2026-04-11T14:38:26.001Z</time></trkpt><trkpt lat="44.432179814827855" lon="10.429111681759306"><ele>709.5</ele><time>2026-04-11T14:38:27.001Z</time></trkpt><trkpt lat="44.43208025366827" lon="10.429019792203956"><ele>709.0</ele><time>2026-04-11T14:38:28.001Z</time></trkpt><trkpt lat="44.43198180249064" lon="10.428918321450988"><ele>708.5</ele><time>2026-04-11T14:38:29.001Z</time></trkpt><trkpt lat="44.43187981372058" lon="10.428812274446898"><ele>708.0</ele><time>2026-04-11T14:38:30.001Z</time></trkpt><trkpt lat="44.43179207649364" lon="10.428674444177744"><ele>711.25</ele><time>2026-04-11T14:38:31.001Z</time></trkpt><trkpt lat="44.43168708961871" lon="10.428572876684933"><ele>714.5</ele><time>2026-04-11T14:38:32.001Z</time></trkpt><trkpt lat="44.43157249566529" lon="10.428517264052825"><ele>717.75</ele><time>2026-04-11T14:38:33.001Z</time></trkpt><trkpt lat="44.43146286350928" lon="10.428481730846688"><ele>721.0</ele><time>2026-04-11T14:38:34.001Z</time></trkpt><trkpt lat="44.43135949134294" lon="10.42846034793262"><ele>722.0</ele><time>2026-04-11T14:38:35.001Z</time></trkpt><trkpt lat="44.431274336577545" lon="10.428465440608711"><ele>723.0</ele><time>2026-04-11T14:38:36.001Z</time></trkpt><trkpt lat="44.43120703886031" lon="10.428444982738181"><ele>724.0</ele><time>2026-04-11T14:38:37.001Z</time></trkpt><trkpt lat="44.43112979790974" lon="10.428424929462409"><ele>725.0</ele><time>2026-04-11T14:38:39.001Z</time></trkpt><trkpt lat="44.431050486690346" lon="10.428428457753384"><ele>726.0</ele><time>2026-04-11T14:38:41.001Z</time></trkpt><trkpt lat="44.430984563964145" lon="10.428443267087015"><ele>727.0</ele><time>2026-04-11T14:38:42.001Z</time></trkpt><trkpt lat="44.430909752332475" lon="10.428471824143976"><ele>727.0</ele><time>2026-04-11T14:38:43.001Z</time></trkpt><trkpt lat="44.43082329225111" lon="10.428506160481044"><ele>727.0</ele><time>2026-04-11T14:38:44.001Z</time></trkpt><trkpt lat="44.43072660993038" lon="10.428540835394688"><ele>727.0</ele><time>2026-04-11T14:38:45.001Z</time></trkpt><trkpt lat="44.43061621872599" lon="10.42857028254563"><ele>727.0</ele><time>2026-04-11T14:38:46.001Z</time></trkpt><trkpt lat="44.43049954577475" lon="10.428594031545622"><ele>727.0</ele><time>2026-04-11T14:38:47.001Z</time></trkpt><trkpt lat="44.430391433777395" lon="10.428611054180097"><ele>726.6</ele><time>2026-04-11T14:38:48.001Z</time></trkpt><trkpt lat="44.43028389618556" lon="10.428624934648257"><ele>726.2</ele><time>2026-04-11T14:38:49.001Z</time></trkpt><trkpt lat="44.43017465878371" lon="10.428630752433953"><ele>725.8</ele><time>2026-04-11T14:38:50.001Z</time></trkpt><trkpt lat="44.43006977426101" lon="10.428605676201009"><ele>725.4</ele><time>2026-04-11T14:38:51.001Z</time></trkpt><trkpt lat="44.42996741852836" lon="10.42853979299471"><ele>725.0</ele><time>2026-04-11T14:38:52.001Z</time></trkpt><trkpt lat="44.42988224548538" lon="10.428444768849237"><ele>725.0</ele><time>2026-04-11T14:38:53.001Z</time></trkpt><trkpt lat="44.42981126707524" lon="10.428358849257243"><ele>725.0</ele><time>2026-04-11T14:38:54.001Z</time></trkpt><trkpt lat="44.42974623068017" lon="10.428282821245594"><ele>725.0</ele><time>2026-04-11T14:38:55.001Z</time></trkpt><trkpt lat="44.4296765745021" lon="10.42822453310601"><ele>725.0</ele><time>2026-04-11T14:38:56.001Z</time></trkpt><trkpt lat="44.42959719481502" lon="10.42819313074935"><ele>725.0</ele><time>2026-04-11T14:38:57.001Z</time></trkpt><trkpt lat="44.42951463313072" lon="10.428180057439016"><ele>725.0</ele><time>2026-04-11T14:38:58.001Z</time></trkpt><trkpt lat="44.42942782760364" lon="10.428186364820688"><ele>725.4</ele><time>2026-04-11T14:38:59.001Z</time></trkpt><trkpt lat="44.429340832334304" lon="10.428208890848142"><ele>725.8</ele><time>2026-04-11T14:39:00.001Z</time></trkpt><trkpt lat="44.42925522558959" lon="10.428258457089221"><ele>726.2</ele><time>2026-04-11T14:39:01.001Z</time></trkpt><trkpt lat="44.429183050096206" lon="10.42834063635438"><ele>726.6</ele><time>2026-04-11T14:39:02.002Z</time></trkpt><trkpt lat="44.429141157800835" lon="10.428458693566986"><ele>727.0</ele><time>2026-04-11T14:39:03.002Z</time></trkpt><trkpt lat="44.42911904242568" lon="10.428590365780336"><ele>727.0</ele><time>2026-04-11T14:39:04.002Z</time></trkpt><trkpt lat="44.42908985481985" lon="10.428711411238552"><ele>727.0</ele><time>2026-04-11T14:39:05.002Z</time></trkpt><trkpt lat="44.429063638964216" lon="10.428831253763978"><ele>727.0</ele><time>2026-04-11T14:39:06.002Z</time></trkpt><trkpt lat="44.429039277690784" lon="10.428950358374168"><ele>727.0</ele><time>2026-04-11T14:39:07.002Z</time></trkpt><trkpt lat="44.4290152196408" lon="10.429060837576781"><ele>727.0</ele><time>2026-04-11T14:39:08.002Z</time></trkpt><trkpt lat="44.428993206970326" lon="10.429165559325128"><ele>727.0</ele><time>2026-04-11T14:39:09.002Z</time></trkpt><trkpt lat="44.428968630775216" lon="10.429275831293483"><ele>727.0</ele><time>2026-04-11T14:39:10.002Z</time></trkpt><trkpt lat="44.4289469814426" lon="10.429361481496567"><ele>727.0</ele><time>2026-04-11T14:39:11.002Z</time></trkpt><trkpt lat="44.42894816012549" lon="10.429273249528052"><ele>727.0</ele><time>2026-04-11T14:39:22.002Z</time></trkpt><trkpt lat="44.428987277154356" lon="10.429112155132707"><ele>727.0</ele><time>2026-04-11T14:39:24.002Z</time></trkpt><trkpt lat="44.42900571126158" lon="10.429010293973661"><ele>727.0</ele><time>2026-04-11T14:39:25.002Z</time></trkpt><trkpt lat="44.428900483365354" lon="10.428768832878687"><ele>727.0</ele><time>2026-04-11T14:39:26.002Z</time></trkpt><trkpt lat="44.42890287172607" lon="10.428648863332363"><ele>727.0</ele><time>2026-04-11T14:39:27.002Z</time></trkpt><trkpt lat="44.428904146651824" lon="10.428550776875033"><ele>727.0</ele><time>2026-04-11T14:39:28.002Z</time></trkpt><trkpt lat="44.42889474961059" lon="10.42840896959331"><ele>727.0</ele><time>2026-04-11T14:39:30.002Z</time></trkpt><trkpt lat="44.42887343131141" lon="10.42832450248131"><ele>727.0</ele><time>2026-04-11T14:39:33.001Z</time></trkpt><trkpt lat="44.42885087603679" lon="10.428239031091724"><ele>727.0</ele><time>2026-04-11T14:39:36.001Z</time></trkpt><trkpt lat="44.42882551274084" lon="10.42809363177683"><ele>729.4000000000001</ele><time>2026-04-11T14:39:40.001Z</time></trkpt><trkpt lat="44.428939923492266" lon="10.427951130471875"><ele>731.8000000000001</ele><time>2026-04-11T14:39:41.001Z</time></trkpt><trkpt lat="44.42893492738883" lon="10.427846505623231"><ele>734.2</ele><time>2026-04-11T14:39:42.001Z</time></trkpt><trkpt lat="44.42892868660965" lon="10.427754947618132"><ele>736.6</ele><time>2026-04-11T14:39:43.001Z</time></trkpt><trkpt lat="44.42893441728516" lon="10.427583337258248"><ele>739.0</ele><time>2026-04-11T14:39:45.001Z</time></trkpt><trkpt lat="44.428930657533634" lon="10.427488122236339"><ele>739.0</ele><time>2026-04-11T14:39:46.001Z</time></trkpt><trkpt lat="44.428907255999" lon="10.427405980022101"><ele>739.0</ele><time>2026-04-11T14:39:47.001Z</time></trkpt><trkpt lat="44.42885787734706" lon="10.427247129762806"><ele>739.0</ele><time>2026-04-11T14:39:49Z</time></trkpt><trkpt lat="44.42881130206245" lon="10.427066871572134"><ele>739.0</ele><time>2026-04-11T14:39:51Z</time></trkpt><trkpt lat="44.42876313081947" lon="10.426900928511419"><ele>742.0</ele><time>2026-04-11T14:39:53Z</time></trkpt><trkpt lat="44.42871820572813" lon="10.426728236362765"><ele>745.0</ele><time>2026-04-11T14:39:55Z</time></trkpt><trkpt lat="44.42872713764301" lon="10.426614190078782"><ele>748.0</ele><time>2026-04-11T14:39:57Z</time></trkpt><trkpt lat="44.42877191877725" lon="10.426512274967822"><ele>751.0</ele><time>2026-04-11T14:40:00Z</time></trkpt><trkpt lat="44.428761916127364" lon="10.426369690729484"><ele>754.0</ele><time>2026-04-11T14:40:08Z</time></trkpt><trkpt lat="44.428739758521715" lon="10.426244012792187"><ele>756.0</ele><time>2026-04-11T14:40:10Z</time></trkpt><trkpt lat="44.42872545145974" lon="10.42612333158873"><ele>758.0</ele><time>2026-04-11T14:40:19Z</time></trkpt><trkpt lat="44.42870342565145" lon="10.42602528372903"><ele>760.0</ele><time>2026-04-11T14:40:21Z</time></trkpt><trkpt lat="44.42868019901258" lon="10.425918471454652"><ele>762.0</ele><time>2026-04-11T14:40:23Z</time></trkpt><trkpt lat="44.42867983695604" lon="10.42580331189733"><ele>764.0</ele><time>2026-04-11T14:40:25Z</time></trkpt><trkpt lat="44.42866447407582" lon="10.425674711599612"><ele>766.0</ele><time>2026-04-11T14:40:27.001Z</time></trkpt><trkpt lat="44.42862354174266" lon="10.425575512500767"><ele>766.0</ele><time>2026-04-11T14:40:29.001Z</time></trkpt><trkpt lat="44.42854368054167" lon="10.425531191321536"><ele>766.0</ele><time>2026-04-11T14:40:31.001Z</time></trkpt><trkpt lat="44.42846138988001" lon="10.425484168759127"><ele>766.0</ele><time>2026-04-11T14:40:33.001Z</time></trkpt><trkpt lat="44.428348972228726" lon="10.425422034541002"><ele>766.0</ele><time>2026-04-11T14:40:35.001Z</time></trkpt><trkpt lat="44.428285323708764" lon="10.425389333230589"><ele>766.0</ele><time>2026-04-11T14:40:36.001Z</time></trkpt><trkpt lat="44.428216091636564" lon="10.425352259914638"><ele>766.0</ele><time>2026-04-11T14:40:37.001Z</time></trkpt><trkpt lat="44.42815834863848" lon="10.425316365741999"><ele>768.0</ele><time>2026-04-11T14:40:38.001Z</time></trkpt><trkpt lat="44.42806050565518" lon="10.425253077699576"><ele>770.0</ele><time>2026-04-11T14:40:40.001Z</time></trkpt><trkpt lat="44.427976343512896" lon="10.425185153259566"><ele>772.0</ele><time>2026-04-11T14:40:42.001Z</time></trkpt><trkpt lat="44.4279153411801" lon="10.42511169203403"><ele>774.0</ele><time>2026-04-11T14:40:44.001Z</time></trkpt><trkpt lat="44.42786495259663" lon="10.425026631413191"><ele>776.0</ele><time>2026-04-11T14:40:46.001Z</time></trkpt><trkpt lat="44.42783431165646" lon="10.424904583661323"><ele>776.4</ele><time>2026-04-11T14:40:48.001Z</time></trkpt><trkpt lat="44.427817374621306" lon="10.424744860263804"><ele>776.8</ele><time>2026-04-11T14:40:50.001Z</time></trkpt><trkpt lat="44.42781082086268" lon="10.42464186587178"><ele>777.1999999999999</ele><time>2026-04-11T14:40:51.001Z</time></trkpt><trkpt lat="44.42778971245216" lon="10.424491820364482"><ele>777.5999999999999</ele><time>2026-04-11T14:40:53.001Z</time></trkpt><trkpt lat="44.42777341570492" lon="10.4243325823117"><ele>778.0</ele><time>2026-04-11T14:40:55.001Z</time></trkpt><trkpt lat="44.42776151184637" lon="10.424245497864572"><ele>780.4</ele><time>2026-04-11T14:40:56.001Z</time></trkpt><trkpt lat="44.42773275076701" lon="10.424088486319643"><ele>782.8</ele><time>2026-04-11T14:40:58.001Z</time></trkpt><trkpt lat="44.42771101704152" lon="10.423952463098319"><ele>785.2</ele><time>2026-04-11T14:41:00.001Z</time></trkpt><trkpt lat="44.42769282367422" lon="10.423788098208567"><ele>787.6</ele><time>2026-04-11T14:41:02.001Z</time></trkpt><trkpt lat="44.427675998468175" lon="10.423701136440735"><ele>790.0</ele><time>2026-04-11T14:41:03.001Z</time></trkpt><trkpt lat="44.42765644967109" lon="10.423613531563946"><ele>791.3333333333333</ele><time>2026-04-11T14:41:04.001Z</time></trkpt><trkpt lat="44.42763295923754" lon="10.423528767646491"><ele>792.6666666666666</ele><time>2026-04-11T14:41:05.001Z</time></trkpt><trkpt lat="44.427560827004164" lon="10.423421080484042"><ele>794.0</ele><time>2026-04-11T14:41:07.001Z</time></trkpt><trkpt lat="44.427478749801345" lon="10.423359419581958"><ele>795.3333333333333</ele><time>2026-04-11T14:41:09.001Z</time></trkpt><trkpt lat="44.4273783368203" lon="10.423342695055187"><ele>796.6666666666666</ele><time>2026-04-11T14:41:11.001Z</time></trkpt><trkpt lat="44.42732099181079" lon="10.423301019712538"><ele>798.0</ele><time>2026-04-11T14:41:13.001Z</time></trkpt><trkpt lat="44.427194347240885" lon="10.42310746195334"><ele>798.8333333333334</ele><time>2026-04-11T14:41:16.001Z</time></trkpt><trkpt lat="44.42713230123826" lon="10.423038479904953"><ele>799.6666666666667</ele><time>2026-04-11T14:41:17.001Z</time></trkpt><trkpt lat="44.42702416243618" lon="10.422980666302948"><ele>800.5</ele><time>2026-04-11T14:41:19.001Z</time></trkpt><trkpt lat="44.42696650407765" lon="10.42292865920039"><ele>801.3333333333334</ele><time>2026-04-11T14:41:28.001Z</time></trkpt><trkpt lat="44.42691188560996" lon="10.422867470761581"><ele>802.1666666666667</ele><time>2026-04-11T14:41:29.001Z</time></trkpt><trkpt lat="44.426857762686836" lon="10.422806388216376"><ele>803.0</ele><time>2026-04-11T14:41:30.001Z</time></trkpt><trkpt lat="44.42678608182154" lon="10.422725982592384"><ele>804.1666666666667</ele><time>2026-04-11T14:41:31.001Z</time></trkpt><trkpt lat="44.42670839148475" lon="10.422656480605927"><ele>805.3333333333334</ele><time>2026-04-11T14:41:32.001Z</time></trkpt><trkpt lat="44.42665191690967" lon="10.42260473537245"><ele>806.5</ele><time>2026-04-11T14:41:33.001Z</time></trkpt><trkpt lat="44.42658621003825" lon="10.422544102191056"><ele>807.6666666666667</ele><time>2026-04-11T14:42:01.001Z</time></trkpt><trkpt lat="44.426512803272566" lon="10.422454818988161"><ele>808.8333333333334</ele><time>2026-04-11T14:42:03.001Z</time></trkpt><trkpt lat="44.42643665519503" lon="10.422386996000386"><ele>810.0</ele><time>2026-04-11T14:42:05.001Z</time></trkpt><trkpt lat="44.42637619546308" lon="10.422353911552149"><ele>810.0</ele><time>2026-04-11T14:43:46.001Z</time></trkpt><trkpt lat="44.42631226631655" lon="10.422289111478632"><ele>810.0</ele><time>2026-04-11T14:43:56Z</time></trkpt><trkpt lat="44.42623363342424" lon="10.422223475751586"><ele>810.0</ele><time>2026-04-11T14:43:58Z</time></trkpt><trkpt lat="44.42613463594747" lon="10.422141617808192"><ele>810.0</ele><time>2026-04-11T14:44:00Z</time></trkpt><trkpt lat="44.42607511151525" lon="10.422092204959727"><ele>810.0</ele><time>2026-04-11T14:44:01Z</time></trkpt><trkpt lat="44.426012922289814" lon="10.422043507504217"><ele>810.0</ele><time>2026-04-11T14:44:02Z</time></trkpt><trkpt lat="44.42595254019415" lon="10.421998876399563"><ele>812.3333333333334</ele><time>2026-04-11T14:44:03Z</time></trkpt><trkpt lat="44.425898117787916" lon="10.421953708040453"><ele>814.6666666666667</ele><time>2026-04-11T14:44:04Z</time></trkpt><trkpt lat="44.42580294936915" lon="10.421855266457333"><ele>817.0</ele><time>2026-04-11T14:44:06Z</time></trkpt><trkpt lat="44.42572991635532" lon="10.421768859225057"><ele>819.3333333333334</ele><time>2026-04-11T14:44:08Z</time></trkpt><trkpt lat="44.42571525945501" lon="10.421663148721903"><ele>821.6666666666667</ele><time>2026-04-11T14:44:11Z</time></trkpt><trkpt lat="44.42569786631725" lon="10.421577384487387"><ele>824.0</ele><time>2026-04-11T14:44:13Z</time></trkpt><trkpt lat="44.425661772624665" lon="10.421452896987885"><ele>824.0</ele><time>2026-04-11T14:44:15Z</time></trkpt><trkpt lat="44.425655561296836" lon="10.421331322942525"><ele>824.0</ele><time>2026-04-11T14:44:17Z</time></trkpt><trkpt lat="44.425658491239794" lon="10.421498706052985"><ele>824.0</ele><time>2026-04-11T14:44:32Z</time></trkpt><trkpt lat="44.42569798023647" lon="10.42163888537364"><ele>824.0</ele><time>2026-04-11T14:44:34Z</time></trkpt><trkpt lat="44.42572007842047" lon="10.421773133680398"><ele>824.0</ele><time>2026-04-11T14:44:36Z</time></trkpt><trkpt lat="44.42572685657126" lon="10.421920402236154"><ele>824.0</ele><time>2026-04-11T14:44:38Z</time></trkpt><trkpt lat="44.42571656785997" lon="10.422081369301463"><ele>824.0</ele><time>2026-04-11T14:44:40Z</time></trkpt><trkpt lat="44.42571246583843" lon="10.422253694270047"><ele>824.0</ele><time>2026-04-11T14:44:42Z</time></trkpt><trkpt lat="44.425707441656286" lon="10.422350802804566"><ele>824.0</ele><time>2026-04-11T14:44:43Z</time></trkpt><trkpt lat="44.425701084618765" lon="10.422521687472273"><ele>824.0</ele><time>2026-04-11T14:44:45Z</time></trkpt><trkpt lat="44.42568571599846" lon="10.422607760362512"><ele>822.8571428571428</ele><time>2026-04-11T14:44:46Z</time></trkpt><trkpt lat="44.425668102040504" lon="10.422701739280988"><ele>821.7142857142857</ele><time>2026-04-11T14:44:47Z</time></trkpt><trkpt lat="44.42565202637866" lon="10.42280605859354"><ele>820.5714285714286</ele><time>2026-04-11T14:44:48Z</time></trkpt><trkpt lat="44.425642811612626" lon="10.422895559011444"><ele>819.4285714285713</ele><time>2026-04-11T14:44:49Z</time></trkpt><trkpt lat="44.42563362082044" lon="10.422988266774384"><ele>818.2857142857143</ele><time>2026-04-11T14:44:50Z</time></trkpt><trkpt lat="44.42562630802163" lon="10.423087288720419"><ele>817.1428571428571</ele><time>2026-04-11T14:44:51Z</time></trkpt><trkpt lat="44.42561634306123" lon="10.423193926502131"><ele>816.0</ele><time>2026-04-11T14:44:52Z</time></trkpt><trkpt lat="44.4256016586168" lon="10.423288415346391"><ele>813.5999999999999</ele><time>2026-04-11T14:44:53Z</time></trkpt><trkpt lat="44.425573494027944" lon="10.423457494569071"><ele>811.2</ele><time>2026-04-11T14:44:55Z</time></trkpt><trkpt lat="44.42552971042621" lon="10.4236139191795"><ele>808.8</ele><time>2026-04-11T14:44:57Z</time></trkpt><trkpt lat="44.4254780446035" lon="10.423727911731381"><ele>806.4000000000001</ele><time>2026-04-11T14:44:59Z</time></trkpt><trkpt lat="44.4254292874217" lon="10.42383573681199"><ele>804.0</ele><time>2026-04-11T14:45:01Z</time></trkpt><trkpt lat="44.42537284772666" lon="10.423933919529222"><ele>801.6666666666666</ele><time>2026-04-11T14:45:03Z</time></trkpt><trkpt lat="44.42532533049945" lon="10.423997105228262"><ele>799.3333333333333</ele><time>2026-04-11T14:45:06Z</time></trkpt><trkpt lat="44.42528342986856" lon="10.424068767049247"><ele>797.0</ele><time>2026-04-11T14:45:08Z</time></trkpt><trkpt lat="44.425239674484004" lon="10.424174577376109"><ele>794.6666666666666</ele><time>2026-04-11T14:45:10Z</time></trkpt><trkpt lat="44.42517873671648" lon="10.424275720412489"><ele>792.3333333333333</ele><time>2026-04-11T14:45:12Z</time></trkpt><trkpt lat="44.42510559899097" lon="10.42437433157238"><ele>790.0</ele><time>2026-04-11T14:45:14Z</time></trkpt><trkpt lat="44.42501627682055" lon="10.424478157871318"><ele>790.0</ele><time>2026-04-11T14:45:16Z</time></trkpt><trkpt lat="44.42493598130095" lon="10.424574210746805"><ele>790.0</ele><time>2026-04-11T14:45:18Z</time></trkpt><trkpt lat="44.42490361563243" lon="10.424680476667467"><ele>790.0</ele><time>2026-04-11T14:45:20Z</time></trkpt><trkpt lat="44.424915535510024" lon="10.42477498129949"><ele>790.0</ele><time>2026-04-11T14:45:22Z</time></trkpt><trkpt lat="44.424918172353735" lon="10.424874459470091"><ele>790.0</ele><time>2026-04-11T14:45:24Z</time></trkpt><trkpt lat="44.424920875560424" lon="10.425047603317608"><ele>788.2</ele><time>2026-04-11T14:45:26Z</time></trkpt><trkpt lat="44.424908315982925" lon="10.425228296851683"><ele>786.4</ele><time>2026-04-11T14:45:28Z</time></trkpt><trkpt lat="44.42490291904574" lon="10.425320032728916"><ele>784.5999999999999</ele><time>2026-04-11T14:45:29Z</time></trkpt><trkpt lat="44.42489096888183" lon="10.425481337340445"><ele>782.8</ele><time>2026-04-11T14:45:31Z</time></trkpt><trkpt lat="44.42483604660192" lon="10.425592603441725"><ele>781.0</ele><time>2026-04-11T14:45:33Z</time></trkpt><trkpt lat="44.42475518605024" lon="10.425683955658053"><ele>778.25</ele><time>2026-04-11T14:45:35Z</time></trkpt><trkpt lat="44.42468078213294" lon="10.425798019090566"><ele>775.5</ele><time>2026-04-11T14:45:37Z</time></trkpt><trkpt lat="44.42463780519436" lon="10.4259341518085"><ele>772.75</ele><time>2026-04-11T14:45:39Z</time></trkpt><trkpt lat="44.42459033898478" lon="10.426077749015564"><ele>770.0</ele><time>2026-04-11T14:45:41.001Z</time></trkpt><trkpt lat="44.42451012477519" lon="10.426206870839989"><ele>768.1666666666667</ele><time>2026-04-11T14:45:43.001Z</time></trkpt><trkpt lat="44.42443535709099" lon="10.426277949608757"><ele>766.3333333333334</ele><time>2026-04-11T14:45:45.001Z</time></trkpt><trkpt lat="44.42437489289276" lon="10.426335578050775"><ele>764.5</ele><time>2026-04-11T14:45:47.001Z</time></trkpt><trkpt lat="44.424313892407255" lon="10.426404797712966"><ele>762.6666666666667</ele><time>2026-04-11T14:45:49.001Z</time></trkpt><trkpt lat="44.42424630629375" lon="10.426472877909063"><ele>760.8333333333334</ele><time>2026-04-11T14:45:51.001Z</time></trkpt><trkpt lat="44.42418145589965" lon="10.42653034158512"><ele>759.0</ele><time>2026-04-11T14:45:53Z</time></trkpt><trkpt lat="44.42411753274533" lon="10.426586151274178"><ele>757.7142857142857</ele><time>2026-04-11T14:45:55Z</time></trkpt><trkpt lat="44.42405972671032" lon="10.42662618783069"><ele>756.4285714285713</ele><time>2026-04-11T14:45:56Z</time></trkpt><trkpt lat="44.42399660616978" lon="10.426665540283341"><ele>755.1428571428571</ele><time>2026-04-11T14:45:57Z</time></trkpt><trkpt lat="44.42393943636014" lon="10.426707484451505"><ele>753.8571428571429</ele><time>2026-04-11T14:45:58Z</time></trkpt><trkpt lat="44.42387911629023" lon="10.426755032816088"><ele>752.5714285714286</ele><time>2026-04-11T14:45:59Z</time></trkpt><trkpt lat="44.4238171196562" lon="10.426780816022545"><ele>751.2857142857143</ele><time>2026-04-11T14:46:00Z</time></trkpt><trkpt lat="44.4237496717019" lon="10.426785547614365"><ele>750.0</ele><time>2026-04-11T14:46:01Z</time></trkpt><trkpt lat="44.42363172470431" lon="10.426779335083658"><ele>747.1666666666666</ele><time>2026-04-11T14:46:03Z</time></trkpt><trkpt lat="44.423542209790696" lon="10.426819846397533"><ele>744.3333333333334</ele><time>2026-04-11T14:46:05Z</time></trkpt><trkpt lat="44.4234706704695" lon="10.426820255025298"><ele>741.5</ele><time>2026-04-11T14:46:07Z</time></trkpt><trkpt lat="44.42339593031642" lon="10.426750044281828"><ele>738.6666666666667</ele><time>2026-04-11T14:46:10Z</time></trkpt><trkpt lat="44.42333428595435" lon="10.426794567715016"><ele>735.8333333333334</ele><time>2026-04-11T14:46:12Z</time></trkpt><trkpt lat="44.42328105666197" lon="10.426911777307454"><ele>733.0</ele><time>2026-04-11T14:46:14Z</time></trkpt><trkpt lat="44.4232189474265" lon="10.426999625271614"><ele>733.0</ele><time>2026-04-11T14:46:16Z</time></trkpt><trkpt lat="44.42314566812532" lon="10.42705077209919"><ele>733.0</ele><time>2026-04-11T14:46:18Z</time></trkpt><trkpt lat="44.42305802310908" lon="10.427099317677651"><ele>733.0</ele><time>2026-04-11T14:46:20Z</time></trkpt><trkpt lat="44.42298019189124" lon="10.427138402971552"><ele>733.0</ele><time>2026-04-11T14:46:22Z</time></trkpt><trkpt lat="44.422871229435096" lon="10.42710972720624"><ele>733.0</ele><time>2026-04-11T14:46:24Z</time></trkpt><trkpt lat="44.42277219597577" lon="10.427038816723599"><ele>730.8</ele><time>2026-04-11T14:46:26Z</time></trkpt><trkpt lat="44.42268636074687" lon="10.426968638965821"><ele>728.5999999999999</ele><time>2026-04-11T14:46:28Z</time></trkpt><trkpt lat="44.42261882789985" lon="10.42688855526948"><ele>726.4000000000001</ele><time>2026-04-11T14:46:30Z</time></trkpt><trkpt lat="44.42252642392993" lon="10.426799245218792"><ele>724.2</ele><time>2026-04-11T14:46:32Z</time></trkpt><trkpt lat="44.422436312475426" lon="10.426728825272368"><ele>722.0</ele><time>2026-04-11T14:46:34Z</time></trkpt><trkpt lat="44.422361042033096" lon="10.426651632946319"><ele>722.0</ele><time>2026-04-11T14:46:36Z</time></trkpt><trkpt lat="44.422300033429124" lon="10.426520200240022"><ele>722.0</ele><time>2026-04-11T14:46:38Z</time></trkpt><trkpt lat="44.42222861480061" lon="10.426420786883627"><ele>722.0</ele><time>2026-04-11T14:46:40Z</time></trkpt><trkpt lat="44.422152639924896" lon="10.426423786162887"><ele>722.0</ele><time>2026-04-11T14:46:42Z</time></trkpt><trkpt lat="44.42206334335431" lon="10.426440359702"><ele>722.0</ele><time>2026-04-11T14:46:44Z</time></trkpt><trkpt lat="44.42196033904277" lon="10.426347192962657"><ele>723.0</ele><time>2026-04-11T14:46:46Z</time></trkpt><trkpt lat="44.42188519661997" lon="10.426304170140227"><ele>724.0</ele><time>2026-04-11T14:46:47Z</time></trkpt><trkpt lat="44.421806913088986" lon="10.426249446743608"><ele>725.0</ele><time>2026-04-11T14:46:48Z</time></trkpt><trkpt lat="44.42170886326547" lon="10.426181606888239"><ele>726.0</ele><time>2026-04-11T14:46:49Z</time></trkpt><trkpt lat="44.42157600921968" lon="10.426116824773185"><ele>727.0</ele><time>2026-04-11T14:46:50Z</time></trkpt><trkpt lat="44.421465704519406" lon="10.426073543810908"><ele>727.0</ele><time>2026-04-11T14:46:51Z</time></trkpt><trkpt lat="44.421365079540614" lon="10.426041446366877"><ele>727.0</ele><time>2026-04-11T14:46:53Z</time></trkpt><trkpt lat="44.42130583825438" lon="10.425982208986005"><ele>727.0</ele><time>2026-04-11T14:46:55Z</time></trkpt><trkpt lat="44.42128834960153" lon="10.425825169941236"><ele>727.0</ele><time>2026-04-11T14:46:57Z</time></trkpt><trkpt lat="44.421302313185926" lon="10.425737050425935"><ele>727.0</ele><time>2026-04-11T14:46:58Z</time></trkpt><trkpt lat="44.42131688308823" lon="10.425632246531563"><ele>727.0</ele><time>2026-04-11T14:46:59Z</time></trkpt><trkpt lat="44.42133005184171" lon="10.425512777232585"><ele>728.1666666666667</ele><time>2026-04-11T14:47:00Z</time></trkpt><trkpt lat="44.42135924270927" lon="10.425398420813577"><ele>729.3333333333334</ele><time>2026-04-11T14:47:01Z</time></trkpt><trkpt lat="44.42135974666906" lon="10.425292953051589"><ele>730.5</ele><time>2026-04-11T14:47:02Z</time></trkpt><trkpt lat="44.42131750912265" lon="10.425196179454371"><ele>731.6666666666666</ele><time>2026-04-11T14:47:03Z</time></trkpt><trkpt lat="44.421315892640926" lon="10.425096443128075"><ele>732.8333333333333</ele><time>2026-04-11T14:47:04Z</time></trkpt><trkpt lat="44.42131769244538" lon="10.4249804080479"><ele>734.0</ele><time>2026-04-11T14:47:05.001Z</time></trkpt><trkpt lat="44.42131179586497" lon="10.424840416541924"><ele>734.25</ele><time>2026-04-11T14:47:06.001Z</time></trkpt><trkpt lat="44.42127308488307" lon="10.42470019356455"><ele>734.5</ele><time>2026-04-11T14:47:07.001Z</time></trkpt><trkpt lat="44.42119203348084" lon="10.424576059795106"><ele>734.75</ele><time>2026-04-11T14:47:08.001Z</time></trkpt><trkpt lat="44.421107074902054" lon="10.424439060794265"><ele>735.0</ele><time>2026-04-11T14:47:09.001Z</time></trkpt><trkpt lat="44.421054622401684" lon="10.424314108621118"><ele>738.0</ele><time>2026-04-11T14:47:10.001Z</time></trkpt><trkpt lat="44.421039522446584" lon="10.424185997674599"><ele>741.0</ele><time>2026-04-11T14:47:11.001Z</time></trkpt><trkpt lat="44.42101151750125" lon="10.424012755889565"><ele>744.0</ele><time>2026-04-11T14:47:12.001Z</time></trkpt><trkpt lat="44.42097621641271" lon="10.423826484814679"><ele>747.0</ele><time>2026-04-11T14:47:13.001Z</time></trkpt><trkpt lat="44.42095224637427" lon="10.423687208265397"><ele>748.3333333333334</ele><time>2026-04-11T14:47:14.001Z</time></trkpt><trkpt lat="44.420929658822466" lon="10.423569610500408"><ele>749.6666666666666</ele><time>2026-04-11T14:47:15.001Z</time></trkpt><trkpt lat="44.42089193498568" lon="10.423456854959724"><ele>751.0</ele><time>2026-04-11T14:47:16.001Z</time></trkpt><trkpt lat="44.4208788878333" lon="10.423346358245123"><ele>752.3333333333333</ele><time>2026-04-11T14:47:17.001Z</time></trkpt><trkpt lat="44.42086667055562" lon="10.423247288334988"><ele>753.6666666666666</ele><time>2026-04-11T14:47:18.001Z</time></trkpt><trkpt lat="44.420877213091075" lon="10.423082884315445"><ele>755.0</ele><time>2026-04-11T14:47:20.001Z</time></trkpt><trkpt lat="44.42090230011618" lon="10.422998582556085"><ele>757.1666666666666</ele><time>2026-04-11T14:47:21.001Z</time></trkpt><trkpt lat="44.420925290878095" lon="10.422905125565968"><ele>759.3333333333333</ele><time>2026-04-11T14:47:22.001Z</time></trkpt><trkpt lat="44.42092523307127" lon="10.422789942945668"><ele>761.5</ele><time>2026-04-11T14:47:23.001Z</time></trkpt><trkpt lat="44.42088913741169" lon="10.42267538969362"><ele>763.6666666666666</ele><time>2026-04-11T14:47:24.001Z</time></trkpt><trkpt lat="44.420878276490896" lon="10.422552006351248"><ele>765.8333333333334</ele><time>2026-04-11T14:47:25.001Z</time></trkpt><trkpt lat="44.42084598135196" lon="10.42243723500966"><ele>768.0</ele><time>2026-04-11T14:47:26.001Z</time></trkpt><trkpt lat="44.42082878267002" lon="10.422326934648721"><ele>768.0</ele><time>2026-04-11T14:47:27.001Z</time></trkpt><trkpt lat="44.42082814655873" lon="10.422231688591399"><ele>768.0</ele><time>2026-04-11T14:47:28.001Z</time></trkpt><trkpt lat="44.42084423861543" lon="10.42213676302406"><ele>768.0</ele><time>2026-04-11T14:47:29.001Z</time></trkpt><trkpt lat="44.42088112379212" lon="10.42202900901284"><ele>768.0</ele><time>2026-04-11T14:47:30.001Z</time></trkpt><trkpt lat="44.42092934585988" lon="10.421931898493762"><ele>768.0</ele><time>2026-04-11T14:47:31.001Z</time></trkpt><trkpt lat="44.42098077046233" lon="10.421832109541533"><ele>768.0</ele><time>2026-04-11T14:47:32.001Z</time></trkpt><trkpt lat="44.42103202982307" lon="10.42172217609872"><ele>770.2</ele><time>2026-04-11T14:47:33.001Z</time></trkpt><trkpt lat="44.42107528094717" lon="10.421600458138737"><ele>772.4</ele><time>2026-04-11T14:47:34.001Z</time></trkpt><trkpt lat="44.421117161896866" lon="10.421479153598156"><ele>774.6</ele><time>2026-04-11T14:47:35.001Z</time></trkpt><trkpt lat="44.42117273287619" lon="10.421363460670253"><ele>776.8000000000001</ele><time>2026-04-11T14:47:36.001Z</time></trkpt><trkpt lat="44.421243359542174" lon="10.421276398996172"><ele>779.0</ele><time>2026-04-11T14:47:37.001Z</time></trkpt><trkpt lat="44.42133049533044" lon="10.421195716668462"><ele>781.6666666666667</ele><time>2026-04-11T14:47:38.001Z</time></trkpt><trkpt lat="44.42140958830123" lon="10.421118566611792"><ele>784.3333333333334</ele><time>2026-04-11T14:47:39.001Z</time></trkpt><trkpt lat="44.42147048890531" lon="10.42105378261534"><ele>787.0</ele><time>2026-04-11T14:47:40.001Z</time></trkpt><trkpt lat="44.421515624531374" lon="10.42096433279449"><ele>789.6666666666667</ele><time>2026-04-11T14:47:41.001Z</time></trkpt><trkpt lat="44.42155331004969" lon="10.420876253881595"><ele>792.3333333333334</ele><time>2026-04-11T14:47:42.001Z</time></trkpt><trkpt lat="44.4215848851815" lon="10.420779003073427"><ele>795.0</ele><time>2026-04-11T14:47:43.001Z</time></trkpt><trkpt lat="44.421575282882344" lon="10.420688026657226"><ele>795.0</ele><time>2026-04-11T14:47:44.001Z</time></trkpt><trkpt lat="44.42153830956723" lon="10.420608184755967"><ele>795.0</ele><time>2026-04-11T14:47:45.001Z</time></trkpt><trkpt lat="44.421497754595805" lon="10.420526001146703"><ele>795.0</ele><time>2026-04-11T14:47:46.001Z</time></trkpt><trkpt lat="44.42141216819226" lon="10.420405742685428"><ele>795.0</ele><time>2026-04-11T14:47:48.001Z</time></trkpt><trkpt lat="44.42132242739686" lon="10.420214924513084"><ele>795.0</ele><time>2026-04-11T14:47:51.001Z</time></trkpt><trkpt lat="44.421267531377474" lon="10.420135303649936"><ele>795.0</ele><time>2026-04-11T14:47:53.001Z</time></trkpt><trkpt lat="44.42119508156583" lon="10.42006882817372"><ele>795.0</ele><time>2026-04-11T14:47:56.001Z</time></trkpt><trkpt lat="44.421116619656814" lon="10.419990850571438"><ele>795.0</ele><time>2026-04-11T14:47:58Z</time></trkpt><trkpt lat="44.42106366433106" lon="10.419942565719301"><ele>795.0</ele><time>2026-04-11T14:47:59Z</time></trkpt><trkpt lat="44.42100846736223" lon="10.419868790560125"><ele>795.0</ele><time>2026-04-11T14:48:00Z</time></trkpt><trkpt lat="44.42095242367571" lon="10.419782975526672"><ele>795.0</ele><time>2026-04-11T14:48:01Z</time></trkpt><trkpt lat="44.420909007839434" lon="10.419701716113382"><ele>796.0</ele><time>2026-04-11T14:48:02Z</time></trkpt><trkpt lat="44.420826905010216" lon="10.419580699068211"><ele>797.0</ele><time>2026-04-11T14:48:04Z</time></trkpt><trkpt lat="44.42076273493452" lon="10.419450169056947"><ele>798.0</ele><time>2026-04-11T14:48:06Z</time></trkpt><trkpt lat="44.42066434541264" lon="10.419338094885326"><ele>799.0</ele><time>2026-04-11T14:48:08Z</time></trkpt><trkpt lat="44.42061740639985" lon="10.419274296953521"><ele>800.0</ele><time>2026-04-11T14:48:09Z</time></trkpt><trkpt lat="44.42054826680181" lon="10.419166228959188"><ele>798.6</ele><time>2026-04-11T14:48:11Z</time></trkpt><trkpt lat="44.42046900597526" lon="10.419079998596564"><ele>797.2</ele><time>2026-04-11T14:48:13Z</time></trkpt><trkpt lat="44.42035398810502" lon="10.419000381404963"><ele>795.8</ele><time>2026-04-11T14:48:15Z</time></trkpt><trkpt lat="44.420296665655485" lon="10.418958925611884"><ele>794.4</ele><time>2026-04-11T14:48:16Z</time></trkpt><trkpt lat="44.42020879823295" lon="10.41892504648039"><ele>793.0</ele><time>2026-04-11T14:48:18Z</time></trkpt><trkpt lat="44.42011932582694" lon="10.41895085228186"><ele>792.9999999999999</ele><time>2026-04-11T14:48:19.999Z</time></trkpt><trkpt lat="44.42003131162858" lon="10.419000882092652"><ele>793.0</ele><time>2026-04-11T14:48:21.999Z</time></trkpt><trkpt lat="44.419952297868" lon="10.41904363971749"><ele>793.0</ele><time>2026-04-11T14:48:23.999Z</time></trkpt><trkpt lat="44.41988700241709" lon="10.419078344049995"><ele>793.0</ele><time>2026-04-11T14:48:26.999Z</time></trkpt><trkpt lat="44.41980821217146" lon="10.41913606142232"><ele>792.9999999999999</ele><time>2026-04-11T14:48:28.999Z</time></trkpt><trkpt lat="44.41970658985857" lon="10.419102825834017"><ele>793.0</ele><time>2026-04-11T14:48:30.999Z</time></trkpt><trkpt lat="44.41963002663338" lon="10.419005870697188"><ele>792.6666666666666</ele><time>2026-04-11T14:48:32.999Z</time></trkpt><trkpt lat="44.41959433733438" lon="10.418915682359582"><ele>792.3333333333333</ele><time>2026-04-11T14:48:35Z</time></trkpt><trkpt lat="44.419507663905165" lon="10.418906156436673"><ele>792.0</ele><time>2026-04-11T14:48:38Z</time></trkpt><trkpt lat="44.41942948171388" lon="10.41894246832082"><ele>791.6666666666667</ele><time>2026-04-11T14:48:40Z</time></trkpt><trkpt lat="44.41934127209428" lon="10.418909207970538"><ele>791.3333333333334</ele><time>2026-04-11T14:48:43Z</time></trkpt><trkpt lat="44.4192709832833" lon="10.418843423257353"><ele>791.0</ele><time>2026-04-11T14:48:45Z</time></trkpt><trkpt lat="44.41918774844862" lon="10.418776198828297"><ele>791.0</ele><time>2026-04-11T14:48:47Z</time></trkpt><trkpt lat="44.41910354939807" lon="10.418730332766392"><ele>791.0</ele><time>2026-04-11T14:48:49Z</time></trkpt><trkpt lat="44.41901838733858" lon="10.418740945570166"><ele>791.0</ele><time>2026-04-11T14:48:51Z</time></trkpt><trkpt lat="44.41892493339431" lon="10.418831564606796"><ele>791.0</ele><time>2026-04-11T14:48:53Z</time></trkpt><trkpt lat="44.41879277347458" lon="10.418923867408898"><ele>791.0</ele><time>2026-04-11T14:48:55Z</time></trkpt><trkpt lat="44.41873202199104" lon="10.418960747849406"><ele>790.5999999999999</ele><time>2026-04-11T14:48:56Z</time></trkpt><trkpt lat="44.41863006072283" lon="10.418977373829078"><ele>790.2</ele><time>2026-04-11T14:48:58Z</time></trkpt><trkpt lat="44.41856038680674" lon="10.418935721490852"><ele>789.8</ele><time>2026-04-11T14:49:00Z</time></trkpt><trkpt lat="44.418465525347294" lon="10.418813292167984"><ele>789.4000000000001</ele><time>2026-04-11T14:49:02Z</time></trkpt><trkpt lat="44.41841920414778" lon="10.41873713963071"><ele>789.0</ele><time>2026-04-11T14:49:03Z</time></trkpt><trkpt lat="44.4183721832518" lon="10.418648905704995"><ele>792.6</ele><time>2026-04-11T14:49:04Z</time></trkpt><trkpt lat="44.41832670677029" lon="10.418574511568758"><ele>796.2</ele><time>2026-04-11T14:49:05Z</time></trkpt><trkpt lat="44.418287098091795" lon="10.418500645049603"><ele>799.8000000000001</ele><time>2026-04-11T14:49:06Z</time></trkpt><trkpt lat="44.41819496935386" lon="10.418454412548703"><ele>803.4000000000001</ele><time>2026-04-11T14:49:09Z</time></trkpt><trkpt lat="44.418075686279046" lon="10.41834322051555"><ele>807.0</ele><time>2026-04-11T14:49:11Z</time></trkpt><trkpt lat="44.41799940589606" lon="10.41827805691266"><ele>805.4285714285714</ele><time>2026-04-11T14:49:12Z</time></trkpt><trkpt lat="44.41793138938716" lon="10.418227321373951"><ele>803.8571428571429</ele><time>2026-04-11T14:49:13Z</time></trkpt><trkpt lat="44.4178600884362" lon="10.418199193374814"><ele>802.2857142857142</ele><time>2026-04-11T14:49:14Z</time></trkpt><trkpt lat="44.41779069216108" lon="10.418171344587222"><ele>800.7142857142858</ele><time>2026-04-11T14:49:15Z</time></trkpt><trkpt lat="44.417730544095605" lon="10.418140575114618"><ele>799.1428571428571</ele><time>2026-04-11T14:49:16Z</time></trkpt><trkpt lat="44.41767354177207" lon="10.41810140689739"><ele>797.5714285714286</ele><time>2026-04-11T14:49:17Z</time></trkpt><trkpt lat="44.41761225567827" lon="10.418063354585508"><ele>796.0</ele><time>2026-04-11T14:49:18Z</time></trkpt><trkpt lat="44.417546823737474" lon="10.418035386218452"><ele>795.9999999999999</ele><time>2026-04-11T14:49:19Z</time></trkpt><trkpt lat="44.41747708727804" lon="10.418018486744677"><ele>796.0</ele><time>2026-04-11T14:49:20Z</time></trkpt><trkpt lat="44.417402791940205" lon="10.41798863061812"><ele>796.0</ele><time>2026-04-11T14:49:21Z</time></trkpt><trkpt lat="44.417333037510886" lon="10.417946917838782"><ele>796.0</ele><time>2026-04-11T14:49:22Z</time></trkpt><trkpt lat="44.41727242398591" lon="10.417909156846669"><ele>795.9999999999999</ele><time>2026-04-11T14:49:23Z</time></trkpt><trkpt lat="44.417188226721365" lon="10.41791195699896"><ele>796.0</ele><time>2026-04-11T14:49:25Z</time></trkpt><trkpt lat="44.41711174819124" lon="10.417962985945714"><ele>794.5999999999999</ele><time>2026-04-11T14:49:27Z</time></trkpt><trkpt lat="44.417050746697" lon="10.41808392699378"><ele>793.2</ele><time>2026-04-11T14:49:29Z</time></trkpt><trkpt lat="44.416954446816945" lon="10.418234211176783"><ele>791.8</ele><time>2026-04-11T14:49:31Z</time></trkpt><trkpt lat="44.416893965882885" lon="10.418321153548925"><ele>790.4000000000001</ele><time>2026-04-11T14:49:32Z</time></trkpt><trkpt lat="44.41684980981912" lon="10.418406682228614"><ele>789.0</ele><time>2026-04-11T14:49:33Z</time></trkpt><trkpt lat="44.41680774464353" lon="10.41853931383689"><ele>789.0</ele><time>2026-04-11T14:49:35Z</time></trkpt><trkpt lat="44.41679260324006" lon="10.41863657305458"><ele>789.0</ele><time>2026-04-11T14:49:36Z</time></trkpt><trkpt lat="44.41676139355443" lon="10.418785855791485"><ele>789.0</ele><time>2026-04-11T14:49:38Z</time></trkpt><trkpt lat="44.41671266513541" lon="10.418863348968062"><ele>789.0</ele><time>2026-04-11T14:49:39Z</time></trkpt><trkpt lat="44.41667511959889" lon="10.41893926806646"><ele>789.0</ele><time>2026-04-11T14:49:40Z</time></trkpt><trkpt lat="44.41665204573789" lon="10.419046183270089"><ele>789.0</ele><time>2026-04-11T14:49:41Z</time></trkpt><trkpt lat="44.416627300567725" lon="10.41914750312843"><ele>787.5</ele><time>2026-04-11T14:49:42Z</time></trkpt><trkpt lat="44.41661043517415" lon="10.419233924495549"><ele>786.0</ele><time>2026-04-11T14:49:43Z</time></trkpt><trkpt lat="44.41659448254565" lon="10.419360940760896"><ele>784.5</ele><time>2026-04-11T14:49:45Z</time></trkpt><trkpt lat="44.41662526679275" lon="10.41953598351119"><ele>783.0</ele><time>2026-04-11T14:49:47Z</time></trkpt><trkpt lat="44.4166257758147" lon="10.419635641272817"><ele>781.5</ele><time>2026-04-11T14:49:48Z</time></trkpt><trkpt lat="44.41661969260559" lon="10.419731930575301"><ele>780.0</ele><time>2026-04-11T14:49:49Z</time></trkpt><trkpt lat="44.41662450977392" lon="10.419836557184246"><ele>779.3333333333334</ele><time>2026-04-11T14:49:50Z</time></trkpt><trkpt lat="44.41664330322465" lon="10.419936164269517"><ele>778.6666666666667</ele><time>2026-04-11T14:49:51Z</time></trkpt><trkpt lat="44.41667354094385" lon="10.420043534403073"><ele>778.0</ele><time>2026-04-11T14:49:52Z</time></trkpt><trkpt lat="44.41670049584736" lon="10.420169175970882"><ele>777.3333333333334</ele><time>2026-04-11T14:49:53Z</time></trkpt><trkpt lat="44.41671454476606" lon="10.420298269501279"><ele>776.6666666666667</ele><time>2026-04-11T14:49:54Z</time></trkpt><trkpt lat="44.41672255456346" lon="10.420417753251476"><ele>776.0</ele><time>2026-04-11T14:49:55Z</time></trkpt><trkpt lat="44.41672703002525" lon="10.420522335342357"><ele>775.0000000000001</ele><time>2026-04-11T14:49:56Z</time></trkpt><trkpt lat="44.41673619241314" lon="10.420635341009563"><ele>774.0</ele><time>2026-04-11T14:49:57Z</time></trkpt><trkpt lat="44.416743328330135" lon="10.420725560311457"><ele>773.0</ele><time>2026-04-11T14:49:58Z</time></trkpt><trkpt lat="44.41674287772802" lon="10.420820822151834"><ele>772.0</ele><time>2026-04-11T14:49:59Z</time></trkpt><trkpt lat="44.41673450938269" lon="10.420913568142812"><ele>771.0000000000001</ele><time>2026-04-11T14:50:00Z</time></trkpt><trkpt lat="44.41669642320163" lon="10.421039435167742"><ele>770.0</ele><time>2026-04-11T14:50:02Z</time></trkpt><trkpt lat="44.416697359814975" lon="10.42116988867948"><ele>768.0</ele><time>2026-04-11T14:50:04Z</time></trkpt><trkpt lat="44.416733846715125" lon="10.42133146696284"><ele>766.0</ele><time>2026-04-11T14:50:06Z</time></trkpt><trkpt lat="44.41677984319587" lon="10.421492680934131"><ele>764.0</ele><time>2026-04-11T14:50:08Z</time></trkpt><trkpt lat="44.4168049457694" lon="10.421581360435715"><ele>762.0</ele><time>2026-04-11T14:50:09Z</time></trkpt><trkpt lat="44.41682530992794" lon="10.42174626441655"><ele>760.0</ele><time>2026-04-11T14:50:11Z</time></trkpt><trkpt lat="44.41678748346309" lon="10.421855799584247"><ele>760.0</ele><time>2026-04-11T14:50:14Z</time></trkpt><trkpt lat="44.416758833712926" lon="10.421948204763956"><ele>760.0</ele><time>2026-04-11T14:50:16Z</time></trkpt><trkpt lat="44.41670529923023" lon="10.422055600509387"><ele>760.0</ele><time>2026-04-11T14:50:18Z</time></trkpt><trkpt lat="44.416624754295995" lon="10.422145822971308"><ele>760.0</ele><time>2026-04-11T14:50:20Z</time></trkpt><trkpt lat="44.41653190317608" lon="10.422224551658246"><ele>760.0</ele><time>2026-04-11T14:50:23Z</time></trkpt><trkpt lat="44.41648269639113" lon="10.422312464575757"><ele>759.0</ele><time>2026-04-11T14:50:25Z</time></trkpt><trkpt lat="44.41646658204499" lon="10.422425048677729"><ele>758.0</ele><time>2026-04-11T14:50:27Z</time></trkpt><trkpt lat="44.41635316957177" lon="10.422522644423331"><ele>757.0</ele><time>2026-04-11T14:50:29Z</time></trkpt><trkpt lat="44.41635610109734" lon="10.422619849178421"><ele>756.0</ele><time>2026-04-11T14:50:32Z</time></trkpt><trkpt lat="44.41634336871886" lon="10.422510165256037"><ele>755.0</ele><time>2026-04-11T14:50:35Z</time></trkpt><trkpt lat="44.41632563635038" lon="10.422411840391227"><ele>754.0</ele><time>2026-04-11T14:50:36Z</time></trkpt><trkpt lat="44.41625955138056" lon="10.42228554756927"><ele>754.0</ele><time>2026-04-11T14:50:38Z</time></trkpt><trkpt lat="44.41621370455897" lon="10.422221409333103"><ele>754.0</ele><time>2026-04-11T14:50:39Z</time></trkpt><trkpt lat="44.41616675563231" lon="10.422159834577407"><ele>754.0</ele><time>2026-04-11T14:50:40Z</time></trkpt><trkpt lat="44.41611289118939" lon="10.422028223068066"><ele>754.0</ele><time>2026-04-11T14:50:42Z</time></trkpt><trkpt lat="44.41611836748098" lon="10.421939976395704"><ele>754.0</ele><time>2026-04-11T14:50:43Z</time></trkpt><trkpt lat="44.41611639945989" lon="10.42177271574623"><ele>754.0</ele><time>2026-04-11T14:50:45Z</time></trkpt><trkpt lat="44.41610241963455" lon="10.421682589815932"><ele>754.6666666666667</ele><time>2026-04-11T14:50:46Z</time></trkpt><trkpt lat="44.41606536517583" lon="10.421606451904692"><ele>755.3333333333334</ele><time>2026-04-11T14:50:47Z</time></trkpt><trkpt lat="44.41602251155785" lon="10.421529087588146"><ele>756.0</ele><time>2026-04-11T14:50:48Z</time></trkpt><trkpt lat="44.415969356364286" lon="10.42145873671266"><ele>756.6666666666666</ele><time>2026-04-11T14:50:49Z</time></trkpt><trkpt lat="44.41592274140563" lon="10.421382076912778"><ele>757.3333333333333</ele><time>2026-04-11T14:50:50Z</time></trkpt><trkpt lat="44.41587117917706" lon="10.421291110058814"><ele>758.0</ele><time>2026-04-11T14:50:51Z</time></trkpt><trkpt lat="44.41581539266673" lon="10.42119346167579"><ele>758.8333333333333</ele><time>2026-04-11T14:50:52Z</time></trkpt><trkpt lat="44.41574828024256" lon="10.421100412426851"><ele>759.6666666666666</ele><time>2026-04-11T14:50:53Z</time></trkpt><trkpt lat="44.415679287221636" lon="10.421041970651622"><ele>760.5</ele><time>2026-04-11T14:50:54Z</time></trkpt><trkpt lat="44.4156055790824" lon="10.421002736303034"><ele>761.3333333333334</ele><time>2026-04-11T14:50:55Z</time></trkpt><trkpt lat="44.415532863503735" lon="10.420971011226335"><ele>762.1666666666667</ele><time>2026-04-11T14:50:56Z</time></trkpt><trkpt lat="44.41544176401076" lon="10.420945908292333"><ele>763.0</ele><time>2026-04-11T14:50:58Z</time></trkpt><trkpt lat="44.41535185652341" lon="10.42092975719764"><ele>763.3333333333334</ele><time>2026-04-11T14:51:01Z</time></trkpt><trkpt lat="44.41528598896244" lon="10.420931702766216"><ele>763.6666666666667</ele><time>2026-04-11T14:51:03Z</time></trkpt><trkpt lat="44.41517834767727" lon="10.420925185270972"><ele>764.0</ele><time>2026-04-11T14:51:05Z</time></trkpt><trkpt lat="44.41511269503706" lon="10.420905759430358"><ele>764.3333333333334</ele><time>2026-04-11T14:51:06Z</time></trkpt><trkpt lat="44.415058315722234" lon="10.42085549500981"><ele>764.6666666666666</ele><time>2026-04-11T14:51:07Z</time></trkpt><trkpt lat="44.414945811824225" lon="10.420741583638721"><ele>765.0</ele><time>2026-04-11T14:51:09Z</time></trkpt><trkpt lat="44.414872546610674" lon="10.420681730788193"><ele>765.0</ele><time>2026-04-11T14:51:10Z</time></trkpt><trkpt lat="44.41479489726839" lon="10.420644357484965"><ele>765.0</ele><time>2026-04-11T14:51:11Z</time></trkpt><trkpt lat="44.41473617299652" lon="10.420583836502617"><ele>765.0</ele><time>2026-04-11T14:51:12Z</time></trkpt><trkpt lat="44.41465884344856" lon="10.420535477633464"><ele>765.0</ele><time>2026-04-11T14:51:13Z</time></trkpt><trkpt lat="44.41458283109875" lon="10.420494682484804"><ele>765.0</ele><time>2026-04-11T14:51:14Z</time></trkpt><trkpt lat="44.41449562566735" lon="10.420487873955969"><ele>765.0</ele><time>2026-04-11T14:51:15Z</time></trkpt><trkpt lat="44.41442165129856" lon="10.420466057253778"><ele>767.4</ele><time>2026-04-11T14:51:16Z</time></trkpt><trkpt lat="44.414346683886635" lon="10.42045832103988"><ele>769.8</ele><time>2026-04-11T14:51:17Z</time></trkpt><trkpt lat="44.414231465748756" lon="10.420449147062397"><ele>772.2</ele><time>2026-04-11T14:51:19Z</time></trkpt><trkpt lat="44.41413937967223" lon="10.420467979651692"><ele>774.6</ele><time>2026-04-11T14:51:21Z</time></trkpt><trkpt lat="44.414134020438816" lon="10.42067966968497"><ele>777.0</ele><time>2026-04-11T14:51:24Z</time></trkpt><trkpt lat="44.41415191301731" lon="10.420766294980448"><ele>777.0</ele><time>2026-04-11T14:51:25Z</time></trkpt><trkpt lat="44.41415619873763" lon="10.420889301095011"><ele>777.0</ele><time>2026-04-11T14:51:26Z</time></trkpt><trkpt lat="44.41412109692817" lon="10.421037490570708"><ele>777.0</ele><time>2026-04-11T14:51:27Z</time></trkpt><trkpt lat="44.4141064370903" lon="10.421192966309135"><ele>777.0</ele><time>2026-04-11T14:51:28Z</time></trkpt><trkpt lat="44.41407467250687" lon="10.421350992303307"><ele>777.0</ele><time>2026-04-11T14:51:29Z</time></trkpt><trkpt lat="44.41405342838552" lon="10.421490480620902"><ele>775.8</ele><time>2026-04-11T14:51:30Z</time></trkpt><trkpt lat="44.41404146413883" lon="10.42161269217001"><ele>774.6</ele><time>2026-04-11T14:51:31Z</time></trkpt><trkpt lat="44.414028984226974" lon="10.4217073622527"><ele>773.4</ele><time>2026-04-11T14:51:32Z</time></trkpt><trkpt lat="44.41397026976908" lon="10.421823271574441"><ele>772.1999999999999</ele><time>2026-04-11T14:51:34Z</time></trkpt><trkpt lat="44.413880281217395" lon="10.421769825785358"><ele>771.0</ele><time>2026-04-11T14:51:35Z</time></trkpt><trkpt lat="44.41377363176721" lon="10.421765919611502"><ele>771.0</ele><time>2026-04-11T14:51:38Z</time></trkpt><trkpt lat="44.41367253623614" lon="10.421810308887164"><ele>771.0</ele><time>2026-04-11T14:51:40Z</time></trkpt><trkpt lat="44.4135984664312" lon="10.42182435132453"><ele>771.0</ele><time>2026-04-11T14:51:41Z</time></trkpt><trkpt lat="44.41346946578117" lon="10.421472420524607"><ele>771.0</ele><time>2026-04-11T14:51:42Z</time></trkpt><trkpt lat="44.41340397639093" lon="10.42142722342794"><ele>771.0</ele><time>2026-04-11T14:51:43Z</time></trkpt><trkpt lat="44.413345057340116" lon="10.42138469294499"><ele>771.0</ele><time>2026-04-11T14:51:44Z</time></trkpt><trkpt lat="44.41327532107473" lon="10.421340004376676"><ele>771.0</ele><time>2026-04-11T14:51:46Z</time></trkpt><trkpt lat="44.41320921237031" lon="10.421297653695001"><ele>771.0</ele><time>2026-04-11T14:51:49.001Z</time></trkpt><trkpt lat="44.4131448787467" lon="10.421274254056458"><ele>771.0</ele><time>2026-04-11T14:52:26Z</time></trkpt><trkpt lat="44.413073483935825" lon="10.421205282690078"><ele>771.0</ele><time>2026-04-11T14:52:29Z</time></trkpt><trkpt lat="44.4130053767955" lon="10.421174112637337"><ele>770.1999999999999</ele><time>2026-04-11T14:52:31Z</time></trkpt><trkpt lat="44.41292727199833" lon="10.421124217901792"><ele>769.4</ele><time>2026-04-11T14:52:33.001Z</time></trkpt><trkpt lat="44.41283479684205" lon="10.421061586980723"><ele>768.6</ele><time>2026-04-11T14:52:35.001Z</time></trkpt><trkpt lat="44.41273472400261" lon="10.420990151069946"><ele>767.8</ele><time>2026-04-11T14:52:37.001Z</time></trkpt><trkpt lat="44.41263294223295" lon="10.420897270048771"><ele>767.0</ele><time>2026-04-11T14:52:39.001Z</time></trkpt><trkpt lat="44.4125566776344" lon="10.420808902156892"><ele>767.0</ele><time>2026-04-11T14:52:41.001Z</time></trkpt><trkpt lat="44.412507406458026" lon="10.420746002633205"><ele>767.0</ele><time>2026-04-11T14:52:43.001Z</time></trkpt><trkpt lat="44.41243791517967" lon="10.420717438777883"><ele>767.0</ele><time>2026-04-11T14:52:49Z</time></trkpt><trkpt lat="44.41234564640303" lon="10.42074154904333"><ele>767.0</ele><time>2026-04-11T14:52:52Z</time></trkpt><trkpt lat="44.412306926060616" lon="10.420827721847756"><ele>767.0</ele><time>2026-04-11T14:52:54Z</time></trkpt><trkpt lat="44.41227171767958" lon="10.420957205876329"><ele>767.0</ele><time>2026-04-11T14:52:56Z</time></trkpt><trkpt lat="44.412228503986334" lon="10.421070083892564"><ele>767.0</ele><time>2026-04-11T14:52:58Z</time></trkpt><trkpt lat="44.41217883647455" lon="10.421156543788955"><ele>767.0</ele><time>2026-04-11T14:53:00Z</time></trkpt><trkpt lat="44.412090138074134" lon="10.421227774133769"><ele>767.0</ele><time>2026-04-11T14:53:02Z</time></trkpt><trkpt lat="44.411963628379915" lon="10.421241074991773"><ele>767.0</ele><time>2026-04-11T14:53:04Z</time></trkpt><trkpt lat="44.411897690211234" lon="10.42125117153186"><ele>767.0</ele><time>2026-04-11T14:53:05Z</time></trkpt><trkpt lat="44.41183114350424" lon="10.421266761944617"><ele>767.0</ele><time>2026-04-11T14:53:06Z</time></trkpt><trkpt lat="44.4117629681898" lon="10.421283967402177"><ele>766.4000000000001</ele><time>2026-04-11T14:53:07Z</time></trkpt><trkpt lat="44.41170148931556" lon="10.421309613942439"><ele>765.8000000000001</ele><time>2026-04-11T14:53:08Z</time></trkpt><trkpt lat="44.41163681677217" lon="10.421341658391611"><ele>765.2</ele><time>2026-04-11T14:53:09Z</time></trkpt><trkpt lat="44.41153788344672" lon="10.421401011019071"><ele>764.6</ele><time>2026-04-11T14:53:11Z</time></trkpt><trkpt lat="44.41144552590366" lon="10.421477005120517"><ele>764.0</ele><time>2026-04-11T14:53:13Z</time></trkpt><trkpt lat="44.41140435260113" lon="10.421626219452708"><ele>764.8000000000001</ele><time>2026-04-11T14:53:15Z</time></trkpt><trkpt lat="44.41133364981602" lon="10.421784711318413"><ele>765.6</ele><time>2026-04-11T14:53:17Z</time></trkpt><trkpt lat="44.41128222037939" lon="10.421874514099201"><ele>766.4</ele><time>2026-04-11T14:53:18Z</time></trkpt><trkpt lat="44.4112275309497" lon="10.421967343930273"><ele>767.2</ele><time>2026-04-11T14:53:19Z</time></trkpt><trkpt lat="44.41117187724325" lon="10.42206780602548"><ele>768.0</ele><time>2026-04-11T14:53:20Z</time></trkpt><trkpt lat="44.411121042320225" lon="10.422178316665375"><ele>769.1666666666666</ele><time>2026-04-11T14:53:21Z</time></trkpt><trkpt lat="44.41107447046385" lon="10.422292842051515"><ele>770.3333333333333</ele><time>2026-04-11T14:53:22Z</time></trkpt><trkpt lat="44.41102160092982" lon="10.422404018148525"><ele>771.5</ele><time>2026-04-11T14:53:23Z</time></trkpt><trkpt lat="44.41097343266043" lon="10.422504564016672"><ele>772.6666666666666</ele><time>2026-04-11T14:53:24Z</time></trkpt><trkpt lat="44.41093693445643" lon="10.422586914972706"><ele>773.8333333333333</ele><time>2026-04-11T14:53:25Z</time></trkpt><trkpt lat="44.410874141449085" lon="10.422668585100064"><ele>775.0</ele><time>2026-04-11T14:53:27Z</time></trkpt><trkpt lat="44.41081182136905" lon="10.422774215540754"><ele>775.0</ele><time>2026-04-11T14:53:32Z</time></trkpt><trkpt lat="44.410761504035214" lon="10.422827521578698"><ele>775.0</ele><time>2026-04-11T14:53:34Z</time></trkpt><trkpt lat="44.410669359801624" lon="10.422790896024294"><ele>775.0</ele><time>2026-04-11T14:53:36Z</time></trkpt><trkpt lat="44.410593175648145" lon="10.4228073402817"><ele>775.0</ele><time>2026-04-11T14:53:38Z</time></trkpt><trkpt lat="44.41048941184411" lon="10.422874477371705"><ele>775.0</ele><time>2026-04-11T14:53:40Z</time></trkpt><trkpt lat="44.410387528903826" lon="10.422921262336049"><ele>776.6</ele><time>2026-04-11T14:53:42Z</time></trkpt><trkpt lat="44.41032151646264" lon="10.423001201532118"><ele>778.2</ele><time>2026-04-11T14:53:44Z</time></trkpt><trkpt lat="44.41029035478151" lon="10.423112436165553"><ele>779.8</ele><time>2026-04-11T14:53:46Z</time></trkpt><trkpt lat="44.41025174665716" lon="10.42326303538708"><ele>781.4</ele><time>2026-04-11T14:53:48Z</time></trkpt><trkpt lat="44.41022417488732" lon="10.423409881812503"><ele>783.0</ele><time>2026-04-11T14:53:50Z</time></trkpt><trkpt lat="44.41020936881184" lon="10.423545779574214"><ele>783.0</ele><time>2026-04-11T14:53:52Z</time></trkpt><trkpt lat="44.41021141681091" lon="10.42366298902544"><ele>783.0</ele><time>2026-04-11T14:53:54Z</time></trkpt><trkpt lat="44.41021660335459" lon="10.42379734905031"><ele>783.0</ele><time>2026-04-11T14:53:56Z</time></trkpt><trkpt lat="44.41020567579575" lon="10.423905270826467"><ele>783.0</ele><time>2026-04-11T14:53:58Z</time></trkpt><trkpt lat="44.4102181366801" lon="10.423994758744087"><ele>783.0</ele><time>2026-04-11T14:54:01Z</time></trkpt><trkpt lat="44.41025660550394" lon="10.424108565858202"><ele>783.0</ele><time>2026-04-11T14:54:04Z</time></trkpt><trkpt lat="44.410282001796006" lon="10.424209765127454"><ele>782.8333333333334</ele><time>2026-04-11T14:54:06Z</time></trkpt><trkpt lat="44.410305282136896" lon="10.424328461474612"><ele>782.6666666666667</ele><time>2026-04-11T14:54:08Z</time></trkpt><trkpt lat="44.41031601005716" lon="10.424441934441228"><ele>782.5</ele><time>2026-04-11T14:54:10Z</time></trkpt><trkpt lat="44.41031931205487" lon="10.424553772088977"><ele>782.3333333333334</ele><time>2026-04-11T14:54:12Z</time></trkpt><trkpt lat="44.41033666230977" lon="10.424695838632186"><ele>782.1666666666667</ele><time>2026-04-11T14:54:14Z</time></trkpt><trkpt lat="44.41033642187615" lon="10.42482285196801"><ele>782.0</ele><time>2026-04-11T14:54:17Z</time></trkpt><trkpt lat="44.410286972804826" lon="10.424925596138573"><ele>782.0</ele><time>2026-04-11T14:54:19Z</time></trkpt><trkpt lat="44.41034567007491" lon="10.425056038554208"><ele>782.0</ele><time>2026-04-11T14:54:21Z</time></trkpt><trkpt lat="44.41033885178813" lon="10.425223771176228"><ele>782.0</ele><time>2026-04-11T14:54:23Z</time></trkpt><trkpt lat="44.410279201129995" lon="10.425336739561486"><ele>782.0</ele><time>2026-04-11T14:54:25Z</time></trkpt><trkpt lat="44.41022910391931" lon="10.425424248966586"><ele>782.0</ele><time>2026-04-11T14:54:27Z</time></trkpt><trkpt lat="44.410168306998436" lon="10.425540878879342"><ele>781.5000000000001</ele><time>2026-04-11T14:54:29Z</time></trkpt><trkpt lat="44.41010230658858" lon="10.42559664887391"><ele>781.0</ele><time>2026-04-11T14:54:31Z</time></trkpt><trkpt lat="44.410020726714144" lon="10.42563099961788"><ele>780.5</ele><time>2026-04-11T14:54:34Z</time></trkpt><trkpt lat="44.410036653575524" lon="10.42573376102296"><ele>780.0</ele><time>2026-04-11T14:54:37Z</time></trkpt><trkpt lat="44.410067968590376" lon="10.425848105836026"><ele>779.5000000000001</ele><time>2026-04-11T14:54:39Z</time></trkpt><trkpt lat="44.41006109014538" lon="10.425951084075319"><ele>779.0</ele><time>2026-04-11T14:54:40Z</time></trkpt><trkpt lat="44.410044917888754" lon="10.426040434871018"><ele>779.0</ele><time>2026-04-11T14:54:41Z</time></trkpt><trkpt lat="44.410050352604095" lon="10.426134349996856"><ele>779.0</ele><time>2026-04-11T14:54:42Z</time></trkpt><trkpt lat="44.41005370863677" lon="10.426247798932128"><ele>779.0</ele><time>2026-04-11T14:54:44Z</time></trkpt><trkpt lat="44.41009427647912" lon="10.426409574860157"><ele>779.0</ele><time>2026-04-11T14:54:46Z</time></trkpt><trkpt lat="44.410096150507016" lon="10.426587508744609"><ele>779.0</ele><time>2026-04-11T14:54:48Z</time></trkpt><trkpt lat="44.4100921600805" lon="10.426685425137398"><ele>779.1666666666667</ele><time>2026-04-11T14:54:49Z</time></trkpt><trkpt lat="44.41010672477116" lon="10.426791186065927"><ele>779.3333333333334</ele><time>2026-04-11T14:54:50Z</time></trkpt><trkpt lat="44.41013043751168" lon="10.42690431538808"><ele>779.5</ele><time>2026-04-11T14:54:51Z</time></trkpt><trkpt lat="44.410144451146046" lon="10.426998447367158"><ele>779.6666666666667</ele><time>2026-04-11T14:54:52Z</time></trkpt><trkpt lat="44.41016309269211" lon="10.42716622364572"><ele>779.8333333333334</ele><time>2026-04-11T14:54:54Z</time></trkpt><trkpt lat="44.410161889521184" lon="10.42726027821788"><ele>780.0</ele><time>2026-04-11T14:54:55Z</time></trkpt><trkpt lat="44.410152192701275" lon="10.427353593275914"><ele>780.0</ele><time>2026-04-11T14:54:56Z</time></trkpt><trkpt lat="44.41014320024732" lon="10.427456243104118"><ele>780.0</ele><time>2026-04-11T14:54:57Z</time></trkpt><trkpt lat="44.41013755950287" lon="10.42756224891463"><ele>780.0</ele><time>2026-04-11T14:54:58Z</time></trkpt><trkpt lat="44.410132912334035" lon="10.427662345796895"><ele>780.0</ele><time>2026-04-11T14:54:59Z</time></trkpt><trkpt lat="44.410109483350155" lon="10.427815592369969"><ele>780.0</ele><time>2026-04-11T14:55:01Z</time></trkpt><trkpt lat="44.410084294099775" lon="10.427933106490807"><ele>780.0</ele><time>2026-04-11T14:55:03Z</time></trkpt><trkpt lat="44.41007596507677" lon="10.428052778590123"><ele>779.0</ele><time>2026-04-11T14:55:05Z</time></trkpt><trkpt lat="44.4100960845203" lon="10.428238916813488"><ele>778.0</ele><time>2026-04-11T14:55:07Z</time></trkpt><trkpt lat="44.410109079525775" lon="10.428368534805"><ele>777.0</ele><time>2026-04-11T14:55:08Z</time></trkpt><trkpt lat="44.41012809764298" lon="10.42849825503728"><ele>776.0</ele><time>2026-04-11T14:55:09Z</time></trkpt><trkpt lat="44.41014974605979" lon="10.428635057215637"><ele>775.0</ele><time>2026-04-11T14:55:10Z</time></trkpt><trkpt lat="44.410170189944544" lon="10.428760239691284"><ele>776.0</ele><time>2026-04-11T14:55:11Z</time></trkpt><trkpt lat="44.41019106468362" lon="10.4288691773152"><ele>777.0</ele><time>2026-04-11T14:55:12Z</time></trkpt><trkpt lat="44.410211425703274" lon="10.428974036940438"><ele>778.0</ele><time>2026-04-11T14:55:13Z</time></trkpt><trkpt lat="44.41023553212216" lon="10.429148683191581"><ele>779.0</ele><time>2026-04-11T14:55:15Z</time></trkpt><trkpt lat="44.41026475872465" lon="10.429316119905142"><ele>780.0</ele><time>2026-04-11T14:55:17Z</time></trkpt><trkpt lat="44.41028864536409" lon="10.429406079067492"><ele>780.0</ele><time>2026-04-11T14:55:18Z</time></trkpt><trkpt lat="44.41031760191948" lon="10.429499092142295"><ele>780.0</ele><time>2026-04-11T14:55:19Z</time></trkpt><trkpt lat="44.41034489173733" lon="10.429583950427057"><ele>780.0</ele><time>2026-04-11T14:55:20Z</time></trkpt><trkpt lat="44.41039941614352" lon="10.429711867872935"><ele>780.0</ele><time>2026-04-11T14:55:22Z</time></trkpt><trkpt lat="44.410470372835505" lon="10.429850148555726"><ele>780.0</ele><time>2026-04-11T14:55:24Z</time></trkpt><trkpt lat="44.41049694447541" lon="10.429939238613295"><ele>780.0</ele><time>2026-04-11T14:55:25Z</time></trkpt><trkpt lat="44.41052519526198" lon="10.430028188112862"><ele>777.8</ele><time>2026-04-11T14:55:26Z</time></trkpt><trkpt lat="44.41055912408698" lon="10.430115699463341"><ele>775.6</ele><time>2026-04-11T14:55:27Z</time></trkpt><trkpt lat="44.41059540555927" lon="10.430246850918216"><ele>773.4000000000001</ele><time>2026-04-11T14:55:29Z</time></trkpt><trkpt lat="44.410597340214544" lon="10.43038647866861"><ele>771.2</ele><time>2026-04-11T14:55:31Z</time></trkpt><trkpt lat="44.41060439593323" lon="10.430515516606217"><ele>769.0</ele><time>2026-04-11T14:55:33Z</time></trkpt><trkpt lat="44.41062294356564" lon="10.430649400521364"><ele>769.0</ele><time>2026-04-11T14:55:35Z</time></trkpt><trkpt lat="44.41067221241275" lon="10.430753071821742"><ele>769.0</ele><time>2026-04-11T14:55:37Z</time></trkpt><trkpt lat="44.41066740117386" lon="10.430850112868779"><ele>769.0</ele><time>2026-04-11T14:55:39Z</time></trkpt><trkpt lat="44.41063760886441" lon="10.431010512897952"><ele>769.0</ele><time>2026-04-11T14:55:41Z</time></trkpt><trkpt lat="44.410612498309646" lon="10.431100775140214"><ele>769.0</ele><time>2026-04-11T14:55:42Z</time></trkpt><trkpt lat="44.410548345873806" lon="10.431249493751901"><ele>767.4000000000001</ele><time>2026-04-11T14:55:44Z</time></trkpt><trkpt lat="44.41049644270199" lon="10.431351062166359"><ele>765.8</ele><time>2026-04-11T14:55:46Z</time></trkpt><trkpt lat="44.41041844924613" lon="10.43147809593612"><ele>764.2</ele><time>2026-04-11T14:55:49.001Z</time></trkpt><trkpt lat="44.410358729291296" lon="10.431514771639424"><ele>762.5999999999999</ele><time>2026-04-11T14:55:50.001Z</time></trkpt><trkpt lat="44.41025991807329" lon="10.431571276958953"><ele>761.0</ele><time>2026-04-11T14:55:52.001Z</time></trkpt><trkpt lat="44.41017227022163" lon="10.431582977860783"><ele>767.0</ele><time>2026-04-11T14:55:54.001Z</time></trkpt><trkpt lat="44.41002711399509" lon="10.431585203011783"><ele>773.0</ele><time>2026-04-11T14:55:56.001Z</time></trkpt><trkpt lat="44.40993229604687" lon="10.431598149122115"><ele>779.0</ele><time>2026-04-11T14:55:57.001Z</time></trkpt><trkpt lat="44.40983991990338" lon="10.43161902812914"><ele>785.0</ele><time>2026-04-11T14:55:58.001Z</time></trkpt><trkpt lat="44.409722263481996" lon="10.4316390157328"><ele>787.0000000000001</ele><time>2026-04-11T14:56:00.001Z</time></trkpt><trkpt lat="44.409652529721164" lon="10.4316483931109"><ele>789.0</ele><time>2026-04-11T14:56:01.001Z</time></trkpt><trkpt lat="44.40957814979327" lon="10.431675405838288"><ele>791.0</ele><time>2026-04-11T14:56:02.001Z</time></trkpt><trkpt lat="44.409498262706286" lon="10.431716208989869"><ele>793.0</ele><time>2026-04-11T14:56:03.001Z</time></trkpt><trkpt lat="44.40943471271787" lon="10.431760430495766"><ele>795.0000000000001</ele><time>2026-04-11T14:56:04.001Z</time></trkpt><trkpt lat="44.40937792355512" lon="10.431805240332757"><ele>797.0</ele><time>2026-04-11T14:56:05.001Z</time></trkpt><trkpt lat="44.409264776121795" lon="10.431846582930518"><ele>797.0000000000001</ele><time>2026-04-11T14:56:07.001Z</time></trkpt><trkpt lat="44.40916763528287" lon="10.431938906592677"><ele>797.0</ele><time>2026-04-11T14:56:09.001Z</time></trkpt><trkpt lat="44.409137953854" lon="10.432028001528847"><ele>797.0</ele><time>2026-04-11T14:56:10.001Z</time></trkpt><trkpt lat="44.40908226324346" lon="10.432123110333473"><ele>797.0</ele><time>2026-04-11T14:56:12.001Z</time></trkpt><trkpt lat="44.409011188755386" lon="10.43213766427632"><ele>797.0000000000001</ele><time>2026-04-11T14:56:30.001Z</time></trkpt><trkpt lat="44.40899688223797" lon="10.43201922526693"><ele>797.0</ele><time>2026-04-11T14:56:32.001Z</time></trkpt><trkpt lat="44.40896781772222" lon="10.431910277313438"><ele>797.0</ele><time>2026-04-11T14:56:36.001Z</time></trkpt><trkpt lat="44.40888787670446" lon="10.43182351387643"><ele>797.0</ele><time>2026-04-11T14:56:39.001Z</time></trkpt><trkpt lat="44.408795728628604" lon="10.431762761609841"><ele>797.0</ele><time>2026-04-11T14:56:41.001Z</time></trkpt><trkpt lat="44.408700204259105" lon="10.431687739848355"><ele>797.0</ele><time>2026-04-11T14:56:43.001Z</time></trkpt><trkpt lat="44.40865540332914" lon="10.431563762232175"><ele>797.0</ele><time>2026-04-11T14:56:45.001Z</time></trkpt><trkpt lat="44.40865240026754" lon="10.431407218214057"><ele>797.6666666666667</ele><time>2026-04-11T14:56:47.001Z</time></trkpt><trkpt lat="44.40857903815911" lon="10.43130164185091"><ele>798.3333333333334</ele><time>2026-04-11T14:56:49.001Z</time></trkpt><trkpt lat="44.40851887311982" lon="10.431264527886823"><ele>799.0</ele><time>2026-04-11T14:56:50.001Z</time></trkpt><trkpt lat="44.408419241644275" lon="10.431173733870613"><ele>799.6666666666667</ele><time>2026-04-11T14:56:52.001Z</time></trkpt><trkpt lat="44.40836651319557" lon="10.431116179328141"><ele>800.3333333333334</ele><time>2026-04-11T14:56:53.001Z</time></trkpt><trkpt lat="44.40831471503781" lon="10.43104240370738"><ele>801.0</ele><time>2026-04-11T14:56:54.001Z</time></trkpt><trkpt lat="44.40825987655045" lon="10.430973927351513"><ele>801.0</ele><time>2026-04-11T14:56:55.001Z</time></trkpt><trkpt lat="44.408192820048754" lon="10.430918094744499"><ele>801.0</ele><time>2026-04-11T14:56:56.001Z</time></trkpt><trkpt lat="44.408124505911545" lon="10.430885062831248"><ele>801.0</ele><time>2026-04-11T14:56:57.001Z</time></trkpt><trkpt lat="44.40805301497153" lon="10.430879344174818"><ele>801.0</ele><time>2026-04-11T14:56:58.001Z</time></trkpt><trkpt lat="44.40798544145684" lon="10.430856464460629"><ele>801.0</ele><time>2026-04-11T14:56:59.001Z</time></trkpt><trkpt lat="44.40792365018854" lon="10.430803433342527"><ele>801.0</ele><time>2026-04-11T14:57:00.001Z</time></trkpt><trkpt lat="44.4078802619551" lon="10.430735024533906"><ele>801.0</ele><time>2026-04-11T14:57:01.001Z</time></trkpt><trkpt lat="44.40779334497098" lon="10.4306144305649"><ele>802.0</ele><time>2026-04-11T14:57:03.001Z</time></trkpt><trkpt lat="44.407736487714665" lon="10.430561599833696"><ele>803.0</ele><time>2026-04-11T14:57:04.001Z</time></trkpt><trkpt lat="44.40768773581435" lon="10.430502476911276"><ele>804.0</ele><time>2026-04-11T14:57:05.001Z</time></trkpt><trkpt lat="44.40764633950877" lon="10.4304331278798"><ele>805.0</ele><time>2026-04-11T14:57:06.001Z</time></trkpt><trkpt lat="44.40761613751607" lon="10.430341705196117"><ele>806.0</ele><time>2026-04-11T14:57:07.001Z</time></trkpt><trkpt lat="44.40758446806928" lon="10.430234763790782"><ele>807.0</ele><time>2026-04-11T14:57:08.001Z</time></trkpt><trkpt lat="44.40755113203216" lon="10.430132242953581"><ele>808.0</ele><time>2026-04-11T14:57:09Z</time></trkpt><trkpt lat="44.40751005067255" lon="10.430043033179318"><ele>808.0</ele><time>2026-04-11T14:57:10Z</time></trkpt><trkpt lat="44.40746037496585" lon="10.42997672036332"><ele>808.0</ele><time>2026-04-11T14:57:11Z</time></trkpt><trkpt lat="44.40740390501901" lon="10.42992645181285"><ele>808.0</ele><time>2026-04-11T14:57:12Z</time></trkpt><trkpt lat="44.407338587664704" lon="10.429886442390728"><ele>808.0</ele><time>2026-04-11T14:57:13Z</time></trkpt><trkpt lat="44.40727326560098" lon="10.429858163030236"><ele>808.0</ele><time>2026-04-11T14:57:14Z</time></trkpt><trkpt lat="44.4072072101518" lon="10.429843342256722"><ele>808.0</ele><time>2026-04-11T14:57:15Z</time></trkpt><trkpt lat="44.40714350395246" lon="10.429821906357832"><ele>808.0</ele><time>2026-04-11T14:57:16Z</time></trkpt><trkpt lat="44.40707396519047" lon="10.429770904409207"><ele>807.8</ele><time>2026-04-11T14:57:17Z</time></trkpt><trkpt lat="44.40702262447015" lon="10.42971697929024"><ele>807.5999999999999</ele><time>2026-04-11T14:57:18Z</time></trkpt><trkpt lat="44.40696242135099" lon="10.429609581938303"><ele>807.4000000000001</ele><time>2026-04-11T14:57:20Z</time></trkpt><trkpt lat="44.40687722793455" lon="10.4295251436296"><ele>807.2</ele><time>2026-04-11T14:57:22Z</time></trkpt><trkpt lat="44.40681514143297" lon="10.429433394978863"><ele>807.0</ele><time>2026-04-11T14:57:24Z</time></trkpt><trkpt lat="44.40677293225611" lon="10.429315185493206"><ele>807.0</ele><time>2026-04-11T14:57:26Z</time></trkpt><trkpt lat="44.40668546298414" lon="10.429213342760548"><ele>807.0</ele><time>2026-04-11T14:57:28Z</time></trkpt><trkpt lat="44.406606583270566" lon="10.429145499831002"><ele>807.0</ele><time>2026-04-11T14:57:30Z</time></trkpt><trkpt lat="44.40652666185517" lon="10.429109397534045"><ele>807.0</ele><time>2026-04-11T14:57:32Z</time></trkpt><trkpt lat="44.40641988624492" lon="10.429145107157652"><ele>807.0</ele><time>2026-04-11T14:57:34Z</time></trkpt><trkpt lat="44.406345286087486" lon="10.429172375841933"><ele>804.5</ele><time>2026-04-11T14:57:35Z</time></trkpt><trkpt lat="44.40627997872907" lon="10.429194551382922"><ele>802.0</ele><time>2026-04-11T14:57:36Z</time></trkpt><trkpt lat="44.40618430006223" lon="10.429246537391363"><ele>799.5</ele><time>2026-04-11T14:57:38Z</time></trkpt><trkpt lat="44.406104449588305" lon="10.429296771655578"><ele>797.0</ele><time>2026-04-11T14:57:41Z</time></trkpt><trkpt lat="44.4059970694022" lon="10.429275692094285"><ele>794.5</ele><time>2026-04-11T14:57:43Z</time></trkpt><trkpt lat="44.40594824501939" lon="10.429202083057454"><ele>792.0</ele><time>2026-04-11T14:57:44Z</time></trkpt><trkpt lat="44.40591897374992" lon="10.429106114531262"><ele>792.0</ele><time>2026-04-11T14:57:45Z</time></trkpt><trkpt lat="44.40585393462422" lon="10.429015060226384"><ele>792.0</ele><time>2026-04-11T14:57:47Z</time></trkpt><trkpt lat="44.40579242781567" lon="10.428981937239717"><ele>792.0</ele><time>2026-04-11T14:57:49Z</time></trkpt><trkpt lat="44.40570214885301" lon="10.428942738902897"><ele>792.0</ele><time>2026-04-11T14:57:51Z</time></trkpt><trkpt lat="44.405633700234176" lon="10.428918146964918"><ele>792.0</ele><time>2026-04-11T14:57:53Z</time></trkpt><trkpt lat="44.40556306334474" lon="10.428933015902645"><ele>792.0</ele><time>2026-04-11T14:57:55Z</time></trkpt><trkpt lat="44.40545301769602" lon="10.428892949456195"><ele>790.7142857142858</ele><time>2026-04-11T14:57:57Z</time></trkpt><trkpt lat="44.405387217289054" lon="10.428886496896387"><ele>789.4285714285713</ele><time>2026-04-11T14:57:58Z</time></trkpt><trkpt lat="44.40532530515784" lon="10.428905833810052"><ele>788.1428571428571</ele><time>2026-04-11T14:57:59Z</time></trkpt><trkpt lat="44.40526262745638" lon="10.42893821780945"><ele>786.8571428571429</ele><time>2026-04-11T14:58:00Z</time></trkpt><trkpt lat="44.405191106035836" lon="10.428979319902654"><ele>785.5714285714287</ele><time>2026-04-11T14:58:01Z</time></trkpt><trkpt lat="44.40510927127507" lon="10.429013575988494"><ele>784.2857142857142</ele><time>2026-04-11T14:58:02Z</time></trkpt><trkpt lat="44.4050329262656" lon="10.429053015296821"><ele>783.0</ele><time>2026-04-11T14:58:03Z</time></trkpt><trkpt lat="44.40493465421066" lon="10.429073389310139"><ele>783.0</ele><time>2026-04-11T14:58:05Z</time></trkpt><trkpt lat="44.404853111936234" lon="10.429012881001276"><ele>783.0</ele><time>2026-04-11T14:58:07Z</time></trkpt><trkpt lat="44.40479920501759" lon="10.428956370824098"><ele>783.0</ele><time>2026-04-11T14:58:08Z</time></trkpt><trkpt lat="44.404729657789666" lon="10.428911605859035"><ele>783.0</ele><time>2026-04-11T14:58:09Z</time></trkpt><trkpt lat="44.40464671131033" lon="10.428887455418957"><ele>783.0</ele><time>2026-04-11T14:58:10Z</time></trkpt><trkpt lat="44.40456577051514" lon="10.42887651944968"><ele>783.0</ele><time>2026-04-11T14:58:11Z</time></trkpt><trkpt lat="44.40448292131015" lon="10.428865127489814"><ele>783.0</ele><time>2026-04-11T14:58:12Z</time></trkpt><trkpt lat="44.4043728771004" lon="10.428846821158425"><ele>783.0</ele><time>2026-04-11T14:58:14Z</time></trkpt><trkpt lat="44.4042960182202" lon="10.428827750021767"><ele>783.0</ele><time>2026-04-11T14:58:16Z</time></trkpt><trkpt lat="44.4042435754961" lon="10.42875027285181"><ele>783.0</ele><time>2026-04-11T14:58:18Z</time></trkpt><trkpt lat="44.4041661074361" lon="10.428744505674361"><ele>783.0</ele><time>2026-04-11T14:58:20Z</time></trkpt><trkpt lat="44.404088694974796" lon="10.428743625494164"><ele>783.0</ele><time>2026-04-11T14:58:22Z</time></trkpt><trkpt lat="44.404008065398635" lon="10.428730867847554"><ele>783.0</ele><time>2026-04-11T14:58:24Z</time></trkpt><trkpt lat="44.403932203125784" lon="10.428692903134532"><ele>783.0</ele><time>2026-04-11T14:58:25Z</time></trkpt><trkpt lat="44.40386132204626" lon="10.428625932147956"><ele>783.0</ele><time>2026-04-11T14:58:26Z</time></trkpt><trkpt lat="44.40379289677952" lon="10.428550467933785"><ele>783.0</ele><time>2026-04-11T14:58:27Z</time></trkpt><trkpt lat="44.40371988042932" lon="10.428485378660582"><ele>783.0</ele><time>2026-04-11T14:58:28Z</time></trkpt><trkpt lat="44.403645838290856" lon="10.428436182424615"><ele>783.0</ele><time>2026-04-11T14:58:29Z</time></trkpt><trkpt lat="44.403573085737435" lon="10.42838385649033"><ele>785.0</ele><time>2026-04-11T14:58:30Z</time></trkpt><trkpt lat="44.40349853458748" lon="10.42831494388129"><ele>787.0</ele><time>2026-04-11T14:58:31Z</time></trkpt><trkpt lat="44.40342613408975" lon="10.428253633050764"><ele>789.0</ele><time>2026-04-11T14:58:32Z</time></trkpt><trkpt lat="44.403347631223234" lon="10.428194593026486"><ele>791.0</ele><time>2026-04-11T14:58:33Z</time></trkpt><trkpt lat="44.40326388714585" lon="10.428138941708674"><ele>793.0</ele><time>2026-04-11T14:58:34Z</time></trkpt><trkpt lat="44.403195548234024" lon="10.428094408421327"><ele>795.0</ele><time>2026-04-11T14:58:35Z</time></trkpt><trkpt lat="44.40311597699574" lon="10.428052821353825"><ele>795.0</ele><time>2026-04-11T14:58:36Z</time></trkpt><trkpt lat="44.403045580631854" lon="10.428017357255552"><ele>795.0</ele><time>2026-04-11T14:58:37Z</time></trkpt><trkpt lat="44.40296090944919" lon="10.427996914998527"><ele>795.0</ele><time>2026-04-11T14:58:38Z</time></trkpt><trkpt lat="44.40286992601045" lon="10.427966698419771"><ele>795.0</ele><time>2026-04-11T14:58:39Z</time></trkpt><trkpt lat="44.40278980668614" lon="10.427948513850183"><ele>795.0</ele><time>2026-04-11T14:58:40Z</time></trkpt><trkpt lat="44.402704006498894" lon="10.427934606291048"><ele>795.0</ele><time>2026-04-11T14:58:41Z</time></trkpt><trkpt lat="44.40262561908545" lon="10.427922398046999"><ele>794.3333333333334</ele><time>2026-04-11T14:58:42Z</time></trkpt><trkpt lat="44.40252296476787" lon="10.427875983189374"><ele>793.6666666666667</ele><time>2026-04-11T14:58:44Z</time></trkpt><trkpt lat="44.402422212156274" lon="10.427799371658475"><ele>793.0</ele><time>2026-04-11T14:58:46Z</time></trkpt><trkpt lat="44.40236887011216" lon="10.427749244050894"><ele>792.3333333333334</ele><time>2026-04-11T14:58:47Z</time></trkpt><trkpt lat="44.40230791601475" lon="10.427684730258573"><ele>791.6666666666667</ele><time>2026-04-11T14:58:48Z</time></trkpt><trkpt lat="44.40225288339157" lon="10.427633199892924"><ele>791.0</ele><time>2026-04-11T14:58:49Z</time></trkpt><trkpt lat="44.40215472613782" lon="10.427579842123516"><ele>789.1999999999999</ele><time>2026-04-11T14:58:51Z</time></trkpt><trkpt lat="44.402049872956106" lon="10.427552218928156"><ele>787.4</ele><time>2026-04-11T14:58:53Z</time></trkpt><trkpt lat="44.40196191611561" lon="10.427517224989877"><ele>785.6</ele><time>2026-04-11T14:58:55Z</time></trkpt><trkpt lat="44.40188201693736" lon="10.427486210601376"><ele>783.8</ele><time>2026-04-11T14:58:57Z</time></trkpt><trkpt lat="44.401793293564964" lon="10.427427544020471"><ele>782.0</ele><time>2026-04-11T14:58:59Z</time></trkpt><trkpt lat="44.401691662134006" lon="10.427369313247008"><ele>782.0</ele><time>2026-04-11T14:59:01Z</time></trkpt><trkpt lat="44.401600201608495" lon="10.427293522045275"><ele>782.0</ele><time>2026-04-11T14:59:03Z</time></trkpt><trkpt lat="44.401508002873236" lon="10.427211073272861"><ele>782.0</ele><time>2026-04-11T14:59:05Z</time></trkpt><trkpt lat="44.40142183631595" lon="10.427124274232492"><ele>782.0</ele><time>2026-04-11T14:59:07Z</time></trkpt><trkpt lat="44.40134873322187" lon="10.427070859244397"><ele>782.0</ele><time>2026-04-11T14:59:09Z</time></trkpt><trkpt lat="44.40127745429168" lon="10.42703266580476"><ele>780.5000000000001</ele><time>2026-04-11T14:59:11Z</time></trkpt><trkpt lat="44.40119822062735" lon="10.42699012367694"><ele>779.0</ele><time>2026-04-11T14:59:13Z</time></trkpt><trkpt lat="44.40109353531473" lon="10.42699313391322"><ele>777.5</ele><time>2026-04-11T14:59:15Z</time></trkpt><trkpt lat="44.40102912373747" lon="10.427000534529412"><ele>776.0</ele><time>2026-04-11T14:59:16Z</time></trkpt><trkpt lat="44.40096305860994" lon="10.427005296084497"><ele>774.5000000000001</ele><time>2026-04-11T14:59:17Z</time></trkpt><trkpt lat="44.40089921353823" lon="10.427002228322856"><ele>773.0</ele><time>2026-04-11T14:59:18Z</time></trkpt><trkpt lat="44.40079630184096" lon="10.426977800187638"><ele>773.0</ele><time>2026-04-11T14:59:20Z</time></trkpt><trkpt lat="44.40070868279789" lon="10.426952131669097"><ele>773.0</ele><time>2026-04-11T14:59:22Z</time></trkpt><trkpt lat="44.40061608304367" lon="10.426893687564382"><ele>773.0</ele><time>2026-04-11T14:59:24Z</time></trkpt><trkpt lat="44.40053472129526" lon="10.426853983884298"><ele>773.0</ele><time>2026-04-11T14:59:26Z</time></trkpt><trkpt lat="44.400460763707144" lon="10.426789690522257"><ele>773.0</ele><time>2026-04-11T14:59:28Z</time></trkpt><trkpt lat="44.40038575330825" lon="10.42670182696273"><ele>772.4</ele><time>2026-04-11T14:59:30Z</time></trkpt><trkpt lat="44.40029653745475" lon="10.426652225420485"><ele>771.8</ele><time>2026-04-11T14:59:32Z</time></trkpt><trkpt lat="44.400199630487364" lon="10.426636296203473"><ele>771.2</ele><time>2026-04-11T14:59:34Z</time></trkpt><trkpt lat="44.400097104226234" lon="10.426625589302366"><ele>770.6</ele><time>2026-04-11T14:59:36Z</time></trkpt><trkpt lat="44.39998865392682" lon="10.426624211651331"><ele>770.0</ele><time>2026-04-11T14:59:38Z</time></trkpt><trkpt lat="44.39988398689871" lon="10.426625357436285"><ele>770.0</ele><time>2026-04-11T14:59:40Z</time></trkpt><trkpt lat="44.399779578744614" lon="10.426599583532019"><ele>770.0</ele><time>2026-04-11T14:59:42Z</time></trkpt><trkpt lat="44.39968569940701" lon="10.426600121210479"><ele>770.0</ele><time>2026-04-11T14:59:44Z</time></trkpt><trkpt lat="44.39958413651768" lon="10.426584151310559"><ele>770.0</ele><time>2026-04-11T14:59:46Z</time></trkpt><trkpt lat="44.39947523877075" lon="10.426520710011598"><ele>770.0</ele><time>2026-04-11T14:59:48Z</time></trkpt><trkpt lat="44.39939920369279" lon="10.426470039827652"><ele>767.4</ele><time>2026-04-11T14:59:50Z</time></trkpt><trkpt lat="44.39933588389482" lon="10.426463643377357"><ele>764.8</ele><time>2026-04-11T14:59:52Z</time></trkpt><trkpt lat="44.399311688473816" lon="10.426327707455837"><ele>762.2</ele><time>2026-04-11T14:59:55Z</time></trkpt><trkpt lat="44.399307259769735" lon="10.426204110085683"><ele>759.6</ele><time>2026-04-11T14:59:57.001Z</time></trkpt><trkpt lat="44.39922810345553" lon="10.426109285426437"><ele>757.0</ele><time>2026-04-11T14:59:59.001Z</time></trkpt><trkpt lat="44.399176195221486" lon="10.425993568820974"><ele>756.8333333333334</ele><time>2026-04-11T15:00:01.001Z</time></trkpt><trkpt lat="44.399189455786846" lon="10.425859856696105"><ele>756.6666666666667</ele><time>2026-04-11T15:00:03.001Z</time></trkpt><trkpt lat="44.39918833098554" lon="10.425768794742364"><ele>756.5</ele><time>2026-04-11T15:00:04.001Z</time></trkpt><trkpt lat="44.39920015644909" lon="10.425631377052667"><ele>756.3333333333334</ele><time>2026-04-11T15:00:06.001Z</time></trkpt><trkpt lat="44.399175210666066" lon="10.42554071344912"><ele>756.1666666666666</ele><time>2026-04-11T15:00:08.001Z</time></trkpt><trkpt lat="44.39910673973809" lon="10.425442574369814"><ele>756.0</ele><time>2026-04-11T15:00:10.001Z</time></trkpt><trkpt lat="44.39903996964271" lon="10.425315228158412"><ele>754.5</ele><time>2026-04-11T15:00:12.001Z</time></trkpt><trkpt lat="44.39902083534716" lon="10.425230679628278"><ele>753.0</ele><time>2026-04-11T15:00:13.001Z</time></trkpt><trkpt lat="44.39899855485406" lon="10.425121173072641"><ele>751.5</ele><time>2026-04-11T15:00:15.001Z</time></trkpt><trkpt lat="44.39896572172466" lon="10.425018226908456"><ele>750.0</ele><time>2026-04-11T15:00:17.001Z</time></trkpt><trkpt lat="44.39893635845627" lon="10.424894863534083"><ele>748.5</ele><time>2026-04-11T15:00:19.001Z</time></trkpt><trkpt lat="44.39891281227473" lon="10.424771703704526"><ele>747.0</ele><time>2026-04-11T15:00:21.001Z</time></trkpt><trkpt lat="44.398843942066804" lon="10.424656092920726"><ele>745.0</ele><time>2026-04-11T15:00:23.001Z</time></trkpt><trkpt lat="44.398799125028084" lon="10.424587748675387"><ele>743.0</ele><time>2026-04-11T15:00:24.001Z</time></trkpt><trkpt lat="44.39874444537927" lon="10.42450981827103"><ele>741.0</ele><time>2026-04-11T15:00:25.001Z</time></trkpt><trkpt lat="44.39864942614202" lon="10.42442887170184"><ele>739.0</ele><time>2026-04-11T15:00:27.001Z</time></trkpt><trkpt lat="44.398589329352895" lon="10.424397753018706"><ele>737.0</ele><time>2026-04-11T15:00:29.001Z</time></trkpt><trkpt lat="44.398553825014524" lon="10.424293197553334"><ele>735.0</ele><time>2026-04-11T15:00:31.001Z</time></trkpt><trkpt lat="44.39853166134672" lon="10.42419902610234"><ele>735.0</ele><time>2026-04-11T15:00:33.001Z</time></trkpt><trkpt lat="44.39850243784684" lon="10.42410437551606"><ele>735.0</ele><time>2026-04-11T15:00:35.001Z</time></trkpt><trkpt lat="44.39845026851801" lon="10.424041836768236"><ele>735.0</ele><time>2026-04-11T15:00:37Z</time></trkpt><trkpt lat="44.39839290364937" lon="10.423991452790277"><ele>735.0</ele><time>2026-04-11T15:00:39Z</time></trkpt><trkpt lat="44.39832945859033" lon="10.423969506445793"><ele>735.0</ele><time>2026-04-11T15:00:42Z</time></trkpt><trkpt lat="44.398247671153385" lon="10.423961414687538"><ele>735.0</ele><time>2026-04-11T15:00:47Z</time></trkpt><trkpt lat="44.39816788943662" lon="10.423953616554993"><ele>735.0</ele><time>2026-04-11T15:00:50.001Z</time></trkpt><trkpt lat="44.39810223798455" lon="10.423886092110843"><ele>735.0</ele><time>2026-04-11T15:00:53.001Z</time></trkpt><trkpt lat="44.39802679846575" lon="10.42387193879218"><ele>735.0</ele><time>2026-04-11T15:00:56.001Z</time></trkpt><trkpt lat="44.39795570599089" lon="10.423822877111302"><ele>735.0</ele><time>2026-04-11T15:01:01.001Z</time></trkpt><trkpt lat="44.39788254113803" lon="10.423761599610254"><ele>735.0</ele><time>2026-04-11T15:01:03.001Z</time></trkpt><trkpt lat="44.39780159631956" lon="10.423666850415433"><ele>735.0</ele><time>2026-04-11T15:01:05.001Z</time></trkpt><trkpt lat="44.39774594385551" lon="10.423614433373551"><ele>735.0</ele><time>2026-04-11T15:01:07.001Z</time></trkpt><trkpt lat="44.397642729686574" lon="10.423431400828742"><ele>730.6</ele><time>2026-04-11T15:01:09.001Z</time></trkpt><trkpt lat="44.39759132076916" lon="10.423286760023027"><ele>726.2</ele><time>2026-04-11T15:01:11.001Z</time></trkpt><trkpt lat="44.397548938298264" lon="10.42308507406965"><ele>721.8</ele><time>2026-04-11T15:01:13.001Z</time></trkpt><trkpt lat="44.397536840389456" lon="10.422990190666445"><ele>717.4</ele><time>2026-04-11T15:01:14.001Z</time></trkpt><trkpt lat="44.397494662396205" lon="10.422857055686029"><ele>713.0</ele><time>2026-04-11T15:01:16.001Z</time></trkpt><trkpt lat="44.39741697463848" lon="10.422782086067507"><ele>712.8</ele><time>2026-04-11T15:01:18.001Z</time></trkpt><trkpt lat="44.39732245142358" lon="10.422697402100535"><ele>712.5999999999999</ele><time>2026-04-11T15:01:20.001Z</time></trkpt><trkpt lat="44.39724954003799" lon="10.422566165559502"><ele>712.4000000000001</ele><time>2026-04-11T15:01:22.001Z</time></trkpt><trkpt lat="44.397179480077746" lon="10.422455486251714"><ele>712.2</ele><time>2026-04-11T15:01:24.001Z</time></trkpt><trkpt lat="44.39714838590529" lon="10.42234448865423"><ele>712.0</ele><time>2026-04-11T15:01:26.001Z</time></trkpt><trkpt lat="44.39710217411275" lon="10.422280934281197"><ele>709.6</ele><time>2026-04-11T15:01:28.001Z</time></trkpt><trkpt lat="44.39703000199554" lon="10.422205532334255"><ele>707.2</ele><time>2026-04-11T15:01:30.001Z</time></trkpt><trkpt lat="44.396937286829335" lon="10.422189419666308"><ele>704.8</ele><time>2026-04-11T15:01:32.001Z</time></trkpt><trkpt lat="44.396839818260624" lon="10.422204717313734"><ele>702.4</ele><time>2026-04-11T15:01:34.001Z</time></trkpt><trkpt lat="44.39675007550877" lon="10.422197010335104"><ele>700.0</ele><time>2026-04-11T15:01:36Z</time></trkpt><trkpt lat="44.39671143908683" lon="10.422043842458661"><ele>699.8571428571429</ele><time>2026-04-11T15:01:38Z</time></trkpt><trkpt lat="44.396665984932014" lon="10.421970690153627"><ele>699.7142857142858</ele><time>2026-04-11T15:01:39Z</time></trkpt><trkpt lat="44.39662399436203" lon="10.421898234550918"><ele>699.5714285714286</ele><time>2026-04-11T15:01:40Z</time></trkpt><trkpt lat="44.39658578235544" lon="10.421822429466582"><ele>699.4285714285714</ele><time>2026-04-11T15:01:41Z</time></trkpt><trkpt lat="44.39652412385163" lon="10.421767000850155"><ele>699.2857142857143</ele><time>2026-04-11T15:01:42Z</time></trkpt><trkpt lat="44.39642494867437" lon="10.421721232025538"><ele>699.1428571428571</ele><time>2026-04-11T15:01:44Z</time></trkpt><trkpt lat="44.39636217376945" lon="10.421735374240313"><ele>699.0</ele><time>2026-04-11T15:01:45Z</time></trkpt><trkpt lat="44.396274840918494" lon="10.421689698144528"><ele>697.5</ele><time>2026-04-11T15:01:47Z</time></trkpt><trkpt lat="44.396216034518375" lon="10.421630988600791"><ele>696.0</ele><time>2026-04-11T15:01:51Z</time></trkpt><trkpt lat="44.3961595311904" lon="10.421532335464558"><ele>694.5</ele><time>2026-04-11T15:01:54Z</time></trkpt><trkpt lat="44.39612835355193" lon="10.42144100861953"><ele>693.0</ele><time>2026-04-11T15:01:55Z</time></trkpt><trkpt lat="44.39608988625678" lon="10.421362251925837"><ele>691.5</ele><time>2026-04-11T15:01:56Z</time></trkpt><trkpt lat="44.39604057335425" lon="10.42125015057968"><ele>690.0</ele><time>2026-04-11T15:01:57Z</time></trkpt><trkpt lat="44.3960023820722" lon="10.421126698156318"><ele>690.0</ele><time>2026-04-11T15:01:58Z</time></trkpt><trkpt lat="44.395957150783836" lon="10.421000620424417"><ele>690.0</ele><time>2026-04-11T15:01:59Z</time></trkpt><trkpt lat="44.39591836910307" lon="10.420878603264402"><ele>690.0</ele><time>2026-04-11T15:02:00Z</time></trkpt><trkpt lat="44.39588337415707" lon="10.42076559383076"><ele>690.0</ele><time>2026-04-11T15:02:01Z</time></trkpt><trkpt lat="44.39585398693065" lon="10.42066890057409"><ele>690.0</ele><time>2026-04-11T15:02:02Z</time></trkpt><trkpt lat="44.395833313478825" lon="10.42057752910984"><ele>690.0</ele><time>2026-04-11T15:02:04Z</time></trkpt><trkpt lat="44.395804115876174" lon="10.420459536562925"><ele>690.3333333333334</ele><time>2026-04-11T15:02:07Z</time></trkpt><trkpt lat="44.395768815578755" lon="10.420320625277679"><ele>690.6666666666667</ele><time>2026-04-11T15:02:09Z</time></trkpt><trkpt lat="44.395747235504764" lon="10.420181392448677"><ele>691.0</ele><time>2026-04-11T15:02:11Z</time></trkpt><trkpt lat="44.396042076296" lon="10.419875160521649"><ele>691.0</ele><time>2026-04-11T15:02:13Z</time></trkpt><trkpt lat="44.39607211010103" lon="10.41976729120501"><ele>691.0</ele><time>2026-04-11T15:02:14Z</time></trkpt><trkpt lat="44.396099006738936" lon="10.419658350306108"><ele>691.0</ele><time>2026-04-11T15:02:15Z</time></trkpt><trkpt lat="44.39612675628082" lon="10.419549932077151"><ele>691.0</ele><time>2026-04-11T15:02:16Z</time></trkpt><trkpt lat="44.39615026181022" lon="10.419436438486999"><ele>691.0</ele><time>2026-04-11T15:02:17Z</time></trkpt><trkpt lat="44.39616736945439" lon="10.41933013793794"><ele>691.0</ele><time>2026-04-11T15:02:18Z</time></trkpt><trkpt lat="44.3961898602073" lon="10.41922912976643"><ele>689.5</ele><time>2026-04-11T15:02:19Z</time></trkpt><trkpt lat="44.39622200186925" lon="10.419133998753944"><ele>688.0</ele><time>2026-04-11T15:02:20Z</time></trkpt><trkpt lat="44.396257774224445" lon="10.4190440181969"><ele>686.5</ele><time>2026-04-11T15:02:21Z</time></trkpt><trkpt lat="44.39629726142134" lon="10.418965222190598"><ele>685.0</ele><time>2026-04-11T15:02:22Z</time></trkpt><trkpt lat="44.39634015472122" lon="10.418883442187205"><ele>683.5</ele><time>2026-04-11T15:02:23Z</time></trkpt><trkpt lat="44.39638179165616" lon="10.418813433752893"><ele>682.0</ele><time>2026-04-11T15:02:24Z</time></trkpt><trkpt lat="44.3964542086987" lon="10.418668273082123"><ele>678.6666666666667</ele><time>2026-04-11T15:02:26Z</time></trkpt><trkpt lat="44.39650222271367" lon="10.41858517112556"><ele>675.3333333333334</ele><time>2026-04-11T15:02:27Z</time></trkpt><trkpt lat="44.396554087682176" lon="10.418499000715926"><ele>672.0</ele><time>2026-04-11T15:02:28Z</time></trkpt><trkpt lat="44.39659258439365" lon="10.418384605181828"><ele>668.6666666666666</ele><time>2026-04-11T15:02:29Z</time></trkpt><trkpt lat="44.39661038134809" lon="10.418273415780398"><ele>665.3333333333333</ele><time>2026-04-11T15:02:30Z</time></trkpt><trkpt lat="44.39662665553129" lon="10.418168286936762"><ele>662.0</ele><time>2026-04-11T15:02:31Z</time></trkpt><trkpt lat="44.39669083996975" lon="10.418022544847634"><ele>658.8</ele><time>2026-04-11T15:02:33Z</time></trkpt><trkpt lat="44.39674547606353" lon="10.417896064444513"><ele>655.6</ele><time>2026-04-11T15:02:35Z</time></trkpt><trkpt lat="44.39682390389885" lon="10.417807041369379"><ele>652.4</ele><time>2026-04-11T15:02:37Z</time></trkpt><trkpt lat="44.39691258713215" lon="10.417767577769968"><ele>649.1999999999999</ele><time>2026-04-11T15:02:39Z</time></trkpt><trkpt lat="44.39703646679342" lon="10.417727383425888"><ele>646.0</ele><time>2026-04-11T15:02:41Z</time></trkpt><trkpt lat="44.397102230957884" lon="10.417710934382846"><ele>645.8333333333334</ele><time>2026-04-11T15:02:42Z</time></trkpt><trkpt lat="44.39718362674009" lon="10.417679638537964"><ele>645.6666666666667</ele><time>2026-04-11T15:02:44Z</time></trkpt><trkpt lat="44.397237474731604" lon="10.417574811410782"><ele>645.5</ele><time>2026-04-11T15:02:46Z</time></trkpt><trkpt lat="44.39728719931033" lon="10.417453888672291"><ele>645.3333333333334</ele><time>2026-04-11T15:02:48Z</time></trkpt><trkpt lat="44.39734625900707" lon="10.41738446633355"><ele>645.1666666666666</ele><time>2026-04-11T15:02:50Z</time></trkpt><trkpt lat="44.39740108486135" lon="10.417295725115716"><ele>645.0</ele><time>2026-04-11T15:02:52Z</time></trkpt><trkpt lat="44.397451673029536" lon="10.417154667029248"><ele>642.2</ele><time>2026-04-11T15:02:54Z</time></trkpt><trkpt lat="44.397460434693016" lon="10.417011521083122"><ele>639.4</ele><time>2026-04-11T15:02:56Z</time></trkpt><trkpt lat="44.39749085835976" lon="10.416910597931787"><ele>636.6</ele><time>2026-04-11T15:02:58Z</time></trkpt><trkpt lat="44.397562601803756" lon="10.416850524112794"><ele>633.8</ele><time>2026-04-11T15:03:00Z</time></trkpt><trkpt lat="44.397640588078374" lon="10.416896344837253"><ele>631.0</ele><time>2026-04-11T15:03:02Z</time></trkpt><trkpt lat="44.39773987072857" lon="10.416963675341018"><ele>631.0</ele><time>2026-04-11T15:03:04Z</time></trkpt><trkpt lat="44.39779636345377" lon="10.417057420687096"><ele>631.0</ele><time>2026-04-11T15:03:06Z</time></trkpt><trkpt lat="44.39789886367562" lon="10.417006785370653"><ele>631.0</ele><time>2026-04-11T15:03:09Z</time></trkpt><trkpt lat="44.39793154027302" lon="10.416891898772507"><ele>631.0</ele><time>2026-04-11T15:03:11Z</time></trkpt><trkpt lat="44.39790664174818" lon="10.416781156305854"><ele>631.0</ele><time>2026-04-11T15:03:13Z</time></trkpt><trkpt lat="44.39789835541574" lon="10.41666514032622"><ele>631.0</ele><time>2026-04-11T15:03:15Z</time></trkpt><trkpt lat="44.39791811184201" lon="10.416554273020463"><ele>631.0</ele><time>2026-04-11T15:03:17Z</time></trkpt><trkpt lat="44.39795160156366" lon="10.416399240362225"><ele>631.0</ele><time>2026-04-11T15:03:19Z</time></trkpt><trkpt lat="44.39796678571008" lon="10.416244016506852"><ele>631.0</ele><time>2026-04-11T15:03:21Z</time></trkpt><trkpt lat="44.39798102448149" lon="10.416155951541647"><ele>631.0</ele><time>2026-04-11T15:03:22Z</time></trkpt><trkpt lat="44.39799541285866" lon="10.41606027130953"><ele>631.0</ele><time>2026-04-11T15:03:23Z</time></trkpt><trkpt lat="44.39801829695867" lon="10.41591946712915"><ele>626.2</ele><time>2026-04-11T15:03:25Z</time></trkpt><trkpt lat="44.39803642257489" lon="10.415770186654134"><ele>621.4000000000001</ele><time>2026-04-11T15:03:27Z</time></trkpt><trkpt lat="44.397976026377115" lon="10.415640114999809"><ele>616.6</ele><time>2026-04-11T15:03:29Z</time></trkpt><trkpt lat="44.3979376596378" lon="10.415485984899432"><ele>611.8000000000001</ele><time>2026-04-11T15:03:31Z</time></trkpt><trkpt lat="44.397924333401576" lon="10.415375580767767"><ele>607.0</ele><time>2026-04-11T15:03:33Z</time></trkpt><trkpt lat="44.397949275769946" lon="10.415249863559268"><ele>604.0</ele><time>2026-04-11T15:03:35Z</time></trkpt><trkpt lat="44.397985354649414" lon="10.415115915731336"><ele>601.0</ele><time>2026-04-11T15:03:37Z</time></trkpt><trkpt lat="44.39801476468118" lon="10.415007530764784"><ele>598.0</ele><time>2026-04-11T15:03:39Z</time></trkpt><trkpt lat="44.39800536442974" lon="10.414907538193386"><ele>595.0</ele><time>2026-04-11T15:03:42Z</time></trkpt><trkpt lat="44.39799433400957" lon="10.414791203117954"><ele>592.0</ele><time>2026-04-11T15:03:44Z</time></trkpt><trkpt lat="44.39796370987378" lon="10.414707613468007"><ele>589.0</ele><time>2026-04-11T15:03:46Z</time></trkpt><trkpt lat="44.39792352157018" lon="10.41463449283499"><ele>585.6666666666667</ele><time>2026-04-11T15:03:48Z</time></trkpt><trkpt lat="44.39789336392877" lon="10.414525335305294"><ele>582.3333333333334</ele><time>2026-04-11T15:03:50Z</time></trkpt><trkpt lat="44.397893251704296" lon="10.414429064309672"><ele>579.0</ele><time>2026-04-11T15:03:52Z</time></trkpt><trkpt lat="44.397944548492916" lon="10.414372160459672"><ele>575.6666666666666</ele><time>2026-04-11T15:04:00Z</time></trkpt><trkpt lat="44.3980297186202" lon="10.414343789818286"><ele>572.3333333333333</ele><time>2026-04-11T15:04:03Z</time></trkpt><trkpt lat="44.3981097903126" lon="10.414356293446993"><ele>569.0</ele><time>2026-04-11T15:04:06Z</time></trkpt><trkpt lat="44.398196268628396" lon="10.414386333613505"><ele>568.8</ele><time>2026-04-11T15:04:09Z</time></trkpt><trkpt lat="44.398262768638105" lon="10.414432563021453"><ele>568.5999999999999</ele><time>2026-04-11T15:04:11Z</time></trkpt><trkpt lat="44.398331999798884" lon="10.414388474627676"><ele>568.4</ele><time>2026-04-11T15:04:14Z</time></trkpt><trkpt lat="44.39835841828183" lon="10.414291514881256"><ele>568.1999999999999</ele><time>2026-04-11T15:04:16Z</time></trkpt><trkpt lat="44.398419774601855" lon="10.41419759462492"><ele>568.0</ele><time>2026-04-11T15:04:19Z</time></trkpt><trkpt lat="44.398529031391675" lon="10.414016664420334"><ele>568.0</ele><time>2026-04-11T15:04:22Z</time></trkpt><trkpt lat="44.39857611387728" lon="10.41391551772149"><ele>568.0</ele><time>2026-04-11T15:04:24Z</time></trkpt><trkpt lat="44.39856915359902" lon="10.41382666166764"><ele>568.0</ele><time>2026-04-11T15:04:33Z</time></trkpt><trkpt lat="44.398507914944936" lon="10.413754425050373"><ele>568.0</ele><time>2026-04-11T15:04:41.001Z</time></trkpt><trkpt lat="44.39843863926592" lon="10.413714470622619"><ele>568.0</ele><time>2026-04-11T15:04:43.001Z</time></trkpt><trkpt lat="44.39836208460807" lon="10.413597095379155"><ele>568.0</ele><time>2026-04-11T15:04:45Z</time></trkpt><trkpt lat="44.398321778549736" lon="10.413504925271798"><ele>567.6666666666667</ele><time>2026-04-11T15:04:47Z</time></trkpt><trkpt lat="44.39824533539076" lon="10.413431388075024"><ele>567.3333333333334</ele><time>2026-04-11T15:04:50Z</time></trkpt><trkpt lat="44.398184505430926" lon="10.413354326667093"><ele>567.0</ele><time>2026-04-11T15:04:53Z</time></trkpt><trkpt lat="44.398143551040526" lon="10.413271181936151"><ele>566.6666666666666</ele><time>2026-04-11T15:04:57Z</time></trkpt><trkpt lat="44.39813811568904" lon="10.413154890048498"><ele>566.3333333333333</ele><time>2026-04-11T15:05:00Z</time></trkpt><trkpt lat="44.39816522389226" lon="10.413044481934032"><ele>566.0</ele><time>2026-04-11T15:05:04Z</time></trkpt><trkpt lat="44.39813014959902" lon="10.412956292373712"><ele>566.0</ele><time>2026-04-11T15:05:07Z</time></trkpt><trkpt lat="44.39808208541068" lon="10.412860241022246"><ele>566.0</ele><time>2026-04-11T15:05:11Z</time></trkpt><trkpt lat="44.39803766657145" lon="10.412750648618756"><ele>566.0</ele><time>2026-04-11T15:05:13Z</time></trkpt><trkpt lat="44.397997745046986" lon="10.412664814205627"><ele>566.0</ele><time>2026-04-11T15:05:15Z</time></trkpt><trkpt lat="44.39800751303937" lon="10.41256283952399"><ele>566.0</ele><time>2026-04-11T15:05:18Z</time></trkpt><trkpt lat="44.39794045679786" lon="10.412506973869315"><ele>566.0</ele><time>2026-04-11T15:05:22Z</time></trkpt><trkpt lat="44.39786466651841" lon="10.412514225162464"><ele>563.1666666666666</ele><time>2026-04-11T15:05:23Z</time></trkpt><trkpt lat="44.397802221809634" lon="10.412532883213954"><ele>560.3333333333333</ele><time>2026-04-11T15:05:25Z</time></trkpt><trkpt lat="44.39770992917206" lon="10.412548711297188"><ele>557.5</ele><time>2026-04-11T15:05:28Z</time></trkpt><trkpt lat="44.397639295754516" lon="10.412495991643794"><ele>554.6666666666666</ele><time>2026-04-11T15:05:30Z</time></trkpt><trkpt lat="44.39758172723625" lon="10.412414999015471"><ele>551.8333333333334</ele><time>2026-04-11T15:05:32Z</time></trkpt><trkpt lat="44.39753959249764" lon="10.412313766811222"><ele>549.0</ele><time>2026-04-11T15:05:34Z</time></trkpt><trkpt lat="44.397481572038025" lon="10.412250691161509"><ele>549.0</ele><time>2026-04-11T15:05:36.001Z</time></trkpt><trkpt lat="44.39741675357547" lon="10.412186346155478"><ele>549.0</ele><time>2026-04-11T15:05:38.001Z</time></trkpt><trkpt lat="44.39738904435054" lon="10.412106573367895"><ele>549.0</ele><time>2026-04-11T15:05:40.001Z</time></trkpt><trkpt lat="44.3973742033727" lon="10.411997124867742"><ele>549.0</ele><time>2026-04-11T15:05:42.001Z</time></trkpt><trkpt lat="44.397346990608554" lon="10.411912789866237"><ele>549.0</ele><time>2026-04-11T15:05:43.001Z</time></trkpt><trkpt lat="44.39726157455314" lon="10.411812138134666"><ele>549.0</ele><time>2026-04-11T15:05:45.001Z</time></trkpt><trkpt lat="44.39721081679764" lon="10.41175399664668"><ele>550.6</ele><time>2026-04-11T15:05:46.001Z</time></trkpt><trkpt lat="44.39713030162303" lon="10.411678818769598"><ele>552.2</ele><time>2026-04-11T15:05:48.001Z</time></trkpt><trkpt lat="44.397050712626154" lon="10.41161335228626"><ele>553.8000000000001</ele><time>2026-04-11T15:05:50.001Z</time></trkpt><trkpt lat="44.39697309966859" lon="10.411576107537607"><ele>555.4</ele><time>2026-04-11T15:05:52.001Z</time></trkpt><trkpt lat="44.39684168597019" lon="10.411584337144106"><ele>557.0</ele><time>2026-04-11T15:05:54.001Z</time></trkpt><trkpt lat="44.396726058774306" lon="10.411568810491355"><ele>557.0</ele><time>2026-04-11T15:05:56.001Z</time></trkpt><trkpt lat="44.39665648482596" lon="10.411552724684952"><ele>557.0</ele><time>2026-04-11T15:05:57.001Z</time></trkpt><trkpt lat="44.39657828766907" lon="10.411527555320676"><ele>557.0</ele><time>2026-04-11T15:05:58.001Z</time></trkpt><trkpt lat="44.39650395138538" lon="10.411487169749337"><ele>557.0</ele><time>2026-04-11T15:05:59Z</time></trkpt><trkpt lat="44.39644242176841" lon="10.411468358937729"><ele>557.0</ele><time>2026-04-11T15:06:00Z</time></trkpt><trkpt lat="44.396338567031364" lon="10.41143328931421"><ele>557.0</ele><time>2026-04-11T15:06:02Z</time></trkpt><trkpt lat="44.39628325885855" lon="10.411387122661209"><ele>556.8000000000001</ele><time>2026-04-11T15:06:03Z</time></trkpt><trkpt lat="44.39622519536981" lon="10.411341926360134"><ele>556.6</ele><time>2026-04-11T15:06:04Z</time></trkpt><trkpt lat="44.396164505732436" lon="10.411284516498647"><ele>556.4000000000001</ele><time>2026-04-11T15:06:05Z</time></trkpt><trkpt lat="44.39604927359091" lon="10.411199097331773"><ele>556.2</ele><time>2026-04-11T15:06:07Z</time></trkpt><trkpt lat="44.39594671925951" lon="10.411141684620784"><ele>556.0</ele><time>2026-04-11T15:06:09Z</time></trkpt><trkpt lat="44.39587165701238" lon="10.41108211065755"><ele>556.1666666666667</ele><time>2026-04-11T15:06:11Z</time></trkpt><trkpt lat="44.39581217710968" lon="10.41100110927083"><ele>556.3333333333334</ele><time>2026-04-11T15:06:56Z</time></trkpt><trkpt lat="44.39571858718324" lon="10.41091053688891"><ele>556.5</ele><time>2026-04-11T15:06:58Z</time></trkpt><trkpt lat="44.3956658065954" lon="10.410846619780688"><ele>556.6666666666666</ele><time>2026-04-11T15:07:00Z</time></trkpt><trkpt lat="44.395598366506626" lon="10.410835916640758"><ele>556.8333333333333</ele><time>2026-04-11T15:07:02Z</time></trkpt><trkpt lat="44.395544055671614" lon="10.41093031047779"><ele>557.0</ele><time>2026-04-11T15:07:04Z</time></trkpt><trkpt lat="44.39549273609026" lon="10.410985738575715"><ele>557.0</ele><time>2026-04-11T15:07:06Z</time></trkpt><trkpt lat="44.39544456645701" lon="10.411046727097762"><ele>557.0</ele><time>2026-04-11T15:07:08Z</time></trkpt><trkpt lat="44.39538021079297" lon="10.411136620684104"><ele>557.0</ele><time>2026-04-11T15:07:10Z</time></trkpt><trkpt lat="44.395319743279266" lon="10.411233092373681"><ele>557.0</ele><time>2026-04-11T15:07:12Z</time></trkpt><trkpt lat="44.395250679644825" lon="10.411351467194786"><ele>557.0</ele><time>2026-04-11T15:07:14Z</time></trkpt><trkpt lat="44.39519802314469" lon="10.411461718036035"><ele>554.8333333333333</ele><time>2026-04-11T15:07:16Z</time></trkpt><trkpt lat="44.39514435551663" lon="10.41156409197671"><ele>552.6666666666666</ele><time>2026-04-11T15:07:18Z</time></trkpt><trkpt lat="44.39507430730399" lon="10.411615392373925"><ele>550.5</ele><time>2026-04-11T15:07:21Z</time></trkpt><trkpt lat="44.39497936204811" lon="10.411614920194136"><ele>548.3333333333334</ele><time>2026-04-11T15:07:24Z</time></trkpt><trkpt lat="44.39490688501829" lon="10.411582400558277"><ele>546.1666666666667</ele><time>2026-04-11T15:07:26Z</time></trkpt><trkpt lat="44.39482430505084" lon="10.411547303608776"><ele>544.0</ele><time>2026-04-11T15:07:28Z</time></trkpt><trkpt lat="44.394753254717244" lon="10.411512779798098"><ele>544.0</ele><time>2026-04-11T15:07:30Z</time></trkpt><trkpt lat="44.394683545469086" lon="10.411516563928174"><ele>544.0</ele><time>2026-04-11T15:07:32Z</time></trkpt><trkpt lat="44.394618492931656" lon="10.411575157489956"><ele>544.0</ele><time>2026-04-11T15:07:34Z</time></trkpt><trkpt lat="44.394561777812456" lon="10.41162033497343"><ele>544.0</ele><time>2026-04-11T15:07:36Z</time></trkpt><trkpt lat="44.39447469225902" lon="10.411689124864933"><ele>544.0</ele><time>2026-04-11T15:07:38Z</time></trkpt><trkpt lat="44.394379904804225" lon="10.411772483167503"><ele>544.0</ele><time>2026-04-11T15:07:40Z</time></trkpt><trkpt lat="44.39430219951165" lon="10.41181852066931"><ele>542.5714285714286</ele><time>2026-04-11T15:07:42Z</time></trkpt><trkpt lat="44.39423794031141" lon="10.411845372264498"><ele>541.1428571428571</ele><time>2026-04-11T15:07:44Z</time></trkpt><trkpt lat="44.3941701893551" lon="10.411894781258555"><ele>539.7142857142858</ele><time>2026-04-11T15:07:46Z</time></trkpt><trkpt lat="44.39408410586588" lon="10.411956498834206"><ele>538.2857142857142</ele><time>2026-04-11T15:07:48Z</time></trkpt><trkpt lat="44.39402192391096" lon="10.411998855922619"><ele>536.8571428571429</ele><time>2026-04-11T15:07:50Z</time></trkpt><trkpt lat="44.393959493757286" lon="10.412043795808003"><ele>535.4285714285714</ele><time>2026-04-11T15:07:52Z</time></trkpt><trkpt lat="44.39389932599704" lon="10.412090505009006"><ele>534.0</ele><time>2026-04-11T15:07:54Z</time></trkpt><trkpt lat="44.3937931929185" lon="10.412117779065438"><ele>531.0</ele><time>2026-04-11T15:07:57Z</time></trkpt><trkpt lat="44.39370147973131" lon="10.412184602485633"><ele>528.0</ele><time>2026-04-11T15:07:59Z</time></trkpt><trkpt lat="44.39361323020065" lon="10.412191872172565"><ele>525.0</ele><time>2026-04-11T15:08:01Z</time></trkpt><trkpt lat="44.39353112815528" lon="10.412198731585843"><ele>522.0</ele><time>2026-04-11T15:08:03Z</time></trkpt><trkpt lat="44.393465881203824" lon="10.412217905429902"><ele>519.0</ele><time>2026-04-11T15:08:05Z</time></trkpt><trkpt lat="44.393374885000405" lon="10.41225874305699"><ele>516.0</ele><time>2026-04-11T15:08:07Z</time></trkpt><trkpt lat="44.39330779349908" lon="10.412296672221927"><ele>515.9999999999999</ele><time>2026-04-11T15:08:09Z</time></trkpt><trkpt lat="44.39325758203362" lon="10.41239210746611"><ele>516.0</ele><time>2026-04-11T15:08:12Z</time></trkpt><trkpt lat="44.393215442695514" lon="10.412497899277229"><ele>516.0</ele><time>2026-04-11T15:08:16Z</time></trkpt><trkpt lat="44.39320486207307" lon="10.412585086663887"><ele>516.0</ele><time>2026-04-11T15:08:26Z</time></trkpt><trkpt lat="44.39324316592528" lon="10.412656186907228"><ele>516.0</ele><time>2026-04-11T15:08:32Z</time></trkpt><trkpt lat="44.393272654906184" lon="10.412750115997943"><ele>515.9999999999999</ele><time>2026-04-11T15:08:39Z</time></trkpt><trkpt lat="44.39324334418243" lon="10.41284353856286"><ele>516.0</ele><time>2026-04-11T15:08:42Z</time></trkpt><trkpt lat="44.39327912973886" lon="10.412916749920065"><ele>515.9999999999999</ele><time>2026-04-11T15:08:45Z</time></trkpt><trkpt lat="44.39334844147599" lon="10.412906228757315"><ele>516.0</ele><time>2026-04-11T15:08:49Z</time></trkpt><trkpt lat="44.39339816157611" lon="10.412963688008979"><ele>516.0</ele><time>2026-04-11T15:08:52Z</time></trkpt><trkpt lat="44.39338979073875" lon="10.413056464351332"><ele>516.0</ele><time>2026-04-11T15:08:55Z</time></trkpt><trkpt lat="44.39340025272605" lon="10.413150415741745"><ele>516.0</ele><time>2026-04-11T15:08:58Z</time></trkpt><trkpt lat="44.393411673286984" lon="10.41324148136489"><ele>515.9999999999999</ele><time>2026-04-11T15:09:04Z</time></trkpt><trkpt lat="44.3934228447568" lon="10.413329521381847"><ele>516.0</ele><time>2026-04-11T15:09:07Z</time></trkpt><trkpt lat="44.39337388973581" lon="10.413401564983593"><ele>513.7142857142857</ele><time>2026-04-11T15:09:11Z</time></trkpt><trkpt lat="44.39335652908302" lon="10.413490014092783"><ele>511.42857142857144</ele><time>2026-04-11T15:09:18Z</time></trkpt><trkpt lat="44.393381888308355" lon="10.413577034148059"><ele>509.1428571428571</ele><time>2026-04-11T15:09:22Z</time></trkpt><trkpt lat="44.393392838023985" lon="10.413666701433824"><ele>506.85714285714283</ele><time>2026-04-11T15:09:25Z</time></trkpt><trkpt lat="44.39333647430013" lon="10.413748835040467"><ele>504.57142857142856</ele><time>2026-04-11T15:09:28Z</time></trkpt><trkpt lat="44.39326842319798" lon="10.41375196022336"><ele>502.2857142857143</ele><time>2026-04-11T15:09:30Z</time></trkpt><trkpt lat="44.39322234991726" lon="10.413687829183507"><ele>500.0</ele><time>2026-04-11T15:09:32Z</time></trkpt><trkpt lat="44.39321150706884" lon="10.413598028027177"><ele>499.99999999999994</ele><time>2026-04-11T15:09:34Z</time></trkpt><trkpt lat="44.39313985614208" lon="10.413593496067774"><ele>500.0</ele><time>2026-04-11T15:09:37Z</time></trkpt><trkpt lat="44.39305618498751" lon="10.413607554980867"><ele>500.0</ele><time>2026-04-11T15:10:22.001Z</time></trkpt><trkpt lat="44.39299176452166" lon="10.413636727029465"><ele>500.0</ele><time>2026-04-11T15:10:24Z</time></trkpt><trkpt lat="44.39290543257916" lon="10.4136826339277"><ele>499.99999999999994</ele><time>2026-04-11T15:10:27Z</time></trkpt><trkpt lat="44.392838813659495" lon="10.41369334740465"><ele>500.0</ele><time>2026-04-11T15:10:29Z</time></trkpt><trkpt lat="44.39277216132906" lon="10.41367912426636"><ele>497.66666666666663</ele><time>2026-04-11T15:10:31Z</time></trkpt><trkpt lat="44.392701828177024" lon="10.41359241508726"><ele>495.3333333333333</ele><time>2026-04-11T15:10:34Z</time></trkpt><trkpt lat="44.392634546162164" lon="10.413585822700046"><ele>493.0</ele><time>2026-04-11T15:10:36Z</time></trkpt><trkpt lat="44.3925595657403" lon="10.413565143739227"><ele>490.66666666666663</ele><time>2026-04-11T15:10:38Z</time></trkpt><trkpt lat="44.39248491429889" lon="10.41352474926389"><ele>488.3333333333333</ele><time>2026-04-11T15:10:40Z</time></trkpt><trkpt lat="44.39244931900639" lon="10.413433223367564"><ele>486.0</ele><time>2026-04-11T15:10:43Z</time></trkpt><trkpt lat="44.392369822389696" lon="10.413379372540675"><ele>486.0</ele><time>2026-04-11T15:10:45Z</time></trkpt><trkpt lat="44.39230114712226" lon="10.4133722810311"><ele>486.0</ele><time>2026-04-11T15:10:46Z</time></trkpt><trkpt lat="44.39223225390087" lon="10.41337886851724"><ele>486.0</ele><time>2026-04-11T15:10:47Z</time></trkpt><trkpt lat="44.39216603640465" lon="10.41339005629278"><ele>486.0</ele><time>2026-04-11T15:10:48Z</time></trkpt><trkpt lat="44.39209586126574" lon="10.413371712769054"><ele>486.0</ele><time>2026-04-11T15:10:49Z</time></trkpt><trkpt lat="44.391909772231365" lon="10.41331716443418"><ele>483.6</ele><time>2026-04-11T15:10:52Z</time></trkpt><trkpt lat="44.391804356702025" lon="10.413343798014933"><ele>481.20000000000005</ele><time>2026-04-11T15:10:54Z</time></trkpt><trkpt lat="44.39171150881157" lon="10.413401405654762"><ele>478.79999999999995</ele><time>2026-04-11T15:10:56Z</time></trkpt><trkpt lat="44.39158020366394" lon="10.413409490102163"><ele>476.4</ele><time>2026-04-11T15:10:58Z</time></trkpt><trkpt lat="44.39151523868731" lon="10.413418872586856"><ele>474.0</ele><time>2026-04-11T15:10:59Z</time></trkpt><trkpt lat="44.39140412302172" lon="10.413386742801908"><ele>473.79999999999995</ele><time>2026-04-11T15:11:01Z</time></trkpt><trkpt lat="44.39131105211727" lon="10.413336308209132"><ele>473.59999999999997</ele><time>2026-04-11T15:11:02.999Z</time></trkpt><trkpt lat="44.391230081828105" lon="10.413360602432732"><ele>473.4</ele><time>2026-04-11T15:11:04.999Z</time></trkpt><trkpt lat="44.391141897021356" lon="10.41349085383866"><ele>473.2</ele><time>2026-04-11T15:11:06.999Z</time></trkpt><trkpt lat="44.391097165901094" lon="10.413560612510354"><ele>473.0</ele><time>2026-04-11T15:11:07.999Z</time></trkpt><trkpt lat="44.39102361563112" lon="10.413685566462467"><ele>473.0</ele><time>2026-04-11T15:11:09.999Z</time></trkpt><trkpt lat="44.39094417074187" lon="10.41375689056795"><ele>472.99999999999994</ele><time>2026-04-11T15:11:11.999Z</time></trkpt><trkpt lat="44.39083400797493" lon="10.41378519367711"><ele>472.99999999999994</ele><time>2026-04-11T15:11:14Z</time></trkpt><trkpt lat="44.39072624542311" lon="10.413827249798642"><ele>473.0</ele><time>2026-04-11T15:11:15.999Z</time></trkpt><trkpt lat="44.39061811781732" lon="10.413844178307055"><ele>473.0</ele><time>2026-04-11T15:11:17.999Z</time></trkpt><trkpt lat="44.39052315264128" lon="10.413854519982994"><ele>470.3333333333333</ele><time>2026-04-11T15:11:19.999Z</time></trkpt><trkpt lat="44.3904232029623" lon="10.413923282887087"><ele>467.66666666666663</ele><time>2026-04-11T15:11:21.999Z</time></trkpt><trkpt lat="44.39031428973191" lon="10.41397785433653"><ele>465.0</ele><time>2026-04-11T15:11:24Z</time></trkpt><trkpt lat="44.39024830623336" lon="10.414010450181065"><ele>462.33333333333337</ele><time>2026-04-11T15:11:25Z</time></trkpt><trkpt lat="44.39018131085554" lon="10.414035954495146"><ele>459.6666666666667</ele><time>2026-04-11T15:11:26Z</time></trkpt><trkpt lat="44.390118236306776" lon="10.414048632886463"><ele>457.0</ele><time>2026-04-11T15:11:27Z</time></trkpt><trkpt lat="44.39005207453987" lon="10.41406719569388"><ele>457.00000000000006</ele><time>2026-04-11T15:11:28Z</time></trkpt><trkpt lat="44.389982682669434" lon="10.414090231589554"><ele>457.0</ele><time>2026-04-11T15:11:29Z</time></trkpt><trkpt lat="44.389916987684174" lon="10.414138854238072"><ele>457.0</ele><time>2026-04-11T15:11:30Z</time></trkpt><trkpt lat="44.38985914162163" lon="10.414187579243132"><ele>457.0</ele><time>2026-04-11T15:11:31Z</time></trkpt><trkpt lat="44.38980916367784" lon="10.414243474942149"><ele>457.00000000000006</ele><time>2026-04-11T15:11:32Z</time></trkpt><trkpt lat="44.38969978821427" lon="10.414321168266735"><ele>457.0</ele><time>2026-04-11T15:11:34Z</time></trkpt><trkpt lat="44.38963466208397" lon="10.414359956551548"><ele>456.33333333333337</ele><time>2026-04-11T15:11:35Z</time></trkpt><trkpt lat="44.3895740835362" lon="10.414401958316756"><ele>455.6666666666667</ele><time>2026-04-11T15:11:36Z</time></trkpt><trkpt lat="44.38948104113134" lon="10.414488477425834"><ele>455.0</ele><time>2026-04-11T15:11:38Z</time></trkpt><trkpt lat="44.38940947334281" lon="10.414547594039801"><ele>454.33333333333337</ele><time>2026-04-11T15:11:40Z</time></trkpt><trkpt lat="44.38936112709564" lon="10.41460618149975"><ele>453.6666666666667</ele><time>2026-04-11T15:11:42Z</time></trkpt><trkpt lat="44.38928802413723" lon="10.414666992249847"><ele>453.0</ele><time>2026-04-11T15:11:46Z</time></trkpt><trkpt lat="44.389198661120155" lon="10.41472983167898"><ele>451.0</ele><time>2026-04-11T15:11:48Z</time></trkpt><trkpt lat="44.38910663605677" lon="10.414776742125088"><ele>449.0</ele><time>2026-04-11T15:11:50Z</time></trkpt><trkpt lat="44.38903061870479" lon="10.414822871065574"><ele>447.0</ele><time>2026-04-11T15:11:52Z</time></trkpt><trkpt lat="44.388955083579404" lon="10.414862949731921"><ele>445.0</ele><time>2026-04-11T15:11:54Z</time></trkpt><trkpt lat="44.38889041464192" lon="10.41490401785358"><ele>443.0</ele><time>2026-04-11T15:11:56Z</time></trkpt><trkpt lat="44.38882052396781" lon="10.41486414912032"><ele>441.0</ele><time>2026-04-11T15:12:00Z</time></trkpt><trkpt lat="44.388864747538655" lon="10.414773045596261"><ele>440.4</ele><time>2026-04-11T15:12:02Z</time></trkpt><trkpt lat="44.38886005117866" lon="10.414623925804143"><ele>439.8</ele><time>2026-04-11T15:12:04Z</time></trkpt><trkpt lat="44.38884921796798" lon="10.414464826869285"><ele>439.19999999999993</ele><time>2026-04-11T15:12:06Z</time></trkpt><trkpt lat="44.38884100060814" lon="10.414332541963331"><ele>438.59999999999997</ele><time>2026-04-11T15:12:08Z</time></trkpt><trkpt lat="44.38883739477036" lon="10.414193811966511"><ele>438.0</ele><time>2026-04-11T15:12:10Z</time></trkpt><trkpt lat="44.3888034711022" lon="10.41406017979204"><ele>438.0</ele><time>2026-04-11T15:12:12Z</time></trkpt><trkpt lat="44.3887540825535" lon="10.413941130173507"><ele>438.0</ele><time>2026-04-11T15:12:14Z</time></trkpt><trkpt lat="44.388726936462014" lon="10.413847401431125"><ele>438.0</ele><time>2026-04-11T15:12:15Z</time></trkpt><trkpt lat="44.38869460472489" lon="10.413730464129378"><ele>438.0</ele><time>2026-04-11T15:12:16Z</time></trkpt><trkpt lat="44.388657263318926" lon="10.413628240515342"><ele>438.0</ele><time>2026-04-11T15:12:17Z</time></trkpt><trkpt lat="44.38862933125512" lon="10.413527619834703"><ele>438.0</ele><time>2026-04-11T15:12:18Z</time></trkpt><trkpt lat="44.38860136437364" lon="10.413436921905781"><ele>438.59999999999997</ele><time>2026-04-11T15:12:19Z</time></trkpt><trkpt lat="44.388560325801045" lon="10.41328649173177"><ele>439.19999999999993</ele><time>2026-04-11T15:12:21Z</time></trkpt><trkpt lat="44.388538119028205" lon="10.413114172198831"><ele>439.8</ele><time>2026-04-11T15:12:23Z</time></trkpt><trkpt lat="44.388537947551185" lon="10.413013428210371"><ele>440.4</ele><time>2026-04-11T15:12:24Z</time></trkpt><trkpt lat="44.388537947551704" lon="10.412902666139127"><ele>441.0</ele><time>2026-04-11T15:12:25Z</time></trkpt><trkpt lat="44.38853794755278" lon="10.412774234610495"><ele>441.5</ele><time>2026-04-11T15:12:26Z</time></trkpt><trkpt lat="44.38853743058414" lon="10.412653339835723"><ele>442.0</ele><time>2026-04-11T15:12:27Z</time></trkpt><trkpt lat="44.388535076736304" lon="10.412534319642818"><ele>442.5</ele><time>2026-04-11T15:12:28Z</time></trkpt><trkpt lat="44.38853234167096" lon="10.412432993170778"><ele>443.0</ele><time>2026-04-11T15:12:29Z</time></trkpt><trkpt lat="44.38851410367749" lon="10.412333731084559"><ele>443.5</ele><time>2026-04-11T15:12:30Z</time></trkpt><trkpt lat="44.388496553195736" lon="10.412233871625718"><ele>444.0</ele><time>2026-04-11T15:12:31Z</time></trkpt><trkpt lat="44.38847734926755" lon="10.412124238322617"><ele>444.5</ele><time>2026-04-11T15:12:32Z</time></trkpt><trkpt lat="44.38847085255441" lon="10.412001583165821"><ele>445.0</ele><time>2026-04-11T15:12:33Z</time></trkpt><trkpt lat="44.38844978885599" lon="10.411891458768203"><ele>445.5</ele><time>2026-04-11T15:12:34Z</time></trkpt><trkpt lat="44.388428930948635" lon="10.41178241022226"><ele>446.0</ele><time>2026-04-11T15:12:35Z</time></trkpt><trkpt lat="44.38841081886192" lon="10.411681001927718"><ele>446.5</ele><time>2026-04-11T15:12:36Z</time></trkpt><trkpt lat="44.38840040567037" lon="10.411592533973517"><ele>447.0</ele><time>2026-04-11T15:12:37Z</time></trkpt><trkpt lat="44.38839248038733" lon="10.41149332191041"><ele>447.0</ele><time>2026-04-11T15:12:38Z</time></trkpt><trkpt lat="44.38838723022946" lon="10.411385472662548"><ele>447.0</ele><time>2026-04-11T15:12:39Z</time></trkpt><trkpt lat="44.388373842166665" lon="10.411270318838374"><ele>447.0</ele><time>2026-04-11T15:12:40Z</time></trkpt><trkpt lat="44.388367631540774" lon="10.41116259544652"><ele>447.0</ele><time>2026-04-11T15:12:41Z</time></trkpt><trkpt lat="44.38838412060409" lon="10.411041285912788"><ele>447.0</ele><time>2026-04-11T15:12:42Z</time></trkpt><trkpt lat="44.38838965570385" lon="10.410917982703802"><ele>447.0</ele><time>2026-04-11T15:12:43Z</time></trkpt><trkpt lat="44.38839625380784" lon="10.410786538347699"><ele>445.25</ele><time>2026-04-11T15:12:44Z</time></trkpt><trkpt lat="44.38840406729399" lon="10.410642871014598"><ele>443.5</ele><time>2026-04-11T15:12:45Z</time></trkpt><trkpt lat="44.38841421216849" lon="10.410477126865468"><ele>441.75</ele><time>2026-04-11T15:12:46Z</time></trkpt><trkpt lat="44.38842628122108" lon="10.410292541358844"><ele>440.0</ele><time>2026-04-11T15:12:47Z</time></trkpt><trkpt lat="44.388438358475454" lon="10.410106846208791"><ele>440.0</ele><time>2026-04-11T15:12:48Z</time></trkpt><trkpt lat="44.388452110886114" lon="10.409912747661568"><ele>440.0</ele><time>2026-04-11T15:12:49Z</time></trkpt><trkpt lat="44.38846609626578" lon="10.409715360937744"><ele>440.0</ele><time>2026-04-11T15:12:50Z</time></trkpt><trkpt lat="44.38848185909627" lon="10.40949288768753"><ele>440.0</ele><time>2026-04-11T15:12:51Z</time></trkpt><trkpt lat="44.38849740897806" lon="10.409273419964812"><ele>439.5</ele><time>2026-04-11T15:12:52Z</time></trkpt><trkpt lat="44.388512442913544" lon="10.409060616836834"><ele>439.0</ele><time>2026-04-11T15:12:53Z</time></trkpt><trkpt lat="44.38852535989168" lon="10.408875946579107"><ele>438.5</ele><time>2026-04-11T15:12:54Z</time></trkpt><trkpt lat="44.38853896066433" lon="10.408704498485985"><ele>438.0</ele><time>2026-04-11T15:12:55Z</time></trkpt><trkpt lat="44.3885511619963" lon="10.408546688265249"><ele>437.8333333333333</ele><time>2026-04-11T15:12:56Z</time></trkpt><trkpt lat="44.388558539053356" lon="10.408408128579378"><ele>437.66666666666663</ele><time>2026-04-11T15:12:57Z</time></trkpt><trkpt lat="44.38856148572571" lon="10.408305559259325"><ele>437.5</ele><time>2026-04-11T15:12:58Z</time></trkpt><trkpt lat="44.388547483578414" lon="10.408179840305007"><ele>437.3333333333333</ele><time>2026-04-11T15:13:00Z</time></trkpt><trkpt lat="44.38854756578689" lon="10.408034803244059"><ele>437.16666666666663</ele><time>2026-04-11T15:13:02Z</time></trkpt><trkpt lat="44.38855779587562" lon="10.40794673813495"><ele>437.0</ele><time>2026-04-11T15:13:03Z</time></trkpt><trkpt lat="44.38855384920718" lon="10.407833889444596"><ele>437.0</ele><time>2026-04-11T15:13:04Z</time></trkpt><trkpt lat="44.38853347985127" lon="10.407710296457331"><ele>437.00000000000006</ele><time>2026-04-11T15:13:05Z</time></trkpt><trkpt lat="44.38852880485848" lon="10.407579366389957"><ele>437.00000000000006</ele><time>2026-04-11T15:13:06Z</time></trkpt><trkpt lat="44.38852475150221" lon="10.407439239694103"><ele>437.0</ele><time>2026-04-11T15:13:07Z</time></trkpt><trkpt lat="44.38852579259622" lon="10.407296093536607"><ele>437.0</ele><time>2026-04-11T15:13:08Z</time></trkpt><trkpt lat="44.3885400513716" lon="10.407157686405988"><ele>436.99999999999994</ele><time>2026-04-11T15:13:09Z</time></trkpt><trkpt lat="44.38854900083048" lon="10.407026938733875"><ele>437.0</ele><time>2026-04-11T15:13:10Z</time></trkpt><trkpt lat="44.38854941325947" lon="10.406906883392221"><ele>437.0</ele><time>2026-04-11T15:13:11Z</time></trkpt><trkpt lat="44.38858454818272" lon="10.406817756507417"><ele>437.0</ele><time>2026-04-11T15:13:12Z</time></trkpt><trkpt lat="44.38861748482035" lon="10.406660961507622"><ele>436.99999999999994</ele><time>2026-04-11T15:13:14Z</time></trkpt><trkpt lat="44.388654147368875" lon="10.406585649078343"><ele>437.0</ele><time>2026-04-11T15:13:15Z</time></trkpt><trkpt lat="44.38870486845039" lon="10.406522746992593"><ele>436.99999999999994</ele><time>2026-04-11T15:13:16Z</time></trkpt><trkpt lat="44.38877441065429" lon="10.406521338395043"><ele>437.0</ele><time>2026-04-11T15:13:17Z</time></trkpt><trkpt lat="44.388836946142725" lon="10.406509054768868"><ele>437.0</ele><time>2026-04-11T15:13:18Z</time></trkpt><trkpt lat="44.38894497671477" lon="10.406468436246291"><ele>437.0</ele><time>2026-04-11T15:13:20Z</time></trkpt><trkpt lat="44.38900530196779" lon="10.406443114076037"><ele>436.99999999999994</ele><time>2026-04-11T15:13:21Z</time></trkpt><trkpt lat="44.389079978559025" lon="10.406411767782764"><ele>437.0</ele><time>2026-04-11T15:13:22Z</time></trkpt><trkpt lat="44.38916867807352" lon="10.406374535214413"><ele>438.6</ele><time>2026-04-11T15:13:23Z</time></trkpt><trkpt lat="44.38925095926821" lon="10.406339357893076"><ele>440.20000000000005</ele><time>2026-04-11T15:13:24Z</time></trkpt><trkpt lat="44.389312314268395" lon="10.406289102052188"><ele>441.8</ele><time>2026-04-11T15:13:25Z</time></trkpt><trkpt lat="44.389406869825855" lon="10.406238906129111"><ele>443.4</ele><time>2026-04-11T15:13:27Z</time></trkpt><trkpt lat="44.38943894752584" lon="10.40613110919714"><ele>445.0</ele><time>2026-04-11T15:13:29Z</time></trkpt><trkpt lat="44.38923867851509" lon="10.406155409201416"><ele>445.0</ele><time>2026-04-11T15:13:32Z</time></trkpt><trkpt lat="44.38912802024372" lon="10.406226678863153"><ele>445.0</ele><time>2026-04-11T15:13:33Z</time></trkpt><trkpt lat="44.38899355720478" lon="10.406282271794085"><ele>445.0</ele><time>2026-04-11T15:13:34Z</time></trkpt><trkpt lat="44.3888714112764" lon="10.406316412651394"><ele>445.0</ele><time>2026-04-11T15:13:35Z</time></trkpt><trkpt lat="44.38876587878334" lon="10.406335374506643"><ele>443.25</ele><time>2026-04-11T15:13:36Z</time></trkpt><trkpt lat="44.38866954181136" lon="10.4063407798096"><ele>441.5</ele><time>2026-04-11T15:13:37Z</time></trkpt><trkpt lat="44.38858008398452" lon="10.406338772514983"><ele>439.75</ele><time>2026-04-11T15:13:38Z</time></trkpt><trkpt lat="44.38839700287286" lon="10.406311738579051"><ele>438.0</ele><time>2026-04-11T15:13:40Z</time></trkpt><trkpt lat="44.38829071203472" lon="10.406290891709556"><ele>438.0</ele><time>2026-04-11T15:13:41Z</time></trkpt><trkpt lat="44.388170965783296" lon="10.406268939143047"><ele>438.0</ele><time>2026-04-11T15:13:42Z</time></trkpt><trkpt lat="44.38804926276082" lon="10.40624880312151"><ele>438.0</ele><time>2026-04-11T15:13:43Z</time></trkpt><trkpt lat="44.387919432249895" lon="10.406230632608196"><ele>438.0</ele><time>2026-04-11T15:13:44Z</time></trkpt><trkpt lat="44.38779074721723" lon="10.40621078400093"><ele>437.75</ele><time>2026-04-11T15:13:45Z</time></trkpt><trkpt lat="44.387668914840944" lon="10.40619146218715"><ele>437.5</ele><time>2026-04-11T15:13:46Z</time></trkpt><trkpt lat="44.38755407900672" lon="10.406167966957165"><ele>437.25</ele><time>2026-04-11T15:13:47Z</time></trkpt><trkpt lat="44.38744581899768" lon="10.406146416745537"><ele>437.0</ele><time>2026-04-11T15:13:48Z</time></trkpt><trkpt lat="44.387340415861125" lon="10.406126689663173"><ele>437.0</ele><time>2026-04-11T15:13:49Z</time></trkpt><trkpt lat="44.38722610537432" lon="10.406106601531242"><ele>437.0</ele><time>2026-04-11T15:13:50Z</time></trkpt><trkpt lat="44.387105213891026" lon="10.40608925840232"><ele>437.0</ele><time>2026-04-11T15:13:51Z</time></trkpt><trkpt lat="44.386978099796195" lon="10.406069936998625"><ele>437.0</ele><time>2026-04-11T15:13:52Z</time></trkpt><trkpt lat="44.38684691380698" lon="10.406048595290544"><ele>437.0</ele><time>2026-04-11T15:13:53Z</time></trkpt><trkpt lat="44.386712291919196" lon="10.406025528263122"><ele>437.0</ele><time>2026-04-11T15:13:54Z</time></trkpt><trkpt lat="44.38657825891068" lon="10.406003696561726"><ele>437.0</ele><time>2026-04-11T15:13:55Z</time></trkpt><trkpt lat="44.38645234010922" lon="10.40598240556714"><ele>437.0</ele><time>2026-04-11T15:13:56Z</time></trkpt><trkpt lat="44.38633662342235" lon="10.405961837748615"><ele>436.8</ele><time>2026-04-11T15:13:57Z</time></trkpt><trkpt lat="44.38622667481443" lon="10.40594311717087"><ele>436.6</ele><time>2026-04-11T15:13:58Z</time></trkpt><trkpt lat="44.38612605529413" lon="10.405924021957702"><ele>436.40000000000003</ele><time>2026-04-11T15:13:59Z</time></trkpt><trkpt lat="44.38603093112637" lon="10.405912144861652"><ele>436.20000000000005</ele><time>2026-04-11T15:14:00Z</time></trkpt><trkpt lat="44.38593922304622" lon="10.405899249114018"><ele>436.0</ele><time>2026-04-11T15:14:01Z</time></trkpt><trkpt lat="44.385836732994186" lon="10.40588155276203"><ele>436.0</ele><time>2026-04-11T15:14:02Z</time></trkpt><trkpt lat="44.385730383553614" lon="10.405865290408492"><ele>436.0</ele><time>2026-04-11T15:14:03Z</time></trkpt><trkpt lat="44.38562713793166" lon="10.405851029881944"><ele>436.0</ele><time>2026-04-11T15:14:04Z</time></trkpt><trkpt lat="44.385530580223374" lon="10.40583640312763"><ele>436.0</ele><time>2026-04-11T15:14:05Z</time></trkpt><trkpt lat="44.385444875324986" lon="10.40579658899684"><ele>436.0</ele><time>2026-04-11T15:14:06Z</time></trkpt><trkpt lat="44.385361889425326" lon="10.405774218898154"><ele>437.8</ele><time>2026-04-11T15:14:07Z</time></trkpt><trkpt lat="44.38527422437896" lon="10.405752507516116"><ele>439.6</ele><time>2026-04-11T15:14:08Z</time></trkpt><trkpt lat="44.38519543691624" lon="10.405690252118799"><ele>441.4</ele><time>2026-04-11T15:14:09Z</time></trkpt><trkpt lat="44.38512797322365" lon="10.405608393032391"><ele>443.2</ele><time>2026-04-11T15:14:10Z</time></trkpt><trkpt lat="44.385071247653684" lon="10.405514393479727"><ele>445.0</ele><time>2026-04-11T15:14:11Z</time></trkpt><trkpt lat="44.385019643108706" lon="10.405400847158194"><ele>446.0</ele><time>2026-04-11T15:14:12Z</time></trkpt><trkpt lat="44.384986495209965" lon="10.405262400169262"><ele>447.0</ele><time>2026-04-11T15:14:13Z</time></trkpt><trkpt lat="44.38499647981288" lon="10.405103018027816"><ele>448.0</ele><time>2026-04-11T15:14:14Z</time></trkpt><trkpt lat="44.38500788043068" lon="10.404935858809285"><ele>449.0</ele><time>2026-04-11T15:14:15Z</time></trkpt><trkpt lat="44.385023135982095" lon="10.404759087070435"><ele>450.25</ele><time>2026-04-11T15:14:16Z</time></trkpt><trkpt lat="44.38504118274523" lon="10.404570478473422"><ele>451.5</ele><time>2026-04-11T15:14:17Z</time></trkpt><trkpt lat="44.38506006633143" lon="10.404376167035341"><ele>452.75</ele><time>2026-04-11T15:14:18Z</time></trkpt><trkpt lat="44.38508001021761" lon="10.40417648316905"><ele>454.0</ele><time>2026-04-11T15:14:19Z</time></trkpt><trkpt lat="44.38510228204948" lon="10.40397495599736"><ele>454.5</ele><time>2026-04-11T15:14:20Z</time></trkpt><trkpt lat="44.38512149716402" lon="10.403766100855327"><ele>455.0</ele><time>2026-04-11T15:14:21Z</time></trkpt><trkpt lat="44.385130184643955" lon="10.403554290059141"><ele>455.5</ele><time>2026-04-11T15:14:22Z</time></trkpt><trkpt lat="44.3851364526302" lon="10.403349300622542"><ele>456.0</ele><time>2026-04-11T15:14:23Z</time></trkpt><trkpt lat="44.38514220695896" lon="10.403146905557819"><ele>456.5</ele><time>2026-04-11T15:14:24Z</time></trkpt><trkpt lat="44.38514812062148" lon="10.402938906292945"><ele>457.0</ele><time>2026-04-11T15:14:25Z</time></trkpt><trkpt lat="44.3851539907436" lon="10.402732438476306"><ele>457.5</ele><time>2026-04-11T15:14:26Z</time></trkpt><trkpt lat="44.385159845486" lon="10.40252651160469"><ele>458.0</ele><time>2026-04-11T15:14:27Z</time></trkpt><trkpt lat="44.38516530623055" lon="10.402315779947577"><ele>458.3333333333333</ele><time>2026-04-11T15:14:28Z</time></trkpt><trkpt lat="44.385170512544654" lon="10.402102945827155"><ele>458.66666666666663</ele><time>2026-04-11T15:14:29Z</time></trkpt><trkpt lat="44.38517617078521" lon="10.401885758745355"><ele>459.0</ele><time>2026-04-11T15:14:30Z</time></trkpt><trkpt lat="44.385182996936884" lon="10.401664685275074"><ele>459.0</ele><time>2026-04-11T15:14:31.001Z</time></trkpt><trkpt lat="44.385189939739384" lon="10.401438399635545"><ele>459.0</ele><time>2026-04-11T15:14:32.001Z</time></trkpt><trkpt lat="44.385196853843475" lon="10.401213049374471"><ele>459.0</ele><time>2026-04-11T15:14:33.001Z</time></trkpt><trkpt lat="44.38520391956169" lon="10.400982757581883"><ele>459.33333333333337</ele><time>2026-04-11T15:14:34.001Z</time></trkpt><trkpt lat="44.38521074437756" lon="10.400760317441247"><ele>459.6666666666667</ele><time>2026-04-11T15:14:35.001Z</time></trkpt><trkpt lat="44.3852178023356" lon="10.400543920768463"><ele>460.0</ele><time>2026-04-11T15:14:36.001Z</time></trkpt><trkpt lat="44.385224663962454" lon="10.400333904459684"><ele>460.25</ele><time>2026-04-11T15:14:37.001Z</time></trkpt><trkpt lat="44.385213874518875" lon="10.400124642499717"><ele>460.5</ele><time>2026-04-11T15:14:38.001Z</time></trkpt><trkpt lat="44.38523442421847" lon="10.399918843015993"><ele>460.75</ele><time>2026-04-11T15:14:39.001Z</time></trkpt><trkpt lat="44.38524034920732" lon="10.399716644369512"><ele>461.0</ele><time>2026-04-11T15:14:40.001Z</time></trkpt><trkpt lat="44.38523128077884" lon="10.399515345768588"><ele>461.0</ele><time>2026-04-11T15:14:41.001Z</time></trkpt><trkpt lat="44.38525361417349" lon="10.399316511120356"><ele>461.0</ele><time>2026-04-11T15:14:42.001Z</time></trkpt><trkpt lat="44.38526022331351" lon="10.399117148625788"><ele>461.0</ele><time>2026-04-11T15:14:43.001Z</time></trkpt><trkpt lat="44.3852470209872" lon="10.39891765732105"><ele>461.0</ele><time>2026-04-11T15:14:44.001Z</time></trkpt><trkpt lat="44.38523642249308" lon="10.398717240814687"><ele>459.25</ele><time>2026-04-11T15:14:45.001Z</time></trkpt><trkpt lat="44.38519601312996" lon="10.398544128611066"><ele>457.5</ele><time>2026-04-11T15:14:46.001Z</time></trkpt><trkpt lat="44.385121564794" lon="10.398394897139692"><ele>455.75</ele><time>2026-04-11T15:14:47Z</time></trkpt><trkpt lat="44.385015845221155" lon="10.39826962924983"><ele>454.0</ele><time>2026-04-11T15:14:48Z</time></trkpt><trkpt lat="44.3848851861793" lon="10.398177017985931"><ele>454.0</ele><time>2026-04-11T15:14:49Z</time></trkpt><trkpt lat="44.384745215084585" lon="10.39810648082431"><ele>454.0</ele><time>2026-04-11T15:14:50Z</time></trkpt><trkpt lat="44.384602075813504" lon="10.398028547814269"><ele>454.0</ele><time>2026-04-11T15:14:51Z</time></trkpt><trkpt lat="44.38446125288263" lon="10.397945832647693"><ele>454.75</ele><time>2026-04-11T15:14:52Z</time></trkpt><trkpt lat="44.384320756145094" lon="10.397867219025974"><ele>455.5</ele><time>2026-04-11T15:14:53Z</time></trkpt><trkpt lat="44.384180205532296" lon="10.39779368907544"><ele>456.25</ele><time>2026-04-11T15:14:54Z</time></trkpt><trkpt lat="44.38405501468204" lon="10.397701008857476"><ele>457.0</ele><time>2026-04-11T15:14:55Z</time></trkpt><trkpt lat="44.38393925302249" lon="10.397634369081267"><ele>458.20000000000005</ele><time>2026-04-11T15:14:56Z</time></trkpt><trkpt lat="44.383822558494906" lon="10.397591856315753"><ele>459.40000000000003</ele><time>2026-04-11T15:14:57Z</time></trkpt><trkpt lat="44.38373616156249" lon="10.397539081691178"><ele>460.59999999999997</ele><time>2026-04-11T15:14:58Z</time></trkpt><trkpt lat="44.383675320566134" lon="10.397500811388724"><ele>461.79999999999995</ele><time>2026-04-11T15:14:59Z</time></trkpt><trkpt lat="44.38361138510471" lon="10.3974503296608"><ele>463.0</ele><time>2026-04-11T15:15:01Z</time></trkpt><trkpt lat="44.38374359558745" lon="10.397521736302654"><ele>461.5</ele><time>2026-04-11T15:15:13Z</time></trkpt><trkpt lat="44.3838916861282" lon="10.397657217476198"><ele>460.0</ele><time>2026-04-11T15:15:14Z</time></trkpt><trkpt lat="44.38400884251748" lon="10.3977277796144"><ele>458.5</ele><time>2026-04-11T15:15:14.999Z</time></trkpt><trkpt lat="44.384117972217716" lon="10.397794252845973"><ele>457.0</ele><time>2026-04-11T15:15:15.999Z</time></trkpt><trkpt lat="44.38421893053758" lon="10.397851567479295"><ele>457.00000000000006</ele><time>2026-04-11T15:15:16.999Z</time></trkpt><trkpt lat="44.384314124876454" lon="10.397902500734528"><ele>457.0</ele><time>2026-04-11T15:15:17.999Z</time></trkpt><trkpt lat="44.38439943423325" lon="10.397946988214601"><ele>457.0</ele><time>2026-04-11T15:15:18.999Z</time></trkpt><trkpt lat="44.38448557144638" lon="10.398001536008678"><ele>457.0</ele><time>2026-04-11T15:15:20.999Z</time></trkpt><trkpt lat="44.38454649624135" lon="10.398024269792984"><ele>457.00000000000006</ele><time>2026-04-11T15:15:23.999Z</time></trkpt><trkpt lat="44.384562274868" lon="10.397900839232625"><ele>457.0</ele><time>2026-04-11T15:15:26.999Z</time></trkpt><trkpt lat="44.384531582771835" lon="10.397744800510214"><ele>457.0</ele><time>2026-04-11T15:15:28.999Z</time></trkpt><trkpt lat="44.384510590317056" lon="10.397577736873943"><ele>457.00000000000006</ele><time>2026-04-11T15:15:30.999Z</time></trkpt><trkpt lat="44.38451005385656" lon="10.397436131832446"><ele>457.00000000000006</ele><time>2026-04-11T15:15:32.999Z</time></trkpt><trkpt lat="44.384536544558856" lon="10.39732377736916"><ele>457.0</ele><time>2026-04-11T15:15:34.999Z</time></trkpt><trkpt lat="44.38454060761349" lon="10.397226030321153"><ele>457.0</ele><time>2026-04-11T15:15:36.999Z</time></trkpt><trkpt lat="44.384526862088926" lon="10.397116964540354"><ele>456.8</ele><time>2026-04-11T15:15:38.999Z</time></trkpt><trkpt lat="44.384526299111535" lon="10.39698669223112"><ele>456.6</ele><time>2026-04-11T15:15:40.999Z</time></trkpt><trkpt lat="44.38458028577898" lon="10.39686581063957"><ele>456.40000000000003</ele><time>2026-04-11T15:15:43Z</time></trkpt><trkpt lat="44.38462309339629" lon="10.396723524639112"><ele>456.20000000000005</ele><time>2026-04-11T15:15:45Z</time></trkpt><trkpt lat="44.38465504027113" lon="10.396574632446235"><ele>456.0</ele><time>2026-04-11T15:15:47Z</time></trkpt><trkpt lat="44.38469343924234" lon="10.396502082658843"><ele>456.33333333333337</ele><time>2026-04-11T15:15:48Z</time></trkpt><trkpt lat="44.384775130071915" lon="10.396350631924154"><ele>456.6666666666667</ele><time>2026-04-11T15:15:50Z</time></trkpt><trkpt lat="44.38483668195417" lon="10.396224205514052"><ele>457.0</ele><time>2026-04-11T15:15:52Z</time></trkpt><trkpt lat="44.38463429160403" lon="10.396117780526636"><ele>457.00000000000006</ele><time>2026-04-11T15:15:58Z</time></trkpt><trkpt lat="44.38457020424991" lon="10.396118563957817"><ele>457.0</ele><time>2026-04-11T15:15:59Z</time></trkpt><trkpt lat="44.38448920428913" lon="10.396136469177323"><ele>457.0</ele><time>2026-04-11T15:16:00Z</time></trkpt><trkpt lat="44.38439763190072" lon="10.396120136336606"><ele>457.0</ele><time>2026-04-11T15:16:01Z</time></trkpt><trkpt lat="44.384316622884434" lon="10.39610339082081"><ele>457.00000000000006</ele><time>2026-04-11T15:16:02Z</time></trkpt><trkpt lat="44.38425224570565" lon="10.396083397486112"><ele>457.0</ele><time>2026-04-11T15:16:03Z</time></trkpt><trkpt lat="44.384133296396676" lon="10.396005012055037"><ele>457.0</ele><time>2026-04-11T15:16:05Z</time></trkpt><trkpt lat="44.38404751288069" lon="10.395948373581763"><ele>457.00000000000006</ele><time>2026-04-11T15:16:06Z</time></trkpt><trkpt lat="44.3839450790943" lon="10.395912135036587"><ele>457.00000000000006</ele><time>2026-04-11T15:16:07Z</time></trkpt><trkpt lat="44.383834762746815" lon="10.395878251966161"><ele>457.0</ele><time>2026-04-11T15:16:08Z</time></trkpt><trkpt lat="44.383727825523415" lon="10.395827799202605"><ele>457.0</ele><time>2026-04-11T15:16:09Z</time></trkpt><trkpt lat="44.383617224767505" lon="10.395775291872498"><ele>457.8</ele><time>2026-04-11T15:16:10Z</time></trkpt><trkpt lat="44.38351834953816" lon="10.395711516039242"><ele>458.6</ele><time>2026-04-11T15:16:11Z</time></trkpt><trkpt lat="44.383429424824335" lon="10.395675002740084"><ele>459.40000000000003</ele><time>2026-04-11T15:16:12Z</time></trkpt><trkpt lat="44.38333760297903" lon="10.395655362036717"><ele>460.20000000000005</ele><time>2026-04-11T15:16:13Z</time></trkpt><trkpt lat="44.38326709889374" lon="10.395650980686018"><ele>461.0</ele><time>2026-04-11T15:16:14Z</time></trkpt><trkpt lat="44.3831709518438" lon="10.395570443781228"><ele>462.7142857142857</ele><time>2026-04-11T15:16:16Z</time></trkpt><trkpt lat="44.38311985102821" lon="10.395490859910176"><ele>464.42857142857144</ele><time>2026-04-11T15:16:17Z</time></trkpt><trkpt lat="44.38306372334247" lon="10.395406837905057"><ele>466.14285714285717</ele><time>2026-04-11T15:16:18Z</time></trkpt><trkpt lat="44.38300365293902" lon="10.395353846871538"><ele>467.8571428571429</ele><time>2026-04-11T15:16:19Z</time></trkpt><trkpt lat="44.38294176920044" lon="10.395322840554881"><ele>469.57142857142856</ele><time>2026-04-11T15:16:20Z</time></trkpt><trkpt lat="44.38287296046772" lon="10.395316598713293"><ele>471.28571428571433</ele><time>2026-04-11T15:16:21Z</time></trkpt><trkpt lat="44.38279394912808" lon="10.39530859744353"><ele>473.0</ele><time>2026-04-11T15:16:22Z</time></trkpt><trkpt lat="44.38270089854827" lon="10.395303025760615"><ele>473.14285714285717</ele><time>2026-04-11T15:16:23Z</time></trkpt><trkpt lat="44.38261457350525" lon="10.395303926714758"><ele>473.2857142857142</ele><time>2026-04-11T15:16:24Z</time></trkpt><trkpt lat="44.3825509913826" lon="10.395307461387214"><ele>473.4285714285714</ele><time>2026-04-11T15:16:25Z</time></trkpt><trkpt lat="44.38248750641293" lon="10.395302278511902"><ele>473.57142857142856</ele><time>2026-04-11T15:16:26Z</time></trkpt><trkpt lat="44.38242480310495" lon="10.395279086129218"><ele>473.71428571428567</ele><time>2026-04-11T15:16:27Z</time></trkpt><trkpt lat="44.382357244681266" lon="10.395227741374397"><ele>473.8571428571428</ele><time>2026-04-11T15:16:28Z</time></trkpt><trkpt lat="44.38228462921639" lon="10.395179335388157"><ele>473.99999999999994</ele><time>2026-04-11T15:16:29Z</time></trkpt><trkpt lat="44.38221831604399" lon="10.395158150561015"><ele>472.6666666666667</ele><time>2026-04-11T15:16:30Z</time></trkpt><trkpt lat="44.38215334766333" lon="10.395159848884111"><ele>471.33333333333337</ele><time>2026-04-11T15:16:31Z</time></trkpt><trkpt lat="44.38208338757714" lon="10.395179218698772"><ele>470.0</ele><time>2026-04-11T15:16:32Z</time></trkpt><trkpt lat="44.382017761106695" lon="10.395195603742845"><ele>468.6666666666667</ele><time>2026-04-11T15:16:33Z</time></trkpt><trkpt lat="44.38191355736923" lon="10.395142677627392"><ele>467.33333333333337</ele><time>2026-04-11T15:16:35Z</time></trkpt><trkpt lat="44.38184411742619" lon="10.395079973987825"><ele>466.0</ele><time>2026-04-11T15:16:36Z</time></trkpt><trkpt lat="44.3817642368607" lon="10.395003275838866"><ele>466.0</ele><time>2026-04-11T15:16:37Z</time></trkpt><trkpt lat="44.381677637916184" lon="10.394936708954878"><ele>466.0</ele><time>2026-04-11T15:16:38Z</time></trkpt><trkpt lat="44.38158744401458" lon="10.394871086248694"><ele>466.0</ele><time>2026-04-11T15:16:39Z</time></trkpt><trkpt lat="44.38149340003478" lon="10.39482641966525"><ele>466.0</ele><time>2026-04-11T15:16:40Z</time></trkpt><trkpt lat="44.38141535654028" lon="10.394762174474533"><ele>466.0</ele><time>2026-04-11T15:16:41Z</time></trkpt><trkpt lat="44.38133758845082" lon="10.394699621999429"><ele>468.20000000000005</ele><time>2026-04-11T15:16:42Z</time></trkpt><trkpt lat="44.381253628060165" lon="10.394663150401335"><ele>470.40000000000003</ele><time>2026-04-11T15:16:43Z</time></trkpt><trkpt lat="44.38117981756122" lon="10.394586565204285"><ele>472.6</ele><time>2026-04-11T15:16:44Z</time></trkpt><trkpt lat="44.381100946716884" lon="10.394529318165974"><ele>474.8</ele><time>2026-04-11T15:16:45Z</time></trkpt><trkpt lat="44.38102095719103" lon="10.394468224426598"><ele>477.0</ele><time>2026-04-11T15:16:46Z</time></trkpt><trkpt lat="44.380933387121964" lon="10.394410592274822"><ele>477.0</ele><time>2026-04-11T15:16:47Z</time></trkpt><trkpt lat="44.38086167763983" lon="10.394320932105536"><ele>477.00000000000006</ele><time>2026-04-11T15:16:48Z</time></trkpt><trkpt lat="44.38078996440195" lon="10.394261114313476"><ele>477.00000000000006</ele><time>2026-04-11T15:16:49Z</time></trkpt><trkpt lat="44.380707398418735" lon="10.394212297015601"><ele>477.0</ele><time>2026-04-11T15:16:50Z</time></trkpt><trkpt lat="44.38063112249855" lon="10.394147953822795"><ele>477.0</ele><time>2026-04-11T15:16:51Z</time></trkpt><trkpt lat="44.380541926431135" lon="10.394076618735092"><ele>476.20000000000005</ele><time>2026-04-11T15:16:52Z</time></trkpt><trkpt lat="44.3804546653382" lon="10.394010805555917"><ele>475.40000000000003</ele><time>2026-04-11T15:16:53Z</time></trkpt><trkpt lat="44.38038093449688" lon="10.393949664387286"><ele>474.59999999999997</ele><time>2026-04-11T15:16:54Z</time></trkpt><trkpt lat="44.380314910024964" lon="10.393875243314662"><ele>473.79999999999995</ele><time>2026-04-11T15:16:55Z</time></trkpt><trkpt lat="44.38024525464784" lon="10.393773348301597"><ele>473.0</ele><time>2026-04-11T15:16:56Z</time></trkpt><trkpt lat="44.38018210958307" lon="10.39369462401777"><ele>475.8333333333333</ele><time>2026-04-11T15:16:57Z</time></trkpt><trkpt lat="44.38011442946293" lon="10.393620579271873"><ele>478.66666666666663</ele><time>2026-04-11T15:16:58Z</time></trkpt><trkpt lat="44.380049531661655" lon="10.393563054834926"><ele>481.5</ele><time>2026-04-11T15:16:59Z</time></trkpt><trkpt lat="44.37998018242486" lon="10.393508800149077"><ele>484.33333333333337</ele><time>2026-04-11T15:17:00Z</time></trkpt><trkpt lat="44.379905641966985" lon="10.39348060744035"><ele>487.1666666666667</ele><time>2026-04-11T15:17:01Z</time></trkpt><trkpt lat="44.37981193022339" lon="10.393440399844955"><ele>490.0</ele><time>2026-04-11T15:17:02Z</time></trkpt><trkpt lat="44.379713293512935" lon="10.393398076051167"><ele>487.6</ele><time>2026-04-11T15:17:03Z</time></trkpt><trkpt lat="44.37963078133335" lon="10.39324059577735"><ele>485.2</ele><time>2026-04-11T15:17:04Z</time></trkpt><trkpt lat="44.37954490824204" lon="10.39315490492608"><ele>482.79999999999995</ele><time>2026-04-11T15:17:05Z</time></trkpt><trkpt lat="44.37945941951778" lon="10.39309322028748"><ele>480.4</ele><time>2026-04-11T15:17:06Z</time></trkpt><trkpt lat="44.379377660235185" lon="10.393042257818841"><ele>478.0</ele><time>2026-04-11T15:17:07Z</time></trkpt><trkpt lat="44.37928917694269" lon="10.393022251953022"><ele>479.00000000000006</ele><time>2026-04-11T15:17:08Z</time></trkpt><trkpt lat="44.37920371893344" lon="10.392999449775727"><ele>480.0</ele><time>2026-04-11T15:17:09Z</time></trkpt><trkpt lat="44.37911006325143" lon="10.392996758752437"><ele>481.0</ele><time>2026-04-11T15:17:10Z</time></trkpt><trkpt lat="44.379028104871026" lon="10.392946812941004"><ele>482.0</ele><time>2026-04-11T15:17:11Z</time></trkpt><trkpt lat="44.3789554105908" lon="10.392887678986263"><ele>483.00000000000006</ele><time>2026-04-11T15:17:12Z</time></trkpt><trkpt lat="44.378882772317894" lon="10.392828339024373"><ele>484.0</ele><time>2026-04-11T15:17:13Z</time></trkpt><trkpt lat="44.37880504998293" lon="10.392765631281916"><ele>484.0</ele><time>2026-04-11T15:17:14Z</time></trkpt><trkpt lat="44.37870698801749" lon="10.392709805403651"><ele>484.0</ele><time>2026-04-11T15:17:15Z</time></trkpt><trkpt lat="44.378613236091184" lon="10.39261062386097"><ele>484.0</ele><time>2026-04-11T15:17:16Z</time></trkpt><trkpt lat="44.378509561148554" lon="10.392537348701568"><ele>484.0</ele><time>2026-04-11T15:17:17Z</time></trkpt><trkpt lat="44.37840214927731" lon="10.392491143199623"><ele>484.00000000000006</ele><time>2026-04-11T15:17:18Z</time></trkpt><trkpt lat="44.37830869257555" lon="10.392429678559804"><ele>484.0</ele><time>2026-04-11T15:17:19Z</time></trkpt><trkpt lat="44.37823308694663" lon="10.39238133348717"><ele>484.0</ele><time>2026-04-11T15:17:20Z</time></trkpt><trkpt lat="44.37816858345619" lon="10.392359684522049"><ele>484.0</ele><time>2026-04-11T15:17:21Z</time></trkpt><trkpt lat="44.37809525309546" lon="10.392360608251181"><ele>484.00000000000006</ele><time>2026-04-11T15:17:22Z</time></trkpt><trkpt lat="44.37801072194625" lon="10.39232192606326"><ele>484.0</ele><time>2026-04-11T15:17:23Z</time></trkpt><trkpt lat="44.37795306214318" lon="10.392244261882173"><ele>484.0</ele><time>2026-04-11T15:17:24Z</time></trkpt><trkpt lat="44.377897174819026" lon="10.392199737450591"><ele>483.99999999999994</ele><time>2026-04-11T15:17:25Z</time></trkpt><trkpt lat="44.37783041654078" lon="10.392167228304737"><ele>484.0</ele><time>2026-04-11T15:17:26Z</time></trkpt><trkpt lat="44.37776427429938" lon="10.39211694222355"><ele>484.0</ele><time>2026-04-11T15:17:27Z</time></trkpt><trkpt lat="44.37770049206577" lon="10.392067435176148"><ele>483.99999999999994</ele><time>2026-04-11T15:17:28Z</time></trkpt><trkpt lat="44.37763726998929" lon="10.392018638465123"><ele>484.0</ele><time>2026-04-11T15:17:29Z</time></trkpt><trkpt lat="44.377575639681766" lon="10.39197511950588"><ele>484.0</ele><time>2026-04-11T15:17:30Z</time></trkpt><trkpt lat="44.3775118964177" lon="10.391927620146088"><ele>485.00000000000006</ele><time>2026-04-11T15:17:31Z</time></trkpt><trkpt lat="44.37744886484169" lon="10.39187585661457"><ele>486.0</ele><time>2026-04-11T15:17:32Z</time></trkpt><trkpt lat="44.377385842155974" lon="10.39182534432224"><ele>487.0</ele><time>2026-04-11T15:17:33Z</time></trkpt><trkpt lat="44.37731513882213" lon="10.391764663467077"><ele>488.0</ele><time>2026-04-11T15:17:34Z</time></trkpt><trkpt lat="44.377236354188845" lon="10.391703242755552"><ele>489.00000000000006</ele><time>2026-04-11T15:17:35Z</time></trkpt><trkpt lat="44.37714934410032" lon="10.391644306506723"><ele>490.0</ele><time>2026-04-11T15:17:36Z</time></trkpt><trkpt lat="44.37706924835518" lon="10.391578175988853"><ele>490.0</ele><time>2026-04-11T15:17:37Z</time></trkpt><trkpt lat="44.37699550879794" lon="10.391512632235628"><ele>490.0</ele><time>2026-04-11T15:17:38Z</time></trkpt><trkpt lat="44.376916953902" lon="10.391445601076114"><ele>490.0</ele><time>2026-04-11T15:17:39Z</time></trkpt><trkpt lat="44.37683201455427" lon="10.39137938763356"><ele>490.0</ele><time>2026-04-11T15:17:40Z</time></trkpt><trkpt lat="44.37675050049873" lon="10.391315686056652"><ele>490.0</ele><time>2026-04-11T15:17:41Z</time></trkpt><trkpt lat="44.376671795306784" lon="10.391253298024917"><ele>491.2</ele><time>2026-04-11T15:17:42Z</time></trkpt><trkpt lat="44.376591455909725" lon="10.391187329358155"><ele>492.4</ele><time>2026-04-11T15:17:43Z</time></trkpt><trkpt lat="44.37651093321548" lon="10.391119849980567"><ele>493.6</ele><time>2026-04-11T15:17:44Z</time></trkpt><trkpt lat="44.37642728274551" lon="10.391055882817303"><ele>494.8</ele><time>2026-04-11T15:17:45Z</time></trkpt><trkpt lat="44.376345048522204" lon="10.390993918690254"><ele>496.0</ele><time>2026-04-11T15:17:46Z</time></trkpt><trkpt lat="44.37626375917732" lon="10.390927516251004"><ele>496.0</ele><time>2026-04-11T15:17:47Z</time></trkpt><trkpt lat="44.37618039738906" lon="10.39085979510704"><ele>496.0</ele><time>2026-04-11T15:17:48Z</time></trkpt><trkpt lat="44.376098919786216" lon="10.390796211801494"><ele>496.0</ele><time>2026-04-11T15:17:49Z</time></trkpt><trkpt lat="44.376014644743826" lon="10.390732635656994"><ele>496.0</ele><time>2026-04-11T15:17:50Z</time></trkpt><trkpt lat="44.37593236176811" lon="10.390668838475916"><ele>496.0</ele><time>2026-04-11T15:17:51Z</time></trkpt><trkpt lat="44.37585054329629" lon="10.390603970705534"><ele>496.0</ele><time>2026-04-11T15:17:52Z</time></trkpt><trkpt lat="44.37576893135478" lon="10.390539137853283"><ele>496.0</ele><time>2026-04-11T15:17:53Z</time></trkpt><trkpt lat="44.37568544115144" lon="10.390475806533395"><ele>496.0</ele><time>2026-04-11T15:17:54Z</time></trkpt><trkpt lat="44.375600900778814" lon="10.390414701694375"><ele>496.0</ele><time>2026-04-11T15:17:55Z</time></trkpt><trkpt lat="44.37552049833685" lon="10.390349323194727"><ele>496.0</ele><time>2026-04-11T15:17:56Z</time></trkpt><trkpt lat="44.37543729477665" lon="10.390280510399178"><ele>496.8</ele><time>2026-04-11T15:17:57Z</time></trkpt><trkpt lat="44.37536070209712" lon="10.390218416136426"><ele>497.6</ele><time>2026-04-11T15:17:58Z</time></trkpt><trkpt lat="44.3752799324834" lon="10.390158231661523"><ele>498.4</ele><time>2026-04-11T15:17:59Z</time></trkpt><trkpt lat="44.37519525081199" lon="10.390094984675567"><ele>499.2</ele><time>2026-04-11T15:18:00Z</time></trkpt><trkpt lat="44.37512116090779" lon="10.390011896930558"><ele>500.0</ele><time>2026-04-11T15:18:01Z</time></trkpt><trkpt lat="44.37504387858742" lon="10.38995088508604"><ele>500.0</ele><time>2026-04-11T15:18:02Z</time></trkpt><trkpt lat="44.37496144283002" lon="10.389885805012238"><ele>500.0</ele><time>2026-04-11T15:18:03Z</time></trkpt><trkpt lat="44.37486803056749" lon="10.389837741931673"><ele>500.0</ele><time>2026-04-11T15:18:04Z</time></trkpt><trkpt lat="44.374779545563115" lon="10.389749767807889"><ele>500.0</ele><time>2026-04-11T15:18:05Z</time></trkpt><trkpt lat="44.37470368238262" lon="10.389685677622504"><ele>500.0</ele><time>2026-04-11T15:18:06Z</time></trkpt><trkpt lat="44.374621206683415" lon="10.389622276574201"><ele>501.5</ele><time>2026-04-11T15:18:07Z</time></trkpt><trkpt lat="44.37453375831135" lon="10.389563529795334"><ele>503.0</ele><time>2026-04-11T15:18:08Z</time></trkpt><trkpt lat="44.374369857993194" lon="10.389441415979588"><ele>504.5</ele><time>2026-04-11T15:18:10Z</time></trkpt><trkpt lat="44.37428699711856" lon="10.389371740748908"><ele>506.0</ele><time>2026-04-11T15:18:11Z</time></trkpt><trkpt lat="44.374203556177235" lon="10.389303254941852"><ele>506.0</ele><time>2026-04-11T15:18:12Z</time></trkpt><trkpt lat="44.374124498666774" lon="10.389234033628714"><ele>506.0</ele><time>2026-04-11T15:18:13Z</time></trkpt><trkpt lat="44.37404526739128" lon="10.389167208754843"><ele>506.0</ele><time>2026-04-11T15:18:14Z</time></trkpt><trkpt lat="44.373961533456615" lon="10.389105335556406"><ele>506.0</ele><time>2026-04-11T15:18:15Z</time></trkpt><trkpt lat="44.37387675242688" lon="10.389047244230827"><ele>506.0</ele><time>2026-04-11T15:18:16Z</time></trkpt><trkpt lat="44.37379692434061" lon="10.388982660319645"><ele>506.20000000000005</ele><time>2026-04-11T15:18:17Z</time></trkpt><trkpt lat="44.373721435359506" lon="10.388900539692836"><ele>506.40000000000003</ele><time>2026-04-11T15:18:18Z</time></trkpt><trkpt lat="44.37364034794347" lon="10.388835962380535"><ele>506.6</ele><time>2026-04-11T15:18:19Z</time></trkpt><trkpt lat="44.37355879803768" lon="10.38877148896174"><ele>506.8</ele><time>2026-04-11T15:18:20Z</time></trkpt><trkpt lat="44.37347618849645" lon="10.388706177782401"><ele>507.0</ele><time>2026-04-11T15:18:21Z</time></trkpt><trkpt lat="44.37339382710686" lon="10.388641062844155"><ele>508.40000000000003</ele><time>2026-04-11T15:18:22Z</time></trkpt><trkpt lat="44.37331220345755" lon="10.388576531108276"><ele>509.80000000000007</ele><time>2026-04-11T15:18:23Z</time></trkpt><trkpt lat="44.3732205541374" lon="10.388529782301184"><ele>511.2</ele><time>2026-04-11T15:18:24Z</time></trkpt><trkpt lat="44.373140747072995" lon="10.388462321570335"><ele>512.6</ele><time>2026-04-11T15:18:25Z</time></trkpt><trkpt lat="44.37306002072819" lon="10.388393480180802"><ele>514.0</ele><time>2026-04-11T15:18:26Z</time></trkpt><trkpt lat="44.37298227884821" lon="10.388320774908673"><ele>514.1666666666667</ele><time>2026-04-11T15:18:27.001Z</time></trkpt><trkpt lat="44.37290135142638" lon="10.388254258915008"><ele>514.3333333333334</ele><time>2026-04-11T15:18:28.001Z</time></trkpt><trkpt lat="44.37282279180192" lon="10.388184667633144"><ele>514.5</ele><time>2026-04-11T15:18:29.001Z</time></trkpt><trkpt lat="44.3727450025062" lon="10.388113078601844"><ele>514.6666666666666</ele><time>2026-04-11T15:18:30.001Z</time></trkpt><trkpt lat="44.372683579946916" lon="10.388045144108085"><ele>514.8333333333333</ele><time>2026-04-11T15:18:31.001Z</time></trkpt><trkpt lat="44.372637309286496" lon="10.387983291376564"><ele>515.0</ele><time>2026-04-11T15:18:33.001Z</time></trkpt><trkpt lat="44.37246910686676" lon="10.38805849854493"><ele>515.0</ele><time>2026-04-11T15:18:45.001Z</time></trkpt><trkpt lat="44.372431254996336" lon="10.388340138183509"><ele>515.0</ele><time>2026-04-11T15:18:48.001Z</time></trkpt><trkpt lat="44.372398729075414" lon="10.388467242994627"><ele>515.0</ele><time>2026-04-11T15:18:50.001Z</time></trkpt><trkpt lat="44.372376075501926" lon="10.388568625598044"><ele>515.0</ele><time>2026-04-11T15:18:52.001Z</time></trkpt><trkpt lat="44.37232053844269" lon="10.388655621327919"><ele>515.0</ele><time>2026-04-11T15:18:55.001Z</time></trkpt><trkpt lat="44.37225073947755" lon="10.38864748245066"><ele>515.0</ele><time>2026-04-11T15:19:04.001Z</time></trkpt><trkpt lat="44.372165019859914" lon="10.388556597990434"><ele>515.0</ele><time>2026-04-11T15:19:06.001Z</time></trkpt><trkpt lat="44.3720716205637" lon="10.38849397838232"><ele>515.0</ele><time>2026-04-11T15:19:08.001Z</time></trkpt><trkpt lat="44.37200824075189" lon="10.388499645736577"><ele>515.0</ele><time>2026-04-11T15:19:09.001Z</time></trkpt><trkpt lat="44.37193891003792" lon="10.388513882547848"><ele>515.0</ele><time>2026-04-11T15:19:10Z</time></trkpt><trkpt lat="44.37187197958637" lon="10.388521953062083"><ele>516.0</ele><time>2026-04-11T15:19:11Z</time></trkpt><trkpt lat="44.37180309047137" lon="10.388518567736266"><ele>517.0</ele><time>2026-04-11T15:19:12Z</time></trkpt><trkpt lat="44.37173241912949" lon="10.38850706077599"><ele>518.0</ele><time>2026-04-11T15:19:13Z</time></trkpt><trkpt lat="44.371661534431645" lon="10.388517185570116"><ele>519.0</ele><time>2026-04-11T15:19:14Z</time></trkpt><trkpt lat="44.37159542987249" lon="10.388547382977546"><ele>520.0</ele><time>2026-04-11T15:19:15Z</time></trkpt><trkpt lat="44.371534452321285" lon="10.388589149306691"><ele>521.0</ele><time>2026-04-11T15:19:16Z</time></trkpt><trkpt lat="44.371474328937964" lon="10.388625816923119"><ele>522.0</ele><time>2026-04-11T15:19:17Z</time></trkpt><trkpt lat="44.37135730878359" lon="10.388608221554618"><ele>522.0</ele><time>2026-04-11T15:19:19Z</time></trkpt><trkpt lat="44.37127666976622" lon="10.388593388748705"><ele>522.0</ele><time>2026-04-11T15:19:20Z</time></trkpt><trkpt lat="44.37120860863555" lon="10.388578074931887"><ele>522.0</ele><time>2026-04-11T15:19:21Z</time></trkpt><trkpt lat="44.37111452521266" lon="10.388532758775074"><ele>522.0</ele><time>2026-04-11T15:19:23Z</time></trkpt><trkpt lat="44.371026383045084" lon="10.388455846361763"><ele>522.0</ele><time>2026-04-11T15:19:25Z</time></trkpt><trkpt lat="44.37093267092974" lon="10.388388963934975"><ele>522.0</ele><time>2026-04-11T15:19:26.999Z</time></trkpt><trkpt lat="44.37085812071746" lon="10.388350961299711"><ele>522.0</ele><time>2026-04-11T15:19:27.999Z</time></trkpt><trkpt lat="44.37079879503597" lon="10.388311387027471"><ele>522.0</ele><time>2026-04-11T15:19:28.999Z</time></trkpt><trkpt lat="44.370744366711456" lon="10.388262740721588"><ele>522.0</ele><time>2026-04-11T15:19:29.999Z</time></trkpt><trkpt lat="44.370676128206725" lon="10.38819604013774"><ele>522.0</ele><time>2026-04-11T15:19:30.999Z</time></trkpt><trkpt lat="44.370603625390004" lon="10.388146836701049"><ele>522.0</ele><time>2026-04-11T15:19:31.999Z</time></trkpt><trkpt lat="44.37052492935803" lon="10.388113431742406"><ele>522.1666666666666</ele><time>2026-04-11T15:19:32.999Z</time></trkpt><trkpt lat="44.37045546532043" lon="10.388084384814912"><ele>522.3333333333334</ele><time>2026-04-11T15:19:33.999Z</time></trkpt><trkpt lat="44.37039219411632" lon="10.388063810924532"><ele>522.5</ele><time>2026-04-11T15:19:34.999Z</time></trkpt><trkpt lat="44.37027352655608" lon="10.388021295573603"><ele>522.6666666666667</ele><time>2026-04-11T15:19:36.999Z</time></trkpt><trkpt lat="44.37021079086825" lon="10.387982907141655"><ele>522.8333333333334</ele><time>2026-04-11T15:19:37.999Z</time></trkpt><trkpt lat="44.37014733478583" lon="10.387939334973852"><ele>523.0</ele><time>2026-04-11T15:19:38.999Z</time></trkpt><trkpt lat="44.37008432659878" lon="10.387904105906166"><ele>524.3333333333334</ele><time>2026-04-11T15:19:39.999Z</time></trkpt><trkpt lat="44.370011229389284" lon="10.387857061699846"><ele>525.6666666666667</ele><time>2026-04-11T15:19:40.999Z</time></trkpt><trkpt lat="44.36994584049641" lon="10.3878257896049"><ele>527.0</ele><time>2026-04-11T15:19:41.999Z</time></trkpt><trkpt lat="44.369872678994476" lon="10.387772074653006"><ele>528.3333333333334</ele><time>2026-04-11T15:19:42.999Z</time></trkpt><trkpt lat="44.369804753042146" lon="10.387707420966267"><ele>529.6666666666666</ele><time>2026-04-11T15:19:43.999Z</time></trkpt><trkpt lat="44.36973559179691" lon="10.387633443670447"><ele>531.0</ele><time>2026-04-11T15:19:44.999Z</time></trkpt><trkpt lat="44.36967599973466" lon="10.387553550240796"><ele>531.3333333333334</ele><time>2026-04-11T15:19:45.999Z</time></trkpt><trkpt lat="44.36961847505966" lon="10.387490177204715"><ele>531.6666666666666</ele><time>2026-04-11T15:19:47Z</time></trkpt><trkpt lat="44.36952968024009" lon="10.387443208084122"><ele>532.0</ele><time>2026-04-11T15:19:49Z</time></trkpt><trkpt lat="44.369459546771445" lon="10.387468320094671"><ele>532.3333333333333</ele><time>2026-04-11T15:19:57Z</time></trkpt><trkpt lat="44.36939784422777" lon="10.38751601631752"><ele>532.6666666666666</ele><time>2026-04-11T15:20:00Z</time></trkpt><trkpt lat="44.369349148758275" lon="10.387581367981623"><ele>533.0</ele><time>2026-04-11T15:20:02Z</time></trkpt><trkpt lat="44.36929174140778" lon="10.387643512928754"><ele>533.0</ele><time>2026-04-11T15:20:05Z</time></trkpt><trkpt lat="44.369259699626795" lon="10.387719920231799"><ele>533.0</ele><time>2026-04-11T15:20:09Z</time></trkpt><trkpt lat="44.36924628279629" lon="10.38782812757656"><ele>533.0</ele><time>2026-04-11T15:20:13Z</time></trkpt><trkpt lat="44.36915492180485" lon="10.387864522916404"><ele>533.0</ele><time>2026-04-11T15:20:16Z</time></trkpt><trkpt lat="44.369089630672185" lon="10.387860003587988"><ele>533.0</ele><time>2026-04-11T15:20:18Z</time></trkpt><trkpt lat="44.36901878743241" lon="10.387843896091649"><ele>533.0</ele><time>2026-04-11T15:20:20Z</time></trkpt><trkpt lat="44.3689662164324" lon="10.387779835387828"><ele>533.0</ele><time>2026-04-11T15:20:22Z</time></trkpt><trkpt lat="44.368902724373605" lon="10.387724106667507"><ele>534.8</ele><time>2026-04-11T15:20:25Z</time></trkpt><trkpt lat="44.36883933121197" lon="10.387679450122604"><ele>536.5999999999999</ele><time>2026-04-11T15:22:53.001Z</time></trkpt><trkpt lat="44.36876678191826" lon="10.387628996810262"><ele>538.4000000000001</ele><time>2026-04-11T15:22:56.001Z</time></trkpt><trkpt lat="44.36869500785489" lon="10.38759157583116"><ele>540.2</ele><time>2026-04-11T15:22:58.001Z</time></trkpt><trkpt lat="44.36858804117564" lon="10.38753163734393"><ele>542.0</ele><time>2026-04-11T15:23:00.001Z</time></trkpt><trkpt lat="44.36848205779524" lon="10.387472198980465"><ele>542.0</ele><time>2026-04-11T15:23:02.001Z</time></trkpt><trkpt lat="44.36842924403348" lon="10.387402050704711"><ele>542.0</ele><time>2026-04-11T15:23:04.001Z</time></trkpt><trkpt lat="44.36837902022053" lon="10.387307975951002"><ele>542.0</ele><time>2026-04-11T15:23:06.001Z</time></trkpt><trkpt lat="44.368272688822145" lon="10.38719888236926"><ele>542.0</ele><time>2026-04-11T15:23:08.001Z</time></trkpt><trkpt lat="44.36820879862204" lon="10.387137001145838"><ele>542.0</ele><time>2026-04-11T15:23:09.001Z</time></trkpt><trkpt lat="44.36814033857576" lon="10.387109851770294"><ele>542.0</ele><time>2026-04-11T15:23:10.001Z</time></trkpt><trkpt lat="44.368071603746365" lon="10.387099907966148"><ele>543.0</ele><time>2026-04-11T15:23:11.001Z</time></trkpt><trkpt lat="44.367946882170706" lon="10.387104278893059"><ele>544.0</ele><time>2026-04-11T15:23:13.001Z</time></trkpt><trkpt lat="44.367883018404534" lon="10.387097579727655"><ele>545.0</ele><time>2026-04-11T15:23:14.001Z</time></trkpt><trkpt lat="44.36781817786939" lon="10.387072562529376"><ele>546.0</ele><time>2026-04-11T15:23:15.001Z</time></trkpt><trkpt lat="44.36775597795878" lon="10.387036041917774"><ele>547.0</ele><time>2026-04-11T15:23:16.001Z</time></trkpt><trkpt lat="44.36765547303988" lon="10.387005570119806"><ele>548.0</ele><time>2026-04-11T15:23:18.001Z</time></trkpt><trkpt lat="44.36757669478753" lon="10.387014848762943"><ele>548.0</ele><time>2026-04-11T15:23:20.001Z</time></trkpt><trkpt lat="44.36746725157191" lon="10.386983267762952"><ele>548.0</ele><time>2026-04-11T15:23:22.001Z</time></trkpt><trkpt lat="44.36737637256392" lon="10.38685827850544"><ele>548.0</ele><time>2026-04-11T15:23:24.001Z</time></trkpt><trkpt lat="44.36731887712004" lon="10.386784691946877"><ele>548.0</ele><time>2026-04-11T15:23:25.001Z</time></trkpt><trkpt lat="44.36726137878157" lon="10.386695330323336"><ele>548.0</ele><time>2026-04-11T15:23:26.001Z</time></trkpt><trkpt lat="44.36721580353382" lon="10.386610732946911"><ele>549.1666666666666</ele><time>2026-04-11T15:23:27.001Z</time></trkpt><trkpt lat="44.367165740056876" lon="10.386534517966792"><ele>550.3333333333333</ele><time>2026-04-11T15:23:28.001Z</time></trkpt><trkpt lat="44.36708548418476" lon="10.386430460263949"><ele>551.5</ele><time>2026-04-11T15:23:30.001Z</time></trkpt><trkpt lat="44.367006185738724" lon="10.386338360696742"><ele>552.6666666666666</ele><time>2026-04-11T15:23:32.001Z</time></trkpt><trkpt lat="44.36693577444428" lon="10.38630160367245"><ele>553.8333333333334</ele><time>2026-04-11T15:23:34Z</time></trkpt><trkpt lat="44.3668523256221" lon="10.386291520893325"><ele>555.0</ele><time>2026-04-11T15:23:36Z</time></trkpt><trkpt lat="44.36678255270409" lon="10.386273332929772"><ele>555.0</ele><time>2026-04-11T15:23:38Z</time></trkpt><trkpt lat="44.36671455887728" lon="10.386258591897947"><ele>555.0</ele><time>2026-04-11T15:23:40Z</time></trkpt><trkpt lat="44.36661233812145" lon="10.386254854847788"><ele>555.0</ele><time>2026-04-11T15:23:43Z</time></trkpt><trkpt lat="44.36653612513359" lon="10.386246421470593"><ele>555.0</ele><time>2026-04-11T15:23:46Z</time></trkpt><trkpt lat="44.366463378154215" lon="10.38626484797061"><ele>555.0</ele><time>2026-04-11T15:23:49Z</time></trkpt><trkpt lat="44.36636117369934" lon="10.386277280552875"><ele>555.0</ele><time>2026-04-11T15:23:51Z</time></trkpt><trkpt lat="44.36628435930494" lon="10.38634050684638"><ele>557.5</ele><time>2026-04-11T15:23:54Z</time></trkpt><trkpt lat="44.366229210945555" lon="10.3864292226739"><ele>560.0</ele><time>2026-04-11T15:23:56Z</time></trkpt><trkpt lat="44.36613514865815" lon="10.386482383350739"><ele>562.5</ele><time>2026-04-11T15:23:58Z</time></trkpt><trkpt lat="44.366063369332394" lon="10.386474736640306"><ele>565.0</ele><time>2026-04-11T15:24:00Z</time></trkpt><trkpt lat="44.36600752565832" lon="10.386524962691645"><ele>567.5</ele><time>2026-04-11T15:24:12Z</time></trkpt><trkpt lat="44.36601406629709" lon="10.386615582295807"><ele>570.0</ele><time>2026-04-11T15:24:14Z</time></trkpt><trkpt lat="44.36603194524206" lon="10.386712181904203"><ele>570.0</ele><time>2026-04-11T15:24:16Z</time></trkpt><trkpt lat="44.36605037958813" lon="10.386817928922737"><ele>570.0</ele><time>2026-04-11T15:24:18Z</time></trkpt><trkpt lat="44.366035671809705" lon="10.386938261008073"><ele>570.0</ele><time>2026-04-11T15:26:48.001Z</time></trkpt><trkpt lat="44.36600929636748" lon="10.38702733306401"><ele>570.0</ele><time>2026-04-11T15:28:34Z</time></trkpt><trkpt lat="44.365942472669374" lon="10.387065306684693"><ele>570.0</ele><time>2026-04-11T15:28:37Z</time></trkpt><trkpt lat="44.365878599302704" lon="10.387084821912262"><ele>570.0</ele><time>2026-04-11T15:28:47Z</time></trkpt><trkpt lat="44.36579711660202" lon="10.387069133139512"><ele>570.0</ele><time>2026-04-11T15:28:50Z</time></trkpt><trkpt lat="44.3657320696943" lon="10.38705663217588"><ele>570.0</ele><time>2026-04-11T15:28:53Z</time></trkpt><trkpt lat="44.3656582107846" lon="10.387047353398309"><ele>570.0</ele><time>2026-04-11T15:29:09Z</time></trkpt><trkpt lat="44.365590538117814" lon="10.387011522729724"><ele>570.0</ele><time>2026-04-11T15:29:12Z</time></trkpt><trkpt lat="44.36553021198747" lon="10.386965085850129"><ele>570.0</ele><time>2026-04-11T15:29:14Z</time></trkpt><trkpt lat="44.36541400892181" lon="10.38694492787791"><ele>570.0</ele><time>2026-04-11T15:29:17Z</time></trkpt><trkpt lat="44.365348667629824" lon="10.386921806517108"><ele>571.8333333333334</ele><time>2026-04-11T15:29:19Z</time></trkpt><trkpt lat="44.365281175236696" lon="10.38690267458681"><ele>573.6666666666666</ele><time>2026-04-11T15:32:33Z</time></trkpt><trkpt lat="44.36517050557236" lon="10.386875106044474"><ele>575.5</ele><time>2026-04-11T15:32:36Z</time></trkpt><trkpt lat="44.36510186816672" lon="10.386846556666024"><ele>577.3333333333333</ele><time>2026-04-11T15:32:38Z</time></trkpt><trkpt lat="44.36503982700597" lon="10.386885214820845"><ele>579.1666666666666</ele><time>2026-04-11T15:32:41Z</time></trkpt><trkpt lat="44.364967963275554" lon="10.386908142740342"><ele>581.0</ele><time>2026-04-11T15:32:45Z</time></trkpt><trkpt lat="44.36489411947566" lon="10.386947586916754"><ele>581.0</ele><time>2026-04-11T15:32:49Z</time></trkpt><trkpt lat="44.364831139715974" lon="10.386968933069127"><ele>581.0</ele><time>2026-04-11T15:32:51Z</time></trkpt><trkpt lat="44.364761014642156" lon="10.386993218796041"><ele>581.0</ele><time>2026-04-11T15:32:53Z</time></trkpt><trkpt lat="44.36470273759816" lon="10.387050884319425"><ele>581.0</ele><time>2026-04-11T15:32:55Z</time></trkpt><trkpt lat="44.364622505664165" lon="10.387135049191697"><ele>581.0</ele><time>2026-04-11T15:32:57Z</time></trkpt><trkpt lat="44.36454792807768" lon="10.387203911803534"><ele>581.0</ele><time>2026-04-11T15:32:59Z</time></trkpt><trkpt lat="44.364462354835005" lon="10.387282001957066"><ele>584.6666666666666</ele><time>2026-04-11T15:33:01Z</time></trkpt><trkpt lat="44.36436901149121" lon="10.387353645761612"><ele>588.3333333333333</ele><time>2026-04-11T15:33:03Z</time></trkpt><trkpt lat="44.36428945839109" lon="10.387437295746139"><ele>592.0</ele><time>2026-04-11T15:33:05Z</time></trkpt><trkpt lat="44.364244013292335" lon="10.387505988882065"><ele>595.6666666666666</ele><time>2026-04-11T15:33:07Z</time></trkpt><trkpt lat="44.364252616805885" lon="10.387615408239332"><ele>599.3333333333334</ele><time>2026-04-11T15:33:09Z</time></trkpt><trkpt lat="44.364229057972864" lon="10.387733223343211"><ele>603.0</ele><time>2026-04-11T15:33:12Z</time></trkpt><trkpt lat="44.364205867763296" lon="10.387820739321354"><ele>603.0</ele><time>2026-04-11T15:33:15Z</time></trkpt><trkpt lat="44.364162812441315" lon="10.387920843389361"><ele>603.0</ele><time>2026-04-11T15:33:18Z</time></trkpt><trkpt lat="44.364107590876934" lon="10.388013896600803"><ele>603.0</ele><time>2026-04-11T15:33:21Z</time></trkpt><trkpt lat="44.364067002746154" lon="10.388104568146325"><ele>603.0</ele><time>2026-04-11T15:36:00.001Z</time></trkpt><trkpt lat="44.364015743268446" lon="10.388162580695395"><ele>603.0</ele><time>2026-04-11T15:36:06.001Z</time></trkpt><trkpt lat="44.363941802579966" lon="10.388243060840558"><ele>603.0</ele><time>2026-04-11T15:36:08.001Z</time></trkpt><trkpt lat="44.363883898002356" lon="10.388336704990685"><ele>607.8333333333334</ele><time>2026-04-11T15:36:11.001Z</time></trkpt><trkpt lat="44.36379696361547" lon="10.388388235097135"><ele>612.6666666666666</ele><time>2026-04-11T15:36:13.001Z</time></trkpt><trkpt lat="44.36373893443344" lon="10.388429059175207"><ele>617.5</ele><time>2026-04-11T15:36:15Z</time></trkpt><trkpt lat="44.363666250766826" lon="10.388470442647627"><ele>622.3333333333333</ele><time>2026-04-11T15:36:17Z</time></trkpt><trkpt lat="44.36358335981151" lon="10.38854102129641"><ele>627.1666666666666</ele><time>2026-04-11T15:36:19Z</time></trkpt><trkpt lat="44.363533816564356" lon="10.388606818433741"><ele>632.0</ele><time>2026-04-11T15:36:20Z</time></trkpt><trkpt lat="44.363435997475584" lon="10.388690192360661"><ele>632.0</ele><time>2026-04-11T15:36:22Z</time></trkpt><trkpt lat="44.36333937082572" lon="10.388760169722955"><ele>632.0</ele><time>2026-04-11T15:36:24Z</time></trkpt><trkpt lat="44.36324713814122" lon="10.3888302184219"><ele>632.0</ele><time>2026-04-11T15:36:26Z</time></trkpt><trkpt lat="44.363173904055444" lon="10.388894004978642"><ele>632.0</ele><time>2026-04-11T15:36:28Z</time></trkpt><trkpt lat="44.36310488335787" lon="10.38895424204454"><ele>632.0</ele><time>2026-04-11T15:36:30Z</time></trkpt><trkpt lat="44.363062405485465" lon="10.389020231873376"><ele>632.0</ele><time>2026-04-11T15:36:32Z</time></trkpt><trkpt lat="44.3630185657737" lon="10.389088190677729"><ele>635.1666666666666</ele><time>2026-04-11T15:36:34Z</time></trkpt><trkpt lat="44.363019999617805" lon="10.38920828309851"><ele>638.3333333333333</ele><time>2026-04-11T15:36:37Z</time></trkpt><trkpt lat="44.36301059454251" lon="10.389399284839511"><ele>641.5</ele><time>2026-04-11T15:36:53.999Z</time></trkpt><trkpt lat="44.36300776311578" lon="10.389491993868635"><ele>644.6666666666666</ele><time>2026-04-11T15:41:27Z</time></trkpt><trkpt lat="44.36299052220969" lon="10.389585178768037"><ele>647.8333333333334</ele><time>2026-04-11T15:41:30Z</time></trkpt><trkpt lat="44.3629643900852" lon="10.389666223774936"><ele>651.0</ele><time>2026-04-11T15:41:33Z</time></trkpt><trkpt lat="44.36289374050198" lon="10.389740854123469"><ele>654.6666666666666</ele><time>2026-04-11T15:41:37Z</time></trkpt><trkpt lat="44.362808254367295" lon="10.389798869802036"><ele>658.3333333333334</ele><time>2026-04-11T15:41:40Z</time></trkpt><trkpt lat="44.36281291418644" lon="10.389905715218493"><ele>662.0</ele><time>2026-04-11T15:41:43Z</time></trkpt><trkpt lat="44.36282941227154" lon="10.39001154265378"><ele>665.6666666666667</ele><time>2026-04-11T15:41:46Z</time></trkpt><trkpt lat="44.362838986363826" lon="10.390151582065126"><ele>669.3333333333334</ele><time>2026-04-11T15:41:49Z</time></trkpt><trkpt lat="44.362850072910334" lon="10.390254318648145"><ele>673.0</ele><time>2026-04-11T15:41:54Z</time></trkpt><trkpt lat="44.362849301889725" lon="10.390370287928597"><ele>673.0</ele><time>2026-04-11T15:41:56Z</time></trkpt><trkpt lat="44.362852196525985" lon="10.390482672163223"><ele>673.0</ele><time>2026-04-11T15:41:58Z</time></trkpt><trkpt lat="44.36284933567187" lon="10.390582246120395"><ele>673.0</ele><time>2026-04-11T15:42:01Z</time></trkpt><trkpt lat="44.36286488973877" lon="10.39067804875507"><ele>673.0</ele><time>2026-04-11T15:42:03Z</time></trkpt><trkpt lat="44.36290425353316" lon="10.390767702391793"><ele>673.0</ele><time>2026-04-11T15:42:05Z</time></trkpt><trkpt lat="44.36294859909111" lon="10.390831724277744"><ele>673.0</ele><time>2026-04-11T15:51:02Z</time></trkpt><trkpt lat="44.36299275721082" lon="10.39094230979336"><ele>673.8333333333334</ele><time>2026-04-11T15:51:05Z</time></trkpt><trkpt lat="44.36302027331993" lon="10.391035883668838"><ele>674.6666666666667</ele><time>2026-04-11T15:51:08Z</time></trkpt><trkpt lat="44.363063381621146" lon="10.39112285756093"><ele>675.5</ele><time>2026-04-11T15:51:10Z</time></trkpt><trkpt lat="44.3631160011533" lon="10.391225065779937"><ele>676.3333333333334</ele><time>2026-04-11T15:51:13Z</time></trkpt><trkpt lat="44.363190563340964" lon="10.39129958396787"><ele>677.1666666666666</ele><time>2026-04-11T15:51:15Z</time></trkpt><trkpt lat="44.36327988561291" lon="10.3913284731945"><ele>678.0</ele><time>2026-04-11T15:51:17Z</time></trkpt><trkpt lat="44.36334680125651" lon="10.39136868745841"><ele>684.0</ele><time>2026-04-11T15:51:19Z</time></trkpt><trkpt lat="44.36342417947101" lon="10.391418621414612"><ele>690.0</ele><time>2026-04-11T15:51:21Z</time></trkpt><trkpt lat="44.36348691553319" lon="10.391501432765189"><ele>696.0</ele><time>2026-04-11T15:51:23Z</time></trkpt><trkpt lat="44.36355636262802" lon="10.391578863630226"><ele>702.0</ele><time>2026-04-11T15:51:25Z</time></trkpt><trkpt lat="44.363615896982274" lon="10.391650631709709"><ele>708.0</ele><time>2026-04-11T15:51:27.001Z</time></trkpt><trkpt lat="44.36365944574027" lon="10.391753338042543"><ele>714.0</ele><time>2026-04-11T15:51:29.001Z</time></trkpt><trkpt lat="44.3637141054996" lon="10.391842768165459"><ele>714.0</ele><time>2026-04-11T15:51:31.001Z</time></trkpt><trkpt lat="44.363749317187256" lon="10.391932794462207"><ele>714.0</ele><time>2026-04-11T15:51:34.001Z</time></trkpt><trkpt lat="44.363773730533254" lon="10.392040701168636"><ele>714.0</ele><time>2026-04-11T15:51:37.001Z</time></trkpt><trkpt lat="44.36382804238765" lon="10.392143140815758"><ele>714.0</ele><time>2026-04-11T15:51:40.001Z</time></trkpt><trkpt lat="44.36388900669973" lon="10.392223978470378"><ele>714.0</ele><time>2026-04-11T15:51:42.001Z</time></trkpt><trkpt lat="44.363971839813836" lon="10.392292365256228"><ele>714.0</ele><time>2026-04-11T15:51:45.001Z</time></trkpt><trkpt lat="44.364031784056635" lon="10.392373517381921"><ele>716.0</ele><time>2026-04-11T15:51:47.001Z</time></trkpt><trkpt lat="44.36411781452685" lon="10.392465121788984"><ele>718.0</ele><time>2026-04-11T15:51:49.001Z</time></trkpt><trkpt lat="44.36412821708837" lon="10.392587553205345"><ele>720.0</ele><time>2026-04-11T15:51:52.001Z</time></trkpt><trkpt lat="44.36405872818521" lon="10.392601359814039"><ele>722.0</ele><time>2026-04-11T15:52:44.001Z</time></trkpt><trkpt lat="44.36399089287895" lon="10.392615619044406"><ele>724.0</ele><time>2026-04-11T15:53:13Z</time></trkpt><trkpt lat="44.36390113488184" lon="10.392602564091568"><ele>726.0</ele><time>2026-04-11T15:53:17Z</time></trkpt><trkpt lat="44.36382859105476" lon="10.392563053199337"><ele>741.0</ele><time>2026-04-11T15:54:14Z</time></trkpt><trkpt lat="44.36378414455845" lon="10.392473268478987"><ele>741.0</ele><time>2026-04-11T15:54:17Z</time></trkpt><trkpt lat="44.36367504584869" lon="10.392484167813548"><ele>741.0</ele><time>2026-04-11T15:54:19Z</time></trkpt><trkpt lat="44.36360325525769" lon="10.392517544900592"><ele>741.0</ele><time>2026-04-11T15:54:21Z</time></trkpt><trkpt lat="44.363587804010066" lon="10.392604947681345"><ele>741.0</ele><time>2026-04-11T15:56:37.001Z</time></trkpt></trkseg></trk></gpx>